<?xml version="1.0" encoding="UTF-8" standalone="no" ?>
<gpx xmlns="http://www.topografix.com/GPX/1/1" xmlns:xsi="http://www.w3.org/2001/XMLSchema-instance" xsi:schemaLocation="http://www.topografix.com/GPX/1/1 http://www.topografix.com/GPX/1/1/gpx.xsd" version="1.1" creator="VisuGPX - https://www.visugpx.com">
  <metadata>
    <name>Baltic States</name>
  </metadata>
  <trk>
    <name><![CDATA[3_Vilnius à Warszawa: 627km]]></name>
    <trkseg>
      <trkpt lat="54.68438" lon="25.28496">
        <ele>96.928632</ele>
        <time>2020-10-06T13:10:02.252Z</time>
      </trkpt>
      <trkpt lat="54.68426" lon="25.28482">
        <ele>96.928632</ele>
        <time>2020-10-06T13:10:04.905Z</time>
      </trkpt>
      <trkpt lat="54.68426" lon="25.28468">
        <ele>96.928632</ele>
        <time>2020-10-06T13:10:06.431Z</time>
      </trkpt>
      <trkpt lat="54.68435" lon="25.28446">
        <ele>96.928632</ele>
        <time>2020-10-06T13:10:09.435Z</time>
      </trkpt>
      <trkpt lat="54.68467" lon="25.28484">
        <ele>96.928632</ele>
        <time>2020-10-06T13:10:16.726Z</time>
      </trkpt>
      <trkpt lat="54.68471" lon="25.28489">
        <ele>96.928632</ele>
        <time>2020-10-06T13:10:17.490Z</time>
      </trkpt>
      <trkpt lat="54.6849" lon="25.28512">
        <ele>96.869145</ele>
        <time>2020-10-06T13:10:21.898Z</time>
      </trkpt>
      <trkpt lat="54.68502" lon="25.28528">
        <ele>96.809918</ele>
        <time>2020-10-06T13:10:24.683Z</time>
      </trkpt>
      <trkpt lat="54.68516" lon="25.28549">
        <ele>96.736756</ele>
        <time>2020-10-06T13:10:28.193Z</time>
      </trkpt>
      <trkpt lat="54.68519" lon="25.28555">
        <ele>96.717443</ele>
        <time>2020-10-06T13:10:29.124Z</time>
      </trkpt>
      <trkpt lat="54.68521" lon="25.28563">
        <ele>96.698799</ele>
        <time>2020-10-06T13:10:30.068Z</time>
      </trkpt>
      <trkpt lat="54.68523" lon="25.28573">
        <ele>96.673441</ele>
        <time>2020-10-06T13:10:31.285Z</time>
      </trkpt>
      <trkpt lat="54.68531" lon="25.28576">
        <ele>96.64126</ele>
        <time>2020-10-06T13:10:32.903Z</time>
      </trkpt>
      <trkpt lat="54.68541" lon="25.2858">
        <ele>96.603311</ele>
        <time>2020-10-06T13:10:34.966Z</time>
      </trkpt>
      <trkpt lat="54.68555" lon="25.2859">
        <ele>96.540771</ele>
        <time>2020-10-06T13:10:38.259Z</time>
      </trkpt>
      <trkpt lat="54.68585" lon="25.28608">
        <ele>96.415458</ele>
        <time>2020-10-06T13:10:45.085Z</time>
      </trkpt>
      <trkpt lat="54.68596" lon="25.28615">
        <ele>96.372027</ele>
        <time>2020-10-06T13:10:47.565Z</time>
      </trkpt>
      <trkpt lat="54.68599" lon="25.28594">
        <ele>96.322676</ele>
        <time>2020-10-06T13:10:50.703Z</time>
      </trkpt>
      <trkpt lat="54.68611" lon="25.28529">
        <ele>96.464677</ele>
        <time>2020-10-06T13:11:01.064Z</time>
      </trkpt>
      <trkpt lat="54.68655" lon="25.28291">
        <ele>99.171603</ele>
        <time>2020-10-06T13:11:46.530Z</time>
      </trkpt>
      <trkpt lat="54.68665" lon="25.28233">
        <ele>99.852696</ele>
        <time>2020-10-06T13:11:58.283Z</time>
      </trkpt>
      <trkpt lat="54.68668" lon="25.28218">
        <ele>100.039173</ele>
        <time>2020-10-06T13:12:01.318Z</time>
      </trkpt>
      <trkpt lat="54.68671" lon="25.28201">
        <ele>100.243085</ele>
        <time>2020-10-06T13:12:04.534Z</time>
      </trkpt>
      <trkpt lat="54.6869" lon="25.28095">
        <ele>101.540408</ele>
        <time>2020-10-06T13:12:25.639Z</time>
      </trkpt>
      <trkpt lat="54.68704" lon="25.28018">
        <ele>102.480323</ele>
        <time>2020-10-06T13:12:39.942Z</time>
      </trkpt>
      <trkpt lat="54.68711" lon="25.27978">
        <ele>102.966677</ele>
        <time>2020-10-06T13:12:46.889Z</time>
      </trkpt>
      <trkpt lat="54.68713" lon="25.27967">
        <ele>103.103697</ele>
        <time>2020-10-06T13:12:48.727Z</time>
      </trkpt>
      <trkpt lat="54.68715" lon="25.27955">
        <ele>103.242095</ele>
        <time>2020-10-06T13:12:50.748Z</time>
      </trkpt>
      <trkpt lat="54.68726" lon="25.27893">
        <ele>103.572735</ele>
        <time>2020-10-06T13:13:03.684Z</time>
      </trkpt>
      <trkpt lat="54.68728" lon="25.2788">
        <ele>103.63896</ele>
        <time>2020-10-06T13:13:06.334Z</time>
      </trkpt>
      <trkpt lat="54.6873" lon="25.27867">
        <ele>103.705909</ele>
        <time>2020-10-06T13:13:08.917Z</time>
      </trkpt>
      <trkpt lat="54.6874" lon="25.27812">
        <ele>103.998785</ele>
        <time>2020-10-06T13:13:20.010Z</time>
      </trkpt>
      <trkpt lat="54.68765" lon="25.27665">
        <ele>104.777348</ele>
        <time>2020-10-06T13:13:48.636Z</time>
      </trkpt>
      <trkpt lat="54.68789" lon="25.27517">
        <ele>104.939146</ele>
        <time>2020-10-06T13:14:14.604Z</time>
      </trkpt>
      <trkpt lat="54.68791" lon="25.27506">
        <ele>104.94975</ele>
        <time>2020-10-06T13:14:16.901Z</time>
      </trkpt>
      <trkpt lat="54.68793" lon="25.27494">
        <ele>104.960101</ele>
        <time>2020-10-06T13:14:18.698Z</time>
      </trkpt>
      <trkpt lat="54.68811" lon="25.27393">
        <ele>105.052309</ele>
        <time>2020-10-06T13:14:37.655Z</time>
      </trkpt>
      <trkpt lat="54.68817" lon="25.27357">
        <ele>105.074397</ele>
        <time>2020-10-06T13:14:43.895Z</time>
      </trkpt>
      <trkpt lat="54.68839" lon="25.27226">
        <ele>104.594841</ele>
        <time>2020-10-06T13:15:06.376Z</time>
      </trkpt>
      <trkpt lat="54.68841" lon="25.27216">
        <ele>104.556523</ele>
        <time>2020-10-06T13:15:08.253Z</time>
      </trkpt>
      <trkpt lat="54.68842" lon="25.27206">
        <ele>104.521076</ele>
        <time>2020-10-06T13:15:09.802Z</time>
      </trkpt>
      <trkpt lat="54.68866" lon="25.27061">
        <ele>103.989354</ele>
        <time>2020-10-06T13:15:32.810Z</time>
      </trkpt>
      <trkpt lat="54.6887" lon="25.27039">
        <ele>103.778821</ele>
        <time>2020-10-06T13:15:36.224Z</time>
      </trkpt>
      <trkpt lat="54.68874" lon="25.27012">
        <ele>103.522039</ele>
        <time>2020-10-06T13:15:40.094Z</time>
      </trkpt>
      <trkpt lat="54.68896" lon="25.2689">
        <ele>102.329317</ele>
        <time>2020-10-06T13:15:58.402Z</time>
      </trkpt>
      <trkpt lat="54.689" lon="25.26864">
        <ele>102.081942</ele>
        <time>2020-10-06T13:16:02.252Z</time>
      </trkpt>
      <trkpt lat="54.68904" lon="25.26844">
        <ele>101.88413</ele>
        <time>2020-10-06T13:16:05.264Z</time>
      </trkpt>
      <trkpt lat="54.68904" lon="25.26841">
        <ele>101.857775</ele>
        <time>2020-10-06T13:16:05.602Z</time>
      </trkpt>
      <trkpt lat="54.68911" lon="25.26796">
        <ele>101.422417</ele>
        <time>2020-10-06T13:16:12.335Z</time>
      </trkpt>
      <trkpt lat="54.68918" lon="25.26755">
        <ele>101.019329</ele>
        <time>2020-10-06T13:16:18.367Z</time>
      </trkpt>
      <trkpt lat="54.68934" lon="25.26659">
        <ele>99.975018</ele>
        <time>2020-10-06T13:16:32.723Z</time>
      </trkpt>
      <trkpt lat="54.68945" lon="25.26593">
        <ele>99.255298</ele>
        <time>2020-10-06T13:16:42.557Z</time>
      </trkpt>
      <trkpt lat="54.68945" lon="25.26589">
        <ele>99.211938</ele>
        <time>2020-10-06T13:16:43.161Z</time>
      </trkpt>
      <trkpt lat="54.68961" lon="25.26493">
        <ele>98.163102</ele>
        <time>2020-10-06T13:16:57.334Z</time>
      </trkpt>
      <trkpt lat="54.68967" lon="25.26458">
        <ele>97.766266</ele>
        <time>2020-10-06T13:17:02.271Z</time>
      </trkpt>
      <trkpt lat="54.68981" lon="25.2637">
        <ele>96.460403</ele>
        <time>2020-10-06T13:17:14.847Z</time>
      </trkpt>
      <trkpt lat="54.68983" lon="25.26356">
        <ele>96.255336</ele>
        <time>2020-10-06T13:17:16.696Z</time>
      </trkpt>
      <trkpt lat="54.68987" lon="25.26332">
        <ele>95.891834</ele>
        <time>2020-10-06T13:17:20.212Z</time>
      </trkpt>
      <trkpt lat="54.68991" lon="25.2631">
        <ele>95.562621</ele>
        <time>2020-10-06T13:17:23.342Z</time>
      </trkpt>
      <trkpt lat="54.68995" lon="25.26286">
        <ele>95.216272</ele>
        <time>2020-10-06T13:17:26.522Z</time>
      </trkpt>
      <trkpt lat="54.69003" lon="25.26237">
        <ele>94.476932</ele>
        <time>2020-10-06T13:17:33.341Z</time>
      </trkpt>
      <trkpt lat="54.69017" lon="25.26154">
        <ele>93.372401</ele>
        <time>2020-10-06T13:17:44.667Z</time>
      </trkpt>
      <trkpt lat="54.6904" lon="25.26017">
        <ele>93.131008</ele>
        <time>2020-10-06T13:18:05.177Z</time>
      </trkpt>
      <trkpt lat="54.69042" lon="25.25993">
        <ele>93.088773</ele>
        <time>2020-10-06T13:18:08.890Z</time>
      </trkpt>
      <trkpt lat="54.69044" lon="25.25971">
        <ele>93.051494</ele>
        <time>2020-10-06T13:18:12.360Z</time>
      </trkpt>
      <trkpt lat="54.69044" lon="25.25966">
        <ele>93.042994</ele>
        <time>2020-10-06T13:18:13.206Z</time>
      </trkpt>
      <trkpt lat="54.69049" lon="25.25805">
        <ele>93.714185</ele>
        <time>2020-10-06T13:18:40.508Z</time>
      </trkpt>
      <trkpt lat="54.69049" lon="25.25798">
        <ele>93.819371</ele>
        <time>2020-10-06T13:18:41.827Z</time>
      </trkpt>
      <trkpt lat="54.69048" lon="25.25774">
        <ele>94.19523</ele>
        <time>2020-10-06T13:18:47.075Z</time>
      </trkpt>
      <trkpt lat="54.69042" lon="25.25694">
        <ele>95.463474</ele>
        <time>2020-10-06T13:19:02.171Z</time>
      </trkpt>
      <trkpt lat="54.69041" lon="25.25661">
        <ele>95.983607</ele>
        <time>2020-10-06T13:19:09.727Z</time>
      </trkpt>
      <trkpt lat="54.69041" lon="25.25648">
        <ele>96.197274</ele>
        <time>2020-10-06T13:19:12.587Z</time>
      </trkpt>
      <trkpt lat="54.6904" lon="25.25632">
        <ele>96.437858</ele>
        <time>2020-10-06T13:19:15.204Z</time>
      </trkpt>
      <trkpt lat="54.6904" lon="25.25624">
        <ele>96.570431</ele>
        <time>2020-10-06T13:19:16.825Z</time>
      </trkpt>
      <trkpt lat="54.69029" lon="25.25507">
        <ele>98.03346</ele>
        <time>2020-10-06T13:19:40.995Z</time>
      </trkpt>
      <trkpt lat="54.69021" lon="25.25417">
        <ele>98.639961</ele>
        <time>2020-10-06T13:19:56.791Z</time>
      </trkpt>
      <trkpt lat="54.69018" lon="25.25387">
        <ele>98.839007</ele>
        <time>2020-10-06T13:20:01.234Z</time>
      </trkpt>
      <trkpt lat="54.6901" lon="25.25299">
        <ele>99.434654</ele>
        <time>2020-10-06T13:20:13.137Z</time>
      </trkpt>
      <trkpt lat="54.69008" lon="25.2527">
        <ele>99.626304</ele>
        <time>2020-10-06T13:20:16.884Z</time>
      </trkpt>
      <trkpt lat="54.69005" lon="25.25244">
        <ele>99.801849</ele>
        <time>2020-10-06T13:20:20.260Z</time>
      </trkpt>
      <trkpt lat="54.69003" lon="25.25218">
        <ele>99.649295</ele>
        <time>2020-10-06T13:20:23.668Z</time>
      </trkpt>
      <trkpt lat="54.69" lon="25.25186">
        <ele>99.431135</ele>
        <time>2020-10-06T13:20:27.681Z</time>
      </trkpt>
      <trkpt lat="54.6898" lon="25.24958">
        <ele>97.89447</ele>
        <time>2020-10-06T13:20:52.588Z</time>
      </trkpt>
      <trkpt lat="54.68978" lon="25.24937">
        <ele>97.755588</ele>
        <time>2020-10-06T13:20:54.702Z</time>
      </trkpt>
      <trkpt lat="54.68973" lon="25.24874">
        <ele>97.311727</ele>
        <time>2020-10-06T13:21:01.167Z</time>
      </trkpt>
      <trkpt lat="54.68968" lon="25.24817">
        <ele>96.902501</ele>
        <time>2020-10-06T13:21:07.152Z</time>
      </trkpt>
      <trkpt lat="54.68965" lon="25.24768">
        <ele>96.56116</ele>
        <time>2020-10-06T13:21:12.289Z</time>
      </trkpt>
      <trkpt lat="54.68959" lon="25.24703">
        <ele>96.09669</ele>
        <time>2020-10-06T13:21:19.619Z</time>
      </trkpt>
      <trkpt lat="54.68993" lon="25.24687">
        <ele>95.670109</ele>
        <time>2020-10-06T13:21:26.934Z</time>
      </trkpt>
      <trkpt lat="54.69035" lon="25.2467">
        <ele>95.583826</ele>
        <time>2020-10-06T13:21:36.222Z</time>
      </trkpt>
      <trkpt lat="54.69042" lon="25.24667">
        <ele>95.589228</ele>
        <time>2020-10-06T13:21:38.007Z</time>
      </trkpt>
      <trkpt lat="54.69111" lon="25.24639">
        <ele>95.640549</ele>
        <time>2020-10-06T13:21:55.204Z</time>
      </trkpt>
      <trkpt lat="54.69116" lon="25.24638">
        <ele>95.64406</ele>
        <time>2020-10-06T13:21:56.340Z</time>
      </trkpt>
      <trkpt lat="54.69129" lon="25.24633">
        <ele>95.653604</ele>
        <time>2020-10-06T13:21:59.532Z</time>
      </trkpt>
      <trkpt lat="54.69197" lon="25.24609">
        <ele>95.923328</ele>
        <time>2020-10-06T13:22:14.143Z</time>
      </trkpt>
      <trkpt lat="54.69204" lon="25.24577">
        <ele>96.163449</ele>
        <time>2020-10-06T13:22:21.699Z</time>
      </trkpt>
      <trkpt lat="54.6921" lon="25.24544">
        <ele>96.40137</ele>
        <time>2020-10-06T13:22:29.385Z</time>
      </trkpt>
      <trkpt lat="54.6921" lon="25.24528">
        <ele>96.509194</ele>
        <time>2020-10-06T13:22:33.005Z</time>
      </trkpt>
      <trkpt lat="54.69207" lon="25.24517">
        <ele>96.597039</ele>
        <time>2020-10-06T13:22:35.546Z</time>
      </trkpt>
      <trkpt lat="54.69198" lon="25.2449">
        <ele>96.808076</ele>
        <time>2020-10-06T13:22:42.451Z</time>
      </trkpt>
      <trkpt lat="54.69195" lon="25.24477">
        <ele>96.911761</ele>
        <time>2020-10-06T13:22:45.891Z</time>
      </trkpt>
      <trkpt lat="54.69187" lon="25.24447">
        <ele>97.135519</ele>
        <time>2020-10-06T13:22:52.651Z</time>
      </trkpt>
      <trkpt lat="54.69185" lon="25.24444">
        <ele>97.163637</ele>
        <time>2020-10-06T13:22:53.513Z</time>
      </trkpt>
      <trkpt lat="54.69091" lon="25.24129">
        <ele>103.290312</ele>
        <time>2020-10-06T13:24:07.166Z</time>
      </trkpt>
      <trkpt lat="54.6909" lon="25.24124">
        <ele>103.413765</ele>
        <time>2020-10-06T13:24:08.613Z</time>
      </trkpt>
      <trkpt lat="54.6908" lon="25.2411">
        <ele>103.895488</ele>
        <time>2020-10-06T13:24:14.578Z</time>
      </trkpt>
      <trkpt lat="54.69072" lon="25.24108">
        <ele>104.19762</ele>
        <time>2020-10-06T13:24:18.216Z</time>
      </trkpt>
      <trkpt lat="54.69066" lon="25.24105">
        <ele>104.419842</ele>
        <time>2020-10-06T13:24:21.287Z</time>
      </trkpt>
      <trkpt lat="54.69054" lon="25.24087">
        <ele>104.922341</ele>
        <time>2020-10-06T13:24:27.206Z</time>
      </trkpt>
      <trkpt lat="54.69031" lon="25.24034">
        <ele>106.168271</ele>
        <time>2020-10-06T13:24:43.391Z</time>
      </trkpt>
      <trkpt lat="54.69031" lon="25.24034">
        <ele>106.168271</ele>
        <time>2020-10-06T13:24:43.543Z</time>
      </trkpt>
      <trkpt lat="54.69029" lon="25.24018">
        <ele>106.464169</ele>
        <time>2020-10-06T13:24:47.175Z</time>
      </trkpt>
      <trkpt lat="54.68865" lon="25.23801">
        <ele>111.60341</ele>
        <time>2020-10-06T13:25:54.916Z</time>
      </trkpt>
      <trkpt lat="54.68829" lon="25.23752">
        <ele>112.30645</ele>
        <time>2020-10-06T13:26:07.475Z</time>
      </trkpt>
      <trkpt lat="54.68731" lon="25.23625">
        <ele>112.475928</ele>
        <time>2020-10-06T13:26:38.220Z</time>
      </trkpt>
      <trkpt lat="54.68534" lon="25.23398">
        <ele>109.434408</ele>
        <time>2020-10-06T13:27:23.466Z</time>
      </trkpt>
      <trkpt lat="54.68526" lon="25.2339">
        <ele>109.263301</ele>
        <time>2020-10-06T13:27:25.087Z</time>
      </trkpt>
      <trkpt lat="54.68515" lon="25.23385">
        <ele>109.072702</ele>
        <time>2020-10-06T13:27:26.962Z</time>
      </trkpt>
      <trkpt lat="54.68497" lon="25.23384">
        <ele>108.744554</ele>
        <time>2020-10-06T13:27:30.240Z</time>
      </trkpt>
      <trkpt lat="54.68472" lon="25.23385">
        <ele>108.443779</ele>
        <time>2020-10-06T13:27:34.482Z</time>
      </trkpt>
      <trkpt lat="54.68356" lon="25.23393">
        <ele>107.267637</ele>
        <time>2020-10-06T13:27:55.604Z</time>
      </trkpt>
      <trkpt lat="54.68316" lon="25.23395">
        <ele>106.861467</ele>
        <time>2020-10-06T13:28:05.062Z</time>
      </trkpt>
      <trkpt lat="54.68297" lon="25.23397">
        <ele>107.043681</ele>
        <time>2020-10-06T13:28:09.836Z</time>
      </trkpt>
      <trkpt lat="54.68274" lon="25.234">
        <ele>107.466165</ele>
        <time>2020-10-06T13:28:16.303Z</time>
      </trkpt>
      <trkpt lat="54.68186" lon="25.23411">
        <ele>109.060099</ele>
        <time>2020-10-06T13:28:42.807Z</time>
      </trkpt>
      <trkpt lat="54.68105" lon="25.23419">
        <ele>110.410943</ele>
        <time>2020-10-06T13:29:09.670Z</time>
      </trkpt>
      <trkpt lat="54.68078" lon="25.23419">
        <ele>110.788305</ele>
        <time>2020-10-06T13:29:18.393Z</time>
      </trkpt>
      <trkpt lat="54.68074" lon="25.23419">
        <ele>110.842799</ele>
        <time>2020-10-06T13:29:19.568Z</time>
      </trkpt>
      <trkpt lat="54.68006" lon="25.23428">
        <ele>111.762064</ele>
        <time>2020-10-06T13:29:38.948Z</time>
      </trkpt>
      <trkpt lat="54.67834" lon="25.2344">
        <ele>112.06559</ele>
        <time>2020-10-06T13:30:16.973Z</time>
      </trkpt>
      <trkpt lat="54.67813" lon="25.23445">
        <ele>111.986332</ele>
        <time>2020-10-06T13:30:20.948Z</time>
      </trkpt>
      <trkpt lat="54.67786" lon="25.23468">
        <ele>111.870528</ele>
        <time>2020-10-06T13:30:26.781Z</time>
      </trkpt>
      <trkpt lat="54.67588" lon="25.23743">
        <ele>110.36102</ele>
        <time>2020-10-06T13:31:16.302Z</time>
      </trkpt>
      <trkpt lat="54.67581" lon="25.23753">
        <ele>110.385167</ele>
        <time>2020-10-06T13:31:18.193Z</time>
      </trkpt>
      <trkpt lat="54.67439" lon="25.23949">
        <ele>111.180262</ele>
        <time>2020-10-06T13:32:05.841Z</time>
      </trkpt>
      <trkpt lat="54.67403" lon="25.23998">
        <ele>111.495904</ele>
        <time>2020-10-06T13:32:17.866Z</time>
      </trkpt>
      <trkpt lat="54.67363" lon="25.24054">
        <ele>111.853296</ele>
        <time>2020-10-06T13:32:30.508Z</time>
      </trkpt>
      <trkpt lat="54.67359" lon="25.2406">
        <ele>111.892653</ele>
        <time>2020-10-06T13:32:31.816Z</time>
      </trkpt>
      <trkpt lat="54.67354" lon="25.24067">
        <ele>111.895514</ele>
        <time>2020-10-06T13:32:33.154Z</time>
      </trkpt>
      <trkpt lat="54.67342" lon="25.24049">
        <ele>111.771772</ele>
        <time>2020-10-06T13:32:36.544Z</time>
      </trkpt>
      <trkpt lat="54.67342" lon="25.24048">
        <ele>111.764683</ele>
        <time>2020-10-06T13:32:36.712Z</time>
      </trkpt>
      <trkpt lat="54.67325" lon="25.24022">
        <ele>111.586895</ele>
        <time>2020-10-06T13:32:41.562Z</time>
      </trkpt>
      <trkpt lat="54.67311" lon="25.24">
        <ele>111.443185</ele>
        <time>2020-10-06T13:32:45.247Z</time>
      </trkpt>
      <trkpt lat="54.67289" lon="25.23969">
        <ele>111.220338</ele>
        <time>2020-10-06T13:32:50.959Z</time>
      </trkpt>
      <trkpt lat="54.67256" lon="25.23927">
        <ele>110.898773</ele>
        <time>2020-10-06T13:32:58.834Z</time>
      </trkpt>
      <trkpt lat="54.6724" lon="25.23909">
        <ele>110.752479</ele>
        <time>2020-10-06T13:33:02.353Z</time>
      </trkpt>
      <trkpt lat="54.67221" lon="25.23889">
        <ele>110.5815</ele>
        <time>2020-10-06T13:33:06.329Z</time>
      </trkpt>
      <trkpt lat="54.67187" lon="25.23854">
        <ele>110.045022</ele>
        <time>2020-10-06T13:33:13.785Z</time>
      </trkpt>
      <trkpt lat="54.67123" lon="25.23797">
        <ele>108.941291</ele>
        <time>2020-10-06T13:33:27.145Z</time>
      </trkpt>
      <trkpt lat="54.67104" lon="25.23783">
        <ele>108.624289</ele>
        <time>2020-10-06T13:33:30.912Z</time>
      </trkpt>
      <trkpt lat="54.67082" lon="25.23771">
        <ele>108.277145</ele>
        <time>2020-10-06T13:33:35.045Z</time>
      </trkpt>
      <trkpt lat="54.67058" lon="25.23763">
        <ele>107.913824</ele>
        <time>2020-10-06T13:33:39.257Z</time>
      </trkpt>
      <trkpt lat="54.67045" lon="25.23759">
        <ele>107.72576</ele>
        <time>2020-10-06T13:33:41.986Z</time>
      </trkpt>
      <trkpt lat="54.67027" lon="25.23756">
        <ele>107.538271</ele>
        <time>2020-10-06T13:33:45.116Z</time>
      </trkpt>
      <trkpt lat="54.66962" lon="25.2375">
        <ele>106.862859</ele>
        <time>2020-10-06T13:33:57.213Z</time>
      </trkpt>
      <trkpt lat="54.6695" lon="25.23738">
        <ele>106.709789</ele>
        <time>2020-10-06T13:33:59.954Z</time>
      </trkpt>
      <trkpt lat="54.66925" lon="25.23712">
        <ele>106.411151</ele>
        <time>2020-10-06T13:34:05.547Z</time>
      </trkpt>
      <trkpt lat="54.66905" lon="25.23701">
        <ele>106.190892</ele>
        <time>2020-10-06T13:34:09.855Z</time>
      </trkpt>
      <trkpt lat="54.66879" lon="25.23699">
        <ele>105.920263</ele>
        <time>2020-10-06T13:34:14.817Z</time>
      </trkpt>
      <trkpt lat="54.66859" lon="25.23702">
        <ele>106.025617</ele>
        <time>2020-10-06T13:34:19.333Z</time>
      </trkpt>
      <trkpt lat="54.6685" lon="25.23708">
        <ele>106.098101</ele>
        <time>2020-10-06T13:34:21.372Z</time>
      </trkpt>
      <trkpt lat="54.66832" lon="25.23724">
        <ele>106.240475</ele>
        <time>2020-10-06T13:34:25.822Z</time>
      </trkpt>
      <trkpt lat="54.66826" lon="25.23735">
        <ele>106.308369</ele>
        <time>2020-10-06T13:34:27.946Z</time>
      </trkpt>
      <trkpt lat="54.66812" lon="25.2374">
        <ele>106.413513</ele>
        <time>2020-10-06T13:34:31.169Z</time>
      </trkpt>
      <trkpt lat="54.66704" lon="25.23709">
        <ele>107.211945</ele>
        <time>2020-10-06T13:35:01.991Z</time>
      </trkpt>
      <trkpt lat="54.66622" lon="25.23699">
        <ele>107.521464</ele>
        <time>2020-10-06T13:35:23.672Z</time>
      </trkpt>
      <trkpt lat="54.66574" lon="25.23701">
        <ele>107.705063</ele>
        <time>2020-10-06T13:35:35.548Z</time>
      </trkpt>
      <trkpt lat="54.66549" lon="25.23693">
        <ele>107.798269</ele>
        <time>2020-10-06T13:35:40.564Z</time>
      </trkpt>
      <trkpt lat="54.66427" lon="25.23621">
        <ele>106.383933</ele>
        <time>2020-10-06T13:36:05.165Z</time>
      </trkpt>
      <trkpt lat="54.66385" lon="25.23594">
        <ele>105.747518</ele>
        <time>2020-10-06T13:36:12.864Z</time>
      </trkpt>
      <trkpt lat="54.6637" lon="25.23584">
        <ele>105.514183</ele>
        <time>2020-10-06T13:36:15.773Z</time>
      </trkpt>
      <trkpt lat="54.66301" lon="25.23542">
        <ele>104.619291</ele>
        <time>2020-10-06T13:36:28.968Z</time>
      </trkpt>
      <trkpt lat="54.66232" lon="25.23497">
        <ele>103.75129</ele>
        <time>2020-10-06T13:36:43.006Z</time>
      </trkpt>
      <trkpt lat="54.66224" lon="25.23492">
        <ele>103.659901</ele>
        <time>2020-10-06T13:36:44.575Z</time>
      </trkpt>
      <trkpt lat="54.66103" lon="25.23412">
        <ele>102.749504</ele>
        <time>2020-10-06T13:37:11.495Z</time>
      </trkpt>
      <trkpt lat="54.6605" lon="25.2338">
        <ele>102.464345</ele>
        <time>2020-10-06T13:37:23.420Z</time>
      </trkpt>
      <trkpt lat="54.66002" lon="25.23349">
        <ele>102.113265</ele>
        <time>2020-10-06T13:37:33.655Z</time>
      </trkpt>
      <trkpt lat="54.65968" lon="25.23326">
        <ele>101.732747</ele>
        <time>2020-10-06T13:37:40.959Z</time>
      </trkpt>
      <trkpt lat="54.65935" lon="25.23299">
        <ele>101.359848</ele>
        <time>2020-10-06T13:37:48.115Z</time>
      </trkpt>
      <trkpt lat="54.65928" lon="25.23292">
        <ele>101.275211</ele>
        <time>2020-10-06T13:37:49.702Z</time>
      </trkpt>
      <trkpt lat="54.6592" lon="25.23283">
        <ele>101.184664</ele>
        <time>2020-10-06T13:37:51.411Z</time>
      </trkpt>
      <trkpt lat="54.65913" lon="25.23275">
        <ele>101.098254</ele>
        <time>2020-10-06T13:37:53.095Z</time>
      </trkpt>
      <trkpt lat="54.65906" lon="25.23264">
        <ele>100.998687</ele>
        <time>2020-10-06T13:37:54.903Z</time>
      </trkpt>
      <trkpt lat="54.65888" lon="25.23237">
        <ele>100.755414</ele>
        <time>2020-10-06T13:37:59.330Z</time>
      </trkpt>
      <trkpt lat="54.65872" lon="25.23209">
        <ele>100.52116</ele>
        <time>2020-10-06T13:38:03.486Z</time>
      </trkpt>
      <trkpt lat="54.65813" lon="25.23103">
        <ele>99.565737</ele>
        <time>2020-10-06T13:38:19.287Z</time>
      </trkpt>
      <trkpt lat="54.65777" lon="25.23038">
        <ele>98.970201</ele>
        <time>2020-10-06T13:38:29.246Z</time>
      </trkpt>
      <trkpt lat="54.65683" lon="25.2287">
        <ele>97.84837</ele>
        <time>2020-10-06T13:38:56.084Z</time>
      </trkpt>
      <trkpt lat="54.65545" lon="25.22623">
        <ele>96.787319</ele>
        <time>2020-10-06T13:39:36.929Z</time>
      </trkpt>
      <trkpt lat="54.65487" lon="25.22525">
        <ele>96.475092</ele>
        <time>2020-10-06T13:39:53.930Z</time>
      </trkpt>
      <trkpt lat="54.65439" lon="25.2244">
        <ele>96.487276</ele>
        <time>2020-10-06T13:40:09.043Z</time>
      </trkpt>
      <trkpt lat="54.65429" lon="25.22424">
        <ele>96.489598</ele>
        <time>2020-10-06T13:40:12.094Z</time>
      </trkpt>
      <trkpt lat="54.6531" lon="25.22209">
        <ele>96.38205</ele>
        <time>2020-10-06T13:40:51.502Z</time>
      </trkpt>
      <trkpt lat="54.65288" lon="25.22169">
        <ele>96.333084</ele>
        <time>2020-10-06T13:40:58.497Z</time>
      </trkpt>
      <trkpt lat="54.65221" lon="25.22047">
        <ele>96.10224</ele>
        <time>2020-10-06T13:41:18.701Z</time>
      </trkpt>
      <trkpt lat="54.6519" lon="25.21993">
        <ele>95.917252</ele>
        <time>2020-10-06T13:41:27.333Z</time>
      </trkpt>
      <trkpt lat="54.65166" lon="25.21949">
        <ele>95.768499</ele>
        <time>2020-10-06T13:41:34.255Z</time>
      </trkpt>
      <trkpt lat="54.65099" lon="25.2183">
        <ele>95.599138</ele>
        <time>2020-10-06T13:41:55.190Z</time>
      </trkpt>
      <trkpt lat="54.65096" lon="25.21824">
        <ele>95.621182</ele>
        <time>2020-10-06T13:41:56.193Z</time>
      </trkpt>
      <trkpt lat="54.65068" lon="25.21774">
        <ele>95.824912</ele>
        <time>2020-10-06T13:42:05.779Z</time>
      </trkpt>
      <trkpt lat="54.65062" lon="25.21764">
        <ele>95.864062</ele>
        <time>2020-10-06T13:42:07.716Z</time>
      </trkpt>
      <trkpt lat="54.65012" lon="25.21675">
        <ele>96.224454</ele>
        <time>2020-10-06T13:42:25.628Z</time>
      </trkpt>
      <trkpt lat="54.64988" lon="25.21632">
        <ele>96.416417</ele>
        <time>2020-10-06T13:42:34.895Z</time>
      </trkpt>
      <trkpt lat="54.64952" lon="25.21568">
        <ele>96.831086</ele>
        <time>2020-10-06T13:42:49.016Z</time>
      </trkpt>
      <trkpt lat="54.64805" lon="25.21309">
        <ele>98.252273</ele>
        <time>2020-10-06T13:43:40.979Z</time>
      </trkpt>
      <trkpt lat="54.64792" lon="25.21285">
        <ele>98.349293</ele>
        <time>2020-10-06T13:43:45.364Z</time>
      </trkpt>
      <trkpt lat="54.64763" lon="25.21234">
        <ele>98.553568</ele>
        <time>2020-10-06T13:43:55.008Z</time>
      </trkpt>
      <trkpt lat="54.64699" lon="25.21119">
        <ele>99.433768</ele>
        <time>2020-10-06T13:44:17.830Z</time>
      </trkpt>
      <trkpt lat="54.6469" lon="25.21103">
        <ele>99.588118</ele>
        <time>2020-10-06T13:44:21.070Z</time>
      </trkpt>
      <trkpt lat="54.6466" lon="25.21051">
        <ele>100.094616</ele>
        <time>2020-10-06T13:44:32.583Z</time>
      </trkpt>
      <trkpt lat="54.64645" lon="25.21025">
        <ele>100.349269</ele>
        <time>2020-10-06T13:44:38.744Z</time>
      </trkpt>
      <trkpt lat="54.64589" lon="25.2092">
        <ele>101.560259</ele>
        <time>2020-10-06T13:45:03.784Z</time>
      </trkpt>
      <trkpt lat="54.64542" lon="25.20837">
        <ele>102.727599</ele>
        <time>2020-10-06T13:45:23.797Z</time>
      </trkpt>
      <trkpt lat="54.64516" lon="25.20793">
        <ele>103.358185</ele>
        <time>2020-10-06T13:45:34.344Z</time>
      </trkpt>
      <trkpt lat="54.64513" lon="25.20786">
        <ele>103.454091</ele>
        <time>2020-10-06T13:45:35.837Z</time>
      </trkpt>
      <trkpt lat="54.64495" lon="25.20752">
        <ele>103.915571</ele>
        <time>2020-10-06T13:45:43.477Z</time>
      </trkpt>
      <trkpt lat="54.64482" lon="25.2072">
        <ele>104.191084</ele>
        <time>2020-10-06T13:45:49.725Z</time>
      </trkpt>
      <trkpt lat="54.64462" lon="25.2067">
        <ele>104.560448</ele>
        <time>2020-10-06T13:45:59.286Z</time>
      </trkpt>
      <trkpt lat="54.64429" lon="25.20574">
        <ele>105.236258</ele>
        <time>2020-10-06T13:46:16.079Z</time>
      </trkpt>
      <trkpt lat="54.64423" lon="25.20557">
        <ele>105.353628</ele>
        <time>2020-10-06T13:46:18.957Z</time>
      </trkpt>
      <trkpt lat="54.64418" lon="25.20519">
        <ele>105.591871</ele>
        <time>2020-10-06T13:46:24.673Z</time>
      </trkpt>
      <trkpt lat="54.64404" lon="25.20435">
        <ele>106.225003</ele>
        <time>2020-10-06T13:46:37.781Z</time>
      </trkpt>
      <trkpt lat="54.64402" lon="25.20402">
        <ele>106.516931</ele>
        <time>2020-10-06T13:46:42.683Z</time>
      </trkpt>
      <trkpt lat="54.644" lon="25.20355">
        <ele>106.934399</ele>
        <time>2020-10-06T13:46:49.841Z</time>
      </trkpt>
      <trkpt lat="54.644" lon="25.20326">
        <ele>107.191105</ele>
        <time>2020-10-06T13:46:54.308Z</time>
      </trkpt>
      <trkpt lat="54.64399" lon="25.2031">
        <ele>107.335331</ele>
        <time>2020-10-06T13:46:56.853Z</time>
      </trkpt>
      <trkpt lat="54.64399" lon="25.20241">
        <ele>107.946638</ele>
        <time>2020-10-06T13:47:07.952Z</time>
      </trkpt>
      <trkpt lat="54.64399" lon="25.20225">
        <ele>108.084648</ele>
        <time>2020-10-06T13:47:10.585Z</time>
      </trkpt>
      <trkpt lat="54.64399" lon="25.20119">
        <ele>109.785197</ele>
        <time>2020-10-06T13:47:30.308Z</time>
      </trkpt>
      <trkpt lat="54.64399" lon="25.20088">
        <ele>110.590378</ele>
        <time>2020-10-06T13:47:36.994Z</time>
      </trkpt>
      <trkpt lat="54.64399" lon="25.20049">
        <ele>111.625984</ele>
        <time>2020-10-06T13:47:45.233Z</time>
      </trkpt>
      <trkpt lat="54.64399" lon="25.19926">
        <ele>114.891713</ele>
        <time>2020-10-06T13:48:16.176Z</time>
      </trkpt>
      <trkpt lat="54.64399" lon="25.19867">
        <ele>116.464977</ele>
        <time>2020-10-06T13:48:32.160Z</time>
      </trkpt>
      <trkpt lat="54.644" lon="25.19851">
        <ele>116.879282</ele>
        <time>2020-10-06T13:48:35.904Z</time>
      </trkpt>
      <trkpt lat="54.644" lon="25.19819">
        <ele>117.957181</ele>
        <time>2020-10-06T13:48:44.942Z</time>
      </trkpt>
      <trkpt lat="54.64403" lon="25.19793">
        <ele>118.86224</ele>
        <time>2020-10-06T13:48:51.937Z</time>
      </trkpt>
      <trkpt lat="54.6441" lon="25.19762">
        <ele>119.98404</ele>
        <time>2020-10-06T13:49:01.269Z</time>
      </trkpt>
      <trkpt lat="54.64403" lon="25.19754">
        <ele>120.471392</ele>
        <time>2020-10-06T13:49:06.069Z</time>
      </trkpt>
      <trkpt lat="54.64396" lon="25.19727">
        <ele>121.452406</ele>
        <time>2020-10-06T13:49:14.253Z</time>
      </trkpt>
      <trkpt lat="54.64396" lon="25.19717">
        <ele>121.784278</ele>
        <time>2020-10-06T13:49:17.838Z</time>
      </trkpt>
      <trkpt lat="54.64398" lon="25.19692">
        <ele>122.64871</ele>
        <time>2020-10-06T13:49:26.029Z</time>
      </trkpt>
      <trkpt lat="54.64403" lon="25.19556">
        <ele>127.229008</ele>
        <time>2020-10-06T13:50:06.930Z</time>
      </trkpt>
      <trkpt lat="54.64417" lon="25.19461">
        <ele>130.022432</ele>
        <time>2020-10-06T13:50:35.369Z</time>
      </trkpt>
      <trkpt lat="54.64486" lon="25.19286">
        <ele>135.98305</ele>
        <time>2020-10-06T13:51:33.257Z</time>
      </trkpt>
      <trkpt lat="54.64491" lon="25.19256">
        <ele>136.932344</ele>
        <time>2020-10-06T13:51:42.342Z</time>
      </trkpt>
      <trkpt lat="54.64488" lon="25.19214">
        <ele>138.209051</ele>
        <time>2020-10-06T13:51:54.663Z</time>
      </trkpt>
      <trkpt lat="54.64479" lon="25.19193">
        <ele>139.00773</ele>
        <time>2020-10-06T13:52:02.445Z</time>
      </trkpt>
      <trkpt lat="54.64462" lon="25.19176">
        <ele>140.047357</ele>
        <time>2020-10-06T13:52:12.461Z</time>
      </trkpt>
      <trkpt lat="54.64397" lon="25.19183">
        <ele>143.515012</ele>
        <time>2020-10-06T13:52:45.889Z</time>
      </trkpt>
      <trkpt lat="54.64386" lon="25.19177">
        <ele>144.108479</ele>
        <time>2020-10-06T13:52:51.590Z</time>
      </trkpt>
      <trkpt lat="54.64349" lon="25.19125">
        <ele>146.605063</ele>
        <time>2020-10-06T13:53:15.793Z</time>
      </trkpt>
      <trkpt lat="54.64335" lon="25.19092">
        <ele>147.851895</ele>
        <time>2020-10-06T13:53:28.026Z</time>
      </trkpt>
      <trkpt lat="54.6431" lon="25.19065">
        <ele>149.378387</ele>
        <time>2020-10-06T13:53:42.833Z</time>
      </trkpt>
      <trkpt lat="54.64267" lon="25.19061">
        <ele>151.628306</ele>
        <time>2020-10-06T13:54:04.353Z</time>
      </trkpt>
      <trkpt lat="54.64221" lon="25.19084">
        <ele>154.078942</ele>
        <time>2020-10-06T13:54:27.282Z</time>
      </trkpt>
      <trkpt lat="54.64195" lon="25.19086">
        <ele>155.413998</ele>
        <time>2020-10-06T13:54:40.333Z</time>
      </trkpt>
      <trkpt lat="54.64172" lon="25.1907">
        <ele>156.603304</ele>
        <time>2020-10-06T13:54:52.897Z</time>
      </trkpt>
      <trkpt lat="54.64131" lon="25.18982">
        <ele>159.727638</ele>
        <time>2020-10-06T13:55:27.575Z</time>
      </trkpt>
      <trkpt lat="54.64112" lon="25.18927">
        <ele>161.518528</ele>
        <time>2020-10-06T13:55:46.079Z</time>
      </trkpt>
      <trkpt lat="54.64091" lon="25.18757">
        <ele>164.500894</ele>
        <time>2020-10-06T13:56:28.643Z</time>
      </trkpt>
      <trkpt lat="54.64089" lon="25.18739">
        <ele>164.662811</ele>
        <time>2020-10-06T13:56:31.627Z</time>
      </trkpt>
      <trkpt lat="54.64083" lon="25.18667">
        <ele>165.336892</ele>
        <time>2020-10-06T13:56:47.175Z</time>
      </trkpt>
      <trkpt lat="54.64077" lon="25.18617">
        <ele>165.806564</ele>
        <time>2020-10-06T13:56:56.903Z</time>
      </trkpt>
      <trkpt lat="54.64072" lon="25.18563">
        <ele>166.306144</ele>
        <time>2020-10-06T13:57:09.354Z</time>
      </trkpt>
      <trkpt lat="54.64066" lon="25.18505">
        <ele>166.115913</ele>
        <time>2020-10-06T13:57:21.385Z</time>
      </trkpt>
      <trkpt lat="54.64064" lon="25.18495">
        <ele>166.031273</ele>
        <time>2020-10-06T13:57:23.264Z</time>
      </trkpt>
      <trkpt lat="54.64081" lon="25.18481">
        <ele>165.787855</ele>
        <time>2020-10-06T13:57:26.939Z</time>
      </trkpt>
      <trkpt lat="54.64096" lon="25.18472">
        <ele>165.583133</ele>
        <time>2020-10-06T13:57:29.760Z</time>
      </trkpt>
      <trkpt lat="54.64112" lon="25.18463">
        <ele>165.362458</ele>
        <time>2020-10-06T13:57:33.120Z</time>
      </trkpt>
      <trkpt lat="54.64189" lon="25.18423">
        <ele>164.318581</ele>
        <time>2020-10-06T13:57:47.524Z</time>
      </trkpt>
      <trkpt lat="54.64198" lon="25.18416">
        <ele>164.188818</ele>
        <time>2020-10-06T13:57:49.082Z</time>
      </trkpt>
      <trkpt lat="54.64217" lon="25.18381">
        <ele>163.838648</ele>
        <time>2020-10-06T13:57:54.342Z</time>
      </trkpt>
      <trkpt lat="54.64225" lon="25.18334">
        <ele>163.492851</ele>
        <time>2020-10-06T13:57:59.365Z</time>
      </trkpt>
      <trkpt lat="54.64224" lon="25.18317">
        <ele>163.374206</ele>
        <time>2020-10-06T13:58:01.063Z</time>
      </trkpt>
      <trkpt lat="54.64222" lon="25.18303">
        <ele>163.274476</ele>
        <time>2020-10-06T13:58:02.351Z</time>
      </trkpt>
      <trkpt lat="54.64214" lon="25.18275">
        <ele>163.046578</ele>
        <time>2020-10-06T13:58:06.390Z</time>
      </trkpt>
      <trkpt lat="54.64197" lon="25.18245">
        <ele>162.746602</ele>
        <time>2020-10-06T13:58:10.782Z</time>
      </trkpt>
      <trkpt lat="54.64173" lon="25.18215">
        <ele>162.391787</ele>
        <time>2020-10-06T13:58:16.181Z</time>
      </trkpt>
      <trkpt lat="54.64135" lon="25.18166">
        <ele>161.902641</ele>
        <time>2020-10-06T13:58:26.549Z</time>
      </trkpt>
      <trkpt lat="54.64035" lon="25.18039">
        <ele>161.951832</ele>
        <time>2020-10-06T13:58:55.971Z</time>
      </trkpt>
      <trkpt lat="54.64017" lon="25.18018">
        <ele>161.96035</ele>
        <time>2020-10-06T13:59:00.730Z</time>
      </trkpt>
      <trkpt lat="54.63976" lon="25.17964">
        <ele>161.657304</ele>
        <time>2020-10-06T13:59:12.299Z</time>
      </trkpt>
      <trkpt lat="54.63955" lon="25.17934">
        <ele>161.326858</ele>
        <time>2020-10-06T13:59:17.574Z</time>
      </trkpt>
      <trkpt lat="54.63937" lon="25.17911">
        <ele>161.048039</ele>
        <time>2020-10-06T13:59:21.756Z</time>
      </trkpt>
      <trkpt lat="54.63957" lon="25.17877">
        <ele>160.703361</ele>
        <time>2020-10-06T13:59:26.689Z</time>
      </trkpt>
      <trkpt lat="54.64162" lon="25.17532">
        <ele>156.802966</ele>
        <time>2020-10-06T14:00:18.088Z</time>
      </trkpt>
      <trkpt lat="54.64192" lon="25.17466">
        <ele>156.808294</ele>
        <time>2020-10-06T14:00:29.342Z</time>
      </trkpt>
      <trkpt lat="54.64204" lon="25.17431">
        <ele>156.810846</ele>
        <time>2020-10-06T14:00:34.767Z</time>
      </trkpt>
      <trkpt lat="54.64215" lon="25.17391">
        <ele>156.813603</ele>
        <time>2020-10-06T14:00:40.984Z</time>
      </trkpt>
      <trkpt lat="54.64224" lon="25.17347">
        <ele>156.816541</ele>
        <time>2020-10-06T14:00:47.642Z</time>
      </trkpt>
      <trkpt lat="54.64231" lon="25.17292">
        <ele>156.8685</ele>
        <time>2020-10-06T14:00:55.996Z</time>
      </trkpt>
      <trkpt lat="54.64244" lon="25.17171">
        <ele>157.489542</ele>
        <time>2020-10-06T14:01:15.155Z</time>
      </trkpt>
      <trkpt lat="54.64277" lon="25.16861">
        <ele>158.933202</ele>
        <time>2020-10-06T14:02:01.682Z</time>
      </trkpt>
      <trkpt lat="54.64338" lon="25.16281">
        <ele>160.836426</ele>
        <time>2020-10-06T14:03:25.915Z</time>
      </trkpt>
      <trkpt lat="54.64357" lon="25.16103">
        <ele>161.050408</ele>
        <time>2020-10-06T14:03:49.966Z</time>
      </trkpt>
      <trkpt lat="54.64435" lon="25.15376">
        <ele>159.523517</ele>
        <time>2020-10-06T14:05:19.870Z</time>
      </trkpt>
      <trkpt lat="54.64444" lon="25.15295">
        <ele>159.220145</ele>
        <time>2020-10-06T14:05:29.122Z</time>
      </trkpt>
      <trkpt lat="54.64451" lon="25.15231">
        <ele>158.983735</ele>
        <time>2020-10-06T14:05:36.540Z</time>
      </trkpt>
      <trkpt lat="54.64457" lon="25.15178">
        <ele>158.787503</ele>
        <time>2020-10-06T14:05:43.023Z</time>
      </trkpt>
      <trkpt lat="54.64472" lon="25.15037">
        <ele>158.135693</ele>
        <time>2020-10-06T14:06:00.586Z</time>
      </trkpt>
      <trkpt lat="54.64485" lon="25.14924">
        <ele>157.603243</ele>
        <time>2020-10-06T14:06:14.238Z</time>
      </trkpt>
      <trkpt lat="54.64503" lon="25.1475">
        <ele>155.778189</ele>
        <time>2020-10-06T14:06:32.679Z</time>
      </trkpt>
      <trkpt lat="54.64524" lon="25.14562">
        <ele>153.113598</ele>
        <time>2020-10-06T14:06:50.965Z</time>
      </trkpt>
      <trkpt lat="54.64528" lon="25.14521">
        <ele>152.628734</ele>
        <time>2020-10-06T14:06:55.038Z</time>
      </trkpt>
      <trkpt lat="54.64532" lon="25.14485">
        <ele>152.238327</ele>
        <time>2020-10-06T14:06:58.735Z</time>
      </trkpt>
      <trkpt lat="54.64541" lon="25.14405">
        <ele>151.363583</ele>
        <time>2020-10-06T14:07:06.958Z</time>
      </trkpt>
      <trkpt lat="54.64548" lon="25.14334">
        <ele>150.585499</ele>
        <time>2020-10-06T14:07:14.742Z</time>
      </trkpt>
      <trkpt lat="54.64555" lon="25.1427">
        <ele>149.885208</ele>
        <time>2020-10-06T14:07:21.984Z</time>
      </trkpt>
      <trkpt lat="54.64557" lon="25.14249">
        <ele>149.655876</ele>
        <time>2020-10-06T14:07:24.592Z</time>
      </trkpt>
      <trkpt lat="54.64579" lon="25.14051">
        <ele>146.286419</ele>
        <time>2020-10-06T14:07:45.296Z</time>
      </trkpt>
      <trkpt lat="54.64592" lon="25.13924">
        <ele>143.958729</ele>
        <time>2020-10-06T14:07:56.783Z</time>
      </trkpt>
      <trkpt lat="54.64596" lon="25.1389">
        <ele>143.039399</ele>
        <time>2020-10-06T14:07:59.796Z</time>
      </trkpt>
      <trkpt lat="54.64603" lon="25.13822">
        <ele>141.235217</ele>
        <time>2020-10-06T14:08:05.757Z</time>
      </trkpt>
      <trkpt lat="54.64604" lon="25.13813">
        <ele>140.990211</ele>
        <time>2020-10-06T14:08:06.573Z</time>
      </trkpt>
      <trkpt lat="54.64623" lon="25.13636">
        <ele>136.272549</ele>
        <time>2020-10-06T14:08:22.516Z</time>
      </trkpt>
      <trkpt lat="54.64644" lon="25.13441">
        <ele>135.079981</ele>
        <time>2020-10-06T14:08:43.266Z</time>
      </trkpt>
      <trkpt lat="54.64648" lon="25.13403">
        <ele>134.855451</ele>
        <time>2020-10-06T14:08:48.078Z</time>
      </trkpt>
      <trkpt lat="54.64711" lon="25.12809">
        <ele>138.421947</ele>
        <time>2020-10-06T14:10:28.045Z</time>
      </trkpt>
      <trkpt lat="54.64718" lon="25.12746">
        <ele>138.808691</ele>
        <time>2020-10-06T14:10:37.525Z</time>
      </trkpt>
      <trkpt lat="54.64726" lon="25.12661">
        <ele>137.740838</ele>
        <time>2020-10-06T14:10:49.153Z</time>
      </trkpt>
      <trkpt lat="54.64732" lon="25.12503">
        <ele>134.29649</ele>
        <time>2020-10-06T14:11:03.903Z</time>
      </trkpt>
      <trkpt lat="54.64754" lon="25.12419">
        <ele>132.282369</ele>
        <time>2020-10-06T14:11:11.662Z</time>
      </trkpt>
      <trkpt lat="54.64757" lon="25.12406">
        <ele>131.761338</ele>
        <time>2020-10-06T14:11:12.770Z</time>
      </trkpt>
      <trkpt lat="54.6476" lon="25.12386">
        <ele>130.880302</ele>
        <time>2020-10-06T14:11:14.486Z</time>
      </trkpt>
      <trkpt lat="54.64764" lon="25.1236">
        <ele>129.780971</ele>
        <time>2020-10-06T14:11:16.645Z</time>
      </trkpt>
      <trkpt lat="54.64776" lon="25.12246">
        <ele>124.892601</ele>
        <time>2020-10-06T14:11:26.072Z</time>
      </trkpt>
      <trkpt lat="54.64788" lon="25.12133">
        <ele>120.065873</ele>
        <time>2020-10-06T14:11:35.423Z</time>
      </trkpt>
      <trkpt lat="54.64798" lon="25.12047">
        <ele>118.826753</ele>
        <time>2020-10-06T14:11:43.087Z</time>
      </trkpt>
      <trkpt lat="54.648" lon="25.12032">
        <ele>118.757089</ele>
        <time>2020-10-06T14:11:44.497Z</time>
      </trkpt>
      <trkpt lat="54.64801" lon="25.12018">
        <ele>118.696237</ele>
        <time>2020-10-06T14:11:45.722Z</time>
      </trkpt>
      <trkpt lat="54.648" lon="25.12005">
        <ele>118.635236</ele>
        <time>2020-10-06T14:11:47.052Z</time>
      </trkpt>
      <trkpt lat="54.64791" lon="25.11907">
        <ele>118.178027</ele>
        <time>2020-10-06T14:11:59.114Z</time>
      </trkpt>
      <trkpt lat="54.64778" lon="25.11792">
        <ele>118.105894</ele>
        <time>2020-10-06T14:12:22.651Z</time>
      </trkpt>
      <trkpt lat="54.6477" lon="25.11704">
        <ele>120.801508</ele>
        <time>2020-10-06T14:12:44.576Z</time>
      </trkpt>
      <trkpt lat="54.64768" lon="25.11665">
        <ele>121.967397</ele>
        <time>2020-10-06T14:12:54.044Z</time>
      </trkpt>
      <trkpt lat="54.64766" lon="25.1158">
        <ele>124.524085</ele>
        <time>2020-10-06T14:13:16.956Z</time>
      </trkpt>
      <trkpt lat="54.64766" lon="25.11566">
        <ele>124.945432</ele>
        <time>2020-10-06T14:13:20.681Z</time>
      </trkpt>
      <trkpt lat="54.64765" lon="25.115">
        <ele>126.93481</ele>
        <time>2020-10-06T14:13:38.736Z</time>
      </trkpt>
      <trkpt lat="54.64765" lon="25.11351">
        <ele>131.194754</ele>
        <time>2020-10-06T14:14:16.956Z</time>
      </trkpt>
      <trkpt lat="54.64768" lon="25.11209">
        <ele>135.229793</ele>
        <time>2020-10-06T14:14:50.016Z</time>
      </trkpt>
      <trkpt lat="54.64771" lon="25.11094">
        <ele>137.923365</ele>
        <time>2020-10-06T14:15:14.828Z</time>
      </trkpt>
      <trkpt lat="54.64771" lon="25.11086">
        <ele>138.110053</ele>
        <time>2020-10-06T14:15:17.008Z</time>
      </trkpt>
      <trkpt lat="54.64775" lon="25.10942">
        <ele>141.310071</ele>
        <time>2020-10-06T14:15:48.218Z</time>
      </trkpt>
      <trkpt lat="54.64778" lon="25.1081">
        <ele>143.848347</ele>
        <time>2020-10-06T14:16:16.814Z</time>
      </trkpt>
      <trkpt lat="54.64778" lon="25.10794">
        <ele>144.106149</ele>
        <time>2020-10-06T14:16:20.172Z</time>
      </trkpt>
      <trkpt lat="54.64785" lon="25.10567">
        <ele>147.783976</ele>
        <time>2020-10-06T14:17:03.447Z</time>
      </trkpt>
      <trkpt lat="54.64785" lon="25.10541">
        <ele>147.96832</ele>
        <time>2020-10-06T14:17:07.844Z</time>
      </trkpt>
      <trkpt lat="54.64783" lon="25.10496">
        <ele>148.237628</ele>
        <time>2020-10-06T14:17:15.209Z</time>
      </trkpt>
      <trkpt lat="54.64776" lon="25.10453">
        <ele>148.501515</ele>
        <time>2020-10-06T14:17:22.033Z</time>
      </trkpt>
      <trkpt lat="54.64709" lon="25.10221">
        <ele>149.776305</ele>
        <time>2020-10-06T14:17:59.280Z</time>
      </trkpt>
      <trkpt lat="54.64654" lon="25.10028">
        <ele>150.124891</ele>
        <time>2020-10-06T14:18:29.467Z</time>
      </trkpt>
      <trkpt lat="54.64617" lon="25.09897">
        <ele>149.127949</ele>
        <time>2020-10-06T14:18:46.284Z</time>
      </trkpt>
      <trkpt lat="54.64605" lon="25.09861">
        <ele>148.743653</ele>
        <time>2020-10-06T14:18:50.575Z</time>
      </trkpt>
      <trkpt lat="54.64595" lon="25.09835">
        <ele>148.457832</ele>
        <time>2020-10-06T14:18:53.651Z</time>
      </trkpt>
      <trkpt lat="54.64539" lon="25.09693">
        <ele>146.746843</ele>
        <time>2020-10-06T14:19:10.702Z</time>
      </trkpt>
      <trkpt lat="54.64533" lon="25.09676">
        <ele>146.515844</ele>
        <time>2020-10-06T14:19:12.579Z</time>
      </trkpt>
      <trkpt lat="54.64525" lon="25.09622">
        <ele>145.867179</ele>
        <time>2020-10-06T14:19:18.065Z</time>
      </trkpt>
      <trkpt lat="54.64525" lon="25.09574">
        <ele>145.320714</ele>
        <time>2020-10-06T14:19:22.785Z</time>
      </trkpt>
      <trkpt lat="54.64535" lon="25.09464">
        <ele>144.029396</ele>
        <time>2020-10-06T14:19:34.401Z</time>
      </trkpt>
      <trkpt lat="54.64539" lon="25.09424">
        <ele>143.691405</ele>
        <time>2020-10-06T14:19:38.865Z</time>
      </trkpt>
      <trkpt lat="54.64544" lon="25.09336">
        <ele>143.803816</ele>
        <time>2020-10-06T14:19:49.668Z</time>
      </trkpt>
      <trkpt lat="54.64537" lon="25.09275">
        <ele>143.883294</ele>
        <time>2020-10-06T14:19:57.678Z</time>
      </trkpt>
      <trkpt lat="54.64525" lon="25.09241">
        <ele>143.934893</ele>
        <time>2020-10-06T14:20:03.490Z</time>
      </trkpt>
      <trkpt lat="54.64493" lon="25.09187">
        <ele>144.031794</ele>
        <time>2020-10-06T14:20:14.789Z</time>
      </trkpt>
      <trkpt lat="54.64436" lon="25.09101">
        <ele>145.336131</ele>
        <time>2020-10-06T14:20:35.954Z</time>
      </trkpt>
      <trkpt lat="54.64427" lon="25.09088">
        <ele>145.590457</ele>
        <time>2020-10-06T14:20:39.913Z</time>
      </trkpt>
      <trkpt lat="54.64367" lon="25.08994">
        <ele>147.395547</ele>
        <time>2020-10-06T14:21:05.893Z</time>
      </trkpt>
      <trkpt lat="54.64351" lon="25.08947">
        <ele>148.107939</ele>
        <time>2020-10-06T14:21:16.840Z</time>
      </trkpt>
      <trkpt lat="54.64347" lon="25.08919">
        <ele>148.614952</ele>
        <time>2020-10-06T14:21:22.152Z</time>
      </trkpt>
      <trkpt lat="54.64346" lon="25.08907">
        <ele>148.815934</ele>
        <time>2020-10-06T14:21:25.124Z</time>
      </trkpt>
      <trkpt lat="54.64362" lon="25.08419">
        <ele>156.666589</ele>
        <time>2020-10-06T14:23:02.737Z</time>
      </trkpt>
      <trkpt lat="54.64365" lon="25.08327">
        <ele>157.952311</ele>
        <time>2020-10-06T14:23:18.206Z</time>
      </trkpt>
      <trkpt lat="54.64366" lon="25.08321">
        <ele>157.97099</ele>
        <time>2020-10-06T14:23:19.194Z</time>
      </trkpt>
      <trkpt lat="54.64379" lon="25.07974">
        <ele>158.71683</ele>
        <time>2020-10-06T14:24:07.506Z</time>
      </trkpt>
      <trkpt lat="54.64399" lon="25.0744">
        <ele>155.993895</ele>
        <time>2020-10-06T14:25:07.042Z</time>
      </trkpt>
      <trkpt lat="54.64408" lon="25.07215">
        <ele>155.875269</ele>
        <time>2020-10-06T14:25:33.030Z</time>
      </trkpt>
      <trkpt lat="54.64422" lon="25.0679">
        <ele>158.510433</ele>
        <time>2020-10-06T14:26:42.112Z</time>
      </trkpt>
      <trkpt lat="54.64423" lon="25.06757">
        <ele>158.757441</ele>
        <time>2020-10-06T14:26:48.051Z</time>
      </trkpt>
      <trkpt lat="54.64425" lon="25.06702">
        <ele>159.129542</ele>
        <time>2020-10-06T14:26:57.523Z</time>
      </trkpt>
      <trkpt lat="54.6443" lon="25.06585">
        <ele>159.918947</ele>
        <time>2020-10-06T14:27:16.383Z</time>
      </trkpt>
      <trkpt lat="54.64432" lon="25.06511">
        <ele>160.418092</ele>
        <time>2020-10-06T14:27:27.506Z</time>
      </trkpt>
      <trkpt lat="54.64435" lon="25.06432">
        <ele>160.685692</ele>
        <time>2020-10-06T14:27:38.488Z</time>
      </trkpt>
      <trkpt lat="54.64436" lon="25.06414">
        <ele>160.671927</ele>
        <time>2020-10-06T14:27:40.872Z</time>
      </trkpt>
      <trkpt lat="54.6445" lon="25.06274">
        <ele>160.56545</ele>
        <time>2020-10-06T14:27:58.450Z</time>
      </trkpt>
      <trkpt lat="54.64472" lon="25.06074">
        <ele>160.385828</ele>
        <time>2020-10-06T14:28:23.164Z</time>
      </trkpt>
      <trkpt lat="54.6449" lon="25.05883">
        <ele>160.181198</ele>
        <time>2020-10-06T14:28:47.435Z</time>
      </trkpt>
      <trkpt lat="54.64511" lon="25.05656">
        <ele>160.420157</ele>
        <time>2020-10-06T14:29:17.611Z</time>
      </trkpt>
      <trkpt lat="54.64513" lon="25.0559">
        <ele>160.508937</ele>
        <time>2020-10-06T14:29:26.496Z</time>
      </trkpt>
      <trkpt lat="54.64513" lon="25.05574">
        <ele>160.529863</ele>
        <time>2020-10-06T14:29:28.599Z</time>
      </trkpt>
      <trkpt lat="54.64512" lon="25.05438">
        <ele>161.26632</ele>
        <time>2020-10-06T14:29:48.730Z</time>
      </trkpt>
      <trkpt lat="54.64512" lon="25.0541">
        <ele>161.450435</ele>
        <time>2020-10-06T14:29:53.587Z</time>
      </trkpt>
      <trkpt lat="54.64511" lon="25.05369">
        <ele>161.716808</ele>
        <time>2020-10-06T14:29:59.915Z</time>
      </trkpt>
      <trkpt lat="54.64508" lon="25.05339">
        <ele>161.912121</ele>
        <time>2020-10-06T14:30:04.984Z</time>
      </trkpt>
      <trkpt lat="54.64505" lon="25.05325">
        <ele>162.011229</ele>
        <time>2020-10-06T14:30:07.126Z</time>
      </trkpt>
      <trkpt lat="54.64497" lon="25.0533">
        <ele>162.10725</ele>
        <time>2020-10-06T14:30:09.567Z</time>
      </trkpt>
      <trkpt lat="54.6449" lon="25.05331">
        <ele>162.184735</ele>
        <time>2020-10-06T14:30:11.699Z</time>
      </trkpt>
      <trkpt lat="54.64483" lon="25.0533">
        <ele>162.263095</ele>
        <time>2020-10-06T14:30:13.791Z</time>
      </trkpt>
      <trkpt lat="54.64461" lon="25.05327">
        <ele>162.504001</ele>
        <time>2020-10-06T14:30:19.311Z</time>
      </trkpt>
      <trkpt lat="54.64451" lon="25.05325">
        <ele>162.63358</ele>
        <time>2020-10-06T14:30:22.485Z</time>
      </trkpt>
      <trkpt lat="54.64441" lon="25.0532">
        <ele>162.772413</ele>
        <time>2020-10-06T14:30:25.142Z</time>
      </trkpt>
      <trkpt lat="54.64434" lon="25.05313">
        <ele>162.893658</ele>
        <time>2020-10-06T14:30:27.240Z</time>
      </trkpt>
      <trkpt lat="54.64426" lon="25.05308">
        <ele>163.001731</ele>
        <time>2020-10-06T14:30:29.467Z</time>
      </trkpt>
      <trkpt lat="54.64423" lon="25.05296">
        <ele>163.111688</ele>
        <time>2020-10-06T14:30:31.878Z</time>
      </trkpt>
      <trkpt lat="54.64413" lon="25.05263">
        <ele>163.422573</ele>
        <time>2020-10-06T14:30:37.760Z</time>
      </trkpt>
      <trkpt lat="54.6441" lon="25.0525">
        <ele>163.535283</ele>
        <time>2020-10-06T14:30:40.258Z</time>
      </trkpt>
      <trkpt lat="54.6441" lon="25.05215">
        <ele>163.816424</ele>
        <time>2020-10-06T14:30:46.140Z</time>
      </trkpt>
      <trkpt lat="54.64414" lon="25.05114">
        <ele>164.642156</ele>
        <time>2020-10-06T14:31:03.069Z</time>
      </trkpt>
      <trkpt lat="54.64418" lon="25.05007">
        <ele>165.306558</ele>
        <time>2020-10-06T14:31:19.698Z</time>
      </trkpt>
      <trkpt lat="54.6442" lon="25.04974">
        <ele>165.440728</ele>
        <time>2020-10-06T14:31:24.609Z</time>
      </trkpt>
      <trkpt lat="54.64421" lon="25.04943">
        <ele>165.565141</ele>
        <time>2020-10-06T14:31:28.952Z</time>
      </trkpt>
      <trkpt lat="54.64423" lon="25.04884">
        <ele>165.804564</ele>
        <time>2020-10-06T14:31:37.342Z</time>
      </trkpt>
      <trkpt lat="54.64424" lon="25.04865">
        <ele>165.881056</ele>
        <time>2020-10-06T14:31:39.900Z</time>
      </trkpt>
      <trkpt lat="54.64426" lon="25.04828">
        <ele>166.033175</ele>
        <time>2020-10-06T14:31:45.312Z</time>
      </trkpt>
      <trkpt lat="54.64428" lon="25.04778">
        <ele>166.23807</ele>
        <time>2020-10-06T14:31:52.380Z</time>
      </trkpt>
      <trkpt lat="54.64428" lon="25.0477">
        <ele>166.269363</ele>
        <time>2020-10-06T14:31:53.473Z</time>
      </trkpt>
      <trkpt lat="54.64429" lon="25.04762">
        <ele>166.301465</ele>
        <time>2020-10-06T14:31:54.512Z</time>
      </trkpt>
      <trkpt lat="54.64431" lon="25.0471">
        <ele>166.526973</ele>
        <time>2020-10-06T14:32:02.021Z</time>
      </trkpt>
      <trkpt lat="54.64431" lon="25.04702">
        <ele>166.561004</ele>
        <time>2020-10-06T14:32:03.071Z</time>
      </trkpt>
      <trkpt lat="54.64431" lon="25.04665">
        <ele>166.722839</ele>
        <time>2020-10-06T14:32:08.089Z</time>
      </trkpt>
      <trkpt lat="54.64431" lon="25.04647">
        <ele>166.804474</ele>
        <time>2020-10-06T14:32:10.816Z</time>
      </trkpt>
      <trkpt lat="54.64429" lon="25.04612">
        <ele>166.958739</ele>
        <time>2020-10-06T14:32:15.546Z</time>
      </trkpt>
      <trkpt lat="54.64427" lon="25.04558">
        <ele>167.197682</ele>
        <time>2020-10-06T14:32:23.347Z</time>
      </trkpt>
      <trkpt lat="54.64426" lon="25.04546">
        <ele>167.251823</ele>
        <time>2020-10-06T14:32:25.083Z</time>
      </trkpt>
      <trkpt lat="54.64424" lon="25.04519">
        <ele>167.371945</ele>
        <time>2020-10-06T14:32:29.304Z</time>
      </trkpt>
      <trkpt lat="54.64419" lon="25.04449">
        <ele>167.681164</ele>
        <time>2020-10-06T14:32:40.114Z</time>
      </trkpt>
      <trkpt lat="54.64417" lon="25.04417">
        <ele>167.878114</ele>
        <time>2020-10-06T14:32:44.977Z</time>
      </trkpt>
      <trkpt lat="54.64414" lon="25.04347">
        <ele>168.376134</ele>
        <time>2020-10-06T14:32:56.776Z</time>
      </trkpt>
      <trkpt lat="54.64412" lon="25.04317">
        <ele>168.590369</ele>
        <time>2020-10-06T14:33:02.076Z</time>
      </trkpt>
      <trkpt lat="54.6441" lon="25.04293">
        <ele>168.765298</ele>
        <time>2020-10-06T14:33:05.980Z</time>
      </trkpt>
      <trkpt lat="54.64408" lon="25.04283">
        <ele>168.83695</ele>
        <time>2020-10-06T14:33:07.698Z</time>
      </trkpt>
      <trkpt lat="54.64405" lon="25.04264">
        <ele>168.975096</ele>
        <time>2020-10-06T14:33:11.214Z</time>
      </trkpt>
      <trkpt lat="54.64399" lon="25.04235">
        <ele>169.195621</ele>
        <time>2020-10-06T14:33:15.951Z</time>
      </trkpt>
      <trkpt lat="54.64391" lon="25.04197">
        <ele>169.480033</ele>
        <time>2020-10-06T14:33:22.372Z</time>
      </trkpt>
      <trkpt lat="54.64385" lon="25.0417">
        <ele>169.687782</ele>
        <time>2020-10-06T14:33:26.545Z</time>
      </trkpt>
      <trkpt lat="54.64367" lon="25.04097">
        <ele>169.897683</ele>
        <time>2020-10-06T14:33:37.949Z</time>
      </trkpt>
      <trkpt lat="54.64352" lon="25.04038">
        <ele>169.844839</ele>
        <time>2020-10-06T14:33:46.729Z</time>
      </trkpt>
      <trkpt lat="54.64332" lon="25.0397">
        <ele>169.782425</ele>
        <time>2020-10-06T14:33:56.313Z</time>
      </trkpt>
      <trkpt lat="54.6432" lon="25.03934">
        <ele>169.748487</ele>
        <time>2020-10-06T14:34:01.352Z</time>
      </trkpt>
      <trkpt lat="54.64315" lon="25.03914">
        <ele>169.730488</ele>
        <time>2020-10-06T14:34:03.903Z</time>
      </trkpt>
      <trkpt lat="54.64293" lon="25.03835">
        <ele>169.548557</ele>
        <time>2020-10-06T14:34:13.754Z</time>
      </trkpt>
      <trkpt lat="54.64289" lon="25.03812">
        <ele>169.426565</ele>
        <time>2020-10-06T14:34:16.430Z</time>
      </trkpt>
      <trkpt lat="54.64287" lon="25.03799">
        <ele>169.355719</ele>
        <time>2020-10-06T14:34:17.979Z</time>
      </trkpt>
      <trkpt lat="54.64278" lon="25.03735">
        <ele>169.013809</ele>
        <time>2020-10-06T14:34:25.437Z</time>
      </trkpt>
      <trkpt lat="54.64271" lon="25.03677">
        <ele>168.706716</ele>
        <time>2020-10-06T14:34:32.154Z</time>
      </trkpt>
      <trkpt lat="54.64269" lon="25.03654">
        <ele>168.589685</ele>
        <time>2020-10-06T14:34:34.689Z</time>
      </trkpt>
      <trkpt lat="54.64259" lon="25.03511">
        <ele>167.753526</ele>
        <time>2020-10-06T14:34:51.404Z</time>
      </trkpt>
      <trkpt lat="54.64254" lon="25.03454">
        <ele>167.343287</ele>
        <time>2020-10-06T14:34:57.696Z</time>
      </trkpt>
      <trkpt lat="54.64249" lon="25.03384">
        <ele>166.837304</ele>
        <time>2020-10-06T14:35:05.311Z</time>
      </trkpt>
      <trkpt lat="54.64241" lon="25.03289">
        <ele>166.156067</ele>
        <time>2020-10-06T14:35:15.525Z</time>
      </trkpt>
      <trkpt lat="54.64244" lon="25.03234">
        <ele>165.773052</ele>
        <time>2020-10-06T14:35:21.487Z</time>
      </trkpt>
      <trkpt lat="54.64247" lon="25.03213">
        <ele>165.648635</ele>
        <time>2020-10-06T14:35:23.730Z</time>
      </trkpt>
      <trkpt lat="54.64252" lon="25.03186">
        <ele>165.48153</ele>
        <time>2020-10-06T14:35:26.838Z</time>
      </trkpt>
      <trkpt lat="54.64281" lon="25.03032">
        <ele>164.535777</ele>
        <time>2020-10-06T14:35:44.675Z</time>
      </trkpt>
      <trkpt lat="54.64292" lon="25.02953">
        <ele>164.058389</ele>
        <time>2020-10-06T14:35:54.113Z</time>
      </trkpt>
      <trkpt lat="54.64292" lon="25.02801">
        <ele>164.305778</ele>
        <time>2020-10-06T14:36:13.506Z</time>
      </trkpt>
      <trkpt lat="54.64289" lon="25.02783">
        <ele>164.340513</ele>
        <time>2020-10-06T14:36:16.310Z</time>
      </trkpt>
      <trkpt lat="54.64285" lon="25.02763">
        <ele>164.378268</ele>
        <time>2020-10-06T14:36:19.205Z</time>
      </trkpt>
      <trkpt lat="54.64276" lon="25.02726">
        <ele>164.451991</ele>
        <time>2020-10-06T14:36:25.252Z</time>
      </trkpt>
      <trkpt lat="54.64272" lon="25.02709">
        <ele>164.487155</ele>
        <time>2020-10-06T14:36:27.982Z</time>
      </trkpt>
      <trkpt lat="54.64259" lon="25.02667">
        <ele>164.576195</ele>
        <time>2020-10-06T14:36:35.295Z</time>
      </trkpt>
      <trkpt lat="54.64241" lon="25.02617">
        <ele>164.79057</ele>
        <time>2020-10-06T14:36:44.059Z</time>
      </trkpt>
      <trkpt lat="54.64239" lon="25.02606">
        <ele>164.842987</ele>
        <time>2020-10-06T14:36:45.749Z</time>
      </trkpt>
      <trkpt lat="54.64239" lon="25.02596">
        <ele>164.885535</ele>
        <time>2020-10-06T14:36:47.143Z</time>
      </trkpt>
      <trkpt lat="54.64239" lon="25.02587">
        <ele>164.924745</ele>
        <time>2020-10-06T14:36:48.442Z</time>
      </trkpt>
      <trkpt lat="54.64241" lon="25.02579">
        <ele>164.967537</ele>
        <time>2020-10-06T14:36:49.795Z</time>
      </trkpt>
      <trkpt lat="54.64245" lon="25.0257">
        <ele>165.015959</ele>
        <time>2020-10-06T14:36:51.573Z</time>
      </trkpt>
      <trkpt lat="54.64248" lon="25.02567">
        <ele>165.041576</ele>
        <time>2020-10-06T14:36:52.527Z</time>
      </trkpt>
      <trkpt lat="54.64251" lon="25.02562">
        <ele>165.075343</ele>
        <time>2020-10-06T14:36:53.706Z</time>
      </trkpt>
      <trkpt lat="54.64261" lon="25.02545">
        <ele>165.180375</ele>
        <time>2020-10-06T14:36:57.160Z</time>
      </trkpt>
      <trkpt lat="54.64264" lon="25.02538">
        <ele>165.221618</ele>
        <time>2020-10-06T14:36:58.437Z</time>
      </trkpt>
      <trkpt lat="54.64266" lon="25.02531">
        <ele>165.255688</ele>
        <time>2020-10-06T14:36:59.614Z</time>
      </trkpt>
      <trkpt lat="54.64265" lon="25.02514">
        <ele>165.331379</ele>
        <time>2020-10-06T14:37:02.199Z</time>
      </trkpt>
      <trkpt lat="54.64255" lon="25.02447">
        <ele>165.637826</ele>
        <time>2020-10-06T14:37:12.251Z</time>
      </trkpt>
      <trkpt lat="54.64247" lon="25.02278">
        <ele>165.982707</ele>
        <time>2020-10-06T14:37:36.307Z</time>
      </trkpt>
      <trkpt lat="54.6425" lon="25.02062">
        <ele>165.96229</ele>
        <time>2020-10-06T14:38:03.365Z</time>
      </trkpt>
      <trkpt lat="54.64248" lon="25.02044">
        <ele>165.922545</ele>
        <time>2020-10-06T14:38:05.474Z</time>
      </trkpt>
      <trkpt lat="54.64245" lon="25.0202">
        <ele>165.849976</ele>
        <time>2020-10-06T14:38:08.513Z</time>
      </trkpt>
      <trkpt lat="54.64222" lon="25.01888">
        <ele>165.451268</ele>
        <time>2020-10-06T14:38:25.166Z</time>
      </trkpt>
      <trkpt lat="54.64221" lon="25.01884">
        <ele>165.43948</ele>
        <time>2020-10-06T14:38:25.686Z</time>
      </trkpt>
      <trkpt lat="54.64189" lon="25.01704">
        <ele>164.940133</ele>
        <time>2020-10-06T14:38:47.494Z</time>
      </trkpt>
      <trkpt lat="54.64174" lon="25.01653">
        <ele>164.81933</ele>
        <time>2020-10-06T14:38:54.305Z</time>
      </trkpt>
      <trkpt lat="54.64131" lon="25.0151">
        <ele>164.477944</ele>
        <time>2020-10-06T14:39:14.438Z</time>
      </trkpt>
      <trkpt lat="54.64074" lon="25.01322">
        <ele>163.882105</ele>
        <time>2020-10-06T14:39:40.373Z</time>
      </trkpt>
      <trkpt lat="54.64048" lon="25.01245">
        <ele>163.620209</ele>
        <time>2020-10-06T14:39:51.172Z</time>
      </trkpt>
      <trkpt lat="54.64037" lon="25.01219">
        <ele>163.524573</ele>
        <time>2020-10-06T14:39:54.900Z</time>
      </trkpt>
      <trkpt lat="54.63972" lon="25.01104">
        <ele>161.856026</ele>
        <time>2020-10-06T14:40:12.227Z</time>
      </trkpt>
      <trkpt lat="54.63956" lon="25.01075">
        <ele>161.405416</ele>
        <time>2020-10-06T14:40:16.294Z</time>
      </trkpt>
      <trkpt lat="54.63929" lon="25.01026">
        <ele>160.672586</ele>
        <time>2020-10-06T14:40:22.820Z</time>
      </trkpt>
      <trkpt lat="54.63906" lon="25.00981">
        <ele>159.988762</ele>
        <time>2020-10-06T14:40:28.743Z</time>
      </trkpt>
      <trkpt lat="54.6389" lon="25.00947">
        <ele>159.440478</ele>
        <time>2020-10-06T14:40:32.940Z</time>
      </trkpt>
      <trkpt lat="54.63869" lon="25.00902">
        <ele>158.696892</ele>
        <time>2020-10-06T14:40:38.691Z</time>
      </trkpt>
      <trkpt lat="54.6385" lon="25.00863">
        <ele>158.048578</ele>
        <time>2020-10-06T14:40:43.748Z</time>
      </trkpt>
      <trkpt lat="54.63834" lon="25.00821">
        <ele>157.403851</ele>
        <time>2020-10-06T14:40:48.836Z</time>
      </trkpt>
      <trkpt lat="54.63823" lon="25.00787">
        <ele>156.900849</ele>
        <time>2020-10-06T14:40:52.745Z</time>
      </trkpt>
      <trkpt lat="54.63758" lon="25.00587">
        <ele>154.861248</ele>
        <time>2020-10-06T14:41:17.077Z</time>
      </trkpt>
      <trkpt lat="54.63751" lon="25.00568">
        <ele>154.699724</ele>
        <time>2020-10-06T14:41:19.478Z</time>
      </trkpt>
      <trkpt lat="54.63717" lon="25.00457">
        <ele>153.786696</ele>
        <time>2020-10-06T14:41:33.894Z</time>
      </trkpt>
      <trkpt lat="54.63714" lon="25.00448">
        <ele>153.747901</ele>
        <time>2020-10-06T14:41:35.033Z</time>
      </trkpt>
      <trkpt lat="54.63671" lon="25.00289">
        <ele>153.072359</ele>
        <time>2020-10-06T14:41:55.209Z</time>
      </trkpt>
      <trkpt lat="54.63567" lon="24.99881">
        <ele>151.81549</ele>
        <time>2020-10-06T14:42:48.790Z</time>
      </trkpt>
      <trkpt lat="54.63561" lon="24.9986">
        <ele>151.780766</ele>
        <time>2020-10-06T14:42:51.714Z</time>
      </trkpt>
      <trkpt lat="54.63554" lon="24.99841">
        <ele>151.74861</ele>
        <time>2020-10-06T14:42:54.379Z</time>
      </trkpt>
      <trkpt lat="54.63547" lon="24.99824">
        <ele>151.718581</ele>
        <time>2020-10-06T14:42:56.792Z</time>
      </trkpt>
      <trkpt lat="54.63373" lon="24.99535">
        <ele>151.583339</ele>
        <time>2020-10-06T14:43:48.948Z</time>
      </trkpt>
      <trkpt lat="54.63354" lon="24.99486">
        <ele>151.647138</ele>
        <time>2020-10-06T14:43:56.803Z</time>
      </trkpt>
      <trkpt lat="54.63345" lon="24.9944">
        <ele>151.700996</ele>
        <time>2020-10-06T14:44:03.839Z</time>
      </trkpt>
      <trkpt lat="54.63314" lon="24.99244">
        <ele>153.229735</ele>
        <time>2020-10-06T14:44:36.201Z</time>
      </trkpt>
      <trkpt lat="54.63313" lon="24.99235">
        <ele>153.311559</ele>
        <time>2020-10-06T14:44:37.879Z</time>
      </trkpt>
      <trkpt lat="54.6329" lon="24.99094">
        <ele>154.474255</ele>
        <time>2020-10-06T14:45:02.722Z</time>
      </trkpt>
      <trkpt lat="54.63279" lon="24.99021">
        <ele>155.025696</ele>
        <time>2020-10-06T14:45:15.517Z</time>
      </trkpt>
      <trkpt lat="54.63202" lon="24.98553">
        <ele>157.999041</ele>
        <time>2020-10-06T14:46:29.901Z</time>
      </trkpt>
      <trkpt lat="54.63153" lon="24.98243">
        <ele>158.732403</ele>
        <time>2020-10-06T14:47:13.724Z</time>
      </trkpt>
      <trkpt lat="54.63091" lon="24.97854">
        <ele>158.770871</ele>
        <time>2020-10-06T14:48:06.690Z</time>
      </trkpt>
      <trkpt lat="54.62989" lon="24.97217">
        <ele>156.885175</ele>
        <time>2020-10-06T14:49:25.237Z</time>
      </trkpt>
      <trkpt lat="54.6295" lon="24.96896">
        <ele>155.639651</ele>
        <time>2020-10-06T14:50:02.987Z</time>
      </trkpt>
      <trkpt lat="54.6294" lon="24.9684">
        <ele>155.433246</ele>
        <time>2020-10-06T14:50:09.737Z</time>
      </trkpt>
      <trkpt lat="54.62928" lon="24.96782">
        <ele>155.213861</ele>
        <time>2020-10-06T14:50:16.939Z</time>
      </trkpt>
      <trkpt lat="54.62908" lon="24.96699">
        <ele>154.903872</ele>
        <time>2020-10-06T14:50:28.038Z</time>
      </trkpt>
      <trkpt lat="54.62895" lon="24.9663">
        <ele>154.664624</ele>
        <time>2020-10-06T14:50:37.412Z</time>
      </trkpt>
      <trkpt lat="54.62886" lon="24.96576">
        <ele>154.477852</ele>
        <time>2020-10-06T14:50:44.284Z</time>
      </trkpt>
      <trkpt lat="54.62881" lon="24.96542">
        <ele>154.36085</ele>
        <time>2020-10-06T14:50:48.329Z</time>
      </trkpt>
      <trkpt lat="54.62885" lon="24.96539">
        <ele>154.333722</ele>
        <time>2020-10-06T14:50:49.288Z</time>
      </trkpt>
      <trkpt lat="54.62897" lon="24.9653">
        <ele>154.259526</ele>
        <time>2020-10-06T14:50:52.080Z</time>
      </trkpt>
      <trkpt lat="54.62961" lon="24.96461">
        <ele>153.525212</ele>
        <time>2020-10-06T14:51:06.672Z</time>
      </trkpt>
      <trkpt lat="54.63043" lon="24.96372">
        <ele>151.859243</ele>
        <time>2020-10-06T14:51:24.225Z</time>
      </trkpt>
      <trkpt lat="54.63165" lon="24.96239">
        <ele>149.452183</ele>
        <time>2020-10-06T14:51:49.072Z</time>
      </trkpt>
      <trkpt lat="54.63191" lon="24.96211">
        <ele>148.947423</ele>
        <time>2020-10-06T14:51:54.781Z</time>
      </trkpt>
      <trkpt lat="54.63272" lon="24.96119">
        <ele>147.839008</ele>
        <time>2020-10-06T14:52:13.753Z</time>
      </trkpt>
      <trkpt lat="54.63315" lon="24.9608">
        <ele>147.690388</ele>
        <time>2020-10-06T14:52:24.019Z</time>
      </trkpt>
      <trkpt lat="54.63362" lon="24.96056">
        <ele>147.542969</ele>
        <time>2020-10-06T14:52:34.919Z</time>
      </trkpt>
      <trkpt lat="54.63435" lon="24.96038">
        <ele>147.412016</ele>
        <time>2020-10-06T14:52:51.437Z</time>
      </trkpt>
      <trkpt lat="54.63519" lon="24.96028">
        <ele>147.449048</ele>
        <time>2020-10-06T14:53:09.958Z</time>
      </trkpt>
      <trkpt lat="54.63555" lon="24.96012">
        <ele>147.465523</ele>
        <time>2020-10-06T14:53:18.238Z</time>
      </trkpt>
      <trkpt lat="54.63587" lon="24.95971">
        <ele>147.54226</ele>
        <time>2020-10-06T14:53:27.146Z</time>
      </trkpt>
      <trkpt lat="54.63622" lon="24.95896">
        <ele>147.980328</ele>
        <time>2020-10-06T14:53:40.189Z</time>
      </trkpt>
      <trkpt lat="54.63677" lon="24.95724">
        <ele>148.867902</ele>
        <time>2020-10-06T14:54:10.597Z</time>
      </trkpt>
      <trkpt lat="54.6369" lon="24.95693">
        <ele>149.144325</ele>
        <time>2020-10-06T14:54:16.353Z</time>
      </trkpt>
      <trkpt lat="54.63697" lon="24.95684">
        <ele>149.255298</ele>
        <time>2020-10-06T14:54:18.784Z</time>
      </trkpt>
      <trkpt lat="54.63703" lon="24.95676">
        <ele>149.362739</ele>
        <time>2020-10-06T14:54:21.445Z</time>
      </trkpt>
      <trkpt lat="54.63723" lon="24.95666">
        <ele>149.625153</ele>
        <time>2020-10-06T14:54:26.621Z</time>
      </trkpt>
      <trkpt lat="54.63742" lon="24.95665">
        <ele>149.875449</ele>
        <time>2020-10-06T14:54:32.376Z</time>
      </trkpt>
      <trkpt lat="54.63784" lon="24.9567">
        <ele>150.428023</ele>
        <time>2020-10-06T14:54:44.169Z</time>
      </trkpt>
      <trkpt lat="54.63822" lon="24.95685">
        <ele>150.932291</ele>
        <time>2020-10-06T14:54:55.005Z</time>
      </trkpt>
      <trkpt lat="54.63904" lon="24.95724">
        <ele>151.604824</ele>
        <time>2020-10-06T14:55:17.460Z</time>
      </trkpt>
      <trkpt lat="54.6412" lon="24.95829">
        <ele>152.602915</ele>
        <time>2020-10-06T14:56:10.706Z</time>
      </trkpt>
      <trkpt lat="54.64139" lon="24.95837">
        <ele>152.652944</ele>
        <time>2020-10-06T14:56:14.938Z</time>
      </trkpt>
      <trkpt lat="54.64222" lon="24.95846">
        <ele>152.763009</ele>
        <time>2020-10-06T14:56:34.043Z</time>
      </trkpt>
      <trkpt lat="54.64288" lon="24.95832">
        <ele>152.69208</ele>
        <time>2020-10-06T14:56:48.318Z</time>
      </trkpt>
      <trkpt lat="54.64312" lon="24.95821">
        <ele>152.665352</ele>
        <time>2020-10-06T14:56:53.693Z</time>
      </trkpt>
      <trkpt lat="54.64333" lon="24.9581">
        <ele>152.640889</ele>
        <time>2020-10-06T14:56:58.496Z</time>
      </trkpt>
      <trkpt lat="54.64466" lon="24.95739">
        <ele>152.447552</ele>
        <time>2020-10-06T14:57:28.959Z</time>
      </trkpt>
      <trkpt lat="54.64523" lon="24.95707">
        <ele>152.35725</ele>
        <time>2020-10-06T14:57:41.801Z</time>
      </trkpt>
      <trkpt lat="54.6457" lon="24.95676">
        <ele>152.174664</ele>
        <time>2020-10-06T14:57:52.576Z</time>
      </trkpt>
      <trkpt lat="54.64605" lon="24.9565">
        <ele>151.990148</ele>
        <time>2020-10-06T14:58:00.555Z</time>
      </trkpt>
      <trkpt lat="54.64642" lon="24.95617">
        <ele>151.788462</ele>
        <time>2020-10-06T14:58:09.162Z</time>
      </trkpt>
      <trkpt lat="54.64679" lon="24.9557">
        <ele>151.569565</ele>
        <time>2020-10-06T14:58:18.387Z</time>
      </trkpt>
      <trkpt lat="54.64702" lon="24.95529">
        <ele>151.39277</ele>
        <time>2020-10-06T14:58:24.992Z</time>
      </trkpt>
      <trkpt lat="54.64733" lon="24.95468">
        <ele>151.084295</ele>
        <time>2020-10-06T14:58:34.511Z</time>
      </trkpt>
      <trkpt lat="54.64822" lon="24.95262">
        <ele>150.111428</ele>
        <time>2020-10-06T14:59:04.448Z</time>
      </trkpt>
      <trkpt lat="54.64858" lon="24.95179">
        <ele>149.737514</ele>
        <time>2020-10-06T14:59:16.469Z</time>
      </trkpt>
      <trkpt lat="54.64893" lon="24.95098">
        <ele>149.365809</ele>
        <time>2020-10-06T14:59:28.124Z</time>
      </trkpt>
      <trkpt lat="54.64932" lon="24.95009">
        <ele>149.181342</ele>
        <time>2020-10-06T14:59:41.419Z</time>
      </trkpt>
      <trkpt lat="54.64964" lon="24.94923">
        <ele>149.231498</ele>
        <time>2020-10-06T14:59:55.560Z</time>
      </trkpt>
      <trkpt lat="54.6497" lon="24.94892">
        <ele>149.247596</ele>
        <time>2020-10-06T14:59:59.674Z</time>
      </trkpt>
      <trkpt lat="54.64973" lon="24.94866">
        <ele>149.26069</ele>
        <time>2020-10-06T15:00:03.821Z</time>
      </trkpt>
      <trkpt lat="54.64973" lon="24.9484">
        <ele>149.273404</ele>
        <time>2020-10-06T15:00:06.931Z</time>
      </trkpt>
      <trkpt lat="54.64972" lon="24.94806">
        <ele>149.289902</ele>
        <time>2020-10-06T15:00:11.949Z</time>
      </trkpt>
      <trkpt lat="54.64963" lon="24.94711">
        <ele>149.267226</ele>
        <time>2020-10-06T15:00:24.029Z</time>
      </trkpt>
      <trkpt lat="54.64964" lon="24.94682">
        <ele>149.247687</ele>
        <time>2020-10-06T15:00:28.421Z</time>
      </trkpt>
      <trkpt lat="54.64971" lon="24.94566">
        <ele>149.168579</ele>
        <time>2020-10-06T15:00:43.518Z</time>
      </trkpt>
      <trkpt lat="54.64971" lon="24.94543">
        <ele>149.15326</ele>
        <time>2020-10-06T15:00:46.542Z</time>
      </trkpt>
      <trkpt lat="54.6497" lon="24.94525">
        <ele>149.14052</ele>
        <time>2020-10-06T15:00:48.610Z</time>
      </trkpt>
      <trkpt lat="54.64967" lon="24.94509">
        <ele>149.129768</ele>
        <time>2020-10-06T15:00:50.594Z</time>
      </trkpt>
      <trkpt lat="54.64922" lon="24.94328">
        <ele>148.977004</ele>
        <time>2020-10-06T15:01:13.800Z</time>
      </trkpt>
      <trkpt lat="54.64906" lon="24.94212">
        <ele>148.881319</ele>
        <time>2020-10-06T15:01:29.253Z</time>
      </trkpt>
      <trkpt lat="54.64902" lon="24.94196">
        <ele>148.867141</ele>
        <time>2020-10-06T15:01:31.775Z</time>
      </trkpt>
      <trkpt lat="54.64897" lon="24.9417">
        <ele>148.85935</ele>
        <time>2020-10-06T15:01:35.619Z</time>
      </trkpt>
      <trkpt lat="54.64893" lon="24.94156">
        <ele>148.929465</ele>
        <time>2020-10-06T15:01:37.675Z</time>
      </trkpt>
      <trkpt lat="54.64891" lon="24.94145">
        <ele>148.981979</ele>
        <time>2020-10-06T15:01:39.353Z</time>
      </trkpt>
      <trkpt lat="54.64885" lon="24.94148">
        <ele>149.033848</ele>
        <time>2020-10-06T15:01:41.312Z</time>
      </trkpt>
      <trkpt lat="54.64877" lon="24.9415">
        <ele>149.096304</ele>
        <time>2020-10-06T15:01:43.727Z</time>
      </trkpt>
      <trkpt lat="54.64862" lon="24.94147">
        <ele>149.223145</ele>
        <time>2020-10-06T15:01:48.674Z</time>
      </trkpt>
      <trkpt lat="54.64811" lon="24.94139">
        <ele>149.634673</ele>
        <time>2020-10-06T15:02:09.803Z</time>
      </trkpt>
      <trkpt lat="54.64805" lon="24.94122">
        <ele>149.727019</ele>
        <time>2020-10-06T15:02:14.791Z</time>
      </trkpt>
      <trkpt lat="54.64798" lon="24.94118">
        <ele>149.788914</ele>
        <time>2020-10-06T15:02:17.792Z</time>
      </trkpt>
      <trkpt lat="54.64773" lon="24.94127">
        <ele>149.993678</ele>
        <time>2020-10-06T15:02:28.605Z</time>
      </trkpt>
      <trkpt lat="54.64729" lon="24.94196">
        <ele>150.339163</ele>
        <time>2020-10-06T15:02:52.546Z</time>
      </trkpt>
      <trkpt lat="54.64724" lon="24.94201">
        <ele>150.348699</ele>
        <time>2020-10-06T15:02:54.961Z</time>
      </trkpt>
      <trkpt lat="54.64721" lon="24.942">
        <ele>150.355048</ele>
        <time>2020-10-06T15:02:56.520Z</time>
      </trkpt>
      <trkpt lat="54.64645" lon="24.9415">
        <ele>150.49834</ele>
        <time>2020-10-06T15:03:24.975Z</time>
      </trkpt>
      <trkpt lat="54.6463" lon="24.94132">
        <ele>150.530866</ele>
        <time>2020-10-06T15:03:32.514Z</time>
      </trkpt>
      <trkpt lat="54.64627" lon="24.94126">
        <ele>150.538812</ele>
        <time>2020-10-06T15:03:34.308Z</time>
      </trkpt>
      <trkpt lat="54.64626" lon="24.94119">
        <ele>150.545872</ele>
        <time>2020-10-06T15:03:35.779Z</time>
      </trkpt>
      <trkpt lat="54.64671" lon="24.93929">
        <ele>151.242119</ele>
        <time>2020-10-06T15:04:04.920Z</time>
      </trkpt>
      <trkpt lat="54.6468" lon="24.93933">
        <ele>151.311872</ele>
        <time>2020-10-06T15:04:10.231Z</time>
      </trkpt>
      <trkpt lat="54.64701" lon="24.93912">
        <ele>151.509352</ele>
        <time>2020-10-06T15:04:18.987Z</time>
      </trkpt>
      <trkpt lat="54.64711" lon="24.93883">
        <ele>151.667323</ele>
        <time>2020-10-06T15:04:27.987Z</time>
      </trkpt>
      <trkpt lat="54.64721" lon="24.93803">
        <ele>152.043058</ele>
        <time>2020-10-06T15:04:46.559Z</time>
      </trkpt>
      <trkpt lat="54.64713" lon="24.93741">
        <ele>152.107291</ele>
        <time>2020-10-06T15:05:01.648Z</time>
      </trkpt>
      <trkpt lat="54.64705" lon="24.93714">
        <ele>152.131185</ele>
        <time>2020-10-06T15:05:10.070Z</time>
      </trkpt>
      <trkpt lat="54.64705" lon="24.93712">
        <ele>152.13246</ele>
        <time>2020-10-06T15:05:10.406Z</time>
      </trkpt>
      <trkpt lat="54.64691" lon="24.93673">
        <ele>152.169525</ele>
        <time>2020-10-06T15:05:20.544Z</time>
      </trkpt>
      <trkpt lat="54.64687" lon="24.93661">
        <ele>152.180372</ele>
        <time>2020-10-06T15:05:23.813Z</time>
      </trkpt>
      <trkpt lat="54.64682" lon="24.93631">
        <ele>152.205848</ele>
        <time>2020-10-06T15:05:30.362Z</time>
      </trkpt>
      <trkpt lat="54.64682" lon="24.93622">
        <ele>152.213083</ele>
        <time>2020-10-06T15:05:32.341Z</time>
      </trkpt>
      <trkpt lat="54.64686" lon="24.93611">
        <ele>152.223794</ele>
        <time>2020-10-06T15:05:35.360Z</time>
      </trkpt>
      <trkpt lat="54.64702" lon="24.93582">
        <ele>152.256068</ele>
        <time>2020-10-06T15:05:43.629Z</time>
      </trkpt>
      <trkpt lat="54.64717" lon="24.93559">
        <ele>152.283566</ele>
        <time>2020-10-06T15:05:51.032Z</time>
      </trkpt>
      <trkpt lat="54.64724" lon="24.93545">
        <ele>152.298542</ele>
        <time>2020-10-06T15:05:54.573Z</time>
      </trkpt>
      <trkpt lat="54.64756" lon="24.93492">
        <ele>151.943275</ele>
        <time>2020-10-06T15:06:09.069Z</time>
      </trkpt>
      <trkpt lat="54.64777" lon="24.93458">
        <ele>151.667457</ele>
        <time>2020-10-06T15:06:17.923Z</time>
      </trkpt>
      <trkpt lat="54.64827" lon="24.93371">
        <ele>150.977451</ele>
        <time>2020-10-06T15:06:41.924Z</time>
      </trkpt>
      <trkpt lat="54.64838" lon="24.93351">
        <ele>150.819051</ele>
        <time>2020-10-06T15:06:48.049Z</time>
      </trkpt>
      <trkpt lat="54.64843" lon="24.93342">
        <ele>150.747927</ele>
        <time>2020-10-06T15:06:50.946Z</time>
      </trkpt>
      <trkpt lat="54.64851" lon="24.9333">
        <ele>150.64498</ele>
        <time>2020-10-06T15:06:54.461Z</time>
      </trkpt>
      <trkpt lat="54.64863" lon="24.93316">
        <ele>150.543996</ele>
        <time>2020-10-06T15:06:59.707Z</time>
      </trkpt>
      <trkpt lat="54.64875" lon="24.93299">
        <ele>150.498631</ele>
        <time>2020-10-06T15:07:05.253Z</time>
      </trkpt>
      <trkpt lat="54.64889" lon="24.93275">
        <ele>150.44053</ele>
        <time>2020-10-06T15:07:11.981Z</time>
      </trkpt>
      <trkpt lat="54.64879" lon="24.93254">
        <ele>150.393436</ele>
        <time>2020-10-06T15:07:15.512Z</time>
      </trkpt>
      <trkpt lat="54.64865" lon="24.93222">
        <ele>150.325153</ele>
        <time>2020-10-06T15:07:20.507Z</time>
      </trkpt>
      <trkpt lat="54.64877" lon="24.93208">
        <ele>150.28202</ele>
        <time>2020-10-06T15:07:23.676Z</time>
      </trkpt>
      <trkpt lat="54.64881" lon="24.93204">
        <ele>150.267962</ele>
        <time>2020-10-06T15:07:24.452Z</time>
      </trkpt>
      <trkpt lat="54.649" lon="24.93171">
        <ele>150.189487</ele>
        <time>2020-10-06T15:07:30.597Z</time>
      </trkpt>
      <trkpt lat="54.64916" lon="24.93124">
        <ele>150.096408</ele>
        <time>2020-10-06T15:07:38.125Z</time>
      </trkpt>
      <trkpt lat="54.64918" lon="24.93118">
        <ele>150.084311</ele>
        <time>2020-10-06T15:07:38.842Z</time>
      </trkpt>
      <trkpt lat="54.64924" lon="24.93099">
        <ele>150.048303</ele>
        <time>2020-10-06T15:07:41.475Z</time>
      </trkpt>
      <trkpt lat="54.64935" lon="24.93054">
        <ele>149.90797</ele>
        <time>2020-10-06T15:07:48.546Z</time>
      </trkpt>
      <trkpt lat="54.64939" lon="24.93035">
        <ele>149.848148</ele>
        <time>2020-10-06T15:07:50.696Z</time>
      </trkpt>
      <trkpt lat="54.64945" lon="24.93017">
        <ele>149.78187</ele>
        <time>2020-10-06T15:07:53.587Z</time>
      </trkpt>
      <trkpt lat="54.64955" lon="24.92981">
        <ele>149.656965</ele>
        <time>2020-10-06T15:07:57.746Z</time>
      </trkpt>
      <trkpt lat="54.64972" lon="24.92886">
        <ele>149.349061</ele>
        <time>2020-10-06T15:08:08.473Z</time>
      </trkpt>
      <trkpt lat="54.64974" lon="24.92877">
        <ele>149.319887</ele>
        <time>2020-10-06T15:08:09.685Z</time>
      </trkpt>
      <trkpt lat="54.64977" lon="24.92854">
        <ele>149.246082</ele>
        <time>2020-10-06T15:08:12.380Z</time>
      </trkpt>
      <trkpt lat="54.64993" lon="24.92741">
        <ele>149.443596</ele>
        <time>2020-10-06T15:08:27.855Z</time>
      </trkpt>
      <trkpt lat="54.64997" lon="24.92711">
        <ele>149.645277</ele>
        <time>2020-10-06T15:08:32.300Z</time>
      </trkpt>
      <trkpt lat="54.65001" lon="24.92684">
        <ele>149.832048</ele>
        <time>2020-10-06T15:08:36.198Z</time>
      </trkpt>
      <trkpt lat="54.65011" lon="24.92611">
        <ele>150.323954</ele>
        <time>2020-10-06T15:08:47.329Z</time>
      </trkpt>
      <trkpt lat="54.65015" lon="24.92582">
        <ele>150.520237</ele>
        <time>2020-10-06T15:08:52.353Z</time>
      </trkpt>
      <trkpt lat="54.6502" lon="24.92556">
        <ele>150.704037</ele>
        <time>2020-10-06T15:08:56.818Z</time>
      </trkpt>
      <trkpt lat="54.65024" lon="24.92541">
        <ele>150.808721</ele>
        <time>2020-10-06T15:08:59.898Z</time>
      </trkpt>
      <trkpt lat="54.65031" lon="24.92523">
        <ele>150.95558</ele>
        <time>2020-10-06T15:09:03.747Z</time>
      </trkpt>
      <trkpt lat="54.65051" lon="24.92472">
        <ele>151.717339</ele>
        <time>2020-10-06T15:09:15.468Z</time>
      </trkpt>
      <trkpt lat="54.65086" lon="24.92386">
        <ele>153.396831</ele>
        <time>2020-10-06T15:09:37.183Z</time>
      </trkpt>
      <trkpt lat="54.65091" lon="24.92374">
        <ele>153.616299</ele>
        <time>2020-10-06T15:09:40.069Z</time>
      </trkpt>
      <trkpt lat="54.65105" lon="24.92338">
        <ele>154.316656</ele>
        <time>2020-10-06T15:09:49.195Z</time>
      </trkpt>
      <trkpt lat="54.65118" lon="24.92308">
        <ele>154.919608</ele>
        <time>2020-10-06T15:09:56.603Z</time>
      </trkpt>
      <trkpt lat="54.65141" lon="24.92265">
        <ele>155.848769</ele>
        <time>2020-10-06T15:10:07.721Z</time>
      </trkpt>
      <trkpt lat="54.65145" lon="24.92257">
        <ele>156.014305</ele>
        <time>2020-10-06T15:10:09.712Z</time>
      </trkpt>
      <trkpt lat="54.65227" lon="24.92135">
        <ele>156.809821</ele>
        <time>2020-10-06T15:10:40.050Z</time>
      </trkpt>
      <trkpt lat="54.65259" lon="24.92052">
        <ele>157.21209</ele>
        <time>2020-10-06T15:10:51.941Z</time>
      </trkpt>
      <trkpt lat="54.65268" lon="24.92021">
        <ele>157.260868</ele>
        <time>2020-10-06T15:10:56.014Z</time>
      </trkpt>
      <trkpt lat="54.65273" lon="24.92004">
        <ele>157.099534</ele>
        <time>2020-10-06T15:10:58.240Z</time>
      </trkpt>
      <trkpt lat="54.65275" lon="24.91995">
        <ele>157.014673</ele>
        <time>2020-10-06T15:10:59.248Z</time>
      </trkpt>
      <trkpt lat="54.65279" lon="24.91982">
        <ele>156.893028</ele>
        <time>2020-10-06T15:11:00.895Z</time>
      </trkpt>
      <trkpt lat="54.65315" lon="24.91862">
        <ele>155.760294</ele>
        <time>2020-10-06T15:11:15.084Z</time>
      </trkpt>
      <trkpt lat="54.65336" lon="24.91803">
        <ele>155.176171</ele>
        <time>2020-10-06T15:11:22.297Z</time>
      </trkpt>
      <trkpt lat="54.6534" lon="24.91796">
        <ele>155.094841</ele>
        <time>2020-10-06T15:11:23.295Z</time>
      </trkpt>
      <trkpt lat="54.65343" lon="24.91787">
        <ele>155.013324</ele>
        <time>2020-10-06T15:11:24.311Z</time>
      </trkpt>
      <trkpt lat="54.65344" lon="24.91778">
        <ele>154.932115</ele>
        <time>2020-10-06T15:11:25.227Z</time>
      </trkpt>
      <trkpt lat="54.65344" lon="24.91759">
        <ele>154.770645</ele>
        <time>2020-10-06T15:11:27.235Z</time>
      </trkpt>
      <trkpt lat="54.65342" lon="24.9175">
        <ele>154.70339</ele>
        <time>2020-10-06T15:11:28.190Z</time>
      </trkpt>
      <trkpt lat="54.65345" lon="24.91719">
        <ele>154.649043</ele>
        <time>2020-10-06T15:11:31.520Z</time>
      </trkpt>
      <trkpt lat="54.65353" lon="24.91675">
        <ele>154.569445</ele>
        <time>2020-10-06T15:11:36.503Z</time>
      </trkpt>
      <trkpt lat="54.65393" lon="24.91524">
        <ele>154.280959</ele>
        <time>2020-10-06T15:11:56.775Z</time>
      </trkpt>
      <trkpt lat="54.65413" lon="24.91427">
        <ele>154.667389</ele>
        <time>2020-10-06T15:12:12.525Z</time>
      </trkpt>
      <trkpt lat="54.65426" lon="24.91366">
        <ele>155.518507</ele>
        <time>2020-10-06T15:12:23.892Z</time>
      </trkpt>
      <trkpt lat="54.65458" lon="24.91208">
        <ele>157.696794</ele>
        <time>2020-10-06T15:12:55.575Z</time>
      </trkpt>
      <trkpt lat="54.65618" lon="24.90407">
        <ele>172.589523</ele>
        <time>2020-10-06T15:15:47.569Z</time>
      </trkpt>
      <trkpt lat="54.65628" lon="24.90352">
        <ele>173.483868</ele>
        <time>2020-10-06T15:15:58.373Z</time>
      </trkpt>
      <trkpt lat="54.65633" lon="24.90323">
        <ele>173.962838</ele>
        <time>2020-10-06T15:16:04.156Z</time>
      </trkpt>
      <trkpt lat="54.65663" lon="24.90116">
        <ele>175.186344</ele>
        <time>2020-10-06T15:16:38.888Z</time>
      </trkpt>
      <trkpt lat="54.65697" lon="24.89863">
        <ele>174.818359</ele>
        <time>2020-10-06T15:17:09.048Z</time>
      </trkpt>
      <trkpt lat="54.65731" lon="24.89611">
        <ele>172.920394</ele>
        <time>2020-10-06T15:17:36.641Z</time>
      </trkpt>
      <trkpt lat="54.65745" lon="24.89506">
        <ele>171.981015</ele>
        <time>2020-10-06T15:17:48.136Z</time>
      </trkpt>
      <trkpt lat="54.65755" lon="24.89433">
        <ele>171.327449</ele>
        <time>2020-10-06T15:17:56.161Z</time>
      </trkpt>
      <trkpt lat="54.65765" lon="24.89353">
        <ele>170.581643</ele>
        <time>2020-10-06T15:18:04.898Z</time>
      </trkpt>
      <trkpt lat="54.65788" lon="24.89059">
        <ele>167.461159</ele>
        <time>2020-10-06T15:18:35.815Z</time>
      </trkpt>
      <trkpt lat="54.6579" lon="24.88748">
        <ele>163.038034</ele>
        <time>2020-10-06T15:19:06.113Z</time>
      </trkpt>
      <trkpt lat="54.65788" lon="24.88676">
        <ele>162.633841</ele>
        <time>2020-10-06T15:19:13.347Z</time>
      </trkpt>
      <trkpt lat="54.65787" lon="24.88646">
        <ele>162.463646</ele>
        <time>2020-10-06T15:19:16.462Z</time>
      </trkpt>
      <trkpt lat="54.65786" lon="24.88634">
        <ele>162.397877</ele>
        <time>2020-10-06T15:19:17.662Z</time>
      </trkpt>
      <trkpt lat="54.65748" lon="24.87775">
        <ele>157.901884</ele>
        <time>2020-10-06T15:20:58.731Z</time>
      </trkpt>
      <trkpt lat="54.65742" lon="24.87646">
        <ele>156.775834</ele>
        <time>2020-10-06T15:21:12.012Z</time>
      </trkpt>
      <trkpt lat="54.65731" lon="24.87439">
        <ele>155.464233</ele>
        <time>2020-10-06T15:21:33.682Z</time>
      </trkpt>
      <trkpt lat="54.65728" lon="24.87394">
        <ele>155.346571</ele>
        <time>2020-10-06T15:21:38.998Z</time>
      </trkpt>
      <trkpt lat="54.65724" lon="24.87352">
        <ele>155.236883</ele>
        <time>2020-10-06T15:21:44.264Z</time>
      </trkpt>
      <trkpt lat="54.65717" lon="24.87283">
        <ele>155.060062</ele>
        <time>2020-10-06T15:21:53.290Z</time>
      </trkpt>
      <trkpt lat="54.6565" lon="24.86714">
        <ele>156.971196</ele>
        <time>2020-10-06T15:23:16.279Z</time>
      </trkpt>
      <trkpt lat="54.65628" lon="24.86546">
        <ele>158.330443</ele>
        <time>2020-10-06T15:23:43.946Z</time>
      </trkpt>
      <trkpt lat="54.65583" lon="24.86164">
        <ele>162.963142</ele>
        <time>2020-10-06T15:24:57.056Z</time>
      </trkpt>
      <trkpt lat="54.65524" lon="24.85685">
        <ele>167.317798</ele>
        <time>2020-10-06T15:26:12.472Z</time>
      </trkpt>
      <trkpt lat="54.65491" lon="24.85399">
        <ele>172.841546</ele>
        <time>2020-10-06T15:27:15.373Z</time>
      </trkpt>
      <trkpt lat="54.65467" lon="24.85201">
        <ele>175.485189</ele>
        <time>2020-10-06T15:27:55.783Z</time>
      </trkpt>
      <trkpt lat="54.65465" lon="24.85188">
        <ele>175.647403</ele>
        <time>2020-10-06T15:27:57.995Z</time>
      </trkpt>
      <trkpt lat="54.65441" lon="24.85003">
        <ele>176.823772</ele>
        <time>2020-10-06T15:28:25.619Z</time>
      </trkpt>
      <trkpt lat="54.65413" lon="24.84763">
        <ele>176.130563</ele>
        <time>2020-10-06T15:28:53.416Z</time>
      </trkpt>
      <trkpt lat="54.65368" lon="24.8435">
        <ele>173.800651</ele>
        <time>2020-10-06T15:29:39.593Z</time>
      </trkpt>
      <trkpt lat="54.65327" lon="24.83976">
        <ele>173.879989</ele>
        <time>2020-10-06T15:30:28.314Z</time>
      </trkpt>
      <trkpt lat="54.65266" lon="24.8341">
        <ele>177.964866</ele>
        <time>2020-10-06T15:32:03.032Z</time>
      </trkpt>
      <trkpt lat="54.65224" lon="24.83021">
        <ele>180.389931</ele>
        <time>2020-10-06T15:33:01.290Z</time>
      </trkpt>
      <trkpt lat="54.6522" lon="24.82979">
        <ele>180.642383</ele>
        <time>2020-10-06T15:33:08.193Z</time>
      </trkpt>
      <trkpt lat="54.65188" lon="24.82683">
        <ele>183.228634</ele>
        <time>2020-10-06T15:33:58.900Z</time>
      </trkpt>
      <trkpt lat="54.6517" lon="24.82528">
        <ele>183.88214</ele>
        <time>2020-10-06T15:34:23.479Z</time>
      </trkpt>
      <trkpt lat="54.65151" lon="24.82382">
        <ele>184.202757</ele>
        <time>2020-10-06T15:34:43.297Z</time>
      </trkpt>
      <trkpt lat="54.6514" lon="24.82314">
        <ele>184.1324</ele>
        <time>2020-10-06T15:34:51.569Z</time>
      </trkpt>
      <trkpt lat="54.65133" lon="24.82271">
        <ele>183.767283</ele>
        <time>2020-10-06T15:34:56.769Z</time>
      </trkpt>
      <trkpt lat="54.65099" lon="24.82117">
        <ele>182.416567</ele>
        <time>2020-10-06T15:35:14.587Z</time>
      </trkpt>
      <trkpt lat="54.6505" lon="24.8196">
        <ele>180.376259</ele>
        <time>2020-10-06T15:35:32.475Z</time>
      </trkpt>
      <trkpt lat="54.64998" lon="24.81821">
        <ele>178.072004</ele>
        <time>2020-10-06T15:35:48.407Z</time>
      </trkpt>
      <trkpt lat="54.64903" lon="24.816">
        <ele>175.384551</ele>
        <time>2020-10-06T15:36:16.894Z</time>
      </trkpt>
      <trkpt lat="54.64878" lon="24.81545">
        <ele>174.756347</ele>
        <time>2020-10-06T15:36:25.081Z</time>
      </trkpt>
      <trkpt lat="54.64856" lon="24.81497">
        <ele>174.484226</ele>
        <time>2020-10-06T15:36:32.204Z</time>
      </trkpt>
      <trkpt lat="54.64835" lon="24.81457">
        <ele>174.298639</ele>
        <time>2020-10-06T15:36:38.668Z</time>
      </trkpt>
      <trkpt lat="54.648" lon="24.81395">
        <ele>174.001814</ele>
        <time>2020-10-06T15:36:49.332Z</time>
      </trkpt>
      <trkpt lat="54.64732" lon="24.81293">
        <ele>173.276656</ele>
        <time>2020-10-06T15:37:07.639Z</time>
      </trkpt>
      <trkpt lat="54.64661" lon="24.81194">
        <ele>171.85338</ele>
        <time>2020-10-06T15:37:24.665Z</time>
      </trkpt>
      <trkpt lat="54.64329" lon="24.80765">
        <ele>163.211858</ele>
        <time>2020-10-06T15:38:36.585Z</time>
      </trkpt>
      <trkpt lat="54.64307" lon="24.80737">
        <ele>162.657944</ele>
        <time>2020-10-06T15:38:41.342Z</time>
      </trkpt>
      <trkpt lat="54.64281" lon="24.80703">
        <ele>162.073282</ele>
        <time>2020-10-06T15:38:46.992Z</time>
      </trkpt>
      <trkpt lat="54.6425" lon="24.80664">
        <ele>161.389896</ele>
        <time>2020-10-06T15:38:53.703Z</time>
      </trkpt>
      <trkpt lat="54.64207" lon="24.8061">
        <ele>160.427123</ele>
        <time>2020-10-06T15:39:03.351Z</time>
      </trkpt>
      <trkpt lat="54.64054" lon="24.80411">
        <ele>157.118144</ele>
        <time>2020-10-06T15:39:38.729Z</time>
      </trkpt>
      <trkpt lat="54.63962" lon="24.80291">
        <ele>154.907926</ele>
        <time>2020-10-06T15:39:58.501Z</time>
      </trkpt>
      <trkpt lat="54.63923" lon="24.80226">
        <ele>153.820726</ele>
        <time>2020-10-06T15:40:07.857Z</time>
      </trkpt>
      <trkpt lat="54.63899" lon="24.80165">
        <ele>152.99558</ele>
        <time>2020-10-06T15:40:15.580Z</time>
      </trkpt>
      <trkpt lat="54.63889" lon="24.80129">
        <ele>153.008408</ele>
        <time>2020-10-06T15:40:19.867Z</time>
      </trkpt>
      <trkpt lat="54.6388" lon="24.80083">
        <ele>153.024182</ele>
        <time>2020-10-06T15:40:25.447Z</time>
      </trkpt>
      <trkpt lat="54.63872" lon="24.8002">
        <ele>153.044808</ele>
        <time>2020-10-06T15:40:33.203Z</time>
      </trkpt>
      <trkpt lat="54.63871" lon="24.79984">
        <ele>153.056337</ele>
        <time>2020-10-06T15:40:37.939Z</time>
      </trkpt>
      <trkpt lat="54.63871" lon="24.79943">
        <ele>153.069649</ele>
        <time>2020-10-06T15:40:43.745Z</time>
      </trkpt>
      <trkpt lat="54.63883" lon="24.79837">
        <ele>153.50368</ele>
        <time>2020-10-06T15:41:01.559Z</time>
      </trkpt>
      <trkpt lat="54.63892" lon="24.79784">
        <ele>154.269106</ele>
        <time>2020-10-06T15:41:11.563Z</time>
      </trkpt>
      <trkpt lat="54.63898" lon="24.7975">
        <ele>154.749415</ele>
        <time>2020-10-06T15:41:17.933Z</time>
      </trkpt>
      <trkpt lat="54.63919" lon="24.79621">
        <ele>156.597808</ele>
        <time>2020-10-06T15:41:43.388Z</time>
      </trkpt>
      <trkpt lat="54.63941" lon="24.79435">
        <ele>159.334487</ele>
        <time>2020-10-06T15:42:20.762Z</time>
      </trkpt>
      <trkpt lat="54.63949" lon="24.79327">
        <ele>160.910777</ele>
        <time>2020-10-06T15:42:40.758Z</time>
      </trkpt>
      <trkpt lat="54.63951" lon="24.79267">
        <ele>161.79457</ele>
        <time>2020-10-06T15:42:51.544Z</time>
      </trkpt>
      <trkpt lat="54.63952" lon="24.79117">
        <ele>163.418494</ele>
        <time>2020-10-06T15:43:18.338Z</time>
      </trkpt>
      <trkpt lat="54.63952" lon="24.78979">
        <ele>164.893918</ele>
        <time>2020-10-06T15:43:42.068Z</time>
      </trkpt>
      <trkpt lat="54.63952" lon="24.78861">
        <ele>165.4038</ele>
        <time>2020-10-06T15:44:00.590Z</time>
      </trkpt>
      <trkpt lat="54.63952" lon="24.78599">
        <ele>165.609717</ele>
        <time>2020-10-06T15:44:34.818Z</time>
      </trkpt>
      <trkpt lat="54.63951" lon="24.78181">
        <ele>162.616347</ele>
        <time>2020-10-06T15:45:19.244Z</time>
      </trkpt>
      <trkpt lat="54.63953" lon="24.78043">
        <ele>161.596417</ele>
        <time>2020-10-06T15:45:34.095Z</time>
      </trkpt>
      <trkpt lat="54.63962" lon="24.77763">
        <ele>161.514147</ele>
        <time>2020-10-06T15:46:08.343Z</time>
      </trkpt>
      <trkpt lat="54.63969" lon="24.77621">
        <ele>163.035263</ele>
        <time>2020-10-06T15:46:32.717Z</time>
      </trkpt>
      <trkpt lat="54.63971" lon="24.77568">
        <ele>163.96202</ele>
        <time>2020-10-06T15:46:42.815Z</time>
      </trkpt>
      <trkpt lat="54.63987" lon="24.77184">
        <ele>171.804942</ele>
        <time>2020-10-06T15:48:08.194Z</time>
      </trkpt>
      <trkpt lat="54.63996" lon="24.77039">
        <ele>174.644817</ele>
        <time>2020-10-06T15:48:39.915Z</time>
      </trkpt>
      <trkpt lat="54.64006" lon="24.76954">
        <ele>175.750306</ele>
        <time>2020-10-06T15:48:57.756Z</time>
      </trkpt>
      <trkpt lat="54.64073" lon="24.7659">
        <ele>177.594351</ele>
        <time>2020-10-06T15:49:57.398Z</time>
      </trkpt>
      <trkpt lat="54.64085" lon="24.76499">
        <ele>177.406005</ele>
        <time>2020-10-06T15:50:06.766Z</time>
      </trkpt>
      <trkpt lat="54.64095" lon="24.76348">
        <ele>174.029108</ele>
        <time>2020-10-06T15:50:20.378Z</time>
      </trkpt>
      <trkpt lat="54.64087" lon="24.76192">
        <ele>170.256254</ele>
        <time>2020-10-06T15:50:34.208Z</time>
      </trkpt>
      <trkpt lat="54.64076" lon="24.761">
        <ele>169.305364</ele>
        <time>2020-10-06T15:50:42.833Z</time>
      </trkpt>
      <trkpt lat="54.64022" lon="24.75709">
        <ele>167.371228</ele>
        <time>2020-10-06T15:51:32.785Z</time>
      </trkpt>
      <trkpt lat="54.6401" lon="24.75629">
        <ele>167.303525</ele>
        <time>2020-10-06T15:51:44.277Z</time>
      </trkpt>
      <trkpt lat="54.63975" lon="24.75391">
        <ele>166.462975</ele>
        <time>2020-10-06T15:52:13.652Z</time>
      </trkpt>
      <trkpt lat="54.63944" lon="24.75166">
        <ele>165.338657</ele>
        <time>2020-10-06T15:52:39.051Z</time>
      </trkpt>
      <trkpt lat="54.63937" lon="24.75078">
        <ele>164.844323</ele>
        <time>2020-10-06T15:52:48.894Z</time>
      </trkpt>
      <trkpt lat="54.63941" lon="24.74931">
        <ele>164.206295</ele>
        <time>2020-10-06T15:53:05.900Z</time>
      </trkpt>
      <trkpt lat="54.63949" lon="24.74876">
        <ele>164.196276</ele>
        <time>2020-10-06T15:53:12.786Z</time>
      </trkpt>
      <trkpt lat="54.6397" lon="24.74798">
        <ele>164.180858</ele>
        <time>2020-10-06T15:53:24.084Z</time>
      </trkpt>
      <trkpt lat="54.64024" lon="24.74685">
        <ele>164.136117</ele>
        <time>2020-10-06T15:53:44.066Z</time>
      </trkpt>
      <trkpt lat="54.64084" lon="24.74603">
        <ele>163.91473</ele>
        <time>2020-10-06T15:54:02.091Z</time>
      </trkpt>
      <trkpt lat="54.64215" lon="24.74425">
        <ele>161.963889</ele>
        <time>2020-10-06T15:54:35.223Z</time>
      </trkpt>
      <trkpt lat="54.64234" lon="24.744">
        <ele>161.404341</ele>
        <time>2020-10-06T15:54:39.233Z</time>
      </trkpt>
      <trkpt lat="54.64323" lon="24.74279">
        <ele>158.474568</ele>
        <time>2020-10-06T15:54:57.309Z</time>
      </trkpt>
      <trkpt lat="54.64404" lon="24.7416">
        <ele>154.996653</ele>
        <time>2020-10-06T15:55:13.931Z</time>
      </trkpt>
      <trkpt lat="54.64498" lon="24.73995">
        <ele>153.429387</ele>
        <time>2020-10-06T15:55:38.846Z</time>
      </trkpt>
      <trkpt lat="54.64515" lon="24.73962">
        <ele>153.410871</ele>
        <time>2020-10-06T15:55:45.616Z</time>
      </trkpt>
      <trkpt lat="54.64525" lon="24.73941">
        <ele>153.399495</ele>
        <time>2020-10-06T15:55:49.900Z</time>
      </trkpt>
      <trkpt lat="54.64563" lon="24.73867">
        <ele>153.387673</ele>
        <time>2020-10-06T15:56:06.424Z</time>
      </trkpt>
      <trkpt lat="54.64637" lon="24.73702">
        <ele>153.843129</ele>
        <time>2020-10-06T15:56:39.819Z</time>
      </trkpt>
      <trkpt lat="54.64705" lon="24.73532">
        <ele>152.416764</ele>
        <time>2020-10-06T15:57:01.230Z</time>
      </trkpt>
      <trkpt lat="54.64764" lon="24.73357">
        <ele>149.57669</ele>
        <time>2020-10-06T15:57:20.610Z</time>
      </trkpt>
      <trkpt lat="54.64817" lon="24.73175">
        <ele>146.622337</ele>
        <time>2020-10-06T15:57:40.405Z</time>
      </trkpt>
      <trkpt lat="54.649" lon="24.72876">
        <ele>142.258877</ele>
        <time>2020-10-06T15:58:14.313Z</time>
      </trkpt>
      <trkpt lat="54.64963" lon="24.7263">
        <ele>138.547788</ele>
        <time>2020-10-06T15:58:40.690Z</time>
      </trkpt>
      <trkpt lat="54.6498" lon="24.7255">
        <ele>137.325872</ele>
        <time>2020-10-06T15:58:49.092Z</time>
      </trkpt>
      <trkpt lat="54.65" lon="24.72451">
        <ele>136.272522</ele>
        <time>2020-10-06T15:58:59.737Z</time>
      </trkpt>
      <trkpt lat="54.65006" lon="24.72411">
        <ele>135.936379</ele>
        <time>2020-10-06T15:59:04.180Z</time>
      </trkpt>
      <trkpt lat="54.65019" lon="24.72331">
        <ele>135.266314</ele>
        <time>2020-10-06T15:59:13.134Z</time>
      </trkpt>
      <trkpt lat="54.65029" lon="24.72255">
        <ele>134.634323</ele>
        <time>2020-10-06T15:59:22.040Z</time>
      </trkpt>
      <trkpt lat="54.65039" lon="24.72159">
        <ele>133.756253</ele>
        <time>2020-10-06T15:59:32.996Z</time>
      </trkpt>
      <trkpt lat="54.65048" lon="24.72032">
        <ele>132.523874</ele>
        <time>2020-10-06T15:59:47.111Z</time>
      </trkpt>
      <trkpt lat="54.65051" lon="24.71991">
        <ele>132.122803</ele>
        <time>2020-10-06T15:59:51.389Z</time>
      </trkpt>
      <trkpt lat="54.65063" lon="24.71674">
        <ele>127.649942</ele>
        <time>2020-10-06T16:00:22.175Z</time>
      </trkpt>
      <trkpt lat="54.65072" lon="24.71437">
        <ele>124.473059</ele>
        <time>2020-10-06T16:00:45.430Z</time>
      </trkpt>
      <trkpt lat="54.65111" lon="24.70352">
        <ele>114.444376</ele>
        <time>2020-10-06T16:02:40.500Z</time>
      </trkpt>
      <trkpt lat="54.65121" lon="24.70102">
        <ele>114.32544</ele>
        <time>2020-10-06T16:03:11.898Z</time>
      </trkpt>
      <trkpt lat="54.65126" lon="24.70002">
        <ele>114.424601</ele>
        <time>2020-10-06T16:03:27.404Z</time>
      </trkpt>
      <trkpt lat="54.65134" lon="24.69901">
        <ele>114.707065</ele>
        <time>2020-10-06T16:03:42.315Z</time>
      </trkpt>
      <trkpt lat="54.6514" lon="24.69839">
        <ele>114.880613</ele>
        <time>2020-10-06T16:03:50.970Z</time>
      </trkpt>
      <trkpt lat="54.65149" lon="24.69763">
        <ele>115.093171</ele>
        <time>2020-10-06T16:04:01.405Z</time>
      </trkpt>
      <trkpt lat="54.65157" lon="24.69707">
        <ele>115.137835</ele>
        <time>2020-10-06T16:04:09.267Z</time>
      </trkpt>
      <trkpt lat="54.65159" lon="24.69694">
        <ele>115.128946</ele>
        <time>2020-10-06T16:04:10.982Z</time>
      </trkpt>
      <trkpt lat="54.6518" lon="24.6957">
        <ele>115.045815</ele>
        <time>2020-10-06T16:04:26.580Z</time>
      </trkpt>
      <trkpt lat="54.65231" lon="24.69323">
        <ele>115.41522</ele>
        <time>2020-10-06T16:05:00.002Z</time>
      </trkpt>
      <trkpt lat="54.65288" lon="24.69128">
        <ele>116.121893</ele>
        <time>2020-10-06T16:05:34.324Z</time>
      </trkpt>
      <trkpt lat="54.65357" lon="24.68947">
        <ele>116.425632</ele>
        <time>2020-10-06T16:06:04.974Z</time>
      </trkpt>
      <trkpt lat="54.65466" lon="24.68734">
        <ele>115.018964</ele>
        <time>2020-10-06T16:06:35.849Z</time>
      </trkpt>
      <trkpt lat="54.65498" lon="24.68679">
        <ele>114.505539</ele>
        <time>2020-10-06T16:06:44.197Z</time>
      </trkpt>
      <trkpt lat="54.65571" lon="24.68559">
        <ele>114.325231</ele>
        <time>2020-10-06T16:07:04.422Z</time>
      </trkpt>
      <trkpt lat="54.65806" lon="24.68163">
        <ele>115.802879</ele>
        <time>2020-10-06T16:08:25.753Z</time>
      </trkpt>
      <trkpt lat="54.65866" lon="24.68035">
        <ele>116.532797</ele>
        <time>2020-10-06T16:08:49.305Z</time>
      </trkpt>
      <trkpt lat="54.65927" lon="24.6787">
        <ele>118.187653</ele>
        <time>2020-10-06T16:09:20.992Z</time>
      </trkpt>
      <trkpt lat="54.65957" lon="24.67781">
        <ele>119.130563</ele>
        <time>2020-10-06T16:09:38.997Z</time>
      </trkpt>
      <trkpt lat="54.66003" lon="24.67643">
        <ele>120.274819</ele>
        <time>2020-10-06T16:10:06.610Z</time>
      </trkpt>
      <trkpt lat="54.66034" lon="24.67553">
        <ele>120.932217</ele>
        <time>2020-10-06T16:10:23.009Z</time>
      </trkpt>
      <trkpt lat="54.6607" lon="24.67443">
        <ele>121.553424</ele>
        <time>2020-10-06T16:10:39.798Z</time>
      </trkpt>
      <trkpt lat="54.66103" lon="24.67344">
        <ele>121.687455</ele>
        <time>2020-10-06T16:10:53.682Z</time>
      </trkpt>
      <trkpt lat="54.66157" lon="24.67188">
        <ele>121.913606</ele>
        <time>2020-10-06T16:11:19.078Z</time>
      </trkpt>
      <trkpt lat="54.66171" lon="24.67146">
        <ele>122.004089</ele>
        <time>2020-10-06T16:11:26.109Z</time>
      </trkpt>
      <trkpt lat="54.66217" lon="24.67012">
        <ele>122.296003</ele>
        <time>2020-10-06T16:11:48.186Z</time>
      </trkpt>
      <trkpt lat="54.66246" lon="24.66924">
        <ele>122.356963</ele>
        <time>2020-10-06T16:12:01.703Z</time>
      </trkpt>
      <trkpt lat="54.66271" lon="24.66846">
        <ele>121.650088</ele>
        <time>2020-10-06T16:12:12.017Z</time>
      </trkpt>
      <trkpt lat="54.66365" lon="24.66569">
        <ele>119.340794</ele>
        <time>2020-10-06T16:12:44.955Z</time>
      </trkpt>
      <trkpt lat="54.66447" lon="24.66293">
        <ele>118.358817</ele>
        <time>2020-10-06T16:13:22.227Z</time>
      </trkpt>
      <trkpt lat="54.66465" lon="24.66235">
        <ele>118.447733</ele>
        <time>2020-10-06T16:13:31.575Z</time>
      </trkpt>
      <trkpt lat="54.66482" lon="24.66186">
        <ele>118.526286</ele>
        <time>2020-10-06T16:13:39.993Z</time>
      </trkpt>
      <trkpt lat="54.6653" lon="24.6605">
        <ele>118.406173</ele>
        <time>2020-10-06T16:14:02.973Z</time>
      </trkpt>
      <trkpt lat="54.66583" lon="24.65941">
        <ele>118.025968</ele>
        <time>2020-10-06T16:14:20.688Z</time>
      </trkpt>
      <trkpt lat="54.66636" lon="24.65992">
        <ele>117.515576</ele>
        <time>2020-10-06T16:14:31.624Z</time>
      </trkpt>
      <trkpt lat="54.66669" lon="24.66023">
        <ele>116.519542</ele>
        <time>2020-10-06T16:14:38.019Z</time>
      </trkpt>
      <trkpt lat="54.66697" lon="24.66036">
        <ele>115.742052</ele>
        <time>2020-10-06T16:14:42.953Z</time>
      </trkpt>
      <trkpt lat="54.66752" lon="24.6602">
        <ele>114.280584</ele>
        <time>2020-10-06T16:14:52.115Z</time>
      </trkpt>
      <trkpt lat="54.66773" lon="24.66009">
        <ele>113.691096</ele>
        <time>2020-10-06T16:14:55.708Z</time>
      </trkpt>
      <trkpt lat="54.66796" lon="24.65997">
        <ele>113.046609</ele>
        <time>2020-10-06T16:14:59.757Z</time>
      </trkpt>
      <trkpt lat="54.66838" lon="24.65974">
        <ele>112.054338</ele>
        <time>2020-10-06T16:15:07.038Z</time>
      </trkpt>
      <trkpt lat="54.66863" lon="24.65961">
        <ele>111.478212</ele>
        <time>2020-10-06T16:15:11.327Z</time>
      </trkpt>
      <trkpt lat="54.66879" lon="24.65951">
        <ele>111.081347</ele>
        <time>2020-10-06T16:15:14.284Z</time>
      </trkpt>
      <trkpt lat="54.66896" lon="24.65939">
        <ele>110.666398</ele>
        <time>2020-10-06T16:15:17.404Z</time>
      </trkpt>
      <trkpt lat="54.66984" lon="24.65874">
        <ele>108.834478</ele>
        <time>2020-10-06T16:15:34.622Z</time>
      </trkpt>
      <trkpt lat="54.67074" lon="24.65831">
        <ele>108.176481</ele>
        <time>2020-10-06T16:15:53.268Z</time>
      </trkpt>
      <trkpt lat="54.67096" lon="24.65825">
        <ele>108.022937</ele>
        <time>2020-10-06T16:15:58.065Z</time>
      </trkpt>
      <trkpt lat="54.67117" lon="24.65822">
        <ele>107.872499</ele>
        <time>2020-10-06T16:16:03.117Z</time>
      </trkpt>
      <trkpt lat="54.67179" lon="24.65815">
        <ele>107.548112</ele>
        <time>2020-10-06T16:16:16.192Z</time>
      </trkpt>
      <trkpt lat="54.67192" lon="24.65774">
        <ele>107.429626</ele>
        <time>2020-10-06T16:16:21.697Z</time>
      </trkpt>
      <trkpt lat="54.67194" lon="24.65766">
        <ele>107.406183</ele>
        <time>2020-10-06T16:16:22.950Z</time>
      </trkpt>
      <trkpt lat="54.67205" lon="24.65723">
        <ele>107.290987</ele>
        <time>2020-10-06T16:16:28.251Z</time>
      </trkpt>
      <trkpt lat="54.67207" lon="24.65699">
        <ele>107.227615</ele>
        <time>2020-10-06T16:16:31.728Z</time>
      </trkpt>
      <trkpt lat="54.67181" lon="24.65673">
        <ele>107.097176</ele>
        <time>2020-10-06T16:16:37.920Z</time>
      </trkpt>
      <trkpt lat="54.67104" lon="24.65577">
        <ele>106.624231</ele>
        <time>2020-10-06T16:16:57.250Z</time>
      </trkpt>
      <trkpt lat="54.67018" lon="24.65446">
        <ele>106.011136</ele>
        <time>2020-10-06T16:17:19.934Z</time>
      </trkpt>
      <trkpt lat="54.6694" lon="24.65325">
        <ele>106.675999</ele>
        <time>2020-10-06T16:17:45.146Z</time>
      </trkpt>
      <trkpt lat="54.66927" lon="24.65304">
        <ele>106.80282</ele>
        <time>2020-10-06T16:17:49.851Z</time>
      </trkpt>
      <trkpt lat="54.66904" lon="24.65269">
        <ele>107.023537</ele>
        <time>2020-10-06T16:17:58.315Z</time>
      </trkpt>
      <trkpt lat="54.66893" lon="24.65253">
        <ele>107.123919</ele>
        <time>2020-10-06T16:18:02.271Z</time>
      </trkpt>
      <trkpt lat="54.66868" lon="24.65258">
        <ele>107.312161</ele>
        <time>2020-10-06T16:18:09.476Z</time>
      </trkpt>
      <trkpt lat="54.66857" lon="24.65241">
        <ele>107.425815</ele>
        <time>2020-10-06T16:18:13.558Z</time>
      </trkpt>
      <trkpt lat="54.66852" lon="24.65224">
        <ele>107.512206</ele>
        <time>2020-10-06T16:18:16.667Z</time>
      </trkpt>
      <trkpt lat="54.6685" lon="24.65187">
        <ele>107.679947</ele>
        <time>2020-10-06T16:18:22.496Z</time>
      </trkpt>
      <trkpt lat="54.66785" lon="24.65086">
        <ele>108.361046</ele>
        <time>2020-10-06T16:18:45.270Z</time>
      </trkpt>
      <trkpt lat="54.66694" lon="24.64948">
        <ele>108.394834</ele>
        <time>2020-10-06T16:19:11.337Z</time>
      </trkpt>
      <trkpt lat="54.6665" lon="24.64879">
        <ele>108.206408</ele>
        <time>2020-10-06T16:19:23.336Z</time>
      </trkpt>
      <trkpt lat="54.66563" lon="24.64747">
        <ele>108.550859</ele>
        <time>2020-10-06T16:19:48.124Z</time>
      </trkpt>
      <trkpt lat="54.66527" lon="24.64667">
        <ele>108.894624</ele>
        <time>2020-10-06T16:20:02.589Z</time>
      </trkpt>
      <trkpt lat="54.66513" lon="24.64589">
        <ele>109.242896</ele>
        <time>2020-10-06T16:20:16.580Z</time>
      </trkpt>
      <trkpt lat="54.6652" lon="24.64426">
        <ele>111.412433</ele>
        <time>2020-10-06T16:20:45.927Z</time>
      </trkpt>
      <trkpt lat="54.66519" lon="24.64403">
        <ele>111.70965</ele>
        <time>2020-10-06T16:20:50.191Z</time>
      </trkpt>
      <trkpt lat="54.66515" lon="24.64387">
        <ele>111.942235</ele>
        <time>2020-10-06T16:20:53.707Z</time>
      </trkpt>
      <trkpt lat="54.66491" lon="24.6432">
        <ele>112.979573</ele>
        <time>2020-10-06T16:21:08.165Z</time>
      </trkpt>
      <trkpt lat="54.66397" lon="24.64156">
        <ele>117.223563</ele>
        <time>2020-10-06T16:21:52.293Z</time>
      </trkpt>
      <trkpt lat="54.66385" lon="24.64133">
        <ele>117.817884</ele>
        <time>2020-10-06T16:21:58.931Z</time>
      </trkpt>
      <trkpt lat="54.66309" lon="24.63972">
        <ele>123.772462</ele>
        <time>2020-10-06T16:22:48.462Z</time>
      </trkpt>
      <trkpt lat="54.66269" lon="24.63878">
        <ele>127.678567</ele>
        <time>2020-10-06T16:23:20.955Z</time>
      </trkpt>
      <trkpt lat="54.66217" lon="24.63717">
        <ele>134.033407</ele>
        <time>2020-10-06T16:24:15.555Z</time>
      </trkpt>
      <trkpt lat="54.66205" lon="24.63674">
        <ele>135.688555</ele>
        <time>2020-10-06T16:24:29.034Z</time>
      </trkpt>
      <trkpt lat="54.66182" lon="24.63582">
        <ele>139.177232</ele>
        <time>2020-10-06T16:24:53.982Z</time>
      </trkpt>
      <trkpt lat="54.66171" lon="24.63548">
        <ele>140.48449</ele>
        <time>2020-10-06T16:25:03.165Z</time>
      </trkpt>
      <trkpt lat="54.66142" lon="24.63496">
        <ele>141.888221</ele>
        <time>2020-10-06T16:25:19.629Z</time>
      </trkpt>
      <trkpt lat="54.66024" lon="24.63392">
        <ele>146.383568</ele>
        <time>2020-10-06T16:26:05.312Z</time>
      </trkpt>
      <trkpt lat="54.65917" lon="24.63286">
        <ele>148.749641</ele>
        <time>2020-10-06T16:26:44.428Z</time>
      </trkpt>
      <trkpt lat="54.65847" lon="24.63214">
        <ele>149.675316</ele>
        <time>2020-10-06T16:27:06.026Z</time>
      </trkpt>
      <trkpt lat="54.65815" lon="24.63184">
        <ele>149.347718</ele>
        <time>2020-10-06T16:27:14.300Z</time>
      </trkpt>
      <trkpt lat="54.6556" lon="24.62929">
        <ele>145.148937</ele>
        <time>2020-10-06T16:28:07.260Z</time>
      </trkpt>
      <trkpt lat="54.65495" lon="24.62876">
        <ele>144.762064</ele>
        <time>2020-10-06T16:28:19.844Z</time>
      </trkpt>
      <trkpt lat="54.65462" lon="24.62865">
        <ele>144.628526</ele>
        <time>2020-10-06T16:28:26.956Z</time>
      </trkpt>
      <trkpt lat="54.6546" lon="24.62864">
        <ele>144.619921</ele>
        <time>2020-10-06T16:28:27.259Z</time>
      </trkpt>
      <trkpt lat="54.65441" lon="24.62863">
        <ele>144.547928</ele>
        <time>2020-10-06T16:28:31.427Z</time>
      </trkpt>
      <trkpt lat="54.65419" lon="24.62865">
        <ele>144.462205</ele>
        <time>2020-10-06T16:28:36.385Z</time>
      </trkpt>
      <trkpt lat="54.65411" lon="24.62867">
        <ele>144.428798</ele>
        <time>2020-10-06T16:28:38.421Z</time>
      </trkpt>
      <trkpt lat="54.6532" lon="24.62883">
        <ele>146.683086</ele>
        <time>2020-10-06T16:29:06.571Z</time>
      </trkpt>
      <trkpt lat="54.65174" lon="24.62889">
        <ele>152.600268</ele>
        <time>2020-10-06T16:30:08.589Z</time>
      </trkpt>
      <trkpt lat="54.65118" lon="24.62882">
        <ele>155.259677</ele>
        <time>2020-10-06T16:30:31.839Z</time>
      </trkpt>
      <trkpt lat="54.65083" lon="24.62866">
        <ele>156.984234</ele>
        <time>2020-10-06T16:30:47.246Z</time>
      </trkpt>
      <trkpt lat="54.65074" lon="24.62858">
        <ele>157.474891</ele>
        <time>2020-10-06T16:30:51.971Z</time>
      </trkpt>
      <trkpt lat="54.65065" lon="24.62847">
        <ele>157.997386</ele>
        <time>2020-10-06T16:30:56.203Z</time>
      </trkpt>
      <trkpt lat="54.65045" lon="24.62801">
        <ele>159.595525</ele>
        <time>2020-10-06T16:31:09.593Z</time>
      </trkpt>
      <trkpt lat="54.6503" lon="24.62736">
        <ele>160.898382</ele>
        <time>2020-10-06T16:31:24.851Z</time>
      </trkpt>
      <trkpt lat="54.65021" lon="24.62681">
        <ele>161.892294</ele>
        <time>2020-10-06T16:31:37.019Z</time>
      </trkpt>
      <trkpt lat="54.65018" lon="24.62662">
        <ele>162.23024</ele>
        <time>2020-10-06T16:31:41.117Z</time>
      </trkpt>
      <trkpt lat="54.64982" lon="24.62412">
        <ele>165.996644</ele>
        <time>2020-10-06T16:32:28.170Z</time>
      </trkpt>
      <trkpt lat="54.64955" lon="24.62283">
        <ele>167.217718</ele>
        <time>2020-10-06T16:32:49.984Z</time>
      </trkpt>
      <trkpt lat="54.64859" lon="24.62013">
        <ele>169.566439</ele>
        <time>2020-10-06T16:33:39.718Z</time>
      </trkpt>
      <trkpt lat="54.64836" lon="24.61967">
        <ele>169.977969</ele>
        <time>2020-10-06T16:33:49.266Z</time>
      </trkpt>
      <trkpt lat="54.64795" lon="24.61911">
        <ele>170.336893</ele>
        <time>2020-10-06T16:34:03.093Z</time>
      </trkpt>
      <trkpt lat="54.64753" lon="24.61867">
        <ele>170.584724</ele>
        <time>2020-10-06T16:34:15.300Z</time>
      </trkpt>
      <trkpt lat="54.64715" lon="24.61823">
        <ele>170.812804</ele>
        <time>2020-10-06T16:34:25.798Z</time>
      </trkpt>
      <trkpt lat="54.64673" lon="24.61747">
        <ele>171.029197</ele>
        <time>2020-10-06T16:34:39.911Z</time>
      </trkpt>
      <trkpt lat="54.64668" lon="24.61733">
        <ele>171.014621</ele>
        <time>2020-10-06T16:34:41.868Z</time>
      </trkpt>
      <trkpt lat="54.64661" lon="24.61715">
        <ele>170.99577</ele>
        <time>2020-10-06T16:34:44.580Z</time>
      </trkpt>
      <trkpt lat="54.64552" lon="24.61288">
        <ele>170.474389</ele>
        <time>2020-10-06T16:35:42.529Z</time>
      </trkpt>
      <trkpt lat="54.6451" lon="24.61133">
        <ele>170.331123</ele>
        <time>2020-10-06T16:36:03.589Z</time>
      </trkpt>
      <trkpt lat="54.64477" lon="24.61001">
        <ele>170.306924</ele>
        <time>2020-10-06T16:36:21.770Z</time>
      </trkpt>
      <trkpt lat="54.64443" lon="24.60913">
        <ele>170.367171</ele>
        <time>2020-10-06T16:36:36.001Z</time>
      </trkpt>
      <trkpt lat="54.64365" lon="24.60808">
        <ele>171.111857</ele>
        <time>2020-10-06T16:37:00.705Z</time>
      </trkpt>
      <trkpt lat="54.64327" lon="24.60751">
        <ele>171.487561</ele>
        <time>2020-10-06T16:37:14.069Z</time>
      </trkpt>
      <trkpt lat="54.64276" lon="24.60665">
        <ele>172.138613</ele>
        <time>2020-10-06T16:37:33.276Z</time>
      </trkpt>
      <trkpt lat="54.64206" lon="24.60556">
        <ele>173.051544</ele>
        <time>2020-10-06T16:37:57.827Z</time>
      </trkpt>
      <trkpt lat="54.64111" lon="24.60379">
        <ele>174.233502</ele>
        <time>2020-10-06T16:38:33.429Z</time>
      </trkpt>
      <trkpt lat="54.63996" lon="24.6021">
        <ele>174.484465</ele>
        <time>2020-10-06T16:39:11.828Z</time>
      </trkpt>
      <trkpt lat="54.63918" lon="24.60071">
        <ele>173.804577</ele>
        <time>2020-10-06T16:39:33.172Z</time>
      </trkpt>
      <trkpt lat="54.63893" lon="24.60022">
        <ele>172.860861</ele>
        <time>2020-10-06T16:39:39.677Z</time>
      </trkpt>
      <trkpt lat="54.63864" lon="24.59976">
        <ele>171.884617</ele>
        <time>2020-10-06T16:39:46.319Z</time>
      </trkpt>
      <trkpt lat="54.6383" lon="24.59947">
        <ele>170.970581</ele>
        <time>2020-10-06T16:39:52.455Z</time>
      </trkpt>
      <trkpt lat="54.6382" lon="24.59944">
        <ele>170.703115</ele>
        <time>2020-10-06T16:39:54.095Z</time>
      </trkpt>
      <trkpt lat="54.63807" lon="24.59943">
        <ele>170.393552</ele>
        <time>2020-10-06T16:39:56.254Z</time>
      </trkpt>
      <trkpt lat="54.63772" lon="24.59952">
        <ele>169.541651</ele>
        <time>2020-10-06T16:40:02.201Z</time>
      </trkpt>
      <trkpt lat="54.63738" lon="24.5997">
        <ele>169.413845</ele>
        <time>2020-10-06T16:40:08.416Z</time>
      </trkpt>
      <trkpt lat="54.63719" lon="24.59979">
        <ele>169.343098</ele>
        <time>2020-10-06T16:40:12.050Z</time>
      </trkpt>
      <trkpt lat="54.63702" lon="24.59985">
        <ele>169.281153</ele>
        <time>2020-10-06T16:40:15.306Z</time>
      </trkpt>
      <trkpt lat="54.63685" lon="24.59989">
        <ele>169.217158</ele>
        <time>2020-10-06T16:40:18.859Z</time>
      </trkpt>
      <trkpt lat="54.63674" lon="24.5999">
        <ele>169.179097</ele>
        <time>2020-10-06T16:40:20.845Z</time>
      </trkpt>
      <trkpt lat="54.6365" lon="24.59987">
        <ele>169.089481</ele>
        <time>2020-10-06T16:40:26.915Z</time>
      </trkpt>
      <trkpt lat="54.63615" lon="24.59963">
        <ele>168.953229</ele>
        <time>2020-10-06T16:40:36.990Z</time>
      </trkpt>
      <trkpt lat="54.63476" lon="24.59759">
        <ele>172.305636</ele>
        <time>2020-10-06T16:41:33.312Z</time>
      </trkpt>
      <trkpt lat="54.63437" lon="24.59712">
        <ele>173.012126</ele>
        <time>2020-10-06T16:41:48.203Z</time>
      </trkpt>
      <trkpt lat="54.63399" lon="24.5968">
        <ele>173.552106</ele>
        <time>2020-10-06T16:42:00.391Z</time>
      </trkpt>
      <trkpt lat="54.6336" lon="24.59655">
        <ele>174.090464</ele>
        <time>2020-10-06T16:42:11.954Z</time>
      </trkpt>
      <trkpt lat="54.63284" lon="24.59604">
        <ele>174.83621</ele>
        <time>2020-10-06T16:42:32.026Z</time>
      </trkpt>
      <trkpt lat="54.6327" lon="24.59597">
        <ele>174.812988</ele>
        <time>2020-10-06T16:42:35.123Z</time>
      </trkpt>
      <trkpt lat="54.63239" lon="24.59589">
        <ele>174.762285</ele>
        <time>2020-10-06T16:42:42.195Z</time>
      </trkpt>
      <trkpt lat="54.63192" lon="24.59591">
        <ele>174.685612</ele>
        <time>2020-10-06T16:42:51.867Z</time>
      </trkpt>
      <trkpt lat="54.62899" lon="24.59633">
        <ele>173.346842</ele>
        <time>2020-10-06T16:43:53.521Z</time>
      </trkpt>
      <trkpt lat="54.62825" lon="24.59645">
        <ele>172.440059</ele>
        <time>2020-10-06T16:44:07.985Z</time>
      </trkpt>
      <trkpt lat="54.62787" lon="24.59654">
        <ele>171.980439</ele>
        <time>2020-10-06T16:44:14.772Z</time>
      </trkpt>
      <trkpt lat="54.62751" lon="24.59664">
        <ele>171.325481</ele>
        <time>2020-10-06T16:44:21.034Z</time>
      </trkpt>
      <trkpt lat="54.62669" lon="24.59704">
        <ele>169.201845</ele>
        <time>2020-10-06T16:44:35.334Z</time>
      </trkpt>
      <trkpt lat="54.62645" lon="24.59714">
        <ele>168.588241</ele>
        <time>2020-10-06T16:44:39.425Z</time>
      </trkpt>
      <trkpt lat="54.62629" lon="24.5972">
        <ele>168.167825</ele>
        <time>2020-10-06T16:44:42.240Z</time>
      </trkpt>
      <trkpt lat="54.62511" lon="24.59739">
        <ele>166.134895</ele>
        <time>2020-10-06T16:45:02.706Z</time>
      </trkpt>
      <trkpt lat="54.62254" lon="24.5972">
        <ele>163.942803</ele>
        <time>2020-10-06T16:45:54.859Z</time>
      </trkpt>
      <trkpt lat="54.61915" lon="24.59615">
        <ele>163.041607</ele>
        <time>2020-10-06T16:47:09.609Z</time>
      </trkpt>
      <trkpt lat="54.6183" lon="24.59576">
        <ele>162.699857</ele>
        <time>2020-10-06T16:47:26.823Z</time>
      </trkpt>
      <trkpt lat="54.61813" lon="24.59559">
        <ele>162.611602</ele>
        <time>2020-10-06T16:47:30.886Z</time>
      </trkpt>
      <trkpt lat="54.618" lon="24.5954">
        <ele>162.538941</ele>
        <time>2020-10-06T16:47:34.161Z</time>
      </trkpt>
      <trkpt lat="54.61717" lon="24.59393">
        <ele>162.362137</ele>
        <time>2020-10-06T16:47:59.846Z</time>
      </trkpt>
      <trkpt lat="54.61693" lon="24.59344">
        <ele>162.662269</ele>
        <time>2020-10-06T16:48:08.588Z</time>
      </trkpt>
      <trkpt lat="54.61671" lon="24.59288">
        <ele>162.976574</ele>
        <time>2020-10-06T16:48:18.679Z</time>
      </trkpt>
      <trkpt lat="54.61638" lon="24.5919">
        <ele>163.50598</ele>
        <time>2020-10-06T16:48:36.816Z</time>
      </trkpt>
      <trkpt lat="54.61605" lon="24.59084">
        <ele>164.212935</ele>
        <time>2020-10-06T16:48:56.882Z</time>
      </trkpt>
      <trkpt lat="54.6157" lon="24.58974">
        <ele>164.975301</ele>
        <time>2020-10-06T16:49:16.199Z</time>
      </trkpt>
      <trkpt lat="54.61544" lon="24.58907">
        <ele>165.464142</ele>
        <time>2020-10-06T16:49:27.947Z</time>
      </trkpt>
      <trkpt lat="54.61516" lon="24.5885">
        <ele>165.38889</ele>
        <time>2020-10-06T16:49:38.507Z</time>
      </trkpt>
      <trkpt lat="54.61407" lon="24.58662">
        <ele>165.246872</ele>
        <time>2020-10-06T16:50:09.661Z</time>
      </trkpt>
      <trkpt lat="54.61353" lon="24.58553">
        <ele>165.981778</ele>
        <time>2020-10-06T16:50:28.683Z</time>
      </trkpt>
      <trkpt lat="54.61324" lon="24.585">
        <ele>166.354383</ele>
        <time>2020-10-06T16:50:40.027Z</time>
      </trkpt>
      <trkpt lat="54.61191" lon="24.58322">
        <ele>170.113591</ele>
        <time>2020-10-06T16:51:36.231Z</time>
      </trkpt>
      <trkpt lat="54.61126" lon="24.58253">
        <ele>171.86362</ele>
        <time>2020-10-06T16:52:01.664Z</time>
      </trkpt>
      <trkpt lat="54.61067" lon="24.58211">
        <ele>172.875425</ele>
        <time>2020-10-06T16:52:20.733Z</time>
      </trkpt>
      <trkpt lat="54.61005" lon="24.58144">
        <ele>174.05547</ele>
        <time>2020-10-06T16:52:40.887Z</time>
      </trkpt>
      <trkpt lat="54.60875" lon="24.57985">
        <ele>174.594634</ele>
        <time>2020-10-06T16:53:18.133Z</time>
      </trkpt>
      <trkpt lat="54.60801" lon="24.57915">
        <ele>174.045638</ele>
        <time>2020-10-06T16:53:36.128Z</time>
      </trkpt>
      <trkpt lat="54.60711" lon="24.57846">
        <ele>172.767878</ele>
        <time>2020-10-06T16:53:54.309Z</time>
      </trkpt>
      <trkpt lat="54.6068" lon="24.5782">
        <ele>172.303374</ele>
        <time>2020-10-06T16:54:00.359Z</time>
      </trkpt>
      <trkpt lat="54.60647" lon="24.57777">
        <ele>170.769417</ele>
        <time>2020-10-06T16:54:07.365Z</time>
      </trkpt>
      <trkpt lat="54.60628" lon="24.57735">
        <ele>169.632361</ele>
        <time>2020-10-06T16:54:12.442Z</time>
      </trkpt>
      <trkpt lat="54.60528" lon="24.57462">
        <ele>161.398929</ele>
        <time>2020-10-06T16:54:41.266Z</time>
      </trkpt>
      <trkpt lat="54.60488" lon="24.57349">
        <ele>157.28808</ele>
        <time>2020-10-06T16:54:52.510Z</time>
      </trkpt>
      <trkpt lat="54.60462" lon="24.5728">
        <ele>154.943163</ele>
        <time>2020-10-06T16:54:59.571Z</time>
      </trkpt>
      <trkpt lat="54.60445" lon="24.5724">
        <ele>153.698675</ele>
        <time>2020-10-06T16:55:03.754Z</time>
      </trkpt>
      <trkpt lat="54.60434" lon="24.57215">
        <ele>152.872058</ele>
        <time>2020-10-06T16:55:06.558Z</time>
      </trkpt>
      <trkpt lat="54.60424" lon="24.57195">
        <ele>152.218851</ele>
        <time>2020-10-06T16:55:08.786Z</time>
      </trkpt>
      <trkpt lat="54.60385" lon="24.57138">
        <ele>149.977241</ele>
        <time>2020-10-06T16:55:16.841Z</time>
      </trkpt>
      <trkpt lat="54.60374" lon="24.57127">
        <ele>149.411116</ele>
        <time>2020-10-06T16:55:18.857Z</time>
      </trkpt>
      <trkpt lat="54.60299" lon="24.57072">
        <ele>147.773233</ele>
        <time>2020-10-06T16:55:33.037Z</time>
      </trkpt>
      <trkpt lat="54.60098" lon="24.56902">
        <ele>147.028728</ele>
        <time>2020-10-06T16:56:24.518Z</time>
      </trkpt>
      <trkpt lat="54.60026" lon="24.56822">
        <ele>147.118534</ele>
        <time>2020-10-06T16:56:43.761Z</time>
      </trkpt>
      <trkpt lat="54.59967" lon="24.5674">
        <ele>147.19762</ele>
        <time>2020-10-06T16:57:00.189Z</time>
      </trkpt>
      <trkpt lat="54.59945" lon="24.56697">
        <ele>147.232656</ele>
        <time>2020-10-06T16:57:07.665Z</time>
      </trkpt>
      <trkpt lat="54.5991" lon="24.56629">
        <ele>147.287264</ele>
        <time>2020-10-06T16:57:19.652Z</time>
      </trkpt>
      <trkpt lat="54.59892" lon="24.56596">
        <ele>147.396106</ele>
        <time>2020-10-06T16:57:26.063Z</time>
      </trkpt>
      <trkpt lat="54.59756" lon="24.56397">
        <ele>148.970803</ele>
        <time>2020-10-06T16:58:12.930Z</time>
      </trkpt>
      <trkpt lat="54.59749" lon="24.56386">
        <ele>149.012583</ele>
        <time>2020-10-06T16:58:15.427Z</time>
      </trkpt>
      <trkpt lat="54.59737" lon="24.56367">
        <ele>149.089133</ele>
        <time>2020-10-06T16:58:19.889Z</time>
      </trkpt>
      <trkpt lat="54.59684" lon="24.56276">
        <ele>149.435823</ele>
        <time>2020-10-06T16:58:39.001Z</time>
      </trkpt>
      <trkpt lat="54.59664" lon="24.56223">
        <ele>149.606804</ele>
        <time>2020-10-06T16:58:47.554Z</time>
      </trkpt>
      <trkpt lat="54.59636" lon="24.56141">
        <ele>149.461728</ele>
        <time>2020-10-06T16:58:59.154Z</time>
      </trkpt>
      <trkpt lat="54.59607" lon="24.56071">
        <ele>148.731082</ele>
        <time>2020-10-06T16:59:08.711Z</time>
      </trkpt>
      <trkpt lat="54.59512" lon="24.55887">
        <ele>147.081011</ele>
        <time>2020-10-06T16:59:33.868Z</time>
      </trkpt>
      <trkpt lat="54.59475" lon="24.55801">
        <ele>147.024716</ele>
        <time>2020-10-06T16:59:45.125Z</time>
      </trkpt>
      <trkpt lat="54.59403" lon="24.55626">
        <ele>149.048309</ele>
        <time>2020-10-06T17:00:20.456Z</time>
      </trkpt>
      <trkpt lat="54.59379" lon="24.5557">
        <ele>151.168122</ele>
        <time>2020-10-06T17:00:37.789Z</time>
      </trkpt>
      <trkpt lat="54.59362" lon="24.5553">
        <ele>152.684466</ele>
        <time>2020-10-06T17:00:51.423Z</time>
      </trkpt>
      <trkpt lat="54.59312" lon="24.55415">
        <ele>157.164377</ele>
        <time>2020-10-06T17:01:34.014Z</time>
      </trkpt>
      <trkpt lat="54.59288" lon="24.55339">
        <ele>160.340131</ele>
        <time>2020-10-06T17:02:01.104Z</time>
      </trkpt>
      <trkpt lat="54.59274" lon="24.55236">
        <ele>164.184051</ele>
        <time>2020-10-06T17:02:31.895Z</time>
      </trkpt>
      <trkpt lat="54.59271" lon="24.55166">
        <ele>166.748208</ele>
        <time>2020-10-06T17:02:49.735Z</time>
      </trkpt>
      <trkpt lat="54.59275" lon="24.54981">
        <ele>169.883693</ele>
        <time>2020-10-06T17:03:27.413Z</time>
      </trkpt>
      <trkpt lat="54.59264" lon="24.54872">
        <ele>171.393739</ele>
        <time>2020-10-06T17:03:45.126Z</time>
      </trkpt>
      <trkpt lat="54.59252" lon="24.54771">
        <ele>171.985715</ele>
        <time>2020-10-06T17:03:59.885Z</time>
      </trkpt>
      <trkpt lat="54.5925" lon="24.54747">
        <ele>171.998991</ele>
        <time>2020-10-06T17:04:03.380Z</time>
      </trkpt>
      <trkpt lat="54.59246" lon="24.54477">
        <ele>172.022011</ele>
        <time>2020-10-06T17:04:37.209Z</time>
      </trkpt>
      <trkpt lat="54.59197" lon="24.54092">
        <ele>171.845095</ele>
        <time>2020-10-06T17:05:24.972Z</time>
      </trkpt>
      <trkpt lat="54.59194" lon="24.5405">
        <ele>171.977982</ele>
        <time>2020-10-06T17:05:30.997Z</time>
      </trkpt>
      <trkpt lat="54.59191" lon="24.54005">
        <ele>172.121324</ele>
        <time>2020-10-06T17:05:38.285Z</time>
      </trkpt>
      <trkpt lat="54.59189" lon="24.53955">
        <ele>172.278431</ele>
        <time>2020-10-06T17:05:46.176Z</time>
      </trkpt>
      <trkpt lat="54.59185" lon="24.53832">
        <ele>172.70949</ele>
        <time>2020-10-06T17:06:06.446Z</time>
      </trkpt>
      <trkpt lat="54.59181" lon="24.53745">
        <ele>173.029598</ele>
        <time>2020-10-06T17:06:21.115Z</time>
      </trkpt>
      <trkpt lat="54.59166" lon="24.53587">
        <ele>173.294039</ele>
        <time>2020-10-06T17:06:41.646Z</time>
      </trkpt>
      <trkpt lat="54.59157" lon="24.53548">
        <ele>172.653073</ele>
        <time>2020-10-06T17:06:46.068Z</time>
      </trkpt>
      <trkpt lat="54.5915" lon="24.5353">
        <ele>172.335718</ele>
        <time>2020-10-06T17:06:48.272Z</time>
      </trkpt>
      <trkpt lat="54.59145" lon="24.53517">
        <ele>172.095443</ele>
        <time>2020-10-06T17:06:49.941Z</time>
      </trkpt>
      <trkpt lat="54.59134" lon="24.53494">
        <ele>171.641796</ele>
        <time>2020-10-06T17:06:52.774Z</time>
      </trkpt>
      <trkpt lat="54.59096" lon="24.53434">
        <ele>170.296805</ele>
        <time>2020-10-06T17:07:01.319Z</time>
      </trkpt>
      <trkpt lat="54.59035" lon="24.53349">
        <ele>167.947018</ele>
        <time>2020-10-06T17:07:13.726Z</time>
      </trkpt>
      <trkpt lat="54.58997" lon="24.53296">
        <ele>166.042943</ele>
        <time>2020-10-06T17:07:21.387Z</time>
      </trkpt>
      <trkpt lat="54.58783" lon="24.53011">
        <ele>155.763724</ele>
        <time>2020-10-06T17:08:04.433Z</time>
      </trkpt>
      <trkpt lat="54.58692" lon="24.52914">
        <ele>152.189462</ele>
        <time>2020-10-06T17:08:21.159Z</time>
      </trkpt>
      <trkpt lat="54.58653" lon="24.52882">
        <ele>150.751411</ele>
        <time>2020-10-06T17:08:28.158Z</time>
      </trkpt>
      <trkpt lat="54.58635" lon="24.52871">
        <ele>150.113145</ele>
        <time>2020-10-06T17:08:31.394Z</time>
      </trkpt>
      <trkpt lat="54.58616" lon="24.52863">
        <ele>149.46533</ele>
        <time>2020-10-06T17:08:34.712Z</time>
      </trkpt>
      <trkpt lat="54.58591" lon="24.52854">
        <ele>149.211265</ele>
        <time>2020-10-06T17:08:39.152Z</time>
      </trkpt>
      <trkpt lat="54.58578" lon="24.5285">
        <ele>149.215989</ele>
        <time>2020-10-06T17:08:41.547Z</time>
      </trkpt>
      <trkpt lat="54.5852" lon="24.52835">
        <ele>149.237017</ele>
        <time>2020-10-06T17:08:53.103Z</time>
      </trkpt>
      <trkpt lat="54.58396" lon="24.52803">
        <ele>149.967533</ele>
        <time>2020-10-06T17:09:28.488Z</time>
      </trkpt>
      <trkpt lat="54.58307" lon="24.52782">
        <ele>151.774898</ele>
        <time>2020-10-06T17:09:58.262Z</time>
      </trkpt>
      <trkpt lat="54.58253" lon="24.52766">
        <ele>152.860849</ele>
        <time>2020-10-06T17:10:14.136Z</time>
      </trkpt>
      <trkpt lat="54.58228" lon="24.52755">
        <ele>152.663239</ele>
        <time>2020-10-06T17:10:21.455Z</time>
      </trkpt>
      <trkpt lat="54.58177" lon="24.52729">
        <ele>152.200033</ele>
        <time>2020-10-06T17:10:34.276Z</time>
      </trkpt>
      <trkpt lat="54.58155" lon="24.52723">
        <ele>152.001909</ele>
        <time>2020-10-06T17:10:39.105Z</time>
      </trkpt>
      <trkpt lat="54.58132" lon="24.52722">
        <ele>151.801188</ele>
        <time>2020-10-06T17:10:43.106Z</time>
      </trkpt>
      <trkpt lat="54.58117" lon="24.52722">
        <ele>151.6729</ele>
        <time>2020-10-06T17:10:45.769Z</time>
      </trkpt>
      <trkpt lat="54.58103" lon="24.52722">
        <ele>151.548981</ele>
        <time>2020-10-06T17:10:48.117Z</time>
      </trkpt>
      <trkpt lat="54.5808" lon="24.52721">
        <ele>151.353495</ele>
        <time>2020-10-06T17:10:52.014Z</time>
      </trkpt>
      <trkpt lat="54.58057" lon="24.5272">
        <ele>150.307594</ele>
        <time>2020-10-06T17:10:55.671Z</time>
      </trkpt>
      <trkpt lat="54.58044" lon="24.5272">
        <ele>149.624598</ele>
        <time>2020-10-06T17:10:57.740Z</time>
      </trkpt>
      <trkpt lat="54.58008" lon="24.5272">
        <ele>147.743642</ele>
        <time>2020-10-06T17:11:03.177Z</time>
      </trkpt>
      <trkpt lat="54.58001" lon="24.5272">
        <ele>147.412596</ele>
        <time>2020-10-06T17:11:04.081Z</time>
      </trkpt>
      <trkpt lat="54.5798" lon="24.5272">
        <ele>146.262005</ele>
        <time>2020-10-06T17:11:07.391Z</time>
      </trkpt>
      <trkpt lat="54.5794" lon="24.52726">
        <ele>144.173487</ele>
        <time>2020-10-06T17:11:13.370Z</time>
      </trkpt>
      <trkpt lat="54.57918" lon="24.52733">
        <ele>142.980985</ele>
        <time>2020-10-06T17:11:16.624Z</time>
      </trkpt>
      <trkpt lat="54.57886" lon="24.52744">
        <ele>141.101737</ele>
        <time>2020-10-06T17:11:21.267Z</time>
      </trkpt>
      <trkpt lat="54.57792" lon="24.52792">
        <ele>134.374216</ele>
        <time>2020-10-06T17:11:35.131Z</time>
      </trkpt>
      <trkpt lat="54.57762" lon="24.52802">
        <ele>132.208523</ele>
        <time>2020-10-06T17:11:39.608Z</time>
      </trkpt>
      <trkpt lat="54.57691" lon="24.52822">
        <ele>128.05645</ele>
        <time>2020-10-06T17:11:50.099Z</time>
      </trkpt>
      <trkpt lat="54.57678" lon="24.52827">
        <ele>127.448997</ele>
        <time>2020-10-06T17:11:52.061Z</time>
      </trkpt>
      <trkpt lat="54.57638" lon="24.52844">
        <ele>125.610104</ele>
        <time>2020-10-06T17:11:58.269Z</time>
      </trkpt>
      <trkpt lat="54.57566" lon="24.52894">
        <ele>122.163211</ele>
        <time>2020-10-06T17:12:10.547Z</time>
      </trkpt>
      <trkpt lat="54.57539" lon="24.52916">
        <ele>121.3636</ele>
        <time>2020-10-06T17:12:15.547Z</time>
      </trkpt>
      <trkpt lat="54.57524" lon="24.52923">
        <ele>121.262578</ele>
        <time>2020-10-06T17:12:18.458Z</time>
      </trkpt>
      <trkpt lat="54.57465" lon="24.52932">
        <ele>120.879561</ele>
        <time>2020-10-06T17:12:29.946Z</time>
      </trkpt>
      <trkpt lat="54.5738" lon="24.52939">
        <ele>120.328131</ele>
        <time>2020-10-06T17:12:48.235Z</time>
      </trkpt>
      <trkpt lat="54.57372" lon="24.5294">
        <ele>120.36311</ele>
        <time>2020-10-06T17:12:50.342Z</time>
      </trkpt>
      <trkpt lat="54.57333" lon="24.52944">
        <ele>121.834572</ele>
        <time>2020-10-06T17:13:01.888Z</time>
      </trkpt>
      <trkpt lat="54.57233" lon="24.52949">
        <ele>125.561551</ele>
        <time>2020-10-06T17:13:37.964Z</time>
      </trkpt>
      <trkpt lat="54.57186" lon="24.5295">
        <ele>127.679465</ele>
        <time>2020-10-06T17:14:02.114Z</time>
      </trkpt>
      <trkpt lat="54.57129" lon="24.52957">
        <ele>132.18466</ele>
        <time>2020-10-06T17:14:31.547Z</time>
      </trkpt>
      <trkpt lat="54.57098" lon="24.52963">
        <ele>134.603816</ele>
        <time>2020-10-06T17:14:48.645Z</time>
      </trkpt>
      <trkpt lat="54.57078" lon="24.52968">
        <ele>136.212032</ele>
        <time>2020-10-06T17:15:01.034Z</time>
      </trkpt>
      <trkpt lat="54.56982" lon="24.53014">
        <ele>143.840591</ele>
        <time>2020-10-06T17:15:56.471Z</time>
      </trkpt>
      <trkpt lat="54.56953" lon="24.53022">
        <ele>145.929763</ele>
        <time>2020-10-06T17:16:12.275Z</time>
      </trkpt>
      <trkpt lat="54.56892" lon="24.53004">
        <ele>150.344456</ele>
        <time>2020-10-06T17:16:45.561Z</time>
      </trkpt>
      <trkpt lat="54.5681" lon="24.52956">
        <ele>154.744183</ele>
        <time>2020-10-06T17:17:23.143Z</time>
      </trkpt>
      <trkpt lat="54.56802" lon="24.52953">
        <ele>154.908069</ele>
        <time>2020-10-06T17:17:28.239Z</time>
      </trkpt>
      <trkpt lat="54.56798" lon="24.52952">
        <ele>154.974116</ele>
        <time>2020-10-06T17:17:29.601Z</time>
      </trkpt>
      <trkpt lat="54.56781" lon="24.52949">
        <ele>155.294296</ele>
        <time>2020-10-06T17:17:34.791Z</time>
      </trkpt>
      <trkpt lat="54.56771" lon="24.52949">
        <ele>155.478779</ele>
        <time>2020-10-06T17:17:38.407Z</time>
      </trkpt>
      <trkpt lat="54.56766" lon="24.52949">
        <ele>155.567335</ele>
        <time>2020-10-06T17:17:41.184Z</time>
      </trkpt>
      <trkpt lat="54.56615" lon="24.52994">
        <ele>155.331813</ele>
        <time>2020-10-06T17:18:12.811Z</time>
      </trkpt>
      <trkpt lat="54.56539" lon="24.53005">
        <ele>152.217712</ele>
        <time>2020-10-06T17:18:24.269Z</time>
      </trkpt>
      <trkpt lat="54.5647" lon="24.5303">
        <ele>149.195973</ele>
        <time>2020-10-06T17:18:34.646Z</time>
      </trkpt>
      <trkpt lat="54.56415" lon="24.53009">
        <ele>146.447521</ele>
        <time>2020-10-06T17:18:42.846Z</time>
      </trkpt>
      <trkpt lat="54.56305" lon="24.52917">
        <ele>140.860306</ele>
        <time>2020-10-06T17:19:01.806Z</time>
      </trkpt>
      <trkpt lat="54.56272" lon="24.52901">
        <ele>140.047776</ele>
        <time>2020-10-06T17:19:07.479Z</time>
      </trkpt>
      <trkpt lat="54.56232" lon="24.52905">
        <ele>139.093263</ele>
        <time>2020-10-06T17:19:14.439Z</time>
      </trkpt>
      <trkpt lat="54.56132" lon="24.52937">
        <ele>136.703842</ele>
        <time>2020-10-06T17:19:33.023Z</time>
      </trkpt>
      <trkpt lat="54.56093" lon="24.52942">
        <ele>135.820876</ele>
        <time>2020-10-06T17:19:40.139Z</time>
      </trkpt>
      <trkpt lat="54.56032" lon="24.52925">
        <ele>134.402617</ele>
        <time>2020-10-06T17:19:51.281Z</time>
      </trkpt>
      <trkpt lat="54.55894" lon="24.52864">
        <ele>129.820744</ele>
        <time>2020-10-06T17:20:14.452Z</time>
      </trkpt>
      <trkpt lat="54.55873" lon="24.52864">
        <ele>128.979995</ele>
        <time>2020-10-06T17:20:17.692Z</time>
      </trkpt>
      <trkpt lat="54.55859" lon="24.52864">
        <ele>128.419499</ele>
        <time>2020-10-06T17:20:19.831Z</time>
      </trkpt>
      <trkpt lat="54.55774" lon="24.52894">
        <ele>125.018914</ele>
        <time>2020-10-06T17:20:33.075Z</time>
      </trkpt>
      <trkpt lat="54.55747" lon="24.52889">
        <ele>124.011907</ele>
        <time>2020-10-06T17:20:37.311Z</time>
      </trkpt>
      <trkpt lat="54.55714" lon="24.52866">
        <ele>122.701041</ele>
        <time>2020-10-06T17:20:42.850Z</time>
      </trkpt>
      <trkpt lat="54.55667" lon="24.52825">
        <ele>120.792456</ele>
        <time>2020-10-06T17:20:51.130Z</time>
      </trkpt>
      <trkpt lat="54.55656" lon="24.52815">
        <ele>120.333968</ele>
        <time>2020-10-06T17:20:53.257Z</time>
      </trkpt>
      <trkpt lat="54.55642" lon="24.52806">
        <ele>119.766776</ele>
        <time>2020-10-06T17:20:55.734Z</time>
      </trkpt>
      <trkpt lat="54.55581" lon="24.52793">
        <ele>118.863235</ele>
        <time>2020-10-06T17:21:06.444Z</time>
      </trkpt>
      <trkpt lat="54.55524" lon="24.52811">
        <ele>118.505573</ele>
        <time>2020-10-06T17:21:17.688Z</time>
      </trkpt>
      <trkpt lat="54.55482" lon="24.52844">
        <ele>118.222577</ele>
        <time>2020-10-06T17:21:27.915Z</time>
      </trkpt>
      <trkpt lat="54.55373" lon="24.5296">
        <ele>120.252782</ele>
        <time>2020-10-06T17:22:04.920Z</time>
      </trkpt>
      <trkpt lat="54.55303" lon="24.53019">
        <ele>122.056961</ele>
        <time>2020-10-06T17:22:32.172Z</time>
      </trkpt>
      <trkpt lat="54.55266" lon="24.53044">
        <ele>123.184696</ele>
        <time>2020-10-06T17:22:46.462Z</time>
      </trkpt>
      <trkpt lat="54.55241" lon="24.53061">
        <ele>123.981279</ele>
        <time>2020-10-06T17:22:56.392Z</time>
      </trkpt>
      <trkpt lat="54.55134" lon="24.53129">
        <ele>127.317062</ele>
        <time>2020-10-06T17:23:35.602Z</time>
      </trkpt>
      <trkpt lat="54.55095" lon="24.53149">
        <ele>127.8853</ele>
        <time>2020-10-06T17:23:47.484Z</time>
      </trkpt>
      <trkpt lat="54.55027" lon="24.53171">
        <ele>128.708872</ele>
        <time>2020-10-06T17:24:05.143Z</time>
      </trkpt>
      <trkpt lat="54.5499" lon="24.53181">
        <ele>129.155319</ele>
        <time>2020-10-06T17:24:14.611Z</time>
      </trkpt>
      <trkpt lat="54.5497" lon="24.53185">
        <ele>129.393092</ele>
        <time>2020-10-06T17:24:19.649Z</time>
      </trkpt>
      <trkpt lat="54.54912" lon="24.53185">
        <ele>130.089424</ele>
        <time>2020-10-06T17:24:34.622Z</time>
      </trkpt>
      <trkpt lat="54.54878" lon="24.53178">
        <ele>130.504001</ele>
        <time>2020-10-06T17:24:43.727Z</time>
      </trkpt>
      <trkpt lat="54.54822" lon="24.53162">
        <ele>131.186932</ele>
        <time>2020-10-06T17:24:59.181Z</time>
      </trkpt>
      <trkpt lat="54.54759" lon="24.53141">
        <ele>131.953445</ele>
        <time>2020-10-06T17:25:17.430Z</time>
      </trkpt>
      <trkpt lat="54.54655" lon="24.53129">
        <ele>133.21543</ele>
        <time>2020-10-06T17:25:46.890Z</time>
      </trkpt>
      <trkpt lat="54.54584" lon="24.53142">
        <ele>133.978058</ele>
        <time>2020-10-06T17:26:04.743Z</time>
      </trkpt>
      <trkpt lat="54.545" lon="24.53176">
        <ele>134.28131</ele>
        <time>2020-10-06T17:26:25.069Z</time>
      </trkpt>
      <trkpt lat="54.54316" lon="24.53267">
        <ele>134.920288</ele>
        <time>2020-10-06T17:27:09.697Z</time>
      </trkpt>
      <trkpt lat="54.54236" lon="24.5331">
        <ele>135.176418</ele>
        <time>2020-10-06T17:27:29.833Z</time>
      </trkpt>
      <trkpt lat="54.54164" lon="24.53364">
        <ele>135.371532</ele>
        <time>2020-10-06T17:27:48.731Z</time>
      </trkpt>
      <trkpt lat="54.54094" lon="24.53405">
        <ele>135.553205</ele>
        <time>2020-10-06T17:28:05.672Z</time>
      </trkpt>
      <trkpt lat="54.53798" lon="24.5349">
        <ele>134.833579</ele>
        <time>2020-10-06T17:29:09.263Z</time>
      </trkpt>
      <trkpt lat="54.53667" lon="24.53529">
        <ele>134.456632</ele>
        <time>2020-10-06T17:29:37.888Z</time>
      </trkpt>
      <trkpt lat="54.5361" lon="24.53528">
        <ele>134.285962</ele>
        <time>2020-10-06T17:29:50.078Z</time>
      </trkpt>
      <trkpt lat="54.53256" lon="24.53409">
        <ele>132.621481</ele>
        <time>2020-10-06T17:31:04.589Z</time>
      </trkpt>
      <trkpt lat="54.5324" lon="24.5341">
        <ele>132.535878</ele>
        <time>2020-10-06T17:31:07.742Z</time>
      </trkpt>
      <trkpt lat="54.53221" lon="24.53417">
        <ele>132.430206</ele>
        <time>2020-10-06T17:31:11.823Z</time>
      </trkpt>
      <trkpt lat="54.53053" lon="24.53586">
        <ele>131.189937</ele>
        <time>2020-10-06T17:31:50.529Z</time>
      </trkpt>
      <trkpt lat="54.53036" lon="24.53602">
        <ele>131.103299</ele>
        <time>2020-10-06T17:31:54.711Z</time>
      </trkpt>
      <trkpt lat="54.53026" lon="24.53607">
        <ele>131.099118</ele>
        <time>2020-10-06T17:31:56.768Z</time>
      </trkpt>
      <trkpt lat="54.52948" lon="24.53627">
        <ele>131.066508</ele>
        <time>2020-10-06T17:32:13.740Z</time>
      </trkpt>
      <trkpt lat="54.52909" lon="24.53633">
        <ele>131.050496</ele>
        <time>2020-10-06T17:32:22.516Z</time>
      </trkpt>
      <trkpt lat="54.52895" lon="24.53634">
        <ele>131.044801</ele>
        <time>2020-10-06T17:32:25.858Z</time>
      </trkpt>
      <trkpt lat="54.52857" lon="24.53626">
        <ele>131.061181</ele>
        <time>2020-10-06T17:32:34.981Z</time>
      </trkpt>
      <trkpt lat="54.52826" lon="24.53604">
        <ele>131.197629</ele>
        <time>2020-10-06T17:32:43.271Z</time>
      </trkpt>
      <trkpt lat="54.52753" lon="24.53536">
        <ele>131.530964</ele>
        <time>2020-10-06T17:33:03.467Z</time>
      </trkpt>
      <trkpt lat="54.52668" lon="24.53456">
        <ele>131.876769</ele>
        <time>2020-10-06T17:33:26.087Z</time>
      </trkpt>
      <trkpt lat="54.52587" lon="24.53367">
        <ele>132.164636</ele>
        <time>2020-10-06T17:33:47.998Z</time>
      </trkpt>
      <trkpt lat="54.524" lon="24.53094">
        <ele>133.719523</ele>
        <time>2020-10-06T17:34:48.632Z</time>
      </trkpt>
      <trkpt lat="54.52363" lon="24.53053">
        <ele>134.295827</ele>
        <time>2020-10-06T17:35:00.523Z</time>
      </trkpt>
      <trkpt lat="54.52334" lon="24.53031">
        <ele>134.695666</ele>
        <time>2020-10-06T17:35:08.922Z</time>
      </trkpt>
      <trkpt lat="54.52307" lon="24.53022">
        <ele>135.061346</ele>
        <time>2020-10-06T17:35:16.748Z</time>
      </trkpt>
      <trkpt lat="54.5227" lon="24.53023">
        <ele>135.534601</ele>
        <time>2020-10-06T17:35:27.099Z</time>
      </trkpt>
      <trkpt lat="54.52039" lon="24.53067">
        <ele>139.673954</ele>
        <time>2020-10-06T17:36:37.630Z</time>
      </trkpt>
      <trkpt lat="54.52021" lon="24.53067">
        <ele>139.849511</ele>
        <time>2020-10-06T17:36:43.416Z</time>
      </trkpt>
      <trkpt lat="54.52008" lon="24.53066">
        <ele>139.962654</ele>
        <time>2020-10-06T17:36:46.914Z</time>
      </trkpt>
      <trkpt lat="54.51591" lon="24.52934">
        <ele>143.091451</ele>
        <time>2020-10-06T17:38:33.130Z</time>
      </trkpt>
      <trkpt lat="54.51535" lon="24.52929">
        <ele>143.155663</ele>
        <time>2020-10-06T17:38:44.713Z</time>
      </trkpt>
      <trkpt lat="54.5149" lon="24.52948">
        <ele>142.643992</ele>
        <time>2020-10-06T17:38:53.814Z</time>
      </trkpt>
      <trkpt lat="54.5142" lon="24.53008">
        <ele>141.77085</ele>
        <time>2020-10-06T17:39:08.675Z</time>
      </trkpt>
      <trkpt lat="54.51267" lon="24.53171">
        <ele>139.255034</ele>
        <time>2020-10-06T17:39:41.495Z</time>
      </trkpt>
      <trkpt lat="54.51233" lon="24.53201">
        <ele>138.674998</ele>
        <time>2020-10-06T17:39:48.563Z</time>
      </trkpt>
      <trkpt lat="54.51181" lon="24.53227">
        <ele>138.018231</ele>
        <time>2020-10-06T17:39:58.621Z</time>
      </trkpt>
      <trkpt lat="54.51073" lon="24.53245">
        <ele>136.787595</ele>
        <time>2020-10-06T17:40:19.020Z</time>
      </trkpt>
      <trkpt lat="54.50992" lon="24.53302">
        <ele>136.246259</ele>
        <time>2020-10-06T17:40:36.765Z</time>
      </trkpt>
      <trkpt lat="54.50973" lon="24.53309">
        <ele>136.17047</ele>
        <time>2020-10-06T17:40:40.888Z</time>
      </trkpt>
      <trkpt lat="54.50965" lon="24.53308">
        <ele>136.142494</ele>
        <time>2020-10-06T17:40:42.438Z</time>
      </trkpt>
      <trkpt lat="54.50963" lon="24.53321">
        <ele>136.114045</ele>
        <time>2020-10-06T17:40:44.152Z</time>
      </trkpt>
      <trkpt lat="54.5095" lon="24.53365">
        <ele>136.003899</ele>
        <time>2020-10-06T17:40:50.277Z</time>
      </trkpt>
      <trkpt lat="54.5091" lon="24.53446">
        <ele>135.799715</ele>
        <time>2020-10-06T17:41:03.786Z</time>
      </trkpt>
      <trkpt lat="54.50888" lon="24.53477">
        <ele>135.838002</ele>
        <time>2020-10-06T17:41:10.209Z</time>
      </trkpt>
      <trkpt lat="54.5076" lon="24.53555">
        <ele>136.020972</ele>
        <time>2020-10-06T17:41:41.060Z</time>
      </trkpt>
      <trkpt lat="54.50631" lon="24.53691">
        <ele>136.596935</ele>
        <time>2020-10-06T17:42:17.925Z</time>
      </trkpt>
      <trkpt lat="54.5062" lon="24.53699">
        <ele>136.644832</ele>
        <time>2020-10-06T17:42:20.928Z</time>
      </trkpt>
      <trkpt lat="54.50602" lon="24.53704">
        <ele>136.717311</ele>
        <time>2020-10-06T17:42:25.007Z</time>
      </trkpt>
      <trkpt lat="54.5055" lon="24.53718">
        <ele>136.568889</ele>
        <time>2020-10-06T17:42:36.999Z</time>
      </trkpt>
      <trkpt lat="54.50515" lon="24.53728">
        <ele>136.421216</ele>
        <time>2020-10-06T17:42:44.641Z</time>
      </trkpt>
      <trkpt lat="54.50502" lon="24.53734">
        <ele>136.362014</ele>
        <time>2020-10-06T17:42:47.486Z</time>
      </trkpt>
      <trkpt lat="54.50447" lon="24.53781">
        <ele>136.106151</ele>
        <time>2020-10-06T17:42:59.978Z</time>
      </trkpt>
      <trkpt lat="54.50389" lon="24.53855">
        <ele>135.598406</ele>
        <time>2020-10-06T17:43:13.612Z</time>
      </trkpt>
      <trkpt lat="54.50361" lon="24.53912">
        <ele>135.223073</ele>
        <time>2020-10-06T17:43:21.811Z</time>
      </trkpt>
      <trkpt lat="54.50345" lon="24.5396">
        <ele>134.944872</ele>
        <time>2020-10-06T17:43:28.143Z</time>
      </trkpt>
      <trkpt lat="54.50328" lon="24.54032">
        <ele>134.556518</ele>
        <time>2020-10-06T17:43:37.199Z</time>
      </trkpt>
      <trkpt lat="54.50302" lon="24.54129">
        <ele>134.491557</ele>
        <time>2020-10-06T17:43:50.345Z</time>
      </trkpt>
      <trkpt lat="54.50259" lon="24.54279">
        <ele>134.574808</ele>
        <time>2020-10-06T17:44:12.673Z</time>
      </trkpt>
      <trkpt lat="54.5023" lon="24.54354">
        <ele>134.706993</ele>
        <time>2020-10-06T17:44:25.467Z</time>
      </trkpt>
      <trkpt lat="54.50195" lon="24.5441">
        <ele>134.963408</ele>
        <time>2020-10-06T17:44:37.252Z</time>
      </trkpt>
      <trkpt lat="54.49918" lon="24.54689">
        <ele>136.650496</ele>
        <time>2020-10-06T17:45:56.236Z</time>
      </trkpt>
      <trkpt lat="54.49857" lon="24.54762">
        <ele>136.823768</ele>
        <time>2020-10-06T17:46:13.087Z</time>
      </trkpt>
      <trkpt lat="54.49774" lon="24.54893">
        <ele>137.179203</ele>
        <time>2020-10-06T17:46:38.341Z</time>
      </trkpt>
      <trkpt lat="54.49674" lon="24.55088">
        <ele>137.969454</ele>
        <time>2020-10-06T17:47:15.478Z</time>
      </trkpt>
      <trkpt lat="54.49522" lon="24.55422">
        <ele>140.132837</ele>
        <time>2020-10-06T17:48:22.571Z</time>
      </trkpt>
      <trkpt lat="54.49473" lon="24.5552">
        <ele>140.368032</ele>
        <time>2020-10-06T17:48:38.953Z</time>
      </trkpt>
      <trkpt lat="54.4943" lon="24.55584">
        <ele>140.333022</ele>
        <time>2020-10-06T17:48:50.420Z</time>
      </trkpt>
      <trkpt lat="54.49397" lon="24.5565">
        <ele>140.060752</ele>
        <time>2020-10-06T17:49:00.569Z</time>
      </trkpt>
      <trkpt lat="54.49385" lon="24.55683">
        <ele>139.938941</ele>
        <time>2020-10-06T17:49:04.919Z</time>
      </trkpt>
      <trkpt lat="54.49378" lon="24.55712">
        <ele>139.839986</ele>
        <time>2020-10-06T17:49:08.720Z</time>
      </trkpt>
      <trkpt lat="54.4937" lon="24.55754">
        <ele>139.703952</ele>
        <time>2020-10-06T17:49:13.766Z</time>
      </trkpt>
      <trkpt lat="54.49368" lon="24.55773">
        <ele>139.640606</ele>
        <time>2020-10-06T17:49:16.207Z</time>
      </trkpt>
      <trkpt lat="54.49363" lon="24.5582">
        <ele>139.509928</ele>
        <time>2020-10-06T17:49:21.993Z</time>
      </trkpt>
      <trkpt lat="54.49344" lon="24.55978">
        <ele>140.391583</ele>
        <time>2020-10-06T17:49:43.139Z</time>
      </trkpt>
      <trkpt lat="54.49327" lon="24.56068">
        <ele>140.912625</ele>
        <time>2020-10-06T17:49:59.037Z</time>
      </trkpt>
      <trkpt lat="54.49284" lon="24.5622">
        <ele>143.223768</ele>
        <time>2020-10-06T17:50:31.032Z</time>
      </trkpt>
      <trkpt lat="54.49273" lon="24.5625">
        <ele>143.84296</ele>
        <time>2020-10-06T17:50:37.756Z</time>
      </trkpt>
      <trkpt lat="54.49262" lon="24.56274">
        <ele>144.385124</ele>
        <time>2020-10-06T17:50:44.736Z</time>
      </trkpt>
      <trkpt lat="54.4921" lon="24.56359">
        <ele>146.507943</ele>
        <time>2020-10-06T17:51:10.632Z</time>
      </trkpt>
      <trkpt lat="54.49083" lon="24.56539">
        <ele>151.238376</ele>
        <time>2020-10-06T17:52:07.613Z</time>
      </trkpt>
      <trkpt lat="54.49041" lon="24.56623">
        <ele>152.098207</ele>
        <time>2020-10-06T17:52:25.984Z</time>
      </trkpt>
      <trkpt lat="54.49017" lon="24.56682">
        <ele>152.437796</ele>
        <time>2020-10-06T17:52:37.215Z</time>
      </trkpt>
      <trkpt lat="54.48939" lon="24.56918">
        <ele>152.575815</ele>
        <time>2020-10-06T17:53:12.441Z</time>
      </trkpt>
      <trkpt lat="54.48767" lon="24.57348">
        <ele>148.632676</ele>
        <time>2020-10-06T17:54:08.549Z</time>
      </trkpt>
      <trkpt lat="54.48712" lon="24.57514">
        <ele>146.390001</ele>
        <time>2020-10-06T17:54:28.018Z</time>
      </trkpt>
      <trkpt lat="54.48674" lon="24.57643">
        <ele>144.839915</ele>
        <time>2020-10-06T17:54:42.583Z</time>
      </trkpt>
      <trkpt lat="54.48648" lon="24.57732">
        <ele>143.985467</ele>
        <time>2020-10-06T17:54:52.870Z</time>
      </trkpt>
      <trkpt lat="54.48634" lon="24.57796">
        <ele>143.392652</ele>
        <time>2020-10-06T17:55:00.335Z</time>
      </trkpt>
      <trkpt lat="54.48626" lon="24.57948">
        <ele>142.567565</ele>
        <time>2020-10-06T17:55:17.627Z</time>
      </trkpt>
      <trkpt lat="54.48624" lon="24.57964">
        <ele>142.569745</ele>
        <time>2020-10-06T17:55:19.460Z</time>
      </trkpt>
      <trkpt lat="54.48621" lon="24.57975">
        <ele>142.571491</ele>
        <time>2020-10-06T17:55:21.244Z</time>
      </trkpt>
      <trkpt lat="54.4861" lon="24.58007">
        <ele>142.576598</ele>
        <time>2020-10-06T17:55:25.799Z</time>
      </trkpt>
      <trkpt lat="54.48537" lon="24.58154">
        <ele>142.626007</ele>
        <time>2020-10-06T17:55:52.376Z</time>
      </trkpt>
      <trkpt lat="54.485" lon="24.5823">
        <ele>143.198054</ele>
        <time>2020-10-06T17:56:07.488Z</time>
      </trkpt>
      <trkpt lat="54.48472" lon="24.58279">
        <ele>143.590845</ele>
        <time>2020-10-06T17:56:17.960Z</time>
      </trkpt>
      <trkpt lat="54.48404" lon="24.58391">
        <ele>144.596053</ele>
        <time>2020-10-06T17:56:43.405Z</time>
      </trkpt>
      <trkpt lat="54.4831" lon="24.58685">
        <ele>147.51391</ele>
        <time>2020-10-06T17:57:38.436Z</time>
      </trkpt>
      <trkpt lat="54.48309" lon="24.58695">
        <ele>147.626492</ele>
        <time>2020-10-06T17:57:40.304Z</time>
      </trkpt>
      <trkpt lat="54.48308" lon="24.58707">
        <ele>147.744332</ele>
        <time>2020-10-06T17:57:42.527Z</time>
      </trkpt>
      <trkpt lat="54.4831" lon="24.58734">
        <ele>148.026389</ele>
        <time>2020-10-06T17:57:46.885Z</time>
      </trkpt>
      <trkpt lat="54.48326" lon="24.58869">
        <ele>149.440587</ele>
        <time>2020-10-06T17:58:10.589Z</time>
      </trkpt>
      <trkpt lat="54.48318" lon="24.58872">
        <ele>149.588925</ele>
        <time>2020-10-06T17:58:13.352Z</time>
      </trkpt>
      <trkpt lat="54.48272" lon="24.58877">
        <ele>150.363364</ele>
        <time>2020-10-06T17:58:27.308Z</time>
      </trkpt>
      <trkpt lat="54.48235" lon="24.5888">
        <ele>150.892046</ele>
        <time>2020-10-06T17:58:37.970Z</time>
      </trkpt>
      <trkpt lat="54.4816" lon="24.58881">
        <ele>151.955602</ele>
        <time>2020-10-06T17:58:58.887Z</time>
      </trkpt>
      <trkpt lat="54.47989" lon="24.58888">
        <ele>153.700371</ele>
        <time>2020-10-06T17:59:43.674Z</time>
      </trkpt>
      <trkpt lat="54.4797" lon="24.58889">
        <ele>153.855573</ele>
        <time>2020-10-06T17:59:48.305Z</time>
      </trkpt>
      <trkpt lat="54.4792" lon="24.58883">
        <ele>154.25658</ele>
        <time>2020-10-06T18:00:00.782Z</time>
      </trkpt>
      <trkpt lat="54.47764" lon="24.5887">
        <ele>154.952368</ele>
        <time>2020-10-06T18:00:38.321Z</time>
      </trkpt>
      <trkpt lat="54.47697" lon="24.58856">
        <ele>155.34298</ele>
        <time>2020-10-06T18:00:54.198Z</time>
      </trkpt>
      <trkpt lat="54.47665" lon="24.58841">
        <ele>155.5494</ele>
        <time>2020-10-06T18:01:02.121Z</time>
      </trkpt>
      <trkpt lat="54.47631" lon="24.58813">
        <ele>155.781726</ele>
        <time>2020-10-06T18:01:11.192Z</time>
      </trkpt>
      <trkpt lat="54.47571" lon="24.58749">
        <ele>156.327836</ele>
        <time>2020-10-06T18:01:29.195Z</time>
      </trkpt>
      <trkpt lat="54.47481" lon="24.58627">
        <ele>158.151607</ele>
        <time>2020-10-06T18:02:02.603Z</time>
      </trkpt>
      <trkpt lat="54.4739" lon="24.58513">
        <ele>159.810001</ele>
        <time>2020-10-06T18:02:36.106Z</time>
      </trkpt>
      <trkpt lat="54.47327" lon="24.58461">
        <ele>160.763888</ele>
        <time>2020-10-06T18:02:55.967Z</time>
      </trkpt>
      <trkpt lat="54.4711" lon="24.58329">
        <ele>162.520998</ele>
        <time>2020-10-06T18:03:52.809Z</time>
      </trkpt>
      <trkpt lat="54.46806" lon="24.58066">
        <ele>163.043983</ele>
        <time>2020-10-06T18:05:11.973Z</time>
      </trkpt>
      <trkpt lat="54.46743" lon="24.58015">
        <ele>162.255058</ele>
        <time>2020-10-06T18:05:25.349Z</time>
      </trkpt>
      <trkpt lat="54.46638" lon="24.57945">
        <ele>160.442999</ele>
        <time>2020-10-06T18:05:45.398Z</time>
      </trkpt>
      <trkpt lat="54.4656" lon="24.5791">
        <ele>158.972366</ele>
        <time>2020-10-06T18:05:59.427Z</time>
      </trkpt>
      <trkpt lat="54.46151" lon="24.57826">
        <ele>152.314602</ele>
        <time>2020-10-06T18:07:12.921Z</time>
      </trkpt>
      <trkpt lat="54.46109" lon="24.57826">
        <ele>151.923005</ele>
        <time>2020-10-06T18:07:22.149Z</time>
      </trkpt>
      <trkpt lat="54.46038" lon="24.57852">
        <ele>152.609223</ele>
        <time>2020-10-06T18:07:40.554Z</time>
      </trkpt>
      <trkpt lat="54.45903" lon="24.57914">
        <ele>155.287329</ele>
        <time>2020-10-06T18:08:24.987Z</time>
      </trkpt>
      <trkpt lat="54.45864" lon="24.57916">
        <ele>156.23479</ele>
        <time>2020-10-06T18:08:38.087Z</time>
      </trkpt>
      <trkpt lat="54.45801" lon="24.5791">
        <ele>157.750115</ele>
        <time>2020-10-06T18:08:58.810Z</time>
      </trkpt>
      <trkpt lat="54.45704" lon="24.57886">
        <ele>159.63649</ele>
        <time>2020-10-06T18:09:29.397Z</time>
      </trkpt>
      <trkpt lat="54.45635" lon="24.57858">
        <ele>160.142709</ele>
        <time>2020-10-06T18:09:48.739Z</time>
      </trkpt>
      <trkpt lat="54.45577" lon="24.57824">
        <ele>160.578084</ele>
        <time>2020-10-06T18:10:02.784Z</time>
      </trkpt>
      <trkpt lat="54.4547" lon="24.57749">
        <ele>159.480487</ele>
        <time>2020-10-06T18:10:24.743Z</time>
      </trkpt>
      <trkpt lat="54.45409" lon="24.57695">
        <ele>158.610434</ele>
        <time>2020-10-06T18:10:37.109Z</time>
      </trkpt>
      <trkpt lat="54.45241" lon="24.575">
        <ele>155.847014</ele>
        <time>2020-10-06T18:11:14.376Z</time>
      </trkpt>
      <trkpt lat="54.44925" lon="24.57181">
        <ele>153.791616</ele>
        <time>2020-10-06T18:12:29.719Z</time>
      </trkpt>
      <trkpt lat="54.44845" lon="24.57075">
        <ele>153.645414</ele>
        <time>2020-10-06T18:12:50.992Z</time>
      </trkpt>
      <trkpt lat="54.44779" lon="24.5697">
        <ele>153.64372</ele>
        <time>2020-10-06T18:13:11.755Z</time>
      </trkpt>
      <trkpt lat="54.44749" lon="24.56915">
        <ele>153.789133</ele>
        <time>2020-10-06T18:13:21.938Z</time>
      </trkpt>
      <trkpt lat="54.4472" lon="24.56856">
        <ele>153.93832</ele>
        <time>2020-10-06T18:13:32.707Z</time>
      </trkpt>
      <trkpt lat="54.44663" lon="24.5672">
        <ele>154.165394</ele>
        <time>2020-10-06T18:13:56.113Z</time>
      </trkpt>
      <trkpt lat="54.44629" lon="24.56622">
        <ele>154.184024</ele>
        <time>2020-10-06T18:14:11.764Z</time>
      </trkpt>
      <trkpt lat="54.44573" lon="24.56425">
        <ele>153.683074</ele>
        <time>2020-10-06T18:14:38.742Z</time>
      </trkpt>
      <trkpt lat="54.44551" lon="24.56301">
        <ele>152.835185</ele>
        <time>2020-10-06T18:14:53.262Z</time>
      </trkpt>
      <trkpt lat="54.44536" lon="24.56218">
        <ele>152.275138</ele>
        <time>2020-10-06T18:15:02.297Z</time>
      </trkpt>
      <trkpt lat="54.44521" lon="24.56107">
        <ele>150.995209</ele>
        <time>2020-10-06T18:15:13.983Z</time>
      </trkpt>
      <trkpt lat="54.44511" lon="24.55976">
        <ele>149.428984</ele>
        <time>2020-10-06T18:15:27.324Z</time>
      </trkpt>
      <trkpt lat="54.44483" lon="24.55417">
        <ele>144.481663</ele>
        <time>2020-10-06T18:16:25.707Z</time>
      </trkpt>
      <trkpt lat="54.44481" lon="24.55384">
        <ele>144.337383</ele>
        <time>2020-10-06T18:16:29.597Z</time>
      </trkpt>
      <trkpt lat="54.4448" lon="24.55349">
        <ele>144.182594</ele>
        <time>2020-10-06T18:16:33.886Z</time>
      </trkpt>
      <trkpt lat="54.44432" lon="24.54507">
        <ele>150.565698</ele>
        <time>2020-10-06T18:18:52.300Z</time>
      </trkpt>
      <trkpt lat="54.44385" lon="24.53981">
        <ele>155.980174</ele>
        <time>2020-10-06T18:20:26.432Z</time>
      </trkpt>
      <trkpt lat="54.44359" lon="24.53741">
        <ele>157.022753</ele>
        <time>2020-10-06T18:21:01.874Z</time>
      </trkpt>
      <trkpt lat="54.44313" lon="24.53416">
        <ele>155.045486</ele>
        <time>2020-10-06T18:21:38.289Z</time>
      </trkpt>
      <trkpt lat="54.44303" lon="24.53365">
        <ele>154.743896</ele>
        <time>2020-10-06T18:21:44.066Z</time>
      </trkpt>
      <trkpt lat="54.4429" lon="24.53308">
        <ele>154.404829</ele>
        <time>2020-10-06T18:21:50.767Z</time>
      </trkpt>
      <trkpt lat="54.44226" lon="24.53097">
        <ele>153.235798</ele>
        <time>2020-10-06T18:22:18.878Z</time>
      </trkpt>
      <trkpt lat="54.44171" lon="24.52961">
        <ele>152.649878</ele>
        <time>2020-10-06T18:22:39.174Z</time>
      </trkpt>
      <trkpt lat="54.44109" lon="24.52824">
        <ele>151.647966</ele>
        <time>2020-10-06T18:22:58.527Z</time>
      </trkpt>
      <trkpt lat="54.44103" lon="24.52809">
        <ele>151.513461</ele>
        <time>2020-10-06T18:23:00.545Z</time>
      </trkpt>
      <trkpt lat="54.44016" lon="24.52603">
        <ele>149.983247</ele>
        <time>2020-10-06T18:23:28.021Z</time>
      </trkpt>
      <trkpt lat="54.43678" lon="24.51783">
        <ele>146.452578</ele>
        <time>2020-10-06T18:25:29.124Z</time>
      </trkpt>
      <trkpt lat="54.43653" lon="24.51702">
        <ele>145.926545</ele>
        <time>2020-10-06T18:25:39.301Z</time>
      </trkpt>
      <trkpt lat="54.43594" lon="24.51456">
        <ele>143.894688</ele>
        <time>2020-10-06T18:26:07.370Z</time>
      </trkpt>
      <trkpt lat="54.43572" lon="24.51379">
        <ele>143.181664</ele>
        <time>2020-10-06T18:26:16.675Z</time>
      </trkpt>
      <trkpt lat="54.43444" lon="24.51005">
        <ele>140.101701</ele>
        <time>2020-10-06T18:27:05.340Z</time>
      </trkpt>
      <trkpt lat="54.43429" lon="24.50951">
        <ele>139.562063</ele>
        <time>2020-10-06T18:27:11.684Z</time>
      </trkpt>
      <trkpt lat="54.43414" lon="24.50878">
        <ele>138.866092</ele>
        <time>2020-10-06T18:27:19.730Z</time>
      </trkpt>
      <trkpt lat="54.43398" lon="24.50709">
        <ele>137.75386</ele>
        <time>2020-10-06T18:27:37.416Z</time>
      </trkpt>
      <trkpt lat="54.43394" lon="24.50647">
        <ele>137.46412</ele>
        <time>2020-10-06T18:27:44.463Z</time>
      </trkpt>
      <trkpt lat="54.43394" lon="24.50624">
        <ele>137.357649</ele>
        <time>2020-10-06T18:27:47.068Z</time>
      </trkpt>
      <trkpt lat="54.43403" lon="24.50482">
        <ele>136.813681</ele>
        <time>2020-10-06T18:28:06.041Z</time>
      </trkpt>
      <trkpt lat="54.43409" lon="24.50446">
        <ele>136.890007</ele>
        <time>2020-10-06T18:28:11.053Z</time>
      </trkpt>
      <trkpt lat="54.43412" lon="24.50433">
        <ele>136.916491</ele>
        <time>2020-10-06T18:28:13.242Z</time>
      </trkpt>
      <trkpt lat="54.43422" lon="24.50399">
        <ele>136.994502</ele>
        <time>2020-10-06T18:28:18.708Z</time>
      </trkpt>
      <trkpt lat="54.43445" lon="24.50335">
        <ele>137.145353</ele>
        <time>2020-10-06T18:28:29.526Z</time>
      </trkpt>
      <trkpt lat="54.43459" lon="24.50298">
        <ele>137.233597</ele>
        <time>2020-10-06T18:28:35.837Z</time>
      </trkpt>
      <trkpt lat="54.43476" lon="24.50257">
        <ele>137.337143</ele>
        <time>2020-10-06T18:28:42.863Z</time>
      </trkpt>
      <trkpt lat="54.43493" lon="24.5022">
        <ele>137.335463</ele>
        <time>2020-10-06T18:28:49.129Z</time>
      </trkpt>
      <trkpt lat="54.4351" lon="24.50179">
        <ele>137.137407</ele>
        <time>2020-10-06T18:28:55.227Z</time>
      </trkpt>
      <trkpt lat="54.43517" lon="24.50155">
        <ele>137.027597</ele>
        <time>2020-10-06T18:28:58.504Z</time>
      </trkpt>
      <trkpt lat="54.43529" lon="24.50095">
        <ele>136.779332</ele>
        <time>2020-10-06T18:29:05.639Z</time>
      </trkpt>
      <trkpt lat="54.43532" lon="24.50036">
        <ele>136.541713</ele>
        <time>2020-10-06T18:29:12.468Z</time>
      </trkpt>
      <trkpt lat="54.43538" lon="24.49945">
        <ele>136.175843</ele>
        <time>2020-10-06T18:29:23.002Z</time>
      </trkpt>
      <trkpt lat="54.43546" lon="24.49843">
        <ele>135.685345</ele>
        <time>2020-10-06T18:29:34.184Z</time>
      </trkpt>
      <trkpt lat="54.43549" lon="24.4981">
        <ele>135.524087</ele>
        <time>2020-10-06T18:29:38.001Z</time>
      </trkpt>
      <trkpt lat="54.43553" lon="24.49747">
        <ele>135.217741</ele>
        <time>2020-10-06T18:29:45.209Z</time>
      </trkpt>
      <trkpt lat="54.43564" lon="24.49626">
        <ele>134.647989</ele>
        <time>2020-10-06T18:29:59.870Z</time>
      </trkpt>
      <trkpt lat="54.43569" lon="24.49556">
        <ele>134.437123</ele>
        <time>2020-10-06T18:30:08.533Z</time>
      </trkpt>
      <trkpt lat="54.43576" lon="24.4945">
        <ele>134.112725</ele>
        <time>2020-10-06T18:30:21.187Z</time>
      </trkpt>
      <trkpt lat="54.43543" lon="24.49325">
        <ele>133.707298</ele>
        <time>2020-10-06T18:30:37.569Z</time>
      </trkpt>
      <trkpt lat="54.43519" lon="24.49197">
        <ele>133.374148</ele>
        <time>2020-10-06T18:30:53.882Z</time>
      </trkpt>
      <trkpt lat="54.43518" lon="24.49188">
        <ele>133.353573</ele>
        <time>2020-10-06T18:30:55.008Z</time>
      </trkpt>
      <trkpt lat="54.4351" lon="24.49125">
        <ele>133.192399</ele>
        <time>2020-10-06T18:31:02.809Z</time>
      </trkpt>
      <trkpt lat="54.43503" lon="24.49097">
        <ele>133.118258</ele>
        <time>2020-10-06T18:31:06.338Z</time>
      </trkpt>
      <trkpt lat="54.43462" lon="24.49001">
        <ele>132.981546</ele>
        <time>2020-10-06T18:31:20.736Z</time>
      </trkpt>
      <trkpt lat="54.4345" lon="24.48943">
        <ele>132.979649</ele>
        <time>2020-10-06T18:31:28.397Z</time>
      </trkpt>
      <trkpt lat="54.43451" lon="24.48903">
        <ele>132.978425</ele>
        <time>2020-10-06T18:31:33.354Z</time>
      </trkpt>
      <trkpt lat="54.43456" lon="24.48854">
        <ele>132.976905</ele>
        <time>2020-10-06T18:31:39.850Z</time>
      </trkpt>
      <trkpt lat="54.43507" lon="24.48408">
        <ele>134.262752</ele>
        <time>2020-10-06T18:32:45.409Z</time>
      </trkpt>
      <trkpt lat="54.43518" lon="24.48275">
        <ele>134.699712</ele>
        <time>2020-10-06T18:33:04.611Z</time>
      </trkpt>
      <trkpt lat="54.43539" lon="24.48002">
        <ele>135.603425</ele>
        <time>2020-10-06T18:33:43.981Z</time>
      </trkpt>
      <trkpt lat="54.43547" lon="24.47839">
        <ele>136.12224</ele>
        <time>2020-10-06T18:34:07.558Z</time>
      </trkpt>
      <trkpt lat="54.43557" lon="24.47748">
        <ele>136.197731</ele>
        <time>2020-10-06T18:34:20.245Z</time>
      </trkpt>
      <trkpt lat="54.43574" lon="24.47662">
        <ele>136.271607</ele>
        <time>2020-10-06T18:34:32.461Z</time>
      </trkpt>
      <trkpt lat="54.43591" lon="24.4759">
        <ele>136.334141</ele>
        <time>2020-10-06T18:34:42.342Z</time>
      </trkpt>
      <trkpt lat="54.43632" lon="24.47477">
        <ele>136.346692</ele>
        <time>2020-10-06T18:34:59.035Z</time>
      </trkpt>
      <trkpt lat="54.43653" lon="24.47439">
        <ele>136.334569</ele>
        <time>2020-10-06T18:35:05.425Z</time>
      </trkpt>
      <trkpt lat="54.43737" lon="24.47336">
        <ele>136.346912</ele>
        <time>2020-10-06T18:35:28.628Z</time>
      </trkpt>
      <trkpt lat="54.43766" lon="24.47296">
        <ele>136.597903</ele>
        <time>2020-10-06T18:35:37.602Z</time>
      </trkpt>
      <trkpt lat="54.43777" lon="24.4728">
        <ele>136.690709</ele>
        <time>2020-10-06T18:35:40.936Z</time>
      </trkpt>
      <trkpt lat="54.43792" lon="24.47255">
        <ele>136.835619</ele>
        <time>2020-10-06T18:35:46.341Z</time>
      </trkpt>
      <trkpt lat="54.43836" lon="24.47158">
        <ele>137.31872</ele>
        <time>2020-10-06T18:36:04.815Z</time>
      </trkpt>
      <trkpt lat="54.43894" lon="24.46945">
        <ele>138.497063</ele>
        <time>2020-10-06T18:36:41.067Z</time>
      </trkpt>
      <trkpt lat="54.43927" lon="24.46859">
        <ele>139.03906</ele>
        <time>2020-10-06T18:36:56.457Z</time>
      </trkpt>
      <trkpt lat="54.44021" lon="24.46667">
        <ele>139.578886</ele>
        <time>2020-10-06T18:37:31.342Z</time>
      </trkpt>
      <trkpt lat="54.44131" lon="24.46374">
        <ele>139.794024</ele>
        <time>2020-10-06T18:38:16.121Z</time>
      </trkpt>
      <trkpt lat="54.4417" lon="24.46293">
        <ele>140.015028</ele>
        <time>2020-10-06T18:38:30.714Z</time>
      </trkpt>
      <trkpt lat="54.44219" lon="24.46211">
        <ele>140.393245</ele>
        <time>2020-10-06T18:38:47.967Z</time>
      </trkpt>
      <trkpt lat="54.44265" lon="24.46143">
        <ele>140.727818</ele>
        <time>2020-10-06T18:39:03.018Z</time>
      </trkpt>
      <trkpt lat="54.44298" lon="24.46096">
        <ele>140.763679</ele>
        <time>2020-10-06T18:39:13.392Z</time>
      </trkpt>
      <trkpt lat="54.44331" lon="24.46047">
        <ele>140.714692</ele>
        <time>2020-10-06T18:39:23.592Z</time>
      </trkpt>
      <trkpt lat="54.44477" lon="24.45787">
        <ele>140.136372</ele>
        <time>2020-10-06T18:40:07.101Z</time>
      </trkpt>
      <trkpt lat="54.44511" lon="24.45712">
        <ele>139.892553</ele>
        <time>2020-10-06T18:40:18.528Z</time>
      </trkpt>
      <trkpt lat="54.44529" lon="24.4566">
        <ele>139.746151</ele>
        <time>2020-10-06T18:40:25.900Z</time>
      </trkpt>
      <trkpt lat="54.44546" lon="24.45598">
        <ele>139.590992</ele>
        <time>2020-10-06T18:40:34.482Z</time>
      </trkpt>
      <trkpt lat="54.44579" lon="24.45424">
        <ele>139.181747</ele>
        <time>2020-10-06T18:40:56.782Z</time>
      </trkpt>
      <trkpt lat="54.44586" lon="24.45312">
        <ele>138.950056</ele>
        <time>2020-10-06T18:41:10.384Z</time>
      </trkpt>
      <trkpt lat="54.44586" lon="24.45254">
        <ele>138.833842</ele>
        <time>2020-10-06T18:41:17.375Z</time>
      </trkpt>
      <trkpt lat="54.44585" lon="24.45195">
        <ele>138.715193</ele>
        <time>2020-10-06T18:41:24.553Z</time>
      </trkpt>
      <trkpt lat="54.44576" lon="24.44809">
        <ele>138.117303</ele>
        <time>2020-10-06T18:42:13.065Z</time>
      </trkpt>
      <trkpt lat="54.44562" lon="24.44585">
        <ele>137.496073</ele>
        <time>2020-10-06T18:42:40.408Z</time>
      </trkpt>
      <trkpt lat="54.44546" lon="24.4443">
        <ele>137.038978</ele>
        <time>2020-10-06T18:42:58.588Z</time>
      </trkpt>
      <trkpt lat="54.44517" lon="24.4429">
        <ele>136.646763</ele>
        <time>2020-10-06T18:43:16.009Z</time>
      </trkpt>
      <trkpt lat="54.44439" lon="24.44015">
        <ele>136.566182</ele>
        <time>2020-10-06T18:43:55.030Z</time>
      </trkpt>
      <trkpt lat="54.44418" lon="24.4386">
        <ele>136.879584</ele>
        <time>2020-10-06T18:44:18.185Z</time>
      </trkpt>
      <trkpt lat="54.44419" lon="24.4376">
        <ele>137.320939</ele>
        <time>2020-10-06T18:44:33.302Z</time>
      </trkpt>
      <trkpt lat="54.44433" lon="24.43527">
        <ele>138.137518</ele>
        <time>2020-10-06T18:45:07.719Z</time>
      </trkpt>
      <trkpt lat="54.4445" lon="24.43369">
        <ele>138.253676</ele>
        <time>2020-10-06T18:45:28.969Z</time>
      </trkpt>
      <trkpt lat="54.44465" lon="24.43289">
        <ele>138.313988</ele>
        <time>2020-10-06T18:45:39.355Z</time>
      </trkpt>
      <trkpt lat="54.44508" lon="24.43128">
        <ele>138.397692</ele>
        <time>2020-10-06T18:46:01.525Z</time>
      </trkpt>
      <trkpt lat="54.44541" lon="24.4303">
        <ele>138.449682</ele>
        <time>2020-10-06T18:46:16.958Z</time>
      </trkpt>
      <trkpt lat="54.44575" lon="24.42943">
        <ele>138.876799</ele>
        <time>2020-10-06T18:46:32.237Z</time>
      </trkpt>
      <trkpt lat="54.44598" lon="24.42896">
        <ele>139.194913</ele>
        <time>2020-10-06T18:46:41.453Z</time>
      </trkpt>
      <trkpt lat="54.44632" lon="24.42839">
        <ele>139.617121</ele>
        <time>2020-10-06T18:46:53.976Z</time>
      </trkpt>
      <trkpt lat="54.44741" lon="24.42657">
        <ele>141.169573</ele>
        <time>2020-10-06T18:47:34.716Z</time>
      </trkpt>
      <trkpt lat="54.44844" lon="24.42463">
        <ele>142.899309</ele>
        <time>2020-10-06T18:48:15.200Z</time>
      </trkpt>
      <trkpt lat="54.44926" lon="24.42274">
        <ele>144.569258</ele>
        <time>2020-10-06T18:48:52.442Z</time>
      </trkpt>
      <trkpt lat="54.44991" lon="24.42087">
        <ele>146.282795</ele>
        <time>2020-10-06T18:49:28.425Z</time>
      </trkpt>
      <trkpt lat="54.45019" lon="24.41984">
        <ele>146.516515</ele>
        <time>2020-10-06T18:49:45.621Z</time>
      </trkpt>
      <trkpt lat="54.45042" lon="24.41896">
        <ele>146.444447</ele>
        <time>2020-10-06T18:49:59.076Z</time>
      </trkpt>
      <trkpt lat="54.45058" lon="24.41824">
        <ele>146.387405</ele>
        <time>2020-10-06T18:50:08.429Z</time>
      </trkpt>
      <trkpt lat="54.45102" lon="24.41586">
        <ele>144.44952</ele>
        <time>2020-10-06T18:50:34.384Z</time>
      </trkpt>
      <trkpt lat="54.45137" lon="24.41391">
        <ele>143.322285</ele>
        <time>2020-10-06T18:50:55.720Z</time>
      </trkpt>
      <trkpt lat="54.45272" lon="24.40617">
        <ele>144.575625</ele>
        <time>2020-10-06T18:52:48.101Z</time>
      </trkpt>
      <trkpt lat="54.45289" lon="24.40524">
        <ele>145.335832</ele>
        <time>2020-10-06T18:53:04.341Z</time>
      </trkpt>
      <trkpt lat="54.45301" lon="24.40456">
        <ele>146.048891</ele>
        <time>2020-10-06T18:53:16.750Z</time>
      </trkpt>
      <trkpt lat="54.45315" lon="24.40381">
        <ele>146.831548</ele>
        <time>2020-10-06T18:53:30.398Z</time>
      </trkpt>
      <trkpt lat="54.45336" lon="24.40257">
        <ele>148.023167</ele>
        <time>2020-10-06T18:53:53.114Z</time>
      </trkpt>
      <trkpt lat="54.45409" lon="24.3984">
        <ele>150.524428</ele>
        <time>2020-10-06T18:55:00.425Z</time>
      </trkpt>
      <trkpt lat="54.45461" lon="24.39585">
        <ele>151.576799</ele>
        <time>2020-10-06T18:55:35.625Z</time>
      </trkpt>
      <trkpt lat="54.45482" lon="24.39502">
        <ele>152.00681</ele>
        <time>2020-10-06T18:55:48.767Z</time>
      </trkpt>
      <trkpt lat="54.45541" lon="24.39317">
        <ele>153.911356</ele>
        <time>2020-10-06T18:56:25.476Z</time>
      </trkpt>
      <trkpt lat="54.45635" lon="24.39087">
        <ele>157.026382</ele>
        <time>2020-10-06T18:57:17.983Z</time>
      </trkpt>
      <trkpt lat="54.45683" lon="24.38991">
        <ele>157.889726</ele>
        <time>2020-10-06T18:57:38.350Z</time>
      </trkpt>
      <trkpt lat="54.45774" lon="24.38832">
        <ele>157.873593</ele>
        <time>2020-10-06T18:58:06.486Z</time>
      </trkpt>
      <trkpt lat="54.45808" lon="24.38755">
        <ele>157.348145</ele>
        <time>2020-10-06T18:58:17.099Z</time>
      </trkpt>
      <trkpt lat="54.45821" lon="24.38714">
        <ele>157.08991</ele>
        <time>2020-10-06T18:58:22.171Z</time>
      </trkpt>
      <trkpt lat="54.45881" lon="24.38377">
        <ele>153.449755</ele>
        <time>2020-10-06T18:58:58.441Z</time>
      </trkpt>
      <trkpt lat="54.45912" lon="24.38262">
        <ele>152.392194</ele>
        <time>2020-10-06T18:59:11.677Z</time>
      </trkpt>
      <trkpt lat="54.4593" lon="24.3807">
        <ele>150.902398</ele>
        <time>2020-10-06T18:59:32.888Z</time>
      </trkpt>
      <trkpt lat="54.45946" lon="24.3802">
        <ele>150.981251</ele>
        <time>2020-10-06T18:59:39.659Z</time>
      </trkpt>
      <trkpt lat="54.45962" lon="24.37965">
        <ele>151.068117</ele>
        <time>2020-10-06T18:59:47.524Z</time>
      </trkpt>
      <trkpt lat="54.45984" lon="24.37875">
        <ele>151.204164</ele>
        <time>2020-10-06T19:00:00.772Z</time>
      </trkpt>
      <trkpt lat="54.4599" lon="24.37847">
        <ele>151.245562</ele>
        <time>2020-10-06T19:00:05.378Z</time>
      </trkpt>
      <trkpt lat="54.45994" lon="24.37831">
        <ele>151.27016</ele>
        <time>2020-10-06T19:00:07.955Z</time>
      </trkpt>
      <trkpt lat="54.45999" lon="24.37818">
        <ele>151.292923</ele>
        <time>2020-10-06T19:00:10.558Z</time>
      </trkpt>
      <trkpt lat="54.46015" lon="24.37774">
        <ele>151.89546</ele>
        <time>2020-10-06T19:00:19.197Z</time>
      </trkpt>
      <trkpt lat="54.46036" lon="24.37708">
        <ele>153.11812</ele>
        <time>2020-10-06T19:00:32.859Z</time>
      </trkpt>
      <trkpt lat="54.46038" lon="24.37694">
        <ele>153.340355</ele>
        <time>2020-10-06T19:00:35.978Z</time>
      </trkpt>
      <trkpt lat="54.46044" lon="24.37501">
        <ele>156.521667</ele>
        <time>2020-10-06T19:01:15.457Z</time>
      </trkpt>
      <trkpt lat="54.46048" lon="24.37467">
        <ele>157.174189</ele>
        <time>2020-10-06T19:01:22.977Z</time>
      </trkpt>
      <trkpt lat="54.46051" lon="24.37454">
        <ele>157.451407</ele>
        <time>2020-10-06T19:01:26.893Z</time>
      </trkpt>
      <trkpt lat="54.46066" lon="24.3742">
        <ele>158.253327</ele>
        <time>2020-10-06T19:01:36.052Z</time>
      </trkpt>
      <trkpt lat="54.46075" lon="24.37404">
        <ele>158.700751</ele>
        <time>2020-10-06T19:01:41.706Z</time>
      </trkpt>
      <trkpt lat="54.46084" lon="24.37389">
        <ele>159.099526</ele>
        <time>2020-10-06T19:01:46.088Z</time>
      </trkpt>
      <trkpt lat="54.46092" lon="24.37376">
        <ele>159.455719</ele>
        <time>2020-10-06T19:01:50.022Z</time>
      </trkpt>
      <trkpt lat="54.4612" lon="24.37329">
        <ele>160.74928</ele>
        <time>2020-10-06T19:02:04.509Z</time>
      </trkpt>
      <trkpt lat="54.46127" lon="24.37313">
        <ele>161.131438</ele>
        <time>2020-10-06T19:02:08.853Z</time>
      </trkpt>
      <trkpt lat="54.46138" lon="24.37286">
        <ele>161.769291</ele>
        <time>2020-10-06T19:02:15.405Z</time>
      </trkpt>
      <trkpt lat="54.46143" lon="24.37269">
        <ele>162.143502</ele>
        <time>2020-10-06T19:02:19.767Z</time>
      </trkpt>
      <trkpt lat="54.46152" lon="24.3722">
        <ele>161.997454</ele>
        <time>2020-10-06T19:02:27.704Z</time>
      </trkpt>
      <trkpt lat="54.46154" lon="24.37155">
        <ele>161.584318</ele>
        <time>2020-10-06T19:02:36.056Z</time>
      </trkpt>
      <trkpt lat="54.4615" lon="24.37106">
        <ele>161.27051</ele>
        <time>2020-10-06T19:02:41.449Z</time>
      </trkpt>
      <trkpt lat="54.46138" lon="24.37058">
        <ele>160.942391</ele>
        <time>2020-10-06T19:02:46.702Z</time>
      </trkpt>
      <trkpt lat="54.46126" lon="24.37033">
        <ele>160.733503</ele>
        <time>2020-10-06T19:02:50.260Z</time>
      </trkpt>
      <trkpt lat="54.46126" lon="24.37033">
        <ele>160.733503</ele>
        <time>2020-10-06T19:02:50.267Z</time>
      </trkpt>
      <trkpt lat="54.46126" lon="24.37033">
        <ele>160.733503</ele>
        <time>2020-10-06T19:02:50.317Z</time>
      </trkpt>
      <trkpt lat="54.46096" lon="24.36978">
        <ele>160.15487</ele>
        <time>2020-10-06T19:02:57.288Z</time>
      </trkpt>
      <trkpt lat="54.46093" lon="24.36972">
        <ele>160.007316</ele>
        <time>2020-10-06T19:02:57.967Z</time>
      </trkpt>
      <trkpt lat="54.46079" lon="24.36945">
        <ele>159.315223</ele>
        <time>2020-10-06T19:03:01.626Z</time>
      </trkpt>
      <trkpt lat="54.46066" lon="24.36931">
        <ele>158.843039</ele>
        <time>2020-10-06T19:03:03.866Z</time>
      </trkpt>
      <trkpt lat="54.46034" lon="24.36926">
        <ele>157.823677</ele>
        <time>2020-10-06T19:03:08.963Z</time>
      </trkpt>
      <trkpt lat="54.45939" lon="24.36946">
        <ele>154.772853</ele>
        <time>2020-10-06T19:03:24.468Z</time>
      </trkpt>
      <trkpt lat="54.45892" lon="24.36941">
        <ele>154.339254</ele>
        <time>2020-10-06T19:03:33.265Z</time>
      </trkpt>
      <trkpt lat="54.45879" lon="24.36937">
        <ele>154.2553</ele>
        <time>2020-10-06T19:03:35.828Z</time>
      </trkpt>
      <trkpt lat="54.45861" lon="24.36926">
        <ele>154.132706</ele>
        <time>2020-10-06T19:03:39.951Z</time>
      </trkpt>
      <trkpt lat="54.45835" lon="24.36907">
        <ele>153.95097</ele>
        <time>2020-10-06T19:03:45.975Z</time>
      </trkpt>
      <trkpt lat="54.4581" lon="24.36889">
        <ele>153.780338</ele>
        <time>2020-10-06T19:03:51.785Z</time>
      </trkpt>
      <trkpt lat="54.45648" lon="24.36768">
        <ele>153.545244</ele>
        <time>2020-10-06T19:04:33.405Z</time>
      </trkpt>
      <trkpt lat="54.45602" lon="24.36745">
        <ele>153.578077</ele>
        <time>2020-10-06T19:04:43.426Z</time>
      </trkpt>
      <trkpt lat="54.45585" lon="24.36739">
        <ele>153.492309</ele>
        <time>2020-10-06T19:04:47.352Z</time>
      </trkpt>
      <trkpt lat="54.45567" lon="24.36732">
        <ele>153.34704</ele>
        <time>2020-10-06T19:04:50.931Z</time>
      </trkpt>
      <trkpt lat="54.45236" lon="24.36634">
        <ele>150.282115</ele>
        <time>2020-10-06T19:05:56.193Z</time>
      </trkpt>
      <trkpt lat="54.45206" lon="24.36617">
        <ele>149.93962</ele>
        <time>2020-10-06T19:06:02.308Z</time>
      </trkpt>
      <trkpt lat="54.452" lon="24.36613">
        <ele>149.871528</ele>
        <time>2020-10-06T19:06:03.496Z</time>
      </trkpt>
      <trkpt lat="54.4516" lon="24.36574">
        <ele>149.382036</ele>
        <time>2020-10-06T19:06:12.218Z</time>
      </trkpt>
      <trkpt lat="54.45134" lon="24.36534">
        <ele>149.006358</ele>
        <time>2020-10-06T19:06:18.923Z</time>
      </trkpt>
      <trkpt lat="54.45102" lon="24.36465">
        <ele>148.45204</ele>
        <time>2020-10-06T19:06:28.827Z</time>
      </trkpt>
      <trkpt lat="54.45079" lon="24.36392">
        <ele>147.914422</ele>
        <time>2020-10-06T19:06:37.921Z</time>
      </trkpt>
      <trkpt lat="54.4502" lon="24.36197">
        <ele>146.493447</ele>
        <time>2020-10-06T19:07:02.431Z</time>
      </trkpt>
      <trkpt lat="54.44973" lon="24.35983">
        <ele>145.168159</ele>
        <time>2020-10-06T19:07:27.970Z</time>
      </trkpt>
      <trkpt lat="54.44955" lon="24.35882">
        <ele>144.602237</ele>
        <time>2020-10-06T19:07:40.057Z</time>
      </trkpt>
      <trkpt lat="54.44921" lon="24.35675">
        <ele>144.061251</ele>
        <time>2020-10-06T19:08:05.899Z</time>
      </trkpt>
      <trkpt lat="54.44916" lon="24.35568">
        <ele>143.841402</ele>
        <time>2020-10-06T19:08:19.530Z</time>
      </trkpt>
      <trkpt lat="54.44941" lon="24.35025">
        <ele>143.466955</ele>
        <time>2020-10-06T19:09:29.208Z</time>
      </trkpt>
      <trkpt lat="54.44938" lon="24.34905">
        <ele>143.13385</ele>
        <time>2020-10-06T19:09:43.705Z</time>
      </trkpt>
      <trkpt lat="54.44923" lon="24.34748">
        <ele>142.47792</ele>
        <time>2020-10-06T19:10:02.291Z</time>
      </trkpt>
      <trkpt lat="54.44886" lon="24.34561">
        <ele>141.387694</ele>
        <time>2020-10-06T19:10:24.361Z</time>
      </trkpt>
      <trkpt lat="54.44845" lon="24.34424">
        <ele>140.396848</ele>
        <time>2020-10-06T19:10:41.327Z</time>
      </trkpt>
      <trkpt lat="54.44836" lon="24.34395">
        <ele>140.183344</ele>
        <time>2020-10-06T19:10:44.960Z</time>
      </trkpt>
      <trkpt lat="54.44685" lon="24.33949">
        <ele>138.204261</ele>
        <time>2020-10-06T19:11:44.317Z</time>
      </trkpt>
      <trkpt lat="54.44629" lon="24.33781">
        <ele>138.443382</ele>
        <time>2020-10-06T19:12:11.292Z</time>
      </trkpt>
      <trkpt lat="54.44618" lon="24.3375">
        <ele>138.633431</ele>
        <time>2020-10-06T19:12:16.787Z</time>
      </trkpt>
      <trkpt lat="54.44533" lon="24.33498">
        <ele>140.112297</ele>
        <time>2020-10-06T19:13:02.819Z</time>
      </trkpt>
      <trkpt lat="54.44515" lon="24.33499">
        <ele>140.250265</ele>
        <time>2020-10-06T19:13:07.593Z</time>
      </trkpt>
      <trkpt lat="54.44481" lon="24.335">
        <ele>140.513628</ele>
        <time>2020-10-06T19:13:16.185Z</time>
      </trkpt>
      <trkpt lat="54.44404" lon="24.33487">
        <ele>140.979361</ele>
        <time>2020-10-06T19:13:34.763Z</time>
      </trkpt>
      <trkpt lat="54.44357" lon="24.33492">
        <ele>140.762737</ele>
        <time>2020-10-06T19:13:45.283Z</time>
      </trkpt>
      <trkpt lat="54.44092" lon="24.3356">
        <ele>138.853518</ele>
        <time>2020-10-06T19:14:38.252Z</time>
      </trkpt>
      <trkpt lat="54.4399" lon="24.33597">
        <ele>137.826875</ele>
        <time>2020-10-06T19:14:57.804Z</time>
      </trkpt>
      <trkpt lat="54.43892" lon="24.33626">
        <ele>136.812539</ele>
        <time>2020-10-06T19:15:16.938Z</time>
      </trkpt>
      <trkpt lat="54.43851" lon="24.33641">
        <ele>136.773369</ele>
        <time>2020-10-06T19:15:25.219Z</time>
      </trkpt>
      <trkpt lat="54.43545" lon="24.3376">
        <ele>138.052541</ele>
        <time>2020-10-06T19:16:41.294Z</time>
      </trkpt>
      <trkpt lat="54.43488" lon="24.33782">
        <ele>138.559574</ele>
        <time>2020-10-06T19:16:57.059Z</time>
      </trkpt>
      <trkpt lat="54.43463" lon="24.33784">
        <ele>138.796596</ele>
        <time>2020-10-06T19:17:03.723Z</time>
      </trkpt>
      <trkpt lat="54.43422" lon="24.33787">
        <ele>139.189512</ele>
        <time>2020-10-06T19:17:14.685Z</time>
      </trkpt>
      <trkpt lat="54.43325" lon="24.33782">
        <ele>139.984824</ele>
        <time>2020-10-06T19:17:39.681Z</time>
      </trkpt>
      <trkpt lat="54.4328" lon="24.3379">
        <ele>140.215498</ele>
        <time>2020-10-06T19:17:51.065Z</time>
      </trkpt>
      <trkpt lat="54.43254" lon="24.33804">
        <ele>140.347897</ele>
        <time>2020-10-06T19:17:57.451Z</time>
      </trkpt>
      <trkpt lat="54.43236" lon="24.33821">
        <ele>140.454276</ele>
        <time>2020-10-06T19:18:02.481Z</time>
      </trkpt>
      <trkpt lat="54.43205" lon="24.33848">
        <ele>140.625915</ele>
        <time>2020-10-06T19:18:10.553Z</time>
      </trkpt>
      <trkpt lat="54.43181" lon="24.33864">
        <ele>140.75109</ele>
        <time>2020-10-06T19:18:16.507Z</time>
      </trkpt>
      <trkpt lat="54.43162" lon="24.33872">
        <ele>140.784053</ele>
        <time>2020-10-06T19:18:21.065Z</time>
      </trkpt>
      <trkpt lat="54.43127" lon="24.33888">
        <ele>140.844426</ele>
        <time>2020-10-06T19:18:29.283Z</time>
      </trkpt>
      <trkpt lat="54.43046" lon="24.33917">
        <ele>140.980988</ele>
        <time>2020-10-06T19:18:48.027Z</time>
      </trkpt>
      <trkpt lat="54.43026" lon="24.33923">
        <ele>141.015938</ele>
        <time>2020-10-06T19:18:52.787Z</time>
      </trkpt>
      <trkpt lat="54.42998" lon="24.33931">
        <ele>141.063067</ele>
        <time>2020-10-06T19:18:59.351Z</time>
      </trkpt>
      <trkpt lat="54.42976" lon="24.33939">
        <ele>141.098293</ele>
        <time>2020-10-06T19:19:04.392Z</time>
      </trkpt>
      <trkpt lat="54.42873" lon="24.34002">
        <ele>141.275097</ele>
        <time>2020-10-06T19:19:29.428Z</time>
      </trkpt>
      <trkpt lat="54.42855" lon="24.34011">
        <ele>141.305344</ele>
        <time>2020-10-06T19:19:33.863Z</time>
      </trkpt>
      <trkpt lat="54.42822" lon="24.34026">
        <ele>141.330021</ele>
        <time>2020-10-06T19:19:41.838Z</time>
      </trkpt>
      <trkpt lat="54.42704" lon="24.34068">
        <ele>141.243459</ele>
        <time>2020-10-06T19:20:08.363Z</time>
      </trkpt>
      <trkpt lat="54.42658" lon="24.34086">
        <ele>141.206471</ele>
        <time>2020-10-06T19:20:18.412Z</time>
      </trkpt>
      <trkpt lat="54.42597" lon="24.34107">
        <ele>141.009925</ele>
        <time>2020-10-06T19:20:31.636Z</time>
      </trkpt>
      <trkpt lat="54.42579" lon="24.34114">
        <ele>140.951681</ele>
        <time>2020-10-06T19:20:35.611Z</time>
      </trkpt>
      <trkpt lat="54.42365" lon="24.34194">
        <ele>139.981804</ele>
        <time>2020-10-06T19:21:21.726Z</time>
      </trkpt>
      <trkpt lat="54.42179" lon="24.3427">
        <ele>138.623552</ele>
        <time>2020-10-06T19:21:58.894Z</time>
      </trkpt>
      <trkpt lat="54.42023" lon="24.34323">
        <ele>137.793771</ele>
        <time>2020-10-06T19:22:31.365Z</time>
      </trkpt>
      <trkpt lat="54.41722" lon="24.34444">
        <ele>137.590327</ele>
        <time>2020-10-06T19:23:38.660Z</time>
      </trkpt>
      <trkpt lat="54.41442" lon="24.34545">
        <ele>139.46027</ele>
        <time>2020-10-06T19:24:51.650Z</time>
      </trkpt>
      <trkpt lat="54.41371" lon="24.3458">
        <ele>139.875718</ele>
        <time>2020-10-06T19:25:10.238Z</time>
      </trkpt>
      <trkpt lat="54.41256" lon="24.34612">
        <ele>140.474106</ele>
        <time>2020-10-06T19:25:37.781Z</time>
      </trkpt>
      <trkpt lat="54.41231" lon="24.34612">
        <ele>140.616005</ele>
        <time>2020-10-06T19:25:43.886Z</time>
      </trkpt>
      <trkpt lat="54.41195" lon="24.34605">
        <ele>140.812918</ele>
        <time>2020-10-06T19:25:52.327Z</time>
      </trkpt>
      <trkpt lat="54.41163" lon="24.34594">
        <ele>140.9953</ele>
        <time>2020-10-06T19:26:00.251Z</time>
      </trkpt>
      <trkpt lat="54.41096" lon="24.34547">
        <ele>141.392638</ele>
        <time>2020-10-06T19:26:18.054Z</time>
      </trkpt>
      <trkpt lat="54.41032" lon="24.34516">
        <ele>141.871238</ele>
        <time>2020-10-06T19:26:35.297Z</time>
      </trkpt>
      <trkpt lat="54.40973" lon="24.34494">
        <ele>142.338687</ele>
        <time>2020-10-06T19:26:51.227Z</time>
      </trkpt>
      <trkpt lat="54.40886" lon="24.3448">
        <ele>142.849685</ele>
        <time>2020-10-06T19:27:13.223Z</time>
      </trkpt>
      <trkpt lat="54.40866" lon="24.34469">
        <ele>142.817885</ele>
        <time>2020-10-06T19:27:18.325Z</time>
      </trkpt>
      <trkpt lat="54.40633" lon="24.34272">
        <ele>141.745581</ele>
        <time>2020-10-06T19:28:12.077Z</time>
      </trkpt>
      <trkpt lat="54.40566" lon="24.34226">
        <ele>141.180037</ele>
        <time>2020-10-06T19:28:25.784Z</time>
      </trkpt>
      <trkpt lat="54.40485" lon="24.34209">
        <ele>140.274988</ele>
        <time>2020-10-06T19:28:41.164Z</time>
      </trkpt>
      <trkpt lat="54.40185" lon="24.342">
        <ele>137.820553</ele>
        <time>2020-10-06T19:29:39.528Z</time>
      </trkpt>
      <trkpt lat="54.40152" lon="24.3421">
        <ele>137.855731</ele>
        <time>2020-10-06T19:29:47.061Z</time>
      </trkpt>
      <trkpt lat="54.40033" lon="24.34269">
        <ele>138.038952</ele>
        <time>2020-10-06T19:30:17.028Z</time>
      </trkpt>
      <trkpt lat="54.3979" lon="24.34394">
        <ele>139.107385</ele>
        <time>2020-10-06T19:31:20.047Z</time>
      </trkpt>
      <trkpt lat="54.39762" lon="24.34411">
        <ele>139.121507</ele>
        <time>2020-10-06T19:31:26.419Z</time>
      </trkpt>
      <trkpt lat="54.3947" lon="24.34682">
        <ele>137.472904</ele>
        <time>2020-10-06T19:32:33.378Z</time>
      </trkpt>
      <trkpt lat="54.39274" lon="24.34855">
        <ele>137.218309</ele>
        <time>2020-10-06T19:33:18.651Z</time>
      </trkpt>
      <trkpt lat="54.39241" lon="24.34868">
        <ele>137.29372</ele>
        <time>2020-10-06T19:33:27.849Z</time>
      </trkpt>
      <trkpt lat="54.39222" lon="24.34873">
        <ele>137.347051</ele>
        <time>2020-10-06T19:33:33.501Z</time>
      </trkpt>
      <trkpt lat="54.39204" lon="24.34877">
        <ele>137.844858</ele>
        <time>2020-10-06T19:33:38.824Z</time>
      </trkpt>
      <trkpt lat="54.39202" lon="24.34878">
        <ele>137.911347</ele>
        <time>2020-10-06T19:33:39.628Z</time>
      </trkpt>
      <trkpt lat="54.39128" lon="24.34901">
        <ele>140.069926</ele>
        <time>2020-10-06T19:34:05.085Z</time>
      </trkpt>
      <trkpt lat="54.39051" lon="24.3492">
        <ele>142.279763</ele>
        <time>2020-10-06T19:34:33.415Z</time>
      </trkpt>
      <trkpt lat="54.38986" lon="24.34926">
        <ele>143.655575</ele>
        <time>2020-10-06T19:34:56.495Z</time>
      </trkpt>
      <trkpt lat="54.3888" lon="24.34922">
        <ele>145.845189</ele>
        <time>2020-10-06T19:35:28.055Z</time>
      </trkpt>
      <trkpt lat="54.38796" lon="24.34895">
        <ele>145.563032</ele>
        <time>2020-10-06T19:35:46.873Z</time>
      </trkpt>
      <trkpt lat="54.3858" lon="24.34756">
        <ele>142.892255</ele>
        <time>2020-10-06T19:36:28.744Z</time>
      </trkpt>
      <trkpt lat="54.38381" lon="24.34599">
        <ele>140.393155</ele>
        <time>2020-10-06T19:37:10.391Z</time>
      </trkpt>
      <trkpt lat="54.38369" lon="24.34596">
        <ele>140.268865</ele>
        <time>2020-10-06T19:37:12.872Z</time>
      </trkpt>
      <trkpt lat="54.38351" lon="24.34596">
        <ele>140.163428</ele>
        <time>2020-10-06T19:37:16.614Z</time>
      </trkpt>
      <trkpt lat="54.38314" lon="24.34615">
        <ele>140.081394</ele>
        <time>2020-10-06T19:37:24.484Z</time>
      </trkpt>
      <trkpt lat="54.38183" lon="24.34728">
        <ele>139.904972</ele>
        <time>2020-10-06T19:37:56.724Z</time>
      </trkpt>
      <trkpt lat="54.38144" lon="24.34748">
        <ele>140.17201</ele>
        <time>2020-10-06T19:38:06.401Z</time>
      </trkpt>
      <trkpt lat="54.38082" lon="24.34766">
        <ele>140.581709</ele>
        <time>2020-10-06T19:38:21.950Z</time>
      </trkpt>
      <trkpt lat="54.38044" lon="24.34772">
        <ele>140.834582</ele>
        <time>2020-10-06T19:38:32.006Z</time>
      </trkpt>
      <trkpt lat="54.38024" lon="24.34767">
        <ele>140.967521</ele>
        <time>2020-10-06T19:38:37.433Z</time>
      </trkpt>
      <trkpt lat="54.37939" lon="24.34704">
        <ele>142.315471</ele>
        <time>2020-10-06T19:39:02.987Z</time>
      </trkpt>
      <trkpt lat="54.37871" lon="24.34687">
        <ele>143.346588</ele>
        <time>2020-10-06T19:39:23.054Z</time>
      </trkpt>
      <trkpt lat="54.37789" lon="24.3468">
        <ele>144.668595</ele>
        <time>2020-10-06T19:39:46.716Z</time>
      </trkpt>
      <trkpt lat="54.37583" lon="24.34658">
        <ele>147.755452</ele>
        <time>2020-10-06T19:40:46.354Z</time>
      </trkpt>
      <trkpt lat="54.37537" lon="24.34646">
        <ele>148.33862</ele>
        <time>2020-10-06T19:40:58.960Z</time>
      </trkpt>
      <trkpt lat="54.37509" lon="24.34634">
        <ele>148.701818</ele>
        <time>2020-10-06T19:41:06.359Z</time>
      </trkpt>
      <trkpt lat="54.37481" lon="24.34616">
        <ele>148.902217</ele>
        <time>2020-10-06T19:41:13.847Z</time>
      </trkpt>
      <trkpt lat="54.3742" lon="24.34564">
        <ele>148.842121</ele>
        <time>2020-10-06T19:41:29.906Z</time>
      </trkpt>
      <trkpt lat="54.37335" lon="24.34474">
        <ele>148.739292</ele>
        <time>2020-10-06T19:41:50.566Z</time>
      </trkpt>
      <trkpt lat="54.37304" lon="24.34459">
        <ele>148.457868</ele>
        <time>2020-10-06T19:41:56.919Z</time>
      </trkpt>
      <trkpt lat="54.37261" lon="24.34451">
        <ele>148.073228</ele>
        <time>2020-10-06T19:42:05.498Z</time>
      </trkpt>
      <trkpt lat="54.37227" lon="24.34455">
        <ele>147.777228</ele>
        <time>2020-10-06T19:42:11.996Z</time>
      </trkpt>
      <trkpt lat="54.37163" lon="24.34462">
        <ele>147.202408</ele>
        <time>2020-10-06T19:42:24.510Z</time>
      </trkpt>
      <trkpt lat="54.37133" lon="24.34468">
        <ele>146.843314</ele>
        <time>2020-10-06T19:42:30.180Z</time>
      </trkpt>
      <trkpt lat="54.37105" lon="24.34475">
        <ele>146.487877</ele>
        <time>2020-10-06T19:42:35.527Z</time>
      </trkpt>
      <trkpt lat="54.37056" lon="24.34491">
        <ele>145.851109</ele>
        <time>2020-10-06T19:42:45.257Z</time>
      </trkpt>
      <trkpt lat="54.37023" lon="24.34499">
        <ele>145.429119</ele>
        <time>2020-10-06T19:42:51.648Z</time>
      </trkpt>
      <trkpt lat="54.36896" lon="24.34516">
        <ele>142.932319</ele>
        <time>2020-10-06T19:43:14.358Z</time>
      </trkpt>
      <trkpt lat="54.36868" lon="24.34512">
        <ele>142.28735</ele>
        <time>2020-10-06T19:43:19.114Z</time>
      </trkpt>
      <trkpt lat="54.36849" lon="24.34508">
        <ele>141.850519</ele>
        <time>2020-10-06T19:43:22.428Z</time>
      </trkpt>
      <trkpt lat="54.36832" lon="24.34505">
        <ele>141.463586</ele>
        <time>2020-10-06T19:43:25.185Z</time>
      </trkpt>
      <trkpt lat="54.36823" lon="24.34505">
        <ele>141.248615</ele>
        <time>2020-10-06T19:43:26.818Z</time>
      </trkpt>
      <trkpt lat="54.36815" lon="24.34506">
        <ele>141.063101</ele>
        <time>2020-10-06T19:43:28.148Z</time>
      </trkpt>
      <trkpt lat="54.36804" lon="24.34511">
        <ele>140.803082</ele>
        <time>2020-10-06T19:43:29.951Z</time>
      </trkpt>
      <trkpt lat="54.36792" lon="24.34513">
        <ele>140.414571</ele>
        <time>2020-10-06T19:43:32.121Z</time>
      </trkpt>
      <trkpt lat="54.3679" lon="24.3451">
        <ele>140.345014</ele>
        <time>2020-10-06T19:43:32.507Z</time>
      </trkpt>
      <trkpt lat="54.36787" lon="24.34508">
        <ele>140.235108</ele>
        <time>2020-10-06T19:43:33.059Z</time>
      </trkpt>
      <trkpt lat="54.36784" lon="24.34507">
        <ele>140.127669</ele>
        <time>2020-10-06T19:43:33.608Z</time>
      </trkpt>
      <trkpt lat="54.36781" lon="24.34508">
        <ele>140.016979</ele>
        <time>2020-10-06T19:43:34.129Z</time>
      </trkpt>
      <trkpt lat="54.36778" lon="24.3451">
        <ele>139.908004</ele>
        <time>2020-10-06T19:43:34.656Z</time>
      </trkpt>
      <trkpt lat="54.36776" lon="24.34514">
        <ele>139.804385</ele>
        <time>2020-10-06T19:43:35.155Z</time>
      </trkpt>
      <trkpt lat="54.36775" lon="24.34519">
        <ele>139.69902</ele>
        <time>2020-10-06T19:43:35.667Z</time>
      </trkpt>
      <trkpt lat="54.36775" lon="24.3452">
        <ele>139.675692</ele>
        <time>2020-10-06T19:43:35.770Z</time>
      </trkpt>
      <trkpt lat="54.36763" lon="24.34535">
        <ele>139.204357</ele>
        <time>2020-10-06T19:43:38.057Z</time>
      </trkpt>
      <trkpt lat="54.36721" lon="24.34558">
        <ele>137.758336</ele>
        <time>2020-10-06T19:43:45.307Z</time>
      </trkpt>
      <trkpt lat="54.36574" lon="24.34643">
        <ele>133.961213</ele>
        <time>2020-10-06T19:44:12.006Z</time>
      </trkpt>
      <trkpt lat="54.36565" lon="24.34649">
        <ele>133.844631</ele>
        <time>2020-10-06T19:44:13.636Z</time>
      </trkpt>
      <trkpt lat="54.36705" lon="24.35186">
        <ele>133.23375</ele>
        <time>2020-10-06T19:45:31.604Z</time>
      </trkpt>
      <trkpt lat="54.3681" lon="24.35588">
        <ele>135.481963</ele>
        <time>2020-10-06T19:46:40.846Z</time>
      </trkpt>
      <trkpt lat="54.36859" lon="24.35779">
        <ele>136.026286</ele>
        <time>2020-10-06T19:47:09.510Z</time>
      </trkpt>
      <trkpt lat="54.36883" lon="24.35874">
        <ele>136.128269</ele>
        <time>2020-10-06T19:47:22.951Z</time>
      </trkpt>
      <trkpt lat="54.36891" lon="24.35909">
        <ele>136.165257</ele>
        <time>2020-10-06T19:47:27.835Z</time>
      </trkpt>
      <trkpt lat="54.369" lon="24.35951">
        <ele>136.211808</ele>
        <time>2020-10-06T19:47:33.584Z</time>
      </trkpt>
      <trkpt lat="54.36917" lon="24.36023">
        <ele>136.316399</ele>
        <time>2020-10-06T19:47:46.918Z</time>
      </trkpt>
      <trkpt lat="54.36905" lon="24.36132">
        <ele>136.466433</ele>
        <time>2020-10-06T19:48:01.288Z</time>
      </trkpt>
      <trkpt lat="54.36896" lon="24.36218">
        <ele>136.584222</ele>
        <time>2020-10-06T19:48:13.510Z</time>
      </trkpt>
      <trkpt lat="54.36877" lon="24.36385">
        <ele>137.437698</ele>
        <time>2020-10-06T19:48:39.439Z</time>
      </trkpt>
      <trkpt lat="54.36866" lon="24.3648">
        <ele>137.981859</ele>
        <time>2020-10-06T19:48:54.840Z</time>
      </trkpt>
      <trkpt lat="54.36839" lon="24.36724">
        <ele>138.870629</ele>
        <time>2020-10-06T19:49:32.578Z</time>
      </trkpt>
      <trkpt lat="54.36656" lon="24.36694">
        <ele>138.917044</ele>
        <time>2020-10-06T19:50:13.545Z</time>
      </trkpt>
      <trkpt lat="54.36629" lon="24.36698">
        <ele>138.838163</ele>
        <time>2020-10-06T19:50:19.437Z</time>
      </trkpt>
      <trkpt lat="54.36614" lon="24.36708">
        <ele>138.793871</ele>
        <time>2020-10-06T19:50:22.739Z</time>
      </trkpt>
      <trkpt lat="54.36365" lon="24.37105">
        <ele>137.59281</ele>
        <time>2020-10-06T19:51:37.792Z</time>
      </trkpt>
      <trkpt lat="54.36351" lon="24.37126">
        <ele>137.517478</ele>
        <time>2020-10-06T19:51:41.822Z</time>
      </trkpt>
      <trkpt lat="54.36329" lon="24.3716">
        <ele>137.394667</ele>
        <time>2020-10-06T19:51:48.012Z</time>
      </trkpt>
      <trkpt lat="54.36188" lon="24.37372">
        <ele>136.295887</ele>
        <time>2020-10-06T19:52:27.783Z</time>
      </trkpt>
      <trkpt lat="54.3615" lon="24.3743">
        <ele>135.977735</ele>
        <time>2020-10-06T19:52:38.678Z</time>
      </trkpt>
      <trkpt lat="54.361" lon="24.37504">
        <ele>135.567256</ele>
        <time>2020-10-06T19:52:52.575Z</time>
      </trkpt>
      <trkpt lat="54.36034" lon="24.37619">
        <ele>134.886672</ele>
        <time>2020-10-06T19:53:12.473Z</time>
      </trkpt>
      <trkpt lat="54.3599" lon="24.3769">
        <ele>134.366039</ele>
        <time>2020-10-06T19:53:24.784Z</time>
      </trkpt>
      <trkpt lat="54.35939" lon="24.37775">
        <ele>133.758554</ele>
        <time>2020-10-06T19:53:39.216Z</time>
      </trkpt>
      <trkpt lat="54.3591" lon="24.37824">
        <ele>133.468217</ele>
        <time>2020-10-06T19:53:47.655Z</time>
      </trkpt>
      <trkpt lat="54.35855" lon="24.37934">
        <ele>132.897164</ele>
        <time>2020-10-06T19:54:05.326Z</time>
      </trkpt>
      <trkpt lat="54.35793" lon="24.38026">
        <ele>132.379698</ele>
        <time>2020-10-06T19:54:22.875Z</time>
      </trkpt>
      <trkpt lat="54.35786" lon="24.38049">
        <ele>132.310371</ele>
        <time>2020-10-06T19:54:26.165Z</time>
      </trkpt>
      <trkpt lat="54.35761" lon="24.38216">
        <ele>131.844424</ele>
        <time>2020-10-06T19:54:48.299Z</time>
      </trkpt>
      <trkpt lat="54.35759" lon="24.38244">
        <ele>131.767161</ele>
        <time>2020-10-06T19:54:51.974Z</time>
      </trkpt>
      <trkpt lat="54.35772" lon="24.38342">
        <ele>131.347054</ele>
        <time>2020-10-06T19:55:12.495Z</time>
      </trkpt>
      <trkpt lat="54.35764" lon="24.38516">
        <ele>130.376357</ele>
        <time>2020-10-06T19:55:46.998Z</time>
      </trkpt>
      <trkpt lat="54.35765" lon="24.38791">
        <ele>128.746535</ele>
        <time>2020-10-06T19:56:39.992Z</time>
      </trkpt>
      <trkpt lat="54.35757" lon="24.38889">
        <ele>128.143376</ele>
        <time>2020-10-06T19:56:59.659Z</time>
      </trkpt>
      <trkpt lat="54.35756" lon="24.39108">
        <ele>128.229455</ele>
        <time>2020-10-06T19:57:46.520Z</time>
      </trkpt>
      <trkpt lat="54.35756" lon="24.39152">
        <ele>128.271889</ele>
        <time>2020-10-06T19:57:56.726Z</time>
      </trkpt>
      <trkpt lat="54.35756" lon="24.39308">
        <ele>128.85342</ele>
        <time>2020-10-06T19:58:33.932Z</time>
      </trkpt>
      <trkpt lat="54.3575" lon="24.39375">
        <ele>129.234581</ele>
        <time>2020-10-06T19:58:50.630Z</time>
      </trkpt>
      <trkpt lat="54.35754" lon="24.39396">
        <ele>129.356605</ele>
        <time>2020-10-06T19:58:55.895Z</time>
      </trkpt>
      <trkpt lat="54.35751" lon="24.39618">
        <ele>130.336642</ele>
        <time>2020-10-06T19:59:48.915Z</time>
      </trkpt>
      <trkpt lat="54.35723" lon="24.39672">
        <ele>130.539822</ele>
        <time>2020-10-06T20:00:05.408Z</time>
      </trkpt>
      <trkpt lat="54.35714" lon="24.39701">
        <ele>130.631314</ele>
        <time>2020-10-06T20:00:12.733Z</time>
      </trkpt>
      <trkpt lat="54.35669" lon="24.39953">
        <ele>131.161141</ele>
        <time>2020-10-06T20:01:10.207Z</time>
      </trkpt>
      <trkpt lat="54.35654" lon="24.40016">
        <ele>131.260974</ele>
        <time>2020-10-06T20:01:25.462Z</time>
      </trkpt>
      <trkpt lat="54.3565" lon="24.40024">
        <ele>131.276665</ele>
        <time>2020-10-06T20:01:27.880Z</time>
      </trkpt>
      <trkpt lat="54.35645" lon="24.40036">
        <ele>131.298688</ele>
        <time>2020-10-06T20:01:31.199Z</time>
      </trkpt>
      <trkpt lat="54.35606" lon="24.40115">
        <ele>131.479583</ele>
        <time>2020-10-06T20:01:54.914Z</time>
      </trkpt>
      <trkpt lat="54.3559" lon="24.40145">
        <ele>131.566386</ele>
        <time>2020-10-06T20:02:04.253Z</time>
      </trkpt>
      <trkpt lat="54.35548" lon="24.40181">
        <ele>131.739896</ele>
        <time>2020-10-06T20:02:23.090Z</time>
      </trkpt>
      <trkpt lat="54.35484" lon="24.40216">
        <ele>131.984386</ele>
        <time>2020-10-06T20:02:48.908Z</time>
      </trkpt>
      <trkpt lat="54.35416" lon="24.40236">
        <ele>131.823805</ele>
        <time>2020-10-06T20:03:13.576Z</time>
      </trkpt>
      <trkpt lat="54.35392" lon="24.40259">
        <ele>131.70727</ele>
        <time>2020-10-06T20:03:23.126Z</time>
      </trkpt>
      <trkpt lat="54.35284" lon="24.40358">
        <ele>131.317467</ele>
        <time>2020-10-06T20:04:06.117Z</time>
      </trkpt>
      <trkpt lat="54.35229" lon="24.40404">
        <ele>131.418102</ele>
        <time>2020-10-06T20:04:28.196Z</time>
      </trkpt>
      <trkpt lat="54.35159" lon="24.40524">
        <ele>131.591701</ele>
        <time>2020-10-06T20:05:07.177Z</time>
      </trkpt>
      <trkpt lat="54.35095" lon="24.40591">
        <ele>132.053648</ele>
        <time>2020-10-06T20:05:37.847Z</time>
      </trkpt>
      <trkpt lat="54.35058" lon="24.40646">
        <ele>132.352946</ele>
        <time>2020-10-06T20:05:57.312Z</time>
      </trkpt>
      <trkpt lat="54.35022" lon="24.40683">
        <ele>132.609304</ele>
        <time>2020-10-06T20:06:13.724Z</time>
      </trkpt>
      <trkpt lat="54.34931" lon="24.40741">
        <ele>132.567385</ele>
        <time>2020-10-06T20:06:50.329Z</time>
      </trkpt>
      <trkpt lat="54.34901" lon="24.40768">
        <ele>132.521984</ele>
        <time>2020-10-06T20:07:02.567Z</time>
      </trkpt>
      <trkpt lat="54.34766" lon="24.40932">
        <ele>132.031648</ele>
        <time>2020-10-06T20:08:00.973Z</time>
      </trkpt>
      <trkpt lat="54.34735" lon="24.40957">
        <ele>131.895499</ele>
        <time>2020-10-06T20:08:13.304Z</time>
      </trkpt>
      <trkpt lat="54.34659" lon="24.40993">
        <ele>131.740497</ele>
        <time>2020-10-06T20:08:41.605Z</time>
      </trkpt>
      <trkpt lat="54.34566" lon="24.41092">
        <ele>131.748786</ele>
        <time>2020-10-06T20:09:22.187Z</time>
      </trkpt>
      <trkpt lat="54.34519" lon="24.41104">
        <ele>131.831313</ele>
        <time>2020-10-06T20:09:40.382Z</time>
      </trkpt>
      <trkpt lat="54.34397" lon="24.41163">
        <ele>132.46908</ele>
        <time>2020-10-06T20:10:30.413Z</time>
      </trkpt>
      <trkpt lat="54.34339" lon="24.41224">
        <ele>132.599873</ele>
        <time>2020-10-06T20:10:57.334Z</time>
      </trkpt>
      <trkpt lat="54.34317" lon="24.41236">
        <ele>132.553614</ele>
        <time>2020-10-06T20:11:05.994Z</time>
      </trkpt>
      <trkpt lat="54.34294" lon="24.4124">
        <ele>132.508472</ele>
        <time>2020-10-06T20:11:14.495Z</time>
      </trkpt>
      <trkpt lat="54.34268" lon="24.41241">
        <ele>132.456712</ele>
        <time>2020-10-06T20:11:23.949Z</time>
      </trkpt>
      <trkpt lat="54.34128" lon="24.41173">
        <ele>131.661294</ele>
        <time>2020-10-06T20:12:14.348Z</time>
      </trkpt>
      <trkpt lat="54.34083" lon="24.4116">
        <ele>131.234603</ele>
        <time>2020-10-06T20:12:29.237Z</time>
      </trkpt>
      <trkpt lat="54.33776" lon="24.41164">
        <ele>129.496284</ele>
        <time>2020-10-06T20:14:14.867Z</time>
      </trkpt>
      <trkpt lat="54.33749" lon="24.41154">
        <ele>129.597228</ele>
        <time>2020-10-06T20:14:26.030Z</time>
      </trkpt>
      <trkpt lat="54.3368" lon="24.41116">
        <ele>129.85164</ele>
        <time>2020-10-06T20:14:55.346Z</time>
      </trkpt>
      <trkpt lat="54.33604" lon="24.4107">
        <ele>130.607843</ele>
        <time>2020-10-06T20:15:29.976Z</time>
      </trkpt>
      <trkpt lat="54.33561" lon="24.41052">
        <ele>131.105919</ele>
        <time>2020-10-06T20:15:49.042Z</time>
      </trkpt>
      <trkpt lat="54.33491" lon="24.41044">
        <ele>131.887576</ele>
        <time>2020-10-06T20:16:17.546Z</time>
      </trkpt>
      <trkpt lat="54.33465" lon="24.41049">
        <ele>131.907976</ele>
        <time>2020-10-06T20:16:27.855Z</time>
      </trkpt>
      <trkpt lat="54.33434" lon="24.41069">
        <ele>131.87953</ele>
        <time>2020-10-06T20:16:40.547Z</time>
      </trkpt>
      <trkpt lat="54.33081" lon="24.41395">
        <ele>131.262663</ele>
        <time>2020-10-06T20:19:06.019Z</time>
      </trkpt>
      <trkpt lat="54.3295" lon="24.41516">
        <ele>130.75726</ele>
        <time>2020-10-06T20:19:58.571Z</time>
      </trkpt>
      <trkpt lat="54.32922" lon="24.41541">
        <ele>130.661038</ele>
        <time>2020-10-06T20:20:09.808Z</time>
      </trkpt>
      <trkpt lat="54.32671" lon="24.4177">
        <ele>130.316834</ele>
        <time>2020-10-06T20:21:54.245Z</time>
      </trkpt>
      <trkpt lat="54.32642" lon="24.41813">
        <ele>130.40133</ele>
        <time>2020-10-06T20:22:08.930Z</time>
      </trkpt>
      <trkpt lat="54.32595" lon="24.41913">
        <ele>130.562969</ele>
        <time>2020-10-06T20:22:37.195Z</time>
      </trkpt>
      <trkpt lat="54.32566" lon="24.41804">
        <ele>130.805695</ele>
        <time>2020-10-06T20:23:04.286Z</time>
      </trkpt>
      <trkpt lat="54.3254" lon="24.41754">
        <ele>131.030643</ele>
        <time>2020-10-06T20:23:19.344Z</time>
      </trkpt>
      <trkpt lat="54.32376" lon="24.41514">
        <ele>132.537472</ele>
        <time>2020-10-06T20:24:45.557Z</time>
      </trkpt>
      <trkpt lat="54.3231" lon="24.41397">
        <ele>133.323978</ele>
        <time>2020-10-06T20:25:24.637Z</time>
      </trkpt>
      <trkpt lat="54.32271" lon="24.41316">
        <ele>133.801915</ele>
        <time>2020-10-06T20:25:49.546Z</time>
      </trkpt>
      <trkpt lat="54.32251" lon="24.41253">
        <ele>134.128781</ele>
        <time>2020-10-06T20:26:06.480Z</time>
      </trkpt>
      <trkpt lat="54.32237" lon="24.41228">
        <ele>134.288226</ele>
        <time>2020-10-06T20:26:14.659Z</time>
      </trkpt>
      <trkpt lat="54.32223" lon="24.41214">
        <ele>134.413079</ele>
        <time>2020-10-06T20:26:21.058Z</time>
      </trkpt>
      <trkpt lat="54.32173" lon="24.4119">
        <ele>134.703839</ele>
        <time>2020-10-06T20:26:41.427Z</time>
      </trkpt>
      <trkpt lat="54.32158" lon="24.41172">
        <ele>134.767364</ele>
        <time>2020-10-06T20:26:48.577Z</time>
      </trkpt>
      <trkpt lat="54.32129" lon="24.41098">
        <ele>134.950082</ele>
        <time>2020-10-06T20:27:08.935Z</time>
      </trkpt>
      <trkpt lat="54.32082" lon="24.41012">
        <ele>135.18785</ele>
        <time>2020-10-06T20:27:35.024Z</time>
      </trkpt>
      <trkpt lat="54.32063" lon="24.4095">
        <ele>135.219483</ele>
        <time>2020-10-06T20:27:50.490Z</time>
      </trkpt>
      <trkpt lat="54.31963" lon="24.40444">
        <ele>134.880382</ele>
        <time>2020-10-06T20:29:44.629Z</time>
      </trkpt>
      <trkpt lat="54.31935" lon="24.40182">
        <ele>134.574648</ele>
        <time>2020-10-06T20:30:41.098Z</time>
      </trkpt>
      <trkpt lat="54.31913" lon="24.40073">
        <ele>134.478874</ele>
        <time>2020-10-06T20:31:05.490Z</time>
      </trkpt>
      <trkpt lat="54.31878" lon="24.39949">
        <ele>134.475883</ele>
        <time>2020-10-06T20:31:35.104Z</time>
      </trkpt>
      <trkpt lat="54.31869" lon="24.39917">
        <ele>134.475106</ele>
        <time>2020-10-06T20:31:42.892Z</time>
      </trkpt>
      <trkpt lat="54.31818" lon="24.39829">
        <ele>134.491073</ele>
        <time>2020-10-06T20:32:10.237Z</time>
      </trkpt>
      <trkpt lat="54.31632" lon="24.39647">
        <ele>134.488633</ele>
        <time>2020-10-06T20:33:30.909Z</time>
      </trkpt>
      <trkpt lat="54.31592" lon="24.3962">
        <ele>134.296809</ele>
        <time>2020-10-06T20:33:46.218Z</time>
      </trkpt>
      <trkpt lat="54.31556" lon="24.39591">
        <ele>134.122597</ele>
        <time>2020-10-06T20:33:59.877Z</time>
      </trkpt>
      <trkpt lat="54.31511" lon="24.39532">
        <ele>133.863651</ele>
        <time>2020-10-06T20:34:19.330Z</time>
      </trkpt>
      <trkpt lat="54.31458" lon="24.39491">
        <ele>133.538472</ele>
        <time>2020-10-06T20:34:39.414Z</time>
      </trkpt>
      <trkpt lat="54.31416" lon="24.39423">
        <ele>133.221238</ele>
        <time>2020-10-06T20:34:59.500Z</time>
      </trkpt>
      <trkpt lat="54.31343" lon="24.39346">
        <ele>132.964102</ele>
        <time>2020-10-06T20:35:30.616Z</time>
      </trkpt>
      <trkpt lat="54.31252" lon="24.3931">
        <ele>133.120601</ele>
        <time>2020-10-06T20:36:05.642Z</time>
      </trkpt>
      <trkpt lat="54.31226" lon="24.39306">
        <ele>133.164722</ele>
        <time>2020-10-06T20:36:15.716Z</time>
      </trkpt>
      <trkpt lat="54.30898" lon="24.39363">
        <ele>135.193862</ele>
        <time>2020-10-06T20:38:25.875Z</time>
      </trkpt>
      <trkpt lat="54.30599" lon="24.39547">
        <ele>137.994671</ele>
        <time>2020-10-06T20:40:37.560Z</time>
      </trkpt>
      <trkpt lat="54.30525" lon="24.39562">
        <ele>138.40155</ele>
        <time>2020-10-06T20:41:06.611Z</time>
      </trkpt>
      <trkpt lat="54.3052" lon="24.39595">
        <ele>138.512593</ele>
        <time>2020-10-06T20:41:14.407Z</time>
      </trkpt>
      <trkpt lat="54.30342" lon="24.39759">
        <ele>137.490107</ele>
        <time>2020-10-06T20:42:24.425Z</time>
      </trkpt>
      <trkpt lat="54.30314" lon="24.39778">
        <ele>137.434802</ele>
        <time>2020-10-06T20:42:34.820Z</time>
      </trkpt>
      <trkpt lat="54.30296" lon="24.39779">
        <ele>137.401708</ele>
        <time>2020-10-06T20:42:40.818Z</time>
      </trkpt>
      <trkpt lat="54.30205" lon="24.3974">
        <ele>137.227232</ele>
        <time>2020-10-06T20:43:15.548Z</time>
      </trkpt>
      <trkpt lat="54.30193" lon="24.39737">
        <ele>137.203818</ele>
        <time>2020-10-06T20:43:19.964Z</time>
      </trkpt>
      <trkpt lat="54.30176" lon="24.39741">
        <ele>137.205757</ele>
        <time>2020-10-06T20:43:26.945Z</time>
      </trkpt>
      <trkpt lat="54.30113" lon="24.39788">
        <ele>137.543928</ele>
        <time>2020-10-06T20:43:53.783Z</time>
      </trkpt>
      <trkpt lat="54.29837" lon="24.4012">
        <ele>138.888923</ele>
        <time>2020-10-06T20:46:06.286Z</time>
      </trkpt>
      <trkpt lat="54.29806" lon="24.40135">
        <ele>138.814136</ele>
        <time>2020-10-06T20:46:18.299Z</time>
      </trkpt>
      <trkpt lat="54.29389" lon="24.40134">
        <ele>137.547326</ele>
        <time>2020-10-06T20:48:46.832Z</time>
      </trkpt>
      <trkpt lat="54.29153" lon="24.40133">
        <ele>136.387716</ele>
        <time>2020-10-06T20:50:09.393Z</time>
      </trkpt>
      <trkpt lat="54.29136" lon="24.40128">
        <ele>136.344385</ele>
        <time>2020-10-06T20:50:15.867Z</time>
      </trkpt>
      <trkpt lat="54.29059" lon="24.40069">
        <ele>136.142193</ele>
        <time>2020-10-06T20:50:46.350Z</time>
      </trkpt>
      <trkpt lat="54.29026" lon="24.40038">
        <ele>136.049215</ele>
        <time>2020-10-06T20:51:00.540Z</time>
      </trkpt>
      <trkpt lat="54.28994" lon="24.40001">
        <ele>135.960583</ele>
        <time>2020-10-06T20:51:14.888Z</time>
      </trkpt>
      <trkpt lat="54.28688" lon="24.39601">
        <ele>134.753663</ele>
        <time>2020-10-06T20:53:34.226Z</time>
      </trkpt>
      <trkpt lat="54.28618" lon="24.39536">
        <ele>134.00559</ele>
        <time>2020-10-06T20:54:00.693Z</time>
      </trkpt>
      <trkpt lat="54.2854" lon="24.39464">
        <ele>133.169906</ele>
        <time>2020-10-06T20:54:30.144Z</time>
      </trkpt>
      <trkpt lat="54.2853" lon="24.39457">
        <ele>133.070131</ele>
        <time>2020-10-06T20:54:33.435Z</time>
      </trkpt>
      <trkpt lat="54.28505" lon="24.39453">
        <ele>132.834953</ele>
        <time>2020-10-06T20:54:41.918Z</time>
      </trkpt>
      <trkpt lat="54.28365" lon="24.39478">
        <ele>131.827765</ele>
        <time>2020-10-06T20:55:30.305Z</time>
      </trkpt>
      <trkpt lat="54.28285" lon="24.39481">
        <ele>132.096318</ele>
        <time>2020-10-06T20:56:00.560Z</time>
      </trkpt>
      <trkpt lat="54.28056" lon="24.39534">
        <ele>133.989009</ele>
        <time>2020-10-06T20:57:35.914Z</time>
      </trkpt>
      <trkpt lat="54.27956" lon="24.39569">
        <ele>135.025631</ele>
        <time>2020-10-06T20:58:18.608Z</time>
      </trkpt>
      <trkpt lat="54.27922" lon="24.3958">
        <ele>135.374657</ele>
        <time>2020-10-06T20:58:32.839Z</time>
      </trkpt>
      <trkpt lat="54.27813" lon="24.39606">
        <ele>136.230119</ele>
        <time>2020-10-06T20:59:17.256Z</time>
      </trkpt>
      <trkpt lat="54.27638" lon="24.39635">
        <ele>136.897709</ele>
        <time>2020-10-06T21:00:24.508Z</time>
      </trkpt>
      <trkpt lat="54.2746" lon="24.39651">
        <ele>137.3818</ele>
        <time>2020-10-06T21:01:32.654Z</time>
      </trkpt>
      <trkpt lat="54.27415" lon="24.39661">
        <ele>137.491193</ele>
        <time>2020-10-06T21:01:49.761Z</time>
      </trkpt>
      <trkpt lat="54.27385" lon="24.39662">
        <ele>137.565313</ele>
        <time>2020-10-06T21:02:01.405Z</time>
      </trkpt>
      <trkpt lat="54.27367" lon="24.3966">
        <ele>137.609991</ele>
        <time>2020-10-06T21:02:08.420Z</time>
      </trkpt>
      <trkpt lat="54.27371" lon="24.39499">
        <ele>137.764663</ele>
        <time>2020-10-06T21:02:30.146Z</time>
      </trkpt>
      <trkpt lat="54.27368" lon="24.3943">
        <ele>137.797143</ele>
        <time>2020-10-06T21:02:39.103Z</time>
      </trkpt>
      <trkpt lat="54.27361" lon="24.39378">
        <ele>137.822249</ele>
        <time>2020-10-06T21:02:46.232Z</time>
      </trkpt>
      <trkpt lat="54.27353" lon="24.39349">
        <ele>137.837318</ele>
        <time>2020-10-06T21:02:50.324Z</time>
      </trkpt>
      <trkpt lat="54.27319" lon="24.39271">
        <ele>137.88237</ele>
        <time>2020-10-06T21:03:03.236Z</time>
      </trkpt>
      <trkpt lat="54.27252" lon="24.39165">
        <ele>137.952558</ele>
        <time>2020-10-06T21:03:23.333Z</time>
      </trkpt>
      <trkpt lat="54.27194" lon="24.39053">
        <ele>138.023398</ele>
        <time>2020-10-06T21:03:43.458Z</time>
      </trkpt>
      <trkpt lat="54.27163" lon="24.38999">
        <ele>138.069919</ele>
        <time>2020-10-06T21:03:53.693Z</time>
      </trkpt>
      <trkpt lat="54.27147" lon="24.38969">
        <ele>138.095139</ele>
        <time>2020-10-06T21:03:59.256Z</time>
      </trkpt>
      <trkpt lat="54.27125" lon="24.3893">
        <ele>138.128271</ele>
        <time>2020-10-06T21:04:06.576Z</time>
      </trkpt>
      <trkpt lat="54.26935" lon="24.38588">
        <ele>138.074798</ele>
        <time>2020-10-06T21:05:07.747Z</time>
      </trkpt>
      <trkpt lat="54.26819" lon="24.38349">
        <ele>137.509173</ele>
        <time>2020-10-06T21:05:45.666Z</time>
      </trkpt>
      <trkpt lat="54.26788" lon="24.38276">
        <ele>137.318747</ele>
        <time>2020-10-06T21:05:56.862Z</time>
      </trkpt>
      <trkpt lat="54.26768" lon="24.38175">
        <ele>137.096527</ele>
        <time>2020-10-06T21:06:09.983Z</time>
      </trkpt>
      <trkpt lat="54.26744" lon="24.38044">
        <ele>136.841883</ele>
        <time>2020-10-06T21:06:26.970Z</time>
      </trkpt>
      <trkpt lat="54.26654" lon="24.37461">
        <ele>136.223057</ele>
        <time>2020-10-06T21:07:41.999Z</time>
      </trkpt>
      <trkpt lat="54.2656" lon="24.36854">
        <ele>138.540528</ele>
        <time>2020-10-06T21:09:13.544Z</time>
      </trkpt>
      <trkpt lat="54.26491" lon="24.36406">
        <ele>142.325</ele>
        <time>2020-10-06T21:10:28.099Z</time>
      </trkpt>
      <trkpt lat="54.26396" lon="24.358">
        <ele>150.454165</ele>
        <time>2020-10-06T21:12:29.128Z</time>
      </trkpt>
      <trkpt lat="54.26388" lon="24.35742">
        <ele>151.100648</ele>
        <time>2020-10-06T21:12:37.448Z</time>
      </trkpt>
      <trkpt lat="54.26369" lon="24.3561">
        <ele>148.749724</ele>
        <time>2020-10-06T21:12:52.207Z</time>
      </trkpt>
      <trkpt lat="54.26347" lon="24.35489">
        <ele>146.389898</ele>
        <time>2020-10-06T21:13:03.656Z</time>
      </trkpt>
      <trkpt lat="54.26315" lon="24.35349">
        <ele>142.355116</ele>
        <time>2020-10-06T21:13:16.622Z</time>
      </trkpt>
      <trkpt lat="54.26299" lon="24.35288">
        <ele>140.278653</ele>
        <time>2020-10-06T21:13:22.335Z</time>
      </trkpt>
      <trkpt lat="54.26255" lon="24.35165">
        <ele>135.852824</ele>
        <time>2020-10-06T21:13:35.087Z</time>
      </trkpt>
      <trkpt lat="54.26226" lon="24.35102">
        <ele>134.815205</ele>
        <time>2020-10-06T21:13:42.535Z</time>
      </trkpt>
      <trkpt lat="54.2615" lon="24.34965">
        <ele>132.356071</ele>
        <time>2020-10-06T21:14:02.597Z</time>
      </trkpt>
      <trkpt lat="54.26033" lon="24.34805">
        <ele>131.408445</ele>
        <time>2020-10-06T21:14:33.844Z</time>
      </trkpt>
      <trkpt lat="54.25861" lon="24.34563">
        <ele>131.017543</ele>
        <time>2020-10-06T21:15:23.101Z</time>
      </trkpt>
      <trkpt lat="54.2507" lon="24.33453">
        <ele>124.106488</ele>
        <time>2020-10-06T21:18:47.806Z</time>
      </trkpt>
      <trkpt lat="54.25006" lon="24.33363">
        <ele>123.72668</ele>
        <time>2020-10-06T21:19:05.378Z</time>
      </trkpt>
      <trkpt lat="54.24837" lon="24.33118">
        <ele>123.481035</ele>
        <time>2020-10-06T21:19:53.278Z</time>
      </trkpt>
      <trkpt lat="54.24744" lon="24.32986">
        <ele>123.605947</ele>
        <time>2020-10-06T21:20:22.108Z</time>
      </trkpt>
      <trkpt lat="54.24734" lon="24.32965">
        <ele>123.571504</ele>
        <time>2020-10-06T21:20:25.295Z</time>
      </trkpt>
      <trkpt lat="54.2473" lon="24.32947">
        <ele>123.546324</ele>
        <time>2020-10-06T21:20:27.984Z</time>
      </trkpt>
      <trkpt lat="54.24727" lon="24.32915">
        <ele>123.505928</ele>
        <time>2020-10-06T21:20:32.113Z</time>
      </trkpt>
      <trkpt lat="54.24725" lon="24.32833">
        <ele>123.399963</ele>
        <time>2020-10-06T21:20:42.576Z</time>
      </trkpt>
      <trkpt lat="54.24723" lon="24.32809">
        <ele>123.369886</ele>
        <time>2020-10-06T21:20:46.006Z</time>
      </trkpt>
      <trkpt lat="54.2472" lon="24.32794">
        <ele>123.349227</ele>
        <time>2020-10-06T21:20:47.747Z</time>
      </trkpt>
      <trkpt lat="54.24703" lon="24.32772">
        <ele>123.30196</ele>
        <time>2020-10-06T21:20:52.074Z</time>
      </trkpt>
      <trkpt lat="54.2461" lon="24.32721">
        <ele>123.252251</ele>
        <time>2020-10-06T21:21:12.120Z</time>
      </trkpt>
      <trkpt lat="54.24581" lon="24.32693">
        <ele>123.275524</ele>
        <time>2020-10-06T21:21:19.556Z</time>
      </trkpt>
      <trkpt lat="54.24573" lon="24.32673">
        <ele>123.285357</ele>
        <time>2020-10-06T21:21:22.404Z</time>
      </trkpt>
      <trkpt lat="54.2457" lon="24.32653">
        <ele>123.293615</ele>
        <time>2020-10-06T21:21:25.485Z</time>
      </trkpt>
      <trkpt lat="54.24563" lon="24.32633">
        <ele>123.302925</ele>
        <time>2020-10-06T21:21:28.623Z</time>
      </trkpt>
      <trkpt lat="54.24557" lon="24.32626">
        <ele>123.308298</ele>
        <time>2020-10-06T21:21:30.267Z</time>
      </trkpt>
      <trkpt lat="54.24524" lon="24.32617">
        <ele>123.331099</ele>
        <time>2020-10-06T21:21:38.456Z</time>
      </trkpt>
      <trkpt lat="54.24501" lon="24.32612">
        <ele>123.517673</ele>
        <time>2020-10-06T21:21:44.800Z</time>
      </trkpt>
      <trkpt lat="54.24443" lon="24.32606">
        <ele>124.254205</ele>
        <time>2020-10-06T21:22:00.052Z</time>
      </trkpt>
      <trkpt lat="54.24402" lon="24.32592">
        <ele>124.787196</ele>
        <time>2020-10-06T21:22:12.321Z</time>
      </trkpt>
      <trkpt lat="54.24375" lon="24.32573">
        <ele>125.155937</ele>
        <time>2020-10-06T21:22:20.675Z</time>
      </trkpt>
      <trkpt lat="54.24344" lon="24.32538">
        <ele>125.626902</ele>
        <time>2020-10-06T21:22:31.072Z</time>
      </trkpt>
      <trkpt lat="54.24329" lon="24.32512">
        <ele>125.896873</ele>
        <time>2020-10-06T21:22:36.934Z</time>
      </trkpt>
      <trkpt lat="54.24282" lon="24.3242">
        <ele>126.76645</ele>
        <time>2020-10-06T21:22:55.662Z</time>
      </trkpt>
      <trkpt lat="54.24136" lon="24.32116">
        <ele>129.887013</ele>
        <time>2020-10-06T21:23:59.076Z</time>
      </trkpt>
      <trkpt lat="54.23949" lon="24.31739">
        <ele>134.036874</ele>
        <time>2020-10-06T21:25:24.490Z</time>
      </trkpt>
      <trkpt lat="54.2391" lon="24.31652">
        <ele>134.377859</ele>
        <time>2020-10-06T21:25:38.870Z</time>
      </trkpt>
      <trkpt lat="54.23885" lon="24.31581">
        <ele>134.570167</ele>
        <time>2020-10-06T21:25:48.764Z</time>
      </trkpt>
      <trkpt lat="54.23854" lon="24.31466">
        <ele>134.086026</ele>
        <time>2020-10-06T21:26:02.873Z</time>
      </trkpt>
      <trkpt lat="54.23801" lon="24.31266">
        <ele>133.429192</ele>
        <time>2020-10-06T21:26:29.178Z</time>
      </trkpt>
      <trkpt lat="54.23758" lon="24.31082">
        <ele>133.430911</ele>
        <time>2020-10-06T21:26:55.755Z</time>
      </trkpt>
      <trkpt lat="54.23752" lon="24.31033">
        <ele>133.431348</ele>
        <time>2020-10-06T21:27:02.607Z</time>
      </trkpt>
      <trkpt lat="54.23747" lon="24.30968">
        <ele>133.235158</ele>
        <time>2020-10-06T21:27:11.254Z</time>
      </trkpt>
      <trkpt lat="54.23744" lon="24.3087">
        <ele>132.877793</ele>
        <time>2020-10-06T21:27:23.618Z</time>
      </trkpt>
      <trkpt lat="54.23753" lon="24.30442">
        <ele>130.463053</ele>
        <time>2020-10-06T21:28:11.130Z</time>
      </trkpt>
      <trkpt lat="54.23739" lon="24.302">
        <ele>129.449722</ele>
        <time>2020-10-06T21:28:38.643Z</time>
      </trkpt>
      <trkpt lat="54.2373" lon="24.30063">
        <ele>129.254081</ele>
        <time>2020-10-06T21:28:56.573Z</time>
      </trkpt>
      <trkpt lat="54.23725" lon="24.2998">
        <ele>129.640336</ele>
        <time>2020-10-06T21:29:08.837Z</time>
      </trkpt>
      <trkpt lat="54.23709" lon="24.29871">
        <ele>130.16572</ele>
        <time>2020-10-06T21:29:26.708Z</time>
      </trkpt>
      <trkpt lat="54.23677" lon="24.2976">
        <ele>130.700227</ele>
        <time>2020-10-06T21:29:46.188Z</time>
      </trkpt>
      <trkpt lat="54.23531" lon="24.29369">
        <ele>131.760227</ele>
        <time>2020-10-06T21:30:52.111Z</time>
      </trkpt>
      <trkpt lat="54.23485" lon="24.29275">
        <ele>131.688538</ele>
        <time>2020-10-06T21:31:06.606Z</time>
      </trkpt>
      <trkpt lat="54.23365" lon="24.29082">
        <ele>130.238755</ele>
        <time>2020-10-06T21:31:38.420Z</time>
      </trkpt>
      <trkpt lat="54.23335" lon="24.29034">
        <ele>130.147778</ele>
        <time>2020-10-06T21:31:46.616Z</time>
      </trkpt>
      <trkpt lat="54.23289" lon="24.28949">
        <ele>130.024041</ele>
        <time>2020-10-06T21:32:00.948Z</time>
      </trkpt>
      <trkpt lat="54.23213" lon="24.28784">
        <ele>130.034385</ele>
        <time>2020-10-06T21:32:29.841Z</time>
      </trkpt>
      <trkpt lat="54.23061" lon="24.28453">
        <ele>130.435933</ele>
        <time>2020-10-06T21:33:27.955Z</time>
      </trkpt>
      <trkpt lat="54.22914" lon="24.28117">
        <ele>129.466959</ele>
        <time>2020-10-06T21:34:17.937Z</time>
      </trkpt>
      <trkpt lat="54.22482" lon="24.27094">
        <ele>124.70714</ele>
        <time>2020-10-06T21:36:46.472Z</time>
      </trkpt>
      <trkpt lat="54.22462" lon="24.27036">
        <ele>124.717614</ele>
        <time>2020-10-06T21:36:54.807Z</time>
      </trkpt>
      <trkpt lat="54.22353" lon="24.26598">
        <ele>125.485997</ele>
        <time>2020-10-06T21:37:59.943Z</time>
      </trkpt>
      <trkpt lat="54.22332" lon="24.26524">
        <ele>125.937058</ele>
        <time>2020-10-06T21:38:12.870Z</time>
      </trkpt>
      <trkpt lat="54.22242" lon="24.26297">
        <ele>128.105642</ele>
        <time>2020-10-06T21:38:58.632Z</time>
      </trkpt>
      <trkpt lat="54.22197" lon="24.26209">
        <ele>128.643355</ele>
        <time>2020-10-06T21:39:17.382Z</time>
      </trkpt>
      <trkpt lat="54.22157" lon="24.26159">
        <ele>129.029754</ele>
        <time>2020-10-06T21:39:30.048Z</time>
      </trkpt>
      <trkpt lat="54.21958" lon="24.2595">
        <ele>129.353085</ele>
        <time>2020-10-06T21:40:22.382Z</time>
      </trkpt>
      <trkpt lat="54.21749" lon="24.25746">
        <ele>127.781722</ele>
        <time>2020-10-06T21:41:10.865Z</time>
      </trkpt>
      <trkpt lat="54.21583" lon="24.25594">
        <ele>126.191888</ele>
        <time>2020-10-06T21:41:46.667Z</time>
      </trkpt>
      <trkpt lat="54.21376" lon="24.25392">
        <ele>125.123442</ele>
        <time>2020-10-06T21:42:37.395Z</time>
      </trkpt>
      <trkpt lat="54.21325" lon="24.25352">
        <ele>124.945481</ele>
        <time>2020-10-06T21:42:49.256Z</time>
      </trkpt>
      <trkpt lat="54.21177" lon="24.25273">
        <ele>124.119504</ele>
        <time>2020-10-06T21:43:20.814Z</time>
      </trkpt>
      <trkpt lat="54.21151" lon="24.25254">
        <ele>123.976664</ele>
        <time>2020-10-06T21:43:26.499Z</time>
      </trkpt>
      <trkpt lat="54.20866" lon="24.24954">
        <ele>122.926437</ele>
        <time>2020-10-06T21:44:36.918Z</time>
      </trkpt>
      <trkpt lat="54.20776" lon="24.24846">
        <ele>123.079825</ele>
        <time>2020-10-06T21:45:02.038Z</time>
      </trkpt>
      <trkpt lat="54.20661" lon="24.24703">
        <ele>123.520154</ele>
        <time>2020-10-06T21:45:35.892Z</time>
      </trkpt>
      <trkpt lat="54.20566" lon="24.24529">
        <ele>124.122923</ele>
        <time>2020-10-06T21:46:09.798Z</time>
      </trkpt>
      <trkpt lat="54.20476" lon="24.24447">
        <ele>124.243781</ele>
        <time>2020-10-06T21:46:33.652Z</time>
      </trkpt>
      <trkpt lat="54.20451" lon="24.24414">
        <ele>124.281814</ele>
        <time>2020-10-06T21:46:40.852Z</time>
      </trkpt>
      <trkpt lat="54.20377" lon="24.24287">
        <ele>123.941853</ele>
        <time>2020-10-06T21:47:02.747Z</time>
      </trkpt>
      <trkpt lat="54.20339" lon="24.24193">
        <ele>123.57059</ele>
        <time>2020-10-06T21:47:16.130Z</time>
      </trkpt>
      <trkpt lat="54.20314" lon="24.24134">
        <ele>123.33215</ele>
        <time>2020-10-06T21:47:24.748Z</time>
      </trkpt>
      <trkpt lat="54.20283" lon="24.24082">
        <ele>123.29183</ele>
        <time>2020-10-06T21:47:33.495Z</time>
      </trkpt>
      <trkpt lat="54.20244" lon="24.24043">
        <ele>123.254658</ele>
        <time>2020-10-06T21:47:42.868Z</time>
      </trkpt>
      <trkpt lat="54.20124" lon="24.23979">
        <ele>123.436083</ele>
        <time>2020-10-06T21:48:12.227Z</time>
      </trkpt>
      <trkpt lat="54.20038" lon="24.23927">
        <ele>124.148149</ele>
        <time>2020-10-06T21:48:35.800Z</time>
      </trkpt>
      <trkpt lat="54.20008" lon="24.23903">
        <ele>124.408197</ele>
        <time>2020-10-06T21:48:44.552Z</time>
      </trkpt>
      <trkpt lat="54.19937" lon="24.23816">
        <ele>125.223811</ele>
        <time>2020-10-06T21:49:07.770Z</time>
      </trkpt>
      <trkpt lat="54.198" lon="24.23629">
        <ele>126.990535</ele>
        <time>2020-10-06T21:49:53.203Z</time>
      </trkpt>
      <trkpt lat="54.1974" lon="24.23509">
        <ele>127.972357</ele>
        <time>2020-10-06T21:50:17.610Z</time>
      </trkpt>
      <trkpt lat="54.19688" lon="24.23445">
        <ele>128.933463</ele>
        <time>2020-10-06T21:50:35.094Z</time>
      </trkpt>
      <trkpt lat="54.19584" lon="24.23377">
        <ele>130.982198</ele>
        <time>2020-10-06T21:51:08.182Z</time>
      </trkpt>
      <trkpt lat="54.19533" lon="24.23352">
        <ele>132.07437</ele>
        <time>2020-10-06T21:51:25.198Z</time>
      </trkpt>
      <trkpt lat="54.19488" lon="24.23343">
        <ele>133.136541</ele>
        <time>2020-10-06T21:51:39.999Z</time>
      </trkpt>
      <trkpt lat="54.19454" lon="24.23346">
        <ele>133.949125</ele>
        <time>2020-10-06T21:51:51.426Z</time>
      </trkpt>
      <trkpt lat="54.19319" lon="24.23379">
        <ele>136.659416</ele>
        <time>2020-10-06T21:52:33.734Z</time>
      </trkpt>
      <trkpt lat="54.19288" lon="24.23376">
        <ele>137.114109</ele>
        <time>2020-10-06T21:52:42.583Z</time>
      </trkpt>
      <trkpt lat="54.19248" lon="24.23353">
        <ele>137.728468</ele>
        <time>2020-10-06T21:52:54.185Z</time>
      </trkpt>
      <trkpt lat="54.1909" lon="24.23182">
        <ele>139.093556</ele>
        <time>2020-10-06T21:53:40.417Z</time>
      </trkpt>
      <trkpt lat="54.18814" lon="24.2282">
        <ele>139.036978</ele>
        <time>2020-10-06T21:54:58.605Z</time>
      </trkpt>
      <trkpt lat="54.18394" lon="24.22374">
        <ele>134.112327</ele>
        <time>2020-10-06T21:56:33.198Z</time>
      </trkpt>
      <trkpt lat="54.18243" lon="24.22244">
        <ele>132.259767</ele>
        <time>2020-10-06T21:57:05.640Z</time>
      </trkpt>
      <trkpt lat="54.18084" lon="24.22066">
        <ele>130.298193</ele>
        <time>2020-10-06T21:57:41.929Z</time>
      </trkpt>
      <trkpt lat="54.18046" lon="24.22016">
        <ele>129.864558</ele>
        <time>2020-10-06T21:57:51.206Z</time>
      </trkpt>
      <trkpt lat="54.18019" lon="24.21968">
        <ele>129.506865</ele>
        <time>2020-10-06T21:57:59.017Z</time>
      </trkpt>
      <trkpt lat="54.17989" lon="24.21893">
        <ele>129.305438</ele>
        <time>2020-10-06T21:58:09.838Z</time>
      </trkpt>
      <trkpt lat="54.17655" lon="24.20959">
        <ele>128.21088</ele>
        <time>2020-10-06T22:00:28.625Z</time>
      </trkpt>
      <trkpt lat="54.17642" lon="24.20916">
        <ele>128.204401</ele>
        <time>2020-10-06T22:00:35.429Z</time>
      </trkpt>
      <trkpt lat="54.17638" lon="24.2087">
        <ele>128.267895</ele>
        <time>2020-10-06T22:00:42.027Z</time>
      </trkpt>
      <trkpt lat="54.17638" lon="24.20842">
        <ele>128.33009</ele>
        <time>2020-10-06T22:00:45.826Z</time>
      </trkpt>
      <trkpt lat="54.17592" lon="24.20843">
        <ele>128.506145</ele>
        <time>2020-10-06T22:00:57.054Z</time>
      </trkpt>
      <trkpt lat="54.17592" lon="24.20833">
        <ele>128.528149</ele>
        <time>2020-10-06T22:00:59.451Z</time>
      </trkpt>
      <trkpt lat="54.17579" lon="24.208">
        <ele>128.61677</ele>
        <time>2020-10-06T22:01:08.444Z</time>
      </trkpt>
      <trkpt lat="54.17321" lon="24.20439">
        <ele>129.213822</ele>
        <time>2020-10-06T22:03:15.971Z</time>
      </trkpt>
      <trkpt lat="54.1717" lon="24.20256">
        <ele>128.774392</ele>
        <time>2020-10-06T22:04:20.948Z</time>
      </trkpt>
      <trkpt lat="54.17133" lon="24.20195">
        <ele>128.62982</ele>
        <time>2020-10-06T22:04:39.495Z</time>
      </trkpt>
      <trkpt lat="54.17128" lon="24.20183">
        <ele>128.606297</ele>
        <time>2020-10-06T22:04:42.538Z</time>
      </trkpt>
      <trkpt lat="54.17127" lon="24.20173">
        <ele>128.590062</ele>
        <time>2020-10-06T22:04:44.444Z</time>
      </trkpt>
      <trkpt lat="54.17127" lon="24.20164">
        <ele>128.575002</ele>
        <time>2020-10-06T22:04:47.053Z</time>
      </trkpt>
      <trkpt lat="54.17166" lon="24.20115">
        <ele>128.630792</ele>
        <time>2020-10-06T22:05:05.161Z</time>
      </trkpt>
      <trkpt lat="54.17245" lon="24.19971">
        <ele>129.124891</ele>
        <time>2020-10-06T22:05:50.557Z</time>
      </trkpt>
      <trkpt lat="54.17252" lon="24.1995">
        <ele>129.183704</ele>
        <time>2020-10-06T22:05:55.946Z</time>
      </trkpt>
      <trkpt lat="54.17248" lon="24.19926">
        <ele>129.245657</ele>
        <time>2020-10-06T22:06:01.606Z</time>
      </trkpt>
      <trkpt lat="54.17234" lon="24.19904">
        <ele>129.342492</ele>
        <time>2020-10-06T22:06:09.101Z</time>
      </trkpt>
      <trkpt lat="54.17093" lon="24.1971">
        <ele>130.275925</ele>
        <time>2020-10-06T22:07:20.519Z</time>
      </trkpt>
      <trkpt lat="54.17028" lon="24.19617">
        <ele>130.018153</ele>
        <time>2020-10-06T22:07:53.786Z</time>
      </trkpt>
      <trkpt lat="54.16953" lon="24.19511">
        <ele>129.452834</ele>
        <time>2020-10-06T22:08:26.771Z</time>
      </trkpt>
      <trkpt lat="54.16943" lon="24.19498">
        <ele>129.167428</ele>
        <time>2020-10-06T22:08:30.635Z</time>
      </trkpt>
      <trkpt lat="54.16903" lon="24.19445">
        <ele>128.016376</ele>
        <time>2020-10-06T22:08:46.705Z</time>
      </trkpt>
      <trkpt lat="54.16877" lon="24.19416">
        <ele>127.31719</ele>
        <time>2020-10-06T22:08:56.145Z</time>
      </trkpt>
      <trkpt lat="54.16864" lon="24.19402">
        <ele>126.973426</ele>
        <time>2020-10-06T22:09:00.749Z</time>
      </trkpt>
      <trkpt lat="54.1685" lon="24.19386">
        <ele>126.586998</ele>
        <time>2020-10-06T22:09:05.756Z</time>
      </trkpt>
      <trkpt lat="54.16751" lon="24.19267">
        <ele>124.358819</ele>
        <time>2020-10-06T22:09:42.524Z</time>
      </trkpt>
      <trkpt lat="54.16746" lon="24.19261">
        <ele>124.268172</ele>
        <time>2020-10-06T22:09:44.253Z</time>
      </trkpt>
      <trkpt lat="54.16728" lon="24.19235">
        <ele>123.878866</ele>
        <time>2020-10-06T22:09:52.471Z</time>
      </trkpt>
      <trkpt lat="54.167" lon="24.19204">
        <ele>123.333163</ele>
        <time>2020-10-06T22:10:04.256Z</time>
      </trkpt>
      <trkpt lat="54.16665" lon="24.19163">
        <ele>122.712564</ele>
        <time>2020-10-06T22:10:19.046Z</time>
      </trkpt>
      <trkpt lat="54.16655" lon="24.19143">
        <ele>122.621364</ele>
        <time>2020-10-06T22:10:24.372Z</time>
      </trkpt>
      <trkpt lat="54.16643" lon="24.19105">
        <ele>122.473224</ele>
        <time>2020-10-06T22:10:32.876Z</time>
      </trkpt>
      <trkpt lat="54.1664" lon="24.19093">
        <ele>122.426952</ele>
        <time>2020-10-06T22:10:35.620Z</time>
      </trkpt>
      <trkpt lat="54.16625" lon="24.19045">
        <ele>122.238537</ele>
        <time>2020-10-06T22:10:46.820Z</time>
      </trkpt>
      <trkpt lat="54.1661" lon="24.18997">
        <ele>122.047414</ele>
        <time>2020-10-06T22:10:58.011Z</time>
      </trkpt>
      <trkpt lat="54.16599" lon="24.18963">
        <ele>121.912363</ele>
        <time>2020-10-06T22:11:06.365Z</time>
      </trkpt>
      <trkpt lat="54.16584" lon="24.18928">
        <ele>121.759766</ele>
        <time>2020-10-06T22:11:15.513Z</time>
      </trkpt>
      <trkpt lat="54.16576" lon="24.18911">
        <ele>121.686799</ele>
        <time>2020-10-06T22:11:19.761Z</time>
      </trkpt>
      <trkpt lat="54.16543" lon="24.18805">
        <ele>120.899114</ele>
        <time>2020-10-06T22:11:43.954Z</time>
      </trkpt>
      <trkpt lat="54.16541" lon="24.18799">
        <ele>120.85598</ele>
        <time>2020-10-06T22:11:45.130Z</time>
      </trkpt>
      <trkpt lat="54.16534" lon="24.18734">
        <ele>120.420022</ele>
        <time>2020-10-06T22:11:58.293Z</time>
      </trkpt>
      <trkpt lat="54.1651" lon="24.18669">
        <ele>119.919247</ele>
        <time>2020-10-06T22:12:13.125Z</time>
      </trkpt>
      <trkpt lat="54.16497" lon="24.18596">
        <ele>119.179893</ele>
        <time>2020-10-06T22:12:27.708Z</time>
      </trkpt>
      <trkpt lat="54.16485" lon="24.18549">
        <ele>118.531499</ele>
        <time>2020-10-06T22:12:37.190Z</time>
      </trkpt>
      <trkpt lat="54.16467" lon="24.18546">
        <ele>118.147055</ele>
        <time>2020-10-06T22:12:40.495Z</time>
      </trkpt>
      <trkpt lat="54.16447" lon="24.18542">
        <ele>117.713802</ele>
        <time>2020-10-06T22:12:44.146Z</time>
      </trkpt>
      <trkpt lat="54.16376" lon="24.18523">
        <ele>116.169483</ele>
        <time>2020-10-06T22:12:57.184Z</time>
      </trkpt>
      <trkpt lat="54.16306" lon="24.18503">
        <ele>114.178308</ele>
        <time>2020-10-06T22:13:09.359Z</time>
      </trkpt>
      <trkpt lat="54.16312" lon="24.18467">
        <ele>113.523533</ele>
        <time>2020-10-06T22:13:13.034Z</time>
      </trkpt>
      <trkpt lat="54.16318" lon="24.18425">
        <ele>112.751377</ele>
        <time>2020-10-06T22:13:17.120Z</time>
      </trkpt>
      <trkpt lat="54.16324" lon="24.18395">
        <ele>112.194863</ele>
        <time>2020-10-06T22:13:20.106Z</time>
      </trkpt>
      <trkpt lat="54.16332" lon="24.18353">
        <ele>111.416386</ele>
        <time>2020-10-06T22:13:24.492Z</time>
      </trkpt>
      <trkpt lat="54.16336" lon="24.18336">
        <ele>111.081559</ele>
        <time>2020-10-06T22:13:26.224Z</time>
      </trkpt>
      <trkpt lat="54.16339" lon="24.18295">
        <ele>110.350749</ele>
        <time>2020-10-06T22:13:30.413Z</time>
      </trkpt>
      <trkpt lat="54.16338" lon="24.18279">
        <ele>110.063883</ele>
        <time>2020-10-06T22:13:31.796Z</time>
      </trkpt>
      <trkpt lat="54.16337" lon="24.18267">
        <ele>109.821615</ele>
        <time>2020-10-06T22:13:32.932Z</time>
      </trkpt>
      <trkpt lat="54.16309" lon="24.18196">
        <ele>108.227993</ele>
        <time>2020-10-06T22:13:41.372Z</time>
      </trkpt>
      <trkpt lat="54.1625" lon="24.1812">
        <ele>105.846591</ele>
        <time>2020-10-06T22:13:53.634Z</time>
      </trkpt>
      <trkpt lat="54.16242" lon="24.1811">
        <ele>105.51951</ele>
        <time>2020-10-06T22:13:55.217Z</time>
      </trkpt>
      <trkpt lat="54.16233" lon="24.18094">
        <ele>105.117378</ele>
        <time>2020-10-06T22:13:57.154Z</time>
      </trkpt>
      <trkpt lat="54.16217" lon="24.18054">
        <ele>103.994465</ele>
        <time>2020-10-06T22:14:01.742Z</time>
      </trkpt>
      <trkpt lat="54.16196" lon="24.17966">
        <ele>101.200579</ele>
        <time>2020-10-06T22:14:10.607Z</time>
      </trkpt>
      <trkpt lat="54.16192" lon="24.17958">
        <ele>100.905109</ele>
        <time>2020-10-06T22:14:11.485Z</time>
      </trkpt>
      <trkpt lat="54.16188" lon="24.1795">
        <ele>100.586475</ele>
        <time>2020-10-06T22:14:12.450Z</time>
      </trkpt>
      <trkpt lat="54.16178" lon="24.17939">
        <ele>100.001369</ele>
        <time>2020-10-06T22:14:14.234Z</time>
      </trkpt>
      <trkpt lat="54.16159" lon="24.17935">
        <ele>99.048379</ele>
        <time>2020-10-06T22:14:17.173Z</time>
      </trkpt>
      <trkpt lat="54.16153" lon="24.17936">
        <ele>98.717002</ele>
        <time>2020-10-06T22:14:18.178Z</time>
      </trkpt>
      <trkpt lat="54.16105" lon="24.17941">
        <ele>96.321601</ele>
        <time>2020-10-06T22:14:25.157Z</time>
      </trkpt>
      <trkpt lat="54.16047" lon="24.17935">
        <ele>92.676697</ele>
        <time>2020-10-06T22:14:33.503Z</time>
      </trkpt>
      <trkpt lat="54.16001" lon="24.17921">
        <ele>89.547498</ele>
        <time>2020-10-06T22:14:40.295Z</time>
      </trkpt>
      <trkpt lat="54.15987" lon="24.17919">
        <ele>88.644248</ele>
        <time>2020-10-06T22:14:42.156Z</time>
      </trkpt>
      <trkpt lat="54.15979" lon="24.17921">
        <ele>88.121847</ele>
        <time>2020-10-06T22:14:43.286Z</time>
      </trkpt>
      <trkpt lat="54.1596" lon="24.1793">
        <ele>86.781906</ele>
        <time>2020-10-06T22:14:46.234Z</time>
      </trkpt>
      <trkpt lat="54.15939" lon="24.17961">
        <ele>84.902351</ele>
        <time>2020-10-06T22:14:50.384Z</time>
      </trkpt>
      <trkpt lat="54.15936" lon="24.17966">
        <ele>84.648508</ele>
        <time>2020-10-06T22:14:50.919Z</time>
      </trkpt>
      <trkpt lat="54.15926" lon="24.17986">
        <ele>83.608033</ele>
        <time>2020-10-06T22:14:53.111Z</time>
      </trkpt>
      <trkpt lat="54.15884" lon="24.18064">
        <ele>81.347332</ele>
        <time>2020-10-06T22:15:02.267Z</time>
      </trkpt>
      <trkpt lat="54.1587" lon="24.18092">
        <ele>80.549984</ele>
        <time>2020-10-06T22:15:05.540Z</time>
      </trkpt>
      <trkpt lat="54.15862" lon="24.18105">
        <ele>80.15867</ele>
        <time>2020-10-06T22:15:07.297Z</time>
      </trkpt>
      <trkpt lat="54.15853" lon="24.18116">
        <ele>79.751332</ele>
        <time>2020-10-06T22:15:09.206Z</time>
      </trkpt>
      <trkpt lat="54.15846" lon="24.18121">
        <ele>79.455676</ele>
        <time>2020-10-06T22:15:10.534Z</time>
      </trkpt>
      <trkpt lat="54.1584" lon="24.18123">
        <ele>79.225843</ele>
        <time>2020-10-06T22:15:11.545Z</time>
      </trkpt>
      <trkpt lat="54.15822" lon="24.18116">
        <ele>78.579748</ele>
        <time>2020-10-06T22:15:14.556Z</time>
      </trkpt>
      <trkpt lat="54.15816" lon="24.18109">
        <ele>78.315565</ele>
        <time>2020-10-06T22:15:15.706Z</time>
      </trkpt>
      <trkpt lat="54.15657" lon="24.1791">
        <ele>77.102358</ele>
        <time>2020-10-06T22:15:57.787Z</time>
      </trkpt>
      <trkpt lat="54.15603" lon="24.17844">
        <ele>78.30554</ele>
        <time>2020-10-06T22:16:18.415Z</time>
      </trkpt>
      <trkpt lat="54.15434" lon="24.17629">
        <ele>83.724111</ele>
        <time>2020-10-06T22:17:29.995Z</time>
      </trkpt>
      <trkpt lat="54.15365" lon="24.17528">
        <ele>86.133607</ele>
        <time>2020-10-06T22:17:59.667Z</time>
      </trkpt>
      <trkpt lat="54.15331" lon="24.17461">
        <ele>87.287565</ele>
        <time>2020-10-06T22:18:15.233Z</time>
      </trkpt>
      <trkpt lat="54.15318" lon="24.17428">
        <ele>87.785595</ele>
        <time>2020-10-06T22:18:22.828Z</time>
      </trkpt>
      <trkpt lat="54.15302" lon="24.17388">
        <ele>88.381533</ele>
        <time>2020-10-06T22:18:31.427Z</time>
      </trkpt>
      <trkpt lat="54.15289" lon="24.17347">
        <ele>88.976902</ele>
        <time>2020-10-06T22:18:40.069Z</time>
      </trkpt>
      <trkpt lat="54.15262" lon="24.17235">
        <ele>90.405934</ele>
        <time>2020-10-06T22:19:01.555Z</time>
      </trkpt>
      <trkpt lat="54.15256" lon="24.17198">
        <ele>90.742695</ele>
        <time>2020-10-06T22:19:08.422Z</time>
      </trkpt>
      <trkpt lat="54.15255" lon="24.17185">
        <ele>90.860916</ele>
        <time>2020-10-06T22:19:10.512Z</time>
      </trkpt>
      <trkpt lat="54.15246" lon="24.17101">
        <ele>91.610656</ele>
        <time>2020-10-06T22:19:24.532Z</time>
      </trkpt>
      <trkpt lat="54.15241" lon="24.17003">
        <ele>92.473799</ele>
        <time>2020-10-06T22:19:40.974Z</time>
      </trkpt>
      <trkpt lat="54.15218" lon="24.16306">
        <ele>96.618434</ele>
        <time>2020-10-06T22:21:27.597Z</time>
      </trkpt>
      <trkpt lat="54.15189" lon="24.15465">
        <ele>101.40251</ele>
        <time>2020-10-06T22:23:37.936Z</time>
      </trkpt>
      <trkpt lat="54.15174" lon="24.15002">
        <ele>102.447139</ele>
        <time>2020-10-06T22:24:42.896Z</time>
      </trkpt>
      <trkpt lat="54.15161" lon="24.14644">
        <ele>102.293217</ele>
        <time>2020-10-06T22:25:28.226Z</time>
      </trkpt>
      <trkpt lat="54.15156" lon="24.14521">
        <ele>102.150836</ele>
        <time>2020-10-06T22:25:43.459Z</time>
      </trkpt>
      <trkpt lat="54.15154" lon="24.14454">
        <ele>102.195333</ele>
        <time>2020-10-06T22:25:51.940Z</time>
      </trkpt>
      <trkpt lat="54.15146" lon="24.14232">
        <ele>102.5413</ele>
        <time>2020-10-06T22:26:22.436Z</time>
      </trkpt>
      <trkpt lat="54.15141" lon="24.14066">
        <ele>103.400761</ele>
        <time>2020-10-06T22:26:47.784Z</time>
      </trkpt>
      <trkpt lat="54.15142" lon="24.13934">
        <ele>104.230364</ele>
        <time>2020-10-06T22:27:09.040Z</time>
      </trkpt>
      <trkpt lat="54.15186" lon="24.13504">
        <ele>107.264817</ele>
        <time>2020-10-06T22:28:18.127Z</time>
      </trkpt>
      <trkpt lat="54.15186" lon="24.13474">
        <ele>107.472776</ele>
        <time>2020-10-06T22:28:22.608Z</time>
      </trkpt>
      <trkpt lat="54.15184" lon="24.13447">
        <ele>107.663328</ele>
        <time>2020-10-06T22:28:27.177Z</time>
      </trkpt>
      <trkpt lat="54.1518" lon="24.13417">
        <ele>107.881339</ele>
        <time>2020-10-06T22:28:31.915Z</time>
      </trkpt>
      <trkpt lat="54.15152" lon="24.13258">
        <ele>109.075242</ele>
        <time>2020-10-06T22:28:58.432Z</time>
      </trkpt>
      <trkpt lat="54.14921" lon="24.11862">
        <ele>121.872904</ele>
        <time>2020-10-06T22:32:58.186Z</time>
      </trkpt>
      <trkpt lat="54.14823" lon="24.11269">
        <ele>128.828114</ele>
        <time>2020-10-06T22:34:51.486Z</time>
      </trkpt>
      <trkpt lat="54.14761" lon="24.10891">
        <ele>128.316316</ele>
        <time>2020-10-06T22:35:38.431Z</time>
      </trkpt>
      <trkpt lat="54.14719" lon="24.10639">
        <ele>126.704862</ele>
        <time>2020-10-06T22:36:07.528Z</time>
      </trkpt>
      <trkpt lat="54.14688" lon="24.10453">
        <ele>125.972282</ele>
        <time>2020-10-06T22:36:30.056Z</time>
      </trkpt>
      <trkpt lat="54.14547" lon="24.09605">
        <ele>125.070818</ele>
        <time>2020-10-06T22:38:20.333Z</time>
      </trkpt>
      <trkpt lat="54.14486" lon="24.09237">
        <ele>126.878794</ele>
        <time>2020-10-06T22:39:21.704Z</time>
      </trkpt>
      <trkpt lat="54.14431" lon="24.08912">
        <ele>128.023593</ele>
        <time>2020-10-06T22:40:09.252Z</time>
      </trkpt>
      <trkpt lat="54.14335" lon="24.08334">
        <ele>129.230576</ele>
        <time>2020-10-06T22:41:31.591Z</time>
      </trkpt>
      <trkpt lat="54.14259" lon="24.0788">
        <ele>131.02798</ele>
        <time>2020-10-06T22:42:42.652Z</time>
      </trkpt>
      <trkpt lat="54.14254" lon="24.07849">
        <ele>131.064933</ele>
        <time>2020-10-06T22:42:47.436Z</time>
      </trkpt>
      <trkpt lat="54.14093" lon="24.06877">
        <ele>132.040841</ele>
        <time>2020-10-06T22:45:01.708Z</time>
      </trkpt>
      <trkpt lat="54.14029" lon="24.06499">
        <ele>132.237682</ele>
        <time>2020-10-06T22:45:52.846Z</time>
      </trkpt>
      <trkpt lat="54.13907" lon="24.05771">
        <ele>136.201907</ele>
        <time>2020-10-06T22:47:48.221Z</time>
      </trkpt>
      <trkpt lat="54.1389" lon="24.05671">
        <ele>136.848149</ele>
        <time>2020-10-06T22:48:04.467Z</time>
      </trkpt>
      <trkpt lat="54.13888" lon="24.05656">
        <ele>136.940637</ele>
        <time>2020-10-06T22:48:06.802Z</time>
      </trkpt>
      <trkpt lat="54.13881" lon="24.05614">
        <ele>137.215434</ele>
        <time>2020-10-06T22:48:13.748Z</time>
      </trkpt>
      <trkpt lat="54.13825" lon="24.05282">
        <ele>139.53402</ele>
        <time>2020-10-06T22:49:08.474Z</time>
      </trkpt>
      <trkpt lat="54.13771" lon="24.04958">
        <ele>141.296851</ele>
        <time>2020-10-06T22:50:00.382Z</time>
      </trkpt>
      <trkpt lat="54.13754" lon="24.04859">
        <ele>141.564241</ele>
        <time>2020-10-06T22:50:15.169Z</time>
      </trkpt>
      <trkpt lat="54.13644" lon="24.04199">
        <ele>141.949309</ele>
        <time>2020-10-06T22:51:45.689Z</time>
      </trkpt>
      <trkpt lat="54.1345" lon="24.03038">
        <ele>138.850071</ele>
        <time>2020-10-06T22:54:14.880Z</time>
      </trkpt>
      <trkpt lat="54.13447" lon="24.0302">
        <ele>138.751079</ele>
        <time>2020-10-06T22:54:16.759Z</time>
      </trkpt>
      <trkpt lat="54.13439" lon="24.02967">
        <ele>138.440048</ele>
        <time>2020-10-06T22:54:22.531Z</time>
      </trkpt>
      <trkpt lat="54.13434" lon="24.02915">
        <ele>137.841733</ele>
        <time>2020-10-06T22:54:27.813Z</time>
      </trkpt>
      <trkpt lat="54.13428" lon="24.02632">
        <ele>133.513913</ele>
        <time>2020-10-06T22:54:55.499Z</time>
      </trkpt>
      <trkpt lat="54.13423" lon="24.02573">
        <ele>132.988739</ele>
        <time>2020-10-06T22:55:01.443Z</time>
      </trkpt>
      <trkpt lat="54.13403" lon="24.02433">
        <ele>131.723261</ele>
        <time>2020-10-06T22:55:16.416Z</time>
      </trkpt>
      <trkpt lat="54.13348" lon="24.02057">
        <ele>131.001872</ele>
        <time>2020-10-06T22:56:06.183Z</time>
      </trkpt>
      <trkpt lat="54.13299" lon="24.01729">
        <ele>133.625279</ele>
        <time>2020-10-06T22:57:01.343Z</time>
      </trkpt>
      <trkpt lat="54.1328" lon="24.0166">
        <ele>134.698093</ele>
        <time>2020-10-06T22:57:15.147Z</time>
      </trkpt>
      <trkpt lat="54.13271" lon="24.01638">
        <ele>135.077606</ele>
        <time>2020-10-06T22:57:20.239Z</time>
      </trkpt>
      <trkpt lat="54.13196" lon="24.01453">
        <ele>137.996506</ele>
        <time>2020-10-06T22:58:04.233Z</time>
      </trkpt>
      <trkpt lat="54.13178" lon="24.01403">
        <ele>138.428695</ele>
        <time>2020-10-06T22:58:15.068Z</time>
      </trkpt>
      <trkpt lat="54.13172" lon="24.01374">
        <ele>138.662083</ele>
        <time>2020-10-06T22:58:21.223Z</time>
      </trkpt>
      <trkpt lat="54.13073" lon="24.00786">
        <ele>141.197482</ele>
        <time>2020-10-06T22:59:45.426Z</time>
      </trkpt>
      <trkpt lat="54.13039" lon="24.00587">
        <ele>142.481396</ele>
        <time>2020-10-06T23:00:18.733Z</time>
      </trkpt>
      <trkpt lat="54.1298" lon="24.0024">
        <ele>145.998873</ele>
        <time>2020-10-06T23:01:22.753Z</time>
      </trkpt>
      <trkpt lat="54.12841" lon="23.99413">
        <ele>150.702294</ele>
        <time>2020-10-06T23:03:32.749Z</time>
      </trkpt>
      <trkpt lat="54.12821" lon="23.99316">
        <ele>150.817121</ele>
        <time>2020-10-06T23:03:46.764Z</time>
      </trkpt>
      <trkpt lat="54.12801" lon="23.99252">
        <ele>150.898796</ele>
        <time>2020-10-06T23:03:56.530Z</time>
      </trkpt>
      <trkpt lat="54.12509" lon="23.98399">
        <ele>150.160216</ele>
        <time>2020-10-06T23:06:03.245Z</time>
      </trkpt>
      <trkpt lat="54.12378" lon="23.98018">
        <ele>148.373247</ele>
        <time>2020-10-06T23:06:52.446Z</time>
      </trkpt>
      <trkpt lat="54.12101" lon="23.97214">
        <ele>151.089349</ele>
        <time>2020-10-06T23:09:08.892Z</time>
      </trkpt>
      <trkpt lat="54.12015" lon="23.96963">
        <ele>151.524981</ele>
        <time>2020-10-06T23:09:51.813Z</time>
      </trkpt>
      <trkpt lat="54.1182" lon="23.96396">
        <ele>147.092093</ele>
        <time>2020-10-06T23:11:04.117Z</time>
      </trkpt>
      <trkpt lat="54.11625" lon="23.95828">
        <ele>140.996791</ele>
        <time>2020-10-06T23:12:13.441Z</time>
      </trkpt>
      <trkpt lat="54.11413" lon="23.95211">
        <ele>137.707617</ele>
        <time>2020-10-06T23:13:37.985Z</time>
      </trkpt>
      <trkpt lat="54.11207" lon="23.94617">
        <ele>135.272698</ele>
        <time>2020-10-06T23:14:59.856Z</time>
      </trkpt>
      <trkpt lat="54.11057" lon="23.94185">
        <ele>134.933102</ele>
        <time>2020-10-06T23:16:04.209Z</time>
      </trkpt>
      <trkpt lat="54.11" lon="23.94022">
        <ele>134.998086</ele>
        <time>2020-10-06T23:16:30.038Z</time>
      </trkpt>
      <trkpt lat="54.10889" lon="23.93699">
        <ele>135.757801</ele>
        <time>2020-10-06T23:17:19.216Z</time>
      </trkpt>
      <trkpt lat="54.10792" lon="23.93419">
        <ele>138.235672</ele>
        <time>2020-10-06T23:18:13.230Z</time>
      </trkpt>
      <trkpt lat="54.10635" lon="23.92968">
        <ele>142.578674</ele>
        <time>2020-10-06T23:19:47.552Z</time>
      </trkpt>
      <trkpt lat="54.1041" lon="23.92314">
        <ele>138.603784</ele>
        <time>2020-10-06T23:21:12.642Z</time>
      </trkpt>
      <trkpt lat="54.10392" lon="23.92233">
        <ele>137.135884</ele>
        <time>2020-10-06T23:21:20.633Z</time>
      </trkpt>
      <trkpt lat="54.10391" lon="23.92157">
        <ele>135.290664</ele>
        <time>2020-10-06T23:21:27.566Z</time>
      </trkpt>
      <trkpt lat="54.10395" lon="23.92128">
        <ele>134.568928</ele>
        <time>2020-10-06T23:21:30.299Z</time>
      </trkpt>
      <trkpt lat="54.10402" lon="23.92091">
        <ele>133.619916</ele>
        <time>2020-10-06T23:21:33.752Z</time>
      </trkpt>
      <trkpt lat="54.10445" lon="23.91878">
        <ele>129.675477</ele>
        <time>2020-10-06T23:21:54.259Z</time>
      </trkpt>
      <trkpt lat="54.10449" lon="23.91832">
        <ele>129.20233</ele>
        <time>2020-10-06T23:21:58.928Z</time>
      </trkpt>
      <trkpt lat="54.10445" lon="23.91785">
        <ele>128.72842</ele>
        <time>2020-10-06T23:22:04.151Z</time>
      </trkpt>
      <trkpt lat="54.10174" lon="23.90335">
        <ele>135.702093</ele>
        <time>2020-10-06T23:26:04.029Z</time>
      </trkpt>
      <trkpt lat="54.10094" lon="23.89915">
        <ele>131.90127</ele>
        <time>2020-10-06T23:26:49.440Z</time>
      </trkpt>
      <trkpt lat="54.10076" lon="23.89823">
        <ele>131.304529</ele>
        <time>2020-10-06T23:26:59.795Z</time>
      </trkpt>
      <trkpt lat="54.10057" lon="23.89724">
        <ele>130.662179</ele>
        <time>2020-10-06T23:27:11.582Z</time>
      </trkpt>
      <trkpt lat="54.09968" lon="23.89365">
        <ele>129.697261</ele>
        <time>2020-10-06T23:28:00.674Z</time>
      </trkpt>
      <trkpt lat="54.09918" lon="23.89163">
        <ele>129.296708</ele>
        <time>2020-10-06T23:28:28.440Z</time>
      </trkpt>
      <trkpt lat="54.09862" lon="23.88936">
        <ele>128.560481</ele>
        <time>2020-10-06T23:28:58.120Z</time>
      </trkpt>
      <trkpt lat="54.09793" lon="23.88657">
        <ele>127.405152</ele>
        <time>2020-10-06T23:29:33.497Z</time>
      </trkpt>
      <trkpt lat="54.0976" lon="23.88522">
        <ele>126.833942</ele>
        <time>2020-10-06T23:29:50.783Z</time>
      </trkpt>
      <trkpt lat="54.09746" lon="23.88465">
        <ele>126.633627</ele>
        <time>2020-10-06T23:29:58.324Z</time>
      </trkpt>
      <trkpt lat="54.09733" lon="23.88414">
        <ele>126.464343</ele>
        <time>2020-10-06T23:30:05.097Z</time>
      </trkpt>
      <trkpt lat="54.0968" lon="23.88201">
        <ele>125.706931</ele>
        <time>2020-10-06T23:30:33.162Z</time>
      </trkpt>
      <trkpt lat="54.09569" lon="23.8775">
        <ele>123.498239</ele>
        <time>2020-10-06T23:31:29.822Z</time>
      </trkpt>
      <trkpt lat="54.09524" lon="23.87568">
        <ele>122.86072</ele>
        <time>2020-10-06T23:31:53.417Z</time>
      </trkpt>
      <trkpt lat="54.0947" lon="23.87348">
        <ele>122.423003</ele>
        <time>2020-10-06T23:32:23.054Z</time>
      </trkpt>
      <trkpt lat="54.09462" lon="23.87299">
        <ele>122.420449</ele>
        <time>2020-10-06T23:32:29.716Z</time>
      </trkpt>
      <trkpt lat="54.0946" lon="23.87275">
        <ele>122.41919</ele>
        <time>2020-10-06T23:32:33.110Z</time>
      </trkpt>
      <trkpt lat="54.0946" lon="23.87263">
        <ele>122.418562</ele>
        <time>2020-10-06T23:32:34.605Z</time>
      </trkpt>
      <trkpt lat="54.09462" lon="23.87256">
        <ele>122.418196</ele>
        <time>2020-10-06T23:32:35.590Z</time>
      </trkpt>
      <trkpt lat="54.09462" lon="23.87249">
        <ele>122.41783</ele>
        <time>2020-10-06T23:32:36.580Z</time>
      </trkpt>
      <trkpt lat="54.09461" lon="23.87238">
        <ele>122.417268</ele>
        <time>2020-10-06T23:32:38.103Z</time>
      </trkpt>
      <trkpt lat="54.09457" lon="23.87229">
        <ele>122.416706</ele>
        <time>2020-10-06T23:32:39.643Z</time>
      </trkpt>
      <trkpt lat="54.09453" lon="23.87225">
        <ele>122.416345</ele>
        <time>2020-10-06T23:32:40.595Z</time>
      </trkpt>
      <trkpt lat="54.09449" lon="23.87223">
        <ele>122.415973</ele>
        <time>2020-10-06T23:32:41.524Z</time>
      </trkpt>
      <trkpt lat="54.09438" lon="23.872">
        <ele>122.41452</ele>
        <time>2020-10-06T23:32:45.230Z</time>
      </trkpt>
      <trkpt lat="54.09425" lon="23.87162">
        <ele>122.412246</ele>
        <time>2020-10-06T23:32:51.031Z</time>
      </trkpt>
      <trkpt lat="54.09414" lon="23.87114">
        <ele>122.409661</ele>
        <time>2020-10-06T23:32:57.784Z</time>
      </trkpt>
      <trkpt lat="54.09393" lon="23.8703">
        <ele>122.455919</ele>
        <time>2020-10-06T23:33:09.924Z</time>
      </trkpt>
      <trkpt lat="54.09354" lon="23.86873">
        <ele>122.550692</ele>
        <time>2020-10-06T23:33:32.947Z</time>
      </trkpt>
      <trkpt lat="54.09325" lon="23.86753">
        <ele>122.576231</ele>
        <time>2020-10-06T23:33:49.783Z</time>
      </trkpt>
      <trkpt lat="54.09317" lon="23.86723">
        <ele>122.574563</ele>
        <time>2020-10-06T23:33:54.240Z</time>
      </trkpt>
      <trkpt lat="54.0919" lon="23.8621">
        <ele>122.072595</ele>
        <time>2020-10-06T23:35:06.648Z</time>
      </trkpt>
      <trkpt lat="54.09183" lon="23.86182">
        <ele>121.841568</ele>
        <time>2020-10-06T23:35:10.587Z</time>
      </trkpt>
      <trkpt lat="54.09181" lon="23.86174">
        <ele>121.775883</ele>
        <time>2020-10-06T23:35:11.687Z</time>
      </trkpt>
      <trkpt lat="54.09164" lon="23.86108">
        <ele>121.246972</ele>
        <time>2020-10-06T23:35:19.760Z</time>
      </trkpt>
      <trkpt lat="54.09138" lon="23.86009">
        <ele>120.44211</ele>
        <time>2020-10-06T23:35:31.146Z</time>
      </trkpt>
      <trkpt lat="54.0913" lon="23.85983">
        <ele>120.225221</ele>
        <time>2020-10-06T23:35:34.111Z</time>
      </trkpt>
      <trkpt lat="54.09124" lon="23.85969">
        <ele>119.908115</ele>
        <time>2020-10-06T23:35:35.856Z</time>
      </trkpt>
      <trkpt lat="54.09115" lon="23.85948">
        <ele>119.36629</ele>
        <time>2020-10-06T23:35:38.509Z</time>
      </trkpt>
      <trkpt lat="54.09099" lon="23.85917">
        <ele>118.518593</ele>
        <time>2020-10-06T23:35:42.458Z</time>
      </trkpt>
      <trkpt lat="54.08996" lon="23.85749">
        <ele>113.506027</ele>
        <time>2020-10-06T23:36:04.959Z</time>
      </trkpt>
      <trkpt lat="54.08959" lon="23.85676">
        <ele>111.590305</ele>
        <time>2020-10-06T23:36:13.770Z</time>
      </trkpt>
      <trkpt lat="54.08932" lon="23.85591">
        <ele>109.693312</ele>
        <time>2020-10-06T23:36:22.575Z</time>
      </trkpt>
      <trkpt lat="54.08921" lon="23.85518">
        <ele>108.186846</ele>
        <time>2020-10-06T23:36:29.964Z</time>
      </trkpt>
      <trkpt lat="54.08916" lon="23.85474">
        <ele>108.034953</ele>
        <time>2020-10-06T23:36:34.545Z</time>
      </trkpt>
      <trkpt lat="54.08911" lon="23.85395">
        <ele>108.87598</ele>
        <time>2020-10-06T23:36:45.383Z</time>
      </trkpt>
      <trkpt lat="54.08907" lon="23.85345">
        <ele>109.409019</ele>
        <time>2020-10-06T23:36:53.882Z</time>
      </trkpt>
      <trkpt lat="54.08905" lon="23.85314">
        <ele>109.741038</ele>
        <time>2020-10-06T23:36:59.702Z</time>
      </trkpt>
      <trkpt lat="54.089" lon="23.85274">
        <ele>110.166665</ele>
        <time>2020-10-06T23:37:08.041Z</time>
      </trkpt>
      <trkpt lat="54.08895" lon="23.8525">
        <ele>110.43674</ele>
        <time>2020-10-06T23:37:13.198Z</time>
      </trkpt>
      <trkpt lat="54.08889" lon="23.85222">
        <ele>110.750331</ele>
        <time>2020-10-06T23:37:20.200Z</time>
      </trkpt>
      <trkpt lat="54.08882" lon="23.85198">
        <ele>111.067082</ele>
        <time>2020-10-06T23:37:26.835Z</time>
      </trkpt>
      <trkpt lat="54.08876" lon="23.85181">
        <ele>111.683131</ele>
        <time>2020-10-06T23:37:31.872Z</time>
      </trkpt>
      <trkpt lat="54.08863" lon="23.85149">
        <ele>112.841955</ele>
        <time>2020-10-06T23:37:42.140Z</time>
      </trkpt>
      <trkpt lat="54.08836" lon="23.85094">
        <ele>115.008865</ele>
        <time>2020-10-06T23:38:01.708Z</time>
      </trkpt>
      <trkpt lat="54.08788" lon="23.85003">
        <ele>118.732535</ele>
        <time>2020-10-06T23:38:35.224Z</time>
      </trkpt>
      <trkpt lat="54.08745" lon="23.84918">
        <ele>121.077061</ele>
        <time>2020-10-06T23:39:00.823Z</time>
      </trkpt>
      <trkpt lat="54.08603" lon="23.846">
        <ele>124.316618</ele>
        <time>2020-10-06T23:40:05.418Z</time>
      </trkpt>
      <trkpt lat="54.08525" lon="23.84415">
        <ele>123.918055</ele>
        <time>2020-10-06T23:40:31.929Z</time>
      </trkpt>
      <trkpt lat="54.085" lon="23.84359">
        <ele>123.345262</ele>
        <time>2020-10-06T23:40:39.531Z</time>
      </trkpt>
      <trkpt lat="54.08451" lon="23.8428">
        <ele>122.419751</ele>
        <time>2020-10-06T23:40:51.658Z</time>
      </trkpt>
      <trkpt lat="54.08403" lon="23.84233">
        <ele>121.762969</ele>
        <time>2020-10-06T23:41:01.539Z</time>
      </trkpt>
      <trkpt lat="54.08244" lon="23.84098">
        <ele>120.340102</ele>
        <time>2020-10-06T23:41:36.452Z</time>
      </trkpt>
      <trkpt lat="54.08134" lon="23.84002">
        <ele>120.681418</ele>
        <time>2020-10-06T23:42:06.398Z</time>
      </trkpt>
      <trkpt lat="54.07697" lon="23.8362">
        <ele>124.023665</ele>
        <time>2020-10-06T23:44:10.884Z</time>
      </trkpt>
      <trkpt lat="54.06941" lon="23.82971">
        <ele>125.548567</ele>
        <time>2020-10-06T23:47:24.704Z</time>
      </trkpt>
      <trkpt lat="54.06892" lon="23.82909">
        <ele>125.586299</ele>
        <time>2020-10-06T23:47:38.415Z</time>
      </trkpt>
      <trkpt lat="54.06889" lon="23.82905">
        <ele>125.588858</ele>
        <time>2020-10-06T23:47:39.371Z</time>
      </trkpt>
      <trkpt lat="54.06527" lon="23.82449">
        <ele>125.939054</ele>
        <time>2020-10-06T23:49:20.298Z</time>
      </trkpt>
      <trkpt lat="54.06335" lon="23.82196">
        <ele>126.687106</ele>
        <time>2020-10-06T23:50:19.274Z</time>
      </trkpt>
      <trkpt lat="54.06279" lon="23.82124">
        <ele>126.778806</ele>
        <time>2020-10-06T23:50:35.287Z</time>
      </trkpt>
      <trkpt lat="54.05931" lon="23.81683">
        <ele>124.662377</ele>
        <time>2020-10-06T23:52:01.544Z</time>
      </trkpt>
      <trkpt lat="54.0554" lon="23.81188">
        <ele>128.633244</ele>
        <time>2020-10-06T23:54:10.593Z</time>
      </trkpt>
      <trkpt lat="54.04901" lon="23.80366">
        <ele>124.211615</ele>
        <time>2020-10-06T23:56:55.478Z</time>
      </trkpt>
      <trkpt lat="54.048" lon="23.80231">
        <ele>122.260815</ele>
        <time>2020-10-06T23:57:17.661Z</time>
      </trkpt>
      <trkpt lat="54.0478" lon="23.80205">
        <ele>121.837038</ele>
        <time>2020-10-06T23:57:22.039Z</time>
      </trkpt>
      <trkpt lat="54.04717" lon="23.80128">
        <ele>120.554847</ele>
        <time>2020-10-06T23:57:35.505Z</time>
      </trkpt>
      <trkpt lat="54.04092" lon="23.7936">
        <ele>118.666983</ele>
        <time>2020-10-07T00:00:23.634Z</time>
      </trkpt>
      <trkpt lat="54.04073" lon="23.79337">
        <ele>118.612996</ele>
        <time>2020-10-07T00:00:28.144Z</time>
      </trkpt>
      <trkpt lat="54.03979" lon="23.79221">
        <ele>118.342856</ele>
        <time>2020-10-07T00:00:51.546Z</time>
      </trkpt>
      <trkpt lat="54.03723" lon="23.78905">
        <ele>119.679471</ele>
        <time>2020-10-07T00:02:10.557Z</time>
      </trkpt>
      <trkpt lat="54.03408" lon="23.78522">
        <ele>119.681399</ele>
        <time>2020-10-07T00:03:36.010Z</time>
      </trkpt>
      <trkpt lat="54.0322" lon="23.7829">
        <ele>118.966765</ele>
        <time>2020-10-07T00:04:25.160Z</time>
      </trkpt>
      <trkpt lat="54.03103" lon="23.78145">
        <ele>118.158196</ele>
        <time>2020-10-07T00:04:54.733Z</time>
      </trkpt>
      <trkpt lat="54.03076" lon="23.78098">
        <ele>117.937261</ele>
        <time>2020-10-07T00:05:02.407Z</time>
      </trkpt>
      <trkpt lat="54.03064" lon="23.78059">
        <ele>117.635898</ele>
        <time>2020-10-07T00:05:07.540Z</time>
      </trkpt>
      <trkpt lat="54.0303" lon="23.77904">
        <ele>116.513166</ele>
        <time>2020-10-07T00:05:26.139Z</time>
      </trkpt>
      <trkpt lat="54.02992" lon="23.77732">
        <ele>115.32757</ele>
        <time>2020-10-07T00:05:45.962Z</time>
      </trkpt>
      <trkpt lat="54.02962" lon="23.77592">
        <ele>114.414992</ele>
        <time>2020-10-07T00:06:02.469Z</time>
      </trkpt>
      <trkpt lat="54.02839" lon="23.77026">
        <ele>113.688022</ele>
        <time>2020-10-07T00:07:19.149Z</time>
      </trkpt>
      <trkpt lat="54.0261" lon="23.75976">
        <ele>118.657206</ele>
        <time>2020-10-07T00:10:07.272Z</time>
      </trkpt>
      <trkpt lat="54.02519" lon="23.75557">
        <ele>120.356325</ele>
        <time>2020-10-07T00:11:13.403Z</time>
      </trkpt>
      <trkpt lat="54.02452" lon="23.75251">
        <ele>120.551124</ele>
        <time>2020-10-07T00:11:55.889Z</time>
      </trkpt>
      <trkpt lat="54.02387" lon="23.74951">
        <ele>120.657097</ele>
        <time>2020-10-07T00:12:39.095Z</time>
      </trkpt>
      <trkpt lat="54.0233" lon="23.74694">
        <ele>120.271471</ele>
        <time>2020-10-07T00:13:12.664Z</time>
      </trkpt>
      <trkpt lat="54.02227" lon="23.74219">
        <ele>120.57467</ele>
        <time>2020-10-07T00:14:20.933Z</time>
      </trkpt>
      <trkpt lat="54.02221" lon="23.74195">
        <ele>120.595809</ele>
        <time>2020-10-07T00:14:24.421Z</time>
      </trkpt>
      <trkpt lat="54.02143" lon="23.73836">
        <ele>120.829019</ele>
        <time>2020-10-07T00:15:15.669Z</time>
      </trkpt>
      <trkpt lat="54.02066" lon="23.73483">
        <ele>120.644271</ele>
        <time>2020-10-07T00:16:04.019Z</time>
      </trkpt>
      <trkpt lat="54.02024" lon="23.73292">
        <ele>120.2993</ele>
        <time>2020-10-07T00:16:29.968Z</time>
      </trkpt>
      <trkpt lat="54.01974" lon="23.73062">
        <ele>120.033151</ele>
        <time>2020-10-07T00:16:59.730Z</time>
      </trkpt>
      <trkpt lat="54.01934" lon="23.72879">
        <ele>120.42248</ele>
        <time>2020-10-07T00:17:25.883Z</time>
      </trkpt>
      <trkpt lat="54.01907" lon="23.72754">
        <ele>121.544708</ele>
        <time>2020-10-07T00:17:47.028Z</time>
      </trkpt>
      <trkpt lat="54.01889" lon="23.72701">
        <ele>122.054363</ele>
        <time>2020-10-07T00:17:57.992Z</time>
      </trkpt>
      <trkpt lat="54.01859" lon="23.72646">
        <ele>122.822439</ele>
        <time>2020-10-07T00:18:12.811Z</time>
      </trkpt>
      <trkpt lat="54.01749" lon="23.72476">
        <ele>126.476716</ele>
        <time>2020-10-07T00:19:02.769Z</time>
      </trkpt>
      <trkpt lat="54.016" lon="23.72247">
        <ele>128.38099</ele>
        <time>2020-10-07T00:19:55.733Z</time>
      </trkpt>
      <trkpt lat="54.00829" lon="23.7105">
        <ele>112.799998</ele>
        <time>2020-10-07T00:23:06.259Z</time>
      </trkpt>
      <trkpt lat="54.00807" lon="23.71013">
        <ele>112.351195</ele>
        <time>2020-10-07T00:23:12.212Z</time>
      </trkpt>
      <trkpt lat="54.00787" lon="23.70975">
        <ele>112.169406</ele>
        <time>2020-10-07T00:23:17.911Z</time>
      </trkpt>
      <trkpt lat="54.00698" lon="23.70749">
        <ele>111.276968</ele>
        <time>2020-10-07T00:23:51.229Z</time>
      </trkpt>
      <trkpt lat="54.00496" lon="23.70235">
        <ele>110.812671</ele>
        <time>2020-10-07T00:25:10.434Z</time>
      </trkpt>
      <trkpt lat="54.00418" lon="23.70033">
        <ele>111.363052</ele>
        <time>2020-10-07T00:25:42.688Z</time>
      </trkpt>
      <trkpt lat="54.00404" lon="23.69997">
        <ele>111.46276</ele>
        <time>2020-10-07T00:25:49.587Z</time>
      </trkpt>
      <trkpt lat="54.00385" lon="23.69942">
        <ele>112.453801</ele>
        <time>2020-10-07T00:26:00.367Z</time>
      </trkpt>
      <trkpt lat="54.00372" lon="23.69874">
        <ele>113.558348</ele>
        <time>2020-10-07T00:26:13.357Z</time>
      </trkpt>
      <trkpt lat="54.00336" lon="23.6953">
        <ele>118.61518</ele>
        <time>2020-10-07T00:27:27.740Z</time>
      </trkpt>
      <trkpt lat="54.00333" lon="23.69502">
        <ele>118.985426</ele>
        <time>2020-10-07T00:27:32.550Z</time>
      </trkpt>
      <trkpt lat="54.00326" lon="23.69442">
        <ele>119.807027</ele>
        <time>2020-10-07T00:27:42.323Z</time>
      </trkpt>
      <trkpt lat="54.00316" lon="23.69403">
        <ele>120.281062</ele>
        <time>2020-10-07T00:27:48.187Z</time>
      </trkpt>
      <trkpt lat="54.00303" lon="23.69383">
        <ele>120.052073</ele>
        <time>2020-10-07T00:27:51.847Z</time>
      </trkpt>
      <trkpt lat="54.00297" lon="23.69375">
        <ele>119.95143</ele>
        <time>2020-10-07T00:27:53.685Z</time>
      </trkpt>
      <trkpt lat="54.00235" lon="23.69328">
        <ele>119.034695</ele>
        <time>2020-10-07T00:28:06.929Z</time>
      </trkpt>
      <trkpt lat="54.00211" lon="23.69311">
        <ele>118.685126</ele>
        <time>2020-10-07T00:28:11.536Z</time>
      </trkpt>
      <trkpt lat="54.00198" lon="23.693">
        <ele>118.485143</ele>
        <time>2020-10-07T00:28:14.128Z</time>
      </trkpt>
      <trkpt lat="54.00167" lon="23.69261">
        <ele>117.964855</ele>
        <time>2020-10-07T00:28:20.651Z</time>
      </trkpt>
      <trkpt lat="54.00145" lon="23.6919">
        <ele>116.951012</ele>
        <time>2020-10-07T00:28:28.482Z</time>
      </trkpt>
      <trkpt lat="54.00142" lon="23.69174">
        <ele>116.739862</ele>
        <time>2020-10-07T00:28:30.022Z</time>
      </trkpt>
      <trkpt lat="54.00122" lon="23.68949">
        <ele>113.769689</ele>
        <time>2020-10-07T00:28:53.700Z</time>
      </trkpt>
      <trkpt lat="54.00111" lon="23.68832">
        <ele>112.514212</ele>
        <time>2020-10-07T00:29:06.776Z</time>
      </trkpt>
      <trkpt lat="54.00085" lon="23.68573">
        <ele>110.121439</ele>
        <time>2020-10-07T00:29:35.733Z</time>
      </trkpt>
      <trkpt lat="54.00079" lon="23.6851">
        <ele>109.724169</ele>
        <time>2020-10-07T00:29:43.247Z</time>
      </trkpt>
      <trkpt lat="54.00071" lon="23.68411">
        <ele>109.114447</ele>
        <time>2020-10-07T00:29:55.250Z</time>
      </trkpt>
      <trkpt lat="54.00068" lon="23.68363">
        <ele>108.8167</ele>
        <time>2020-10-07T00:30:01.247Z</time>
      </trkpt>
      <trkpt lat="54.00067" lon="23.68332">
        <ele>108.806515</ele>
        <time>2020-10-07T00:30:05.248Z</time>
      </trkpt>
      <trkpt lat="54.00055" lon="23.67857">
        <ele>110.030572</ele>
        <time>2020-10-07T00:31:13.210Z</time>
      </trkpt>
      <trkpt lat="54.00051" lon="23.67705">
        <ele>110.637752</ele>
        <time>2020-10-07T00:31:35.737Z</time>
      </trkpt>
      <trkpt lat="54.00027" lon="23.66883">
        <ele>114.483851</ele>
        <time>2020-10-07T00:33:41.002Z</time>
      </trkpt>
      <trkpt lat="54.00016" lon="23.66507">
        <ele>114.010372</ele>
        <time>2020-10-07T00:34:27.689Z</time>
      </trkpt>
      <trkpt lat="54.00011" lon="23.66472">
        <ele>113.820884</ele>
        <time>2020-10-07T00:34:31.812Z</time>
      </trkpt>
      <trkpt lat="54.00008" lon="23.66462">
        <ele>113.764958</ele>
        <time>2020-10-07T00:34:33.036Z</time>
      </trkpt>
      <trkpt lat="53.99945" lon="23.66218">
        <ele>112.387886</ele>
        <time>2020-10-07T00:35:03.310Z</time>
      </trkpt>
      <trkpt lat="53.99934" lon="23.66178">
        <ele>112.199881</ele>
        <time>2020-10-07T00:35:08.460Z</time>
      </trkpt>
      <trkpt lat="53.99833" lon="23.65797">
        <ele>110.346431</ele>
        <time>2020-10-07T00:35:58.107Z</time>
      </trkpt>
      <trkpt lat="53.99822" lon="23.6575">
        <ele>110.113034</ele>
        <time>2020-10-07T00:36:03.895Z</time>
      </trkpt>
      <trkpt lat="53.99816" lon="23.65683">
        <ele>109.79272</ele>
        <time>2020-10-07T00:36:11.746Z</time>
      </trkpt>
      <trkpt lat="53.99818" lon="23.65632">
        <ele>109.507794</ele>
        <time>2020-10-07T00:36:17.537Z</time>
      </trkpt>
      <trkpt lat="53.99819" lon="23.65573">
        <ele>109.16799</ele>
        <time>2020-10-07T00:36:24.136Z</time>
      </trkpt>
      <trkpt lat="53.99828" lon="23.65504">
        <ele>108.755261</ele>
        <time>2020-10-07T00:36:32.030Z</time>
      </trkpt>
      <trkpt lat="53.9985" lon="23.65318">
        <ele>107.778647</ele>
        <time>2020-10-07T00:36:53.879Z</time>
      </trkpt>
      <trkpt lat="53.99855" lon="23.65268">
        <ele>107.601511</ele>
        <time>2020-10-07T00:36:59.619Z</time>
      </trkpt>
      <trkpt lat="53.99862" lon="23.65217">
        <ele>107.419737</ele>
        <time>2020-10-07T00:37:05.847Z</time>
      </trkpt>
      <trkpt lat="53.99891" lon="23.65232">
        <ele>107.24133</ele>
        <time>2020-10-07T00:37:11.977Z</time>
      </trkpt>
      <trkpt lat="53.99914" lon="23.65249">
        <ele>107.09098</ele>
        <time>2020-10-07T00:37:17.212Z</time>
      </trkpt>
      <trkpt lat="53.99936" lon="23.65272">
        <ele>106.938641</ele>
        <time>2020-10-07T00:37:22.630Z</time>
      </trkpt>
      <trkpt lat="54.00056" lon="23.65424">
        <ele>107.59098</ele>
        <time>2020-10-07T00:37:56.506Z</time>
      </trkpt>
      <trkpt lat="54.00107" lon="23.6548">
        <ele>108.30756</ele>
        <time>2020-10-07T00:38:13.810Z</time>
      </trkpt>
      <trkpt lat="54.00181" lon="23.65553">
        <ele>110.206006</ele>
        <time>2020-10-07T00:38:42.555Z</time>
      </trkpt>
      <trkpt lat="54.00193" lon="23.65564">
        <ele>110.516536</ele>
        <time>2020-10-07T00:38:47.559Z</time>
      </trkpt>
      <trkpt lat="54.00219" lon="23.65579">
        <ele>111.115466</ele>
        <time>2020-10-07T00:38:55.754Z</time>
      </trkpt>
      <trkpt lat="54.00242" lon="23.65584">
        <ele>111.636764</ele>
        <time>2020-10-07T00:39:03.011Z</time>
      </trkpt>
      <trkpt lat="54.00253" lon="23.65586">
        <ele>111.798472</ele>
        <time>2020-10-07T00:39:06.201Z</time>
      </trkpt>
      <trkpt lat="54.0028" lon="23.65589">
        <ele>111.919017</ele>
        <time>2020-10-07T00:39:14.005Z</time>
      </trkpt>
      <trkpt lat="54.00331" lon="23.65594">
        <ele>112.148021</ele>
        <time>2020-10-07T00:39:28.052Z</time>
      </trkpt>
      <trkpt lat="54.00346" lon="23.65593">
        <ele>112.214692</ele>
        <time>2020-10-07T00:39:31.772Z</time>
      </trkpt>
      <trkpt lat="54.00353" lon="23.65587">
        <ele>112.250437</ele>
        <time>2020-10-07T00:39:33.149Z</time>
      </trkpt>
      <trkpt lat="54.00365" lon="23.6556">
        <ele>112.340538</ele>
        <time>2020-10-07T00:39:38.560Z</time>
      </trkpt>
      <trkpt lat="54.0039" lon="23.65379">
        <ele>112.487746</ele>
        <time>2020-10-07T00:40:00.850Z</time>
      </trkpt>
      <trkpt lat="54.0039" lon="23.65351">
        <ele>112.459684</ele>
        <time>2020-10-07T00:40:03.770Z</time>
      </trkpt>
      <trkpt lat="54.0039" lon="23.65314">
        <ele>112.422995</ele>
        <time>2020-10-07T00:40:08.934Z</time>
      </trkpt>
      <trkpt lat="54.00389" lon="23.65273">
        <ele>112.381012</ele>
        <time>2020-10-07T00:40:14.369Z</time>
      </trkpt>
      <trkpt lat="54.00386" lon="23.65145">
        <ele>112.494038</ele>
        <time>2020-10-07T00:40:33.577Z</time>
      </trkpt>
      <trkpt lat="54.00386" lon="23.65117">
        <ele>112.785593</ele>
        <time>2020-10-07T00:40:38.397Z</time>
      </trkpt>
      <trkpt lat="54.00386" lon="23.65019">
        <ele>113.783031</ele>
        <time>2020-10-07T00:40:56.283Z</time>
      </trkpt>
      <trkpt lat="54.00388" lon="23.64959">
        <ele>114.404494</ele>
        <time>2020-10-07T00:41:07.666Z</time>
      </trkpt>
      <trkpt lat="54.00392" lon="23.64931">
        <ele>114.696339</ele>
        <time>2020-10-07T00:41:13.248Z</time>
      </trkpt>
      <trkpt lat="54.00431" lon="23.64726">
        <ele>116.947664</ele>
        <time>2020-10-07T00:41:52.016Z</time>
      </trkpt>
      <trkpt lat="54.00456" lon="23.64589">
        <ele>118.459744</ele>
        <time>2020-10-07T00:42:17.484Z</time>
      </trkpt>
      <trkpt lat="54.00497" lon="23.64382">
        <ele>120.501896</ele>
        <time>2020-10-07T00:42:55.718Z</time>
      </trkpt>
      <trkpt lat="54.00525" lon="23.64239">
        <ele>121.801583</ele>
        <time>2020-10-07T00:43:21.434Z</time>
      </trkpt>
      <trkpt lat="54.00545" lon="23.64106">
        <ele>122.777194</ele>
        <time>2020-10-07T00:43:44.339Z</time>
      </trkpt>
      <trkpt lat="54.00612" lon="23.63445">
        <ele>126.860474</ele>
        <time>2020-10-07T00:45:32.050Z</time>
      </trkpt>
      <trkpt lat="54.00645" lon="23.63082">
        <ele>127.948085</ele>
        <time>2020-10-07T00:46:27.983Z</time>
      </trkpt>
      <trkpt lat="54.00702" lon="23.62446">
        <ele>124.142711</ele>
        <time>2020-10-07T00:47:42.121Z</time>
      </trkpt>
      <trkpt lat="54.00741" lon="23.62002">
        <ele>126.078795</ele>
        <time>2020-10-07T00:48:56.775Z</time>
      </trkpt>
      <trkpt lat="54.00957" lon="23.60034">
        <ele>124.83433</ele>
        <time>2020-10-07T00:53:23.450Z</time>
      </trkpt>
      <trkpt lat="54.00962" lon="23.59989">
        <ele>124.651152</ele>
        <time>2020-10-07T00:53:29.335Z</time>
      </trkpt>
      <trkpt lat="54.00979" lon="23.59878">
        <ele>124.198905</ele>
        <time>2020-10-07T00:53:43.683Z</time>
      </trkpt>
      <trkpt lat="54.00995" lon="23.59821">
        <ele>123.948832</ele>
        <time>2020-10-07T00:53:51.448Z</time>
      </trkpt>
      <trkpt lat="54.01139" lon="23.59383">
        <ele>119.788557</ele>
        <time>2020-10-07T00:54:49.250Z</time>
      </trkpt>
      <trkpt lat="54.01163" lon="23.59292">
        <ele>118.666313</ele>
        <time>2020-10-07T00:54:59.725Z</time>
      </trkpt>
      <trkpt lat="54.01164" lon="23.59236">
        <ele>118.026806</ele>
        <time>2020-10-07T00:55:05.710Z</time>
      </trkpt>
      <trkpt lat="54.01164" lon="23.59216">
        <ele>117.828365</ele>
        <time>2020-10-07T00:55:07.696Z</time>
      </trkpt>
      <trkpt lat="54.01162" lon="23.59134">
        <ele>117.003195</ele>
        <time>2020-10-07T00:55:16.364Z</time>
      </trkpt>
      <trkpt lat="54.01161" lon="23.59101">
        <ele>116.678944</ele>
        <time>2020-10-07T00:55:19.702Z</time>
      </trkpt>
      <trkpt lat="54.01163" lon="23.59009">
        <ele>115.75734</ele>
        <time>2020-10-07T00:55:29.925Z</time>
      </trkpt>
      <trkpt lat="54.01168" lon="23.58961">
        <ele>115.269097</ele>
        <time>2020-10-07T00:55:35.711Z</time>
      </trkpt>
      <trkpt lat="54.0118" lon="23.58932">
        <ele>114.921932</ele>
        <time>2020-10-07T00:55:40.062Z</time>
      </trkpt>
      <trkpt lat="54.01184" lon="23.58921">
        <ele>115.049526</ele>
        <time>2020-10-07T00:55:41.885Z</time>
      </trkpt>
      <trkpt lat="54.01204" lon="23.58862">
        <ele>115.741532</ele>
        <time>2020-10-07T00:55:51.668Z</time>
      </trkpt>
      <trkpt lat="54.01212" lon="23.58805">
        <ele>116.340749</ele>
        <time>2020-10-07T00:56:01.202Z</time>
      </trkpt>
      <trkpt lat="54.01214" lon="23.58656">
        <ele>117.873541</ele>
        <time>2020-10-07T00:56:31.750Z</time>
      </trkpt>
      <trkpt lat="54.01203" lon="23.58558">
        <ele>118.812702</ele>
        <time>2020-10-07T00:56:53.247Z</time>
      </trkpt>
      <trkpt lat="54.01197" lon="23.58506">
        <ele>119.304502</ele>
        <time>2020-10-07T00:57:04.775Z</time>
      </trkpt>
      <trkpt lat="54.01086" lon="23.57605">
        <ele>125.701437</ele>
        <time>2020-10-07T00:59:33.892Z</time>
      </trkpt>
      <trkpt lat="54.01013" lon="23.57026">
        <ele>123.505707</ele>
        <time>2020-10-07T01:00:46.691Z</time>
      </trkpt>
      <trkpt lat="54.0099" lon="23.56833">
        <ele>121.937797</ele>
        <time>2020-10-07T01:01:08.136Z</time>
      </trkpt>
      <trkpt lat="54.00985" lon="23.56766">
        <ele>121.891124</ele>
        <time>2020-10-07T01:01:15.684Z</time>
      </trkpt>
      <trkpt lat="54.0099" lon="23.56724">
        <ele>121.860605</ele>
        <time>2020-10-07T01:01:21.127Z</time>
      </trkpt>
      <trkpt lat="54.01006" lon="23.56669">
        <ele>121.818017</ele>
        <time>2020-10-07T01:01:29.376Z</time>
      </trkpt>
      <trkpt lat="54.01035" lon="23.56586">
        <ele>121.750268</ele>
        <time>2020-10-07T01:01:43.980Z</time>
      </trkpt>
      <trkpt lat="54.01061" lon="23.56536">
        <ele>122.13936</ele>
        <time>2020-10-07T01:01:55.077Z</time>
      </trkpt>
      <trkpt lat="54.01113" lon="23.56472">
        <ele>123.335438</ele>
        <time>2020-10-07T01:02:14.571Z</time>
      </trkpt>
      <trkpt lat="54.01536" lon="23.56077">
        <ele>131.834354</ele>
        <time>2020-10-07T01:04:39.502Z</time>
      </trkpt>
      <trkpt lat="54.01721" lon="23.55882">
        <ele>131.996049</ele>
        <time>2020-10-07T01:05:27.227Z</time>
      </trkpt>
      <trkpt lat="54.01815" lon="23.55769">
        <ele>131.384008</ele>
        <time>2020-10-07T01:05:50.041Z</time>
      </trkpt>
      <trkpt lat="54.01887" lon="23.55671">
        <ele>130.788062</ele>
        <time>2020-10-07T01:06:08.131Z</time>
      </trkpt>
      <trkpt lat="54.01912" lon="23.55651">
        <ele>130.607807</ele>
        <time>2020-10-07T01:06:13.635Z</time>
      </trkpt>
      <trkpt lat="54.01979" lon="23.55632">
        <ele>130.27441</ele>
        <time>2020-10-07T01:06:27.570Z</time>
      </trkpt>
      <trkpt lat="54.02051" lon="23.55642">
        <ele>130.617354</ele>
        <time>2020-10-07T01:06:43.760Z</time>
      </trkpt>
      <trkpt lat="54.02262" lon="23.55751">
        <ele>132.413089</ele>
        <time>2020-10-07T01:07:41.420Z</time>
      </trkpt>
      <trkpt lat="54.02369" lon="23.55763">
        <ele>133.505096</ele>
        <time>2020-10-07T01:08:10.968Z</time>
      </trkpt>
      <trkpt lat="54.02491" lon="23.55762">
        <ele>134.640543</ele>
        <time>2020-10-07T01:08:42.659Z</time>
      </trkpt>
      <trkpt lat="54.02516" lon="23.55753">
        <ele>134.746844</ele>
        <time>2020-10-07T01:08:48.957Z</time>
      </trkpt>
      <trkpt lat="54.02541" lon="23.55726">
        <ele>134.794761</ele>
        <time>2020-10-07T01:08:55.916Z</time>
      </trkpt>
      <trkpt lat="54.02612" lon="23.55624">
        <ele>134.945396</ele>
        <time>2020-10-07T01:09:16.810Z</time>
      </trkpt>
      <trkpt lat="54.02628" lon="23.55592">
        <ele>134.986068</ele>
        <time>2020-10-07T01:09:22.206Z</time>
      </trkpt>
      <trkpt lat="54.02705" lon="23.55317">
        <ele>135.081491</ele>
        <time>2020-10-07T01:10:01.418Z</time>
      </trkpt>
      <trkpt lat="54.02726" lon="23.55242">
        <ele>135.429753</ele>
        <time>2020-10-07T01:10:13.402Z</time>
      </trkpt>
      <trkpt lat="54.0274" lon="23.55194">
        <ele>135.753558</ele>
        <time>2020-10-07T01:10:21.472Z</time>
      </trkpt>
      <trkpt lat="54.02763" lon="23.55111">
        <ele>136.313796</ele>
        <time>2020-10-07T01:10:36.089Z</time>
      </trkpt>
      <trkpt lat="54.02805" lon="23.55003">
        <ele>137.106592</ele>
        <time>2020-10-07T01:10:57.758Z</time>
      </trkpt>
      <trkpt lat="54.02867" lon="23.54866">
        <ele>138.197523</ele>
        <time>2020-10-07T01:11:25.993Z</time>
      </trkpt>
      <trkpt lat="54.0311" lon="23.5428">
        <ele>140.526573</ele>
        <time>2020-10-07T01:13:07.795Z</time>
      </trkpt>
      <trkpt lat="54.03125" lon="23.54203">
        <ele>140.32289</ele>
        <time>2020-10-07T01:13:18.802Z</time>
      </trkpt>
      <trkpt lat="54.03131" lon="23.5412">
        <ele>140.088965</ele>
        <time>2020-10-07T01:13:29.801Z</time>
      </trkpt>
      <trkpt lat="54.03126" lon="23.53995">
        <ele>139.741784</ele>
        <time>2020-10-07T01:13:44.305Z</time>
      </trkpt>
      <trkpt lat="54.03132" lon="23.539">
        <ele>138.682576</ele>
        <time>2020-10-07T01:13:54.450Z</time>
      </trkpt>
      <trkpt lat="54.03125" lon="23.5381">
        <ele>137.466633</ele>
        <time>2020-10-07T01:14:03.497Z</time>
      </trkpt>
      <trkpt lat="54.03139" lon="23.53783">
        <ele>136.976773</ele>
        <time>2020-10-07T01:14:07.013Z</time>
      </trkpt>
      <trkpt lat="54.0326" lon="23.53639">
        <ele>135.06121</ele>
        <time>2020-10-07T01:14:32.171Z</time>
      </trkpt>
      <trkpt lat="54.03265" lon="23.536">
        <ele>134.918099</ele>
        <time>2020-10-07T01:14:36.941Z</time>
      </trkpt>
      <trkpt lat="54.03254" lon="23.53537">
        <ele>134.680236</ele>
        <time>2020-10-07T01:14:46.119Z</time>
      </trkpt>
      <trkpt lat="54.03252" lon="23.53499">
        <ele>134.543989</ele>
        <time>2020-10-07T01:14:52.684Z</time>
      </trkpt>
      <trkpt lat="54.03261" lon="23.5347">
        <ele>134.853081</ele>
        <time>2020-10-07T01:14:58.973Z</time>
      </trkpt>
      <trkpt lat="54.0328" lon="23.53446">
        <ele>135.649145</ele>
        <time>2020-10-07T01:15:07.431Z</time>
      </trkpt>
      <trkpt lat="54.0335" lon="23.53389">
        <ele>138.240674</ele>
        <time>2020-10-07T01:15:36.282Z</time>
      </trkpt>
      <trkpt lat="54.03403" lon="23.53341">
        <ele>140.264736</ele>
        <time>2020-10-07T01:15:59.503Z</time>
      </trkpt>
      <trkpt lat="54.03413" lon="23.53365">
        <ele>140.73701</ele>
        <time>2020-10-07T01:16:08.233Z</time>
      </trkpt>
      <trkpt lat="54.03403" lon="23.53341">
        <ele>141.134724</ele>
        <time>2020-10-07T01:16:17.104Z</time>
      </trkpt>
      <trkpt lat="54.03425" lon="23.53321">
        <ele>141.712756</ele>
        <time>2020-10-07T01:16:25.765Z</time>
      </trkpt>
      <trkpt lat="54.03488" lon="23.53473">
        <ele>144.263218</ele>
        <time>2020-10-07T01:17:15.475Z</time>
      </trkpt>
      <trkpt lat="54.03522" lon="23.53539">
        <ele>144.942481</ele>
        <time>2020-10-07T01:17:36.257Z</time>
      </trkpt>
      <trkpt lat="54.03576" lon="23.53596">
        <ele>145.395267</ele>
        <time>2020-10-07T01:18:01.729Z</time>
      </trkpt>
      <trkpt lat="54.03659" lon="23.53666">
        <ele>146.009746</ele>
        <time>2020-10-07T01:18:38.130Z</time>
      </trkpt>
      <trkpt lat="54.03762" lon="23.5374">
        <ele>146.132524</ele>
        <time>2020-10-07T01:19:20.167Z</time>
      </trkpt>
      <trkpt lat="54.03845" lon="23.53782">
        <ele>146.233104</ele>
        <time>2020-10-07T01:19:52.050Z</time>
      </trkpt>
      <trkpt lat="54.03934" lon="23.5379">
        <ele>146.350371</ele>
        <time>2020-10-07T01:20:25.330Z</time>
      </trkpt>
      <trkpt lat="54.04466" lon="23.53762">
        <ele>147.937604</ele>
        <time>2020-10-07T01:23:50.185Z</time>
      </trkpt>
      <trkpt lat="54.04495" lon="23.5376">
        <ele>147.997347</ele>
        <time>2020-10-07T01:24:00.991Z</time>
      </trkpt>
      <trkpt lat="54.04926" lon="23.53723">
        <ele>147.974895</ele>
        <time>2020-10-07T01:26:40.551Z</time>
      </trkpt>
      <trkpt lat="54.05132" lon="23.53708">
        <ele>147.72352</ele>
        <time>2020-10-07T01:27:56.322Z</time>
      </trkpt>
      <trkpt lat="54.0633" lon="23.53629">
        <ele>145.134378</ele>
        <time>2020-10-07T01:35:10.419Z</time>
      </trkpt>
      <trkpt lat="54.06823" lon="23.53588">
        <ele>146.058255</ele>
        <time>2020-10-07T01:38:19.971Z</time>
      </trkpt>
      <trkpt lat="54.07309" lon="23.53553">
        <ele>142.245945</ele>
        <time>2020-10-07T01:41:04.008Z</time>
      </trkpt>
      <trkpt lat="54.07445" lon="23.53543">
        <ele>142.292856</ele>
        <time>2020-10-07T01:41:57.901Z</time>
      </trkpt>
      <trkpt lat="54.08531" lon="23.53472">
        <ele>146.200254</ele>
        <time>2020-10-07T01:48:58.334Z</time>
      </trkpt>
      <trkpt lat="54.08556" lon="23.53453">
        <ele>146.010416</ele>
        <time>2020-10-07T01:49:08.097Z</time>
      </trkpt>
      <trkpt lat="54.09166" lon="23.5278">
        <ele>140.707077</ele>
        <time>2020-10-07T01:53:17.739Z</time>
      </trkpt>
      <trkpt lat="54.09295" lon="23.52506">
        <ele>139.584792</ele>
        <time>2020-10-07T01:54:30.176Z</time>
      </trkpt>
      <trkpt lat="54.09299" lon="23.52498">
        <ele>139.562922</ele>
        <time>2020-10-07T01:54:32.030Z</time>
      </trkpt>
      <trkpt lat="54.09303" lon="23.5249">
        <ele>139.537642</ele>
        <time>2020-10-07T01:54:34.562Z</time>
      </trkpt>
      <trkpt lat="54.09378" lon="23.52335">
        <ele>139.049033</ele>
        <time>2020-10-07T01:55:17.543Z</time>
      </trkpt>
      <trkpt lat="54.09684" lon="23.5206">
        <ele>137.058311</ele>
        <time>2020-10-07T01:57:19.063Z</time>
      </trkpt>
      <trkpt lat="54.09953" lon="23.51796">
        <ele>133.721193</ele>
        <time>2020-10-07T01:59:02.313Z</time>
      </trkpt>
      <trkpt lat="54.09985" lon="23.51779">
        <ele>133.670977</ele>
        <time>2020-10-07T01:59:14.035Z</time>
      </trkpt>
      <trkpt lat="54.10006" lon="23.51772">
        <ele>133.746978</ele>
        <time>2020-10-07T01:59:21.455Z</time>
      </trkpt>
      <trkpt lat="54.10025" lon="23.5177">
        <ele>133.816021</ele>
        <time>2020-10-07T01:59:28.363Z</time>
      </trkpt>
      <trkpt lat="54.10648" lon="23.51903">
        <ele>136.404716</ele>
        <time>2020-10-07T02:03:33.911Z</time>
      </trkpt>
      <trkpt lat="54.10678" lon="23.51898">
        <ele>136.570415</ele>
        <time>2020-10-07T02:03:45.665Z</time>
      </trkpt>
      <trkpt lat="54.11034" lon="23.51524">
        <ele>140.214874</ele>
        <time>2020-10-07T02:06:36.113Z</time>
      </trkpt>
      <trkpt lat="54.11245" lon="23.51468">
        <ele>141.338788</ele>
        <time>2020-10-07T02:08:01.522Z</time>
      </trkpt>
      <trkpt lat="54.11396" lon="23.51385">
        <ele>140.957189</ele>
        <time>2020-10-07T02:08:58.550Z</time>
      </trkpt>
      <trkpt lat="54.11442" lon="23.51359">
        <ele>140.573197</ele>
        <time>2020-10-07T02:09:14.975Z</time>
      </trkpt>
      <trkpt lat="54.11571" lon="23.51065">
        <ele>138.60052</ele>
        <time>2020-10-07T02:10:26.996Z</time>
      </trkpt>
      <trkpt lat="54.11666" lon="23.50871">
        <ele>137.88303</ele>
        <time>2020-10-07T02:11:20.706Z</time>
      </trkpt>
      <trkpt lat="54.11681" lon="23.50812">
        <ele>137.735447</ele>
        <time>2020-10-07T02:11:35.012Z</time>
      </trkpt>
      <trkpt lat="54.11712" lon="23.50556">
        <ele>135.54744</ele>
        <time>2020-10-07T02:12:26.500Z</time>
      </trkpt>
      <trkpt lat="54.11732" lon="23.5036">
        <ele>132.648211</ele>
        <time>2020-10-07T02:13:01.204Z</time>
      </trkpt>
      <trkpt lat="54.11734" lon="23.50342">
        <ele>132.334346</ele>
        <time>2020-10-07T02:13:04.098Z</time>
      </trkpt>
      <trkpt lat="54.11743" lon="23.50283">
        <ele>131.235033</ele>
        <time>2020-10-07T02:13:14.652Z</time>
      </trkpt>
      <trkpt lat="54.11761" lon="23.50245">
        <ele>130.34861</ele>
        <time>2020-10-07T02:13:23.297Z</time>
      </trkpt>
      <trkpt lat="54.11779" lon="23.50219">
        <ele>129.649469</ele>
        <time>2020-10-07T02:13:30.184Z</time>
      </trkpt>
      <trkpt lat="54.11818" lon="23.50155">
        <ele>129.013982</ele>
        <time>2020-10-07T02:13:46.737Z</time>
      </trkpt>
      <trkpt lat="54.11838" lon="23.50092">
        <ele>128.704736</ele>
        <time>2020-10-07T02:14:00.629Z</time>
      </trkpt>
      <trkpt lat="54.1215" lon="23.49726">
        <ele>126.733032</ele>
        <time>2020-10-07T02:16:17.168Z</time>
      </trkpt>
      <trkpt lat="54.12187" lon="23.49712">
        <ele>126.743135</ele>
        <time>2020-10-07T02:16:31.653Z</time>
      </trkpt>
      <trkpt lat="54.12247" lon="23.49691">
        <ele>126.937276</ele>
        <time>2020-10-07T02:16:55.420Z</time>
      </trkpt>
      <trkpt lat="54.12378" lon="23.49647">
        <ele>127.966854</ele>
        <time>2020-10-07T02:17:49.603Z</time>
      </trkpt>
      <trkpt lat="54.12409" lon="23.49636">
        <ele>128.206356</ele>
        <time>2020-10-07T02:18:02.647Z</time>
      </trkpt>
      <trkpt lat="54.12468" lon="23.49617">
        <ele>128.613685</ele>
        <time>2020-10-07T02:18:26.761Z</time>
      </trkpt>
      <trkpt lat="54.12544" lon="23.49601">
        <ele>129.130575</ele>
        <time>2020-10-07T02:18:57.067Z</time>
      </trkpt>
      <trkpt lat="54.12643" lon="23.49612">
        <ele>129.883922</ele>
        <time>2020-10-07T02:19:36.194Z</time>
      </trkpt>
      <trkpt lat="54.12733" lon="23.4962">
        <ele>130.595731</ele>
        <time>2020-10-07T02:20:12.229Z</time>
      </trkpt>
      <trkpt lat="54.12769" lon="23.49624">
        <ele>130.981533</ele>
        <time>2020-10-07T02:20:27.313Z</time>
      </trkpt>
      <trkpt lat="54.1295" lon="23.49642">
        <ele>133.908344</ele>
        <time>2020-10-07T02:21:46.093Z</time>
      </trkpt>
      <trkpt lat="54.13144" lon="23.49665">
        <ele>138.267204</ele>
        <time>2020-10-07T02:23:16.864Z</time>
      </trkpt>
      <trkpt lat="54.13205" lon="23.49668">
        <ele>139.627962</ele>
        <time>2020-10-07T02:23:45.450Z</time>
      </trkpt>
      <trkpt lat="54.13216" lon="23.49668">
        <ele>139.858446</ele>
        <time>2020-10-07T02:23:50.320Z</time>
      </trkpt>
      <trkpt lat="54.13253" lon="23.49681">
        <ele>140.695298</ele>
        <time>2020-10-07T02:24:07.704Z</time>
      </trkpt>
      <trkpt lat="54.13486" lon="23.49852">
        <ele>145.480389</ele>
        <time>2020-10-07T02:26:00.395Z</time>
      </trkpt>
      <trkpt lat="54.13749" lon="23.50085">
        <ele>150.369408</ele>
        <time>2020-10-07T02:28:11.143Z</time>
      </trkpt>
      <trkpt lat="54.13761" lon="23.50091">
        <ele>150.556542</ele>
        <time>2020-10-07T02:28:16.498Z</time>
      </trkpt>
      <trkpt lat="54.1378" lon="23.50084">
        <ele>150.855229</ele>
        <time>2020-10-07T02:28:24.585Z</time>
      </trkpt>
      <trkpt lat="54.14017" lon="23.49859">
        <ele>151.793172</ele>
        <time>2020-10-07T02:30:09.264Z</time>
      </trkpt>
      <trkpt lat="54.14081" lon="23.49796">
        <ele>151.816881</ele>
        <time>2020-10-07T02:30:35.747Z</time>
      </trkpt>
      <trkpt lat="54.14104" lon="23.49787">
        <ele>151.789642</ele>
        <time>2020-10-07T02:30:44.120Z</time>
      </trkpt>
      <trkpt lat="54.14315" lon="23.49751">
        <ele>150.981987</ele>
        <time>2020-10-07T02:32:00.147Z</time>
      </trkpt>
      <trkpt lat="54.14356" lon="23.49735">
        <ele>150.794996</ele>
        <time>2020-10-07T02:32:15.340Z</time>
      </trkpt>
      <trkpt lat="54.14445" lon="23.49655">
        <ele>150.340256</ele>
        <time>2020-10-07T02:32:50.840Z</time>
      </trkpt>
      <trkpt lat="54.14641" lon="23.49378">
        <ele>148.587013</ele>
        <time>2020-10-07T02:34:18.723Z</time>
      </trkpt>
      <trkpt lat="54.14665" lon="23.49352">
        <ele>148.405747</ele>
        <time>2020-10-07T02:34:28.633Z</time>
      </trkpt>
      <trkpt lat="54.14988" lon="23.49314">
        <ele>146.403443</ele>
        <time>2020-10-07T02:36:22.947Z</time>
      </trkpt>
      <trkpt lat="54.15186" lon="23.49116">
        <ele>143.947053</ele>
        <time>2020-10-07T02:37:39.646Z</time>
      </trkpt>
      <trkpt lat="54.15238" lon="23.49078">
        <ele>143.261125</ele>
        <time>2020-10-07T02:37:58.081Z</time>
      </trkpt>
      <trkpt lat="54.15242" lon="23.49075">
        <ele>143.207891</ele>
        <time>2020-10-07T02:37:59.534Z</time>
      </trkpt>
      <trkpt lat="54.15492" lon="23.489">
        <ele>140.592153</ele>
        <time>2020-10-07T02:39:30.561Z</time>
      </trkpt>
      <trkpt lat="54.15693" lon="23.48803">
        <ele>139.618154</ele>
        <time>2020-10-07T02:40:44.084Z</time>
      </trkpt>
      <trkpt lat="54.15707" lon="23.48779">
        <ele>139.572617</ele>
        <time>2020-10-07T02:40:51.463Z</time>
      </trkpt>
      <trkpt lat="54.15783" lon="23.48548">
        <ele>140.291152</ele>
        <time>2020-10-07T02:41:52.587Z</time>
      </trkpt>
      <trkpt lat="54.15799" lon="23.48514">
        <ele>140.468509</ele>
        <time>2020-10-07T02:42:03.234Z</time>
      </trkpt>
      <trkpt lat="54.15846" lon="23.48492">
        <ele>140.810379</ele>
        <time>2020-10-07T02:42:22.891Z</time>
      </trkpt>
      <trkpt lat="54.15868" lon="23.4847">
        <ele>141.004224</ele>
        <time>2020-10-07T02:42:33.404Z</time>
      </trkpt>
      <trkpt lat="54.15949" lon="23.48372">
        <ele>141.766085</ele>
        <time>2020-10-07T02:43:13.838Z</time>
      </trkpt>
      <trkpt lat="54.16061" lon="23.48232">
        <ele>142.544761</ele>
        <time>2020-10-07T02:44:08.138Z</time>
      </trkpt>
      <trkpt lat="54.16075" lon="23.48225">
        <ele>142.613453</ele>
        <time>2020-10-07T02:44:13.895Z</time>
      </trkpt>
      <trkpt lat="54.16151" lon="23.48263">
        <ele>142.940518</ele>
        <time>2020-10-07T02:44:44.460Z</time>
      </trkpt>
      <trkpt lat="54.16176" lon="23.48266">
        <ele>142.932922</ele>
        <time>2020-10-07T02:44:54.037Z</time>
      </trkpt>
      <trkpt lat="54.16197" lon="23.48258">
        <ele>142.926331</ele>
        <time>2020-10-07T02:45:02.279Z</time>
      </trkpt>
      <trkpt lat="54.16236" lon="23.48242">
        <ele>142.914143</ele>
        <time>2020-10-07T02:45:17.455Z</time>
      </trkpt>
      <trkpt lat="54.16446" lon="23.48135">
        <ele>141.987081</ele>
        <time>2020-10-07T02:46:35.694Z</time>
      </trkpt>
      <trkpt lat="54.16488" lon="23.48105">
        <ele>141.674323</ele>
        <time>2020-10-07T02:46:51.027Z</time>
      </trkpt>
      <trkpt lat="54.16552" lon="23.48007">
        <ele>140.315214</ele>
        <time>2020-10-07T02:47:18.640Z</time>
      </trkpt>
      <trkpt lat="54.16683" lon="23.47784">
        <ele>137.817008</ele>
        <time>2020-10-07T02:48:18.249Z</time>
      </trkpt>
      <trkpt lat="54.167" lon="23.47768">
        <ele>137.599073</ele>
        <time>2020-10-07T02:48:24.986Z</time>
      </trkpt>
      <trkpt lat="54.16808" lon="23.47758">
        <ele>136.905705</ele>
        <time>2020-10-07T02:49:03.261Z</time>
      </trkpt>
      <trkpt lat="54.16831" lon="23.4775">
        <ele>136.952806</ele>
        <time>2020-10-07T02:49:12.037Z</time>
      </trkpt>
      <trkpt lat="54.16559" lon="23.47636">
        <ele>138.132173</ele>
        <time>2020-10-07T02:50:19.856Z</time>
      </trkpt>
      <trkpt lat="54.16534" lon="23.47625">
        <ele>138.271774</ele>
        <time>2020-10-07T02:50:26.734Z</time>
      </trkpt>
      <trkpt lat="54.16494" lon="23.47608">
        <ele>138.461473</ele>
        <time>2020-10-07T02:50:37.443Z</time>
      </trkpt>
      <trkpt lat="54.1648" lon="23.47602">
        <ele>138.531513</ele>
        <time>2020-10-07T02:50:41.291Z</time>
      </trkpt>
      <trkpt lat="54.16439" lon="23.47585">
        <ele>138.729275</ele>
        <time>2020-10-07T02:50:51.893Z</time>
      </trkpt>
      <trkpt lat="54.16381" lon="23.47561">
        <ele>139.010473</ele>
        <time>2020-10-07T02:51:05.988Z</time>
      </trkpt>
      <trkpt lat="54.16367" lon="23.47552">
        <ele>139.051047</ele>
        <time>2020-10-07T02:51:09.236Z</time>
      </trkpt>
      <trkpt lat="54.16355" lon="23.47542">
        <ele>138.90259</ele>
        <time>2020-10-07T02:51:12.097Z</time>
      </trkpt>
      <trkpt lat="54.16346" lon="23.47529">
        <ele>138.77132</ele>
        <time>2020-10-07T02:51:14.498Z</time>
      </trkpt>
      <trkpt lat="54.16303" lon="23.47503">
        <ele>138.269957</ele>
        <time>2020-10-07T02:51:23.267Z</time>
      </trkpt>
      <trkpt lat="54.16234" lon="23.47471">
        <ele>137.480464</ele>
        <time>2020-10-07T02:51:36.321Z</time>
      </trkpt>
      <trkpt lat="54.16202" lon="23.47458">
        <ele>137.110827</ele>
        <time>2020-10-07T02:51:42.378Z</time>
      </trkpt>
      <trkpt lat="54.16106" lon="23.47416">
        <ele>136.028071</ele>
        <time>2020-10-07T02:52:00.655Z</time>
      </trkpt>
      <trkpt lat="54.15957" lon="23.47353">
        <ele>134.789729</ele>
        <time>2020-10-07T02:52:31.272Z</time>
      </trkpt>
      <trkpt lat="54.15868" lon="23.47316">
        <ele>134.380199</ele>
        <time>2020-10-07T02:52:50.647Z</time>
      </trkpt>
      <trkpt lat="54.15858" lon="23.47312">
        <ele>134.333533</ele>
        <time>2020-10-07T02:52:52.837Z</time>
      </trkpt>
      <trkpt lat="54.15862" lon="23.47291">
        <ele>134.293721</ele>
        <time>2020-10-07T02:52:55.602Z</time>
      </trkpt>
      <trkpt lat="54.15871" lon="23.47269">
        <ele>134.290225</ele>
        <time>2020-10-07T02:52:59.381Z</time>
      </trkpt>
      <trkpt lat="54.15881" lon="23.47256">
        <ele>134.287565</ele>
        <time>2020-10-07T02:53:02.120Z</time>
      </trkpt>
      <trkpt lat="54.15889" lon="23.4725">
        <ele>134.285664</ele>
        <time>2020-10-07T02:53:04.126Z</time>
      </trkpt>
      <trkpt lat="54.15928" lon="23.47235">
        <ele>134.277083</ele>
        <time>2020-10-07T02:53:13.325Z</time>
      </trkpt>
      <trkpt lat="54.15995" lon="23.47209">
        <ele>134.262373</ele>
        <time>2020-10-07T02:53:29.446Z</time>
      </trkpt>
      <trkpt lat="54.16008" lon="23.47204">
        <ele>134.259416</ele>
        <time>2020-10-07T02:53:32.691Z</time>
      </trkpt>
      <trkpt lat="54.1602" lon="23.47203">
        <ele>134.256898</ele>
        <time>2020-10-07T02:53:35.533Z</time>
      </trkpt>
      <trkpt lat="54.16037" lon="23.47209">
        <ele>134.261388</ele>
        <time>2020-10-07T02:53:39.629Z</time>
      </trkpt>
      <trkpt lat="54.1606" lon="23.47218">
        <ele>134.271242</ele>
        <time>2020-10-07T02:53:45.159Z</time>
      </trkpt>
      <trkpt lat="54.16067" lon="23.47168">
        <ele>134.283729</ele>
        <time>2020-10-07T02:53:51.809Z</time>
      </trkpt>
      <trkpt lat="54.16077" lon="23.4713">
        <ele>134.294005</ele>
        <time>2020-10-07T02:53:57.203Z</time>
      </trkpt>
      <trkpt lat="54.16087" lon="23.47106">
        <ele>134.301089</ele>
        <time>2020-10-07T02:54:01.091Z</time>
      </trkpt>
      <trkpt lat="54.16101" lon="23.4708">
        <ele>134.309775</ele>
        <time>2020-10-07T02:54:05.657Z</time>
      </trkpt>
      <trkpt lat="54.16133" lon="23.47042">
        <ele>134.326207</ele>
        <time>2020-10-07T02:54:14.529Z</time>
      </trkpt>
      <trkpt lat="54.16216" lon="23.46978">
        <ele>134.450328</ele>
        <time>2020-10-07T02:54:35.360Z</time>
      </trkpt>
      <trkpt lat="54.16246" lon="23.46963">
        <ele>134.497289</ele>
        <time>2020-10-07T02:54:42.433Z</time>
      </trkpt>
      <trkpt lat="54.16271" lon="23.46961">
        <ele>134.534203</ele>
        <time>2020-10-07T02:54:48.114Z</time>
      </trkpt>
      <trkpt lat="54.16397" lon="23.46982">
        <ele>134.738016</ele>
        <time>2020-10-07T02:55:17.799Z</time>
      </trkpt>
      <trkpt lat="54.16408" lon="23.4697">
        <ele>134.759434</ele>
        <time>2020-10-07T02:55:20.848Z</time>
      </trkpt>
      <trkpt lat="54.16512" lon="23.46718">
        <ele>134.701071</ele>
        <time>2020-10-07T02:56:01.267Z</time>
      </trkpt>
      <trkpt lat="54.16629" lon="23.46434">
        <ele>134.100793</ele>
        <time>2020-10-07T02:56:43.463Z</time>
      </trkpt>
      <trkpt lat="54.16713" lon="23.46224">
        <ele>133.762821</ele>
        <time>2020-10-07T02:57:15.329Z</time>
      </trkpt>
      <trkpt lat="54.16799" lon="23.45995">
        <ele>133.440525</ele>
        <time>2020-10-07T02:57:50.371Z</time>
      </trkpt>
      <trkpt lat="54.16847" lon="23.45727">
        <ele>132.919367</ele>
        <time>2020-10-07T02:58:24.671Z</time>
      </trkpt>
      <trkpt lat="54.16852" lon="23.45697">
        <ele>132.850502</ele>
        <time>2020-10-07T02:58:28.551Z</time>
      </trkpt>
      <trkpt lat="54.16856" lon="23.45681">
        <ele>132.812587</ele>
        <time>2020-10-07T02:58:30.526Z</time>
      </trkpt>
      <trkpt lat="54.16874" lon="23.45634">
        <ele>132.689945</ele>
        <time>2020-10-07T02:58:37.375Z</time>
      </trkpt>
      <trkpt lat="54.16899" lon="23.45599">
        <ele>132.56998</ele>
        <time>2020-10-07T02:58:44.139Z</time>
      </trkpt>
      <trkpt lat="54.16986" lon="23.45538">
        <ele>132.51793</ele>
        <time>2020-10-07T02:59:04.304Z</time>
      </trkpt>
      <trkpt lat="54.17021" lon="23.45488">
        <ele>132.575272</ele>
        <time>2020-10-07T02:59:14.609Z</time>
      </trkpt>
      <trkpt lat="54.17126" lon="23.4515">
        <ele>133.358106</ele>
        <time>2020-10-07T03:00:08.820Z</time>
      </trkpt>
      <trkpt lat="54.17151" lon="23.4507">
        <ele>133.578054</ele>
        <time>2020-10-07T03:00:21.514Z</time>
      </trkpt>
      <trkpt lat="54.17164" lon="23.45028">
        <ele>133.674186</ele>
        <time>2020-10-07T03:00:28.046Z</time>
      </trkpt>
      <trkpt lat="54.17207" lon="23.44886">
        <ele>133.996513</ele>
        <time>2020-10-07T03:00:50.246Z</time>
      </trkpt>
      <trkpt lat="54.17228" lon="23.44809">
        <ele>134.153255</ele>
        <time>2020-10-07T03:01:02.032Z</time>
      </trkpt>
      <trkpt lat="54.17233" lon="23.4478">
        <ele>134.195079</ele>
        <time>2020-10-07T03:01:06.030Z</time>
      </trkpt>
      <trkpt lat="54.17234" lon="23.44765">
        <ele>134.215474</ele>
        <time>2020-10-07T03:01:08.145Z</time>
      </trkpt>
      <trkpt lat="54.17232" lon="23.44726">
        <ele>134.269349</ele>
        <time>2020-10-07T03:01:13.441Z</time>
      </trkpt>
      <trkpt lat="54.17223" lon="23.44673">
        <ele>134.346918</ele>
        <time>2020-10-07T03:01:21.375Z</time>
      </trkpt>
      <trkpt lat="54.17173" lon="23.44418">
        <ele>134.236213</ele>
        <time>2020-10-07T03:01:57.259Z</time>
      </trkpt>
      <trkpt lat="54.17139" lon="23.44253">
        <ele>133.804613</ele>
        <time>2020-10-07T03:02:17.544Z</time>
      </trkpt>
      <trkpt lat="54.1713" lon="23.44217">
        <ele>133.669116</ele>
        <time>2020-10-07T03:02:21.915Z</time>
      </trkpt>
      <trkpt lat="54.17058" lon="23.44022">
        <ele>132.821635</ele>
        <time>2020-10-07T03:02:48.616Z</time>
      </trkpt>
      <trkpt lat="54.17054" lon="23.44016">
        <ele>132.785078</ele>
        <time>2020-10-07T03:02:49.714Z</time>
      </trkpt>
      <trkpt lat="54.17048" lon="23.44015">
        <ele>132.75164</ele>
        <time>2020-10-07T03:02:51.129Z</time>
      </trkpt>
      <trkpt lat="54.16831" lon="23.44141">
        <ele>133.085837</ele>
        <time>2020-10-07T03:03:44.306Z</time>
      </trkpt>
      <trkpt lat="54.16604" lon="23.44248">
        <ele>134.223052</ele>
        <time>2020-10-07T03:04:41.365Z</time>
      </trkpt>
      <trkpt lat="54.16517" lon="23.44258">
        <ele>134.747808</ele>
        <time>2020-10-07T03:05:03.051Z</time>
      </trkpt>
      <trkpt lat="54.16358" lon="23.44257">
        <ele>136.043445</ele>
        <time>2020-10-07T03:05:43.861Z</time>
      </trkpt>
      <trkpt lat="54.16344" lon="23.44253">
        <ele>136.155793</ele>
        <time>2020-10-07T03:05:47.470Z</time>
      </trkpt>
      <trkpt lat="54.1633" lon="23.44246">
        <ele>136.273871</ele>
        <time>2020-10-07T03:05:51.057Z</time>
      </trkpt>
      <trkpt lat="54.16315" lon="23.44236">
        <ele>136.392131</ele>
        <time>2020-10-07T03:05:55.111Z</time>
      </trkpt>
      <trkpt lat="54.16276" lon="23.44204">
        <ele>136.713371</ele>
        <time>2020-10-07T03:06:06.044Z</time>
      </trkpt>
      <trkpt lat="54.16264" lon="23.44192">
        <ele>136.816535</ele>
        <time>2020-10-07T03:06:09.407Z</time>
      </trkpt>
      <trkpt lat="54.1622" lon="23.44122">
        <ele>137.262012</ele>
        <time>2020-10-07T03:06:24.673Z</time>
      </trkpt>
      <trkpt lat="54.16213" lon="23.44107">
        <ele>137.342669</ele>
        <time>2020-10-07T03:06:27.293Z</time>
      </trkpt>
      <trkpt lat="54.1611" lon="23.43836">
        <ele>138.982076</ele>
        <time>2020-10-07T03:07:15.869Z</time>
      </trkpt>
      <trkpt lat="54.16097" lon="23.43803">
        <ele>139.197464</ele>
        <time>2020-10-07T03:07:22.143Z</time>
      </trkpt>
      <trkpt lat="54.16092" lon="23.43787">
        <ele>139.324212</ele>
        <time>2020-10-07T03:07:24.980Z</time>
      </trkpt>
      <trkpt lat="54.16076" lon="23.43726">
        <ele>139.800753</ele>
        <time>2020-10-07T03:07:35.595Z</time>
      </trkpt>
      <trkpt lat="54.16001" lon="23.43378">
        <ele>142.296312</ele>
        <time>2020-10-07T03:08:34.946Z</time>
      </trkpt>
      <trkpt lat="54.1599" lon="23.43335">
        <ele>142.589088</ele>
        <time>2020-10-07T03:08:42.359Z</time>
      </trkpt>
      <trkpt lat="54.15984" lon="23.43315">
        <ele>142.728556</ele>
        <time>2020-10-07T03:08:45.831Z</time>
      </trkpt>
      <trkpt lat="54.15909" lon="23.43121">
        <ele>143.29529</ele>
        <time>2020-10-07T03:09:20.080Z</time>
      </trkpt>
      <trkpt lat="54.15874" lon="23.43051">
        <ele>143.319771</ele>
        <time>2020-10-07T03:09:31.276Z</time>
      </trkpt>
      <trkpt lat="54.15865" lon="23.43038">
        <ele>143.32498</ele>
        <time>2020-10-07T03:09:33.725Z</time>
      </trkpt>
      <trkpt lat="54.15857" lon="23.43028">
        <ele>143.32966</ele>
        <time>2020-10-07T03:09:35.690Z</time>
      </trkpt>
      <trkpt lat="54.15824" lon="23.42991">
        <ele>143.236893</ele>
        <time>2020-10-07T03:09:43.559Z</time>
      </trkpt>
      <trkpt lat="54.15818" lon="23.42983">
        <ele>143.199946</ele>
        <time>2020-10-07T03:09:45.124Z</time>
      </trkpt>
      <trkpt lat="54.15751" lon="23.42907">
        <ele>142.827556</ele>
        <time>2020-10-07T03:10:01.114Z</time>
      </trkpt>
      <trkpt lat="54.15675" lon="23.4283">
        <ele>142.660329</ele>
        <time>2020-10-07T03:10:20.047Z</time>
      </trkpt>
      <trkpt lat="54.15661" lon="23.42821">
        <ele>142.784267</ele>
        <time>2020-10-07T03:10:23.819Z</time>
      </trkpt>
      <trkpt lat="54.1565" lon="23.42818">
        <ele>142.87047</ele>
        <time>2020-10-07T03:10:26.548Z</time>
      </trkpt>
      <trkpt lat="54.15633" lon="23.42815">
        <ele>143.014328</ele>
        <time>2020-10-07T03:10:30.977Z</time>
      </trkpt>
      <trkpt lat="54.1559" lon="23.42814">
        <ele>143.370249</ele>
        <time>2020-10-07T03:10:42.441Z</time>
      </trkpt>
      <trkpt lat="54.15541" lon="23.42816">
        <ele>143.772442</ele>
        <time>2020-10-07T03:10:55.731Z</time>
      </trkpt>
      <trkpt lat="54.15524" lon="23.42815">
        <ele>143.913653</ele>
        <time>2020-10-07T03:11:00.291Z</time>
      </trkpt>
      <trkpt lat="54.15513" lon="23.42814">
        <ele>144.005541</ele>
        <time>2020-10-07T03:11:03.308Z</time>
      </trkpt>
      <trkpt lat="54.15399" lon="23.42762">
        <ele>145.267652</ele>
        <time>2020-10-07T03:11:33.532Z</time>
      </trkpt>
      <trkpt lat="54.15318" lon="23.42721">
        <ele>146.543694</ele>
        <time>2020-10-07T03:11:56.371Z</time>
      </trkpt>
      <trkpt lat="54.15308" lon="23.42716">
        <ele>146.81417</ele>
        <time>2020-10-07T03:11:59.461Z</time>
      </trkpt>
      <trkpt lat="54.15282" lon="23.42703">
        <ele>147.502124</ele>
        <time>2020-10-07T03:12:07.643Z</time>
      </trkpt>
      <trkpt lat="54.15223" lon="23.42673">
        <ele>149.074097</ele>
        <time>2020-10-07T03:12:27.992Z</time>
      </trkpt>
      <trkpt lat="54.15159" lon="23.4264">
        <ele>150.738476</ele>
        <time>2020-10-07T03:12:52.741Z</time>
      </trkpt>
      <trkpt lat="54.15125" lon="23.42622">
        <ele>151.403251</ele>
        <time>2020-10-07T03:13:06.203Z</time>
      </trkpt>
      <trkpt lat="54.15047" lon="23.42582">
        <ele>152.919556</ele>
        <time>2020-10-07T03:13:32.568Z</time>
      </trkpt>
      <trkpt lat="54.15" lon="23.42558">
        <ele>153.832197</ele>
        <time>2020-10-07T03:13:43.876Z</time>
      </trkpt>
      <trkpt lat="54.14987" lon="23.42551">
        <ele>153.601514</ele>
        <time>2020-10-07T03:13:46.612Z</time>
      </trkpt>
      <trkpt lat="54.14929" lon="23.42525">
        <ele>151.901335</ele>
        <time>2020-10-07T03:13:57.104Z</time>
      </trkpt>
      <trkpt lat="54.14819" lon="23.42472">
        <ele>148.637194</ele>
        <time>2020-10-07T03:14:15.176Z</time>
      </trkpt>
      <trkpt lat="54.14707" lon="23.42417">
        <ele>144.320557</ele>
        <time>2020-10-07T03:14:33.270Z</time>
      </trkpt>
      <trkpt lat="54.14597" lon="23.42359">
        <ele>141.179565</ele>
        <time>2020-10-07T03:14:52.349Z</time>
      </trkpt>
      <trkpt lat="54.14485" lon="23.42265">
        <ele>139.081777</ele>
        <time>2020-10-07T03:15:15.196Z</time>
      </trkpt>
      <trkpt lat="54.14324" lon="23.42214">
        <ele>140.740105</ele>
        <time>2020-10-07T03:15:57.871Z</time>
      </trkpt>
      <trkpt lat="54.14049" lon="23.42084">
        <ele>147.682987</ele>
        <time>2020-10-07T03:17:36.902Z</time>
      </trkpt>
      <trkpt lat="54.13977" lon="23.42037">
        <ele>149.028206</ele>
        <time>2020-10-07T03:17:56.785Z</time>
      </trkpt>
      <trkpt lat="54.13954" lon="23.42016">
        <ele>148.987713</ele>
        <time>2020-10-07T03:18:02.617Z</time>
      </trkpt>
      <trkpt lat="54.1391" lon="23.41971">
        <ele>148.082494</ele>
        <time>2020-10-07T03:18:12.292Z</time>
      </trkpt>
      <trkpt lat="54.13874" lon="23.41949">
        <ele>147.381602</ele>
        <time>2020-10-07T03:18:19.077Z</time>
      </trkpt>
      <trkpt lat="54.13738" lon="23.41923">
        <ele>144.601803</ele>
        <time>2020-10-07T03:18:41.890Z</time>
      </trkpt>
      <trkpt lat="54.13731" lon="23.41918">
        <ele>144.427222</ele>
        <time>2020-10-07T03:18:43.031Z</time>
      </trkpt>
      <trkpt lat="54.1373" lon="23.41912">
        <ele>144.333659</ele>
        <time>2020-10-07T03:18:43.762Z</time>
      </trkpt>
      <trkpt lat="54.13734" lon="23.41751">
        <ele>142.113054</ele>
        <time>2020-10-07T03:19:00.189Z</time>
      </trkpt>
      <trkpt lat="54.13725" lon="23.41556">
        <ele>140.343722</ele>
        <time>2020-10-07T03:19:21.005Z</time>
      </trkpt>
      <trkpt lat="54.1372" lon="23.41484">
        <ele>139.73263</ele>
        <time>2020-10-07T03:19:29.207Z</time>
      </trkpt>
      <trkpt lat="54.13692" lon="23.41272">
        <ele>138.38566</ele>
        <time>2020-10-07T03:19:53.629Z</time>
      </trkpt>
      <trkpt lat="54.13685" lon="23.41247">
        <ele>138.241465</ele>
        <time>2020-10-07T03:19:56.953Z</time>
      </trkpt>
      <trkpt lat="54.13672" lon="23.41223">
        <ele>138.06554</ele>
        <time>2020-10-07T03:20:00.625Z</time>
      </trkpt>
      <trkpt lat="54.13641" lon="23.41189">
        <ele>137.736632</ele>
        <time>2020-10-07T03:20:07.774Z</time>
      </trkpt>
      <trkpt lat="54.13529" lon="23.41168">
        <ele>137.494645</ele>
        <time>2020-10-07T03:20:31.235Z</time>
      </trkpt>
      <trkpt lat="54.1349" lon="23.41148">
        <ele>137.455911</ele>
        <time>2020-10-07T03:20:40.297Z</time>
      </trkpt>
      <trkpt lat="54.1348" lon="23.4114">
        <ele>137.444937</ele>
        <time>2020-10-07T03:20:42.714Z</time>
      </trkpt>
      <trkpt lat="54.13465" lon="23.41122">
        <ele>137.427924</ele>
        <time>2020-10-07T03:20:47.248Z</time>
      </trkpt>
      <trkpt lat="54.1306" lon="23.40576">
        <ele>141.47743</ele>
        <time>2020-10-07T03:22:59.384Z</time>
      </trkpt>
      <trkpt lat="54.13025" lon="23.40517">
        <ele>141.869656</ele>
        <time>2020-10-07T03:23:11.878Z</time>
      </trkpt>
      <trkpt lat="54.12886" lon="23.40243">
        <ele>143.119135</ele>
        <time>2020-10-07T03:24:05.239Z</time>
      </trkpt>
      <trkpt lat="54.12834" lon="23.40158">
        <ele>143.196673</ele>
        <time>2020-10-07T03:24:22.666Z</time>
      </trkpt>
      <trkpt lat="54.12743" lon="23.40026">
        <ele>142.540665</ele>
        <time>2020-10-07T03:24:46.797Z</time>
      </trkpt>
      <trkpt lat="54.12673" lon="23.39924">
        <ele>141.342195</ele>
        <time>2020-10-07T03:25:03.332Z</time>
      </trkpt>
      <trkpt lat="54.12653" lon="23.39894">
        <ele>141.001317</ele>
        <time>2020-10-07T03:25:08.312Z</time>
      </trkpt>
      <trkpt lat="54.12632" lon="23.39841">
        <ele>140.743747</ele>
        <time>2020-10-07T03:25:15.234Z</time>
      </trkpt>
      <trkpt lat="54.12626" lon="23.3982">
        <ele>140.664592</ele>
        <time>2020-10-07T03:25:17.565Z</time>
      </trkpt>
      <trkpt lat="54.12622" lon="23.39791">
        <ele>140.56667</ele>
        <time>2020-10-07T03:25:21.207Z</time>
      </trkpt>
      <trkpt lat="54.12616" lon="23.39732">
        <ele>140.366326</ele>
        <time>2020-10-07T03:25:28.147Z</time>
      </trkpt>
      <trkpt lat="54.12615" lon="23.39677">
        <ele>140.180706</ele>
        <time>2020-10-07T03:25:34.970Z</time>
      </trkpt>
      <trkpt lat="54.12676" lon="23.39267">
        <ele>140.858169</ele>
        <time>2020-10-07T03:26:35.398Z</time>
      </trkpt>
      <trkpt lat="54.12684" lon="23.39166">
        <ele>141.272033</ele>
        <time>2020-10-07T03:26:48.734Z</time>
      </trkpt>
      <trkpt lat="54.12687" lon="23.38995">
        <ele>141.959651</ele>
        <time>2020-10-07T03:27:14.460Z</time>
      </trkpt>
      <trkpt lat="54.12692" lon="23.38958">
        <ele>142.41837</ele>
        <time>2020-10-07T03:27:20.711Z</time>
      </trkpt>
      <trkpt lat="54.12699" lon="23.38921">
        <ele>142.896516</ele>
        <time>2020-10-07T03:27:27.119Z</time>
      </trkpt>
      <trkpt lat="54.12709" lon="23.38855">
        <ele>143.763238</ele>
        <time>2020-10-07T03:27:39.460Z</time>
      </trkpt>
      <trkpt lat="54.12706" lon="23.38772">
        <ele>144.798985</ele>
        <time>2020-10-07T03:27:55.071Z</time>
      </trkpt>
      <trkpt lat="54.1269" lon="23.38728">
        <ele>145.455202</ele>
        <time>2020-10-07T03:28:05.380Z</time>
      </trkpt>
      <trkpt lat="54.1263" lon="23.38638">
        <ele>147.062504</ele>
        <time>2020-10-07T03:28:32.332Z</time>
      </trkpt>
      <trkpt lat="54.12623" lon="23.38616">
        <ele>147.355915</ele>
        <time>2020-10-07T03:28:36.958Z</time>
      </trkpt>
      <trkpt lat="54.12618" lon="23.38566">
        <ele>147.941638</ele>
        <time>2020-10-07T03:28:46.047Z</time>
      </trkpt>
      <trkpt lat="54.12626" lon="23.38468">
        <ele>149.083181</ele>
        <time>2020-10-07T03:29:02.522Z</time>
      </trkpt>
      <trkpt lat="54.12638" lon="23.38316">
        <ele>149.544567</ele>
        <time>2020-10-07T03:29:24.937Z</time>
      </trkpt>
      <trkpt lat="54.1266" lon="23.38231">
        <ele>149.66837</ele>
        <time>2020-10-07T03:29:37.001Z</time>
      </trkpt>
      <trkpt lat="54.12685" lon="23.38166">
        <ele>149.771344</ele>
        <time>2020-10-07T03:29:46.589Z</time>
      </trkpt>
      <trkpt lat="54.12694" lon="23.38113">
        <ele>149.639333</ele>
        <time>2020-10-07T03:29:53.299Z</time>
      </trkpt>
      <trkpt lat="54.12711" lon="23.37975">
        <ele>149.212165</ele>
        <time>2020-10-07T03:30:10.103Z</time>
      </trkpt>
      <trkpt lat="54.12729" lon="23.37852">
        <ele>148.836458</ele>
        <time>2020-10-07T03:30:25.296Z</time>
      </trkpt>
      <trkpt lat="54.12736" lon="23.37817">
        <ele>148.753385</ele>
        <time>2020-10-07T03:30:29.823Z</time>
      </trkpt>
      <trkpt lat="54.12801" lon="23.37603">
        <ele>148.215836</ele>
        <time>2020-10-07T03:30:59.558Z</time>
      </trkpt>
      <trkpt lat="54.12847" lon="23.37399">
        <ele>147.906461</ele>
        <time>2020-10-07T03:31:26.821Z</time>
      </trkpt>
      <trkpt lat="54.12901" lon="23.37204">
        <ele>147.888729</ele>
        <time>2020-10-07T03:31:54.454Z</time>
      </trkpt>
      <trkpt lat="54.12907" lon="23.37153">
        <ele>147.949611</ele>
        <time>2020-10-07T03:32:01.467Z</time>
      </trkpt>
      <trkpt lat="54.12897" lon="23.36961">
        <ele>148.189861</ele>
        <time>2020-10-07T03:32:28.521Z</time>
      </trkpt>
      <trkpt lat="54.12893" lon="23.36903">
        <ele>148.275799</ele>
        <time>2020-10-07T03:32:37.021Z</time>
      </trkpt>
      <trkpt lat="54.12846" lon="23.36683">
        <ele>148.522921</ele>
        <time>2020-10-07T03:33:08.517Z</time>
      </trkpt>
      <trkpt lat="54.12819" lon="23.36514">
        <ele>148.230685</ele>
        <time>2020-10-07T03:33:29.959Z</time>
      </trkpt>
      <trkpt lat="54.12809" lon="23.36495">
        <ele>148.187218</ele>
        <time>2020-10-07T03:33:33.052Z</time>
      </trkpt>
      <trkpt lat="54.12665" lon="23.36321">
        <ele>147.853635</ele>
        <time>2020-10-07T03:34:10.518Z</time>
      </trkpt>
      <trkpt lat="54.12598" lon="23.36217">
        <ele>147.83537</ele>
        <time>2020-10-07T03:34:31.608Z</time>
      </trkpt>
      <trkpt lat="54.12522" lon="23.36157">
        <ele>147.947933</ele>
        <time>2020-10-07T03:34:50.937Z</time>
      </trkpt>
      <trkpt lat="54.12459" lon="23.3609">
        <ele>148.017723</ele>
        <time>2020-10-07T03:35:07.733Z</time>
      </trkpt>
      <trkpt lat="54.12448" lon="23.36083">
        <ele>148.016589</ele>
        <time>2020-10-07T03:35:10.048Z</time>
      </trkpt>
      <trkpt lat="54.12433" lon="23.36076">
        <ele>148.015203</ele>
        <time>2020-10-07T03:35:13.595Z</time>
      </trkpt>
      <trkpt lat="54.12416" lon="23.3607">
        <ele>148.013565</ele>
        <time>2020-10-07T03:35:17.284Z</time>
      </trkpt>
      <trkpt lat="54.12225" lon="23.3604">
        <ele>148.28423</ele>
        <time>2020-10-07T03:36:00.092Z</time>
      </trkpt>
      <trkpt lat="54.12158" lon="23.3602">
        <ele>148.53652</ele>
        <time>2020-10-07T03:36:16.923Z</time>
      </trkpt>
      <trkpt lat="54.12131" lon="23.36002">
        <ele>148.6403</ele>
        <time>2020-10-07T03:36:24.099Z</time>
      </trkpt>
      <trkpt lat="54.121" lon="23.35972">
        <ele>148.777682</ele>
        <time>2020-10-07T03:36:33.245Z</time>
      </trkpt>
      <trkpt lat="54.12049" lon="23.35898">
        <ele>149.034099</ele>
        <time>2020-10-07T03:36:49.795Z</time>
      </trkpt>
      <trkpt lat="54.12002" lon="23.3583">
        <ele>149.270778</ele>
        <time>2020-10-07T03:37:04.166Z</time>
      </trkpt>
      <trkpt lat="54.11973" lon="23.35793">
        <ele>149.152104</ele>
        <time>2020-10-07T03:37:12.156Z</time>
      </trkpt>
      <trkpt lat="54.11916" lon="23.35746">
        <ele>148.285006</ele>
        <time>2020-10-07T03:37:25.261Z</time>
      </trkpt>
      <trkpt lat="54.11807" lon="23.35721">
        <ele>146.619793</ele>
        <time>2020-10-07T03:37:44.634Z</time>
      </trkpt>
      <trkpt lat="54.1176" lon="23.35693">
        <ele>144.857966</ele>
        <time>2020-10-07T03:37:52.789Z</time>
      </trkpt>
      <trkpt lat="54.11736" lon="23.35672">
        <ele>143.903586</ele>
        <time>2020-10-07T03:37:57.094Z</time>
      </trkpt>
      <trkpt lat="54.11644" lon="23.35591">
        <ele>140.285394</ele>
        <time>2020-10-07T03:38:13.324Z</time>
      </trkpt>
      <trkpt lat="54.11612" lon="23.3555">
        <ele>138.928352</ele>
        <time>2020-10-07T03:38:19.578Z</time>
      </trkpt>
      <trkpt lat="54.11491" lon="23.35354">
        <ele>134.033687</ele>
        <time>2020-10-07T03:38:46.943Z</time>
      </trkpt>
      <trkpt lat="54.1148" lon="23.35338">
        <ele>133.836112</ele>
        <time>2020-10-07T03:38:49.460Z</time>
      </trkpt>
      <trkpt lat="54.11474" lon="23.35332">
        <ele>133.74152</ele>
        <time>2020-10-07T03:38:50.714Z</time>
      </trkpt>
      <trkpt lat="54.11393" lon="23.35269">
        <ele>132.512767</ele>
        <time>2020-10-07T03:39:08.054Z</time>
      </trkpt>
      <trkpt lat="54.11337" lon="23.35227">
        <ele>132.095707</ele>
        <time>2020-10-07T03:39:21.127Z</time>
      </trkpt>
      <trkpt lat="54.1133" lon="23.35221">
        <ele>132.107475</ele>
        <time>2020-10-07T03:39:23.044Z</time>
      </trkpt>
      <trkpt lat="54.11242" lon="23.35131">
        <ele>132.269249</ele>
        <time>2020-10-07T03:39:47.104Z</time>
      </trkpt>
      <trkpt lat="54.1118" lon="23.3507">
        <ele>132.314671</ele>
        <time>2020-10-07T03:40:03.979Z</time>
      </trkpt>
      <trkpt lat="54.11173" lon="23.35063">
        <ele>132.308737</ele>
        <time>2020-10-07T03:40:05.913Z</time>
      </trkpt>
      <trkpt lat="54.11164" lon="23.35055">
        <ele>132.301983</ele>
        <time>2020-10-07T03:40:08.080Z</time>
      </trkpt>
      <trkpt lat="54.11154" lon="23.35044">
        <ele>132.293601</ele>
        <time>2020-10-07T03:40:10.972Z</time>
      </trkpt>
      <trkpt lat="54.11025" lon="23.34902">
        <ele>132.274658</ele>
        <time>2020-10-07T03:40:43.730Z</time>
      </trkpt>
      <trkpt lat="54.11017" lon="23.34895">
        <ele>132.292767</ele>
        <time>2020-10-07T03:40:45.686Z</time>
      </trkpt>
      <trkpt lat="54.11009" lon="23.3489">
        <ele>132.308066</ele>
        <time>2020-10-07T03:40:47.350Z</time>
      </trkpt>
      <trkpt lat="54.10991" lon="23.34881">
        <ele>132.344889</ele>
        <time>2020-10-07T03:40:51.602Z</time>
      </trkpt>
      <trkpt lat="54.10982" lon="23.34876">
        <ele>132.363228</ele>
        <time>2020-10-07T03:40:53.589Z</time>
      </trkpt>
      <trkpt lat="54.10941" lon="23.34848">
        <ele>132.449334</ele>
        <time>2020-10-07T03:41:03.453Z</time>
      </trkpt>
      <trkpt lat="54.10913" lon="23.34825">
        <ele>132.509227</ele>
        <time>2020-10-07T03:41:11.267Z</time>
      </trkpt>
      <trkpt lat="54.109" lon="23.34815">
        <ele>132.537139</ele>
        <time>2020-10-07T03:41:14.674Z</time>
      </trkpt>
      <trkpt lat="54.10882" lon="23.34802">
        <ele>132.665517</ele>
        <time>2020-10-07T03:41:19.875Z</time>
      </trkpt>
      <trkpt lat="54.10862" lon="23.34788">
        <ele>132.944063</ele>
        <time>2020-10-07T03:41:25.423Z</time>
      </trkpt>
      <trkpt lat="54.10856" lon="23.34784">
        <ele>133.025881</ele>
        <time>2020-10-07T03:41:26.941Z</time>
      </trkpt>
      <trkpt lat="54.1085" lon="23.34777">
        <ele>133.117855</ele>
        <time>2020-10-07T03:41:29.101Z</time>
      </trkpt>
      <trkpt lat="54.10845" lon="23.34771">
        <ele>133.198137</ele>
        <time>2020-10-07T03:41:31.038Z</time>
      </trkpt>
      <trkpt lat="54.10843" lon="23.34764">
        <ele>133.251039</ele>
        <time>2020-10-07T03:41:32.086Z</time>
      </trkpt>
      <trkpt lat="54.10843" lon="23.34756">
        <ele>133.311399</ele>
        <time>2020-10-07T03:41:33.276Z</time>
      </trkpt>
      <trkpt lat="54.10843" lon="23.3475">
        <ele>133.359932</ele>
        <time>2020-10-07T03:41:34.248Z</time>
      </trkpt>
      <trkpt lat="54.10845" lon="23.34743">
        <ele>133.417761</ele>
        <time>2020-10-07T03:41:35.394Z</time>
      </trkpt>
      <trkpt lat="54.10846" lon="23.34738">
        <ele>133.456208</ele>
        <time>2020-10-07T03:41:36.145Z</time>
      </trkpt>
      <trkpt lat="54.10866" lon="23.34684">
        <ele>133.938881</ele>
        <time>2020-10-07T03:41:46.912Z</time>
      </trkpt>
      <trkpt lat="54.10868" lon="23.34677">
        <ele>133.99868</ele>
        <time>2020-10-07T03:41:48.101Z</time>
      </trkpt>
      <trkpt lat="54.10869" lon="23.34672">
        <ele>134.038888</ele>
        <time>2020-10-07T03:41:49.404Z</time>
      </trkpt>
      <trkpt lat="54.10869" lon="23.34667">
        <ele>134.074298</ele>
        <time>2020-10-07T03:41:50.324Z</time>
      </trkpt>
      <trkpt lat="54.10862" lon="23.34651">
        <ele>134.223565</ele>
        <time>2020-10-07T03:41:53.733Z</time>
      </trkpt>
      <trkpt lat="54.10846" lon="23.34634">
        <ele>134.464859</ele>
        <time>2020-10-07T03:41:58.546Z</time>
      </trkpt>
      <trkpt lat="54.10842" lon="23.34635">
        <ele>134.521866</ele>
        <time>2020-10-07T03:42:00.188Z</time>
      </trkpt>
      <trkpt lat="54.10841" lon="23.34629">
        <ele>134.567384</ele>
        <time>2020-10-07T03:42:01.380Z</time>
      </trkpt>
      <trkpt lat="54.10782" lon="23.34545">
        <ele>135.162782</ele>
        <time>2020-10-07T03:42:22.137Z</time>
      </trkpt>
      <trkpt lat="54.10778" lon="23.34535">
        <ele>135.203033</ele>
        <time>2020-10-07T03:42:24.166Z</time>
      </trkpt>
      <trkpt lat="54.10776" lon="23.34536">
        <ele>135.21846</ele>
        <time>2020-10-07T03:42:24.728Z</time>
      </trkpt>
      <trkpt lat="54.10732" lon="23.34535">
        <ele>135.461893</ele>
        <time>2020-10-07T03:42:35.503Z</time>
      </trkpt>
      <trkpt lat="54.10693" lon="23.34535">
        <ele>135.676957</ele>
        <time>2020-10-07T03:42:44.358Z</time>
      </trkpt>
      <trkpt lat="54.10691" lon="23.34535">
        <ele>135.689742</ele>
        <time>2020-10-07T03:42:44.845Z</time>
      </trkpt>
      <trkpt lat="54.10674" lon="23.34534">
        <ele>135.784214</ele>
        <time>2020-10-07T03:42:48.646Z</time>
      </trkpt>
      <trkpt lat="54.10654" lon="23.34534">
        <ele>135.850115</ele>
        <time>2020-10-07T03:42:52.852Z</time>
      </trkpt>
      <trkpt lat="54.10614" lon="23.34534">
        <ele>135.685024</ele>
        <time>2020-10-07T03:43:01.303Z</time>
      </trkpt>
      <trkpt lat="54.10609" lon="23.34534">
        <ele>135.662984</ele>
        <time>2020-10-07T03:43:02.399Z</time>
      </trkpt>
      <trkpt lat="54.10598" lon="23.34534">
        <ele>135.617655</ele>
        <time>2020-10-07T03:43:04.677Z</time>
      </trkpt>
      <trkpt lat="54.10587" lon="23.34534">
        <ele>135.570665</ele>
        <time>2020-10-07T03:43:07.007Z</time>
      </trkpt>
      <trkpt lat="54.10469" lon="23.34532">
        <ele>135.052786</ele>
        <time>2020-10-07T03:43:31.177Z</time>
      </trkpt>
      <trkpt lat="54.10395" lon="23.34531">
        <ele>134.553453</ele>
        <time>2020-10-07T03:43:45.987Z</time>
      </trkpt>
      <trkpt lat="54.10384" lon="23.34531">
        <ele>134.482503</ele>
        <time>2020-10-07T03:43:48.206Z</time>
      </trkpt>
      <trkpt lat="54.10372" lon="23.34531">
        <ele>134.403441</ele>
        <time>2020-10-07T03:43:50.361Z</time>
      </trkpt>
      <trkpt lat="54.10288" lon="23.34529">
        <ele>133.875467</ele>
        <time>2020-10-07T03:44:07.459Z</time>
      </trkpt>
      <trkpt lat="54.10275" lon="23.34522">
        <ele>133.839967</ele>
        <time>2020-10-07T03:44:10.130Z</time>
      </trkpt>
      <trkpt lat="54.10229" lon="23.34399">
        <ele>133.605983</ele>
        <time>2020-10-07T03:44:27.759Z</time>
      </trkpt>
      <trkpt lat="54.10224" lon="23.34381">
        <ele>133.573599</ele>
        <time>2020-10-07T03:44:30.432Z</time>
      </trkpt>
      <trkpt lat="54.10219" lon="23.34358">
        <ele>133.534653</ele>
        <time>2020-10-07T03:44:33.553Z</time>
      </trkpt>
      <trkpt lat="54.10211" lon="23.34293">
        <ele>133.427623</ele>
        <time>2020-10-07T03:44:42.436Z</time>
      </trkpt>
      <trkpt lat="54.10168" lon="23.33953">
        <ele>134.201015</ele>
        <time>2020-10-07T03:45:31.208Z</time>
      </trkpt>
      <trkpt lat="54.1012" lon="23.33576">
        <ele>135.471145</ele>
        <time>2020-10-07T03:46:25.675Z</time>
      </trkpt>
      <trkpt lat="54.10101" lon="23.33512">
        <ele>135.826205</ele>
        <time>2020-10-07T03:46:36.841Z</time>
      </trkpt>
      <trkpt lat="54.10053" lon="23.33417">
        <ele>136.441552</ele>
        <time>2020-10-07T03:46:56.812Z</time>
      </trkpt>
      <trkpt lat="54.09973" lon="23.33308">
        <ele>137.134352</ele>
        <time>2020-10-07T03:47:23.429Z</time>
      </trkpt>
      <trkpt lat="54.09961" lon="23.3329">
        <ele>137.244709</ele>
        <time>2020-10-07T03:47:27.291Z</time>
      </trkpt>
      <trkpt lat="54.09945" lon="23.33266">
        <ele>137.3895</ele>
        <time>2020-10-07T03:47:32.620Z</time>
      </trkpt>
      <trkpt lat="54.09911" lon="23.33205">
        <ele>137.605362</ele>
        <time>2020-10-07T03:47:43.878Z</time>
      </trkpt>
      <trkpt lat="54.09885" lon="23.33154">
        <ele>137.417374</ele>
        <time>2020-10-07T03:47:52.544Z</time>
      </trkpt>
      <trkpt lat="54.09479" lon="23.3238">
        <ele>134.781823</ele>
        <time>2020-10-07T03:49:57.513Z</time>
      </trkpt>
      <trkpt lat="54.09391" lon="23.32213">
        <ele>134.661417</ele>
        <time>2020-10-07T03:50:27.809Z</time>
      </trkpt>
      <trkpt lat="54.09282" lon="23.32006">
        <ele>134.480574</ele>
        <time>2020-10-07T03:51:04.462Z</time>
      </trkpt>
      <trkpt lat="54.09226" lon="23.31899">
        <ele>134.074968</ele>
        <time>2020-10-07T03:51:21.534Z</time>
      </trkpt>
      <trkpt lat="54.0915" lon="23.31753">
        <ele>133.235575</ele>
        <time>2020-10-07T03:51:43.666Z</time>
      </trkpt>
      <trkpt lat="54.09133" lon="23.31704">
        <ele>132.934579</ele>
        <time>2020-10-07T03:51:50.272Z</time>
      </trkpt>
      <trkpt lat="54.0912" lon="23.31635">
        <ele>132.564601</ele>
        <time>2020-10-07T03:51:58.486Z</time>
      </trkpt>
      <trkpt lat="54.09116" lon="23.31561">
        <ele>132.287388</ele>
        <time>2020-10-07T03:52:07.220Z</time>
      </trkpt>
      <trkpt lat="54.0912" lon="23.31518">
        <ele>132.276088</ele>
        <time>2020-10-07T03:52:12.501Z</time>
      </trkpt>
      <trkpt lat="54.09132" lon="23.31431">
        <ele>132.252731</ele>
        <time>2020-10-07T03:52:24.120Z</time>
      </trkpt>
      <trkpt lat="54.09144" lon="23.31346">
        <ele>132.230002</ele>
        <time>2020-10-07T03:52:35.891Z</time>
      </trkpt>
      <trkpt lat="54.09157" lon="23.31261">
        <ele>132.257856</ele>
        <time>2020-10-07T03:52:47.890Z</time>
      </trkpt>
      <trkpt lat="54.09163" lon="23.31212">
        <ele>132.355172</ele>
        <time>2020-10-07T03:52:55.020Z</time>
      </trkpt>
      <trkpt lat="54.09167" lon="23.31127">
        <ele>132.518833</ele>
        <time>2020-10-07T03:53:07.018Z</time>
      </trkpt>
      <trkpt lat="54.09165" lon="23.31067">
        <ele>132.63605</ele>
        <time>2020-10-07T03:53:15.608Z</time>
      </trkpt>
      <trkpt lat="54.09159" lon="23.30936">
        <ele>132.867397</ele>
        <time>2020-10-07T03:53:33.543Z</time>
      </trkpt>
      <trkpt lat="54.09151" lon="23.3086">
        <ele>132.975871</ele>
        <time>2020-10-07T03:53:43.714Z</time>
      </trkpt>
      <trkpt lat="54.09122" lon="23.30763">
        <ele>133.129847</ele>
        <time>2020-10-07T03:53:58.514Z</time>
      </trkpt>
      <trkpt lat="54.09089" lon="23.30705">
        <ele>133.246831</ele>
        <time>2020-10-07T03:54:09.510Z</time>
      </trkpt>
      <trkpt lat="54.09064" lon="23.30675">
        <ele>133.403025</ele>
        <time>2020-10-07T03:54:16.919Z</time>
      </trkpt>
      <trkpt lat="54.08951" lon="23.30546">
        <ele>134.084276</ele>
        <time>2020-10-07T03:54:50.152Z</time>
      </trkpt>
      <trkpt lat="54.08908" lon="23.30484">
        <ele>134.345439</ele>
        <time>2020-10-07T03:55:03.919Z</time>
      </trkpt>
      <trkpt lat="54.08872" lon="23.30413">
        <ele>134.594669</ele>
        <time>2020-10-07T03:55:16.982Z</time>
      </trkpt>
      <trkpt lat="54.08833" lon="23.303">
        <ele>134.94179</ele>
        <time>2020-10-07T03:55:35.280Z</time>
      </trkpt>
      <trkpt lat="54.08806" lon="23.30185">
        <ele>135.584715</ele>
        <time>2020-10-07T03:55:53.363Z</time>
      </trkpt>
      <trkpt lat="54.08787" lon="23.3011">
        <ele>136.016965</ele>
        <time>2020-10-07T03:56:05.706Z</time>
      </trkpt>
      <trkpt lat="54.08773" lon="23.30065">
        <ele>136.289356</ele>
        <time>2020-10-07T03:56:13.609Z</time>
      </trkpt>
      <trkpt lat="54.0876" lon="23.30025">
        <ele>136.533349</ele>
        <time>2020-10-07T03:56:20.883Z</time>
      </trkpt>
      <trkpt lat="54.08674" lon="23.29755">
        <ele>139.222285</ele>
        <time>2020-10-07T03:57:12.227Z</time>
      </trkpt>
      <trkpt lat="54.0865" lon="23.29699">
        <ele>139.809551</ele>
        <time>2020-10-07T03:57:24.034Z</time>
      </trkpt>
      <trkpt lat="54.08605" lon="23.29649">
        <ele>140.58347</ele>
        <time>2020-10-07T03:57:39.654Z</time>
      </trkpt>
      <trkpt lat="54.08483" lon="23.29586">
        <ele>142.261995</ele>
        <time>2020-10-07T03:58:14.722Z</time>
      </trkpt>
      <trkpt lat="54.08406" lon="23.29557">
        <ele>143.092944</ele>
        <time>2020-10-07T03:58:35.071Z</time>
      </trkpt>
      <trkpt lat="54.08366" lon="23.29547">
        <ele>143.519069</ele>
        <time>2020-10-07T03:58:45.546Z</time>
      </trkpt>
      <trkpt lat="54.08331" lon="23.29539">
        <ele>143.90474</ele>
        <time>2020-10-07T03:58:54.901Z</time>
      </trkpt>
      <trkpt lat="54.08291" lon="23.29531">
        <ele>144.355458</ele>
        <time>2020-10-07T03:59:05.469Z</time>
      </trkpt>
      <trkpt lat="54.08126" lon="23.29493">
        <ele>145.766201</ele>
        <time>2020-10-07T03:59:50.753Z</time>
      </trkpt>
      <trkpt lat="54.08102" lon="23.2949">
        <ele>145.750114</ele>
        <time>2020-10-07T03:59:56.658Z</time>
      </trkpt>
      <trkpt lat="54.08066" lon="23.29498">
        <ele>145.726018</ele>
        <time>2020-10-07T04:00:04.702Z</time>
      </trkpt>
      <trkpt lat="54.08034" lon="23.29513">
        <ele>145.703575</ele>
        <time>2020-10-07T04:00:11.605Z</time>
      </trkpt>
      <trkpt lat="54.07894" lon="23.29573">
        <ele>144.547071</ele>
        <time>2020-10-07T04:00:38.776Z</time>
      </trkpt>
      <trkpt lat="54.07772" lon="23.29621">
        <ele>143.429516</ele>
        <time>2020-10-07T04:01:02.386Z</time>
      </trkpt>
      <trkpt lat="54.07636" lon="23.29617">
        <ele>142.959949</ele>
        <time>2020-10-07T04:01:32.569Z</time>
      </trkpt>
      <trkpt lat="54.07595" lon="23.29642">
        <ele>142.937295</ele>
        <time>2020-10-07T04:01:42.394Z</time>
      </trkpt>
      <trkpt lat="54.07504" lon="23.29735">
        <ele>142.892117</ele>
        <time>2020-10-07T04:02:05.865Z</time>
      </trkpt>
      <trkpt lat="54.07444" lon="23.29796">
        <ele>142.792618</ele>
        <time>2020-10-07T04:02:20.900Z</time>
      </trkpt>
      <trkpt lat="54.07423" lon="23.29814">
        <ele>142.739433</ele>
        <time>2020-10-07T04:02:25.722Z</time>
      </trkpt>
      <trkpt lat="54.07402" lon="23.29825">
        <ele>142.687686</ele>
        <time>2020-10-07T04:02:30.639Z</time>
      </trkpt>
      <trkpt lat="54.07394" lon="23.29825">
        <ele>142.6705</ele>
        <time>2020-10-07T04:02:32.114Z</time>
      </trkpt>
      <trkpt lat="54.07377" lon="23.29819">
        <ele>142.630569</ele>
        <time>2020-10-07T04:02:36.000Z</time>
      </trkpt>
      <trkpt lat="54.06801" lon="23.29551">
        <ele>141.427639</ele>
        <time>2020-10-07T04:04:44.713Z</time>
      </trkpt>
      <trkpt lat="54.06756" lon="23.29537">
        <ele>141.172991</ele>
        <time>2020-10-07T04:04:54.252Z</time>
      </trkpt>
      <trkpt lat="54.06724" lon="23.29541">
        <ele>140.950366</ele>
        <time>2020-10-07T04:05:00.880Z</time>
      </trkpt>
      <trkpt lat="54.06708" lon="23.29547">
        <ele>140.834257</ele>
        <time>2020-10-07T04:05:04.130Z</time>
      </trkpt>
      <trkpt lat="54.067" lon="23.29551">
        <ele>140.77306</ele>
        <time>2020-10-07T04:05:06.126Z</time>
      </trkpt>
      <trkpt lat="54.06609" lon="23.29602">
        <ele>140.057589</ele>
        <time>2020-10-07T04:05:24.949Z</time>
      </trkpt>
      <trkpt lat="54.06575" lon="23.29632">
        <ele>139.469637</ele>
        <time>2020-10-07T04:05:32.145Z</time>
      </trkpt>
      <trkpt lat="54.06551" lon="23.29656">
        <ele>139.036202</ele>
        <time>2020-10-07T04:05:37.348Z</time>
      </trkpt>
      <trkpt lat="54.06471" lon="23.29765">
        <ele>137.460254</ele>
        <time>2020-10-07T04:05:55.564Z</time>
      </trkpt>
      <trkpt lat="54.06441" lon="23.29802">
        <ele>136.816398</ele>
        <time>2020-10-07T04:06:02.193Z</time>
      </trkpt>
      <trkpt lat="54.06411" lon="23.29825">
        <ele>136.24609</ele>
        <time>2020-10-07T04:06:07.967Z</time>
      </trkpt>
      <trkpt lat="54.06253" lon="23.29941">
        <ele>133.551284</ele>
        <time>2020-10-07T04:06:39.006Z</time>
      </trkpt>
      <trkpt lat="54.06243" lon="23.29947">
        <ele>133.43629</ele>
        <time>2020-10-07T04:06:40.923Z</time>
      </trkpt>
      <trkpt lat="54.06233" lon="23.29952">
        <ele>133.317621</ele>
        <time>2020-10-07T04:06:42.773Z</time>
      </trkpt>
      <trkpt lat="54.0621" lon="23.29958">
        <ele>133.053727</ele>
        <time>2020-10-07T04:06:47.313Z</time>
      </trkpt>
      <trkpt lat="54.06196" lon="23.29953">
        <ele>132.893139</ele>
        <time>2020-10-07T04:06:49.881Z</time>
      </trkpt>
      <trkpt lat="54.06115" lon="23.29908">
        <ele>132.244772</ele>
        <time>2020-10-07T04:07:07.231Z</time>
      </trkpt>
      <trkpt lat="54.06095" lon="23.2989">
        <ele>132.36721</ele>
        <time>2020-10-07T04:07:12.206Z</time>
      </trkpt>
      <trkpt lat="54.0606" lon="23.29828">
        <ele>132.634859</ele>
        <time>2020-10-07T04:07:24.401Z</time>
      </trkpt>
      <trkpt lat="54.06037" lon="23.29784">
        <ele>132.819253</ele>
        <time>2020-10-07T04:07:33.258Z</time>
      </trkpt>
      <trkpt lat="54.06031" lon="23.29775">
        <ele>132.865828</ele>
        <time>2020-10-07T04:07:36.043Z</time>
      </trkpt>
      <trkpt lat="54.0601" lon="23.29755">
        <ele>132.992744</ele>
        <time>2020-10-07T04:07:42.009Z</time>
      </trkpt>
      <trkpt lat="54.05868" lon="23.29659">
        <ele>134.363828</ele>
        <time>2020-10-07T04:08:24.085Z</time>
      </trkpt>
      <trkpt lat="54.05777" lon="23.29597">
        <ele>134.76934</ele>
        <time>2020-10-07T04:08:46.635Z</time>
      </trkpt>
      <trkpt lat="54.05748" lon="23.29577">
        <ele>134.736816</ele>
        <time>2020-10-07T04:08:53.444Z</time>
      </trkpt>
      <trkpt lat="54.05699" lon="23.29544">
        <ele>134.682547</ele>
        <time>2020-10-07T04:09:04.578Z</time>
      </trkpt>
      <trkpt lat="54.05676" lon="23.29532">
        <ele>134.657685</ele>
        <time>2020-10-07T04:09:09.630Z</time>
      </trkpt>
      <trkpt lat="54.05644" lon="23.29534">
        <ele>134.642886</ele>
        <time>2020-10-07T04:09:16.144Z</time>
      </trkpt>
      <trkpt lat="54.05514" lon="23.29575">
        <ele>134.735601</ele>
        <time>2020-10-07T04:09:45.550Z</time>
      </trkpt>
      <trkpt lat="54.05477" lon="23.29569">
        <ele>134.761067</ele>
        <time>2020-10-07T04:09:54.329Z</time>
      </trkpt>
      <trkpt lat="54.05463" lon="23.29558">
        <ele>134.906466</ele>
        <time>2020-10-07T04:09:58.254Z</time>
      </trkpt>
      <trkpt lat="54.0545" lon="23.29543">
        <ele>135.052502</ele>
        <time>2020-10-07T04:10:02.191Z</time>
      </trkpt>
      <trkpt lat="54.05436" lon="23.29522">
        <ele>135.220074</ele>
        <time>2020-10-07T04:10:06.738Z</time>
      </trkpt>
      <trkpt lat="54.05361" lon="23.29378">
        <ele>136.266068</ele>
        <time>2020-10-07T04:10:36.574Z</time>
      </trkpt>
      <trkpt lat="54.05351" lon="23.29346">
        <ele>136.472189</ele>
        <time>2020-10-07T04:10:42.617Z</time>
      </trkpt>
      <trkpt lat="54.05269" lon="23.28996">
        <ele>138.255336</ele>
        <time>2020-10-07T04:11:41.798Z</time>
      </trkpt>
      <trkpt lat="54.05259" lon="23.28968">
        <ele>138.213245</ele>
        <time>2020-10-07T04:11:46.270Z</time>
      </trkpt>
      <trkpt lat="54.05176" lon="23.28778">
        <ele>137.610972</ele>
        <time>2020-10-07T04:12:13.971Z</time>
      </trkpt>
      <trkpt lat="54.05155" lon="23.28735">
        <ele>137.116455</ele>
        <time>2020-10-07T04:12:19.869Z</time>
      </trkpt>
      <trkpt lat="54.05099" lon="23.28619">
        <ele>135.802969</ele>
        <time>2020-10-07T04:12:35.651Z</time>
      </trkpt>
      <trkpt lat="54.05088" lon="23.28577">
        <ele>135.403801</ele>
        <time>2020-10-07T04:12:40.450Z</time>
      </trkpt>
      <trkpt lat="54.05076" lon="23.28527">
        <ele>135.167768</ele>
        <time>2020-10-07T04:12:46.383Z</time>
      </trkpt>
      <trkpt lat="54.05062" lon="23.28491">
        <ele>135.048889</ele>
        <time>2020-10-07T04:12:51.458Z</time>
      </trkpt>
      <trkpt lat="54.05051" lon="23.28475">
        <ele>134.982016</ele>
        <time>2020-10-07T04:12:54.259Z</time>
      </trkpt>
      <trkpt lat="54.05039" lon="23.28463">
        <ele>134.91923</ele>
        <time>2020-10-07T04:12:57.256Z</time>
      </trkpt>
      <trkpt lat="54.04968" lon="23.28435">
        <ele>134.578322</ele>
        <time>2020-10-07T04:13:12.825Z</time>
      </trkpt>
      <trkpt lat="54.04935" lon="23.28395">
        <ele>134.467277</ele>
        <time>2020-10-07T04:13:22.279Z</time>
      </trkpt>
      <trkpt lat="54.0492" lon="23.28363">
        <ele>134.527294</ele>
        <time>2020-10-07T04:13:27.992Z</time>
      </trkpt>
      <trkpt lat="54.04911" lon="23.28342">
        <ele>134.565981</ele>
        <time>2020-10-07T04:13:31.731Z</time>
      </trkpt>
      <trkpt lat="54.04888" lon="23.28278">
        <ele>134.675444</ele>
        <time>2020-10-07T04:13:42.286Z</time>
      </trkpt>
      <trkpt lat="54.04866" lon="23.28166">
        <ele>134.850006</ele>
        <time>2020-10-07T04:13:58.618Z</time>
      </trkpt>
      <trkpt lat="54.0486" lon="23.28109">
        <ele>134.892465</ele>
        <time>2020-10-07T04:14:06.336Z</time>
      </trkpt>
      <trkpt lat="54.04887" lon="23.27951">
        <ele>134.897898</ele>
        <time>2020-10-07T04:14:27.556Z</time>
      </trkpt>
      <trkpt lat="54.04891" lon="23.27895">
        <ele>134.899774</ele>
        <time>2020-10-07T04:14:34.977Z</time>
      </trkpt>
      <trkpt lat="54.04892" lon="23.27828">
        <ele>134.896886</ele>
        <time>2020-10-07T04:14:43.641Z</time>
      </trkpt>
      <trkpt lat="54.04896" lon="23.27748">
        <ele>134.859078</ele>
        <time>2020-10-07T04:14:54.221Z</time>
      </trkpt>
      <trkpt lat="54.04911" lon="23.27563">
        <ele>134.771061</ele>
        <time>2020-10-07T04:15:18.517Z</time>
      </trkpt>
      <trkpt lat="54.0491" lon="23.27473">
        <ele>134.526398</ele>
        <time>2020-10-07T04:15:29.678Z</time>
      </trkpt>
      <trkpt lat="54.04892" lon="23.27373">
        <ele>134.127138</ele>
        <time>2020-10-07T04:15:42.223Z</time>
      </trkpt>
      <trkpt lat="54.04857" lon="23.27248">
        <ele>133.603668</ele>
        <time>2020-10-07T04:15:58.129Z</time>
      </trkpt>
      <trkpt lat="54.04847" lon="23.27224">
        <ele>133.491736</ele>
        <time>2020-10-07T04:16:01.634Z</time>
      </trkpt>
      <trkpt lat="54.04836" lon="23.27202">
        <ele>133.385923</ele>
        <time>2020-10-07T04:16:04.862Z</time>
      </trkpt>
      <trkpt lat="54.04827" lon="23.27184">
        <ele>133.299883</ele>
        <time>2020-10-07T04:16:07.524Z</time>
      </trkpt>
      <trkpt lat="54.04807" lon="23.27117">
        <ele>133.019971</ele>
        <time>2020-10-07T04:16:16.308Z</time>
      </trkpt>
      <trkpt lat="54.04806" lon="23.27105">
        <ele>132.973096</ele>
        <time>2020-10-07T04:16:17.690Z</time>
      </trkpt>
      <trkpt lat="54.04797" lon="23.27045">
        <ele>132.744063</ele>
        <time>2020-10-07T04:16:25.110Z</time>
      </trkpt>
      <trkpt lat="54.04788" lon="23.26977">
        <ele>132.487583</ele>
        <time>2020-10-07T04:16:33.615Z</time>
      </trkpt>
      <trkpt lat="54.04779" lon="23.26909">
        <ele>132.599152</ele>
        <time>2020-10-07T04:16:42.626Z</time>
      </trkpt>
      <trkpt lat="54.04775" lon="23.26871">
        <ele>132.686675</ele>
        <time>2020-10-07T04:16:47.895Z</time>
      </trkpt>
      <trkpt lat="54.04772" lon="23.26846">
        <ele>132.744149</ele>
        <time>2020-10-07T04:16:51.221Z</time>
      </trkpt>
      <trkpt lat="54.04772" lon="23.2683">
        <ele>132.781158</ele>
        <time>2020-10-07T04:16:53.680Z</time>
      </trkpt>
      <trkpt lat="54.04788" lon="23.26698">
        <ele>133.087597</ele>
        <time>2020-10-07T04:17:13.093Z</time>
      </trkpt>
      <trkpt lat="54.04803" lon="23.26368">
        <ele>134.346878</ele>
        <time>2020-10-07T04:18:02.578Z</time>
      </trkpt>
      <trkpt lat="54.04874" lon="23.2611">
        <ele>134.385114</ele>
        <time>2020-10-07T04:18:40.832Z</time>
      </trkpt>
      <trkpt lat="54.04879" lon="23.2608">
        <ele>134.360383</ele>
        <time>2020-10-07T04:18:44.659Z</time>
      </trkpt>
      <trkpt lat="54.04911" lon="23.25862">
        <ele>132.958056</ele>
        <time>2020-10-07T04:19:09.835Z</time>
      </trkpt>
      <trkpt lat="54.04935" lon="23.25707">
        <ele>132.149653</ele>
        <time>2020-10-07T04:19:27.336Z</time>
      </trkpt>
      <trkpt lat="54.04935" lon="23.25683">
        <ele>132.056238</ele>
        <time>2020-10-07T04:19:30.100Z</time>
      </trkpt>
      <trkpt lat="54.04933" lon="23.25674">
        <ele>132.016865</ele>
        <time>2020-10-07T04:19:31.123Z</time>
      </trkpt>
      <trkpt lat="54.0493" lon="23.25667">
        <ele>131.985749</ele>
        <time>2020-10-07T04:19:32.126Z</time>
      </trkpt>
      <trkpt lat="54.04906" lon="23.25653">
        <ele>131.815717</ele>
        <time>2020-10-07T04:19:37.341Z</time>
      </trkpt>
      <trkpt lat="54.04817" lon="23.25654">
        <ele>131.302049</ele>
        <time>2020-10-07T04:19:56.153Z</time>
      </trkpt>
      <trkpt lat="54.04726" lon="23.25655">
        <ele>131.650987</ele>
        <time>2020-10-07T04:20:17.924Z</time>
      </trkpt>
      <trkpt lat="54.04675" lon="23.25637">
        <ele>131.853081</ele>
        <time>2020-10-07T04:20:30.857Z</time>
      </trkpt>
      <trkpt lat="54.04591" lon="23.25591">
        <ele>132.310762</ele>
        <time>2020-10-07T04:20:52.410Z</time>
      </trkpt>
      <trkpt lat="54.04525" lon="23.25555">
        <ele>132.7145</ele>
        <time>2020-10-07T04:21:09.306Z</time>
      </trkpt>
      <trkpt lat="54.04439" lon="23.25507">
        <ele>133.064174</ele>
        <time>2020-10-07T04:21:31.897Z</time>
      </trkpt>
      <trkpt lat="54.0441" lon="23.25495">
        <ele>133.099805</ele>
        <time>2020-10-07T04:21:38.808Z</time>
      </trkpt>
      <trkpt lat="54.0439" lon="23.25489">
        <ele>133.125275</ele>
        <time>2020-10-07T04:21:43.702Z</time>
      </trkpt>
      <trkpt lat="54.04343" lon="23.25484">
        <ele>133.182159</ele>
        <time>2020-10-07T04:21:53.928Z</time>
      </trkpt>
      <trkpt lat="54.0431" lon="23.25482">
        <ele>133.222666</ele>
        <time>2020-10-07T04:22:01.144Z</time>
      </trkpt>
      <trkpt lat="54.04316" lon="23.25336">
        <ele>132.688779</ele>
        <time>2020-10-07T04:22:18.757Z</time>
      </trkpt>
      <trkpt lat="54.04332" lon="23.25192">
        <ele>132.066852</ele>
        <time>2020-10-07T04:22:35.432Z</time>
      </trkpt>
      <trkpt lat="54.04341" lon="23.25141">
        <ele>131.856979</ele>
        <time>2020-10-07T04:22:41.444Z</time>
      </trkpt>
      <trkpt lat="54.04398" lon="23.24854">
        <ele>130.874965</ele>
        <time>2020-10-07T04:23:17.689Z</time>
      </trkpt>
      <trkpt lat="54.0446" lon="23.24579">
        <ele>131.015182</ele>
        <time>2020-10-07T04:23:56.925Z</time>
      </trkpt>
      <trkpt lat="54.04463" lon="23.24553">
        <ele>131.17665</ele>
        <time>2020-10-07T04:24:00.639Z</time>
      </trkpt>
      <trkpt lat="54.04464" lon="23.24527">
        <ele>131.337025</ele>
        <time>2020-10-07T04:24:04.512Z</time>
      </trkpt>
      <trkpt lat="54.04479" lon="23.24155">
        <ele>134.21611</ele>
        <time>2020-10-07T04:25:04.553Z</time>
      </trkpt>
      <trkpt lat="54.04506" lon="23.23955">
        <ele>136.478381</ele>
        <time>2020-10-07T04:25:41.576Z</time>
      </trkpt>
      <trkpt lat="54.04507" lon="23.23889">
        <ele>137.362228</ele>
        <time>2020-10-07T04:25:54.246Z</time>
      </trkpt>
      <trkpt lat="54.04498" lon="23.23822">
        <ele>138.293001</ele>
        <time>2020-10-07T04:26:07.603Z</time>
      </trkpt>
      <trkpt lat="54.04483" lon="23.23767">
        <ele>139.098439</ele>
        <time>2020-10-07T04:26:19.023Z</time>
      </trkpt>
      <trkpt lat="54.04447" lon="23.23638">
        <ele>140.527569</ele>
        <time>2020-10-07T04:26:44.535Z</time>
      </trkpt>
      <trkpt lat="54.04428" lon="23.23542">
        <ele>141.003559</ele>
        <time>2020-10-07T04:27:01.168Z</time>
      </trkpt>
      <trkpt lat="54.04408" lon="23.23333">
        <ele>141.500355</ele>
        <time>2020-10-07T04:27:28.510Z</time>
      </trkpt>
      <trkpt lat="54.04407" lon="23.23277">
        <ele>141.323597</ele>
        <time>2020-10-07T04:27:34.805Z</time>
      </trkpt>
      <trkpt lat="54.04439" lon="23.2303">
        <ele>141.069144</ele>
        <time>2020-10-07T04:28:04.644Z</time>
      </trkpt>
      <trkpt lat="54.04446" lon="23.2295">
        <ele>141.495839</ele>
        <time>2020-10-07T04:28:15.851Z</time>
      </trkpt>
      <trkpt lat="54.04445" lon="23.22775">
        <ele>142.542784</ele>
        <time>2020-10-07T04:28:45.980Z</time>
      </trkpt>
      <trkpt lat="54.04434" lon="23.22698">
        <ele>143.622004</ele>
        <time>2020-10-07T04:29:01.489Z</time>
      </trkpt>
      <trkpt lat="54.04411" lon="23.22603">
        <ele>145.032849</ele>
        <time>2020-10-07T04:29:21.713Z</time>
      </trkpt>
      <trkpt lat="54.04387" lon="23.22509">
        <ele>146.421353</ele>
        <time>2020-10-07T04:29:40.870Z</time>
      </trkpt>
      <trkpt lat="54.0434" lon="23.22202">
        <ele>148.343406</ele>
        <time>2020-10-07T04:30:29.854Z</time>
      </trkpt>
      <trkpt lat="54.04307" lon="23.22098">
        <ele>148.373107</ele>
        <time>2020-10-07T04:30:45.064Z</time>
      </trkpt>
      <trkpt lat="54.04284" lon="23.22055">
        <ele>148.387593</ele>
        <time>2020-10-07T04:30:52.391Z</time>
      </trkpt>
      <trkpt lat="54.04255" lon="23.22017">
        <ele>148.403016</ele>
        <time>2020-10-07T04:31:00.158Z</time>
      </trkpt>
      <trkpt lat="54.04031" lon="23.21742">
        <ele>148.476181</ele>
        <time>2020-10-07T04:32:01.932Z</time>
      </trkpt>
      <trkpt lat="54.03992" lon="23.2166">
        <ele>148.551648</ele>
        <time>2020-10-07T04:32:16.131Z</time>
      </trkpt>
      <trkpt lat="54.03964" lon="23.21555">
        <ele>148.615401</ele>
        <time>2020-10-07T04:32:31.709Z</time>
      </trkpt>
      <trkpt lat="54.03955" lon="23.21519">
        <ele>148.592213</ele>
        <time>2020-10-07T04:32:37.056Z</time>
      </trkpt>
      <trkpt lat="54.03902" lon="23.21288">
        <ele>148.44695</ele>
        <time>2020-10-07T04:33:09.346Z</time>
      </trkpt>
      <trkpt lat="54.03767" lon="23.20835">
        <ele>144.065099</ele>
        <time>2020-10-07T04:34:06.679Z</time>
      </trkpt>
      <trkpt lat="54.03728" lon="23.20709">
        <ele>141.598723</ele>
        <time>2020-10-07T04:34:19.820Z</time>
      </trkpt>
      <trkpt lat="54.03708" lon="23.20637">
        <ele>139.28075</ele>
        <time>2020-10-07T04:34:26.793Z</time>
      </trkpt>
      <trkpt lat="54.03682" lon="23.20529">
        <ele>135.884102</ele>
        <time>2020-10-07T04:34:37.016Z</time>
      </trkpt>
      <trkpt lat="54.03674" lon="23.20477">
        <ele>134.310458</ele>
        <time>2020-10-07T04:34:41.749Z</time>
      </trkpt>
      <trkpt lat="54.0367" lon="23.20435">
        <ele>133.41591</ele>
        <time>2020-10-07T04:34:45.448Z</time>
      </trkpt>
      <trkpt lat="54.0366" lon="23.20287">
        <ele>131.522492</ele>
        <time>2020-10-07T04:34:59.797Z</time>
      </trkpt>
      <trkpt lat="54.03656" lon="23.20237">
        <ele>130.879839</ele>
        <time>2020-10-07T04:35:05.212Z</time>
      </trkpt>
      <trkpt lat="54.03652" lon="23.20179">
        <ele>130.132553</ele>
        <time>2020-10-07T04:35:12.977Z</time>
      </trkpt>
      <trkpt lat="54.03652" lon="23.20124">
        <ele>130.019075</ele>
        <time>2020-10-07T04:35:20.983Z</time>
      </trkpt>
      <trkpt lat="54.03659" lon="23.20083">
        <ele>130.420154</ele>
        <time>2020-10-07T04:35:27.559Z</time>
      </trkpt>
      <trkpt lat="54.03662" lon="23.20071">
        <ele>130.53754</ele>
        <time>2020-10-07T04:35:29.720Z</time>
      </trkpt>
      <trkpt lat="54.03667" lon="23.20052">
        <ele>130.732418</ele>
        <time>2020-10-07T04:35:33.379Z</time>
      </trkpt>
      <trkpt lat="54.03675" lon="23.20025">
        <ele>131.015489</ele>
        <time>2020-10-07T04:35:38.116Z</time>
      </trkpt>
      <trkpt lat="54.03685" lon="23.20001">
        <ele>131.29128</ele>
        <time>2020-10-07T04:35:43.644Z</time>
      </trkpt>
      <trkpt lat="54.03714" lon="23.1995">
        <ele>131.95821</ele>
        <time>2020-10-07T04:35:56.564Z</time>
      </trkpt>
      <trkpt lat="54.03749" lon="23.19916">
        <ele>132.598296</ele>
        <time>2020-10-07T04:36:09.240Z</time>
      </trkpt>
      <trkpt lat="54.04123" lon="23.19693">
        <ele>140.619329</ele>
        <time>2020-10-07T04:38:11.320Z</time>
      </trkpt>
      <trkpt lat="54.0416" lon="23.19657">
        <ele>141.017558</ele>
        <time>2020-10-07T04:38:23.402Z</time>
      </trkpt>
      <trkpt lat="54.04172" lon="23.19643">
        <ele>141.148624</ele>
        <time>2020-10-07T04:38:27.186Z</time>
      </trkpt>
      <trkpt lat="54.04185" lon="23.19626">
        <ele>141.300953</ele>
        <time>2020-10-07T04:38:31.787Z</time>
      </trkpt>
      <trkpt lat="54.04202" lon="23.19595">
        <ele>141.535477</ele>
        <time>2020-10-07T04:38:38.014Z</time>
      </trkpt>
      <trkpt lat="54.04227" lon="23.19531">
        <ele>141.957748</ele>
        <time>2020-10-07T04:38:48.897Z</time>
      </trkpt>
      <trkpt lat="54.04371" lon="23.19048">
        <ele>136.905834</ele>
        <time>2020-10-07T04:39:46.207Z</time>
      </trkpt>
      <trkpt lat="54.04437" lon="23.18924">
        <ele>135.322085</ele>
        <time>2020-10-07T04:40:03.509Z</time>
      </trkpt>
      <trkpt lat="54.04618" lon="23.18615">
        <ele>132.487302</ele>
        <time>2020-10-07T04:40:51.952Z</time>
      </trkpt>
      <trkpt lat="54.05098" lon="23.17796">
        <ele>133.808886</ele>
        <time>2020-10-07T04:43:31.485Z</time>
      </trkpt>
      <trkpt lat="54.05252" lon="23.17533">
        <ele>134.076421</ele>
        <time>2020-10-07T04:44:21.009Z</time>
      </trkpt>
      <trkpt lat="54.05216" lon="23.17508">
        <ele>134.105331</ele>
        <time>2020-10-07T04:44:29.749Z</time>
      </trkpt>
      <trkpt lat="54.0518" lon="23.17473">
        <ele>134.159015</ele>
        <time>2020-10-07T04:44:39.059Z</time>
      </trkpt>
      <trkpt lat="54.05046" lon="23.17297">
        <ele>134.482186</ele>
        <time>2020-10-07T04:45:17.656Z</time>
      </trkpt>
      <trkpt lat="54.04967" lon="23.17189">
        <ele>135.003017</ele>
        <time>2020-10-07T04:45:41.473Z</time>
      </trkpt>
      <trkpt lat="54.04886" lon="23.17064">
        <ele>135.944205</ele>
        <time>2020-10-07T04:46:10.241Z</time>
      </trkpt>
      <trkpt lat="54.04876" lon="23.1705">
        <ele>136.099951</ele>
        <time>2020-10-07T04:46:12.982Z</time>
      </trkpt>
      <trkpt lat="54.04868" lon="23.17035">
        <ele>136.252739</ele>
        <time>2020-10-07T04:46:16.924Z</time>
      </trkpt>
      <trkpt lat="54.04854" lon="23.16991">
        <ele>136.622451</ele>
        <time>2020-10-07T04:46:24.393Z</time>
      </trkpt>
      <trkpt lat="54.04852" lon="23.16977">
        <ele>136.729293</ele>
        <time>2020-10-07T04:46:27.337Z</time>
      </trkpt>
      <trkpt lat="54.04852" lon="23.16962">
        <ele>136.837439</ele>
        <time>2020-10-07T04:46:29.585Z</time>
      </trkpt>
      <trkpt lat="54.04882" lon="23.16698">
        <ele>139.317456</ele>
        <time>2020-10-07T04:47:15.221Z</time>
      </trkpt>
      <trkpt lat="54.04896" lon="23.16636">
        <ele>140.010235</ele>
        <time>2020-10-07T04:47:26.375Z</time>
      </trkpt>
      <trkpt lat="54.05089" lon="23.16146">
        <ele>147.697935</ele>
        <time>2020-10-07T04:49:13.488Z</time>
      </trkpt>
      <trkpt lat="54.05096" lon="23.16114">
        <ele>148.199139</ele>
        <time>2020-10-07T04:49:20.221Z</time>
      </trkpt>
      <trkpt lat="54.05097" lon="23.16093">
        <ele>148.498882</ele>
        <time>2020-10-07T04:49:24.895Z</time>
      </trkpt>
      <trkpt lat="54.05069" lon="23.1596">
        <ele>150.44463</ele>
        <time>2020-10-07T04:49:53.975Z</time>
      </trkpt>
      <trkpt lat="54.05038" lon="23.1578">
        <ele>152.962807</ele>
        <time>2020-10-07T04:50:29.099Z</time>
      </trkpt>
      <trkpt lat="54.05027" lon="23.15563">
        <ele>152.53489</ele>
        <time>2020-10-07T04:50:57.646Z</time>
      </trkpt>
      <trkpt lat="54.05029" lon="23.15477">
        <ele>152.267969</ele>
        <time>2020-10-07T04:51:06.642Z</time>
      </trkpt>
      <trkpt lat="54.05072" lon="23.15179">
        <ele>148.021542</ele>
        <time>2020-10-07T04:51:36.946Z</time>
      </trkpt>
      <trkpt lat="54.05082" lon="23.1514">
        <ele>147.5736</ele>
        <time>2020-10-07T04:51:41.341Z</time>
      </trkpt>
      <trkpt lat="54.05156" lon="23.14949">
        <ele>145.864397</ele>
        <time>2020-10-07T04:52:06.072Z</time>
      </trkpt>
      <trkpt lat="54.0517" lon="23.14895">
        <ele>145.491345</ele>
        <time>2020-10-07T04:52:13.575Z</time>
      </trkpt>
      <trkpt lat="54.05174" lon="23.1487">
        <ele>145.569089</ele>
        <time>2020-10-07T04:52:16.999Z</time>
      </trkpt>
      <trkpt lat="54.05178" lon="23.14843">
        <ele>145.652434</ele>
        <time>2020-10-07T04:52:20.695Z</time>
      </trkpt>
      <trkpt lat="54.05203" lon="23.14666">
        <ele>146.198241</ele>
        <time>2020-10-07T04:52:47.064Z</time>
      </trkpt>
      <trkpt lat="54.05224" lon="23.14543">
        <ele>146.76623</ele>
        <time>2020-10-07T04:53:07.334Z</time>
      </trkpt>
      <trkpt lat="54.05239" lon="23.14488">
        <ele>147.119576</ele>
        <time>2020-10-07T04:53:16.992Z</time>
      </trkpt>
      <trkpt lat="54.05295" lon="23.14294">
        <ele>148.323083</ele>
        <time>2020-10-07T04:53:50.302Z</time>
      </trkpt>
      <trkpt lat="54.05318" lon="23.14213">
        <ele>148.691169</ele>
        <time>2020-10-07T04:54:03.770Z</time>
      </trkpt>
      <trkpt lat="54.05329" lon="23.14158">
        <ele>148.923651</ele>
        <time>2020-10-07T04:54:12.147Z</time>
      </trkpt>
      <trkpt lat="54.05327" lon="23.14087">
        <ele>149.210945</ele>
        <time>2020-10-07T04:54:22.315Z</time>
      </trkpt>
      <trkpt lat="54.05264" lon="23.13748">
        <ele>150.180715</ele>
        <time>2020-10-07T04:55:12.521Z</time>
      </trkpt>
      <trkpt lat="54.05261" lon="23.13708">
        <ele>150.275028</ele>
        <time>2020-10-07T04:55:18.098Z</time>
      </trkpt>
      <trkpt lat="54.05264" lon="23.13693">
        <ele>150.310184</ele>
        <time>2020-10-07T04:55:20.281Z</time>
      </trkpt>
      <trkpt lat="54.05266" lon="23.13687">
        <ele>150.328481</ele>
        <time>2020-10-07T04:55:21.361Z</time>
      </trkpt>
      <trkpt lat="54.05295" lon="23.13657">
        <ele>150.462434</ele>
        <time>2020-10-07T04:55:29.464Z</time>
      </trkpt>
      <trkpt lat="54.05375" lon="23.13586">
        <ele>150.817982</ele>
        <time>2020-10-07T04:55:50.928Z</time>
      </trkpt>
      <trkpt lat="54.05377" lon="23.13584">
        <ele>150.828323</ele>
        <time>2020-10-07T04:55:51.551Z</time>
      </trkpt>
      <trkpt lat="54.05396" lon="23.13566">
        <ele>150.909676</ele>
        <time>2020-10-07T04:55:56.762Z</time>
      </trkpt>
      <trkpt lat="54.05413" lon="23.13552">
        <ele>150.959036</ele>
        <time>2020-10-07T04:56:01.153Z</time>
      </trkpt>
      <trkpt lat="54.05484" lon="23.13488">
        <ele>151.175123</ele>
        <time>2020-10-07T04:56:20.257Z</time>
      </trkpt>
      <trkpt lat="54.05564" lon="23.13414">
        <ele>151.349197</ele>
        <time>2020-10-07T04:56:41.354Z</time>
      </trkpt>
      <trkpt lat="54.05829" lon="23.13137">
        <ele>150.397326</ele>
        <time>2020-10-07T04:57:47.017Z</time>
      </trkpt>
      <trkpt lat="54.06068" lon="23.12804">
        <ele>148.564004</ele>
        <time>2020-10-07T04:58:49.605Z</time>
      </trkpt>
      <trkpt lat="54.0609" lon="23.12762">
        <ele>148.344006</ele>
        <time>2020-10-07T04:58:56.406Z</time>
      </trkpt>
      <trkpt lat="54.06095" lon="23.12749">
        <ele>148.284415</ele>
        <time>2020-10-07T04:58:58.238Z</time>
      </trkpt>
      <trkpt lat="54.06099" lon="23.12731">
        <ele>148.212398</ele>
        <time>2020-10-07T04:59:00.451Z</time>
      </trkpt>
      <trkpt lat="54.06111" lon="23.12601">
        <ele>147.4764</ele>
        <time>2020-10-07T04:59:15.794Z</time>
      </trkpt>
      <trkpt lat="54.06149" lon="23.12455">
        <ele>146.370064</ele>
        <time>2020-10-07T04:59:33.788Z</time>
      </trkpt>
      <trkpt lat="54.06178" lon="23.12327">
        <ele>145.262048</ele>
        <time>2020-10-07T04:59:48.407Z</time>
      </trkpt>
      <trkpt lat="54.06196" lon="23.12241">
        <ele>144.41319</ele>
        <time>2020-10-07T04:59:57.983Z</time>
      </trkpt>
      <trkpt lat="54.06214" lon="23.12146">
        <ele>143.478956</ele>
        <time>2020-10-07T05:00:08.675Z</time>
      </trkpt>
      <trkpt lat="54.0622" lon="23.12109">
        <ele>143.123071</ele>
        <time>2020-10-07T05:00:12.904Z</time>
      </trkpt>
      <trkpt lat="54.06223" lon="23.12083">
        <ele>142.922699</ele>
        <time>2020-10-07T05:00:15.767Z</time>
      </trkpt>
      <trkpt lat="54.06228" lon="23.12031">
        <ele>142.586476</ele>
        <time>2020-10-07T05:00:21.498Z</time>
      </trkpt>
      <trkpt lat="54.06235" lon="23.11988">
        <ele>142.301584</ele>
        <time>2020-10-07T05:00:26.472Z</time>
      </trkpt>
      <trkpt lat="54.06254" lon="23.1194">
        <ele>141.936758</ele>
        <time>2020-10-07T05:00:32.958Z</time>
      </trkpt>
      <trkpt lat="54.0629" lon="23.11862">
        <ele>141.306468</ele>
        <time>2020-10-07T05:00:44.428Z</time>
      </trkpt>
      <trkpt lat="54.06299" lon="23.1184">
        <ele>141.138477</ele>
        <time>2020-10-07T05:00:47.454Z</time>
      </trkpt>
      <trkpt lat="54.06312" lon="23.11778">
        <ele>140.702036</ele>
        <time>2020-10-07T05:00:55.363Z</time>
      </trkpt>
      <trkpt lat="54.06337" lon="23.1157">
        <ele>139.285586</ele>
        <time>2020-10-07T05:01:19.446Z</time>
      </trkpt>
      <trkpt lat="54.06343" lon="23.11525">
        <ele>138.928977</ele>
        <time>2020-10-07T05:01:24.249Z</time>
      </trkpt>
      <trkpt lat="54.06351" lon="23.11487">
        <ele>138.433911</ele>
        <time>2020-10-07T05:01:28.483Z</time>
      </trkpt>
      <trkpt lat="54.06365" lon="23.11436">
        <ele>137.760902</ele>
        <time>2020-10-07T05:01:34.155Z</time>
      </trkpt>
      <trkpt lat="54.06385" lon="23.11377">
        <ele>136.933733</ele>
        <time>2020-10-07T05:01:41.120Z</time>
      </trkpt>
      <trkpt lat="54.06403" lon="23.11342">
        <ele>136.367001</ele>
        <time>2020-10-07T05:01:45.881Z</time>
      </trkpt>
      <trkpt lat="54.06416" lon="23.11322">
        <ele>136.008074</ele>
        <time>2020-10-07T05:01:48.870Z</time>
      </trkpt>
      <trkpt lat="54.06425" lon="23.11314">
        <ele>135.807132</ele>
        <time>2020-10-07T05:01:50.480Z</time>
      </trkpt>
      <trkpt lat="54.06466" lon="23.11288">
        <ele>135.044141</ele>
        <time>2020-10-07T05:01:58.135Z</time>
      </trkpt>
      <trkpt lat="54.06625" lon="23.11227">
        <ele>132.872237</ele>
        <time>2020-10-07T05:02:28.643Z</time>
      </trkpt>
      <trkpt lat="54.0664" lon="23.11224">
        <ele>132.871352</ele>
        <time>2020-10-07T05:02:31.918Z</time>
      </trkpt>
      <trkpt lat="54.06657" lon="23.11209">
        <ele>132.870268</ele>
        <time>2020-10-07T05:02:36.036Z</time>
      </trkpt>
      <trkpt lat="54.06662" lon="23.11199">
        <ele>132.869837</ele>
        <time>2020-10-07T05:02:37.670Z</time>
      </trkpt>
      <trkpt lat="54.06683" lon="23.1111">
        <ele>132.866599</ele>
        <time>2020-10-07T05:02:50.446Z</time>
      </trkpt>
      <trkpt lat="54.06705" lon="23.1103">
        <ele>132.863631</ele>
        <time>2020-10-07T05:03:02.595Z</time>
      </trkpt>
      <trkpt lat="54.06733" lon="23.10931">
        <ele>132.903113</ele>
        <time>2020-10-07T05:03:18.748Z</time>
      </trkpt>
      <trkpt lat="54.06747" lon="23.10886">
        <ele>132.934031</ele>
        <time>2020-10-07T05:03:25.568Z</time>
      </trkpt>
      <trkpt lat="54.06762" lon="23.10814">
        <ele>132.981167</ele>
        <time>2020-10-07T05:03:35.706Z</time>
      </trkpt>
      <trkpt lat="54.06764" lon="23.10793">
        <ele>132.994766</ele>
        <time>2020-10-07T05:03:38.594Z</time>
      </trkpt>
      <trkpt lat="54.06776" lon="23.107">
        <ele>133.040572</ele>
        <time>2020-10-07T05:03:58.948Z</time>
      </trkpt>
      <trkpt lat="54.06776" lon="23.10686">
        <ele>133.003453</ele>
        <time>2020-10-07T05:04:01.763Z</time>
      </trkpt>
      <trkpt lat="54.06776" lon="23.10645">
        <ele>132.885735</ele>
        <time>2020-10-07T05:04:10.444Z</time>
      </trkpt>
      <trkpt lat="54.0676" lon="23.10589">
        <ele>132.711526</ele>
        <time>2020-10-07T05:04:23.272Z</time>
      </trkpt>
      <trkpt lat="54.06756" lon="23.10522">
        <ele>132.520264</ele>
        <time>2020-10-07T05:04:37.341Z</time>
      </trkpt>
      <trkpt lat="54.0676" lon="23.10379">
        <ele>132.160847</ele>
        <time>2020-10-07T05:05:06.515Z</time>
      </trkpt>
      <trkpt lat="54.06767" lon="23.10291">
        <ele>132.068292</ele>
        <time>2020-10-07T05:05:25.418Z</time>
      </trkpt>
      <trkpt lat="54.06788" lon="23.10225">
        <ele>131.98988</ele>
        <time>2020-10-07T05:05:41.688Z</time>
      </trkpt>
      <trkpt lat="54.06832" lon="23.10148">
        <ele>131.877911</ele>
        <time>2020-10-07T05:06:05.139Z</time>
      </trkpt>
      <trkpt lat="54.06877" lon="23.10037">
        <ele>131.750208</ele>
        <time>2020-10-07T05:06:34.358Z</time>
      </trkpt>
      <trkpt lat="54.0689" lon="23.09977">
        <ele>131.690682</ele>
        <time>2020-10-07T05:06:47.888Z</time>
      </trkpt>
      <trkpt lat="54.06899" lon="23.09907">
        <ele>131.623278</ele>
        <time>2020-10-07T05:07:03.205Z</time>
      </trkpt>
      <trkpt lat="54.06902" lon="23.09868">
        <ele>131.586588</ele>
        <time>2020-10-07T05:07:11.582Z</time>
      </trkpt>
      <trkpt lat="54.06907" lon="23.0982">
        <ele>131.593099</ele>
        <time>2020-10-07T05:07:22.092Z</time>
      </trkpt>
      <trkpt lat="54.06912" lon="23.09799">
        <ele>131.600316</ele>
        <time>2020-10-07T05:07:26.862Z</time>
      </trkpt>
      <trkpt lat="54.06917" lon="23.09782">
        <ele>131.606646</ele>
        <time>2020-10-07T05:07:31.059Z</time>
      </trkpt>
      <trkpt lat="54.06918" lon="23.09778">
        <ele>131.608017</ele>
        <time>2020-10-07T05:07:31.973Z</time>
      </trkpt>
      <trkpt lat="54.06931" lon="23.09747">
        <ele>131.620271</ele>
        <time>2020-10-07T05:07:40.095Z</time>
      </trkpt>
      <trkpt lat="54.06956" lon="23.09701">
        <ele>131.640652</ele>
        <time>2020-10-07T05:07:53.710Z</time>
      </trkpt>
      <trkpt lat="54.06971" lon="23.09725">
        <ele>131.652236</ele>
        <time>2020-10-07T05:07:58.385Z</time>
      </trkpt>
      <trkpt lat="54.07201" lon="23.10077">
        <ele>133.137781</ele>
        <time>2020-10-07T05:09:13.258Z</time>
      </trkpt>
      <trkpt lat="54.07317" lon="23.1026">
        <ele>134.147227</ele>
        <time>2020-10-07T05:09:54.098Z</time>
      </trkpt>
      <trkpt lat="54.07346" lon="23.10303">
        <ele>134.359775</ele>
        <time>2020-10-07T05:10:03.911Z</time>
      </trkpt>
      <trkpt lat="54.0737" lon="23.10368">
        <ele>134.609187</ele>
        <time>2020-10-07T05:10:14.674Z</time>
      </trkpt>
      <trkpt lat="54.07376" lon="23.10392">
        <ele>134.692335</ele>
        <time>2020-10-07T05:10:18.309Z</time>
      </trkpt>
      <trkpt lat="54.07381" lon="23.10406">
        <ele>134.745524</ele>
        <time>2020-10-07T05:10:20.382Z</time>
      </trkpt>
      <trkpt lat="54.07383" lon="23.10417">
        <ele>134.785334</ele>
        <time>2020-10-07T05:10:21.906Z</time>
      </trkpt>
      <trkpt lat="54.07389" lon="23.10427">
        <ele>134.817156</ele>
        <time>2020-10-07T05:10:23.763Z</time>
      </trkpt>
      <trkpt lat="54.07404" lon="23.10437">
        <ele>134.83299</ele>
        <time>2020-10-07T05:10:27.362Z</time>
      </trkpt>
      <trkpt lat="54.07412" lon="23.10439">
        <ele>134.841711</ele>
        <time>2020-10-07T05:10:29.286Z</time>
      </trkpt>
      <trkpt lat="54.07495" lon="23.10339">
        <ele>134.940958</ele>
        <time>2020-10-07T05:10:52.408Z</time>
      </trkpt>
      <trkpt lat="54.07544" lon="23.10273">
        <ele>135.054829</ele>
        <time>2020-10-07T05:11:06.078Z</time>
      </trkpt>
      <trkpt lat="54.0755" lon="23.10264">
        <ele>135.102028</ele>
        <time>2020-10-07T05:11:08.589Z</time>
      </trkpt>
      <trkpt lat="54.076" lon="23.10222">
        <ele>135.411486</ele>
        <time>2020-10-07T05:11:21.682Z</time>
      </trkpt>
      <trkpt lat="54.07628" lon="23.10219">
        <ele>135.572147</ele>
        <time>2020-10-07T05:11:29.010Z</time>
      </trkpt>
      <trkpt lat="54.07689" lon="23.10256">
        <ele>135.9343</ele>
        <time>2020-10-07T05:11:45.587Z</time>
      </trkpt>
      <trkpt lat="54.0774" lon="23.10303">
        <ele>136.194465</ele>
        <time>2020-10-07T05:11:59.539Z</time>
      </trkpt>
      <trkpt lat="54.07748" lon="23.10311">
        <ele>136.231597</ele>
        <time>2020-10-07T05:12:01.771Z</time>
      </trkpt>
      <trkpt lat="54.07773" lon="23.10302">
        <ele>136.339301</ele>
        <time>2020-10-07T05:12:11.462Z</time>
      </trkpt>
      <trkpt lat="54.07794" lon="23.10285">
        <ele>136.434</ele>
        <time>2020-10-07T05:12:20.113Z</time>
      </trkpt>
      <trkpt lat="54.07824" lon="23.1022">
        <ele>136.638669</ele>
        <time>2020-10-07T05:12:38.429Z</time>
      </trkpt>
      <trkpt lat="54.07991" lon="23.09968">
        <ele>138.44753</ele>
        <time>2020-10-07T05:14:07.701Z</time>
      </trkpt>
      <trkpt lat="54.08029" lon="23.09933">
        <ele>139.192753</ele>
        <time>2020-10-07T05:14:27.072Z</time>
      </trkpt>
      <trkpt lat="54.08106" lon="23.09912">
        <ele>140.543104</ele>
        <time>2020-10-07T05:15:02.847Z</time>
      </trkpt>
      <trkpt lat="54.08154" lon="23.09873">
        <ele>141.24531</ele>
        <time>2020-10-07T05:15:26.655Z</time>
      </trkpt>
      <trkpt lat="54.08203" lon="23.09823">
        <ele>140.974336</ele>
        <time>2020-10-07T05:15:50.451Z</time>
      </trkpt>
      <trkpt lat="54.08225" lon="23.0977">
        <ele>140.798134</ele>
        <time>2020-10-07T05:16:04.709Z</time>
      </trkpt>
      <trkpt lat="54.08278" lon="23.09549">
        <ele>138.637644</ele>
        <time>2020-10-07T05:16:47.788Z</time>
      </trkpt>
      <trkpt lat="54.08286" lon="23.09532">
        <ele>138.288684</ele>
        <time>2020-10-07T05:16:51.790Z</time>
      </trkpt>
      <trkpt lat="54.08287" lon="23.0953">
        <ele>138.244534</ele>
        <time>2020-10-07T05:16:52.147Z</time>
      </trkpt>
      <trkpt lat="54.08287" lon="23.09524">
        <ele>138.149175</ele>
        <time>2020-10-07T05:16:52.666Z</time>
      </trkpt>
      <trkpt lat="54.08291" lon="23.09511">
        <ele>137.911345</ele>
        <time>2020-10-07T05:16:54.230Z</time>
      </trkpt>
      <trkpt lat="54.0827" lon="23.09357">
        <ele>135.459853</ele>
        <time>2020-10-07T05:17:09.865Z</time>
      </trkpt>
      <trkpt lat="54.08264" lon="23.09309">
        <ele>135.18623</ele>
        <time>2020-10-07T05:17:14.766Z</time>
      </trkpt>
      <trkpt lat="54.08259" lon="23.09269">
        <ele>134.960516</ele>
        <time>2020-10-07T05:17:18.777Z</time>
      </trkpt>
      <trkpt lat="54.08251" lon="23.0918">
        <ele>134.466014</ele>
        <time>2020-10-07T05:17:29.854Z</time>
      </trkpt>
      <trkpt lat="54.08249" lon="23.0914">
        <ele>134.24863</ele>
        <time>2020-10-07T05:17:35.217Z</time>
      </trkpt>
      <trkpt lat="54.08249" lon="23.09135">
        <ele>134.216582</ele>
        <time>2020-10-07T05:17:36.226Z</time>
      </trkpt>
      <trkpt lat="54.08249" lon="23.09131">
        <ele>134.194485</ele>
        <time>2020-10-07T05:17:36.946Z</time>
      </trkpt>
      <trkpt lat="54.08249" lon="23.09111">
        <ele>134.084398</ele>
        <time>2020-10-07T05:17:40.432Z</time>
      </trkpt>
      <trkpt lat="54.08249" lon="23.09062">
        <ele>133.819445</ele>
        <time>2020-10-07T05:17:49.234Z</time>
      </trkpt>
      <trkpt lat="54.0825" lon="23.08998">
        <ele>133.885837</ele>
        <time>2020-10-07T05:18:00.616Z</time>
      </trkpt>
      <trkpt lat="54.0825" lon="23.08927">
        <ele>133.958796</ele>
        <time>2020-10-07T05:18:13.226Z</time>
      </trkpt>
      <trkpt lat="54.08245" lon="23.08914">
        <ele>133.974516</ele>
        <time>2020-10-07T05:18:15.685Z</time>
      </trkpt>
      <trkpt lat="54.08246" lon="23.08906">
        <ele>133.982738</ele>
        <time>2020-10-07T05:18:17.174Z</time>
      </trkpt>
      <trkpt lat="54.08246" lon="23.08899">
        <ele>133.989668</ele>
        <time>2020-10-07T05:18:18.378Z</time>
      </trkpt>
      <trkpt lat="54.08252" lon="23.08897">
        <ele>134.000673</ele>
        <time>2020-10-07T05:18:20.312Z</time>
      </trkpt>
      <trkpt lat="54.08252" lon="23.08886">
        <ele>134.011501</ele>
        <time>2020-10-07T05:18:22.222Z</time>
      </trkpt>
      <trkpt lat="54.08257" lon="23.08886">
        <ele>134.019225</ele>
        <time>2020-10-07T05:18:23.606Z</time>
      </trkpt>
      <trkpt lat="54.08262" lon="23.08887">
        <ele>134.027836</ele>
        <time>2020-10-07T05:18:25.011Z</time>
      </trkpt>
      <trkpt lat="54.08263" lon="23.08835">
        <ele>134.081</ele>
        <time>2020-10-07T05:18:34.232Z</time>
      </trkpt>
      <trkpt lat="54.0827" lon="23.08828">
        <ele>134.095236</ele>
        <time>2020-10-07T05:18:36.573Z</time>
      </trkpt>
      <trkpt lat="54.0827" lon="23.08821">
        <ele>134.103161</ele>
        <time>2020-10-07T05:18:37.802Z</time>
      </trkpt>
      <trkpt lat="54.0827" lon="23.08813">
        <ele>134.111093</ele>
        <time>2020-10-07T05:18:39.207Z</time>
      </trkpt>
      <trkpt lat="54.08263" lon="23.08799">
        <ele>134.129224</ele>
        <time>2020-10-07T05:18:42.379Z</time>
      </trkpt>
      <trkpt lat="54.08266" lon="23.08711">
        <ele>134.254015</ele>
        <time>2020-10-07T05:18:57.646Z</time>
      </trkpt>
      <trkpt lat="54.08266" lon="23.08703">
        <ele>134.265473</ele>
        <time>2020-10-07T05:18:58.881Z</time>
      </trkpt>
      <trkpt lat="54.08273" lon="23.08294">
        <ele>135.404972</ele>
        <time>2020-10-07T05:19:55.862Z</time>
      </trkpt>
      <trkpt lat="54.08276" lon="23.08221">
        <ele>135.717229</ele>
        <time>2020-10-07T05:20:07.797Z</time>
      </trkpt>
      <trkpt lat="54.0828" lon="23.08216">
        <ele>135.75602</ele>
        <time>2020-10-07T05:20:08.979Z</time>
      </trkpt>
      <trkpt lat="54.08281" lon="23.08206">
        <ele>135.797421</ele>
        <time>2020-10-07T05:20:10.499Z</time>
      </trkpt>
      <trkpt lat="54.08282" lon="23.08198">
        <ele>135.831511</ele>
        <time>2020-10-07T05:20:12.187Z</time>
      </trkpt>
      <trkpt lat="54.08277" lon="23.08188">
        <ele>135.888186</ele>
        <time>2020-10-07T05:20:14.305Z</time>
      </trkpt>
      <trkpt lat="54.08277" lon="23.08105">
        <ele>136.44428</ele>
        <time>2020-10-07T05:20:27.575Z</time>
      </trkpt>
      <trkpt lat="54.08271" lon="23.08016">
        <ele>137.050814</ele>
        <time>2020-10-07T05:20:42.235Z</time>
      </trkpt>
      <trkpt lat="54.08267" lon="23.0799">
        <ele>137.230924</ele>
        <time>2020-10-07T05:20:46.727Z</time>
      </trkpt>
      <trkpt lat="54.08262" lon="23.07963">
        <ele>137.417361</ele>
        <time>2020-10-07T05:20:50.996Z</time>
      </trkpt>
      <trkpt lat="54.08232" lon="23.07849">
        <ele>138.129933</ele>
        <time>2020-10-07T05:21:09.843Z</time>
      </trkpt>
      <trkpt lat="54.08133" lon="23.0755">
        <ele>139.444683</ele>
        <time>2020-10-07T05:21:59.848Z</time>
      </trkpt>
      <trkpt lat="54.08121" lon="23.07514">
        <ele>139.577138</ele>
        <time>2020-10-07T05:22:05.718Z</time>
      </trkpt>
      <trkpt lat="54.08115" lon="23.0752">
        <ele>139.618567</ele>
        <time>2020-10-07T05:22:08.016Z</time>
      </trkpt>
      <trkpt lat="54.08109" lon="23.07525">
        <ele>139.65136</ele>
        <time>2020-10-07T05:22:09.804Z</time>
      </trkpt>
      <trkpt lat="54.081" lon="23.07496">
        <ele>139.75873</ele>
        <time>2020-10-07T05:22:15.963Z</time>
      </trkpt>
      <trkpt lat="54.08096" lon="23.07482">
        <ele>139.809558</ele>
        <time>2020-10-07T05:22:18.868Z</time>
      </trkpt>
      <trkpt lat="54.08088" lon="23.07455">
        <ele>139.905461</ele>
        <time>2020-10-07T05:22:24.272Z</time>
      </trkpt>
      <trkpt lat="54.08075" lon="23.07405">
        <ele>140.084664</ele>
        <time>2020-10-07T05:22:34.516Z</time>
      </trkpt>
      <trkpt lat="54.0806" lon="23.0735">
        <ele>140.271637</ele>
        <time>2020-10-07T05:22:45.691Z</time>
      </trkpt>
      <trkpt lat="54.08023" lon="23.07205">
        <ele>140.747063</ele>
        <time>2020-10-07T05:23:14.666Z</time>
      </trkpt>
      <trkpt lat="54.07946" lon="23.06909">
        <ele>141.695449</ele>
        <time>2020-10-07T05:24:14.900Z</time>
      </trkpt>
      <trkpt lat="54.07951" lon="23.06906">
        <ele>141.722881</ele>
        <time>2020-10-07T05:24:16.692Z</time>
      </trkpt>
      <trkpt lat="54.07955" lon="23.06903">
        <ele>141.742265</ele>
        <time>2020-10-07T05:24:17.920Z</time>
      </trkpt>
      <trkpt lat="54.07952" lon="23.06878">
        <ele>141.814435</ele>
        <time>2020-10-07T05:24:22.395Z</time>
      </trkpt>
      <trkpt lat="54.07951" lon="23.06871">
        <ele>141.83676</ele>
        <time>2020-10-07T05:24:23.834Z</time>
      </trkpt>
      <trkpt lat="54.07956" lon="23.06869">
        <ele>141.862371</ele>
        <time>2020-10-07T05:24:25.638Z</time>
      </trkpt>
      <trkpt lat="54.08085" lon="23.06873">
        <ele>142.384124</ele>
        <time>2020-10-07T05:25:14.986Z</time>
      </trkpt>
      <trkpt lat="54.08173" lon="23.06737">
        <ele>142.801567</ele>
        <time>2020-10-07T05:26:01.635Z</time>
      </trkpt>
      <trkpt lat="54.08219" lon="23.06726">
        <ele>142.936806</ele>
        <time>2020-10-07T05:26:19.693Z</time>
      </trkpt>
      <trkpt lat="54.0826" lon="23.06699">
        <ele>143.066183</ele>
        <time>2020-10-07T05:26:36.672Z</time>
      </trkpt>
      <trkpt lat="54.08265" lon="23.06696">
        <ele>143.081146</ele>
        <time>2020-10-07T05:26:39.014Z</time>
      </trkpt>
      <trkpt lat="54.08271" lon="23.0669">
        <ele>143.099854</ele>
        <time>2020-10-07T05:26:41.168Z</time>
      </trkpt>
      <trkpt lat="54.08296" lon="23.06577">
        <ele>142.96752</ele>
        <time>2020-10-07T05:27:07.210Z</time>
      </trkpt>
      <trkpt lat="54.0833" lon="23.06481">
        <ele>142.577443</ele>
        <time>2020-10-07T05:27:30.533Z</time>
      </trkpt>
      <trkpt lat="54.08358" lon="23.06374">
        <ele>142.171161</ele>
        <time>2020-10-07T05:27:53.664Z</time>
      </trkpt>
      <trkpt lat="54.08399" lon="23.06319">
        <ele>141.955958</ele>
        <time>2020-10-07T05:28:11.480Z</time>
      </trkpt>
      <trkpt lat="54.08425" lon="23.06242">
        <ele>141.753797</ele>
        <time>2020-10-07T05:28:29.742Z</time>
      </trkpt>
      <trkpt lat="54.08501" lon="23.06171">
        <ele>141.4539</ele>
        <time>2020-10-07T05:29:01.633Z</time>
      </trkpt>
      <trkpt lat="54.0852" lon="23.06141">
        <ele>141.55321</ele>
        <time>2020-10-07T05:29:11.513Z</time>
      </trkpt>
      <trkpt lat="54.08587" lon="23.06004">
        <ele>141.958136</ele>
        <time>2020-10-07T05:29:53.264Z</time>
      </trkpt>
      <trkpt lat="54.08597" lon="23.05999">
        <ele>141.998699</ele>
        <time>2020-10-07T05:29:57.258Z</time>
      </trkpt>
      <trkpt lat="54.08637" lon="23.0601">
        <ele>142.104231</ele>
        <time>2020-10-07T05:30:13.072Z</time>
      </trkpt>
      <trkpt lat="54.08643" lon="23.06007">
        <ele>142.076668</ele>
        <time>2020-10-07T05:30:15.844Z</time>
      </trkpt>
      <trkpt lat="54.08647" lon="23.05997">
        <ele>142.047605</ele>
        <time>2020-10-07T05:30:18.545Z</time>
      </trkpt>
      <trkpt lat="54.08662" lon="23.05464">
        <ele>140.313677</ele>
        <time>2020-10-07T05:32:07.740Z</time>
      </trkpt>
      <trkpt lat="54.08677" lon="23.05279">
        <ele>139.793705</ele>
        <time>2020-10-07T05:32:45.440Z</time>
      </trkpt>
      <trkpt lat="54.0868" lon="23.05175">
        <ele>139.551233</ele>
        <time>2020-10-07T05:33:07.343Z</time>
      </trkpt>
      <trkpt lat="54.0868" lon="23.05173">
        <ele>139.545129</ele>
        <time>2020-10-07T05:33:07.871Z</time>
      </trkpt>
      <trkpt lat="54.08687" lon="23.05019">
        <ele>140.195574</ele>
        <time>2020-10-07T05:33:42.653Z</time>
      </trkpt>
      <trkpt lat="54.0869" lon="23.04927">
        <ele>140.961045</ele>
        <time>2020-10-07T05:34:05.978Z</time>
      </trkpt>
      <trkpt lat="54.087" lon="23.04808">
        <ele>141.959966</ele>
        <time>2020-10-07T05:34:38.314Z</time>
      </trkpt>
      <trkpt lat="54.08717" lon="23.0474">
        <ele>143.302486</ele>
        <time>2020-10-07T05:34:58.866Z</time>
      </trkpt>
      <trkpt lat="54.08732" lon="23.04699">
        <ele>144.185874</ele>
        <time>2020-10-07T05:35:12.962Z</time>
      </trkpt>
      <trkpt lat="54.08813" lon="23.04525">
        <ele>148.221031</ele>
        <time>2020-10-07T05:36:19.517Z</time>
      </trkpt>
      <trkpt lat="54.08845" lon="23.04466">
        <ele>149.721854</ele>
        <time>2020-10-07T05:36:42.597Z</time>
      </trkpt>
      <trkpt lat="54.08847" lon="23.04443">
        <ele>150.150779</ele>
        <time>2020-10-07T05:36:49.555Z</time>
      </trkpt>
      <trkpt lat="54.08848" lon="23.04369">
        <ele>151.527649</ele>
        <time>2020-10-07T05:37:10.553Z</time>
      </trkpt>
      <trkpt lat="54.0884" lon="23.04317">
        <ele>152.511418</ele>
        <time>2020-10-07T05:37:26.203Z</time>
      </trkpt>
      <trkpt lat="54.08821" lon="23.04249">
        <ele>154.082029</ele>
        <time>2020-10-07T05:37:48.654Z</time>
      </trkpt>
      <trkpt lat="54.08784" lon="23.04177">
        <ele>156.293983</ele>
        <time>2020-10-07T05:38:17.446Z</time>
      </trkpt>
      <trkpt lat="54.08753" lon="23.04046">
        <ele>159.522697</ele>
        <time>2020-10-07T05:39:01.657Z</time>
      </trkpt>
      <trkpt lat="54.0875" lon="23.03999">
        <ele>160.596556</ele>
        <time>2020-10-07T05:39:17.394Z</time>
      </trkpt>
      <trkpt lat="54.0876" lon="23.03939">
        <ele>161.99625</ele>
        <time>2020-10-07T05:39:38.457Z</time>
      </trkpt>
      <trkpt lat="54.08762" lon="23.0389">
        <ele>163.08601</ele>
        <time>2020-10-07T05:39:54.656Z</time>
      </trkpt>
      <trkpt lat="54.08751" lon="23.03847">
        <ele>164.127136</ele>
        <time>2020-10-07T05:40:09.435Z</time>
      </trkpt>
      <trkpt lat="54.08737" lon="23.03831">
        <ele>164.756356</ele>
        <time>2020-10-07T05:40:18.161Z</time>
      </trkpt>
      <trkpt lat="54.08694" lon="23.03828">
        <ele>166.394072</ele>
        <time>2020-10-07T05:40:39.480Z</time>
      </trkpt>
      <trkpt lat="54.08672" lon="23.03838">
        <ele>167.118027</ele>
        <time>2020-10-07T05:40:49.933Z</time>
      </trkpt>
      <trkpt lat="54.0865" lon="23.03838">
        <ele>167.379644</ele>
        <time>2020-10-07T05:40:59.779Z</time>
      </trkpt>
      <trkpt lat="54.08635" lon="23.03829">
        <ele>167.565367</ele>
        <time>2020-10-07T05:41:06.859Z</time>
      </trkpt>
      <trkpt lat="54.0859" lon="23.03829">
        <ele>168.083942</ele>
        <time>2020-10-07T05:41:25.571Z</time>
      </trkpt>
      <trkpt lat="54.08502" lon="23.038">
        <ele>169.129604</ele>
        <time>2020-10-07T05:42:00.817Z</time>
      </trkpt>
      <trkpt lat="54.08481" lon="23.03786">
        <ele>169.221255</ele>
        <time>2020-10-07T05:42:09.511Z</time>
      </trkpt>
      <trkpt lat="54.0847" lon="23.03776">
        <ele>169.25875</ele>
        <time>2020-10-07T05:42:14.189Z</time>
      </trkpt>
      <trkpt lat="54.08397" lon="23.03642">
        <ele>169.583377</ele>
        <time>2020-10-07T05:42:56.027Z</time>
      </trkpt>
      <trkpt lat="54.08382" lon="23.03632">
        <ele>169.631017</ele>
        <time>2020-10-07T05:43:02.213Z</time>
      </trkpt>
      <trkpt lat="54.08349" lon="23.03573">
        <ele>169.418864</ele>
        <time>2020-10-07T05:43:20.503Z</time>
      </trkpt>
      <trkpt lat="54.08332" lon="23.03436">
        <ele>168.450304</ele>
        <time>2020-10-07T05:43:48.643Z</time>
      </trkpt>
      <trkpt lat="54.08327" lon="23.03397">
        <ele>168.171129</ele>
        <time>2020-10-07T05:43:56.167Z</time>
      </trkpt>
      <trkpt lat="54.08293" lon="23.03333">
        <ele>167.57088</ele>
        <time>2020-10-07T05:44:11.962Z</time>
      </trkpt>
      <trkpt lat="54.08281" lon="23.03301">
        <ele>166.986866</ele>
        <time>2020-10-07T05:44:18.753Z</time>
      </trkpt>
      <trkpt lat="54.08232" lon="23.0311">
        <ele>163.776639</ele>
        <time>2020-10-07T05:44:55.817Z</time>
      </trkpt>
      <trkpt lat="54.08204" lon="23.03041">
        <ele>162.569653</ele>
        <time>2020-10-07T05:45:10.679Z</time>
      </trkpt>
      <trkpt lat="54.08198" lon="23.02971">
        <ele>161.712593</ele>
        <time>2020-10-07T05:45:23.599Z</time>
      </trkpt>
      <trkpt lat="54.0822" lon="23.02908">
        <ele>160.833806</ele>
        <time>2020-10-07T05:45:36.839Z</time>
      </trkpt>
      <trkpt lat="54.08243" lon="23.02809">
        <ele>159.55688</ele>
        <time>2020-10-07T05:45:56.787Z</time>
      </trkpt>
      <trkpt lat="54.08247" lon="23.02733">
        <ele>159.223994</ele>
        <time>2020-10-07T05:46:12.057Z</time>
      </trkpt>
      <trkpt lat="54.08245" lon="23.02702">
        <ele>159.251344</ele>
        <time>2020-10-07T05:46:18.139Z</time>
      </trkpt>
      <trkpt lat="54.08238" lon="23.02664">
        <ele>159.286768</ele>
        <time>2020-10-07T05:46:26.694Z</time>
      </trkpt>
      <trkpt lat="54.08238" lon="23.0262">
        <ele>159.325725</ele>
        <time>2020-10-07T05:46:36.288Z</time>
      </trkpt>
      <trkpt lat="54.08281" lon="23.0252">
        <ele>159.435858</ele>
        <time>2020-10-07T05:47:05.399Z</time>
      </trkpt>
      <trkpt lat="54.08283" lon="23.02492">
        <ele>159.507526</ele>
        <time>2020-10-07T05:47:12.134Z</time>
      </trkpt>
      <trkpt lat="54.08206" lon="23.02335">
        <ele>161.702515</ele>
        <time>2020-10-07T05:48:06.828Z</time>
      </trkpt>
      <trkpt lat="54.08202" lon="23.0228">
        <ele>162.284315</ele>
        <time>2020-10-07T05:48:21.276Z</time>
      </trkpt>
      <trkpt lat="54.0821" lon="23.02201">
        <ele>162.970809</ele>
        <time>2020-10-07T05:48:42.355Z</time>
      </trkpt>
      <trkpt lat="54.08186" lon="23.02133">
        <ele>163.457837</ele>
        <time>2020-10-07T05:49:02.397Z</time>
      </trkpt>
      <trkpt lat="54.08174" lon="23.02081">
        <ele>163.79976</ele>
        <time>2020-10-07T05:49:16.003Z</time>
      </trkpt>
      <trkpt lat="54.08165" lon="23.01996">
        <ele>164.327615</ele>
        <time>2020-10-07T05:49:36.253Z</time>
      </trkpt>
      <trkpt lat="54.08166" lon="23.01917">
        <ele>164.465761</ele>
        <time>2020-10-07T05:49:54.093Z</time>
      </trkpt>
      <trkpt lat="54.08159" lon="23.01816">
        <ele>164.020141</ele>
        <time>2020-10-07T05:50:16.007Z</time>
      </trkpt>
      <trkpt lat="54.0816" lon="23.01795">
        <ele>163.929055</ele>
        <time>2020-10-07T05:50:20.158Z</time>
      </trkpt>
      <trkpt lat="54.08166" lon="23.01778">
        <ele>163.840233</ele>
        <time>2020-10-07T05:50:24.251Z</time>
      </trkpt>
      <trkpt lat="54.08233" lon="23.01654">
        <ele>162.648389</ele>
        <time>2020-10-07T05:50:56.628Z</time>
      </trkpt>
      <trkpt lat="54.08239" lon="23.01606">
        <ele>161.859733</ele>
        <time>2020-10-07T05:51:05.784Z</time>
      </trkpt>
      <trkpt lat="54.08237" lon="23.01596">
        <ele>161.677058</ele>
        <time>2020-10-07T05:51:07.693Z</time>
      </trkpt>
      <trkpt lat="54.08233" lon="23.0159">
        <ele>161.539893</ele>
        <time>2020-10-07T05:51:09.298Z</time>
      </trkpt>
      <trkpt lat="54.0825" lon="23.01556">
        <ele>160.815544</ele>
        <time>2020-10-07T05:51:13.763Z</time>
      </trkpt>
      <trkpt lat="54.08279" lon="23.0148">
        <ele>159.348411</ele>
        <time>2020-10-07T05:51:22.437Z</time>
      </trkpt>
      <trkpt lat="54.08299" lon="23.014">
        <ele>157.794168</ele>
        <time>2020-10-07T05:51:30.601Z</time>
      </trkpt>
      <trkpt lat="54.08344" lon="23.01189">
        <ele>152.765184</ele>
        <time>2020-10-07T05:51:51.242Z</time>
      </trkpt>
      <trkpt lat="54.08368" lon="23.01078">
        <ele>150.587788</ele>
        <time>2020-10-07T05:52:06.464Z</time>
      </trkpt>
      <trkpt lat="54.08376" lon="23.01068">
        <ele>150.340654</ele>
        <time>2020-10-07T05:52:08.835Z</time>
      </trkpt>
      <trkpt lat="54.08378" lon="23.0106">
        <ele>150.208517</ele>
        <time>2020-10-07T05:52:09.949Z</time>
      </trkpt>
      <trkpt lat="54.0838" lon="23.01049">
        <ele>150.048198</ele>
        <time>2020-10-07T05:52:11.427Z</time>
      </trkpt>
      <trkpt lat="54.08383" lon="23.01044">
        <ele>149.949418</ele>
        <time>2020-10-07T05:52:12.394Z</time>
      </trkpt>
      <trkpt lat="54.08391" lon="23.01007">
        <ele>149.37461</ele>
        <time>2020-10-07T05:52:17.906Z</time>
      </trkpt>
      <trkpt lat="54.08392" lon="23.00998">
        <ele>149.247621</ele>
        <time>2020-10-07T05:52:19.025Z</time>
      </trkpt>
      <trkpt lat="54.08388" lon="23.0098">
        <ele>148.9712</ele>
        <time>2020-10-07T05:52:21.780Z</time>
      </trkpt>
      <trkpt lat="54.08404" lon="23.00909">
        <ele>147.877361</ele>
        <time>2020-10-07T05:52:32.613Z</time>
      </trkpt>
      <trkpt lat="54.08439" lon="23.00752">
        <ele>146.501719</ele>
        <time>2020-10-07T05:52:57.703Z</time>
      </trkpt>
      <trkpt lat="54.08447" lon="23.00744">
        <ele>146.427422</ele>
        <time>2020-10-07T05:53:00.300Z</time>
      </trkpt>
      <trkpt lat="54.08449" lon="23.00737">
        <ele>146.389344</ele>
        <time>2020-10-07T05:53:01.545Z</time>
      </trkpt>
      <trkpt lat="54.08437" lon="23.0073">
        <ele>146.290293</ele>
        <time>2020-10-07T05:53:04.105Z</time>
      </trkpt>
      <trkpt lat="54.08433" lon="23.00727">
        <ele>146.254018</ele>
        <time>2020-10-07T05:53:05.026Z</time>
      </trkpt>
      <trkpt lat="54.08393" lon="23.00669">
        <ele>145.836606</ele>
        <time>2020-10-07T05:53:15.860Z</time>
      </trkpt>
      <trkpt lat="54.08376" lon="23.00663">
        <ele>145.701569</ele>
        <time>2020-10-07T05:53:19.312Z</time>
      </trkpt>
      <trkpt lat="54.08357" lon="23.00654">
        <ele>145.559236</ele>
        <time>2020-10-07T05:53:23.510Z</time>
      </trkpt>
      <trkpt lat="54.08344" lon="23.00651">
        <ele>145.52835</ele>
        <time>2020-10-07T05:53:26.194Z</time>
      </trkpt>
      <trkpt lat="54.08319" lon="23.00644">
        <ele>145.469192</ele>
        <time>2020-10-07T05:53:31.404Z</time>
      </trkpt>
      <trkpt lat="54.08237" lon="23.00623">
        <ele>145.272098</ele>
        <time>2020-10-07T05:53:49.211Z</time>
      </trkpt>
      <trkpt lat="54.08187" lon="23.00619">
        <ele>145.152502</ele>
        <time>2020-10-07T05:54:00.088Z</time>
      </trkpt>
      <trkpt lat="54.08078" lon="23.00632">
        <ele>145.368039</ele>
        <time>2020-10-07T05:54:24.209Z</time>
      </trkpt>
      <trkpt lat="54.07921" lon="23.0059">
        <ele>146.029723</ele>
        <time>2020-10-07T05:55:03.523Z</time>
      </trkpt>
      <trkpt lat="54.07808" lon="23.00618">
        <ele>146.596817</ele>
        <time>2020-10-07T05:55:32.357Z</time>
      </trkpt>
      <trkpt lat="54.0758" lon="23.00597">
        <ele>146.178031</ele>
        <time>2020-10-07T05:56:21.249Z</time>
      </trkpt>
      <trkpt lat="54.07564" lon="23.00592">
        <ele>146.107853</ele>
        <time>2020-10-07T05:56:24.288Z</time>
      </trkpt>
      <trkpt lat="54.07535" lon="23.00575">
        <ele>145.972727</ele>
        <time>2020-10-07T05:56:30.570Z</time>
      </trkpt>
      <trkpt lat="54.07471" lon="23.00529">
        <ele>145.680526</ele>
        <time>2020-10-07T05:56:44.825Z</time>
      </trkpt>
      <trkpt lat="54.07453" lon="23.00518">
        <ele>145.689769</ele>
        <time>2020-10-07T05:56:48.723Z</time>
      </trkpt>
      <trkpt lat="54.07445" lon="23.00515">
        <ele>145.693918</ele>
        <time>2020-10-07T05:56:50.528Z</time>
      </trkpt>
      <trkpt lat="54.07428" lon="23.00505">
        <ele>145.703176</ele>
        <time>2020-10-07T05:56:54.246Z</time>
      </trkpt>
      <trkpt lat="54.07283" lon="23.00456">
        <ele>145.799964</ele>
        <time>2020-10-07T05:57:28.816Z</time>
      </trkpt>
      <trkpt lat="54.07262" lon="23.00436">
        <ele>145.845496</ele>
        <time>2020-10-07T05:57:34.311Z</time>
      </trkpt>
      <trkpt lat="54.07242" lon="23.00382">
        <ele>145.919246</ele>
        <time>2020-10-07T05:57:43.153Z</time>
      </trkpt>
      <trkpt lat="54.0722" lon="23.00301">
        <ele>146.022369</ele>
        <time>2020-10-07T05:57:55.314Z</time>
      </trkpt>
      <trkpt lat="54.07208" lon="23.00251">
        <ele>146.083872</ele>
        <time>2020-10-07T05:58:02.493Z</time>
      </trkpt>
      <trkpt lat="54.07197" lon="23.00208">
        <ele>146.111747</ele>
        <time>2020-10-07T05:58:08.786Z</time>
      </trkpt>
      <trkpt lat="54.07157" lon="23.00099">
        <ele>146.043312</ele>
        <time>2020-10-07T05:58:25.407Z</time>
      </trkpt>
      <trkpt lat="54.07124" lon="23.00021">
        <ele>145.992251</ele>
        <time>2020-10-07T05:58:37.542Z</time>
      </trkpt>
      <trkpt lat="54.07084" lon="22.99952">
        <ele>145.944738</ele>
        <time>2020-10-07T05:58:49.910Z</time>
      </trkpt>
      <trkpt lat="54.07066" lon="22.9993">
        <ele>145.929214</ele>
        <time>2020-10-07T05:58:54.784Z</time>
      </trkpt>
      <trkpt lat="54.07044" lon="22.99904">
        <ele>145.910466</ele>
        <time>2020-10-07T05:59:00.725Z</time>
      </trkpt>
      <trkpt lat="54.07008" lon="22.99865">
        <ele>145.880817</ele>
        <time>2020-10-07T05:59:10.115Z</time>
      </trkpt>
      <trkpt lat="54.0698" lon="22.99834">
        <ele>145.857581</ele>
        <time>2020-10-07T05:59:17.472Z</time>
      </trkpt>
      <trkpt lat="54.06943" lon="22.99789">
        <ele>145.857106</ele>
        <time>2020-10-07T05:59:27.313Z</time>
      </trkpt>
      <trkpt lat="54.0691" lon="22.99717">
        <ele>146.012571</ele>
        <time>2020-10-07T05:59:39.496Z</time>
      </trkpt>
      <trkpt lat="54.06847" lon="22.99525">
        <ele>146.381315</ele>
        <time>2020-10-07T06:00:10.935Z</time>
      </trkpt>
      <trkpt lat="54.06832" lon="22.9948">
        <ele>146.446702</ele>
        <time>2020-10-07T06:00:17.791Z</time>
      </trkpt>
      <trkpt lat="54.06821" lon="22.99448">
        <ele>146.493018</ele>
        <time>2020-10-07T06:00:22.953Z</time>
      </trkpt>
      <trkpt lat="54.06815" lon="22.99429">
        <ele>146.519983</ele>
        <time>2020-10-07T06:00:25.544Z</time>
      </trkpt>
      <trkpt lat="54.06783" lon="22.99335">
        <ele>146.658056</ele>
        <time>2020-10-07T06:00:40.545Z</time>
      </trkpt>
      <trkpt lat="54.06775" lon="22.99323">
        <ele>146.680545</ele>
        <time>2020-10-07T06:00:42.962Z</time>
      </trkpt>
      <trkpt lat="54.06759" lon="22.99314">
        <ele>146.716174</ele>
        <time>2020-10-07T06:00:47.283Z</time>
      </trkpt>
      <trkpt lat="54.06751" lon="22.99313">
        <ele>146.733833</ele>
        <time>2020-10-07T06:00:49.119Z</time>
      </trkpt>
      <trkpt lat="54.06734" lon="22.99311">
        <ele>146.694495</ele>
        <time>2020-10-07T06:00:52.987Z</time>
      </trkpt>
      <trkpt lat="54.06729" lon="22.99311">
        <ele>146.67308</ele>
        <time>2020-10-07T06:00:54.178Z</time>
      </trkpt>
      <trkpt lat="54.06717" lon="22.99309">
        <ele>146.624923</ele>
        <time>2020-10-07T06:00:56.912Z</time>
      </trkpt>
      <trkpt lat="54.06649" lon="22.99283">
        <ele>146.341937</ele>
        <time>2020-10-07T06:01:11.157Z</time>
      </trkpt>
      <trkpt lat="54.06614" lon="22.99262">
        <ele>146.193142</ele>
        <time>2020-10-07T06:01:18.615Z</time>
      </trkpt>
      <trkpt lat="54.06562" lon="22.99228">
        <ele>145.906834</ele>
        <time>2020-10-07T06:01:29.865Z</time>
      </trkpt>
      <trkpt lat="54.06543" lon="22.99216">
        <ele>145.711751</ele>
        <time>2020-10-07T06:01:34.042Z</time>
      </trkpt>
      <trkpt lat="54.06487" lon="22.99191">
        <ele>145.162514</ele>
        <time>2020-10-07T06:01:45.514Z</time>
      </trkpt>
      <trkpt lat="54.06436" lon="22.99191">
        <ele>144.681855</ele>
        <time>2020-10-07T06:01:55.157Z</time>
      </trkpt>
      <trkpt lat="54.06433" lon="22.99191">
        <ele>144.660857</ele>
        <time>2020-10-07T06:01:55.488Z</time>
      </trkpt>
      <trkpt lat="54.06421" lon="22.99194">
        <ele>144.544606</ele>
        <time>2020-10-07T06:01:57.954Z</time>
      </trkpt>
      <trkpt lat="54.06387" lon="22.99212">
        <ele>144.258174</ele>
        <time>2020-10-07T06:02:04.594Z</time>
      </trkpt>
      <trkpt lat="54.06356" lon="22.99242">
        <ele>144.060527</ele>
        <time>2020-10-07T06:02:11.681Z</time>
      </trkpt>
      <trkpt lat="54.06315" lon="22.99293">
        <ele>143.782688</ele>
        <time>2020-10-07T06:02:21.897Z</time>
      </trkpt>
      <trkpt lat="54.06207" lon="22.99431">
        <ele>143.42683</ele>
        <time>2020-10-07T06:02:50.976Z</time>
      </trkpt>
      <trkpt lat="54.0617" lon="22.99478">
        <ele>143.504541</ele>
        <time>2020-10-07T06:03:01.508Z</time>
      </trkpt>
      <trkpt lat="54.061" lon="22.99568">
        <ele>143.718026</ele>
        <time>2020-10-07T06:03:22.239Z</time>
      </trkpt>
      <trkpt lat="54.0603" lon="22.99656">
        <ele>144.627457</ele>
        <time>2020-10-07T06:03:44.261Z</time>
      </trkpt>
      <trkpt lat="54.05923" lon="22.99789">
        <ele>146.44994</ele>
        <time>2020-10-07T06:04:21.614Z</time>
      </trkpt>
      <trkpt lat="54.05825" lon="22.99917">
        <ele>148.883515</ele>
        <time>2020-10-07T06:04:59.771Z</time>
      </trkpt>
      <trkpt lat="54.05728" lon="23.00045">
        <ele>151.599072</ele>
        <time>2020-10-07T06:05:38.666Z</time>
      </trkpt>
      <trkpt lat="54.05723" lon="23.00052">
        <ele>151.752702</ele>
        <time>2020-10-07T06:05:40.978Z</time>
      </trkpt>
      <trkpt lat="54.05692" lon="23.00086">
        <ele>152.56835</ele>
        <time>2020-10-07T06:05:52.329Z</time>
      </trkpt>
      <trkpt lat="54.0568" lon="23.00093">
        <ele>152.867458</ele>
        <time>2020-10-07T06:05:56.392Z</time>
      </trkpt>
      <trkpt lat="54.05655" lon="23.00069">
        <ele>153.327415</ele>
        <time>2020-10-07T06:06:04.848Z</time>
      </trkpt>
      <trkpt lat="54.05563" lon="22.99964">
        <ele>154.809722</ele>
        <time>2020-10-07T06:06:36.432Z</time>
      </trkpt>
      <trkpt lat="54.05534" lon="22.99932">
        <ele>155.258037</ele>
        <time>2020-10-07T06:06:45.461Z</time>
      </trkpt>
      <trkpt lat="54.05285" lon="22.9965">
        <ele>155.979463</ele>
        <time>2020-10-07T06:07:54.540Z</time>
      </trkpt>
      <trkpt lat="54.05033" lon="22.99368">
        <ele>155.945279</ele>
        <time>2020-10-07T06:08:58.350Z</time>
      </trkpt>
      <trkpt lat="54.04722" lon="22.99017">
        <ele>161.02744</ele>
        <time>2020-10-07T06:10:42.465Z</time>
      </trkpt>
      <trkpt lat="54.0438" lon="22.98627">
        <ele>169.491078</ele>
        <time>2020-10-07T06:12:53.967Z</time>
      </trkpt>
      <trkpt lat="54.04361" lon="22.9862">
        <ele>169.787209</ele>
        <time>2020-10-07T06:12:59.130Z</time>
      </trkpt>
      <trkpt lat="54.04329" lon="22.98608">
        <ele>170.282695</ele>
        <time>2020-10-07T06:13:06.881Z</time>
      </trkpt>
      <trkpt lat="54.04296" lon="22.98591">
        <ele>170.377856</ele>
        <time>2020-10-07T06:13:14.545Z</time>
      </trkpt>
      <trkpt lat="54.04174" lon="22.98534">
        <ele>169.153358</ele>
        <time>2020-10-07T06:13:38.714Z</time>
      </trkpt>
      <trkpt lat="54.04047" lon="22.98492">
        <ele>167.160494</ele>
        <time>2020-10-07T06:14:02.318Z</time>
      </trkpt>
      <trkpt lat="54.03864" lon="22.98443">
        <ele>163.690031</ele>
        <time>2020-10-07T06:14:34.854Z</time>
      </trkpt>
      <trkpt lat="54.03683" lon="22.98385">
        <ele>160.740392</ele>
        <time>2020-10-07T06:15:07.693Z</time>
      </trkpt>
      <trkpt lat="54.03416" lon="22.98294">
        <ele>158.41305</ele>
        <time>2020-10-07T06:16:02.729Z</time>
      </trkpt>
      <trkpt lat="54.0323" lon="22.98229">
        <ele>156.871338</ele>
        <time>2020-10-07T06:16:39.705Z</time>
      </trkpt>
      <trkpt lat="54.03158" lon="22.98204">
        <ele>156.538183</ele>
        <time>2020-10-07T06:16:54.655Z</time>
      </trkpt>
      <trkpt lat="54.03103" lon="22.98182">
        <ele>156.280987</ele>
        <time>2020-10-07T06:17:06.509Z</time>
      </trkpt>
      <trkpt lat="54.03089" lon="22.98171">
        <ele>156.209186</ele>
        <time>2020-10-07T06:17:10.027Z</time>
      </trkpt>
      <trkpt lat="54.03079" lon="22.98165">
        <ele>156.171441</ele>
        <time>2020-10-07T06:17:12.315Z</time>
      </trkpt>
      <trkpt lat="54.0301" lon="22.98096">
        <ele>156.271334</ele>
        <time>2020-10-07T06:17:30.292Z</time>
      </trkpt>
      <trkpt lat="54.02957" lon="22.98047">
        <ele>156.348017</ele>
        <time>2020-10-07T06:17:44.197Z</time>
      </trkpt>
      <trkpt lat="54.02928" lon="22.98029">
        <ele>156.386469</ele>
        <time>2020-10-07T06:17:51.430Z</time>
      </trkpt>
      <trkpt lat="54.02906" lon="22.98023">
        <ele>156.397698</ele>
        <time>2020-10-07T06:17:56.966Z</time>
      </trkpt>
      <trkpt lat="54.02887" lon="22.98018">
        <ele>156.399917</ele>
        <time>2020-10-07T06:18:01.546Z</time>
      </trkpt>
      <trkpt lat="54.02859" lon="22.98008">
        <ele>156.403195</ele>
        <time>2020-10-07T06:18:07.990Z</time>
      </trkpt>
      <trkpt lat="54.02838" lon="22.97995">
        <ele>156.405792</ele>
        <time>2020-10-07T06:18:13.085Z</time>
      </trkpt>
      <trkpt lat="54.02824" lon="22.97976">
        <ele>156.407885</ele>
        <time>2020-10-07T06:18:16.969Z</time>
      </trkpt>
      <trkpt lat="54.02791" lon="22.97935">
        <ele>156.412654</ele>
        <time>2020-10-07T06:18:25.773Z</time>
      </trkpt>
      <trkpt lat="54.02706" lon="22.97969">
        <ele>156.27812</ele>
        <time>2020-10-07T06:18:45.115Z</time>
      </trkpt>
      <trkpt lat="54.02669" lon="22.97984">
        <ele>156.177353</ele>
        <time>2020-10-07T06:18:53.522Z</time>
      </trkpt>
      <trkpt lat="54.02659" lon="22.97988">
        <ele>156.147987</ele>
        <time>2020-10-07T06:18:55.938Z</time>
      </trkpt>
      <trkpt lat="54.02558" lon="22.98027">
        <ele>155.942227</ele>
        <time>2020-10-07T06:19:18.510Z</time>
      </trkpt>
      <trkpt lat="54.02427" lon="22.98081">
        <ele>155.997961</ele>
        <time>2020-10-07T06:19:51.176Z</time>
      </trkpt>
      <trkpt lat="54.02399" lon="22.98092">
        <ele>155.98329</ele>
        <time>2020-10-07T06:19:57.769Z</time>
      </trkpt>
      <trkpt lat="54.02381" lon="22.981">
        <ele>155.922572</ele>
        <time>2020-10-07T06:20:02.005Z</time>
      </trkpt>
      <trkpt lat="54.02364" lon="22.98109">
        <ele>155.868097</ele>
        <time>2020-10-07T06:20:05.715Z</time>
      </trkpt>
      <trkpt lat="54.0236" lon="22.98112">
        <ele>155.852022</ele>
        <time>2020-10-07T06:20:06.818Z</time>
      </trkpt>
      <trkpt lat="54.02341" lon="22.98126">
        <ele>155.784351</ele>
        <time>2020-10-07T06:20:11.448Z</time>
      </trkpt>
      <trkpt lat="54.02323" lon="22.98142">
        <ele>155.71974</ele>
        <time>2020-10-07T06:20:15.842Z</time>
      </trkpt>
      <trkpt lat="54.02286" lon="22.98181">
        <ele>155.580643</ele>
        <time>2020-10-07T06:20:25.295Z</time>
      </trkpt>
      <trkpt lat="54.02264" lon="22.98203">
        <ele>155.497606</ele>
        <time>2020-10-07T06:20:30.812Z</time>
      </trkpt>
      <trkpt lat="54.02218" lon="22.98254">
        <ele>155.327195</ele>
        <time>2020-10-07T06:20:42.679Z</time>
      </trkpt>
      <trkpt lat="54.0216" lon="22.98315">
        <ele>155.125558</ele>
        <time>2020-10-07T06:20:57.108Z</time>
      </trkpt>
      <trkpt lat="54.02086" lon="22.98392">
        <ele>154.980549</ele>
        <time>2020-10-07T06:21:16.732Z</time>
      </trkpt>
      <trkpt lat="54.02032" lon="22.98449">
        <ele>155.702334</ele>
        <time>2020-10-07T06:21:33.129Z</time>
      </trkpt>
      <trkpt lat="54.02028" lon="22.98453">
        <ele>155.753709</ele>
        <time>2020-10-07T06:21:34.369Z</time>
      </trkpt>
      <trkpt lat="54.01976" lon="22.9851">
        <ele>156.460025</ele>
        <time>2020-10-07T06:21:52.473Z</time>
      </trkpt>
      <trkpt lat="54.01958" lon="22.98529">
        <ele>156.698775</ele>
        <time>2020-10-07T06:21:59.001Z</time>
      </trkpt>
      <trkpt lat="54.01913" lon="22.98582">
        <ele>157.745316</ele>
        <time>2020-10-07T06:22:15.692Z</time>
      </trkpt>
      <trkpt lat="54.01883" lon="22.98618">
        <ele>158.618033</ele>
        <time>2020-10-07T06:22:27.465Z</time>
      </trkpt>
      <trkpt lat="54.01872" lon="22.9863">
        <ele>158.912143</ele>
        <time>2020-10-07T06:22:31.711Z</time>
      </trkpt>
      <trkpt lat="54.01862" lon="22.98639">
        <ele>159.196081</ele>
        <time>2020-10-07T06:22:35.438Z</time>
      </trkpt>
      <trkpt lat="54.01852" lon="22.98646">
        <ele>159.453766</ele>
        <time>2020-10-07T06:22:38.863Z</time>
      </trkpt>
      <trkpt lat="54.01786" lon="22.98694">
        <ele>161.133891</ele>
        <time>2020-10-07T06:23:02.743Z</time>
      </trkpt>
      <trkpt lat="54.0178" lon="22.98698">
        <ele>161.320547</ele>
        <time>2020-10-07T06:23:05.161Z</time>
      </trkpt>
      <trkpt lat="54.01679" lon="22.98771">
        <ele>164.874171</ele>
        <time>2020-10-07T06:23:44.767Z</time>
      </trkpt>
      <trkpt lat="54.01662" lon="22.98783">
        <ele>165.499273</ele>
        <time>2020-10-07T06:23:51.990Z</time>
      </trkpt>
      <trkpt lat="54.0165" lon="22.98794">
        <ele>165.931833</ele>
        <time>2020-10-07T06:23:56.754Z</time>
      </trkpt>
      <trkpt lat="54.01637" lon="22.98807">
        <ele>166.433056</ele>
        <time>2020-10-07T06:24:02.887Z</time>
      </trkpt>
      <trkpt lat="54.01605" lon="22.98852">
        <ele>167.707129</ele>
        <time>2020-10-07T06:24:18.330Z</time>
      </trkpt>
      <trkpt lat="54.01495" lon="22.99055">
        <ele>172.382308</ele>
        <time>2020-10-07T06:25:15.338Z</time>
      </trkpt>
      <trkpt lat="54.01444" lon="22.99151">
        <ele>173.211078</ele>
        <time>2020-10-07T06:25:37.476Z</time>
      </trkpt>
      <trkpt lat="54.01429" lon="22.99183">
        <ele>173.477131</ele>
        <time>2020-10-07T06:25:44.161Z</time>
      </trkpt>
      <trkpt lat="54.0138" lon="22.99298">
        <ele>174.175106</ele>
        <time>2020-10-07T06:26:04.867Z</time>
      </trkpt>
      <trkpt lat="54.01351" lon="22.99412">
        <ele>173.188125</ele>
        <time>2020-10-07T06:26:20.279Z</time>
      </trkpt>
      <trkpt lat="54.01202" lon="23.0018">
        <ele>166.23819</ele>
        <time>2020-10-07T06:27:50.634Z</time>
      </trkpt>
      <trkpt lat="54.01173" lon="23.00392">
        <ele>164.720957</ele>
        <time>2020-10-07T06:28:15.592Z</time>
      </trkpt>
      <trkpt lat="54.01163" lon="23.00495">
        <ele>164.285221</ele>
        <time>2020-10-07T06:28:28.607Z</time>
      </trkpt>
      <trkpt lat="54.01159" lon="23.00548">
        <ele>164.254541</ele>
        <time>2020-10-07T06:28:35.817Z</time>
      </trkpt>
      <trkpt lat="54.01141" lon="23.00788">
        <ele>163.940072</ele>
        <time>2020-10-07T06:29:10.036Z</time>
      </trkpt>
      <trkpt lat="54.01123" lon="23.00959">
        <ele>162.966163</ele>
        <time>2020-10-07T06:29:31.509Z</time>
      </trkpt>
      <trkpt lat="54.01075" lon="23.01219">
        <ele>160.354255</ele>
        <time>2020-10-07T06:30:01.184Z</time>
      </trkpt>
      <trkpt lat="54.01055" lon="23.014">
        <ele>158.437375</ele>
        <time>2020-10-07T06:30:20.991Z</time>
      </trkpt>
      <trkpt lat="54.01002" lon="23.01755">
        <ele>156.350544</ele>
        <time>2020-10-07T06:31:04.760Z</time>
      </trkpt>
      <trkpt lat="54.00858" lon="23.02134">
        <ele>155.736791</ele>
        <time>2020-10-07T06:32:05.513Z</time>
      </trkpt>
      <trkpt lat="54.00736" lon="23.02364">
        <ele>155.875472</ele>
        <time>2020-10-07T06:32:47.612Z</time>
      </trkpt>
      <trkpt lat="54.00716" lon="23.02413">
        <ele>155.959241</ele>
        <time>2020-10-07T06:32:56.249Z</time>
      </trkpt>
      <trkpt lat="54.00699" lon="23.0249">
        <ele>156.25389</ele>
        <time>2020-10-07T06:33:08.848Z</time>
      </trkpt>
      <trkpt lat="54.00686" lon="23.02616">
        <ele>156.708829</ele>
        <time>2020-10-07T06:33:28.659Z</time>
      </trkpt>
      <trkpt lat="54.00678" lon="23.02743">
        <ele>156.987568</ele>
        <time>2020-10-07T06:33:48.027Z</time>
      </trkpt>
      <trkpt lat="54.0067" lon="23.02876">
        <ele>156.972408</ele>
        <time>2020-10-07T06:34:06.449Z</time>
      </trkpt>
      <trkpt lat="54.00663" lon="23.02975">
        <ele>156.961266</ele>
        <time>2020-10-07T06:34:19.191Z</time>
      </trkpt>
      <trkpt lat="54.00657" lon="23.03014">
        <ele>156.918798</ele>
        <time>2020-10-07T06:34:24.390Z</time>
      </trkpt>
      <trkpt lat="54.00649" lon="23.03043">
        <ele>156.842588</ele>
        <time>2020-10-07T06:34:28.338Z</time>
      </trkpt>
      <trkpt lat="54.00595" lon="23.03201">
        <ele>156.397267</ele>
        <time>2020-10-07T06:34:51.716Z</time>
      </trkpt>
      <trkpt lat="54.0058" lon="23.03274">
        <ele>156.209723</ele>
        <time>2020-10-07T06:35:01.828Z</time>
      </trkpt>
      <trkpt lat="54.00572" lon="23.03495">
        <ele>155.714538</ele>
        <time>2020-10-07T06:35:30.918Z</time>
      </trkpt>
      <trkpt lat="54.00467" lon="23.04062">
        <ele>153.653746</ele>
        <time>2020-10-07T06:36:43.921Z</time>
      </trkpt>
      <trkpt lat="54.00456" lon="23.04137">
        <ele>153.422307</ele>
        <time>2020-10-07T06:36:53.973Z</time>
      </trkpt>
      <trkpt lat="54.00434" lon="23.04396">
        <ele>153.883305</ele>
        <time>2020-10-07T06:37:31.335Z</time>
      </trkpt>
      <trkpt lat="54.00421" lon="23.04466">
        <ele>154.068986</ele>
        <time>2020-10-07T06:37:42.853Z</time>
      </trkpt>
      <trkpt lat="54.00405" lon="23.0451">
        <ele>154.380836</ele>
        <time>2020-10-07T06:37:51.122Z</time>
      </trkpt>
      <trkpt lat="54.00371" lon="23.04566">
        <ele>154.862095</ele>
        <time>2020-10-07T06:38:04.119Z</time>
      </trkpt>
      <trkpt lat="54.002" lon="23.04804">
        <ele>156.938363</ele>
        <time>2020-10-07T06:39:04.904Z</time>
      </trkpt>
      <trkpt lat="54.00181" lon="23.04838">
        <ele>157.176293</ele>
        <time>2020-10-07T06:39:11.988Z</time>
      </trkpt>
      <trkpt lat="54.00065" lon="23.05126">
        <ele>158.271465</ele>
        <time>2020-10-07T06:40:03.614Z</time>
      </trkpt>
      <trkpt lat="54.00017" lon="23.0523">
        <ele>158.31865</ele>
        <time>2020-10-07T06:40:22.907Z</time>
      </trkpt>
      <trkpt lat="53.99951" lon="23.05351">
        <ele>158.352661</ele>
        <time>2020-10-07T06:40:44.792Z</time>
      </trkpt>
      <trkpt lat="53.99936" lon="23.05393">
        <ele>158.182405</ele>
        <time>2020-10-07T06:40:51.077Z</time>
      </trkpt>
      <trkpt lat="53.99926" lon="23.05438">
        <ele>157.928309</ele>
        <time>2020-10-07T06:40:57.055Z</time>
      </trkpt>
      <trkpt lat="53.99917" lon="23.05483">
        <ele>157.679167</ele>
        <time>2020-10-07T06:41:02.919Z</time>
      </trkpt>
      <trkpt lat="53.99915" lon="23.05539">
        <ele>157.387262</ele>
        <time>2020-10-07T06:41:09.627Z</time>
      </trkpt>
      <trkpt lat="53.99961" lon="23.05955">
        <ele>154.015139</ele>
        <time>2020-10-07T06:41:58.396Z</time>
      </trkpt>
      <trkpt lat="53.99955" lon="23.06425">
        <ele>146.581009</ele>
        <time>2020-10-07T06:42:46.516Z</time>
      </trkpt>
      <trkpt lat="53.99955" lon="23.0645">
        <ele>146.201948</ele>
        <time>2020-10-07T06:42:49.032Z</time>
      </trkpt>
      <trkpt lat="53.99954" lon="23.06514">
        <ele>145.25238</ele>
        <time>2020-10-07T06:42:55.697Z</time>
      </trkpt>
      <trkpt lat="53.99952" lon="23.06554">
        <ele>144.647679</ele>
        <time>2020-10-07T06:43:00.144Z</time>
      </trkpt>
      <trkpt lat="53.9995" lon="23.0659">
        <ele>144.288459</ele>
        <time>2020-10-07T06:43:04.116Z</time>
      </trkpt>
      <trkpt lat="53.99932" lon="23.06821">
        <ele>143.126954</ele>
        <time>2020-10-07T06:43:32.242Z</time>
      </trkpt>
      <trkpt lat="53.99925" lon="23.0691">
        <ele>142.826637</ele>
        <time>2020-10-07T06:43:44.545Z</time>
      </trkpt>
      <trkpt lat="53.99923" lon="23.07021">
        <ele>142.738057</ele>
        <time>2020-10-07T06:43:59.484Z</time>
      </trkpt>
      <trkpt lat="53.99924" lon="23.07055">
        <ele>142.710467</ele>
        <time>2020-10-07T06:44:04.220Z</time>
      </trkpt>
      <trkpt lat="53.99926" lon="23.07084">
        <ele>142.687695</ele>
        <time>2020-10-07T06:44:07.918Z</time>
      </trkpt>
      <trkpt lat="53.99929" lon="23.07109">
        <ele>142.667551</ele>
        <time>2020-10-07T06:44:11.422Z</time>
      </trkpt>
      <trkpt lat="53.99953" lon="23.07296">
        <ele>142.370473</ele>
        <time>2020-10-07T06:44:37.141Z</time>
      </trkpt>
      <trkpt lat="53.99959" lon="23.07355">
        <ele>142.252518</ele>
        <time>2020-10-07T06:44:44.636Z</time>
      </trkpt>
      <trkpt lat="53.99965" lon="23.0741">
        <ele>142.142259</ele>
        <time>2020-10-07T06:44:51.706Z</time>
      </trkpt>
      <trkpt lat="53.99971" lon="23.07478">
        <ele>142.005415</ele>
        <time>2020-10-07T06:45:00.487Z</time>
      </trkpt>
      <trkpt lat="53.99976" lon="23.07561">
        <ele>141.751785</ele>
        <time>2020-10-07T06:45:11.294Z</time>
      </trkpt>
      <trkpt lat="53.99978" lon="23.07598">
        <ele>141.637835</ele>
        <time>2020-10-07T06:45:16.050Z</time>
      </trkpt>
      <trkpt lat="53.99983" lon="23.07725">
        <ele>141.252677</ele>
        <time>2020-10-07T06:45:32.000Z</time>
      </trkpt>
      <trkpt lat="53.99982" lon="23.07825">
        <ele>141.004009</ele>
        <time>2020-10-07T06:45:44.415Z</time>
      </trkpt>
      <trkpt lat="53.99979" lon="23.07925">
        <ele>140.837092</ele>
        <time>2020-10-07T06:45:57.051Z</time>
      </trkpt>
      <trkpt lat="53.99929" lon="23.07926">
        <ele>140.693567</ele>
        <time>2020-10-07T06:46:07.654Z</time>
      </trkpt>
      <trkpt lat="53.99616" lon="23.07943">
        <ele>140.729729</ele>
        <time>2020-10-07T06:47:18.527Z</time>
      </trkpt>
      <trkpt lat="53.99286" lon="23.07968">
        <ele>140.410358</ele>
        <time>2020-10-07T06:48:31.207Z</time>
      </trkpt>
      <trkpt lat="53.99264" lon="23.07975">
        <ele>140.323934</ele>
        <time>2020-10-07T06:48:35.967Z</time>
      </trkpt>
      <trkpt lat="53.99204" lon="23.07997">
        <ele>140.096272</ele>
        <time>2020-10-07T06:48:48.431Z</time>
      </trkpt>
      <trkpt lat="53.98997" lon="23.08069">
        <ele>139.254557</ele>
        <time>2020-10-07T06:49:32.195Z</time>
      </trkpt>
      <trkpt lat="53.98933" lon="23.08093">
        <ele>138.885315</ele>
        <time>2020-10-07T06:49:46.278Z</time>
      </trkpt>
      <trkpt lat="53.98791" lon="23.08147">
        <ele>137.845277</ele>
        <time>2020-10-07T06:50:15.560Z</time>
      </trkpt>
      <trkpt lat="53.98742" lon="23.08188">
        <ele>137.089164</ele>
        <time>2020-10-07T06:50:25.790Z</time>
      </trkpt>
      <trkpt lat="53.98611" lon="23.08374">
        <ele>135.032687</ele>
        <time>2020-10-07T06:50:56.732Z</time>
      </trkpt>
      <trkpt lat="53.98571" lon="23.08431">
        <ele>134.526743</ele>
        <time>2020-10-07T06:51:06.935Z</time>
      </trkpt>
      <trkpt lat="53.98525" lon="23.08497">
        <ele>133.955081</ele>
        <time>2020-10-07T06:51:19.476Z</time>
      </trkpt>
      <trkpt lat="53.98515" lon="23.08523">
        <ele>133.944334</ele>
        <time>2020-10-07T06:51:23.471Z</time>
      </trkpt>
      <trkpt lat="53.98379" lon="23.08802">
        <ele>133.721959</ele>
        <time>2020-10-07T06:52:11.434Z</time>
      </trkpt>
      <trkpt lat="53.98376" lon="23.08804">
        <ele>133.713131</ele>
        <time>2020-10-07T06:52:12.159Z</time>
      </trkpt>
      <trkpt lat="53.9837" lon="23.08802">
        <ele>133.70043</ele>
        <time>2020-10-07T06:52:13.112Z</time>
      </trkpt>
      <trkpt lat="53.98323" lon="23.08731">
        <ele>133.547225</ele>
        <time>2020-10-07T06:52:26.611Z</time>
      </trkpt>
      <trkpt lat="53.98317" lon="23.08729">
        <ele>133.53229</ele>
        <time>2020-10-07T06:52:27.759Z</time>
      </trkpt>
      <trkpt lat="53.98313" lon="23.08731">
        <ele>133.522408</ele>
        <time>2020-10-07T06:52:28.532Z</time>
      </trkpt>
      <trkpt lat="53.98279" lon="23.08788">
        <ele>133.423556</ele>
        <time>2020-10-07T06:52:38.711Z</time>
      </trkpt>
      <trkpt lat="53.98224" lon="23.08832">
        <ele>133.572941</ele>
        <time>2020-10-07T06:52:51.765Z</time>
      </trkpt>
      <trkpt lat="53.98202" lon="23.08858">
        <ele>133.637022</ele>
        <time>2020-10-07T06:52:57.781Z</time>
      </trkpt>
      <trkpt lat="53.98175" lon="23.08902">
        <ele>133.728939</ele>
        <time>2020-10-07T06:53:06.449Z</time>
      </trkpt>
      <trkpt lat="53.98156" lon="23.08929">
        <ele>133.791046</ele>
        <time>2020-10-07T06:53:12.656Z</time>
      </trkpt>
      <trkpt lat="53.9808" lon="23.09033">
        <ele>135.012111</ele>
        <time>2020-10-07T06:53:38.215Z</time>
      </trkpt>
      <trkpt lat="53.98032" lon="23.09084">
        <ele>135.933658</ele>
        <time>2020-10-07T06:53:54.402Z</time>
      </trkpt>
      <trkpt lat="53.97969" lon="23.09139">
        <ele>137.358181</ele>
        <time>2020-10-07T06:54:16.962Z</time>
      </trkpt>
      <trkpt lat="53.97915" lon="23.09229">
        <ele>139.65371</ele>
        <time>2020-10-07T06:54:43.677Z</time>
      </trkpt>
      <trkpt lat="53.97882" lon="23.09271">
        <ele>140.887081</ele>
        <time>2020-10-07T06:54:58.287Z</time>
      </trkpt>
      <trkpt lat="53.97853" lon="23.09301">
        <ele>141.916855</ele>
        <time>2020-10-07T06:55:10.395Z</time>
      </trkpt>
      <trkpt lat="53.97771" lon="23.09377">
        <ele>143.984605</ele>
        <time>2020-10-07T06:55:41.806Z</time>
      </trkpt>
      <trkpt lat="53.97715" lon="23.0941">
        <ele>145.230775</ele>
        <time>2020-10-07T06:56:00.082Z</time>
      </trkpt>
      <trkpt lat="53.97542" lon="23.09456">
        <ele>146.387161</ele>
        <time>2020-10-07T06:56:42.509Z</time>
      </trkpt>
      <trkpt lat="53.97304" lon="23.09646">
        <ele>145.655761</ele>
        <time>2020-10-07T06:57:36.106Z</time>
      </trkpt>
      <trkpt lat="53.97252" lon="23.09675">
        <ele>145.756192</ele>
        <time>2020-10-07T06:57:48.395Z</time>
      </trkpt>
      <trkpt lat="53.97207" lon="23.09675">
        <ele>145.840704</ele>
        <time>2020-10-07T06:57:59.358Z</time>
      </trkpt>
      <trkpt lat="53.97125" lon="23.09651">
        <ele>146.153644</ele>
        <time>2020-10-07T06:58:20.441Z</time>
      </trkpt>
      <trkpt lat="53.971" lon="23.09655">
        <ele>146.294757</ele>
        <time>2020-10-07T06:58:27.070Z</time>
      </trkpt>
      <trkpt lat="53.97082" lon="23.09667">
        <ele>146.397985</ele>
        <time>2020-10-07T06:58:31.925Z</time>
      </trkpt>
      <trkpt lat="53.97002" lon="23.09768">
        <ele>146.888412</ele>
        <time>2020-10-07T06:58:56.012Z</time>
      </trkpt>
      <trkpt lat="53.9697" lon="23.09794">
        <ele>146.789573</ele>
        <time>2020-10-07T06:59:03.697Z</time>
      </trkpt>
      <trkpt lat="53.96918" lon="23.09792">
        <ele>146.644051</ele>
        <time>2020-10-07T06:59:14.508Z</time>
      </trkpt>
      <trkpt lat="53.96856" lon="23.09754">
        <ele>146.460051</ele>
        <time>2020-10-07T06:59:28.013Z</time>
      </trkpt>
      <trkpt lat="53.9681" lon="23.09749">
        <ele>146.511257</ele>
        <time>2020-10-07T06:59:37.238Z</time>
      </trkpt>
      <trkpt lat="53.96613" lon="23.09783">
        <ele>147.540354</ele>
        <time>2020-10-07T07:00:26.119Z</time>
      </trkpt>
      <trkpt lat="53.96538" lon="23.09781">
        <ele>148.325961</ele>
        <time>2020-10-07T07:00:47.477Z</time>
      </trkpt>
      <trkpt lat="53.96444" lon="23.09778">
        <ele>148.701022</ele>
        <time>2020-10-07T07:01:12.005Z</time>
      </trkpt>
      <trkpt lat="53.96406" lon="23.09782">
        <ele>148.437491</ele>
        <time>2020-10-07T07:01:20.865Z</time>
      </trkpt>
      <trkpt lat="53.96242" lon="23.09859">
        <ele>146.042901</ele>
        <time>2020-10-07T07:01:51.803Z</time>
      </trkpt>
      <trkpt lat="53.96181" lon="23.09893">
        <ele>144.336095</ele>
        <time>2020-10-07T07:02:02.252Z</time>
      </trkpt>
      <trkpt lat="53.9615" lon="23.09922">
        <ele>143.415981</ele>
        <time>2020-10-07T07:02:07.931Z</time>
      </trkpt>
      <trkpt lat="53.96126" lon="23.09955">
        <ele>142.614944</ele>
        <time>2020-10-07T07:02:13.161Z</time>
      </trkpt>
      <trkpt lat="53.96106" lon="23.09986">
        <ele>141.978575</ele>
        <time>2020-10-07T07:02:17.587Z</time>
      </trkpt>
      <trkpt lat="53.96101" lon="23.09995">
        <ele>141.809914</ele>
        <time>2020-10-07T07:02:18.766Z</time>
      </trkpt>
      <trkpt lat="53.96078" lon="23.1005">
        <ele>140.865652</ele>
        <time>2020-10-07T07:02:25.518Z</time>
      </trkpt>
      <trkpt lat="53.96055" lon="23.101">
        <ele>139.989656</ele>
        <time>2020-10-07T07:02:31.913Z</time>
      </trkpt>
      <trkpt lat="53.96032" lon="23.10146">
        <ele>139.153844</ele>
        <time>2020-10-07T07:02:38.127Z</time>
      </trkpt>
      <trkpt lat="53.96025" lon="23.10158">
        <ele>138.907311</ele>
        <time>2020-10-07T07:02:39.967Z</time>
      </trkpt>
      <trkpt lat="53.96011" lon="23.10173">
        <ele>138.601191</ele>
        <time>2020-10-07T07:02:42.826Z</time>
      </trkpt>
      <trkpt lat="53.95932" lon="23.10243">
        <ele>137.448955</ele>
        <time>2020-10-07T07:03:00.515Z</time>
      </trkpt>
      <trkpt lat="53.95922" lon="23.1025">
        <ele>137.311002</ele>
        <time>2020-10-07T07:03:02.528Z</time>
      </trkpt>
      <trkpt lat="53.95911" lon="23.10256">
        <ele>137.162816</ele>
        <time>2020-10-07T07:03:04.707Z</time>
      </trkpt>
      <trkpt lat="53.95892" lon="23.10266">
        <ele>136.904273</ele>
        <time>2020-10-07T07:03:08.447Z</time>
      </trkpt>
      <trkpt lat="53.9585" lon="23.10286">
        <ele>136.348064</ele>
        <time>2020-10-07T07:03:16.400Z</time>
      </trkpt>
      <trkpt lat="53.95808" lon="23.10305">
        <ele>135.912101</ele>
        <time>2020-10-07T07:03:24.561Z</time>
      </trkpt>
      <trkpt lat="53.95795" lon="23.1031">
        <ele>135.779415</ele>
        <time>2020-10-07T07:03:27.004Z</time>
      </trkpt>
      <trkpt lat="53.95758" lon="23.10323">
        <ele>135.393686</ele>
        <time>2020-10-07T07:03:34.254Z</time>
      </trkpt>
      <trkpt lat="53.9571" lon="23.10338">
        <ele>134.898866</ele>
        <time>2020-10-07T07:03:44.247Z</time>
      </trkpt>
      <trkpt lat="53.95662" lon="23.10344">
        <ele>134.906575</ele>
        <time>2020-10-07T07:03:55.195Z</time>
      </trkpt>
      <trkpt lat="53.95648" lon="23.10339">
        <ele>135.267198</ele>
        <time>2020-10-07T07:03:58.584Z</time>
      </trkpt>
      <trkpt lat="53.95579" lon="23.10313">
        <ele>137.068212</ele>
        <time>2020-10-07T07:04:19.320Z</time>
      </trkpt>
      <trkpt lat="53.95463" lon="23.10174">
        <ele>142.064934</ele>
        <time>2020-10-07T07:05:18.557Z</time>
      </trkpt>
      <trkpt lat="53.95416" lon="23.10121">
        <ele>144.760897</ele>
        <time>2020-10-07T07:05:43.933Z</time>
      </trkpt>
      <trkpt lat="53.95386" lon="23.10085">
        <ele>146.514343</ele>
        <time>2020-10-07T07:05:59.772Z</time>
      </trkpt>
      <trkpt lat="53.9532" lon="23.10023">
        <ele>148.842634</ele>
        <time>2020-10-07T07:06:40.722Z</time>
      </trkpt>
      <trkpt lat="53.95231" lon="23.09925">
        <ele>151.199298</ele>
        <time>2020-10-07T07:07:28.574Z</time>
      </trkpt>
      <trkpt lat="53.95108" lon="23.09754">
        <ele>151.023568</ele>
        <time>2020-10-07T07:08:23.935Z</time>
      </trkpt>
      <trkpt lat="53.94908" lon="23.09475">
        <ele>149.391513</ele>
        <time>2020-10-07T07:09:52.668Z</time>
      </trkpt>
      <trkpt lat="53.94549" lon="23.09104">
        <ele>150.555857</ele>
        <time>2020-10-07T07:12:35.071Z</time>
      </trkpt>
      <trkpt lat="53.94473" lon="23.0904">
        <ele>150.929552</ele>
        <time>2020-10-07T07:13:08.152Z</time>
      </trkpt>
      <trkpt lat="53.9445" lon="23.09014">
        <ele>151.09808</ele>
        <time>2020-10-07T07:13:19.063Z</time>
      </trkpt>
      <trkpt lat="53.9444" lon="23.09003">
        <ele>151.171954</ele>
        <time>2020-10-07T07:13:23.611Z</time>
      </trkpt>
      <trkpt lat="53.94372" lon="23.08968">
        <ele>151.607624</ele>
        <time>2020-10-07T07:13:51.526Z</time>
      </trkpt>
      <trkpt lat="53.94278" lon="23.08959">
        <ele>152.090653</ele>
        <time>2020-10-07T07:14:29.076Z</time>
      </trkpt>
      <trkpt lat="53.94194" lon="23.08932">
        <ele>152.267205</ele>
        <time>2020-10-07T07:15:02.725Z</time>
      </trkpt>
      <trkpt lat="53.94134" lon="23.08931">
        <ele>152.39231</ele>
        <time>2020-10-07T07:15:25.105Z</time>
      </trkpt>
      <trkpt lat="53.94105" lon="23.08917">
        <ele>152.131136</ele>
        <time>2020-10-07T07:15:35.401Z</time>
      </trkpt>
      <trkpt lat="53.94086" lon="23.08882">
        <ele>151.744609</ele>
        <time>2020-10-07T07:15:44.861Z</time>
      </trkpt>
      <trkpt lat="53.94064" lon="23.08841">
        <ele>151.292947</ele>
        <time>2020-10-07T07:15:55.370Z</time>
      </trkpt>
      <trkpt lat="53.94021" lon="23.08738">
        <ele>150.247392</ele>
        <time>2020-10-07T07:16:19.493Z</time>
      </trkpt>
      <trkpt lat="53.94014" lon="23.08729">
        <ele>150.129541</ele>
        <time>2020-10-07T07:16:22.032Z</time>
      </trkpt>
      <trkpt lat="53.94013" lon="23.08727">
        <ele>150.102691</ele>
        <time>2020-10-07T07:16:22.323Z</time>
      </trkpt>
      <trkpt lat="53.93915" lon="23.08665">
        <ele>148.822334</ele>
        <time>2020-10-07T07:16:43.816Z</time>
      </trkpt>
      <trkpt lat="53.93876" lon="23.0863">
        <ele>148.300057</ele>
        <time>2020-10-07T07:16:52.884Z</time>
      </trkpt>
      <trkpt lat="53.93841" lon="23.08581">
        <ele>147.7547</ele>
        <time>2020-10-07T07:17:03.752Z</time>
      </trkpt>
      <trkpt lat="53.93678" lon="23.08393">
        <ele>147.75951</ele>
        <time>2020-10-07T07:17:53.172Z</time>
      </trkpt>
      <trkpt lat="53.93602" lon="23.08348">
        <ele>147.718828</ele>
        <time>2020-10-07T07:18:13.257Z</time>
      </trkpt>
      <trkpt lat="53.93502" lon="23.08308">
        <ele>147.625429</ele>
        <time>2020-10-07T07:18:38.065Z</time>
      </trkpt>
      <trkpt lat="53.93459" lon="23.08273">
        <ele>147.49939</ele>
        <time>2020-10-07T07:18:49.409Z</time>
      </trkpt>
      <trkpt lat="53.93397" lon="23.08264">
        <ele>147.338574</ele>
        <time>2020-10-07T07:19:03.784Z</time>
      </trkpt>
      <trkpt lat="53.93312" lon="23.0824">
        <ele>147.24872</ele>
        <time>2020-10-07T07:19:24.453Z</time>
      </trkpt>
      <trkpt lat="53.93276" lon="23.08199">
        <ele>147.298417</ele>
        <time>2020-10-07T07:19:35.128Z</time>
      </trkpt>
      <trkpt lat="53.93151" lon="23.08131">
        <ele>147.399945</ele>
        <time>2020-10-07T07:20:09.422Z</time>
      </trkpt>
      <trkpt lat="53.9311" lon="23.08078">
        <ele>147.375335</ele>
        <time>2020-10-07T07:20:23.080Z</time>
      </trkpt>
      <trkpt lat="53.93069" lon="23.08042">
        <ele>147.353571</ele>
        <time>2020-10-07T07:20:34.619Z</time>
      </trkpt>
      <trkpt lat="53.92949" lon="23.08">
        <ele>146.343542</ele>
        <time>2020-10-07T07:21:01.869Z</time>
      </trkpt>
      <trkpt lat="53.92801" lon="23.07973">
        <ele>144.464615</ele>
        <time>2020-10-07T07:21:31.739Z</time>
      </trkpt>
      <trkpt lat="53.92773" lon="23.07952">
        <ele>144.167075</ele>
        <time>2020-10-07T07:21:38.007Z</time>
      </trkpt>
      <trkpt lat="53.92683" lon="23.07846">
        <ele>143.115267</ele>
        <time>2020-10-07T07:22:02.584Z</time>
      </trkpt>
      <trkpt lat="53.92634" lon="23.07747">
        <ele>143.706607</ele>
        <time>2020-10-07T07:22:23.333Z</time>
      </trkpt>
      <trkpt lat="53.92604" lon="23.07706">
        <ele>144.008292</ele>
        <time>2020-10-07T07:22:34.606Z</time>
      </trkpt>
      <trkpt lat="53.92579" lon="23.07684">
        <ele>144.226041</ele>
        <time>2020-10-07T07:22:42.935Z</time>
      </trkpt>
      <trkpt lat="53.9251" lon="23.07671">
        <ele>144.802775</ele>
        <time>2020-10-07T07:23:03.907Z</time>
      </trkpt>
      <trkpt lat="53.92368" lon="23.07671">
        <ele>146.071807</ele>
        <time>2020-10-07T07:23:44.207Z</time>
      </trkpt>
      <trkpt lat="53.92266" lon="23.0767">
        <ele>145.776753</ele>
        <time>2020-10-07T07:24:09.592Z</time>
      </trkpt>
      <trkpt lat="53.92249" lon="23.07677">
        <ele>145.714995</ele>
        <time>2020-10-07T07:24:13.689Z</time>
      </trkpt>
      <trkpt lat="53.92195" lon="23.07718">
        <ele>145.505384</ele>
        <time>2020-10-07T07:24:26.693Z</time>
      </trkpt>
      <trkpt lat="53.92149" lon="23.07733">
        <ele>144.875955</ele>
        <time>2020-10-07T07:24:36.483Z</time>
      </trkpt>
      <trkpt lat="53.92016" lon="23.07758">
        <ele>142.887658</ele>
        <time>2020-10-07T07:25:03.636Z</time>
      </trkpt>
      <trkpt lat="53.91955" lon="23.07743">
        <ele>142.793825</ele>
        <time>2020-10-07T07:25:16.852Z</time>
      </trkpt>
      <trkpt lat="53.91795" lon="23.07644">
        <ele>143.098956</ele>
        <time>2020-10-07T07:26:02.736Z</time>
      </trkpt>
      <trkpt lat="53.91767" lon="23.07609">
        <ele>143.352239</ele>
        <time>2020-10-07T07:26:13.178Z</time>
      </trkpt>
      <trkpt lat="53.91721" lon="23.07534">
        <ele>143.818838</ele>
        <time>2020-10-07T07:26:31.612Z</time>
      </trkpt>
      <trkpt lat="53.91662" lon="23.07398">
        <ele>143.658215</ele>
        <time>2020-10-07T07:26:56.907Z</time>
      </trkpt>
      <trkpt lat="53.91636" lon="23.0736">
        <ele>143.439596</ele>
        <time>2020-10-07T07:27:04.598Z</time>
      </trkpt>
      <trkpt lat="53.91606" lon="23.07326">
        <ele>143.207238</ele>
        <time>2020-10-07T07:27:12.389Z</time>
      </trkpt>
      <trkpt lat="53.9148" lon="23.07211">
        <ele>141.668403</ele>
        <time>2020-10-07T07:27:41.953Z</time>
      </trkpt>
      <trkpt lat="53.91394" lon="23.07097">
        <ele>140.418378</ele>
        <time>2020-10-07T07:28:05.573Z</time>
      </trkpt>
      <trkpt lat="53.9132" lon="23.07031">
        <ele>139.819871</ele>
        <time>2020-10-07T07:28:23.787Z</time>
      </trkpt>
      <trkpt lat="53.91188" lon="23.06973">
        <ele>139.761261</ele>
        <time>2020-10-07T07:28:55.931Z</time>
      </trkpt>
      <trkpt lat="53.91077" lon="23.0695">
        <ele>140.485011</ele>
        <time>2020-10-07T07:29:28.073Z</time>
      </trkpt>
      <trkpt lat="53.90965" lon="23.06943">
        <ele>142.813032</ele>
        <time>2020-10-07T07:30:05.881Z</time>
      </trkpt>
      <trkpt lat="53.90905" lon="23.06956">
        <ele>144.074045</ele>
        <time>2020-10-07T07:30:26.938Z</time>
      </trkpt>
      <trkpt lat="53.90776" lon="23.0696">
        <ele>146.239133</ele>
        <time>2020-10-07T07:31:08.294Z</time>
      </trkpt>
      <trkpt lat="53.90753" lon="23.06958">
        <ele>146.628499</ele>
        <time>2020-10-07T07:31:15.278Z</time>
      </trkpt>
      <trkpt lat="53.90735" lon="23.06994">
        <ele>147.086812</ele>
        <time>2020-10-07T07:31:23.241Z</time>
      </trkpt>
      <trkpt lat="53.90641" lon="23.07138">
        <ele>148.431669</ele>
        <time>2020-10-07T07:31:59.316Z</time>
      </trkpt>
      <trkpt lat="53.90566" lon="23.07232">
        <ele>149.370332</ele>
        <time>2020-10-07T07:32:26.477Z</time>
      </trkpt>
      <trkpt lat="53.90497" lon="23.07361">
        <ele>150.373951</ele>
        <time>2020-10-07T07:32:56.393Z</time>
      </trkpt>
      <trkpt lat="53.90436" lon="23.07459">
        <ele>150.821995</ele>
        <time>2020-10-07T07:33:19.753Z</time>
      </trkpt>
      <trkpt lat="53.90372" lon="23.07554">
        <ele>150.851764</ele>
        <time>2020-10-07T07:33:41.374Z</time>
      </trkpt>
      <trkpt lat="53.90297" lon="23.07704">
        <ele>150.061571</ele>
        <time>2020-10-07T07:34:07.408Z</time>
      </trkpt>
      <trkpt lat="53.90292" lon="23.0772">
        <ele>149.919186</ele>
        <time>2020-10-07T07:34:09.632Z</time>
      </trkpt>
      <trkpt lat="53.90282" lon="23.07736">
        <ele>149.732535</ele>
        <time>2020-10-07T07:34:14.244Z</time>
      </trkpt>
      <trkpt lat="53.9027" lon="23.07766">
        <ele>149.447937</ele>
        <time>2020-10-07T07:34:21.180Z</time>
      </trkpt>
      <trkpt lat="53.90249" lon="23.07882">
        <ele>148.488418</ele>
        <time>2020-10-07T07:34:44.041Z</time>
      </trkpt>
      <trkpt lat="53.90222" lon="23.07962">
        <ele>147.452571</ele>
        <time>2020-10-07T07:35:01.030Z</time>
      </trkpt>
      <trkpt lat="53.90196" lon="23.08021">
        <ele>146.612975</ele>
        <time>2020-10-07T07:35:14.511Z</time>
      </trkpt>
      <trkpt lat="53.9002" lon="23.0811">
        <ele>143.805785</ele>
        <time>2020-10-07T07:36:13.549Z</time>
      </trkpt>
      <trkpt lat="53.89967" lon="23.08191">
        <ele>142.966565</ele>
        <time>2020-10-07T07:36:38.240Z</time>
      </trkpt>
      <trkpt lat="53.89947" lon="23.08208">
        <ele>142.870069</ele>
        <time>2020-10-07T07:36:46.253Z</time>
      </trkpt>
      <trkpt lat="53.89903" lon="23.08232">
        <ele>142.915622</ele>
        <time>2020-10-07T07:37:03.189Z</time>
      </trkpt>
      <trkpt lat="53.89867" lon="23.08241">
        <ele>142.951821</ele>
        <time>2020-10-07T07:37:17.128Z</time>
      </trkpt>
      <trkpt lat="53.89667" lon="23.08204">
        <ele>143.679565</ele>
        <time>2020-10-07T07:38:34.952Z</time>
      </trkpt>
      <trkpt lat="53.89634" lon="23.08219">
        <ele>143.868332</ele>
        <time>2020-10-07T07:38:48.500Z</time>
      </trkpt>
      <trkpt lat="53.89576" lon="23.08264">
        <ele>144.43266</ele>
        <time>2020-10-07T07:39:14.278Z</time>
      </trkpt>
      <trkpt lat="53.89549" lon="23.08278">
        <ele>144.753907</ele>
        <time>2020-10-07T07:39:25.681Z</time>
      </trkpt>
      <trkpt lat="53.89525" lon="23.08298">
        <ele>145.066931</ele>
        <time>2020-10-07T07:39:36.933Z</time>
      </trkpt>
      <trkpt lat="53.89487" lon="23.08332">
        <ele>145.55883</ele>
        <time>2020-10-07T07:39:55.204Z</time>
      </trkpt>
      <trkpt lat="53.89387" lon="23.08359">
        <ele>146.881088</ele>
        <time>2020-10-07T07:40:38.901Z</time>
      </trkpt>
      <trkpt lat="53.8935" lon="23.0838">
        <ele>147.435446</ele>
        <time>2020-10-07T07:40:55.666Z</time>
      </trkpt>
      <trkpt lat="53.89212" lon="23.08461">
        <ele>149.182718</ele>
        <time>2020-10-07T07:41:57.484Z</time>
      </trkpt>
      <trkpt lat="53.89166" lon="23.08471">
        <ele>149.583103</ele>
        <time>2020-10-07T07:42:16.276Z</time>
      </trkpt>
      <trkpt lat="53.88982" lon="23.08457">
        <ele>150.540554</ele>
        <time>2020-10-07T07:43:28.083Z</time>
      </trkpt>
      <trkpt lat="53.88863" lon="23.08411">
        <ele>150.734443</ele>
        <time>2020-10-07T07:44:13.466Z</time>
      </trkpt>
      <trkpt lat="53.88775" lon="23.08408">
        <ele>150.715129</ele>
        <time>2020-10-07T07:44:45.856Z</time>
      </trkpt>
      <trkpt lat="53.88714" lon="23.08396">
        <ele>150.688735</ele>
        <time>2020-10-07T07:45:08.742Z</time>
      </trkpt>
      <trkpt lat="53.88668" lon="23.08401">
        <ele>150.651554</ele>
        <time>2020-10-07T07:45:25.904Z</time>
      </trkpt>
      <trkpt lat="53.88494" lon="23.08447">
        <ele>150.165635</ele>
        <time>2020-10-07T07:46:30.181Z</time>
      </trkpt>
      <trkpt lat="53.88424" lon="23.08457">
        <ele>149.730612</ele>
        <time>2020-10-07T07:46:54.726Z</time>
      </trkpt>
      <trkpt lat="53.88277" lon="23.08449">
        <ele>148.203559</ele>
        <time>2020-10-07T07:47:43.809Z</time>
      </trkpt>
      <trkpt lat="53.88257" lon="23.08453">
        <ele>147.958961</ele>
        <time>2020-10-07T07:47:50.361Z</time>
      </trkpt>
      <trkpt lat="53.88212" lon="23.08469">
        <ele>147.391661</ele>
        <time>2020-10-07T07:48:05.647Z</time>
      </trkpt>
      <trkpt lat="53.8816" lon="23.08489">
        <ele>146.715328</ele>
        <time>2020-10-07T07:48:23.327Z</time>
      </trkpt>
      <trkpt lat="53.88092" lon="23.0849">
        <ele>145.859457</ele>
        <time>2020-10-07T07:48:45.547Z</time>
      </trkpt>
      <trkpt lat="53.88008" lon="23.08523">
        <ele>144.761674</ele>
        <time>2020-10-07T07:49:14.331Z</time>
      </trkpt>
      <trkpt lat="53.87899" lon="23.0862">
        <ele>143.192998</ele>
        <time>2020-10-07T07:49:54.978Z</time>
      </trkpt>
      <trkpt lat="53.87842" lon="23.08648">
        <ele>142.529804</ele>
        <time>2020-10-07T07:50:14.721Z</time>
      </trkpt>
      <trkpt lat="53.87824" lon="23.08672">
        <ele>142.36104</ele>
        <time>2020-10-07T07:50:22.433Z</time>
      </trkpt>
      <trkpt lat="53.87802" lon="23.08724">
        <ele>142.088993</ele>
        <time>2020-10-07T07:50:35.031Z</time>
      </trkpt>
      <trkpt lat="53.87782" lon="23.0874">
        <ele>141.928755</ele>
        <time>2020-10-07T07:50:42.595Z</time>
      </trkpt>
      <trkpt lat="53.87761" lon="23.08743">
        <ele>141.772948</ele>
        <time>2020-10-07T07:50:50.019Z</time>
      </trkpt>
      <trkpt lat="53.87701" lon="23.08712">
        <ele>141.395078</ele>
        <time>2020-10-07T07:51:12.428Z</time>
      </trkpt>
      <trkpt lat="53.87659" lon="23.08709">
        <ele>141.786472</ele>
        <time>2020-10-07T07:51:28.205Z</time>
      </trkpt>
      <trkpt lat="53.87552" lon="23.08742">
        <ele>142.809117</ele>
        <time>2020-10-07T07:52:14.384Z</time>
      </trkpt>
      <trkpt lat="53.87505" lon="23.08774">
        <ele>143.364643</ele>
        <time>2020-10-07T07:52:36.224Z</time>
      </trkpt>
      <trkpt lat="53.8748" lon="23.08789">
        <ele>143.70116</ele>
        <time>2020-10-07T07:52:47.988Z</time>
      </trkpt>
      <trkpt lat="53.87462" lon="23.08807">
        <ele>143.957071</ele>
        <time>2020-10-07T07:52:56.831Z</time>
      </trkpt>
      <trkpt lat="53.87425" lon="23.08851">
        <ele>144.531895</ele>
        <time>2020-10-07T07:53:16.324Z</time>
      </trkpt>
      <trkpt lat="53.87334" lon="23.0891">
        <ele>145.219805</ele>
        <time>2020-10-07T07:53:56.255Z</time>
      </trkpt>
      <trkpt lat="53.87174" lon="23.09064">
        <ele>144.210289</ele>
        <time>2020-10-07T07:55:00.980Z</time>
      </trkpt>
      <trkpt lat="53.87142" lon="23.09084">
        <ele>143.610117</ele>
        <time>2020-10-07T07:55:11.882Z</time>
      </trkpt>
      <trkpt lat="53.87128" lon="23.09084">
        <ele>143.358589</ele>
        <time>2020-10-07T07:55:16.458Z</time>
      </trkpt>
      <trkpt lat="53.8711" lon="23.09103">
        <ele>142.972812</ele>
        <time>2020-10-07T07:55:20.189Z</time>
      </trkpt>
      <trkpt lat="53.87033" lon="23.09163">
        <ele>141.288114</ele>
        <time>2020-10-07T07:55:34.623Z</time>
      </trkpt>
      <trkpt lat="53.86972" lon="23.0923">
        <ele>139.209357</ele>
        <time>2020-10-07T07:55:46.699Z</time>
      </trkpt>
      <trkpt lat="53.86945" lon="23.0926">
        <ele>138.26814</ele>
        <time>2020-10-07T07:55:52.086Z</time>
      </trkpt>
      <trkpt lat="53.86855" lon="23.09394">
        <ele>135.172946</ele>
        <time>2020-10-07T07:56:11.645Z</time>
      </trkpt>
      <trkpt lat="53.86847" lon="23.09407">
        <ele>134.91336</ele>
        <time>2020-10-07T07:56:13.500Z</time>
      </trkpt>
      <trkpt lat="53.86834" lon="23.09377">
        <ele>134.412924</ele>
        <time>2020-10-07T07:56:17.091Z</time>
      </trkpt>
      <trkpt lat="53.86804" lon="23.09308">
        <ele>133.250251</ele>
        <time>2020-10-07T07:56:25.941Z</time>
      </trkpt>
      <trkpt lat="53.86783" lon="23.09259">
        <ele>132.434513</ele>
        <time>2020-10-07T07:56:32.375Z</time>
      </trkpt>
      <trkpt lat="53.86764" lon="23.09213">
        <ele>132.982183</ele>
        <time>2020-10-07T07:56:39.142Z</time>
      </trkpt>
      <trkpt lat="53.86745" lon="23.09162">
        <ele>133.613426</ele>
        <time>2020-10-07T07:56:47.975Z</time>
      </trkpt>
      <trkpt lat="53.86736" lon="23.09145">
        <ele>133.845031</ele>
        <time>2020-10-07T07:56:52.325Z</time>
      </trkpt>
      <trkpt lat="53.86712" lon="23.09114">
        <ele>134.37436</ele>
        <time>2020-10-07T07:57:01.610Z</time>
      </trkpt>
      <trkpt lat="53.86679" lon="23.09092">
        <ele>135.001278</ele>
        <time>2020-10-07T07:57:13.828Z</time>
      </trkpt>
      <trkpt lat="53.86656" lon="23.09079">
        <ele>135.437477</ele>
        <time>2020-10-07T07:57:23.124Z</time>
      </trkpt>
      <trkpt lat="53.86576" lon="23.09033">
        <ele>138.017052</ele>
        <time>2020-10-07T07:57:55.914Z</time>
      </trkpt>
      <trkpt lat="53.86568" lon="23.09047">
        <ele>138.386753</ele>
        <time>2020-10-07T07:58:01.722Z</time>
      </trkpt>
      <trkpt lat="53.86564" lon="23.09045">
        <ele>138.502753</ele>
        <time>2020-10-07T07:58:03.622Z</time>
      </trkpt>
      <trkpt lat="53.86563" lon="23.09038">
        <ele>138.636048</ele>
        <time>2020-10-07T07:58:05.129Z</time>
      </trkpt>
      <trkpt lat="53.86455" lon="23.08973">
        <ele>141.529875</ele>
        <time>2020-10-07T07:58:42.600Z</time>
      </trkpt>
      <trkpt lat="53.86237" lon="23.08851">
        <ele>142.748863</ele>
        <time>2020-10-07T07:59:33.813Z</time>
      </trkpt>
      <trkpt lat="53.86155" lon="23.08804">
        <ele>143.128705</ele>
        <time>2020-10-07T07:59:54.991Z</time>
      </trkpt>
      <trkpt lat="53.86158" lon="23.08793">
        <ele>143.159679</ele>
        <time>2020-10-07T07:59:57.013Z</time>
      </trkpt>
      <trkpt lat="53.86163" lon="23.08778">
        <ele>143.222805</ele>
        <time>2020-10-07T07:59:59.977Z</time>
      </trkpt>
      <trkpt lat="53.86202" lon="23.08671">
        <ele>143.990578</ele>
        <time>2020-10-07T08:00:20.098Z</time>
      </trkpt>
      <trkpt lat="53.86289" lon="23.0846">
        <ele>144.699646</ele>
        <time>2020-10-07T08:01:00.431Z</time>
      </trkpt>
      <trkpt lat="53.86341" lon="23.08272">
        <ele>143.850634</ele>
        <time>2020-10-07T08:01:23.794Z</time>
      </trkpt>
      <trkpt lat="53.86344" lon="23.08258">
        <ele>143.775198</ele>
        <time>2020-10-07T08:01:25.239Z</time>
      </trkpt>
      <trkpt lat="53.86351" lon="23.08221">
        <ele>143.16438</ele>
        <time>2020-10-07T08:01:29.228Z</time>
      </trkpt>
      <trkpt lat="53.86375" lon="23.08095">
        <ele>141.067419</ele>
        <time>2020-10-07T08:01:42.263Z</time>
      </trkpt>
      <trkpt lat="53.86388" lon="23.07998">
        <ele>139.477693</ele>
        <time>2020-10-07T08:01:51.962Z</time>
      </trkpt>
      <trkpt lat="53.86431" lon="23.07721">
        <ele>134.970457</ele>
        <time>2020-10-07T08:02:20.355Z</time>
      </trkpt>
      <trkpt lat="53.8644" lon="23.07655">
        <ele>133.936516</ele>
        <time>2020-10-07T08:02:27.142Z</time>
      </trkpt>
      <trkpt lat="53.86453" lon="23.07579">
        <ele>132.827265</ele>
        <time>2020-10-07T08:02:35.139Z</time>
      </trkpt>
      <trkpt lat="53.86455" lon="23.07568">
        <ele>132.659883</ele>
        <time>2020-10-07T08:02:36.255Z</time>
      </trkpt>
      <trkpt lat="53.86463" lon="23.07514">
        <ele>131.875439</ele>
        <time>2020-10-07T08:02:41.926Z</time>
      </trkpt>
      <trkpt lat="53.86466" lon="23.07495">
        <ele>131.604182</ele>
        <time>2020-10-07T08:02:43.918Z</time>
      </trkpt>
      <trkpt lat="53.86469" lon="23.0748">
        <ele>131.380186</ele>
        <time>2020-10-07T08:02:45.537Z</time>
      </trkpt>
      <trkpt lat="53.86472" lon="23.07455">
        <ele>131.020631</ele>
        <time>2020-10-07T08:02:48.087Z</time>
      </trkpt>
      <trkpt lat="53.86473" lon="23.07415">
        <ele>130.452978</ele>
        <time>2020-10-07T08:02:52.222Z</time>
      </trkpt>
      <trkpt lat="53.8645" lon="23.07203">
        <ele>128.460352</ele>
        <time>2020-10-07T08:03:14.386Z</time>
      </trkpt>
      <trkpt lat="53.8642" lon="23.07062">
        <ele>127.738386</ele>
        <time>2020-10-07T08:03:31.757Z</time>
      </trkpt>
      <trkpt lat="53.86417" lon="23.07044">
        <ele>128.073074</ele>
        <time>2020-10-07T08:03:34.543Z</time>
      </trkpt>
      <trkpt lat="53.86398" lon="23.06991">
        <ele>129.207433</ele>
        <time>2020-10-07T08:03:44.965Z</time>
      </trkpt>
      <trkpt lat="53.86382" lon="23.06974">
        <ele>129.760273</ele>
        <time>2020-10-07T08:03:51.585Z</time>
      </trkpt>
      <trkpt lat="53.86369" lon="23.06973">
        <ele>130.164871</ele>
        <time>2020-10-07T08:03:55.923Z</time>
      </trkpt>
      <trkpt lat="53.86337" lon="23.06992">
        <ele>131.193256</ele>
        <time>2020-10-07T08:04:09.534Z</time>
      </trkpt>
      <trkpt lat="53.86324" lon="23.07005">
        <ele>131.651391</ele>
        <time>2020-10-07T08:04:17.373Z</time>
      </trkpt>
      <trkpt lat="53.86279" lon="23.0706">
        <ele>133.406866</ele>
        <time>2020-10-07T08:04:39.315Z</time>
      </trkpt>
      <trkpt lat="53.86275" lon="23.07064">
        <ele>133.572741</ele>
        <time>2020-10-07T08:04:41.507Z</time>
      </trkpt>
      <trkpt lat="53.8627" lon="23.07068">
        <ele>133.780954</ele>
        <time>2020-10-07T08:04:43.980Z</time>
      </trkpt>
      <trkpt lat="53.86263" lon="23.07073">
        <ele>134.06481</ele>
        <time>2020-10-07T08:04:48.553Z</time>
      </trkpt>
      <trkpt lat="53.86237" lon="23.07073">
        <ele>134.973714</ele>
        <time>2020-10-07T08:04:57.611Z</time>
      </trkpt>
      <trkpt lat="53.86198" lon="23.07052">
        <ele>136.428494</ele>
        <time>2020-10-07T08:05:13.531Z</time>
      </trkpt>
      <trkpt lat="53.86177" lon="23.07035">
        <ele>137.250033</ele>
        <time>2020-10-07T08:05:25.028Z</time>
      </trkpt>
      <trkpt lat="53.86176" lon="23.07033">
        <ele>137.308913</ele>
        <time>2020-10-07T08:05:25.776Z</time>
      </trkpt>
      <trkpt lat="53.86149" lon="23.07005">
        <ele>138.41995</ele>
        <time>2020-10-07T08:05:41.604Z</time>
      </trkpt>
      <trkpt lat="53.86113" lon="23.06952">
        <ele>139.387272</ele>
        <time>2020-10-07T08:06:03.481Z</time>
      </trkpt>
      <trkpt lat="53.86109" lon="23.06945">
        <ele>139.417742</ele>
        <time>2020-10-07T08:06:05.433Z</time>
      </trkpt>
      <trkpt lat="53.8607" lon="23.06868">
        <ele>139.739763</ele>
        <time>2020-10-07T08:06:27.088Z</time>
      </trkpt>
      <trkpt lat="53.85936" lon="23.06615">
        <ele>140.843237</ele>
        <time>2020-10-07T08:07:43.570Z</time>
      </trkpt>
      <trkpt lat="53.85837" lon="23.06415">
        <ele>141.965567</ele>
        <time>2020-10-07T08:08:47.296Z</time>
      </trkpt>
      <trkpt lat="53.85719" lon="23.0619">
        <ele>142.905914</ele>
        <time>2020-10-07T08:09:58.201Z</time>
      </trkpt>
      <trkpt lat="53.85611" lon="23.05977">
        <ele>142.424658</ele>
        <time>2020-10-07T08:10:57.665Z</time>
      </trkpt>
      <trkpt lat="53.85585" lon="23.05922">
        <ele>142.057804</ele>
        <time>2020-10-07T08:11:11.456Z</time>
      </trkpt>
      <trkpt lat="53.8549" lon="23.05651">
        <ele>140.043235</ele>
        <time>2020-10-07T08:12:13.352Z</time>
      </trkpt>
      <trkpt lat="53.85432" lon="23.05486">
        <ele>138.807408</ele>
        <time>2020-10-07T08:12:51.135Z</time>
      </trkpt>
      <trkpt lat="53.854" lon="23.05398">
        <ele>138.233692</ele>
        <time>2020-10-07T08:13:11.796Z</time>
      </trkpt>
      <trkpt lat="53.85388" lon="23.05361">
        <ele>137.991957</ele>
        <time>2020-10-07T08:13:20.556Z</time>
      </trkpt>
      <trkpt lat="53.85389" lon="23.05331">
        <ele>137.826232</ele>
        <time>2020-10-07T08:13:23.947Z</time>
      </trkpt>
      <trkpt lat="53.85372" lon="23.04705">
        <ele>135.336817</ele>
        <time>2020-10-07T08:14:39.004Z</time>
      </trkpt>
      <trkpt lat="53.8538" lon="23.04444">
        <ele>134.028358</ele>
        <time>2020-10-07T08:15:09.319Z</time>
      </trkpt>
      <trkpt lat="53.85382" lon="23.04394">
        <ele>133.771439</ele>
        <time>2020-10-07T08:15:15.028Z</time>
      </trkpt>
      <trkpt lat="53.85377" lon="23.04294">
        <ele>133.183356</ele>
        <time>2020-10-07T08:15:26.489Z</time>
      </trkpt>
      <trkpt lat="53.85357" lon="23.04128">
        <ele>132.157874</ele>
        <time>2020-10-07T08:15:45.790Z</time>
      </trkpt>
      <trkpt lat="53.85341" lon="23.04007">
        <ele>131.344349</ele>
        <time>2020-10-07T08:15:59.839Z</time>
      </trkpt>
      <trkpt lat="53.85317" lon="23.03891">
        <ele>130.478909</ele>
        <time>2020-10-07T08:16:13.541Z</time>
      </trkpt>
      <trkpt lat="53.85307" lon="23.03862">
        <ele>130.2406</ele>
        <time>2020-10-07T08:16:17.286Z</time>
      </trkpt>
      <trkpt lat="53.85269" lon="23.03748">
        <ele>129.368996</ele>
        <time>2020-10-07T08:16:31.799Z</time>
      </trkpt>
      <trkpt lat="53.85151" lon="23.03372">
        <ele>127.013276</ele>
        <time>2020-10-07T08:17:20.468Z</time>
      </trkpt>
      <trkpt lat="53.85152" lon="23.03346">
        <ele>126.893335</ele>
        <time>2020-10-07T08:17:23.544Z</time>
      </trkpt>
      <trkpt lat="53.85167" lon="23.03277">
        <ele>126.555198</ele>
        <time>2020-10-07T08:17:32.329Z</time>
      </trkpt>
      <trkpt lat="53.85176" lon="23.03108">
        <ele>126.3623</ele>
        <time>2020-10-07T08:17:53.594Z</time>
      </trkpt>
      <trkpt lat="53.85187" lon="23.03057">
        <ele>126.351532</ele>
        <time>2020-10-07T08:18:00.723Z</time>
      </trkpt>
      <trkpt lat="53.85202" lon="23.02987">
        <ele>126.336461</ele>
        <time>2020-10-07T08:18:10.892Z</time>
      </trkpt>
      <trkpt lat="53.85207" lon="23.02969">
        <ele>126.3325</ele>
        <time>2020-10-07T08:18:13.629Z</time>
      </trkpt>
      <trkpt lat="53.85247" lon="23.02854">
        <ele>126.669591</ele>
        <time>2020-10-07T08:18:32.615Z</time>
      </trkpt>
      <trkpt lat="53.85283" lon="23.02751">
        <ele>127.035932</ele>
        <time>2020-10-07T08:18:49.989Z</time>
      </trkpt>
      <trkpt lat="53.85298" lon="23.02728">
        <ele>127.142179</ele>
        <time>2020-10-07T08:18:55.066Z</time>
      </trkpt>
      <trkpt lat="53.85304" lon="23.02711">
        <ele>127.203109</ele>
        <time>2020-10-07T08:18:58.015Z</time>
      </trkpt>
      <trkpt lat="53.85312" lon="23.02685">
        <ele>127.287228</ele>
        <time>2020-10-07T08:19:02.363Z</time>
      </trkpt>
      <trkpt lat="53.85315" lon="23.02676">
        <ele>127.311209</ele>
        <time>2020-10-07T08:19:03.873Z</time>
      </trkpt>
      <trkpt lat="53.85325" lon="23.02647">
        <ele>127.388107</ele>
        <time>2020-10-07T08:19:08.706Z</time>
      </trkpt>
      <trkpt lat="53.85332" lon="23.02628">
        <ele>127.439637</ele>
        <time>2020-10-07T08:19:11.873Z</time>
      </trkpt>
      <trkpt lat="53.85335" lon="23.02619">
        <ele>127.46461</ele>
        <time>2020-10-07T08:19:13.425Z</time>
      </trkpt>
      <trkpt lat="53.85342" lon="23.02598">
        <ele>127.517928</ele>
        <time>2020-10-07T08:19:16.700Z</time>
      </trkpt>
      <trkpt lat="53.85346" lon="23.02586">
        <ele>127.550237</ele>
        <time>2020-10-07T08:19:18.663Z</time>
      </trkpt>
      <trkpt lat="53.85348" lon="23.02581">
        <ele>127.564309</ele>
        <time>2020-10-07T08:19:19.511Z</time>
      </trkpt>
      <trkpt lat="53.8535" lon="23.02573">
        <ele>127.584873</ele>
        <time>2020-10-07T08:19:20.758Z</time>
      </trkpt>
      <trkpt lat="53.85353" lon="23.02557">
        <ele>127.622848</ele>
        <time>2020-10-07T08:19:23.070Z</time>
      </trkpt>
      <trkpt lat="53.85357" lon="23.02549">
        <ele>127.646051</ele>
        <time>2020-10-07T08:19:24.486Z</time>
      </trkpt>
      <trkpt lat="53.8538" lon="23.02482">
        <ele>127.823629</ele>
        <time>2020-10-07T08:19:35.219Z</time>
      </trkpt>
      <trkpt lat="53.85386" lon="23.02459">
        <ele>127.882936</ele>
        <time>2020-10-07T08:19:38.785Z</time>
      </trkpt>
      <trkpt lat="53.85436" lon="23.02307">
        <ele>128.15767</ele>
        <time>2020-10-07T08:20:02.783Z</time>
      </trkpt>
      <trkpt lat="53.85593" lon="23.01851">
        <ele>128.708722</ele>
        <time>2020-10-07T08:21:14.623Z</time>
      </trkpt>
      <trkpt lat="53.85654" lon="23.01671">
        <ele>128.695937</ele>
        <time>2020-10-07T08:21:41.453Z</time>
      </trkpt>
      <trkpt lat="53.85683" lon="23.01583">
        <ele>128.591998</ele>
        <time>2020-10-07T08:21:54.704Z</time>
      </trkpt>
      <trkpt lat="53.85709" lon="23.01506">
        <ele>128.440182</ele>
        <time>2020-10-07T08:22:05.991Z</time>
      </trkpt>
      <trkpt lat="53.85739" lon="23.01419">
        <ele>128.266047</ele>
        <time>2020-10-07T08:22:18.371Z</time>
      </trkpt>
      <trkpt lat="53.85765" lon="23.01344">
        <ele>128.132111</ele>
        <time>2020-10-07T08:22:28.911Z</time>
      </trkpt>
      <trkpt lat="53.85771" lon="23.01311">
        <ele>128.090012</ele>
        <time>2020-10-07T08:22:33.128Z</time>
      </trkpt>
      <trkpt lat="53.8577" lon="23.01279">
        <ele>128.05013</ele>
        <time>2020-10-07T08:22:37.090Z</time>
      </trkpt>
      <trkpt lat="53.85769" lon="23.01266">
        <ele>128.033078</ele>
        <time>2020-10-07T08:22:38.667Z</time>
      </trkpt>
      <trkpt lat="53.85766" lon="23.01238">
        <ele>127.997631</ele>
        <time>2020-10-07T08:22:42.495Z</time>
      </trkpt>
      <trkpt lat="53.85764" lon="23.01221">
        <ele>127.976799</ele>
        <time>2020-10-07T08:22:44.496Z</time>
      </trkpt>
      <trkpt lat="53.85763" lon="23.01208">
        <ele>127.960269</ele>
        <time>2020-10-07T08:22:46.028Z</time>
      </trkpt>
      <trkpt lat="53.85763" lon="23.01195">
        <ele>127.944006</ele>
        <time>2020-10-07T08:22:47.732Z</time>
      </trkpt>
      <trkpt lat="53.85766" lon="23.01183">
        <ele>127.928588</ele>
        <time>2020-10-07T08:22:49.469Z</time>
      </trkpt>
      <trkpt lat="53.8577" lon="23.01171">
        <ele>127.910731</ele>
        <time>2020-10-07T08:22:51.225Z</time>
      </trkpt>
      <trkpt lat="53.85798" lon="23.01107">
        <ele>127.811215</ele>
        <time>2020-10-07T08:23:01.392Z</time>
      </trkpt>
      <trkpt lat="53.85793" lon="23.011">
        <ele>127.797405</ele>
        <time>2020-10-07T08:23:03.889Z</time>
      </trkpt>
      <trkpt lat="53.85788" lon="23.01094">
        <ele>127.825776</ele>
        <time>2020-10-07T08:23:06.292Z</time>
      </trkpt>
      <trkpt lat="53.85798" lon="23.01072">
        <ele>127.999286</ele>
        <time>2020-10-07T08:23:12.390Z</time>
      </trkpt>
      <trkpt lat="53.8583" lon="23.00997">
        <ele>128.594589</ele>
        <time>2020-10-07T08:23:34.333Z</time>
      </trkpt>
      <trkpt lat="53.85852" lon="23.00949">
        <ele>128.982727</ele>
        <time>2020-10-07T08:23:49.600Z</time>
      </trkpt>
      <trkpt lat="53.85878" lon="23.00893">
        <ele>129.441105</ele>
        <time>2020-10-07T08:24:07.804Z</time>
      </trkpt>
      <trkpt lat="53.85908" lon="23.00822">
        <ele>130.129316</ele>
        <time>2020-10-07T08:24:30.474Z</time>
      </trkpt>
      <trkpt lat="53.85952" lon="23.00723">
        <ele>131.303397</ele>
        <time>2020-10-07T08:25:02.858Z</time>
      </trkpt>
      <trkpt lat="53.8598" lon="23.00656">
        <ele>132.097727</ele>
        <time>2020-10-07T08:25:24.160Z</time>
      </trkpt>
      <trkpt lat="53.8599" lon="23.00633">
        <ele>132.368821</ele>
        <time>2020-10-07T08:25:31.610Z</time>
      </trkpt>
      <trkpt lat="53.85999" lon="23.00588">
        <ele>132.772703</ele>
        <time>2020-10-07T08:25:43.290Z</time>
      </trkpt>
      <trkpt lat="53.86003" lon="23.0056">
        <ele>132.957586</ele>
        <time>2020-10-07T08:25:50.465Z</time>
      </trkpt>
      <trkpt lat="53.86004" lon="23.00548">
        <ele>133.036986</ele>
        <time>2020-10-07T08:25:52.807Z</time>
      </trkpt>
      <trkpt lat="53.86003" lon="23.00542">
        <ele>133.078917</ele>
        <time>2020-10-07T08:25:54.050Z</time>
      </trkpt>
      <trkpt lat="53.85997" lon="23.0054">
        <ele>133.143331</ele>
        <time>2020-10-07T08:25:55.975Z</time>
      </trkpt>
      <trkpt lat="53.85998" lon="23.00533">
        <ele>133.191665</ele>
        <time>2020-10-07T08:25:57.574Z</time>
      </trkpt>
      <trkpt lat="53.86" lon="23.0052">
        <ele>133.275205</ele>
        <time>2020-10-07T08:26:00.305Z</time>
      </trkpt>
      <trkpt lat="53.86002" lon="23.00511">
        <ele>133.337579</ele>
        <time>2020-10-07T08:26:02.141Z</time>
      </trkpt>
      <trkpt lat="53.86016" lon="23.00517">
        <ele>133.50159</ele>
        <time>2020-10-07T08:26:06.916Z</time>
      </trkpt>
      <trkpt lat="53.86022" lon="23.00519">
        <ele>133.568154</ele>
        <time>2020-10-07T08:26:08.993Z</time>
      </trkpt>
      <trkpt lat="53.8603" lon="23.00521">
        <ele>133.649969</ele>
        <time>2020-10-07T08:26:11.724Z</time>
      </trkpt>
      <trkpt lat="53.8604" lon="23.00522">
        <ele>133.765784</ele>
        <time>2020-10-07T08:26:15.004Z</time>
      </trkpt>
      <trkpt lat="53.86067" lon="23.0052">
        <ele>134.067002</ele>
        <time>2020-10-07T08:26:24.211Z</time>
      </trkpt>
      <trkpt lat="53.86096" lon="23.00508">
        <ele>134.395167</ele>
        <time>2020-10-07T08:26:33.779Z</time>
      </trkpt>
      <trkpt lat="53.8614" lon="23.00468">
        <ele>135.011925</ele>
        <time>2020-10-07T08:26:49.952Z</time>
      </trkpt>
      <trkpt lat="53.86251" lon="23.00311">
        <ele>137.007902</ele>
        <time>2020-10-07T08:27:41.800Z</time>
      </trkpt>
      <trkpt lat="53.86254" lon="23.00285">
        <ele>137.115554</ele>
        <time>2020-10-07T08:27:47.159Z</time>
      </trkpt>
      <trkpt lat="53.86256" lon="23.00281">
        <ele>137.114354</ele>
        <time>2020-10-07T08:27:49.083Z</time>
      </trkpt>
      <trkpt lat="53.86201" lon="23.00165">
        <ele>137.081768</ele>
        <time>2020-10-07T08:28:16.750Z</time>
      </trkpt>
      <trkpt lat="53.86184" lon="23.00119">
        <ele>137.069795</ele>
        <time>2020-10-07T08:28:25.832Z</time>
      </trkpt>
      <trkpt lat="53.86178" lon="23.00073">
        <ele>137.059663</ele>
        <time>2020-10-07T08:28:33.294Z</time>
      </trkpt>
      <trkpt lat="53.86178" lon="23.00037">
        <ele>137.049703</ele>
        <time>2020-10-07T08:28:38.229Z</time>
      </trkpt>
      <trkpt lat="53.86145" lon="23.00005">
        <ele>136.639114</ele>
        <time>2020-10-07T08:28:47.497Z</time>
      </trkpt>
      <trkpt lat="53.8611" lon="22.99954">
        <ele>136.140226</ele>
        <time>2020-10-07T08:28:58.935Z</time>
      </trkpt>
      <trkpt lat="53.86087" lon="22.99892">
        <ele>135.678117</ele>
        <time>2020-10-07T08:29:10.464Z</time>
      </trkpt>
      <trkpt lat="53.8608" lon="22.99883">
        <ele>135.581603</ele>
        <time>2020-10-07T08:29:12.502Z</time>
      </trkpt>
      <trkpt lat="53.86073" lon="22.99881">
        <ele>135.505226</ele>
        <time>2020-10-07T08:29:14.376Z</time>
      </trkpt>
      <trkpt lat="53.86066" lon="22.99882">
        <ele>135.424993</ele>
        <time>2020-10-07T08:29:16.223Z</time>
      </trkpt>
      <trkpt lat="53.86042" lon="22.99896">
        <ele>135.153504</ele>
        <time>2020-10-07T08:29:23.059Z</time>
      </trkpt>
      <trkpt lat="53.85993" lon="22.99922">
        <ele>135.688848</ele>
        <time>2020-10-07T08:29:38.869Z</time>
      </trkpt>
      <trkpt lat="53.85985" lon="22.99924">
        <ele>135.791394</ele>
        <time>2020-10-07T08:29:42.400Z</time>
      </trkpt>
      <trkpt lat="53.85977" lon="22.99922">
        <ele>135.889728</ele>
        <time>2020-10-07T08:29:44.467Z</time>
      </trkpt>
      <trkpt lat="53.85935" lon="22.9991">
        <ele>136.404102</ele>
        <time>2020-10-07T08:29:59.092Z</time>
      </trkpt>
      <trkpt lat="53.85935" lon="22.99906">
        <ele>136.432291</ele>
        <time>2020-10-07T08:29:59.882Z</time>
      </trkpt>
      <trkpt lat="53.85928" lon="22.99901">
        <ele>136.530963</ele>
        <time>2020-10-07T08:30:02.683Z</time>
      </trkpt>
      <trkpt lat="53.85926" lon="22.99904">
        <ele>136.555577</ele>
        <time>2020-10-07T08:30:03.438Z</time>
      </trkpt>
      <trkpt lat="53.85896" lon="22.99866">
        <ele>137.019421</ele>
        <time>2020-10-07T08:30:18.305Z</time>
      </trkpt>
      <trkpt lat="53.85845" lon="22.99817">
        <ele>137.839112</ele>
        <time>2020-10-07T08:30:41.100Z</time>
      </trkpt>
      <trkpt lat="53.85793" lon="22.99731">
        <ele>138.93063</ele>
        <time>2020-10-07T08:31:06.540Z</time>
      </trkpt>
      <trkpt lat="53.85779" lon="22.99724">
        <ele>139.15466</ele>
        <time>2020-10-07T08:31:11.674Z</time>
      </trkpt>
      <trkpt lat="53.85745" lon="22.99742">
        <ele>139.689009</ele>
        <time>2020-10-07T08:31:23.780Z</time>
      </trkpt>
      <trkpt lat="53.85741" lon="22.99696">
        <ele>140.028306</ele>
        <time>2020-10-07T08:31:33.031Z</time>
      </trkpt>
      <trkpt lat="53.85728" lon="22.99667">
        <ele>140.032153</ele>
        <time>2020-10-07T08:31:40.223Z</time>
      </trkpt>
      <trkpt lat="53.8563" lon="22.99601">
        <ele>140.050807</ele>
        <time>2020-10-07T08:32:12.479Z</time>
      </trkpt>
      <trkpt lat="53.85578" lon="22.99533">
        <ele>139.785066</ele>
        <time>2020-10-07T08:32:29.407Z</time>
      </trkpt>
      <trkpt lat="53.85536" lon="22.99463">
        <ele>138.881215</ele>
        <time>2020-10-07T08:32:44.279Z</time>
      </trkpt>
      <trkpt lat="53.85518" lon="22.99432">
        <ele>138.495466</ele>
        <time>2020-10-07T08:32:50.571Z</time>
      </trkpt>
      <trkpt lat="53.85509" lon="22.99399">
        <ele>138.169416</ele>
        <time>2020-10-07T08:32:55.716Z</time>
      </trkpt>
      <trkpt lat="53.8546" lon="22.99278">
        <ele>136.953206</ele>
        <time>2020-10-07T08:33:17.193Z</time>
      </trkpt>
      <trkpt lat="53.85423" lon="22.99223">
        <ele>136.370979</ele>
        <time>2020-10-07T08:33:29.388Z</time>
      </trkpt>
      <trkpt lat="53.8542" lon="22.99169">
        <ele>135.987096</ele>
        <time>2020-10-07T08:33:37.822Z</time>
      </trkpt>
      <trkpt lat="53.85397" lon="22.99123">
        <ele>135.571551</ele>
        <time>2020-10-07T08:33:47.162Z</time>
      </trkpt>
      <trkpt lat="53.85385" lon="22.99111">
        <ele>135.404058</ele>
        <time>2020-10-07T08:33:50.877Z</time>
      </trkpt>
      <trkpt lat="53.85383" lon="22.9911">
        <ele>135.382392</ele>
        <time>2020-10-07T08:33:51.456Z</time>
      </trkpt>
      <trkpt lat="53.85384" lon="22.99107">
        <ele>135.365259</ele>
        <time>2020-10-07T08:33:51.874Z</time>
      </trkpt>
      <trkpt lat="53.85378" lon="22.99099">
        <ele>135.281631</ele>
        <time>2020-10-07T08:33:53.821Z</time>
      </trkpt>
      <trkpt lat="53.85378" lon="22.991">
        <ele>135.272336</ele>
        <time>2020-10-07T08:33:54.074Z</time>
      </trkpt>
      <trkpt lat="53.85354" lon="22.98946">
        <ele>134.236268</ele>
        <time>2020-10-07T08:34:19.534Z</time>
      </trkpt>
      <trkpt lat="53.85352" lon="22.98895">
        <ele>133.906422</ele>
        <time>2020-10-07T08:34:27.532Z</time>
      </trkpt>
      <trkpt lat="53.85353" lon="22.98879">
        <ele>133.802558</ele>
        <time>2020-10-07T08:34:29.931Z</time>
      </trkpt>
      <trkpt lat="53.85357" lon="22.98832">
        <ele>133.491021</ele>
        <time>2020-10-07T08:34:36.975Z</time>
      </trkpt>
      <trkpt lat="53.85363" lon="22.98765">
        <ele>132.918578</ele>
        <time>2020-10-07T08:34:46.708Z</time>
      </trkpt>
      <trkpt lat="53.85366" lon="22.98728">
        <ele>132.481318</ele>
        <time>2020-10-07T08:34:51.928Z</time>
      </trkpt>
      <trkpt lat="53.85371" lon="22.98663">
        <ele>131.71309</ele>
        <time>2020-10-07T08:35:01.225Z</time>
      </trkpt>
      <trkpt lat="53.85373" lon="22.98646">
        <ele>131.500705</ele>
        <time>2020-10-07T08:35:03.872Z</time>
      </trkpt>
      <trkpt lat="53.85377" lon="22.9862">
        <ele>131.182258</ele>
        <time>2020-10-07T08:35:07.788Z</time>
      </trkpt>
      <trkpt lat="53.85379" lon="22.98608">
        <ele>131.037185</ele>
        <time>2020-10-07T08:35:09.431Z</time>
      </trkpt>
      <trkpt lat="53.85389" lon="22.98447">
        <ele>129.181489</ele>
        <time>2020-10-07T08:35:32.381Z</time>
      </trkpt>
      <trkpt lat="53.85398" lon="22.98317">
        <ele>127.803579</ele>
        <time>2020-10-07T08:35:50.876Z</time>
      </trkpt>
      <trkpt lat="53.85399" lon="22.98297">
        <ele>127.583291</ele>
        <time>2020-10-07T08:35:54.003Z</time>
      </trkpt>
      <trkpt lat="53.85412" lon="22.98108">
        <ele>125.989545</ele>
        <time>2020-10-07T08:36:22.294Z</time>
      </trkpt>
      <trkpt lat="53.85415" lon="22.98103">
        <ele>125.94609</ele>
        <time>2020-10-07T08:36:23.446Z</time>
      </trkpt>
      <trkpt lat="53.85421" lon="22.98093">
        <ele>125.873579</ele>
        <time>2020-10-07T08:36:25.403Z</time>
      </trkpt>
      <trkpt lat="53.85424" lon="22.98024">
        <ele>125.508344</ele>
        <time>2020-10-07T08:36:36.025Z</time>
      </trkpt>
      <trkpt lat="53.85426" lon="22.97994">
        <ele>125.34736</ele>
        <time>2020-10-07T08:36:41.053Z</time>
      </trkpt>
      <trkpt lat="53.85423" lon="22.97978">
        <ele>125.25765</ele>
        <time>2020-10-07T08:36:43.520Z</time>
      </trkpt>
      <trkpt lat="53.85412" lon="22.97959">
        <ele>125.116548</ele>
        <time>2020-10-07T08:36:47.902Z</time>
      </trkpt>
      <trkpt lat="53.85386" lon="22.97954">
        <ele>124.879902</ele>
        <time>2020-10-07T08:36:55.012Z</time>
      </trkpt>
      <trkpt lat="53.85354" lon="22.97964">
        <ele>124.813883</ele>
        <time>2020-10-07T08:37:04.308Z</time>
      </trkpt>
      <trkpt lat="53.85332" lon="22.97988">
        <ele>124.860342</ele>
        <time>2020-10-07T08:37:12.426Z</time>
      </trkpt>
      <trkpt lat="53.85274" lon="22.98079">
        <ele>124.998457</ele>
        <time>2020-10-07T08:37:36.804Z</time>
      </trkpt>
      <trkpt lat="53.85232" lon="22.98096">
        <ele>125.075587</ele>
        <time>2020-10-07T08:37:50.207Z</time>
      </trkpt>
      <trkpt lat="53.8521" lon="22.98093">
        <ele>125.060026</ele>
        <time>2020-10-07T08:37:56.493Z</time>
      </trkpt>
      <trkpt lat="53.85188" lon="22.98083">
        <ele>124.994555</ele>
        <time>2020-10-07T08:38:03.381Z</time>
      </trkpt>
      <trkpt lat="53.85136" lon="22.98079">
        <ele>124.846528</ele>
        <time>2020-10-07T08:38:18.378Z</time>
      </trkpt>
      <trkpt lat="53.85072" lon="22.98116">
        <ele>124.655007</ele>
        <time>2020-10-07T08:38:37.053Z</time>
      </trkpt>
      <trkpt lat="53.85051" lon="22.98143">
        <ele>124.575666</ele>
        <time>2020-10-07T08:38:44.235Z</time>
      </trkpt>
      <trkpt lat="53.8496" lon="22.98358">
        <ele>123.512434</ele>
        <time>2020-10-07T08:39:26.340Z</time>
      </trkpt>
      <trkpt lat="53.84932" lon="22.9843">
        <ele>123.257762</ele>
        <time>2020-10-07T08:39:40.098Z</time>
      </trkpt>
      <trkpt lat="53.84925" lon="22.98443">
        <ele>123.22069</ele>
        <time>2020-10-07T08:39:53.181Z</time>
      </trkpt>
      <trkpt lat="53.84908" lon="22.9847">
        <ele>123.140371</ele>
        <time>2020-10-07T08:39:59.339Z</time>
      </trkpt>
      <trkpt lat="53.84893" lon="22.98492">
        <ele>123.07062</ele>
        <time>2020-10-07T08:40:04.781Z</time>
      </trkpt>
      <trkpt lat="53.84884" lon="22.98501">
        <ele>123.033129</ele>
        <time>2020-10-07T08:40:18.061Z</time>
      </trkpt>
      <trkpt lat="53.84857" lon="22.98526">
        <ele>122.925244</ele>
        <time>2020-10-07T08:40:25.005Z</time>
      </trkpt>
      <trkpt lat="53.84814" lon="22.98565">
        <ele>122.755012</ele>
        <time>2020-10-07T08:40:36.353Z</time>
      </trkpt>
      <trkpt lat="53.84805" lon="22.98571">
        <ele>122.724548</ele>
        <time>2020-10-07T08:40:38.548Z</time>
      </trkpt>
      <trkpt lat="53.84799" lon="22.9857">
        <ele>122.723421</ele>
        <time>2020-10-07T08:40:39.698Z</time>
      </trkpt>
      <trkpt lat="53.84794" lon="22.98565">
        <ele>122.722198</ele>
        <time>2020-10-07T08:40:41.233Z</time>
      </trkpt>
      <trkpt lat="53.84782" lon="22.98564">
        <ele>122.719971</ele>
        <time>2020-10-07T08:40:44.079Z</time>
      </trkpt>
      <trkpt lat="53.84777" lon="22.98568">
        <ele>122.718853</ele>
        <time>2020-10-07T08:40:45.366Z</time>
      </trkpt>
      <trkpt lat="53.84772" lon="22.98577">
        <ele>122.717392</ele>
        <time>2020-10-07T08:40:47.458Z</time>
      </trkpt>
      <trkpt lat="53.8477" lon="22.98586">
        <ele>122.716326</ele>
        <time>2020-10-07T08:40:48.889Z</time>
      </trkpt>
      <trkpt lat="53.84769" lon="22.98594">
        <ele>122.71535</ele>
        <time>2020-10-07T08:40:50.405Z</time>
      </trkpt>
      <trkpt lat="53.8477" lon="22.98595">
        <ele>122.715183</ele>
        <time>2020-10-07T08:40:50.658Z</time>
      </trkpt>
      <trkpt lat="53.84772" lon="22.98601">
        <ele>122.714457</ele>
        <time>2020-10-07T08:40:51.701Z</time>
      </trkpt>
      <trkpt lat="53.84772" lon="22.98603">
        <ele>122.714182</ele>
        <time>2020-10-07T08:40:52.121Z</time>
      </trkpt>
      <trkpt lat="53.84789" lon="22.98641">
        <ele>122.708782</ele>
        <time>2020-10-07T08:41:00.042Z</time>
      </trkpt>
      <trkpt lat="53.84813" lon="22.98703">
        <ele>122.700328</ele>
        <time>2020-10-07T08:41:12.664Z</time>
      </trkpt>
      <trkpt lat="53.84816" lon="22.98704">
        <ele>122.699811</ele>
        <time>2020-10-07T08:41:13.790Z</time>
      </trkpt>
      <trkpt lat="53.84823" lon="22.987">
        <ele>122.698424</ele>
        <time>2020-10-07T08:41:18.781Z</time>
      </trkpt>
      <trkpt lat="53.84817" lon="22.98679">
        <ele>122.695716</ele>
        <time>2020-10-07T08:41:21.774Z</time>
      </trkpt>
      <trkpt lat="53.84782" lon="22.9858">
        <ele>122.926172</ele>
        <time>2020-10-07T08:41:38.566Z</time>
      </trkpt>
      <trkpt lat="53.84756" lon="22.98508">
        <ele>123.235159</ele>
        <time>2020-10-07T08:41:50.904Z</time>
      </trkpt>
      <trkpt lat="53.84753" lon="22.98501">
        <ele>123.270032</ele>
        <time>2020-10-07T08:41:52.734Z</time>
      </trkpt>
      <trkpt lat="53.84748" lon="22.98492">
        <ele>123.313318</ele>
        <time>2020-10-07T08:41:54.464Z</time>
      </trkpt>
      <trkpt lat="53.84714" lon="22.98448">
        <ele>123.57673</ele>
        <time>2020-10-07T08:42:05.346Z</time>
      </trkpt>
      <trkpt lat="53.84681" lon="22.98404">
        <ele>123.862044</ele>
        <time>2020-10-07T08:42:16.890Z</time>
      </trkpt>
      <trkpt lat="53.84654" lon="22.98367">
        <ele>124.231677</ele>
        <time>2020-10-07T08:42:26.607Z</time>
      </trkpt>
      <trkpt lat="53.84594" lon="22.98292">
        <ele>125.017791</ele>
        <time>2020-10-07T08:42:46.727Z</time>
      </trkpt>
      <trkpt lat="53.84553" lon="22.98238">
        <ele>125.576802</ele>
        <time>2020-10-07T08:43:00.843Z</time>
      </trkpt>
      <trkpt lat="53.84532" lon="22.98211">
        <ele>125.855212</ele>
        <time>2020-10-07T08:43:08.315Z</time>
      </trkpt>
      <trkpt lat="53.84463" lon="22.98121">
        <ele>126.777062</ele>
        <time>2020-10-07T08:43:33.606Z</time>
      </trkpt>
      <trkpt lat="53.84404" lon="22.98044">
        <ele>127.574749</ele>
        <time>2020-10-07T08:43:53.585Z</time>
      </trkpt>
      <trkpt lat="53.84373" lon="22.98124">
        <ele>127.416062</ele>
        <time>2020-10-07T08:44:07.718Z</time>
      </trkpt>
      <trkpt lat="53.84295" lon="22.98028">
        <ele>127.016198</ele>
        <time>2020-10-07T08:44:28.592Z</time>
      </trkpt>
      <trkpt lat="53.84261" lon="22.97986">
        <ele>126.756489</ele>
        <time>2020-10-07T08:44:36.695Z</time>
      </trkpt>
      <trkpt lat="53.84255" lon="22.97979">
        <ele>126.661653</ele>
        <time>2020-10-07T08:44:38.059Z</time>
      </trkpt>
      <trkpt lat="53.84249" lon="22.97972">
        <ele>126.575623</ele>
        <time>2020-10-07T08:44:39.250Z</time>
      </trkpt>
      <trkpt lat="53.84166" lon="22.97881">
        <ele>125.32493</ele>
        <time>2020-10-07T08:44:58.080Z</time>
      </trkpt>
      <trkpt lat="53.8407" lon="22.97775">
        <ele>124.64366</ele>
        <time>2020-10-07T08:45:22.207Z</time>
      </trkpt>
      <trkpt lat="53.84027" lon="22.97728">
        <ele>124.672822</ele>
        <time>2020-10-07T08:45:34.402Z</time>
      </trkpt>
      <trkpt lat="53.84016" lon="22.97715">
        <ele>124.680661</ele>
        <time>2020-10-07T08:45:37.908Z</time>
      </trkpt>
      <trkpt lat="53.84023" lon="22.97693">
        <ele>124.689105</ele>
        <time>2020-10-07T08:45:41.607Z</time>
      </trkpt>
      <trkpt lat="53.84028" lon="22.97681">
        <ele>124.69396</ele>
        <time>2020-10-07T08:45:43.758Z</time>
      </trkpt>
      <trkpt lat="53.84063" lon="22.97588">
        <ele>124.889743</ele>
        <time>2020-10-07T08:46:00.666Z</time>
      </trkpt>
      <trkpt lat="53.83936" lon="22.97452">
        <ele>125.715976</ele>
        <time>2020-10-07T08:46:38.779Z</time>
      </trkpt>
      <trkpt lat="53.83934" lon="22.97449">
        <ele>125.71815</ele>
        <time>2020-10-07T08:46:39.564Z</time>
      </trkpt>
      <trkpt lat="53.83841" lon="22.97347">
        <ele>125.792267</ele>
        <time>2020-10-07T08:47:06.276Z</time>
      </trkpt>
      <trkpt lat="53.8381" lon="22.97313">
        <ele>125.817425</ele>
        <time>2020-10-07T08:47:14.341Z</time>
      </trkpt>
      <trkpt lat="53.83792" lon="22.97293">
        <ele>125.83195</ele>
        <time>2020-10-07T08:47:18.893Z</time>
      </trkpt>
      <trkpt lat="53.83783" lon="22.97283">
        <ele>125.807145</ele>
        <time>2020-10-07T08:47:21.028Z</time>
      </trkpt>
      <trkpt lat="53.83773" lon="22.97273">
        <ele>125.72742</ele>
        <time>2020-10-07T08:47:23.363Z</time>
      </trkpt>
      <trkpt lat="53.83753" lon="22.97246">
        <ele>125.551397</ele>
        <time>2020-10-07T08:47:28.764Z</time>
      </trkpt>
      <trkpt lat="53.83747" lon="22.97236">
        <ele>125.496046</ele>
        <time>2020-10-07T08:47:30.326Z</time>
      </trkpt>
      <trkpt lat="53.83745" lon="22.97223">
        <ele>125.441339</ele>
        <time>2020-10-07T08:47:31.987Z</time>
      </trkpt>
      <trkpt lat="53.83745" lon="22.97216">
        <ele>125.410933</ele>
        <time>2020-10-07T08:47:32.919Z</time>
      </trkpt>
      <trkpt lat="53.83745" lon="22.97208">
        <ele>125.380734</ele>
        <time>2020-10-07T08:47:33.867Z</time>
      </trkpt>
      <trkpt lat="53.83743" lon="22.972">
        <ele>125.347212</ele>
        <time>2020-10-07T08:47:34.863Z</time>
      </trkpt>
      <trkpt lat="53.83729" lon="22.9718">
        <ele>125.218639</ele>
        <time>2020-10-07T08:47:38.649Z</time>
      </trkpt>
      <trkpt lat="53.83724" lon="22.97179">
        <ele>125.185125</ele>
        <time>2020-10-07T08:47:39.637Z</time>
      </trkpt>
      <trkpt lat="53.83719" lon="22.9718">
        <ele>125.1536</ele>
        <time>2020-10-07T08:47:40.601Z</time>
      </trkpt>
      <trkpt lat="53.83715" lon="22.97183">
        <ele>125.122517</ele>
        <time>2020-10-07T08:47:41.558Z</time>
      </trkpt>
      <trkpt lat="53.83706" lon="22.9718">
        <ele>125.063112</ele>
        <time>2020-10-07T08:47:43.364Z</time>
      </trkpt>
      <trkpt lat="53.837" lon="22.97176">
        <ele>125.017977</ele>
        <time>2020-10-07T08:47:44.598Z</time>
      </trkpt>
      <trkpt lat="53.83696" lon="22.97172">
        <ele>124.986722</ele>
        <time>2020-10-07T08:47:45.522Z</time>
      </trkpt>
      <trkpt lat="53.8369" lon="22.97175">
        <ele>124.939836</ele>
        <time>2020-10-07T08:47:46.960Z</time>
      </trkpt>
      <trkpt lat="53.83685" lon="22.9718">
        <ele>124.900043</ele>
        <time>2020-10-07T08:47:48.217Z</time>
      </trkpt>
      <trkpt lat="53.83677" lon="22.97199">
        <ele>124.811302</ele>
        <time>2020-10-07T08:47:50.971Z</time>
      </trkpt>
      <trkpt lat="53.83673" lon="22.97206">
        <ele>124.770629</ele>
        <time>2020-10-07T08:47:52.110Z</time>
      </trkpt>
      <trkpt lat="53.83667" lon="22.97213">
        <ele>124.716077</ele>
        <time>2020-10-07T08:47:53.770Z</time>
      </trkpt>
      <trkpt lat="53.83592" lon="22.97251">
        <ele>123.944885</ele>
        <time>2020-10-07T08:48:09.454Z</time>
      </trkpt>
      <trkpt lat="53.83499" lon="22.97297">
        <ele>122.917999</ele>
        <time>2020-10-07T08:48:28.663Z</time>
      </trkpt>
      <trkpt lat="53.83369" lon="22.97357">
        <ele>121.650137</ele>
        <time>2020-10-07T08:48:55.855Z</time>
      </trkpt>
      <trkpt lat="53.83263" lon="22.97384">
        <ele>120.948517</ele>
        <time>2020-10-07T08:49:18.271Z</time>
      </trkpt>
      <trkpt lat="53.83242" lon="22.97381">
        <ele>120.903698</ele>
        <time>2020-10-07T08:49:22.674Z</time>
      </trkpt>
      <trkpt lat="53.83211" lon="22.97362">
        <ele>120.830315</ele>
        <time>2020-10-07T08:49:30.100Z</time>
      </trkpt>
      <trkpt lat="53.83143" lon="22.97304">
        <ele>120.661262</ele>
        <time>2020-10-07T08:49:48.091Z</time>
      </trkpt>
      <trkpt lat="53.83128" lon="22.9729">
        <ele>120.660366</ele>
        <time>2020-10-07T08:49:52.095Z</time>
      </trkpt>
      <trkpt lat="53.83051" lon="22.97223">
        <ele>120.845385</ele>
        <time>2020-10-07T08:50:12.243Z</time>
      </trkpt>
      <trkpt lat="53.82964" lon="22.97145">
        <ele>121.060201</ele>
        <time>2020-10-07T08:50:35.093Z</time>
      </trkpt>
      <trkpt lat="53.82875" lon="22.97073">
        <ele>121.30591</ele>
        <time>2020-10-07T08:50:57.471Z</time>
      </trkpt>
      <trkpt lat="53.82869" lon="22.97068">
        <ele>121.321747</ele>
        <time>2020-10-07T08:50:58.927Z</time>
      </trkpt>
      <trkpt lat="53.82846" lon="22.97049">
        <ele>121.386538</ele>
        <time>2020-10-07T08:51:05.204Z</time>
      </trkpt>
      <trkpt lat="53.82818" lon="22.97025">
        <ele>121.46578</ele>
        <time>2020-10-07T08:51:12.792Z</time>
      </trkpt>
      <trkpt lat="53.8276" lon="22.96976">
        <ele>121.731422</ele>
        <time>2020-10-07T08:51:28.157Z</time>
      </trkpt>
      <trkpt lat="53.82717" lon="22.96948">
        <ele>121.924</ele>
        <time>2020-10-07T08:51:46.131Z</time>
      </trkpt>
      <trkpt lat="53.82682" lon="22.96913">
        <ele>122.095362</ele>
        <time>2020-10-07T08:52:02.142Z</time>
      </trkpt>
      <trkpt lat="53.82663" lon="22.96901">
        <ele>122.178961</ele>
        <time>2020-10-07T08:52:09.923Z</time>
      </trkpt>
      <trkpt lat="53.82635" lon="22.96881">
        <ele>122.264304</ele>
        <time>2020-10-07T08:52:21.738Z</time>
      </trkpt>
      <trkpt lat="53.82609" lon="22.96876">
        <ele>122.313994</ele>
        <time>2020-10-07T08:52:31.645Z</time>
      </trkpt>
      <trkpt lat="53.82575" lon="22.96874">
        <ele>122.379909</ele>
        <time>2020-10-07T08:52:44.609Z</time>
      </trkpt>
      <trkpt lat="53.82519" lon="22.96911">
        <ele>122.495922</ele>
        <time>2020-10-07T08:53:07.010Z</time>
      </trkpt>
      <trkpt lat="53.8249" lon="22.96921">
        <ele>122.553304</ele>
        <time>2020-10-07T08:53:18.183Z</time>
      </trkpt>
      <trkpt lat="53.82454" lon="22.96908">
        <ele>122.598894</ele>
        <time>2020-10-07T08:53:31.845Z</time>
      </trkpt>
      <trkpt lat="53.82354" lon="22.96815">
        <ele>122.709061</ele>
        <time>2020-10-07T08:54:14.788Z</time>
      </trkpt>
      <trkpt lat="53.82288" lon="22.96812">
        <ele>122.751803</ele>
        <time>2020-10-07T08:54:39.740Z</time>
      </trkpt>
      <trkpt lat="53.8226" lon="22.96811">
        <ele>122.755717</ele>
        <time>2020-10-07T08:54:49.822Z</time>
      </trkpt>
      <trkpt lat="53.82253" lon="22.96811">
        <ele>122.756706</ele>
        <time>2020-10-07T08:54:52.471Z</time>
      </trkpt>
      <trkpt lat="53.82215" lon="22.96808">
        <ele>122.762147</ele>
        <time>2020-10-07T08:55:06.519Z</time>
      </trkpt>
      <trkpt lat="53.82199" lon="22.96806">
        <ele>122.764459</ele>
        <time>2020-10-07T08:55:12.458Z</time>
      </trkpt>
      <trkpt lat="53.82168" lon="22.96795">
        <ele>122.769096</ele>
        <time>2020-10-07T08:55:24.407Z</time>
      </trkpt>
      <trkpt lat="53.82125" lon="22.96783">
        <ele>122.762787</ele>
        <time>2020-10-07T08:55:40.359Z</time>
      </trkpt>
      <trkpt lat="53.81925" lon="22.96721">
        <ele>122.612586</ele>
        <time>2020-10-07T08:56:54.803Z</time>
      </trkpt>
      <trkpt lat="53.81857" lon="22.96702">
        <ele>122.687031</ele>
        <time>2020-10-07T08:57:20.442Z</time>
      </trkpt>
      <trkpt lat="53.81634" lon="22.96636">
        <ele>122.997582</ele>
        <time>2020-10-07T08:58:46.740Z</time>
      </trkpt>
      <trkpt lat="53.81606" lon="22.96634">
        <ele>123.040328</ele>
        <time>2020-10-07T08:58:57.143Z</time>
      </trkpt>
      <trkpt lat="53.8158" lon="22.96652">
        <ele>123.006267</ele>
        <time>2020-10-07T08:59:07.226Z</time>
      </trkpt>
      <trkpt lat="53.8151" lon="22.96783">
        <ele>122.840864</ele>
        <time>2020-10-07T08:59:45.258Z</time>
      </trkpt>
      <trkpt lat="53.81478" lon="22.96797">
        <ele>122.789962</ele>
        <time>2020-10-07T08:59:56.970Z</time>
      </trkpt>
      <trkpt lat="53.81461" lon="22.96797">
        <ele>122.763021</ele>
        <time>2020-10-07T09:00:03.190Z</time>
      </trkpt>
      <trkpt lat="53.81433" lon="22.96782">
        <ele>122.919542</ele>
        <time>2020-10-07T09:00:14.224Z</time>
      </trkpt>
      <trkpt lat="53.81385" lon="22.96731">
        <ele>123.226967</ele>
        <time>2020-10-07T09:00:35.497Z</time>
      </trkpt>
      <trkpt lat="53.81361" lon="22.96715">
        <ele>123.367056</ele>
        <time>2020-10-07T09:00:45.387Z</time>
      </trkpt>
      <trkpt lat="53.81184" lon="22.96682">
        <ele>125.683974</ele>
        <time>2020-10-07T09:02:01.130Z</time>
      </trkpt>
      <trkpt lat="53.81122" lon="22.96712">
        <ele>126.818344</ele>
        <time>2020-10-07T09:02:31.621Z</time>
      </trkpt>
      <trkpt lat="53.81068" lon="22.96671">
        <ele>127.335345</ele>
        <time>2020-10-07T09:02:58.872Z</time>
      </trkpt>
      <trkpt lat="53.80999" lon="22.96629">
        <ele>127.897563</ele>
        <time>2020-10-07T09:03:29.991Z</time>
      </trkpt>
      <trkpt lat="53.80792" lon="22.96692">
        <ele>125.670982</ele>
        <time>2020-10-07T09:04:08.781Z</time>
      </trkpt>
      <trkpt lat="53.80737" lon="22.96708">
        <ele>124.510168</ele>
        <time>2020-10-07T09:04:18.004Z</time>
      </trkpt>
      <trkpt lat="53.80633" lon="22.96739">
        <ele>122.012333</ele>
        <time>2020-10-07T09:04:35.717Z</time>
      </trkpt>
      <trkpt lat="53.80603" lon="22.9675">
        <ele>121.281859</ele>
        <time>2020-10-07T09:04:41.058Z</time>
      </trkpt>
      <trkpt lat="53.8058" lon="22.96761">
        <ele>120.985868</ele>
        <time>2020-10-07T09:04:45.431Z</time>
      </trkpt>
      <trkpt lat="53.80558" lon="22.96772">
        <ele>120.920795</ele>
        <time>2020-10-07T09:04:49.598Z</time>
      </trkpt>
      <trkpt lat="53.8053" lon="22.96788">
        <ele>120.836855</ele>
        <time>2020-10-07T09:04:55.190Z</time>
      </trkpt>
      <trkpt lat="53.80523" lon="22.96793">
        <ele>120.813678</ele>
        <time>2020-10-07T09:04:56.790Z</time>
      </trkpt>
      <trkpt lat="53.80491" lon="22.96812">
        <ele>120.718195</ele>
        <time>2020-10-07T09:05:03.913Z</time>
      </trkpt>
      <trkpt lat="53.80457" lon="22.96832">
        <ele>120.614779</ele>
        <time>2020-10-07T09:05:12.447Z</time>
      </trkpt>
      <trkpt lat="53.80424" lon="22.96852">
        <ele>120.514012</ele>
        <time>2020-10-07T09:05:21.793Z</time>
      </trkpt>
      <trkpt lat="53.80412" lon="22.9686">
        <ele>120.748702</ele>
        <time>2020-10-07T09:05:25.585Z</time>
      </trkpt>
      <trkpt lat="53.80389" lon="22.96874">
        <ele>121.271313</ele>
        <time>2020-10-07T09:05:32.191Z</time>
      </trkpt>
      <trkpt lat="53.80371" lon="22.96884">
        <ele>121.68309</ele>
        <time>2020-10-07T09:05:38.017Z</time>
      </trkpt>
      <trkpt lat="53.80289" lon="22.96936">
        <ele>123.55499</ele>
        <time>2020-10-07T09:06:05.096Z</time>
      </trkpt>
      <trkpt lat="53.80284" lon="22.96939">
        <ele>123.667018</ele>
        <time>2020-10-07T09:06:06.918Z</time>
      </trkpt>
      <trkpt lat="53.80282" lon="22.96941">
        <ele>123.726942</ele>
        <time>2020-10-07T09:06:08.008Z</time>
      </trkpt>
      <trkpt lat="53.80276" lon="22.96913">
        <ele>124.098918</ele>
        <time>2020-10-07T09:06:13.975Z</time>
      </trkpt>
      <trkpt lat="53.80268" lon="22.96913">
        <ele>124.279522</ele>
        <time>2020-10-07T09:06:16.844Z</time>
      </trkpt>
      <trkpt lat="53.80262" lon="22.9692">
        <ele>124.449321</ele>
        <time>2020-10-07T09:06:19.350Z</time>
      </trkpt>
      <trkpt lat="53.8026" lon="22.96917">
        <ele>124.525507</ele>
        <time>2020-10-07T09:06:20.483Z</time>
      </trkpt>
      <trkpt lat="53.80257" lon="22.96915">
        <ele>124.618027</ele>
        <time>2020-10-07T09:06:21.705Z</time>
      </trkpt>
      <trkpt lat="53.80214" lon="22.96908">
        <ele>125.79915</ele>
        <time>2020-10-07T09:06:36.334Z</time>
      </trkpt>
      <trkpt lat="53.80168" lon="22.96905">
        <ele>127.081658</ele>
        <time>2020-10-07T09:06:51.816Z</time>
      </trkpt>
      <trkpt lat="53.80148" lon="22.96902">
        <ele>127.638129</ele>
        <time>2020-10-07T09:06:58.623Z</time>
      </trkpt>
      <trkpt lat="53.80105" lon="22.96896">
        <ele>128.834514</ele>
        <time>2020-10-07T09:07:12.522Z</time>
      </trkpt>
      <trkpt lat="53.80002" lon="22.96884">
        <ele>131.106906</ele>
        <time>2020-10-07T09:07:46.147Z</time>
      </trkpt>
      <trkpt lat="53.79956" lon="22.96879">
        <ele>132.041325</ele>
        <time>2020-10-07T09:07:59.512Z</time>
      </trkpt>
      <trkpt lat="53.79813" lon="22.96863">
        <ele>134.13983</ele>
        <time>2020-10-07T09:08:39.368Z</time>
      </trkpt>
      <trkpt lat="53.79776" lon="22.96863">
        <ele>134.570657</ele>
        <time>2020-10-07T09:08:49.565Z</time>
      </trkpt>
      <trkpt lat="53.79691" lon="22.96877">
        <ele>135.227354</ele>
        <time>2020-10-07T09:09:11.345Z</time>
      </trkpt>
      <trkpt lat="53.79433" lon="22.96956">
        <ele>135.245482</ele>
        <time>2020-10-07T09:10:10.685Z</time>
      </trkpt>
      <trkpt lat="53.79382" lon="22.96964">
        <ele>135.089904</ele>
        <time>2020-10-07T09:10:20.763Z</time>
      </trkpt>
      <trkpt lat="53.79298" lon="22.96957">
        <ele>133.671295</ele>
        <time>2020-10-07T09:10:36.352Z</time>
      </trkpt>
      <trkpt lat="53.7929" lon="22.96956">
        <ele>133.530352</ele>
        <time>2020-10-07T09:10:37.666Z</time>
      </trkpt>
      <trkpt lat="53.79183" lon="22.96937">
        <ele>131.48513</ele>
        <time>2020-10-07T09:10:56.309Z</time>
      </trkpt>
      <trkpt lat="53.79071" lon="22.96916">
        <ele>129.047162</ele>
        <time>2020-10-07T09:11:15.506Z</time>
      </trkpt>
      <trkpt lat="53.79028" lon="22.96915">
        <ele>128.123386</ele>
        <time>2020-10-07T09:11:23.038Z</time>
      </trkpt>
      <trkpt lat="53.78831" lon="22.96983">
        <ele>125.362045</ele>
        <time>2020-10-07T09:12:00.675Z</time>
      </trkpt>
      <trkpt lat="53.78746" lon="22.96998">
        <ele>124.976389</ele>
        <time>2020-10-07T09:12:17.594Z</time>
      </trkpt>
      <trkpt lat="53.78537" lon="22.96987">
        <ele>125.573972</ele>
        <time>2020-10-07T09:13:04.768Z</time>
      </trkpt>
      <trkpt lat="53.78307" lon="22.96954">
        <ele>129.902967</ele>
        <time>2020-10-07T09:14:16.421Z</time>
      </trkpt>
      <trkpt lat="53.78212" lon="22.96961">
        <ele>131.822774</ele>
        <time>2020-10-07T09:14:47.560Z</time>
      </trkpt>
      <trkpt lat="53.78072" lon="22.97014">
        <ele>133.891048</ele>
        <time>2020-10-07T09:15:28.302Z</time>
      </trkpt>
      <trkpt lat="53.77861" lon="22.971">
        <ele>134.526186</ele>
        <time>2020-10-07T09:16:16.797Z</time>
      </trkpt>
      <trkpt lat="53.77816" lon="22.97116">
        <ele>134.539879</ele>
        <time>2020-10-07T09:16:27.230Z</time>
      </trkpt>
      <trkpt lat="53.77764" lon="22.97129">
        <ele>134.511014</ele>
        <time>2020-10-07T09:16:38.857Z</time>
      </trkpt>
      <trkpt lat="53.777" lon="22.97138">
        <ele>134.109374</ele>
        <time>2020-10-07T09:16:53.001Z</time>
      </trkpt>
      <trkpt lat="53.776" lon="22.97136">
        <ele>133.49227</ele>
        <time>2020-10-07T09:17:13.006Z</time>
      </trkpt>
      <trkpt lat="53.77507" lon="22.97117">
        <ele>131.633944</ele>
        <time>2020-10-07T09:17:29.735Z</time>
      </trkpt>
      <trkpt lat="53.77454" lon="22.97098">
        <ele>130.492737</ele>
        <time>2020-10-07T09:17:38.815Z</time>
      </trkpt>
      <trkpt lat="53.77421" lon="22.97071">
        <ele>129.703154</ele>
        <time>2020-10-07T09:17:45.075Z</time>
      </trkpt>
      <trkpt lat="53.77354" lon="22.97003">
        <ele>128.069132</ele>
        <time>2020-10-07T09:17:58.256Z</time>
      </trkpt>
      <trkpt lat="53.7734" lon="22.97002">
        <ele>127.77636</ele>
        <time>2020-10-07T09:18:00.647Z</time>
      </trkpt>
      <trkpt lat="53.77172" lon="22.96836">
        <ele>124.866384</ele>
        <time>2020-10-07T09:18:35.847Z</time>
      </trkpt>
      <trkpt lat="53.7712" lon="22.96788">
        <ele>124.30225</ele>
        <time>2020-10-07T09:18:47.721Z</time>
      </trkpt>
      <trkpt lat="53.77017" lon="22.96697">
        <ele>125.305714</ele>
        <time>2020-10-07T09:19:18.421Z</time>
      </trkpt>
      <trkpt lat="53.7688" lon="22.96579">
        <ele>126.675351</ele>
        <time>2020-10-07T09:20:03.054Z</time>
      </trkpt>
      <trkpt lat="53.76836" lon="22.96542">
        <ele>126.958677</ele>
        <time>2020-10-07T09:20:14.966Z</time>
      </trkpt>
      <trkpt lat="53.76817" lon="22.9653">
        <ele>127.0735</ele>
        <time>2020-10-07T09:20:19.536Z</time>
      </trkpt>
      <trkpt lat="53.76793" lon="22.96518">
        <ele>127.210629</ele>
        <time>2020-10-07T09:20:24.533Z</time>
      </trkpt>
      <trkpt lat="53.76762" lon="22.96513">
        <ele>127.308465</ele>
        <time>2020-10-07T09:20:30.661Z</time>
      </trkpt>
      <trkpt lat="53.76705" lon="22.96528">
        <ele>127.37441</ele>
        <time>2020-10-07T09:20:41.261Z</time>
      </trkpt>
      <trkpt lat="53.75931" lon="22.96862">
        <ele>129.689508</ele>
        <time>2020-10-07T09:23:47.153Z</time>
      </trkpt>
      <trkpt lat="53.75796" lon="22.96919">
        <ele>133.875245</ele>
        <time>2020-10-07T09:24:40.785Z</time>
      </trkpt>
      <trkpt lat="53.75772" lon="22.96928">
        <ele>134.709655</ele>
        <time>2020-10-07T09:24:50.671Z</time>
      </trkpt>
      <trkpt lat="53.75593" lon="22.97006">
        <ele>138.739167</ele>
        <time>2020-10-07T09:25:49.557Z</time>
      </trkpt>
      <trkpt lat="53.75098" lon="22.97229">
        <ele>138.208805</ele>
        <time>2020-10-07T09:27:38.757Z</time>
      </trkpt>
      <trkpt lat="53.7507" lon="22.97237">
        <ele>138.090351</ele>
        <time>2020-10-07T09:27:44.497Z</time>
      </trkpt>
      <trkpt lat="53.75025" lon="22.97233">
        <ele>137.85209</ele>
        <time>2020-10-07T09:27:53.539Z</time>
      </trkpt>
      <trkpt lat="53.74975" lon="22.97195">
        <ele>137.3332</ele>
        <time>2020-10-07T09:28:04.497Z</time>
      </trkpt>
      <trkpt lat="53.74394" lon="22.96561">
        <ele>129.688689</ele>
        <time>2020-10-07T09:30:18.597Z</time>
      </trkpt>
      <trkpt lat="53.74264" lon="22.96436">
        <ele>125.066217</ele>
        <time>2020-10-07T09:30:42.210Z</time>
      </trkpt>
      <trkpt lat="53.7426" lon="22.96435">
        <ele>124.94609</ele>
        <time>2020-10-07T09:30:42.837Z</time>
      </trkpt>
      <trkpt lat="53.74252" lon="22.96432">
        <ele>124.742409</ele>
        <time>2020-10-07T09:30:44.154Z</time>
      </trkpt>
      <trkpt lat="53.7424" lon="22.96425">
        <ele>124.414763</ele>
        <time>2020-10-07T09:30:46.253Z</time>
      </trkpt>
      <trkpt lat="53.74228" lon="22.96434">
        <ele>124.085094</ele>
        <time>2020-10-07T09:30:48.269Z</time>
      </trkpt>
      <trkpt lat="53.74052" lon="22.96607">
        <ele>119.955614</ele>
        <time>2020-10-07T09:31:24.108Z</time>
      </trkpt>
      <trkpt lat="53.74028" lon="22.96631">
        <ele>119.692808</ele>
        <time>2020-10-07T09:31:29.876Z</time>
      </trkpt>
      <trkpt lat="53.73649" lon="22.97003">
        <ele>118.093088</ele>
        <time>2020-10-07T09:33:03.755Z</time>
      </trkpt>
      <trkpt lat="53.73548" lon="22.97104">
        <ele>117.815506</ele>
        <time>2020-10-07T09:33:28.928Z</time>
      </trkpt>
      <trkpt lat="53.73428" lon="22.97223">
        <ele>117.470979</ele>
        <time>2020-10-07T09:33:58.789Z</time>
      </trkpt>
      <trkpt lat="53.73244" lon="22.97404">
        <ele>116.883528</ele>
        <time>2020-10-07T09:34:44.061Z</time>
      </trkpt>
      <trkpt lat="53.72973" lon="22.9767">
        <ele>115.86518</ele>
        <time>2020-10-07T09:35:50.114Z</time>
      </trkpt>
      <trkpt lat="53.72833" lon="22.97809">
        <ele>115.431638</ele>
        <time>2020-10-07T09:36:24.106Z</time>
      </trkpt>
      <trkpt lat="53.72194" lon="22.98437">
        <ele>115.881406</ele>
        <time>2020-10-07T09:39:11.535Z</time>
      </trkpt>
      <trkpt lat="53.72166" lon="22.98459">
        <ele>115.902233</ele>
        <time>2020-10-07T09:39:18.471Z</time>
      </trkpt>
      <trkpt lat="53.7215" lon="22.98463">
        <ele>115.913399</ele>
        <time>2020-10-07T09:39:22.186Z</time>
      </trkpt>
      <trkpt lat="53.72128" lon="22.98461">
        <ele>115.928337</ele>
        <time>2020-10-07T09:39:27.136Z</time>
      </trkpt>
      <trkpt lat="53.71962" lon="22.98419">
        <ele>115.859228</ele>
        <time>2020-10-07T09:40:04.252Z</time>
      </trkpt>
      <trkpt lat="53.715" lon="22.98304">
        <ele>115.31943</ele>
        <time>2020-10-07T09:41:45.514Z</time>
      </trkpt>
      <trkpt lat="53.7145" lon="22.98292">
        <ele>115.35535</ele>
        <time>2020-10-07T09:41:56.836Z</time>
      </trkpt>
      <trkpt lat="53.71162" lon="22.9822">
        <ele>115.661233</ele>
        <time>2020-10-07T09:43:03.488Z</time>
      </trkpt>
      <trkpt lat="53.71094" lon="22.98202">
        <ele>115.695437</ele>
        <time>2020-10-07T09:43:18.779Z</time>
      </trkpt>
      <trkpt lat="53.70871" lon="22.98146">
        <ele>116.143064</ele>
        <time>2020-10-07T09:44:09.571Z</time>
      </trkpt>
      <trkpt lat="53.70514" lon="22.98053">
        <ele>120.146798</ele>
        <time>2020-10-07T09:45:44.030Z</time>
      </trkpt>
      <trkpt lat="53.70354" lon="22.98013">
        <ele>123.775301</ele>
        <time>2020-10-07T09:46:40.207Z</time>
      </trkpt>
      <trkpt lat="53.7032" lon="22.98005">
        <ele>124.634088</ele>
        <time>2020-10-07T09:46:51.726Z</time>
      </trkpt>
      <trkpt lat="53.69936" lon="22.97907">
        <ele>127.472206</ele>
        <time>2020-10-07T09:48:26.994Z</time>
      </trkpt>
      <trkpt lat="53.69893" lon="22.97896">
        <ele>127.376749</ele>
        <time>2020-10-07T09:48:37.404Z</time>
      </trkpt>
      <trkpt lat="53.69877" lon="22.97893">
        <ele>127.341321</ele>
        <time>2020-10-07T09:48:41.311Z</time>
      </trkpt>
      <trkpt lat="53.6899" lon="22.97665">
        <ele>125.134272</ele>
        <time>2020-10-07T09:51:51.635Z</time>
      </trkpt>
      <trkpt lat="53.68789" lon="22.97615">
        <ele>123.370814</ele>
        <time>2020-10-07T09:52:33.489Z</time>
      </trkpt>
      <trkpt lat="53.68502" lon="22.97543">
        <ele>117.517263</ele>
        <time>2020-10-07T09:53:22.958Z</time>
      </trkpt>
      <trkpt lat="53.68483" lon="22.97539">
        <ele>117.370618</ele>
        <time>2020-10-07T09:53:26.391Z</time>
      </trkpt>
      <trkpt lat="53.6839" lon="22.97514">
        <ele>116.650584</ele>
        <time>2020-10-07T09:53:44.671Z</time>
      </trkpt>
      <trkpt lat="53.68161" lon="22.97456">
        <ele>117.46517</ele>
        <time>2020-10-07T09:54:42.533Z</time>
      </trkpt>
      <trkpt lat="53.68007" lon="22.97416">
        <ele>118.96129</ele>
        <time>2020-10-07T09:55:23.002Z</time>
      </trkpt>
      <trkpt lat="53.67937" lon="22.97396">
        <ele>120.406795</ele>
        <time>2020-10-07T09:55:42.217Z</time>
      </trkpt>
      <trkpt lat="53.67849" lon="22.97374">
        <ele>122.638611</ele>
        <time>2020-10-07T09:56:10.647Z</time>
      </trkpt>
      <trkpt lat="53.67619" lon="22.97318">
        <ele>131.584291</ele>
        <time>2020-10-07T09:57:41.665Z</time>
      </trkpt>
      <trkpt lat="53.67396" lon="22.97259">
        <ele>139.230645</ele>
        <time>2020-10-07T09:59:06.677Z</time>
      </trkpt>
      <trkpt lat="53.67241" lon="22.97219">
        <ele>141.557794</ele>
        <time>2020-10-07T09:59:49.025Z</time>
      </trkpt>
      <trkpt lat="53.66878" lon="22.97124">
        <ele>138.858605</ele>
        <time>2020-10-07T10:01:02.571Z</time>
      </trkpt>
      <trkpt lat="53.66637" lon="22.97059">
        <ele>132.577656</ele>
        <time>2020-10-07T10:01:43.123Z</time>
      </trkpt>
      <trkpt lat="53.66581" lon="22.97048">
        <ele>130.967648</ele>
        <time>2020-10-07T10:01:52.375Z</time>
      </trkpt>
      <trkpt lat="53.66413" lon="22.97003">
        <ele>127.166259</ele>
        <time>2020-10-07T10:02:21.440Z</time>
      </trkpt>
      <trkpt lat="53.65899" lon="22.96871">
        <ele>121.974785</ele>
        <time>2020-10-07T10:04:02.127Z</time>
      </trkpt>
      <trkpt lat="53.65638" lon="22.96804">
        <ele>121.202384</ele>
        <time>2020-10-07T10:05:00.934Z</time>
      </trkpt>
      <trkpt lat="53.65341" lon="22.96729">
        <ele>118.279057</ele>
        <time>2020-10-07T10:05:58.111Z</time>
      </trkpt>
      <trkpt lat="53.64919" lon="22.9662">
        <ele>113.317325</ele>
        <time>2020-10-07T10:07:19.172Z</time>
      </trkpt>
      <trkpt lat="53.64889" lon="22.96611">
        <ele>112.980351</ele>
        <time>2020-10-07T10:07:24.866Z</time>
      </trkpt>
      <trkpt lat="53.64875" lon="22.96605">
        <ele>112.81154</ele>
        <time>2020-10-07T10:07:27.633Z</time>
      </trkpt>
      <trkpt lat="53.64784" lon="22.9656">
        <ele>111.797452</ele>
        <time>2020-10-07T10:07:45.717Z</time>
      </trkpt>
      <trkpt lat="53.64766" lon="22.96553">
        <ele>111.703526</ele>
        <time>2020-10-07T10:07:49.410Z</time>
      </trkpt>
      <trkpt lat="53.64745" lon="22.96544">
        <ele>111.599373</ele>
        <time>2020-10-07T10:07:53.657Z</time>
      </trkpt>
      <trkpt lat="53.64726" lon="22.96534">
        <ele>111.49885</ele>
        <time>2020-10-07T10:07:57.783Z</time>
      </trkpt>
      <trkpt lat="53.64717" lon="22.9653">
        <ele>111.449416</ele>
        <time>2020-10-07T10:07:59.899Z</time>
      </trkpt>
      <trkpt lat="53.6457" lon="22.96457">
        <ele>110.810904</ele>
        <time>2020-10-07T10:08:32.160Z</time>
      </trkpt>
      <trkpt lat="53.64511" lon="22.96427">
        <ele>110.655446</ele>
        <time>2020-10-07T10:08:45.783Z</time>
      </trkpt>
      <trkpt lat="53.64264" lon="22.9631">
        <ele>109.972493</ele>
        <time>2020-10-07T10:09:40.133Z</time>
      </trkpt>
      <trkpt lat="53.63892" lon="22.96134">
        <ele>109.732427</ele>
        <time>2020-10-07T10:11:05.523Z</time>
      </trkpt>
      <trkpt lat="53.63776" lon="22.96074">
        <ele>109.529327</ele>
        <time>2020-10-07T10:11:31.240Z</time>
      </trkpt>
      <trkpt lat="53.63608" lon="22.95987">
        <ele>109.366106</ele>
        <time>2020-10-07T10:12:09.667Z</time>
      </trkpt>
      <trkpt lat="53.62054" lon="22.95159">
        <ele>110.605704</ele>
        <time>2020-10-07T10:18:17.674Z</time>
      </trkpt>
      <trkpt lat="53.62027" lon="22.95149">
        <ele>110.631183</ele>
        <time>2020-10-07T10:18:24.031Z</time>
      </trkpt>
      <trkpt lat="53.61916" lon="22.95151">
        <ele>110.75445</ele>
        <time>2020-10-07T10:18:49.628Z</time>
      </trkpt>
      <trkpt lat="53.61905" lon="22.95145">
        <ele>110.766757</ele>
        <time>2020-10-07T10:18:52.142Z</time>
      </trkpt>
      <trkpt lat="53.61895" lon="22.95136">
        <ele>110.778964</ele>
        <time>2020-10-07T10:18:54.619Z</time>
      </trkpt>
      <trkpt lat="53.61882" lon="22.95105">
        <ele>110.804167</ele>
        <time>2020-10-07T10:18:59.853Z</time>
      </trkpt>
      <trkpt lat="53.61829" lon="22.94915">
        <ele>110.899092</ele>
        <time>2020-10-07T10:19:27.547Z</time>
      </trkpt>
      <trkpt lat="53.61773" lon="22.94693">
        <ele>111.052368</ele>
        <time>2020-10-07T10:19:59.938Z</time>
      </trkpt>
      <trkpt lat="53.61625" lon="22.94221">
        <ele>111.597113</ele>
        <time>2020-10-07T10:21:13.130Z</time>
      </trkpt>
      <trkpt lat="53.616" lon="22.94154">
        <ele>111.67829</ele>
        <time>2020-10-07T10:21:24.127Z</time>
      </trkpt>
      <trkpt lat="53.61402" lon="22.93711">
        <ele>111.859323</ele>
        <time>2020-10-07T10:22:39.106Z</time>
      </trkpt>
      <trkpt lat="53.61382" lon="22.93681">
        <ele>111.729393</ele>
        <time>2020-10-07T10:22:44.732Z</time>
      </trkpt>
      <trkpt lat="53.61368" lon="22.93664">
        <ele>111.645637</ele>
        <time>2020-10-07T10:22:48.272Z</time>
      </trkpt>
      <trkpt lat="53.61213" lon="22.93499">
        <ele>110.734163</ele>
        <time>2020-10-07T10:23:24.593Z</time>
      </trkpt>
      <trkpt lat="53.6104" lon="22.93317">
        <ele>110.153527</ele>
        <time>2020-10-07T10:24:08.162Z</time>
      </trkpt>
      <trkpt lat="53.61021" lon="22.93288">
        <ele>110.123036</ele>
        <time>2020-10-07T10:24:14.180Z</time>
      </trkpt>
      <trkpt lat="53.60999" lon="22.9324">
        <ele>110.08208</ele>
        <time>2020-10-07T10:24:22.129Z</time>
      </trkpt>
      <trkpt lat="53.60997" lon="22.93228">
        <ele>110.076771</ele>
        <time>2020-10-07T10:24:23.833Z</time>
      </trkpt>
      <trkpt lat="53.60998" lon="22.93203">
        <ele>110.065861</ele>
        <time>2020-10-07T10:24:27.342Z</time>
      </trkpt>
      <trkpt lat="53.61" lon="22.93164">
        <ele>110.049134</ele>
        <time>2020-10-07T10:24:32.341Z</time>
      </trkpt>
      <trkpt lat="53.60997" lon="22.93123">
        <ele>110.03128</ele>
        <time>2020-10-07T10:24:37.701Z</time>
      </trkpt>
      <trkpt lat="53.60983" lon="22.93067">
        <ele>110.00458</ele>
        <time>2020-10-07T10:24:45.847Z</time>
      </trkpt>
      <trkpt lat="53.60983" lon="22.93056">
        <ele>110.000175</ele>
        <time>2020-10-07T10:24:47.219Z</time>
      </trkpt>
      <trkpt lat="53.60988" lon="22.93042">
        <ele>109.992959</ele>
        <time>2020-10-07T10:24:51.048Z</time>
      </trkpt>
      <trkpt lat="53.6099" lon="22.93034">
        <ele>109.989271</ele>
        <time>2020-10-07T10:24:52.195Z</time>
      </trkpt>
      <trkpt lat="53.6099" lon="22.93026">
        <ele>109.985633</ele>
        <time>2020-10-07T10:24:53.274Z</time>
      </trkpt>
      <trkpt lat="53.60986" lon="22.93013">
        <ele>109.979594</ele>
        <time>2020-10-07T10:24:54.947Z</time>
      </trkpt>
      <trkpt lat="53.60744" lon="22.9278">
        <ele>109.231493</ele>
        <time>2020-10-07T10:25:53.883Z</time>
      </trkpt>
      <trkpt lat="53.6068" lon="22.9273">
        <ele>109.039064</ele>
        <time>2020-10-07T10:26:09.039Z</time>
      </trkpt>
      <trkpt lat="53.60597" lon="22.92687">
        <ele>108.833668</ele>
        <time>2020-10-07T10:26:27.826Z</time>
      </trkpt>
      <trkpt lat="53.60562" lon="22.92659">
        <ele>108.761508</ele>
        <time>2020-10-07T10:26:36.043Z</time>
      </trkpt>
      <trkpt lat="53.60531" lon="22.92617">
        <ele>108.685312</ele>
        <time>2020-10-07T10:26:44.674Z</time>
      </trkpt>
      <trkpt lat="53.6038" lon="22.92315">
        <ele>108.219961</ele>
        <time>2020-10-07T10:27:35.010Z</time>
      </trkpt>
      <trkpt lat="53.60337" lon="22.92243">
        <ele>108.182744</ele>
        <time>2020-10-07T10:27:48.288Z</time>
      </trkpt>
      <trkpt lat="53.60037" lon="22.91887">
        <ele>108.165182</ele>
        <time>2020-10-07T10:29:10.364Z</time>
      </trkpt>
      <trkpt lat="53.6001" lon="22.91862">
        <ele>108.155491</ele>
        <time>2020-10-07T10:29:17.216Z</time>
      </trkpt>
      <trkpt lat="53.59985" lon="22.9185">
        <ele>108.147457</ele>
        <time>2020-10-07T10:29:22.922Z</time>
      </trkpt>
      <trkpt lat="53.59941" lon="22.91849">
        <ele>108.133905</ele>
        <time>2020-10-07T10:29:32.565Z</time>
      </trkpt>
      <trkpt lat="53.59895" lon="22.91867">
        <ele>108.178055</ele>
        <time>2020-10-07T10:29:42.976Z</time>
      </trkpt>
      <trkpt lat="53.59869" lon="22.91885">
        <ele>108.230728</ele>
        <time>2020-10-07T10:29:49.241Z</time>
      </trkpt>
      <trkpt lat="53.5985" lon="22.91909">
        <ele>108.275252</ele>
        <time>2020-10-07T10:29:54.644Z</time>
      </trkpt>
      <trkpt lat="53.59762" lon="22.92053">
        <ele>108.583958</ele>
        <time>2020-10-07T10:30:23.460Z</time>
      </trkpt>
      <trkpt lat="53.59734" lon="22.92087">
        <ele>108.775454</ele>
        <time>2020-10-07T10:30:32.055Z</time>
      </trkpt>
      <trkpt lat="53.59651" lon="22.92154">
        <ele>109.283097</ele>
        <time>2020-10-07T10:30:54.965Z</time>
      </trkpt>
      <trkpt lat="53.59588" lon="22.92202">
        <ele>109.597422</ele>
        <time>2020-10-07T10:31:12.069Z</time>
      </trkpt>
      <trkpt lat="53.59424" lon="22.92328">
        <ele>110.031259</ele>
        <time>2020-10-07T10:31:54.164Z</time>
      </trkpt>
      <trkpt lat="53.59387" lon="22.92359">
        <ele>109.920845</ele>
        <time>2020-10-07T10:32:03.352Z</time>
      </trkpt>
      <trkpt lat="53.59342" lon="22.92395">
        <ele>109.790946</ele>
        <time>2020-10-07T10:32:14.721Z</time>
      </trkpt>
      <trkpt lat="53.59329" lon="22.92403">
        <ele>109.755693</ele>
        <time>2020-10-07T10:32:17.754Z</time>
      </trkpt>
      <trkpt lat="53.59247" lon="22.92435">
        <ele>109.375879</ele>
        <time>2020-10-07T10:32:37.030Z</time>
      </trkpt>
      <trkpt lat="53.59238" lon="22.92443">
        <ele>109.316329</ele>
        <time>2020-10-07T10:32:39.189Z</time>
      </trkpt>
      <trkpt lat="53.59235" lon="22.92452">
        <ele>109.281</ele>
        <time>2020-10-07T10:32:40.458Z</time>
      </trkpt>
      <trkpt lat="53.59272" lon="22.92571">
        <ele>108.808987</ele>
        <time>2020-10-07T10:32:58.419Z</time>
      </trkpt>
      <trkpt lat="53.59281" lon="22.92599">
        <ele>108.695053</ele>
        <time>2020-10-07T10:33:02.881Z</time>
      </trkpt>
      <trkpt lat="53.5929" lon="22.92626">
        <ele>108.590199</ele>
        <time>2020-10-07T10:33:07.078Z</time>
      </trkpt>
      <trkpt lat="53.59309" lon="22.92684">
        <ele>108.563468</ele>
        <time>2020-10-07T10:33:16.217Z</time>
      </trkpt>
      <trkpt lat="53.5937" lon="22.92865">
        <ele>108.478275</ele>
        <time>2020-10-07T10:33:47.049Z</time>
      </trkpt>
      <trkpt lat="53.59372" lon="22.92884">
        <ele>108.470321</ele>
        <time>2020-10-07T10:33:50.031Z</time>
      </trkpt>
      <trkpt lat="53.59364" lon="22.929">
        <ele>108.469675</ele>
        <time>2020-10-07T10:33:53.157Z</time>
      </trkpt>
      <trkpt lat="53.59256" lon="22.92945">
        <ele>108.516984</ele>
        <time>2020-10-07T10:34:21.229Z</time>
      </trkpt>
      <trkpt lat="53.59202" lon="22.92959">
        <ele>108.540246</ele>
        <time>2020-10-07T10:34:34.727Z</time>
      </trkpt>
      <trkpt lat="53.59107" lon="22.92955">
        <ele>108.341976</ele>
        <time>2020-10-07T10:34:57.538Z</time>
      </trkpt>
      <trkpt lat="53.59008" lon="22.92978">
        <ele>108.110482</ele>
        <time>2020-10-07T10:35:21.118Z</time>
      </trkpt>
      <trkpt lat="53.58822" lon="22.93061">
        <ele>107.613602</ele>
        <time>2020-10-07T10:36:06.841Z</time>
      </trkpt>
      <trkpt lat="53.58763" lon="22.93065">
        <ele>107.463642</ele>
        <time>2020-10-07T10:36:21.088Z</time>
      </trkpt>
      <trkpt lat="53.58621" lon="22.93042">
        <ele>107.120712</ele>
        <time>2020-10-07T10:36:54.849Z</time>
      </trkpt>
      <trkpt lat="53.58597" lon="22.93031">
        <ele>107.067628</ele>
        <time>2020-10-07T10:37:00.686Z</time>
      </trkpt>
      <trkpt lat="53.58577" lon="22.93012">
        <ele>107.017134</ele>
        <time>2020-10-07T10:37:06.282Z</time>
      </trkpt>
      <trkpt lat="53.58539" lon="22.92948">
        <ele>106.90272</ele>
        <time>2020-10-07T10:37:19.178Z</time>
      </trkpt>
      <trkpt lat="53.5852" lon="22.92927">
        <ele>106.85558</ele>
        <time>2020-10-07T10:37:24.544Z</time>
      </trkpt>
      <trkpt lat="53.58486" lon="22.9291">
        <ele>106.868878</ele>
        <time>2020-10-07T10:37:33.501Z</time>
      </trkpt>
      <trkpt lat="53.58458" lon="22.9291">
        <ele>106.91967</ele>
        <time>2020-10-07T10:37:40.456Z</time>
      </trkpt>
      <trkpt lat="53.58316" lon="22.92977">
        <ele>107.188478</ele>
        <time>2020-10-07T10:38:18.436Z</time>
      </trkpt>
      <trkpt lat="53.58292" lon="22.92974">
        <ele>107.230222</ele>
        <time>2020-10-07T10:38:24.547Z</time>
      </trkpt>
      <trkpt lat="53.58239" lon="22.92934">
        <ele>107.334342</ele>
        <time>2020-10-07T10:38:39.632Z</time>
      </trkpt>
      <trkpt lat="53.582" lon="22.9292">
        <ele>107.404448</ele>
        <time>2020-10-07T10:38:49.669Z</time>
      </trkpt>
      <trkpt lat="53.58183" lon="22.9292">
        <ele>107.43451</ele>
        <time>2020-10-07T10:38:53.965Z</time>
      </trkpt>
      <trkpt lat="53.58169" lon="22.92924">
        <ele>107.460839</ele>
        <time>2020-10-07T10:38:57.669Z</time>
      </trkpt>
      <trkpt lat="53.57798" lon="22.9304">
        <ele>107.387981</ele>
        <time>2020-10-07T10:40:30.387Z</time>
      </trkpt>
      <trkpt lat="53.57762" lon="22.93042">
        <ele>107.342474</ele>
        <time>2020-10-07T10:40:39.273Z</time>
      </trkpt>
      <trkpt lat="53.57741" lon="22.93034">
        <ele>107.315818</ele>
        <time>2020-10-07T10:40:44.471Z</time>
      </trkpt>
      <trkpt lat="53.57724" lon="22.93018">
        <ele>107.290943</ele>
        <time>2020-10-07T10:40:49.302Z</time>
      </trkpt>
      <trkpt lat="53.57684" lon="22.92963">
        <ele>107.226554</ele>
        <time>2020-10-07T10:41:01.685Z</time>
      </trkpt>
      <trkpt lat="53.57635" lon="22.92882">
        <ele>107.142273</ele>
        <time>2020-10-07T10:41:18.112Z</time>
      </trkpt>
      <trkpt lat="53.57522" lon="22.92788">
        <ele>106.994059</ele>
        <time>2020-10-07T10:41:48.528Z</time>
      </trkpt>
      <trkpt lat="53.57477" lon="22.92738">
        <ele>107.042689</ele>
        <time>2020-10-07T10:42:01.816Z</time>
      </trkpt>
      <trkpt lat="53.57235" lon="22.92309">
        <ele>108.237803</ele>
        <time>2020-10-07T10:43:34.482Z</time>
      </trkpt>
      <trkpt lat="53.57212" lon="22.92283">
        <ele>108.284374</ele>
        <time>2020-10-07T10:43:41.648Z</time>
      </trkpt>
      <trkpt lat="53.56873" lon="22.92064">
        <ele>108.743311</ele>
        <time>2020-10-07T10:45:13.025Z</time>
      </trkpt>
      <trkpt lat="53.56829" lon="22.92056">
        <ele>108.812843</ele>
        <time>2020-10-07T10:45:24.199Z</time>
      </trkpt>
      <trkpt lat="53.56722" lon="22.92081">
        <ele>108.968237</ele>
        <time>2020-10-07T10:45:51.671Z</time>
      </trkpt>
      <trkpt lat="53.56696" lon="22.92069">
        <ele>108.993156</ele>
        <time>2020-10-07T10:45:58.436Z</time>
      </trkpt>
      <trkpt lat="53.56624" lon="22.92015">
        <ele>109.067004</ele>
        <time>2020-10-07T10:46:18.381Z</time>
      </trkpt>
      <trkpt lat="53.56543" lon="22.9192">
        <ele>108.967247</ele>
        <time>2020-10-07T10:46:42.810Z</time>
      </trkpt>
      <trkpt lat="53.56429" lon="22.91763">
        <ele>108.474679</ele>
        <time>2020-10-07T10:47:17.122Z</time>
      </trkpt>
      <trkpt lat="53.56418" lon="22.91739">
        <ele>108.395497</ele>
        <time>2020-10-07T10:47:21.224Z</time>
      </trkpt>
      <trkpt lat="53.56392" lon="22.91655">
        <ele>108.150891</ele>
        <time>2020-10-07T10:47:34.072Z</time>
      </trkpt>
      <trkpt lat="53.56334" lon="22.91542">
        <ele>107.763279</ele>
        <time>2020-10-07T10:47:54.686Z</time>
      </trkpt>
      <trkpt lat="53.56311" lon="22.91508">
        <ele>107.740292</ele>
        <time>2020-10-07T10:48:01.786Z</time>
      </trkpt>
      <trkpt lat="53.56222" lon="22.91401">
        <ele>107.692889</ele>
        <time>2020-10-07T10:48:28.815Z</time>
      </trkpt>
      <trkpt lat="53.56162" lon="22.91354">
        <ele>107.708005</ele>
        <time>2020-10-07T10:48:45.687Z</time>
      </trkpt>
      <trkpt lat="53.56106" lon="22.91297">
        <ele>107.802626</ele>
        <time>2020-10-07T10:49:02.308Z</time>
      </trkpt>
      <trkpt lat="53.56063" lon="22.91172">
        <ele>107.927425</ele>
        <time>2020-10-07T10:49:24.310Z</time>
      </trkpt>
      <trkpt lat="53.56033" lon="22.91106">
        <ele>108.016199</ele>
        <time>2020-10-07T10:49:36.815Z</time>
      </trkpt>
      <trkpt lat="53.56006" lon="22.91082">
        <ele>108.072553</ele>
        <time>2020-10-07T10:49:44.624Z</time>
      </trkpt>
      <trkpt lat="53.55966" lon="22.91072">
        <ele>108.148143</ele>
        <time>2020-10-07T10:49:55.091Z</time>
      </trkpt>
      <trkpt lat="53.55933" lon="22.91051">
        <ele>108.212621</ele>
        <time>2020-10-07T10:50:03.921Z</time>
      </trkpt>
      <trkpt lat="53.55854" lon="22.90946">
        <ele>108.093937</ele>
        <time>2020-10-07T10:50:28.885Z</time>
      </trkpt>
      <trkpt lat="53.5583" lon="22.90936">
        <ele>108.03216</ele>
        <time>2020-10-07T10:50:34.940Z</time>
      </trkpt>
      <trkpt lat="53.55772" lon="22.9093">
        <ele>107.891568</ele>
        <time>2020-10-07T10:50:48.395Z</time>
      </trkpt>
      <trkpt lat="53.5576" lon="22.9092">
        <ele>107.85836</ele>
        <time>2020-10-07T10:50:51.547Z</time>
      </trkpt>
      <trkpt lat="53.55748" lon="22.90881">
        <ele>107.777548</ele>
        <time>2020-10-07T10:50:57.512Z</time>
      </trkpt>
      <trkpt lat="53.5574" lon="22.90746">
        <ele>107.479117</ele>
        <time>2020-10-07T10:51:15.841Z</time>
      </trkpt>
      <trkpt lat="53.55727" lon="22.90709">
        <ele>107.382833</ele>
        <time>2020-10-07T10:51:21.788Z</time>
      </trkpt>
      <trkpt lat="53.55712" lon="22.90695">
        <ele>107.320455</ele>
        <time>2020-10-07T10:51:25.677Z</time>
      </trkpt>
      <trkpt lat="53.55691" lon="22.90687">
        <ele>107.240583</ele>
        <time>2020-10-07T10:51:30.760Z</time>
      </trkpt>
      <trkpt lat="53.55568" lon="22.90657">
        <ele>107.588272</ele>
        <time>2020-10-07T10:52:02.243Z</time>
      </trkpt>
      <trkpt lat="53.55476" lon="22.90567">
        <ele>108.369618</ele>
        <time>2020-10-07T10:52:32.344Z</time>
      </trkpt>
      <trkpt lat="53.55463" lon="22.90561">
        <ele>108.571048</ele>
        <time>2020-10-07T10:52:36.141Z</time>
      </trkpt>
      <trkpt lat="53.55451" lon="22.90568">
        <ele>108.771556</ele>
        <time>2020-10-07T10:52:39.976Z</time>
      </trkpt>
      <trkpt lat="53.55397" lon="22.90632">
        <ele>109.799647</ele>
        <time>2020-10-07T10:53:00.880Z</time>
      </trkpt>
      <trkpt lat="53.55383" lon="22.90647">
        <ele>110.047944</ele>
        <time>2020-10-07T10:53:05.884Z</time>
      </trkpt>
      <trkpt lat="53.55376" lon="22.90654">
        <ele>110.182313</ele>
        <time>2020-10-07T10:53:08.598Z</time>
      </trkpt>
      <trkpt lat="53.55365" lon="22.90665">
        <ele>110.384767</ele>
        <time>2020-10-07T10:53:12.594Z</time>
      </trkpt>
      <trkpt lat="53.5535" lon="22.9068">
        <ele>110.640554</ele>
        <time>2020-10-07T10:53:17.619Z</time>
      </trkpt>
      <trkpt lat="53.55338" lon="22.90696">
        <ele>110.915417</ele>
        <time>2020-10-07T10:53:22.390Z</time>
      </trkpt>
      <trkpt lat="53.55299" lon="22.90762">
        <ele>111.905215</ele>
        <time>2020-10-07T10:53:47.400Z</time>
      </trkpt>
      <trkpt lat="53.55269" lon="22.90813">
        <ele>112.661674</ele>
        <time>2020-10-07T10:53:59.962Z</time>
      </trkpt>
      <trkpt lat="53.55206" lon="22.90909">
        <ele>114.030075</ele>
        <time>2020-10-07T10:54:24.881Z</time>
      </trkpt>
      <trkpt lat="53.55117" lon="22.91034">
        <ele>114.995414</ele>
        <time>2020-10-07T10:54:54.935Z</time>
      </trkpt>
      <trkpt lat="53.54986" lon="22.90709">
        <ele>115.63858</ele>
        <time>2020-10-07T10:55:47.906Z</time>
      </trkpt>
      <trkpt lat="53.54919" lon="22.90545">
        <ele>115.858437</ele>
        <time>2020-10-07T10:56:15.450Z</time>
      </trkpt>
      <trkpt lat="53.54905" lon="22.90511">
        <ele>115.903694</ele>
        <time>2020-10-07T10:56:21.149Z</time>
      </trkpt>
      <trkpt lat="53.54855" lon="22.90391">
        <ele>115.806594</ele>
        <time>2020-10-07T10:56:40.970Z</time>
      </trkpt>
      <trkpt lat="53.54847" lon="22.90362">
        <ele>115.753205</ele>
        <time>2020-10-07T10:56:44.943Z</time>
      </trkpt>
      <trkpt lat="53.54824" lon="22.90273">
        <ele>115.586928</ele>
        <time>2020-10-07T10:56:57.123Z</time>
      </trkpt>
      <trkpt lat="53.54814" lon="22.90231">
        <ele>115.509058</ele>
        <time>2020-10-07T10:57:02.646Z</time>
      </trkpt>
      <trkpt lat="53.54795" lon="22.90137">
        <ele>115.106971</ele>
        <time>2020-10-07T10:57:14.458Z</time>
      </trkpt>
      <trkpt lat="53.54785" lon="22.90104">
        <ele>114.912499</ele>
        <time>2020-10-07T10:57:18.664Z</time>
      </trkpt>
      <trkpt lat="53.54706" lon="22.89865">
        <ele>113.464627</ele>
        <time>2020-10-07T10:57:50.210Z</time>
      </trkpt>
      <trkpt lat="53.54547" lon="22.89397">
        <ele>111.074079</ele>
        <time>2020-10-07T10:58:53.520Z</time>
      </trkpt>
      <trkpt lat="53.54538" lon="22.89373">
        <ele>111.168446</ele>
        <time>2020-10-07T10:58:57.267Z</time>
      </trkpt>
      <trkpt lat="53.54529" lon="22.89359">
        <ele>111.234644</ele>
        <time>2020-10-07T10:58:59.919Z</time>
      </trkpt>
      <trkpt lat="53.54526" lon="22.89356">
        <ele>111.256771</ele>
        <time>2020-10-07T10:59:00.862Z</time>
      </trkpt>
      <trkpt lat="53.54419" lon="22.89251">
        <ele>111.947807</ele>
        <time>2020-10-07T10:59:32.283Z</time>
      </trkpt>
      <trkpt lat="53.54404" lon="22.89235">
        <ele>112.044202</ele>
        <time>2020-10-07T10:59:36.800Z</time>
      </trkpt>
      <trkpt lat="53.54393" lon="22.89219">
        <ele>112.177666</ele>
        <time>2020-10-07T10:59:40.970Z</time>
      </trkpt>
      <trkpt lat="53.54385" lon="22.89201">
        <ele>112.310384</ele>
        <time>2020-10-07T10:59:44.545Z</time>
      </trkpt>
      <trkpt lat="53.54327" lon="22.8906">
        <ele>113.3172</ele>
        <time>2020-10-07T11:00:11.916Z</time>
      </trkpt>
      <trkpt lat="53.5418" lon="22.88693">
        <ele>115.076582</ele>
        <time>2020-10-07T11:01:17.759Z</time>
      </trkpt>
      <trkpt lat="53.54151" lon="22.88621">
        <ele>115.162228</ele>
        <time>2020-10-07T11:01:29.574Z</time>
      </trkpt>
      <trkpt lat="53.54078" lon="22.88439">
        <ele>115.38214</ele>
        <time>2020-10-07T11:01:58.636Z</time>
      </trkpt>
      <trkpt lat="53.54057" lon="22.88386">
        <ele>115.451278</ele>
        <time>2020-10-07T11:02:07.278Z</time>
      </trkpt>
      <trkpt lat="53.53934" lon="22.8808">
        <ele>116.082403</ele>
        <time>2020-10-07T11:02:58.387Z</time>
      </trkpt>
      <trkpt lat="53.53871" lon="22.88158">
        <ele>116.409273</ele>
        <time>2020-10-07T11:03:18.425Z</time>
      </trkpt>
      <trkpt lat="53.53812" lon="22.88232">
        <ele>116.846016</ele>
        <time>2020-10-07T11:03:37.501Z</time>
      </trkpt>
      <trkpt lat="53.53773" lon="22.88167">
        <ele>117.173867</ele>
        <time>2020-10-07T11:03:59.565Z</time>
      </trkpt>
      <trkpt lat="53.53587" lon="22.87874">
        <ele>117.936374</ele>
        <time>2020-10-07T11:05:37.621Z</time>
      </trkpt>
      <trkpt lat="53.53398" lon="22.87578">
        <ele>116.856757</ele>
        <time>2020-10-07T11:07:09.693Z</time>
      </trkpt>
      <trkpt lat="53.53243" lon="22.87333">
        <ele>115.262884</ele>
        <time>2020-10-07T11:08:21.859Z</time>
      </trkpt>
      <trkpt lat="53.53159" lon="22.87179">
        <ele>115.056914</ele>
        <time>2020-10-07T11:09:06.746Z</time>
      </trkpt>
      <trkpt lat="53.53096" lon="22.87039">
        <ele>115.214041</ele>
        <time>2020-10-07T11:09:47.520Z</time>
      </trkpt>
      <trkpt lat="53.53017" lon="22.86857">
        <ele>115.919376</ele>
        <time>2020-10-07T11:10:40.270Z</time>
      </trkpt>
      <trkpt lat="53.52977" lon="22.86725">
        <ele>116.427527</ele>
        <time>2020-10-07T11:11:14.868Z</time>
      </trkpt>
      <trkpt lat="53.52891" lon="22.8644">
        <ele>117.485156</ele>
        <time>2020-10-07T11:12:30.352Z</time>
      </trkpt>
      <trkpt lat="53.52829" lon="22.86241">
        <ele>118.077403</ele>
        <time>2020-10-07T11:13:21.898Z</time>
      </trkpt>
      <trkpt lat="53.52795" lon="22.86125">
        <ele>118.341325</ele>
        <time>2020-10-07T11:13:51.227Z</time>
      </trkpt>
      <trkpt lat="53.52714" lon="22.85857">
        <ele>119.02468</ele>
        <time>2020-10-07T11:15:00.680Z</time>
      </trkpt>
      <trkpt lat="53.5268" lon="22.85744">
        <ele>119.338288</ele>
        <time>2020-10-07T11:15:30.313Z</time>
      </trkpt>
      <trkpt lat="53.52562" lon="22.85355">
        <ele>119.739456</ele>
        <time>2020-10-07T11:17:09.267Z</time>
      </trkpt>
      <trkpt lat="53.52866" lon="22.85112">
        <ele>118.279448</ele>
        <time>2020-10-07T11:18:18.154Z</time>
      </trkpt>
      <trkpt lat="53.52963" lon="22.85036">
        <ele>117.81617</ele>
        <time>2020-10-07T11:18:40.957Z</time>
      </trkpt>
      <trkpt lat="53.52961" lon="22.84949">
        <ele>117.414504</ele>
        <time>2020-10-07T11:18:51.367Z</time>
      </trkpt>
      <trkpt lat="53.52954" lon="22.84894">
        <ele>117.029683</ele>
        <time>2020-10-07T11:18:57.744Z</time>
      </trkpt>
      <trkpt lat="53.52949" lon="22.84868">
        <ele>116.843411</ele>
        <time>2020-10-07T11:19:00.847Z</time>
      </trkpt>
      <trkpt lat="53.52909" lon="22.84656">
        <ele>115.369844</ele>
        <time>2020-10-07T11:19:25.438Z</time>
      </trkpt>
      <trkpt lat="53.52883" lon="22.84518">
        <ele>114.595214</ele>
        <time>2020-10-07T11:19:41.672Z</time>
      </trkpt>
      <trkpt lat="53.52874" lon="22.84481">
        <ele>114.384389</ele>
        <time>2020-10-07T11:19:46.292Z</time>
      </trkpt>
      <trkpt lat="53.52861" lon="22.84438">
        <ele>114.125635</ele>
        <time>2020-10-07T11:19:52.308Z</time>
      </trkpt>
      <trkpt lat="53.52764" lon="22.8417">
        <ele>114.192581</ele>
        <time>2020-10-07T11:20:35.204Z</time>
      </trkpt>
      <trkpt lat="53.52739" lon="22.84107">
        <ele>114.206855</ele>
        <time>2020-10-07T11:20:45.652Z</time>
      </trkpt>
      <trkpt lat="53.52739" lon="22.84107">
        <ele>114.206855</ele>
        <time>2020-10-07T11:20:45.670Z</time>
      </trkpt>
      <trkpt lat="53.52669" lon="22.83944">
        <ele>114.220171</ele>
        <time>2020-10-07T11:21:12.446Z</time>
      </trkpt>
      <trkpt lat="53.52655" lon="22.8392">
        <ele>114.22244</ele>
        <time>2020-10-07T11:21:16.854Z</time>
      </trkpt>
      <trkpt lat="53.52608" lon="22.83848">
        <ele>113.981085</ele>
        <time>2020-10-07T11:21:30.339Z</time>
      </trkpt>
      <trkpt lat="53.52601" lon="22.83832">
        <ele>113.934215</ele>
        <time>2020-10-07T11:21:32.802Z</time>
      </trkpt>
      <trkpt lat="53.52593" lon="22.83794">
        <ele>113.838576</ele>
        <time>2020-10-07T11:21:37.685Z</time>
      </trkpt>
      <trkpt lat="53.52559" lon="22.83631">
        <ele>113.464875</ele>
        <time>2020-10-07T11:21:58.687Z</time>
      </trkpt>
      <trkpt lat="53.52525" lon="22.83486">
        <ele>113.305829</ele>
        <time>2020-10-07T11:22:18.247Z</time>
      </trkpt>
      <trkpt lat="53.52502" lon="22.83379">
        <ele>113.190507</ele>
        <time>2020-10-07T11:22:33.491Z</time>
      </trkpt>
      <trkpt lat="53.52465" lon="22.8341">
        <ele>113.534085</ele>
        <time>2020-10-07T11:22:43.289Z</time>
      </trkpt>
      <trkpt lat="53.52322" lon="22.83527">
        <ele>115.000503</ele>
        <time>2020-10-07T11:23:49.050Z</time>
      </trkpt>
      <trkpt lat="53.52158" lon="22.83649">
        <ele>117.208452</ele>
        <time>2020-10-07T11:25:05.794Z</time>
      </trkpt>
      <trkpt lat="53.51748" lon="22.83955">
        <ele>119.081239</ele>
        <time>2020-10-07T11:28:01.755Z</time>
      </trkpt>
      <trkpt lat="53.51367" lon="22.84236">
        <ele>114.904341</ele>
        <time>2020-10-07T11:30:20.951Z</time>
      </trkpt>
      <trkpt lat="53.51349" lon="22.84195">
        <ele>114.462876</ele>
        <time>2020-10-07T11:30:26.452Z</time>
      </trkpt>
      <trkpt lat="53.51227" lon="22.83913">
        <ele>111.544676</ele>
        <time>2020-10-07T11:31:03.841Z</time>
      </trkpt>
      <trkpt lat="53.51206" lon="22.83888">
        <ele>111.415817</ele>
        <time>2020-10-07T11:31:08.779Z</time>
      </trkpt>
      <trkpt lat="53.51194" lon="22.83872">
        <ele>111.338758</ele>
        <time>2020-10-07T11:31:11.894Z</time>
      </trkpt>
      <trkpt lat="53.51191" lon="22.83866">
        <ele>111.311726</ele>
        <time>2020-10-07T11:31:13.080Z</time>
      </trkpt>
      <trkpt lat="53.51157" lon="22.83787">
        <ele>111.01822</ele>
        <time>2020-10-07T11:31:25.250Z</time>
      </trkpt>
      <trkpt lat="53.50952" lon="22.83354">
        <ele>112.715152</ele>
        <time>2020-10-07T11:32:48.387Z</time>
      </trkpt>
      <trkpt lat="53.50947" lon="22.83342">
        <ele>112.764913</ele>
        <time>2020-10-07T11:32:50.557Z</time>
      </trkpt>
      <trkpt lat="53.50873" lon="22.83183">
        <ele>113.527534</ele>
        <time>2020-10-07T11:33:18.625Z</time>
      </trkpt>
      <trkpt lat="53.50868" lon="22.83172">
        <ele>113.582886</ele>
        <time>2020-10-07T11:33:20.412Z</time>
      </trkpt>
      <trkpt lat="53.50856" lon="22.83148">
        <ele>113.710074</ele>
        <time>2020-10-07T11:33:24.908Z</time>
      </trkpt>
      <trkpt lat="53.50832" lon="22.83097">
        <ele>113.979934</ele>
        <time>2020-10-07T11:33:34.342Z</time>
      </trkpt>
      <trkpt lat="53.50665" lon="22.82741">
        <ele>117.178012</ele>
        <time>2020-10-07T11:34:49.265Z</time>
      </trkpt>
      <trkpt lat="53.50649" lon="22.82702">
        <ele>117.474698</ele>
        <time>2020-10-07T11:34:57.062Z</time>
      </trkpt>
      <trkpt lat="53.50621" lon="22.82604">
        <ele>118.165761</ele>
        <time>2020-10-07T11:35:14.312Z</time>
      </trkpt>
      <trkpt lat="53.50612" lon="22.82553">
        <ele>118.5041</ele>
        <time>2020-10-07T11:35:22.537Z</time>
      </trkpt>
      <trkpt lat="53.50572" lon="22.82344">
        <ele>119.104051</ele>
        <time>2020-10-07T11:35:54.517Z</time>
      </trkpt>
      <trkpt lat="53.50544" lon="22.82199">
        <ele>119.242453</ele>
        <time>2020-10-07T11:36:14.878Z</time>
      </trkpt>
      <trkpt lat="53.50541" lon="22.82178">
        <ele>119.185138</ele>
        <time>2020-10-07T11:36:17.518Z</time>
      </trkpt>
      <trkpt lat="53.50529" lon="22.82144">
        <ele>119.085232</ele>
        <time>2020-10-07T11:36:22.628Z</time>
      </trkpt>
      <trkpt lat="53.50522" lon="22.82084">
        <ele>118.928246</ele>
        <time>2020-10-07T11:36:30.254Z</time>
      </trkpt>
      <trkpt lat="53.50487" lon="22.81899">
        <ele>118.348421</ele>
        <time>2020-10-07T11:36:53.234Z</time>
      </trkpt>
      <trkpt lat="53.50401" lon="22.81446">
        <ele>116.287121</ele>
        <time>2020-10-07T11:37:50.565Z</time>
      </trkpt>
      <trkpt lat="53.50389" lon="22.81373">
        <ele>115.92269</ele>
        <time>2020-10-07T11:37:59.232Z</time>
      </trkpt>
      <trkpt lat="53.50381" lon="22.81332">
        <ele>115.590956</ele>
        <time>2020-10-07T11:38:04.110Z</time>
      </trkpt>
      <trkpt lat="53.50342" lon="22.81124">
        <ele>113.906922</ele>
        <time>2020-10-07T11:38:28.028Z</time>
      </trkpt>
      <trkpt lat="53.50321" lon="22.8103">
        <ele>113.539271</ele>
        <time>2020-10-07T11:38:39.303Z</time>
      </trkpt>
      <trkpt lat="53.50302" lon="22.8093">
        <ele>113.419132</ele>
        <time>2020-10-07T11:38:52.138Z</time>
      </trkpt>
      <trkpt lat="53.50294" lon="22.80886">
        <ele>113.366485</ele>
        <time>2020-10-07T11:38:58.290Z</time>
      </trkpt>
      <trkpt lat="53.50285" lon="22.80841">
        <ele>113.312132</ele>
        <time>2020-10-07T11:39:05.233Z</time>
      </trkpt>
      <trkpt lat="53.50277" lon="22.80785">
        <ele>113.363113</ele>
        <time>2020-10-07T11:39:14.001Z</time>
      </trkpt>
      <trkpt lat="53.50236" lon="22.80568">
        <ele>114.808512</ele>
        <time>2020-10-07T11:39:51.580Z</time>
      </trkpt>
      <trkpt lat="53.49994" lon="22.79292">
        <ele>120.111011</ele>
        <time>2020-10-07T11:43:10.676Z</time>
      </trkpt>
      <trkpt lat="53.49935" lon="22.78966">
        <ele>120.169594</ele>
        <time>2020-10-07T11:43:55.304Z</time>
      </trkpt>
      <trkpt lat="53.49916" lon="22.78867">
        <ele>120.08061</ele>
        <time>2020-10-07T11:44:08.497Z</time>
      </trkpt>
      <trkpt lat="53.49911" lon="22.78815">
        <ele>120.035116</ele>
        <time>2020-10-07T11:44:15.275Z</time>
      </trkpt>
      <trkpt lat="53.49842" lon="22.78462">
        <ele>119.866046</ele>
        <time>2020-10-07T11:45:03.842Z</time>
      </trkpt>
      <trkpt lat="53.49816" lon="22.78364">
        <ele>119.9135</ele>
        <time>2020-10-07T11:45:18.511Z</time>
      </trkpt>
      <trkpt lat="53.49804" lon="22.783">
        <ele>119.943223</ele>
        <time>2020-10-07T11:45:27.732Z</time>
      </trkpt>
      <trkpt lat="53.49803" lon="22.78268">
        <ele>119.957362</ele>
        <time>2020-10-07T11:45:32.076Z</time>
      </trkpt>
      <trkpt lat="53.49803" lon="22.78261">
        <ele>119.960725</ele>
        <time>2020-10-07T11:45:33.142Z</time>
      </trkpt>
      <trkpt lat="53.49824" lon="22.78255">
        <ele>119.976599</ele>
        <time>2020-10-07T11:45:38.439Z</time>
      </trkpt>
      <trkpt lat="53.49936" lon="22.78226">
        <ele>119.520144</ele>
        <time>2020-10-07T11:46:05.445Z</time>
      </trkpt>
      <trkpt lat="53.49955" lon="22.78221">
        <ele>119.431723</ele>
        <time>2020-10-07T11:46:09.947Z</time>
      </trkpt>
      <trkpt lat="53.49951" lon="22.78197">
        <ele>119.365921</ele>
        <time>2020-10-07T11:46:12.816Z</time>
      </trkpt>
      <trkpt lat="53.49892" lon="22.7776">
        <ele>117.273654</ele>
        <time>2020-10-07T11:47:04.721Z</time>
      </trkpt>
      <trkpt lat="53.49782" lon="22.76987">
        <ele>114.527128</ele>
        <time>2020-10-07T11:48:41.948Z</time>
      </trkpt>
      <trkpt lat="53.49728" lon="22.76599">
        <ele>113.097217</ele>
        <time>2020-10-07T11:49:29.069Z</time>
      </trkpt>
      <trkpt lat="53.49713" lon="22.76496">
        <ele>113.092699</ele>
        <time>2020-10-07T11:49:52.060Z</time>
      </trkpt>
      <trkpt lat="53.49709" lon="22.76465">
        <ele>113.09132</ele>
        <time>2020-10-07T11:49:59.285Z</time>
      </trkpt>
      <trkpt lat="53.49692" lon="22.76344">
        <ele>113.128425</ele>
        <time>2020-10-07T11:50:28.114Z</time>
      </trkpt>
      <trkpt lat="53.49682" lon="22.76282">
        <ele>113.333679</ele>
        <time>2020-10-07T11:50:43.526Z</time>
      </trkpt>
      <trkpt lat="53.49668" lon="22.76239">
        <ele>113.48894</ele>
        <time>2020-10-07T11:50:55.240Z</time>
      </trkpt>
      <trkpt lat="53.49635" lon="22.76151">
        <ele>113.815672</ele>
        <time>2020-10-07T11:51:19.692Z</time>
      </trkpt>
      <trkpt lat="53.49582" lon="22.76009">
        <ele>113.927156</ele>
        <time>2020-10-07T11:51:57.672Z</time>
      </trkpt>
      <trkpt lat="53.49269" lon="22.75203">
        <ele>113.65082</ele>
        <time>2020-10-07T11:55:24.875Z</time>
      </trkpt>
      <trkpt lat="53.49258" lon="22.75177">
        <ele>113.80118</ele>
        <time>2020-10-07T11:55:32.806Z</time>
      </trkpt>
      <trkpt lat="53.49209" lon="22.7505">
        <ele>114.859828</ele>
        <time>2020-10-07T11:56:00.273Z</time>
      </trkpt>
      <trkpt lat="53.49164" lon="22.74923">
        <ele>117.143664</ele>
        <time>2020-10-07T11:56:30.273Z</time>
      </trkpt>
      <trkpt lat="53.49128" lon="22.74825">
        <ele>118.920976</ele>
        <time>2020-10-07T11:56:53.171Z</time>
      </trkpt>
      <trkpt lat="53.49036" lon="22.74628">
        <ele>123.135123</ele>
        <time>2020-10-07T11:57:43.371Z</time>
      </trkpt>
      <trkpt lat="53.48999" lon="22.74564">
        <ele>124.646205</ele>
        <time>2020-10-07T11:58:01.222Z</time>
      </trkpt>
      <trkpt lat="53.48929" lon="22.74462">
        <ele>127.257802</ele>
        <time>2020-10-07T11:58:33.516Z</time>
      </trkpt>
      <trkpt lat="53.48875" lon="22.74395">
        <ele>129.171415</ele>
        <time>2020-10-07T11:58:55.701Z</time>
      </trkpt>
      <trkpt lat="53.48867" lon="22.74391">
        <ele>129.319566</ele>
        <time>2020-10-07T11:58:58.859Z</time>
      </trkpt>
      <trkpt lat="53.48866" lon="22.74301">
        <ele>130.170477</ele>
        <time>2020-10-07T11:59:14.769Z</time>
      </trkpt>
      <trkpt lat="53.48869" lon="22.74236">
        <ele>130.779373</ele>
        <time>2020-10-07T11:59:25.705Z</time>
      </trkpt>
      <trkpt lat="53.48871" lon="22.74212">
        <ele>131.007192</ele>
        <time>2020-10-07T11:59:30.159Z</time>
      </trkpt>
      <trkpt lat="53.48873" lon="22.74192">
        <ele>131.199913</ele>
        <time>2020-10-07T11:59:33.233Z</time>
      </trkpt>
      <trkpt lat="53.48911" lon="22.7397">
        <ele>132.762133</ele>
        <time>2020-10-07T12:00:08.793Z</time>
      </trkpt>
      <trkpt lat="53.48922" lon="22.73868">
        <ele>133.285329</ele>
        <time>2020-10-07T12:00:24.921Z</time>
      </trkpt>
      <trkpt lat="53.48927" lon="22.73801">
        <ele>133.552859</ele>
        <time>2020-10-07T12:00:35.337Z</time>
      </trkpt>
      <trkpt lat="53.48932" lon="22.73738">
        <ele>133.334604</ele>
        <time>2020-10-07T12:00:44.216Z</time>
      </trkpt>
      <trkpt lat="53.48935" lon="22.73714">
        <ele>133.252024</ele>
        <time>2020-10-07T12:00:47.688Z</time>
      </trkpt>
      <trkpt lat="53.48938" lon="22.73692">
        <ele>133.174265</ele>
        <time>2020-10-07T12:00:50.554Z</time>
      </trkpt>
      <trkpt lat="53.48946" lon="22.73639">
        <ele>132.988514</ele>
        <time>2020-10-07T12:00:57.254Z</time>
      </trkpt>
      <trkpt lat="53.48948" lon="22.73627">
        <ele>132.945618</ele>
        <time>2020-10-07T12:00:58.732Z</time>
      </trkpt>
      <trkpt lat="53.48956" lon="22.73588">
        <ele>132.804883</ele>
        <time>2020-10-07T12:01:03.609Z</time>
      </trkpt>
      <trkpt lat="53.4896" lon="22.73567">
        <ele>132.730752</ele>
        <time>2020-10-07T12:01:05.973Z</time>
      </trkpt>
      <trkpt lat="53.48965" lon="22.73549">
        <ele>132.661645</ele>
        <time>2020-10-07T12:01:08.211Z</time>
      </trkpt>
      <trkpt lat="53.48967" lon="22.73541">
        <ele>132.633108</ele>
        <time>2020-10-07T12:01:09.108Z</time>
      </trkpt>
      <trkpt lat="53.48972" lon="22.73525">
        <ele>132.569957</ele>
        <time>2020-10-07T12:01:11.071Z</time>
      </trkpt>
      <trkpt lat="53.48977" lon="22.73512">
        <ele>132.402035</ele>
        <time>2020-10-07T12:01:12.612Z</time>
      </trkpt>
      <trkpt lat="53.48983" lon="22.73495">
        <ele>132.105349</ele>
        <time>2020-10-07T12:01:14.684Z</time>
      </trkpt>
      <trkpt lat="53.48996" lon="22.73437">
        <ele>131.13886</ele>
        <time>2020-10-07T12:01:21.093Z</time>
      </trkpt>
      <trkpt lat="53.49" lon="22.73419">
        <ele>130.845902</ele>
        <time>2020-10-07T12:01:22.986Z</time>
      </trkpt>
      <trkpt lat="53.49007" lon="22.73383">
        <ele>130.25431</ele>
        <time>2020-10-07T12:01:26.861Z</time>
      </trkpt>
      <trkpt lat="53.49008" lon="22.73368">
        <ele>130.021268</ele>
        <time>2020-10-07T12:01:28.299Z</time>
      </trkpt>
      <trkpt lat="53.49008" lon="22.73349">
        <ele>129.736818</ele>
        <time>2020-10-07T12:01:30.080Z</time>
      </trkpt>
      <trkpt lat="53.49006" lon="22.73329">
        <ele>129.419086</ele>
        <time>2020-10-07T12:01:32.070Z</time>
      </trkpt>
      <trkpt lat="53.48989" lon="22.73203">
        <ele>127.546096</ele>
        <time>2020-10-07T12:01:44.842Z</time>
      </trkpt>
      <trkpt lat="53.48976" lon="22.73145">
        <ele>126.858269</ele>
        <time>2020-10-07T12:01:51.138Z</time>
      </trkpt>
      <trkpt lat="53.4897" lon="22.73122">
        <ele>126.575744</ele>
        <time>2020-10-07T12:01:53.718Z</time>
      </trkpt>
      <trkpt lat="53.48965" lon="22.73101">
        <ele>126.328058</ele>
        <time>2020-10-07T12:01:56.023Z</time>
      </trkpt>
      <trkpt lat="53.48956" lon="22.73061">
        <ele>125.844763</ele>
        <time>2020-10-07T12:02:00.744Z</time>
      </trkpt>
      <trkpt lat="53.48941" lon="22.72999">
        <ele>125.100346</ele>
        <time>2020-10-07T12:02:08.276Z</time>
      </trkpt>
      <trkpt lat="53.48932" lon="22.72963">
        <ele>124.672585</ele>
        <time>2020-10-07T12:02:12.621Z</time>
      </trkpt>
      <trkpt lat="53.48926" lon="22.72946">
        <ele>124.476104</ele>
        <time>2020-10-07T12:02:14.925Z</time>
      </trkpt>
      <trkpt lat="53.48884" lon="22.72824">
        <ele>123.559331</ele>
        <time>2020-10-07T12:02:31.448Z</time>
      </trkpt>
      <trkpt lat="53.48846" lon="22.72715">
        <ele>122.737235</ele>
        <time>2020-10-07T12:02:45.858Z</time>
      </trkpt>
      <trkpt lat="53.4882" lon="22.72643">
        <ele>121.932586</ele>
        <time>2020-10-07T12:02:55.034Z</time>
      </trkpt>
      <trkpt lat="53.48814" lon="22.72627">
        <ele>121.717864</ele>
        <time>2020-10-07T12:02:57.157Z</time>
      </trkpt>
      <trkpt lat="53.48808" lon="22.72609">
        <ele>121.490612</ele>
        <time>2020-10-07T12:02:59.389Z</time>
      </trkpt>
      <trkpt lat="53.48801" lon="22.7259">
        <ele>121.239301</ele>
        <time>2020-10-07T12:03:01.691Z</time>
      </trkpt>
      <trkpt lat="53.48715" lon="22.72317">
        <ele>117.584442</ele>
        <time>2020-10-07T12:03:33.847Z</time>
      </trkpt>
      <trkpt lat="53.48604" lon="22.72048">
        <ele>113.891125</ele>
        <time>2020-10-07T12:04:07.938Z</time>
      </trkpt>
      <trkpt lat="53.48554" lon="22.71963">
        <ele>112.758262</ele>
        <time>2020-10-07T12:04:21.217Z</time>
      </trkpt>
      <trkpt lat="53.48521" lon="22.71902">
        <ele>112.34073</ele>
        <time>2020-10-07T12:04:30.921Z</time>
      </trkpt>
      <trkpt lat="53.48474" lon="22.71827">
        <ele>112.13414</ele>
        <time>2020-10-07T12:04:44.376Z</time>
      </trkpt>
      <trkpt lat="53.48459" lon="22.71806">
        <ele>112.072149</ele>
        <time>2020-10-07T12:04:48.615Z</time>
      </trkpt>
      <trkpt lat="53.48446" lon="22.71789">
        <ele>112.019825</ele>
        <time>2020-10-07T12:04:52.255Z</time>
      </trkpt>
      <trkpt lat="53.4842" lon="22.71752">
        <ele>111.912857</ele>
        <time>2020-10-07T12:04:59.987Z</time>
      </trkpt>
      <trkpt lat="53.48437" lon="22.71679">
        <ele>111.757511</ele>
        <time>2020-10-07T12:05:10.822Z</time>
      </trkpt>
      <trkpt lat="53.48447" lon="22.71629">
        <ele>111.653718</ele>
        <time>2020-10-07T12:05:17.643Z</time>
      </trkpt>
      <trkpt lat="53.48453" lon="22.71542">
        <ele>111.478235</ele>
        <time>2020-10-07T12:05:28.617Z</time>
      </trkpt>
      <trkpt lat="53.48445" lon="22.71447">
        <ele>111.287775</ele>
        <time>2020-10-07T12:05:40.164Z</time>
      </trkpt>
      <trkpt lat="53.48321" lon="22.70904">
        <ele>108.522998</ele>
        <time>2020-10-07T12:06:48.480Z</time>
      </trkpt>
      <trkpt lat="53.48304" lon="22.70838">
        <ele>108.367963</ele>
        <time>2020-10-07T12:06:56.979Z</time>
      </trkpt>
      <trkpt lat="53.48302" lon="22.70829">
        <ele>108.374571</ele>
        <time>2020-10-07T12:06:58.233Z</time>
      </trkpt>
      <trkpt lat="53.48298" lon="22.7081">
        <ele>108.386977</ele>
        <time>2020-10-07T12:07:00.604Z</time>
      </trkpt>
      <trkpt lat="53.48292" lon="22.70782">
        <ele>108.405568</ele>
        <time>2020-10-07T12:07:04.261Z</time>
      </trkpt>
      <trkpt lat="53.48109" lon="22.69997">
        <ele>109.675446</ele>
        <time>2020-10-07T12:09:01.289Z</time>
      </trkpt>
      <trkpt lat="53.48107" lon="22.69987">
        <ele>109.775135</ele>
        <time>2020-10-07T12:09:02.959Z</time>
      </trkpt>
      <trkpt lat="53.48078" lon="22.69858">
        <ele>111.052807</ele>
        <time>2020-10-07T12:09:27.641Z</time>
      </trkpt>
      <trkpt lat="53.48053" lon="22.69752">
        <ele>112.110457</ele>
        <time>2020-10-07T12:09:48.101Z</time>
      </trkpt>
      <trkpt lat="53.48042" lon="22.69706">
        <ele>112.318307</ele>
        <time>2020-10-07T12:09:57.308Z</time>
      </trkpt>
      <trkpt lat="53.48037" lon="22.6969">
        <ele>112.36949</ele>
        <time>2020-10-07T12:10:00.138Z</time>
      </trkpt>
      <trkpt lat="53.47802" lon="22.6868">
        <ele>115.169973</ele>
        <time>2020-10-07T12:12:33.186Z</time>
      </trkpt>
      <trkpt lat="53.47701" lon="22.68254">
        <ele>115.378769</ele>
        <time>2020-10-07T12:13:34.385Z</time>
      </trkpt>
      <trkpt lat="53.47571" lon="22.67695">
        <ele>115.99623</ele>
        <time>2020-10-07T12:14:56.816Z</time>
      </trkpt>
      <trkpt lat="53.47473" lon="22.67276">
        <ele>116.425858</ele>
        <time>2020-10-07T12:15:58.456Z</time>
      </trkpt>
      <trkpt lat="53.47457" lon="22.67236">
        <ele>116.463538</ele>
        <time>2020-10-07T12:16:04.755Z</time>
      </trkpt>
      <trkpt lat="53.47437" lon="22.67215">
        <ele>116.475677</ele>
        <time>2020-10-07T12:16:10.109Z</time>
      </trkpt>
      <trkpt lat="53.4742" lon="22.67212">
        <ele>116.468267</ele>
        <time>2020-10-07T12:16:13.787Z</time>
      </trkpt>
      <trkpt lat="53.47116" lon="22.67273">
        <ele>116.385168</ele>
        <time>2020-10-07T12:17:21.251Z</time>
      </trkpt>
      <trkpt lat="53.46738" lon="22.67078">
        <ele>116.581788</ele>
        <time>2020-10-07T12:18:52.394Z</time>
      </trkpt>
      <trkpt lat="53.46734" lon="22.67085">
        <ele>116.483153</ele>
        <time>2020-10-07T12:18:53.703Z</time>
      </trkpt>
      <trkpt lat="53.46732" lon="22.6709">
        <ele>116.419601</ele>
        <time>2020-10-07T12:18:54.264Z</time>
      </trkpt>
      <trkpt lat="53.46714" lon="22.67061">
        <ele>115.979686</ele>
        <time>2020-10-07T12:18:59.119Z</time>
      </trkpt>
      <trkpt lat="53.46701" lon="22.67021">
        <ele>115.508819</ele>
        <time>2020-10-07T12:19:03.742Z</time>
      </trkpt>
      <trkpt lat="53.46665" lon="22.66835">
        <ele>113.48083</ele>
        <time>2020-10-07T12:19:23.912Z</time>
      </trkpt>
      <trkpt lat="53.46665" lon="22.66817">
        <ele>113.342628</ele>
        <time>2020-10-07T12:19:25.552Z</time>
      </trkpt>
      <trkpt lat="53.4666" lon="22.66801">
        <ele>113.201863</ele>
        <time>2020-10-07T12:19:27.432Z</time>
      </trkpt>
      <trkpt lat="53.46652" lon="22.6678">
        <ele>113.001514</ele>
        <time>2020-10-07T12:19:30.305Z</time>
      </trkpt>
      <trkpt lat="53.46644" lon="22.66763">
        <ele>112.828966</ele>
        <time>2020-10-07T12:19:32.420Z</time>
      </trkpt>
      <trkpt lat="53.46648" lon="22.6675">
        <ele>112.714254</ele>
        <time>2020-10-07T12:19:34.003Z</time>
      </trkpt>
      <trkpt lat="53.46651" lon="22.6673">
        <ele>112.546575</ele>
        <time>2020-10-07T12:19:36.501Z</time>
      </trkpt>
      <trkpt lat="53.46646" lon="22.66723">
        <ele>112.457151</ele>
        <time>2020-10-07T12:19:37.600Z</time>
      </trkpt>
      <trkpt lat="53.46641" lon="22.66714">
        <ele>112.362797</ele>
        <time>2020-10-07T12:19:38.771Z</time>
      </trkpt>
      <trkpt lat="53.46627" lon="22.66698">
        <ele>112.133783</ele>
        <time>2020-10-07T12:19:42.123Z</time>
      </trkpt>
      <trkpt lat="53.46619" lon="22.6669">
        <ele>112.015326</ele>
        <time>2020-10-07T12:19:43.744Z</time>
      </trkpt>
      <trkpt lat="53.45588" lon="22.6391">
        <ele>111.08874</ele>
        <time>2020-10-07T12:26:54.956Z</time>
      </trkpt>
      <trkpt lat="53.45539" lon="22.63776">
        <ele>111.941654</ele>
        <time>2020-10-07T12:27:20.904Z</time>
      </trkpt>
      <trkpt lat="53.45499" lon="22.63642">
        <ele>114.431454</ele>
        <time>2020-10-07T12:27:51.090Z</time>
      </trkpt>
      <trkpt lat="53.45485" lon="22.63576">
        <ele>115.578574</ele>
        <time>2020-10-07T12:28:05.536Z</time>
      </trkpt>
      <trkpt lat="53.45476" lon="22.635">
        <ele>116.851349</ele>
        <time>2020-10-07T12:28:22.003Z</time>
      </trkpt>
      <trkpt lat="53.45471" lon="22.63423">
        <ele>117.855644</ele>
        <time>2020-10-07T12:28:37.860Z</time>
      </trkpt>
      <trkpt lat="53.45476" lon="22.63265">
        <ele>119.904009</ele>
        <time>2020-10-07T12:29:08.492Z</time>
      </trkpt>
      <trkpt lat="53.45537" lon="22.62642">
        <ele>121.489747</ele>
        <time>2020-10-07T12:30:37.046Z</time>
      </trkpt>
      <trkpt lat="53.45539" lon="22.6257">
        <ele>121.25189</ele>
        <time>2020-10-07T12:30:45.400Z</time>
      </trkpt>
      <trkpt lat="53.45536" lon="22.62499">
        <ele>120.754824</ele>
        <time>2020-10-07T12:30:53.377Z</time>
      </trkpt>
      <trkpt lat="53.45512" lon="22.62375">
        <ele>119.837071</ele>
        <time>2020-10-07T12:31:07.689Z</time>
      </trkpt>
      <trkpt lat="53.45494" lon="22.6233">
        <ele>119.455489</ele>
        <time>2020-10-07T12:31:13.731Z</time>
      </trkpt>
      <trkpt lat="53.45444" lon="22.62245">
        <ele>118.968119</ele>
        <time>2020-10-07T12:31:27.311Z</time>
      </trkpt>
      <trkpt lat="53.4543" lon="22.62224">
        <ele>118.843895</ele>
        <time>2020-10-07T12:31:31.140Z</time>
      </trkpt>
      <trkpt lat="53.45418" lon="22.62209">
        <ele>118.748479</ele>
        <time>2020-10-07T12:31:34.136Z</time>
      </trkpt>
      <trkpt lat="53.45402" lon="22.62196">
        <ele>118.637757</ele>
        <time>2020-10-07T12:31:37.658Z</time>
      </trkpt>
      <trkpt lat="53.45372" lon="22.62172">
        <ele>118.423293</ele>
        <time>2020-10-07T12:31:44.635Z</time>
      </trkpt>
      <trkpt lat="53.44984" lon="22.61898">
        <ele>119.029508</ele>
        <time>2020-10-07T12:33:20.988Z</time>
      </trkpt>
      <trkpt lat="53.4483" lon="22.61775">
        <ele>120.17307</ele>
        <time>2020-10-07T12:34:04.885Z</time>
      </trkpt>
      <trkpt lat="53.44665" lon="22.61656">
        <ele>120.957047</ele>
        <time>2020-10-07T12:34:48.863Z</time>
      </trkpt>
      <trkpt lat="53.44449" lon="22.61506">
        <ele>120.438402</ele>
        <time>2020-10-07T12:35:38.097Z</time>
      </trkpt>
      <trkpt lat="53.44369" lon="22.61448">
        <ele>120.105275</ele>
        <time>2020-10-07T12:35:56.048Z</time>
      </trkpt>
      <trkpt lat="53.4434" lon="22.6142">
        <ele>120.024053</ele>
        <time>2020-10-07T12:36:03.049Z</time>
      </trkpt>
      <trkpt lat="53.4431" lon="22.61376">
        <ele>119.993831</ele>
        <time>2020-10-07T12:36:11.391Z</time>
      </trkpt>
      <trkpt lat="53.442" lon="22.61175">
        <ele>119.995599</ele>
        <time>2020-10-07T12:36:47.986Z</time>
      </trkpt>
      <trkpt lat="53.44183" lon="22.61143">
        <ele>120.061348</ele>
        <time>2020-10-07T12:36:54.232Z</time>
      </trkpt>
      <trkpt lat="53.44054" lon="22.60897">
        <ele>120.310565</ele>
        <time>2020-10-07T12:37:40.163Z</time>
      </trkpt>
      <trkpt lat="53.43861" lon="22.6053">
        <ele>119.70596</ele>
        <time>2020-10-07T12:38:41.555Z</time>
      </trkpt>
      <trkpt lat="53.43749" lon="22.60323">
        <ele>119.687453</ele>
        <time>2020-10-07T12:39:19.007Z</time>
      </trkpt>
      <trkpt lat="53.43668" lon="22.60174">
        <ele>119.555739</ele>
        <time>2020-10-07T12:39:45.793Z</time>
      </trkpt>
      <trkpt lat="53.43549" lon="22.59945">
        <ele>119.190994</ele>
        <time>2020-10-07T12:40:23.934Z</time>
      </trkpt>
      <trkpt lat="53.43427" lon="22.59717">
        <ele>118.946991</ele>
        <time>2020-10-07T12:41:03.893Z</time>
      </trkpt>
      <trkpt lat="53.43424" lon="22.59711">
        <ele>118.943132</ele>
        <time>2020-10-07T12:41:05.148Z</time>
      </trkpt>
      <trkpt lat="53.43249" lon="22.59379">
        <ele>118.771388</ele>
        <time>2020-10-07T12:42:03.835Z</time>
      </trkpt>
      <trkpt lat="53.43223" lon="22.59337">
        <ele>118.652605</ele>
        <time>2020-10-07T12:42:11.526Z</time>
      </trkpt>
      <trkpt lat="53.43179" lon="22.59275">
        <ele>118.458559</ele>
        <time>2020-10-07T12:42:23.897Z</time>
      </trkpt>
      <trkpt lat="53.43154" lon="22.59248">
        <ele>118.360499</ele>
        <time>2020-10-07T12:42:29.902Z</time>
      </trkpt>
      <trkpt lat="53.4308" lon="22.59193">
        <ele>117.74546</ele>
        <time>2020-10-07T12:42:46.015Z</time>
      </trkpt>
      <trkpt lat="53.43043" lon="22.59176">
        <ele>117.378399</ele>
        <time>2020-10-07T12:42:53.336Z</time>
      </trkpt>
      <trkpt lat="53.42964" lon="22.59152">
        <ele>116.61037</ele>
        <time>2020-10-07T12:43:08.417Z</time>
      </trkpt>
      <trkpt lat="53.42702" lon="22.59069">
        <ele>114.797763</ele>
        <time>2020-10-07T12:44:01.586Z</time>
      </trkpt>
      <trkpt lat="53.4263" lon="22.59046">
        <ele>114.517875</ele>
        <time>2020-10-07T12:44:18.002Z</time>
      </trkpt>
      <trkpt lat="53.42533" lon="22.59016">
        <ele>113.998446</ele>
        <time>2020-10-07T12:44:39.110Z</time>
      </trkpt>
      <trkpt lat="53.42443" lon="22.58988">
        <ele>113.475326</ele>
        <time>2020-10-07T12:44:57.085Z</time>
      </trkpt>
      <trkpt lat="53.42359" lon="22.58961">
        <ele>113.217068</ele>
        <time>2020-10-07T12:45:13.785Z</time>
      </trkpt>
      <trkpt lat="53.42286" lon="22.58937">
        <ele>113.039317</ele>
        <time>2020-10-07T12:45:29.418Z</time>
      </trkpt>
      <trkpt lat="53.42163" lon="22.58899">
        <ele>114.082242</ele>
        <time>2020-10-07T12:46:02.255Z</time>
      </trkpt>
      <trkpt lat="53.41964" lon="22.58839">
        <ele>116.400816</ele>
        <time>2020-10-07T12:47:00.582Z</time>
      </trkpt>
      <trkpt lat="53.41963" lon="22.58839">
        <ele>116.407283</ele>
        <time>2020-10-07T12:47:00.732Z</time>
      </trkpt>
      <trkpt lat="53.41505" lon="22.58695">
        <ele>117.327418</ele>
        <time>2020-10-07T12:48:45.923Z</time>
      </trkpt>
      <trkpt lat="53.41482" lon="22.58683">
        <ele>117.316512</ele>
        <time>2020-10-07T12:48:50.936Z</time>
      </trkpt>
      <trkpt lat="53.41373" lon="22.58612">
        <ele>117.264736</ele>
        <time>2020-10-07T12:49:16.381Z</time>
      </trkpt>
      <trkpt lat="53.41256" lon="22.58535">
        <ele>118.021746</ele>
        <time>2020-10-07T12:49:46.886Z</time>
      </trkpt>
      <trkpt lat="53.41202" lon="22.58513">
        <ele>118.359647</ele>
        <time>2020-10-07T12:50:01.764Z</time>
      </trkpt>
      <trkpt lat="53.40997" lon="22.58498">
        <ele>119.857484</ele>
        <time>2020-10-07T12:50:54.355Z</time>
      </trkpt>
      <trkpt lat="53.40916" lon="22.58492">
        <ele>120.032314</ele>
        <time>2020-10-07T12:51:12.787Z</time>
      </trkpt>
      <trkpt lat="53.40857" lon="22.58488">
        <ele>120.160081</ele>
        <time>2020-10-07T12:51:25.693Z</time>
      </trkpt>
      <trkpt lat="53.40575" lon="22.58399">
        <ele>120.410984</ele>
        <time>2020-10-07T12:52:29.394Z</time>
      </trkpt>
      <trkpt lat="53.40411" lon="22.58346">
        <ele>121.109865</ele>
        <time>2020-10-07T12:53:10.620Z</time>
      </trkpt>
      <trkpt lat="53.40066" lon="22.58236">
        <ele>122.578695</ele>
        <time>2020-10-07T12:54:35.196Z</time>
      </trkpt>
      <trkpt lat="53.39974" lon="22.58219">
        <ele>122.723607</ele>
        <time>2020-10-07T12:54:56.136Z</time>
      </trkpt>
      <trkpt lat="53.39912" lon="22.58221">
        <ele>122.627696</ele>
        <time>2020-10-07T12:55:09.659Z</time>
      </trkpt>
      <trkpt lat="53.3947" lon="22.58274">
        <ele>121.429659</ele>
        <time>2020-10-07T12:56:43.914Z</time>
      </trkpt>
      <trkpt lat="53.39271" lon="22.583">
        <ele>120.753468</ele>
        <time>2020-10-07T12:57:25.172Z</time>
      </trkpt>
      <trkpt lat="53.39208" lon="22.58303">
        <ele>120.651743</ele>
        <time>2020-10-07T12:57:39.063Z</time>
      </trkpt>
      <trkpt lat="53.39079" lon="22.58299">
        <ele>120.647393</ele>
        <time>2020-10-07T12:58:08.218Z</time>
      </trkpt>
      <trkpt lat="53.38995" lon="22.58306">
        <ele>120.475351</ele>
        <time>2020-10-07T12:58:26.340Z</time>
      </trkpt>
      <trkpt lat="53.38808" lon="22.5835">
        <ele>120.203476</ele>
        <time>2020-10-07T12:59:06.027Z</time>
      </trkpt>
      <trkpt lat="53.38685" lon="22.58376">
        <ele>120.327934</ele>
        <time>2020-10-07T12:59:34.884Z</time>
      </trkpt>
      <trkpt lat="53.38611" lon="22.58392">
        <ele>120.705567</ele>
        <time>2020-10-07T12:59:54.035Z</time>
      </trkpt>
      <trkpt lat="53.38566" lon="22.58397">
        <ele>120.933591</ele>
        <time>2020-10-07T13:00:05.232Z</time>
      </trkpt>
      <trkpt lat="53.38503" lon="22.58402">
        <ele>121.001226</ele>
        <time>2020-10-07T13:00:20.375Z</time>
      </trkpt>
      <trkpt lat="53.37681" lon="22.5846">
        <ele>116.521881</ele>
        <time>2020-10-07T13:03:05.976Z</time>
      </trkpt>
      <trkpt lat="53.37607" lon="22.58475">
        <ele>116.500217</ele>
        <time>2020-10-07T13:03:24.194Z</time>
      </trkpt>
      <trkpt lat="53.37521" lon="22.58523">
        <ele>116.971898</ele>
        <time>2020-10-07T13:03:47.924Z</time>
      </trkpt>
      <trkpt lat="53.37479" lon="22.58562">
        <ele>117.220925</ele>
        <time>2020-10-07T13:04:00.651Z</time>
      </trkpt>
      <trkpt lat="53.37351" lon="22.58699">
        <ele>115.136981</ele>
        <time>2020-10-07T13:04:30.004Z</time>
      </trkpt>
      <trkpt lat="53.37235" lon="22.58822">
        <ele>111.412504</ele>
        <time>2020-10-07T13:04:51.818Z</time>
      </trkpt>
      <trkpt lat="53.37229" lon="22.58829">
        <ele>111.168426</ele>
        <time>2020-10-07T13:04:52.976Z</time>
      </trkpt>
      <trkpt lat="53.37129" lon="22.58935">
        <ele>108.197455</ele>
        <time>2020-10-07T13:05:12.446Z</time>
      </trkpt>
      <trkpt lat="53.37061" lon="22.59007">
        <ele>107.688732</ele>
        <time>2020-10-07T13:05:27.783Z</time>
      </trkpt>
      <trkpt lat="53.37045" lon="22.59024">
        <ele>107.563936</ele>
        <time>2020-10-07T13:05:32.480Z</time>
      </trkpt>
      <trkpt lat="53.36964" lon="22.5911">
        <ele>108.201522</ele>
        <time>2020-10-07T13:06:00.086Z</time>
      </trkpt>
      <trkpt lat="53.36866" lon="22.59214">
        <ele>110.344682</ele>
        <time>2020-10-07T13:06:35.964Z</time>
      </trkpt>
      <trkpt lat="53.36409" lon="22.59701">
        <ele>118.346731</ele>
        <time>2020-10-07T13:09:09.166Z</time>
      </trkpt>
      <trkpt lat="53.36241" lon="22.59879">
        <ele>119.702914</ele>
        <time>2020-10-07T13:09:57.751Z</time>
      </trkpt>
      <trkpt lat="53.36209" lon="22.59907">
        <ele>119.869217</ele>
        <time>2020-10-07T13:10:06.540Z</time>
      </trkpt>
      <trkpt lat="53.36183" lon="22.59925">
        <ele>120.001591</ele>
        <time>2020-10-07T13:10:13.549Z</time>
      </trkpt>
      <trkpt lat="53.36154" lon="22.59942">
        <ele>120.146011</ele>
        <time>2020-10-07T13:10:21.285Z</time>
      </trkpt>
      <trkpt lat="53.36093" lon="22.59965">
        <ele>120.434645</ele>
        <time>2020-10-07T13:10:36.182Z</time>
      </trkpt>
      <trkpt lat="53.36013" lon="22.59966">
        <ele>120.038299</ele>
        <time>2020-10-07T13:10:54.520Z</time>
      </trkpt>
      <trkpt lat="53.35441" lon="22.59858">
        <ele>115.665661</ele>
        <time>2020-10-07T13:12:47.582Z</time>
      </trkpt>
      <trkpt lat="53.35146" lon="22.59802">
        <ele>113.120213</ele>
        <time>2020-10-07T13:13:45.123Z</time>
      </trkpt>
      <trkpt lat="53.34815" lon="22.59737">
        <ele>112.146331</ele>
        <time>2020-10-07T13:14:55.560Z</time>
      </trkpt>
      <trkpt lat="53.34716" lon="22.59725">
        <ele>113.151208</ele>
        <time>2020-10-07T13:15:20.942Z</time>
      </trkpt>
      <trkpt lat="53.34669" lon="22.59729">
        <ele>113.62498</ele>
        <time>2020-10-07T13:15:34.190Z</time>
      </trkpt>
      <trkpt lat="53.34393" lon="22.59777">
        <ele>118.287421</ele>
        <time>2020-10-07T13:16:59.084Z</time>
      </trkpt>
      <trkpt lat="53.3424" lon="22.59804">
        <ele>118.827075</ele>
        <time>2020-10-07T13:17:35.366Z</time>
      </trkpt>
      <trkpt lat="53.33677" lon="22.59897">
        <ele>112.647454</ele>
        <time>2020-10-07T13:19:20.688Z</time>
      </trkpt>
      <trkpt lat="53.33438" lon="22.59934">
        <ele>111.790496</ele>
        <time>2020-10-07T13:20:15.636Z</time>
      </trkpt>
      <trkpt lat="53.32951" lon="22.60011">
        <ele>106.958439</ele>
        <time>2020-10-07T13:21:47.670Z</time>
      </trkpt>
      <trkpt lat="53.31992" lon="22.60163">
        <ele>102.824887</ele>
        <time>2020-10-07T13:25:09.525Z</time>
      </trkpt>
      <trkpt lat="53.31671" lon="22.60214">
        <ele>102.59386</ele>
        <time>2020-10-07T13:26:21.564Z</time>
      </trkpt>
      <trkpt lat="53.31661" lon="22.60215">
        <ele>102.584636</ele>
        <time>2020-10-07T13:26:23.766Z</time>
      </trkpt>
      <trkpt lat="53.31448" lon="22.60248">
        <ele>102.176186</ele>
        <time>2020-10-07T13:27:09.281Z</time>
      </trkpt>
      <trkpt lat="53.30499" lon="22.60399">
        <ele>101.936632</ele>
        <time>2020-10-07T13:30:40.154Z</time>
      </trkpt>
      <trkpt lat="53.30182" lon="22.60449">
        <ele>102.810028</ele>
        <time>2020-10-07T13:31:55.980Z</time>
      </trkpt>
      <trkpt lat="53.30173" lon="22.60451">
        <ele>102.832877</ele>
        <time>2020-10-07T13:31:57.954Z</time>
      </trkpt>
      <trkpt lat="53.29977" lon="22.60481">
        <ele>102.123449</ele>
        <time>2020-10-07T13:32:39.023Z</time>
      </trkpt>
      <trkpt lat="53.29838" lon="22.60503">
        <ele>101.290736</ele>
        <time>2020-10-07T13:33:06.867Z</time>
      </trkpt>
      <trkpt lat="53.29781" lon="22.60524">
        <ele>101.138989</ele>
        <time>2020-10-07T13:33:18.679Z</time>
      </trkpt>
      <trkpt lat="53.28722" lon="22.6108">
        <ele>101.150614</ele>
        <time>2020-10-07T13:37:26.825Z</time>
      </trkpt>
      <trkpt lat="53.27575" lon="22.61681">
        <ele>102.256399</ele>
        <time>2020-10-07T13:41:59.130Z</time>
      </trkpt>
      <trkpt lat="53.27528" lon="22.61696">
        <ele>102.172363</ele>
        <time>2020-10-07T13:42:09.744Z</time>
      </trkpt>
      <trkpt lat="53.26931" lon="22.61765">
        <ele>101.418423</ele>
        <time>2020-10-07T13:44:18.750Z</time>
      </trkpt>
      <trkpt lat="53.26919" lon="22.61765">
        <ele>101.42788</ele>
        <time>2020-10-07T13:44:21.630Z</time>
      </trkpt>
      <trkpt lat="53.26904" lon="22.61763">
        <ele>101.439267</ele>
        <time>2020-10-07T13:44:25.021Z</time>
      </trkpt>
      <trkpt lat="53.26846" lon="22.61741">
        <ele>101.638698</ele>
        <time>2020-10-07T13:44:39.446Z</time>
      </trkpt>
      <trkpt lat="53.26427" lon="22.61477">
        <ele>105.19958</ele>
        <time>2020-10-07T13:46:34.510Z</time>
      </trkpt>
      <trkpt lat="53.26381" lon="22.61424">
        <ele>105.586502</ele>
        <time>2020-10-07T13:46:48.304Z</time>
      </trkpt>
      <trkpt lat="53.26341" lon="22.61336">
        <ele>105.693348</ele>
        <time>2020-10-07T13:47:03.831Z</time>
      </trkpt>
      <trkpt lat="53.2601" lon="22.60364">
        <ele>105.79091</ele>
        <time>2020-10-07T13:49:31.990Z</time>
      </trkpt>
      <trkpt lat="53.26002" lon="22.60344">
        <ele>105.888887</ele>
        <time>2020-10-07T13:49:35.668Z</time>
      </trkpt>
      <trkpt lat="53.25937" lon="22.60153">
        <ele>106.82789</ele>
        <time>2020-10-07T13:50:09.568Z</time>
      </trkpt>
      <trkpt lat="53.25911" lon="22.60082">
        <ele>107.079462</ele>
        <time>2020-10-07T13:50:22.499Z</time>
      </trkpt>
      <trkpt lat="53.25863" lon="22.60006">
        <ele>107.106997</ele>
        <time>2020-10-07T13:50:38.610Z</time>
      </trkpt>
      <trkpt lat="53.24768" lon="22.58759">
        <ele>107.47871</ele>
        <time>2020-10-07T13:55:33.551Z</time>
      </trkpt>
      <trkpt lat="53.24717" lon="22.58685">
        <ele>107.252708</ele>
        <time>2020-10-07T13:55:47.788Z</time>
      </trkpt>
      <trkpt lat="53.24156" lon="22.57478">
        <ele>102.113195</ele>
        <time>2020-10-07T13:58:54.079Z</time>
      </trkpt>
      <trkpt lat="53.24147" lon="22.57458">
        <ele>102.057845</ele>
        <time>2020-10-07T13:58:57.006Z</time>
      </trkpt>
      <trkpt lat="53.23991" lon="22.57123">
        <ele>101.47789</ele>
        <time>2020-10-07T13:59:51.453Z</time>
      </trkpt>
      <trkpt lat="53.23918" lon="22.56964">
        <ele>101.614384</ele>
        <time>2020-10-07T14:00:19.353Z</time>
      </trkpt>
      <trkpt lat="53.23873" lon="22.56899">
        <ele>101.748663</ele>
        <time>2020-10-07T14:00:33.317Z</time>
      </trkpt>
      <trkpt lat="53.23842" lon="22.56874">
        <ele>101.826367</ele>
        <time>2020-10-07T14:00:41.327Z</time>
      </trkpt>
      <trkpt lat="53.23806" lon="22.56858">
        <ele>101.845836</ele>
        <time>2020-10-07T14:00:49.779Z</time>
      </trkpt>
      <trkpt lat="53.2365" lon="22.56806">
        <ele>101.849738</ele>
        <time>2020-10-07T14:01:25.370Z</time>
      </trkpt>
      <trkpt lat="53.23583" lon="22.56784">
        <ele>101.699901</ele>
        <time>2020-10-07T14:01:39.812Z</time>
      </trkpt>
      <trkpt lat="53.23433" lon="22.56736">
        <ele>101.363102</ele>
        <time>2020-10-07T14:02:12.105Z</time>
      </trkpt>
      <trkpt lat="53.23141" lon="22.56639">
        <ele>100.82618</ele>
        <time>2020-10-07T14:03:16.498Z</time>
      </trkpt>
      <trkpt lat="53.22708" lon="22.56499">
        <ele>100.505958</ele>
        <time>2020-10-07T14:04:53.619Z</time>
      </trkpt>
      <trkpt lat="53.22038" lon="22.56279">
        <ele>100.054113</ele>
        <time>2020-10-07T14:07:24.216Z</time>
      </trkpt>
      <trkpt lat="53.21998" lon="22.56262">
        <ele>99.993654</ele>
        <time>2020-10-07T14:07:32.773Z</time>
      </trkpt>
      <trkpt lat="53.21976" lon="22.56244">
        <ele>99.956214</ele>
        <time>2020-10-07T14:07:38.168Z</time>
      </trkpt>
      <trkpt lat="53.21948" lon="22.56212">
        <ele>99.905263</ele>
        <time>2020-10-07T14:07:45.487Z</time>
      </trkpt>
      <trkpt lat="53.21922" lon="22.56171">
        <ele>99.852756</ele>
        <time>2020-10-07T14:07:53.068Z</time>
      </trkpt>
      <trkpt lat="53.21909" lon="22.56143">
        <ele>99.851044</ele>
        <time>2020-10-07T14:07:57.627Z</time>
      </trkpt>
      <trkpt lat="53.21716" lon="22.55709">
        <ele>100.46905</ele>
        <time>2020-10-07T14:09:12.481Z</time>
      </trkpt>
      <trkpt lat="53.21634" lon="22.55523">
        <ele>101.176265</ele>
        <time>2020-10-07T14:09:45.641Z</time>
      </trkpt>
      <trkpt lat="53.21532" lon="22.55296">
        <ele>102.819848</ele>
        <time>2020-10-07T14:10:29.038Z</time>
      </trkpt>
      <trkpt lat="53.21477" lon="22.55172">
        <ele>104.052589</ele>
        <time>2020-10-07T14:10:55.935Z</time>
      </trkpt>
      <trkpt lat="53.21458" lon="22.5513">
        <ele>104.633385</ele>
        <time>2020-10-07T14:11:05.628Z</time>
      </trkpt>
      <trkpt lat="53.21357" lon="22.549">
        <ele>107.499839</ele>
        <time>2020-10-07T14:11:56.739Z</time>
      </trkpt>
      <trkpt lat="53.21325" lon="22.5483">
        <ele>108.066352</ele>
        <time>2020-10-07T14:12:10.672Z</time>
      </trkpt>
      <trkpt lat="53.21296" lon="22.54775">
        <ele>108.541521</ele>
        <time>2020-10-07T14:12:21.991Z</time>
      </trkpt>
      <trkpt lat="53.21262" lon="22.54736">
        <ele>108.986879</ele>
        <time>2020-10-07T14:12:32.297Z</time>
      </trkpt>
      <trkpt lat="53.21237" lon="22.54718">
        <ele>109.099031</ele>
        <time>2020-10-07T14:12:38.796Z</time>
      </trkpt>
      <trkpt lat="53.21177" lon="22.54698">
        <ele>109.294151</ele>
        <time>2020-10-07T14:12:53.227Z</time>
      </trkpt>
      <trkpt lat="53.21149" lon="22.547">
        <ele>109.383734</ele>
        <time>2020-10-07T14:12:59.799Z</time>
      </trkpt>
      <trkpt lat="53.21106" lon="22.54717">
        <ele>109.52763</ele>
        <time>2020-10-07T14:13:10.271Z</time>
      </trkpt>
      <trkpt lat="53.20776" lon="22.54906">
        <ele>109.762745</ele>
        <time>2020-10-07T14:14:28.836Z</time>
      </trkpt>
      <trkpt lat="53.20654" lon="22.54976">
        <ele>109.372728</ele>
        <time>2020-10-07T14:14:56.351Z</time>
      </trkpt>
      <trkpt lat="53.20646" lon="22.54978">
        <ele>109.338358</ele>
        <time>2020-10-07T14:14:58.085Z</time>
      </trkpt>
      <trkpt lat="53.20637" lon="22.54977">
        <ele>109.302485</ele>
        <time>2020-10-07T14:14:59.709Z</time>
      </trkpt>
      <trkpt lat="53.20523" lon="22.54899">
        <ele>109.021433</ele>
        <time>2020-10-07T14:15:24.887Z</time>
      </trkpt>
      <trkpt lat="53.20509" lon="22.54896">
        <ele>109.02003</ele>
        <time>2020-10-07T14:15:27.863Z</time>
      </trkpt>
      <trkpt lat="53.20506" lon="22.54898">
        <ele>109.019655</ele>
        <time>2020-10-07T14:15:28.482Z</time>
      </trkpt>
      <trkpt lat="53.20501" lon="22.54878">
        <ele>109.018381</ele>
        <time>2020-10-07T14:15:31.193Z</time>
      </trkpt>
      <trkpt lat="53.20497" lon="22.54879">
        <ele>109.017937</ele>
        <time>2020-10-07T14:15:32.128Z</time>
      </trkpt>
      <trkpt lat="53.20485" lon="22.54874">
        <ele>109.016617</ele>
        <time>2020-10-07T14:15:34.967Z</time>
      </trkpt>
      <trkpt lat="53.19873" lon="22.5446">
        <ele>111.96757</ele>
        <time>2020-10-07T14:18:18.945Z</time>
      </trkpt>
      <trkpt lat="53.19576" lon="22.54258">
        <ele>107.980757</ele>
        <time>2020-10-07T14:19:17.342Z</time>
      </trkpt>
      <trkpt lat="53.19521" lon="22.54236">
        <ele>108.086468</ele>
        <time>2020-10-07T14:19:28.378Z</time>
      </trkpt>
      <trkpt lat="53.19493" lon="22.54236">
        <ele>108.138196</ele>
        <time>2020-10-07T14:19:34.003Z</time>
      </trkpt>
      <trkpt lat="53.18544" lon="22.54344">
        <ele>109.83114</ele>
        <time>2020-10-07T14:23:18.199Z</time>
      </trkpt>
      <trkpt lat="53.184" lon="22.54358">
        <ele>109.492418</ele>
        <time>2020-10-07T14:23:47.964Z</time>
      </trkpt>
      <trkpt lat="53.17698" lon="22.5444">
        <ele>107.60642</ele>
        <time>2020-10-07T14:26:15.180Z</time>
      </trkpt>
      <trkpt lat="53.17042" lon="22.54517">
        <ele>111.243242</ele>
        <time>2020-10-07T14:28:59.808Z</time>
      </trkpt>
      <trkpt lat="53.1701" lon="22.54517">
        <ele>111.343232</ele>
        <time>2020-10-07T14:29:07.371Z</time>
      </trkpt>
      <trkpt lat="53.16984" lon="22.54512">
        <ele>111.422079</ele>
        <time>2020-10-07T14:29:13.229Z</time>
      </trkpt>
      <trkpt lat="53.1696" lon="22.54503">
        <ele>111.498229</ele>
        <time>2020-10-07T14:29:18.908Z</time>
      </trkpt>
      <trkpt lat="53.16679" lon="22.54341">
        <ele>112.076997</ele>
        <time>2020-10-07T14:30:27.515Z</time>
      </trkpt>
      <trkpt lat="53.15597" lon="22.53717">
        <ele>113.728706</ele>
        <time>2020-10-07T14:34:47.773Z</time>
      </trkpt>
      <trkpt lat="53.1574" lon="22.53268">
        <ele>115.027528</ele>
        <time>2020-10-07T14:36:49.251Z</time>
      </trkpt>
      <trkpt lat="53.15746" lon="22.53229">
        <ele>114.998548</ele>
        <time>2020-10-07T14:36:58.358Z</time>
      </trkpt>
      <trkpt lat="53.15743" lon="22.53159">
        <ele>114.948615</ele>
        <time>2020-10-07T14:37:13.754Z</time>
      </trkpt>
      <trkpt lat="53.15508" lon="22.51454">
        <ele>104.700175</ele>
        <time>2020-10-07T14:43:07.728Z</time>
      </trkpt>
      <trkpt lat="53.15455" lon="22.51078">
        <ele>103.55922</ele>
        <time>2020-10-07T14:44:30.654Z</time>
      </trkpt>
      <trkpt lat="53.15351" lon="22.50328">
        <ele>102.688637</ele>
        <time>2020-10-07T14:47:18.415Z</time>
      </trkpt>
      <trkpt lat="53.15378" lon="22.50317">
        <ele>102.703562</ele>
        <time>2020-10-07T14:47:28.815Z</time>
      </trkpt>
      <trkpt lat="53.15351" lon="22.50328">
        <ele>102.718488</ele>
        <time>2020-10-07T14:47:39.224Z</time>
      </trkpt>
      <trkpt lat="53.15309" lon="22.50027">
        <ele>102.959058</ele>
        <time>2020-10-07T14:48:50.074Z</time>
      </trkpt>
      <trkpt lat="53.1515" lon="22.48872">
        <ele>102.772988</ele>
        <time>2020-10-07T14:53:11.963Z</time>
      </trkpt>
      <trkpt lat="53.15114" lon="22.48617">
        <ele>103.175958</ele>
        <time>2020-10-07T14:54:13.861Z</time>
      </trkpt>
      <trkpt lat="53.14948" lon="22.47416">
        <ele>103.777157</ele>
        <time>2020-10-07T14:58:50.210Z</time>
      </trkpt>
      <trkpt lat="53.14908" lon="22.47127">
        <ele>103.781731</ele>
        <time>2020-10-07T14:59:56.323Z</time>
      </trkpt>
      <trkpt lat="53.14747" lon="22.45966">
        <ele>103.228669</ele>
        <time>2020-10-07T15:04:21.015Z</time>
      </trkpt>
      <trkpt lat="53.14711" lon="22.45698">
        <ele>102.644435</ele>
        <time>2020-10-07T15:05:18.392Z</time>
      </trkpt>
      <trkpt lat="53.14703" lon="22.45643">
        <ele>102.507798</ele>
        <time>2020-10-07T15:05:30.255Z</time>
      </trkpt>
      <trkpt lat="53.14543" lon="22.44492">
        <ele>103.079988</ele>
        <time>2020-10-07T15:09:58.005Z</time>
      </trkpt>
      <trkpt lat="53.14341" lon="22.4304">
        <ele>101.962339</ele>
        <time>2020-10-07T15:15:25.290Z</time>
      </trkpt>
      <trkpt lat="53.14296" lon="22.42708">
        <ele>101.931566</ele>
        <time>2020-10-07T15:16:41.399Z</time>
      </trkpt>
      <trkpt lat="53.14216" lon="22.42125">
        <ele>102.22425</ele>
        <time>2020-10-07T15:18:55.744Z</time>
      </trkpt>
      <trkpt lat="53.14198" lon="22.42011">
        <ele>102.312833</ele>
        <time>2020-10-07T15:19:22.371Z</time>
      </trkpt>
      <trkpt lat="53.14101" lon="22.41554">
        <ele>102.668757</ele>
        <time>2020-10-07T15:21:12.621Z</time>
      </trkpt>
      <trkpt lat="53.14048" lon="22.41295">
        <ele>102.33724</ele>
        <time>2020-10-07T15:22:12.406Z</time>
      </trkpt>
      <trkpt lat="53.14043" lon="22.41229">
        <ele>102.218385</ele>
        <time>2020-10-07T15:22:26.563Z</time>
      </trkpt>
      <trkpt lat="53.14043" lon="22.41152">
        <ele>102.01566</ele>
        <time>2020-10-07T15:22:42.827Z</time>
      </trkpt>
      <trkpt lat="53.14077" lon="22.40852">
        <ele>101.19366</ele>
        <time>2020-10-07T15:23:47.339Z</time>
      </trkpt>
      <trkpt lat="53.14092" lon="22.40771">
        <ele>101.142299</ele>
        <time>2020-10-07T15:24:06.002Z</time>
      </trkpt>
      <trkpt lat="53.14141" lon="22.40604">
        <ele>101.065343</ele>
        <time>2020-10-07T15:24:47.667Z</time>
      </trkpt>
      <trkpt lat="53.14146" lon="22.40578">
        <ele>101.088647</ele>
        <time>2020-10-07T15:24:53.904Z</time>
      </trkpt>
      <trkpt lat="53.14152" lon="22.40551">
        <ele>101.113346</ele>
        <time>2020-10-07T15:25:00.511Z</time>
      </trkpt>
      <trkpt lat="53.1421" lon="22.40124">
        <ele>101.492102</ele>
        <time>2020-10-07T15:26:39.847Z</time>
      </trkpt>
      <trkpt lat="53.1423" lon="22.39981">
        <ele>101.607122</ele>
        <time>2020-10-07T15:27:12.961Z</time>
      </trkpt>
      <trkpt lat="53.14227" lon="22.39918">
        <ele>101.648774</ele>
        <time>2020-10-07T15:27:27.059Z</time>
      </trkpt>
      <trkpt lat="53.14192" lon="22.39662">
        <ele>101.751323</ele>
        <time>2020-10-07T15:28:26.239Z</time>
      </trkpt>
      <trkpt lat="53.14198" lon="22.39607">
        <ele>101.74404</ele>
        <time>2020-10-07T15:28:38.757Z</time>
      </trkpt>
      <trkpt lat="53.14236" lon="22.39464">
        <ele>101.72156</ele>
        <time>2020-10-07T15:29:13.502Z</time>
      </trkpt>
      <trkpt lat="53.14243" lon="22.39404">
        <ele>101.681298</ele>
        <time>2020-10-07T15:29:27.035Z</time>
      </trkpt>
      <trkpt lat="53.14232" lon="22.39347">
        <ele>101.641944</ele>
        <time>2020-10-07T15:29:40.246Z</time>
      </trkpt>
      <trkpt lat="53.14168" lon="22.39165">
        <ele>101.48514</ele>
        <time>2020-10-07T15:30:26.459Z</time>
      </trkpt>
      <trkpt lat="53.14101" lon="22.39059">
        <ele>101.308163</ele>
        <time>2020-10-07T15:31:00.160Z</time>
      </trkpt>
      <trkpt lat="53.14089" lon="22.39032">
        <ele>101.270121</ele>
        <time>2020-10-07T15:31:07.391Z</time>
      </trkpt>
      <trkpt lat="53.14076" lon="22.38966">
        <ele>101.19004</ele>
        <time>2020-10-07T15:31:22.567Z</time>
      </trkpt>
      <trkpt lat="53.14043" lon="22.38686">
        <ele>100.817821</ele>
        <time>2020-10-07T15:32:24.864Z</time>
      </trkpt>
      <trkpt lat="53.13808" lon="22.36717">
        <ele>98.83975</ele>
        <time>2020-10-07T15:39:44.652Z</time>
      </trkpt>
      <trkpt lat="53.13787" lon="22.36715">
        <ele>98.812116</ele>
        <time>2020-10-07T15:39:52.304Z</time>
      </trkpt>
      <trkpt lat="53.11783" lon="22.37146">
        <ele>99.927521</ele>
        <time>2020-10-07T15:52:26.742Z</time>
      </trkpt>
      <trkpt lat="53.1144" lon="22.37229">
        <ele>100.513004</ele>
        <time>2020-10-07T15:54:37.755Z</time>
      </trkpt>
      <trkpt lat="53.1142" lon="22.37229">
        <ele>100.548735</ele>
        <time>2020-10-07T15:54:45.267Z</time>
      </trkpt>
      <trkpt lat="53.11407" lon="22.37228">
        <ele>100.570205</ele>
        <time>2020-10-07T15:54:50.026Z</time>
      </trkpt>
      <trkpt lat="53.11389" lon="22.37066">
        <ele>100.737456</ele>
        <time>2020-10-07T15:55:27.321Z</time>
      </trkpt>
      <trkpt lat="53.11376" lon="22.37033">
        <ele>100.776842</ele>
        <time>2020-10-07T15:55:36.086Z</time>
      </trkpt>
      <trkpt lat="53.11202" lon="22.36791">
        <ele>101.478753</ele>
        <time>2020-10-07T15:57:03.006Z</time>
      </trkpt>
      <trkpt lat="53.11187" lon="22.36755">
        <ele>101.613279</ele>
        <time>2020-10-07T15:57:13.810Z</time>
      </trkpt>
      <trkpt lat="53.11146" lon="22.36543">
        <ele>102.306468</ele>
        <time>2020-10-07T15:58:06.453Z</time>
      </trkpt>
      <trkpt lat="53.11146" lon="22.36543">
        <ele>102.306468</ele>
        <time>2020-10-07T15:58:06.631Z</time>
      </trkpt>
      <trkpt lat="53.11118" lon="22.36567">
        <ele>102.431243</ele>
        <time>2020-10-07T15:58:18.256Z</time>
      </trkpt>
      <trkpt lat="53.11106" lon="22.36589">
        <ele>102.482457</ele>
        <time>2020-10-07T15:58:25.367Z</time>
      </trkpt>
      <trkpt lat="53.1105" lon="22.36789">
        <ele>102.859144</ele>
        <time>2020-10-07T15:59:15.190Z</time>
      </trkpt>
      <trkpt lat="53.11042" lon="22.368">
        <ele>102.890968</ele>
        <time>2020-10-07T15:59:19.371Z</time>
      </trkpt>
      <trkpt lat="53.1103" lon="22.36804">
        <ele>102.985264</ele>
        <time>2020-10-07T15:59:23.742Z</time>
      </trkpt>
      <trkpt lat="53.10928" lon="22.36828">
        <ele>103.958955</ele>
        <time>2020-10-07T16:00:04.890Z</time>
      </trkpt>
      <trkpt lat="53.10868" lon="22.36842">
        <ele>104.522304</ele>
        <time>2020-10-07T16:00:30.430Z</time>
      </trkpt>
      <trkpt lat="53.10852" lon="22.3685">
        <ele>104.819126</ele>
        <time>2020-10-07T16:00:38.171Z</time>
      </trkpt>
      <trkpt lat="53.10829" lon="22.36874">
        <ele>105.401351</ele>
        <time>2020-10-07T16:00:50.127Z</time>
      </trkpt>
      <trkpt lat="53.10735" lon="22.36946">
        <ele>107.665376</ele>
        <time>2020-10-07T16:01:39.001Z</time>
      </trkpt>
      <trkpt lat="53.10657" lon="22.37006">
        <ele>108.971008</ele>
        <time>2020-10-07T16:02:05.657Z</time>
      </trkpt>
      <trkpt lat="53.10612" lon="22.3704">
        <ele>109.435703</ele>
        <time>2020-10-07T16:02:18.444Z</time>
      </trkpt>
      <trkpt lat="53.106" lon="22.37044">
        <ele>109.555178</ele>
        <time>2020-10-07T16:02:21.812Z</time>
      </trkpt>
      <trkpt lat="53.10601" lon="22.36847">
        <ele>110.270972</ele>
        <time>2020-10-07T16:02:48.715Z</time>
      </trkpt>
      <trkpt lat="53.10604" lon="22.36817">
        <ele>110.289661</ele>
        <time>2020-10-07T16:02:52.312Z</time>
      </trkpt>
      <trkpt lat="53.10613" lon="22.36784">
        <ele>110.311572</ele>
        <time>2020-10-07T16:02:56.967Z</time>
      </trkpt>
      <trkpt lat="53.10617" lon="22.36767">
        <ele>110.322648</ele>
        <time>2020-10-07T16:02:58.992Z</time>
      </trkpt>
      <trkpt lat="53.10616" lon="22.36731">
        <ele>110.344705</ele>
        <time>2020-10-07T16:03:03.732Z</time>
      </trkpt>
      <trkpt lat="53.10607" lon="22.36707">
        <ele>110.362193</ele>
        <time>2020-10-07T16:03:07.119Z</time>
      </trkpt>
      <trkpt lat="53.10368" lon="22.36303">
        <ele>113.612455</ele>
        <time>2020-10-07T16:04:38.617Z</time>
      </trkpt>
      <trkpt lat="53.10328" lon="22.36157">
        <ele>114.409899</ele>
        <time>2020-10-07T16:05:04.068Z</time>
      </trkpt>
      <trkpt lat="53.10113" lon="22.35391">
        <ele>116.018663</ele>
        <time>2020-10-07T16:07:03.165Z</time>
      </trkpt>
      <trkpt lat="53.10105" lon="22.35345">
        <ele>115.732729</ele>
        <time>2020-10-07T16:07:09.290Z</time>
      </trkpt>
      <trkpt lat="53.10101" lon="22.35249">
        <ele>115.167711</ele>
        <time>2020-10-07T16:07:21.076Z</time>
      </trkpt>
      <trkpt lat="53.10145" lon="22.34456">
        <ele>109.966633</ele>
        <time>2020-10-07T16:08:51.526Z</time>
      </trkpt>
      <trkpt lat="53.10154" lon="22.34375">
        <ele>109.340267</ele>
        <time>2020-10-07T16:09:00.765Z</time>
      </trkpt>
      <trkpt lat="53.10149" lon="22.34348">
        <ele>109.123463</ele>
        <time>2020-10-07T16:09:03.882Z</time>
      </trkpt>
      <trkpt lat="53.10087" lon="22.34238">
        <ele>108.024835</ele>
        <time>2020-10-07T16:09:21.014Z</time>
      </trkpt>
      <trkpt lat="53.10084" lon="22.34226">
        <ele>107.980743</ele>
        <time>2020-10-07T16:09:22.489Z</time>
      </trkpt>
      <trkpt lat="53.1011" lon="22.34161">
        <ele>107.727166</ele>
        <time>2020-10-07T16:09:31.905Z</time>
      </trkpt>
      <trkpt lat="53.10114" lon="22.34117">
        <ele>107.5838</ele>
        <time>2020-10-07T16:09:37.302Z</time>
      </trkpt>
      <trkpt lat="53.10121" lon="22.34081">
        <ele>107.460526</ele>
        <time>2020-10-07T16:09:42.233Z</time>
      </trkpt>
      <trkpt lat="53.10159" lon="22.3403">
        <ele>107.198522</ele>
        <time>2020-10-07T16:09:52.376Z</time>
      </trkpt>
      <trkpt lat="53.10162" lon="22.34019">
        <ele>107.160151</ele>
        <time>2020-10-07T16:09:53.961Z</time>
      </trkpt>
      <trkpt lat="53.10094" lon="22.33875">
        <ele>107.016047</ele>
        <time>2020-10-07T16:10:18.762Z</time>
      </trkpt>
      <trkpt lat="53.10078" lon="22.33855">
        <ele>107.002098</ele>
        <time>2020-10-07T16:10:23.321Z</time>
      </trkpt>
      <trkpt lat="53.09738" lon="22.33594">
        <ele>106.462194</ele>
        <time>2020-10-07T16:11:43.509Z</time>
      </trkpt>
      <trkpt lat="53.09718" lon="22.33581">
        <ele>106.443398</ele>
        <time>2020-10-07T16:11:48.260Z</time>
      </trkpt>
      <trkpt lat="53.09447" lon="22.3259">
        <ele>107.67708</ele>
        <time>2020-10-07T16:14:37.575Z</time>
      </trkpt>
      <trkpt lat="53.09441" lon="22.32543">
        <ele>107.614049</ele>
        <time>2020-10-07T16:14:44.150Z</time>
      </trkpt>
      <trkpt lat="53.09445" lon="22.32492">
        <ele>107.547167</ele>
        <time>2020-10-07T16:14:51.021Z</time>
      </trkpt>
      <trkpt lat="53.09478" lon="22.32323">
        <ele>107.307157</ele>
        <time>2020-10-07T16:15:15.109Z</time>
      </trkpt>
      <trkpt lat="53.09481" lon="22.32278">
        <ele>107.246013</ele>
        <time>2020-10-07T16:15:21.327Z</time>
      </trkpt>
      <trkpt lat="53.09475" lon="22.32211">
        <ele>107.153763</ele>
        <time>2020-10-07T16:15:31.004Z</time>
      </trkpt>
      <trkpt lat="53.09428" lon="22.31974">
        <ele>108.16528</ele>
        <time>2020-10-07T16:16:12.521Z</time>
      </trkpt>
      <trkpt lat="53.09369" lon="22.31578">
        <ele>111.189375</ele>
        <time>2020-10-07T16:17:28.102Z</time>
      </trkpt>
      <trkpt lat="53.0933" lon="22.3131">
        <ele>111.72939</ele>
        <time>2020-10-07T16:18:10.707Z</time>
      </trkpt>
      <trkpt lat="53.09305" lon="22.31109">
        <ele>111.649896</ele>
        <time>2020-10-07T16:18:39.950Z</time>
      </trkpt>
      <trkpt lat="53.09182" lon="22.30132">
        <ele>110.671793</ele>
        <time>2020-10-07T16:21:07.156Z</time>
      </trkpt>
      <trkpt lat="53.09158" lon="22.29911">
        <ele>108.433565</ele>
        <time>2020-10-07T16:21:34.223Z</time>
      </trkpt>
      <trkpt lat="53.0913" lon="22.2966">
        <ele>105.933906</ele>
        <time>2020-10-07T16:22:04.439Z</time>
      </trkpt>
      <trkpt lat="53.09122" lon="22.29612">
        <ele>105.475767</ele>
        <time>2020-10-07T16:22:10.798Z</time>
      </trkpt>
      <trkpt lat="53.09099" lon="22.29537">
        <ele>104.72136</ele>
        <time>2020-10-07T16:22:21.574Z</time>
      </trkpt>
      <trkpt lat="53.08819" lon="22.28871">
        <ele>105.362913</ele>
        <time>2020-10-07T16:24:22.725Z</time>
      </trkpt>
      <trkpt lat="53.08681" lon="22.285">
        <ele>109.191955</ele>
        <time>2020-10-07T16:25:51.880Z</time>
      </trkpt>
      <trkpt lat="53.0895" lon="22.28181">
        <ele>104.527171</ele>
        <time>2020-10-07T16:26:50.652Z</time>
      </trkpt>
      <trkpt lat="53.08966" lon="22.28164">
        <ele>104.378434</ele>
        <time>2020-10-07T16:26:54.121Z</time>
      </trkpt>
      <trkpt lat="53.08976" lon="22.28158">
        <ele>104.341766</ele>
        <time>2020-10-07T16:26:56.147Z</time>
      </trkpt>
      <trkpt lat="53.0899" lon="22.28154">
        <ele>104.291907</ele>
        <time>2020-10-07T16:26:58.882Z</time>
      </trkpt>
      <trkpt lat="53.08991" lon="22.28142">
        <ele>104.267656</ele>
        <time>2020-10-07T16:27:00.293Z</time>
      </trkpt>
      <trkpt lat="53.08924" lon="22.2753">
        <ele>104.464978</ele>
        <time>2020-10-07T16:28:25.160Z</time>
      </trkpt>
      <trkpt lat="53.0888" lon="22.27261">
        <ele>106.458341</ele>
        <time>2020-10-07T16:29:09.823Z</time>
      </trkpt>
      <trkpt lat="53.08774" lon="22.27122">
        <ele>109.352864</ele>
        <time>2020-10-07T16:29:54.439Z</time>
      </trkpt>
      <trkpt lat="53.08702" lon="22.27222">
        <ele>110.170532</ele>
        <time>2020-10-07T16:30:23.382Z</time>
      </trkpt>
      <trkpt lat="53.08506" lon="22.26915">
        <ele>109.419076</ele>
        <time>2020-10-07T16:31:17.300Z</time>
      </trkpt>
      <trkpt lat="53.08456" lon="22.26835">
        <ele>108.49296</ele>
        <time>2020-10-07T16:31:30.027Z</time>
      </trkpt>
      <trkpt lat="53.08065" lon="22.26206">
        <ele>101.19915</ele>
        <time>2020-10-07T16:33:11.091Z</time>
      </trkpt>
      <trkpt lat="53.0804" lon="22.26167">
        <ele>100.769246</ele>
        <time>2020-10-07T16:33:17.480Z</time>
      </trkpt>
      <trkpt lat="53.07995" lon="22.26104">
        <ele>100.029464</ele>
        <time>2020-10-07T16:33:28.679Z</time>
      </trkpt>
      <trkpt lat="53.07995" lon="22.26079">
        <ele>99.887074</ele>
        <time>2020-10-07T16:33:31.607Z</time>
      </trkpt>
      <trkpt lat="53.07985" lon="22.25883">
        <ele>99.186148</ele>
        <time>2020-10-07T16:33:55.250Z</time>
      </trkpt>
      <trkpt lat="53.07987" lon="22.25759">
        <ele>98.831061</ele>
        <time>2020-10-07T16:34:11.556Z</time>
      </trkpt>
      <trkpt lat="53.07992" lon="22.25705">
        <ele>98.781914</ele>
        <time>2020-10-07T16:34:18.853Z</time>
      </trkpt>
      <trkpt lat="53.08056" lon="22.25307">
        <ele>98.510483</ele>
        <time>2020-10-07T16:35:12.568Z</time>
      </trkpt>
      <trkpt lat="53.0811" lon="22.25152">
        <ele>98.582304</ele>
        <time>2020-10-07T16:35:36.817Z</time>
      </trkpt>
      <trkpt lat="53.08113" lon="22.25138">
        <ele>98.604767</ele>
        <time>2020-10-07T16:35:39.053Z</time>
      </trkpt>
      <trkpt lat="53.0812" lon="22.25095">
        <ele>98.669218</ele>
        <time>2020-10-07T16:35:45.136Z</time>
      </trkpt>
      <trkpt lat="53.08124" lon="22.25068">
        <ele>98.709057</ele>
        <time>2020-10-07T16:35:49.006Z</time>
      </trkpt>
      <trkpt lat="53.08125" lon="22.24948">
        <ele>98.881523</ele>
        <time>2020-10-07T16:36:05.778Z</time>
      </trkpt>
      <trkpt lat="53.08168" lon="22.24666">
        <ele>99.970437</ele>
        <time>2020-10-07T16:36:48.787Z</time>
      </trkpt>
      <trkpt lat="53.08204" lon="22.24449">
        <ele>101.518175</ele>
        <time>2020-10-07T16:37:25.572Z</time>
      </trkpt>
      <trkpt lat="53.08209" lon="22.24326">
        <ele>102.329065</ele>
        <time>2020-10-07T16:37:46.453Z</time>
      </trkpt>
      <trkpt lat="53.08221" lon="22.24191">
        <ele>102.946301</ele>
        <time>2020-10-07T16:38:08.120Z</time>
      </trkpt>
      <trkpt lat="53.08222" lon="22.24179">
        <ele>103.00443</ele>
        <time>2020-10-07T16:38:10.407Z</time>
      </trkpt>
      <trkpt lat="53.0823" lon="22.24172">
        <ele>103.069057</ele>
        <time>2020-10-07T16:38:13.670Z</time>
      </trkpt>
      <trkpt lat="53.08781" lon="22.23404">
        <ele>103.915503</ele>
        <time>2020-10-07T16:42:39.941Z</time>
      </trkpt>
      <trkpt lat="53.08848" lon="22.23235">
        <ele>105.024515</ele>
        <time>2020-10-07T16:43:30.893Z</time>
      </trkpt>
      <trkpt lat="53.08881" lon="22.23131">
        <ele>106.076621</ele>
        <time>2020-10-07T16:44:01.966Z</time>
      </trkpt>
      <trkpt lat="53.08918" lon="22.23015">
        <ele>107.184466</ele>
        <time>2020-10-07T16:44:36.552Z</time>
      </trkpt>
      <trkpt lat="53.09017" lon="22.22653">
        <ele>109.868491</ele>
        <time>2020-10-07T16:46:15.839Z</time>
      </trkpt>
      <trkpt lat="53.09207" lon="22.22158">
        <ele>112.883781</ele>
        <time>2020-10-07T16:48:38.194Z</time>
      </trkpt>
      <trkpt lat="53.09233" lon="22.22104">
        <ele>113.26168</ele>
        <time>2020-10-07T16:48:49.982Z</time>
      </trkpt>
      <trkpt lat="53.09248" lon="22.22069">
        <ele>113.492999</ele>
        <time>2020-10-07T16:48:57.216Z</time>
      </trkpt>
      <trkpt lat="53.09277" lon="22.21985">
        <ele>114.084544</ele>
        <time>2020-10-07T16:49:13.995Z</time>
      </trkpt>
      <trkpt lat="53.09402" lon="22.21701">
        <ele>116.171352</ele>
        <time>2020-10-07T16:50:17.131Z</time>
      </trkpt>
      <trkpt lat="53.09467" lon="22.21441">
        <ele>115.980963</ele>
        <time>2020-10-07T16:50:59.395Z</time>
      </trkpt>
      <trkpt lat="53.09534" lon="22.21233">
        <ele>113.748836</ele>
        <time>2020-10-07T16:51:27.642Z</time>
      </trkpt>
      <trkpt lat="53.09547" lon="22.21203">
        <ele>113.116295</ele>
        <time>2020-10-07T16:51:31.895Z</time>
      </trkpt>
      <trkpt lat="53.0966" lon="22.21019">
        <ele>108.779053</ele>
        <time>2020-10-07T16:52:01.315Z</time>
      </trkpt>
      <trkpt lat="53.09688" lon="22.20963">
        <ele>107.935869</ele>
        <time>2020-10-07T16:52:09.779Z</time>
      </trkpt>
      <trkpt lat="53.09726" lon="22.20885">
        <ele>106.773249</ele>
        <time>2020-10-07T16:52:20.413Z</time>
      </trkpt>
      <trkpt lat="53.09771" lon="22.20828">
        <ele>105.683828</ele>
        <time>2020-10-07T16:52:30.690Z</time>
      </trkpt>
      <trkpt lat="53.09881" lon="22.20713">
        <ele>104.81731</ele>
        <time>2020-10-07T16:52:57.063Z</time>
      </trkpt>
      <trkpt lat="53.10012" lon="22.20578">
        <ele>104.252048</ele>
        <time>2020-10-07T16:53:30.220Z</time>
      </trkpt>
      <trkpt lat="53.10238" lon="22.2037">
        <ele>103.562177</ele>
        <time>2020-10-07T16:54:24.937Z</time>
      </trkpt>
      <trkpt lat="53.10248" lon="22.20356">
        <ele>103.525849</ele>
        <time>2020-10-07T16:54:27.842Z</time>
      </trkpt>
      <trkpt lat="53.10257" lon="22.20338">
        <ele>103.484266</ele>
        <time>2020-10-07T16:54:30.980Z</time>
      </trkpt>
      <trkpt lat="53.10297" lon="22.20242">
        <ele>103.285825</ele>
        <time>2020-10-07T16:54:46.069Z</time>
      </trkpt>
      <trkpt lat="53.10309" lon="22.20222">
        <ele>103.237442</ele>
        <time>2020-10-07T16:54:49.814Z</time>
      </trkpt>
      <trkpt lat="53.10336" lon="22.20192">
        <ele>103.143088</ele>
        <time>2020-10-07T16:54:56.900Z</time>
      </trkpt>
      <trkpt lat="53.10367" lon="22.2023">
        <ele>103.03387</ele>
        <time>2020-10-07T16:55:04.994Z</time>
      </trkpt>
      <trkpt lat="53.1045" lon="22.20355">
        <ele>102.275645</ele>
        <time>2020-10-07T16:55:27.523Z</time>
      </trkpt>
      <trkpt lat="53.10479" lon="22.20388">
        <ele>102.035558</ele>
        <time>2020-10-07T16:55:34.130Z</time>
      </trkpt>
      <trkpt lat="53.10521" lon="22.20433">
        <ele>101.745732</ele>
        <time>2020-10-07T16:55:44.229Z</time>
      </trkpt>
      <trkpt lat="53.10544" lon="22.20443">
        <ele>101.697691</ele>
        <time>2020-10-07T16:55:49.012Z</time>
      </trkpt>
      <trkpt lat="53.10556" lon="22.20441">
        <ele>101.673349</ele>
        <time>2020-10-07T16:55:51.606Z</time>
      </trkpt>
      <trkpt lat="53.10568" lon="22.20431">
        <ele>101.647437</ele>
        <time>2020-10-07T16:55:54.120Z</time>
      </trkpt>
      <trkpt lat="53.10594" lon="22.20393">
        <ele>101.576799</ele>
        <time>2020-10-07T16:56:01.611Z</time>
      </trkpt>
      <trkpt lat="53.10686" lon="22.20294">
        <ele>101.553518</ele>
        <time>2020-10-07T16:56:26.500Z</time>
      </trkpt>
      <trkpt lat="53.1091" lon="22.20141">
        <ele>102.970277</ele>
        <time>2020-10-07T16:57:26.708Z</time>
      </trkpt>
      <trkpt lat="53.10982" lon="22.20104">
        <ele>103.444403</ele>
        <time>2020-10-07T16:57:45.408Z</time>
      </trkpt>
      <trkpt lat="53.11017" lon="22.20067">
        <ele>103.611155</ele>
        <time>2020-10-07T16:57:55.768Z</time>
      </trkpt>
      <trkpt lat="53.11065" lon="22.19994">
        <ele>103.764051</ele>
        <time>2020-10-07T16:58:11.300Z</time>
      </trkpt>
      <trkpt lat="53.11107" lon="22.1995">
        <ele>103.879543</ele>
        <time>2020-10-07T16:58:22.647Z</time>
      </trkpt>
      <trkpt lat="53.11222" lon="22.19852">
        <ele>103.687671</ele>
        <time>2020-10-07T16:58:50.577Z</time>
      </trkpt>
      <trkpt lat="53.11336" lon="22.19753">
        <ele>103.482321</ele>
        <time>2020-10-07T16:59:17.083Z</time>
      </trkpt>
      <trkpt lat="53.11409" lon="22.19687">
        <ele>103.680202</ele>
        <time>2020-10-07T16:59:34.893Z</time>
      </trkpt>
      <trkpt lat="53.11633" lon="22.19529">
        <ele>106.422393</ele>
        <time>2020-10-07T17:00:41.895Z</time>
      </trkpt>
      <trkpt lat="53.11651" lon="22.19511">
        <ele>106.731636</ele>
        <time>2020-10-07T17:00:48.375Z</time>
      </trkpt>
      <trkpt lat="53.11667" lon="22.1949">
        <ele>107.033449</ele>
        <time>2020-10-07T17:00:54.820Z</time>
      </trkpt>
      <trkpt lat="53.11681" lon="22.19469">
        <ele>107.323662</ele>
        <time>2020-10-07T17:01:00.687Z</time>
      </trkpt>
      <trkpt lat="53.11704" lon="22.19418">
        <ele>107.901905</ele>
        <time>2020-10-07T17:01:12.577Z</time>
      </trkpt>
      <trkpt lat="53.11722" lon="22.19347">
        <ele>108.599487</ele>
        <time>2020-10-07T17:01:26.763Z</time>
      </trkpt>
      <trkpt lat="53.1181" lon="22.18852">
        <ele>107.408642</ele>
        <time>2020-10-07T17:02:32.744Z</time>
      </trkpt>
      <trkpt lat="53.11823" lon="22.18805">
        <ele>106.975223</ele>
        <time>2020-10-07T17:02:37.906Z</time>
      </trkpt>
      <trkpt lat="53.11844" lon="22.18752">
        <ele>106.436919</ele>
        <time>2020-10-07T17:02:44.314Z</time>
      </trkpt>
      <trkpt lat="53.11906" lon="22.1865">
        <ele>104.883405</ele>
        <time>2020-10-07T17:02:58.846Z</time>
      </trkpt>
      <trkpt lat="53.11925" lon="22.18624">
        <ele>104.424126</ele>
        <time>2020-10-07T17:03:03.133Z</time>
      </trkpt>
      <trkpt lat="53.11956" lon="22.1858">
        <ele>103.662202</ele>
        <time>2020-10-07T17:03:10.446Z</time>
      </trkpt>
      <trkpt lat="53.11967" lon="22.18562">
        <ele>103.383289</ele>
        <time>2020-10-07T17:03:13.178Z</time>
      </trkpt>
      <trkpt lat="53.11978" lon="22.18541">
        <ele>103.069975</ele>
        <time>2020-10-07T17:03:16.532Z</time>
      </trkpt>
      <trkpt lat="53.12098" lon="22.18255">
        <ele>104.208919</ele>
        <time>2020-10-07T17:04:09.416Z</time>
      </trkpt>
      <trkpt lat="53.1224" lon="22.17816">
        <ele>107.949304</ele>
        <time>2020-10-07T17:05:32.926Z</time>
      </trkpt>
      <trkpt lat="53.12398" lon="22.17479">
        <ele>109.476283</ele>
        <time>2020-10-07T17:06:37.253Z</time>
      </trkpt>
      <trkpt lat="53.12473" lon="22.17387">
        <ele>109.091564</ele>
        <time>2020-10-07T17:06:56.159Z</time>
      </trkpt>
      <trkpt lat="53.12495" lon="22.17349">
        <ele>108.962904</ele>
        <time>2020-10-07T17:07:02.196Z</time>
      </trkpt>
      <trkpt lat="53.12679" lon="22.16869">
        <ele>105.528241</ele>
        <time>2020-10-07T17:08:08.008Z</time>
      </trkpt>
      <trkpt lat="53.12764" lon="22.1672">
        <ele>104.414631</ele>
        <time>2020-10-07T17:08:31.901Z</time>
      </trkpt>
      <trkpt lat="53.12782" lon="22.16678">
        <ele>104.150298</ele>
        <time>2020-10-07T17:08:37.942Z</time>
      </trkpt>
      <trkpt lat="53.12867" lon="22.16385">
        <ele>103.428901</ele>
        <time>2020-10-07T17:09:17.662Z</time>
      </trkpt>
      <trkpt lat="53.12887" lon="22.16352">
        <ele>103.384897</ele>
        <time>2020-10-07T17:09:24.692Z</time>
      </trkpt>
      <trkpt lat="53.12902" lon="22.16335">
        <ele>103.397389</ele>
        <time>2020-10-07T17:09:29.413Z</time>
      </trkpt>
      <trkpt lat="53.12934" lon="22.16301">
        <ele>104.126609</ele>
        <time>2020-10-07T17:09:39.679Z</time>
      </trkpt>
      <trkpt lat="53.12985" lon="22.16231">
        <ele>105.396111</ele>
        <time>2020-10-07T17:09:59.210Z</time>
      </trkpt>
      <trkpt lat="53.13" lon="22.16208">
        <ele>105.804965</ele>
        <time>2020-10-07T17:10:05.857Z</time>
      </trkpt>
      <trkpt lat="53.13051" lon="22.16099">
        <ele>107.649163</ele>
        <time>2020-10-07T17:10:33.403Z</time>
      </trkpt>
      <trkpt lat="53.13143" lon="22.15942">
        <ele>111.366353</ele>
        <time>2020-10-07T17:11:18.893Z</time>
      </trkpt>
      <trkpt lat="53.13149" lon="22.15922">
        <ele>111.749557</ele>
        <time>2020-10-07T17:11:23.159Z</time>
      </trkpt>
      <trkpt lat="53.13163" lon="22.15868">
        <ele>112.137314</ele>
        <time>2020-10-07T17:11:34.108Z</time>
      </trkpt>
      <trkpt lat="53.13171" lon="22.15845">
        <ele>112.263642</ele>
        <time>2020-10-07T17:11:39.209Z</time>
      </trkpt>
      <trkpt lat="53.13182" lon="22.15823">
        <ele>112.39928</ele>
        <time>2020-10-07T17:11:43.936Z</time>
      </trkpt>
      <trkpt lat="53.13195" lon="22.15805">
        <ele>112.532394</ele>
        <time>2020-10-07T17:11:49.145Z</time>
      </trkpt>
      <trkpt lat="53.13304" lon="22.15553">
        <ele>111.781252</ele>
        <time>2020-10-07T17:12:28.148Z</time>
      </trkpt>
      <trkpt lat="53.13393" lon="22.15447">
        <ele>109.786904</ele>
        <time>2020-10-07T17:12:46.178Z</time>
      </trkpt>
      <trkpt lat="53.13413" lon="22.15428">
        <ele>109.333899</ele>
        <time>2020-10-07T17:12:49.859Z</time>
      </trkpt>
      <trkpt lat="53.13439" lon="22.15418">
        <ele>108.805624</ele>
        <time>2020-10-07T17:12:54.326Z</time>
      </trkpt>
      <trkpt lat="53.13463" lon="22.15403">
        <ele>108.302292</ele>
        <time>2020-10-07T17:12:58.706Z</time>
      </trkpt>
      <trkpt lat="53.13603" lon="22.15254">
        <ele>106.214565</ele>
        <time>2020-10-07T17:13:30.605Z</time>
      </trkpt>
      <trkpt lat="53.13638" lon="22.15201">
        <ele>106.01354</ele>
        <time>2020-10-07T17:13:41.720Z</time>
      </trkpt>
      <trkpt lat="53.13746" lon="22.15001">
        <ele>105.709492</ele>
        <time>2020-10-07T17:14:16.890Z</time>
      </trkpt>
      <trkpt lat="53.13757" lon="22.14984">
        <ele>105.699772</ele>
        <time>2020-10-07T17:14:20.061Z</time>
      </trkpt>
      <trkpt lat="53.13784" lon="22.14958">
        <ele>105.680449</ele>
        <time>2020-10-07T17:14:26.660Z</time>
      </trkpt>
      <trkpt lat="53.13804" lon="22.14934">
        <ele>105.664657</ele>
        <time>2020-10-07T17:14:32.315Z</time>
      </trkpt>
      <trkpt lat="53.1388" lon="22.1481">
        <ele>106.564585</ele>
        <time>2020-10-07T17:14:58.193Z</time>
      </trkpt>
      <trkpt lat="53.13932" lon="22.14751">
        <ele>107.114708</ele>
        <time>2020-10-07T17:15:16.349Z</time>
      </trkpt>
      <trkpt lat="53.13964" lon="22.14705">
        <ele>107.365977</ele>
        <time>2020-10-07T17:15:28.707Z</time>
      </trkpt>
      <trkpt lat="53.14013" lon="22.14571">
        <ele>107.792183</ele>
        <time>2020-10-07T17:15:52.010Z</time>
      </trkpt>
      <trkpt lat="53.14023" lon="22.14554">
        <ele>107.856487</ele>
        <time>2020-10-07T17:15:55.969Z</time>
      </trkpt>
      <trkpt lat="53.14036" lon="22.14537">
        <ele>107.931935</ele>
        <time>2020-10-07T17:15:59.109Z</time>
      </trkpt>
      <trkpt lat="53.1415" lon="22.14388">
        <ele>106.67304</ele>
        <time>2020-10-07T17:16:27.019Z</time>
      </trkpt>
      <trkpt lat="53.14273" lon="22.14241">
        <ele>104.926942</ele>
        <time>2020-10-07T17:16:54.865Z</time>
      </trkpt>
      <trkpt lat="53.14398" lon="22.14026">
        <ele>103.633966</ele>
        <time>2020-10-07T17:17:30.377Z</time>
      </trkpt>
      <trkpt lat="53.14427" lon="22.13976">
        <ele>103.509783</ele>
        <time>2020-10-07T17:17:39.591Z</time>
      </trkpt>
      <trkpt lat="53.14432" lon="22.13982">
        <ele>103.492269</ele>
        <time>2020-10-07T17:17:40.727Z</time>
      </trkpt>
      <trkpt lat="53.14467" lon="22.1393">
        <ele>103.393675</ele>
        <time>2020-10-07T17:17:51.774Z</time>
      </trkpt>
      <trkpt lat="53.14523" lon="22.13827">
        <ele>103.863249</ele>
        <time>2020-10-07T17:18:12.457Z</time>
      </trkpt>
      <trkpt lat="53.14595" lon="22.13604">
        <ele>104.178163</ele>
        <time>2020-10-07T17:18:50.331Z</time>
      </trkpt>
      <trkpt lat="53.14616" lon="22.13558">
        <ele>104.063319</ele>
        <time>2020-10-07T17:18:57.752Z</time>
      </trkpt>
      <trkpt lat="53.14851" lon="22.13234">
        <ele>101.747987</ele>
        <time>2020-10-07T17:19:56.134Z</time>
      </trkpt>
      <trkpt lat="53.14954" lon="22.13073">
        <ele>101.242083</ele>
        <time>2020-10-07T17:20:26.633Z</time>
      </trkpt>
      <trkpt lat="53.15072" lon="22.12928">
        <ele>101.605075</ele>
        <time>2020-10-07T17:21:01.699Z</time>
      </trkpt>
      <trkpt lat="53.15202" lon="22.12705">
        <ele>101.597926</ele>
        <time>2020-10-07T17:21:43.651Z</time>
      </trkpt>
      <trkpt lat="53.1537" lon="22.12446">
        <ele>100.664581</ele>
        <time>2020-10-07T17:22:30.337Z</time>
      </trkpt>
      <trkpt lat="53.15499" lon="22.12196">
        <ele>100.57998</ele>
        <time>2020-10-07T17:23:13.865Z</time>
      </trkpt>
      <trkpt lat="53.15559" lon="22.12094">
        <ele>100.858405</ele>
        <time>2020-10-07T17:23:34.288Z</time>
      </trkpt>
      <trkpt lat="53.15703" lon="22.11867">
        <ele>102.032828</ele>
        <time>2020-10-07T17:24:23.043Z</time>
      </trkpt>
      <trkpt lat="53.15847" lon="22.11652">
        <ele>103.881465</ele>
        <time>2020-10-07T17:25:14.022Z</time>
      </trkpt>
      <trkpt lat="53.1585" lon="22.11632">
        <ele>104.005841</ele>
        <time>2020-10-07T17:25:17.413Z</time>
      </trkpt>
      <trkpt lat="53.15875" lon="22.11585">
        <ele>104.490414</ele>
        <time>2020-10-07T17:25:27.517Z</time>
      </trkpt>
      <trkpt lat="53.15884" lon="22.11567">
        <ele>104.685907</ele>
        <time>2020-10-07T17:25:31.269Z</time>
      </trkpt>
      <trkpt lat="53.1589" lon="22.11553">
        <ele>104.828801</ele>
        <time>2020-10-07T17:25:34.255Z</time>
      </trkpt>
      <trkpt lat="53.15935" lon="22.11467">
        <ele>105.759375</ele>
        <time>2020-10-07T17:25:52.912Z</time>
      </trkpt>
      <trkpt lat="53.15962" lon="22.11426">
        <ele>106.256383</ele>
        <time>2020-10-07T17:26:03.228Z</time>
      </trkpt>
      <trkpt lat="53.15996" lon="22.11366">
        <ele>106.990206</ele>
        <time>2020-10-07T17:26:17.552Z</time>
      </trkpt>
      <trkpt lat="53.16039" lon="22.11283">
        <ele>108.022316</ele>
        <time>2020-10-07T17:26:37.021Z</time>
      </trkpt>
      <trkpt lat="53.16114" lon="22.11141">
        <ele>109.265973</ele>
        <time>2020-10-07T17:27:17.436Z</time>
      </trkpt>
      <trkpt lat="53.16139" lon="22.11095">
        <ele>109.134683</ele>
        <time>2020-10-07T17:27:28.763Z</time>
      </trkpt>
      <trkpt lat="53.16164" lon="22.11051">
        <ele>109.003591</ele>
        <time>2020-10-07T17:27:39.271Z</time>
      </trkpt>
      <trkpt lat="53.16194" lon="22.11002">
        <ele>108.853042</ele>
        <time>2020-10-07T17:27:50.272Z</time>
      </trkpt>
      <trkpt lat="53.16322" lon="22.10794">
        <ele>106.275299</ele>
        <time>2020-10-07T17:28:33.039Z</time>
      </trkpt>
      <trkpt lat="53.16421" lon="22.10643">
        <ele>105.004094</ele>
        <time>2020-10-07T17:28:59.644Z</time>
      </trkpt>
      <trkpt lat="53.16453" lon="22.1059">
        <ele>104.715149</ele>
        <time>2020-10-07T17:29:08.963Z</time>
      </trkpt>
      <trkpt lat="53.16479" lon="22.10556">
        <ele>104.502972</ele>
        <time>2020-10-07T17:29:15.972Z</time>
      </trkpt>
      <trkpt lat="53.16521" lon="22.10539">
        <ele>104.336182</ele>
        <time>2020-10-07T17:29:25.483Z</time>
      </trkpt>
      <trkpt lat="53.16542" lon="22.10535">
        <ele>104.265173</ele>
        <time>2020-10-07T17:29:30.337Z</time>
      </trkpt>
      <trkpt lat="53.16547" lon="22.10535">
        <ele>104.249468</ele>
        <time>2020-10-07T17:29:31.100Z</time>
      </trkpt>
      <trkpt lat="53.16595" lon="22.10516">
        <ele>104.08308</ele>
        <time>2020-10-07T17:29:41.663Z</time>
      </trkpt>
      <trkpt lat="53.16635" lon="22.10483">
        <ele>103.930973</ele>
        <time>2020-10-07T17:29:50.754Z</time>
      </trkpt>
      <trkpt lat="53.16793" lon="22.10283">
        <ele>103.45841</ele>
        <time>2020-10-07T17:30:32.486Z</time>
      </trkpt>
      <trkpt lat="53.16921" lon="22.10047">
        <ele>104.53133</ele>
        <time>2020-10-07T17:31:20.584Z</time>
      </trkpt>
      <trkpt lat="53.16984" lon="22.09907">
        <ele>105.028423</ele>
        <time>2020-10-07T17:31:46.061Z</time>
      </trkpt>
      <trkpt lat="53.16988" lon="22.09901">
        <ele>105.054025</ele>
        <time>2020-10-07T17:31:47.781Z</time>
      </trkpt>
      <trkpt lat="53.16995" lon="22.09891">
        <ele>105.098583</ele>
        <time>2020-10-07T17:31:49.782Z</time>
      </trkpt>
      <trkpt lat="53.1701" lon="22.09877">
        <ele>105.17772</ele>
        <time>2020-10-07T17:31:53.710Z</time>
      </trkpt>
      <trkpt lat="53.17031" lon="22.09863">
        <ele>105.287752</ele>
        <time>2020-10-07T17:31:59.272Z</time>
      </trkpt>
      <trkpt lat="53.1705" lon="22.09851">
        <ele>105.351094</ele>
        <time>2020-10-07T17:32:03.801Z</time>
      </trkpt>
      <trkpt lat="53.17065" lon="22.09839">
        <ele>105.360916</ele>
        <time>2020-10-07T17:32:07.640Z</time>
      </trkpt>
      <trkpt lat="53.17083" lon="22.09817">
        <ele>105.37411</ele>
        <time>2020-10-07T17:32:13.006Z</time>
      </trkpt>
      <trkpt lat="53.17096" lon="22.09801">
        <ele>105.38362</ele>
        <time>2020-10-07T17:32:16.459Z</time>
      </trkpt>
      <trkpt lat="53.17251" lon="22.09615">
        <ele>106.267337</ele>
        <time>2020-10-07T17:32:58.769Z</time>
      </trkpt>
      <trkpt lat="53.1726" lon="22.09604">
        <ele>106.391284</ele>
        <time>2020-10-07T17:33:01.812Z</time>
      </trkpt>
      <trkpt lat="53.17292" lon="22.09563">
        <ele>106.848356</ele>
        <time>2020-10-07T17:33:12.956Z</time>
      </trkpt>
      <trkpt lat="53.17307" lon="22.09545">
        <ele>107.049927</ele>
        <time>2020-10-07T17:33:18.695Z</time>
      </trkpt>
      <trkpt lat="53.17327" lon="22.09516">
        <ele>107.350617</ele>
        <time>2020-10-07T17:33:27.009Z</time>
      </trkpt>
      <trkpt lat="53.17356" lon="22.09456">
        <ele>108.520842</ele>
        <time>2020-10-07T17:33:42.230Z</time>
      </trkpt>
      <trkpt lat="53.17362" lon="22.09444">
        <ele>108.782717</ele>
        <time>2020-10-07T17:33:45.144Z</time>
      </trkpt>
      <trkpt lat="53.17367" lon="22.09435">
        <ele>109.004599</ele>
        <time>2020-10-07T17:33:47.216Z</time>
      </trkpt>
      <trkpt lat="53.17369" lon="22.09431">
        <ele>109.115442</ele>
        <time>2020-10-07T17:33:48.439Z</time>
      </trkpt>
      <trkpt lat="53.17375" lon="22.09424">
        <ele>109.307322</ele>
        <time>2020-10-07T17:33:50.597Z</time>
      </trkpt>
      <trkpt lat="53.17375" lon="22.09415">
        <ele>109.465773</ele>
        <time>2020-10-07T17:33:52.840Z</time>
      </trkpt>
      <trkpt lat="53.17389" lon="22.09395">
        <ele>110.016042</ele>
        <time>2020-10-07T17:34:00.777Z</time>
      </trkpt>
      <trkpt lat="53.17391" lon="22.09387">
        <ele>110.171739</ele>
        <time>2020-10-07T17:34:02.970Z</time>
      </trkpt>
      <trkpt lat="53.17392" lon="22.09382">
        <ele>110.270706</ele>
        <time>2020-10-07T17:34:04.407Z</time>
      </trkpt>
      <trkpt lat="53.174" lon="22.09327">
        <ele>111.264225</ele>
        <time>2020-10-07T17:34:19.108Z</time>
      </trkpt>
      <trkpt lat="53.17406" lon="22.09291">
        <ele>111.915083</ele>
        <time>2020-10-07T17:34:28.700Z</time>
      </trkpt>
      <trkpt lat="53.17415" lon="22.0925">
        <ele>112.698905</ele>
        <time>2020-10-07T17:34:39.632Z</time>
      </trkpt>
      <trkpt lat="53.17418" lon="22.09239">
        <ele>112.859304</ele>
        <time>2020-10-07T17:34:43.008Z</time>
      </trkpt>
      <trkpt lat="53.17426" lon="22.09238">
        <ele>113.015747</ele>
        <time>2020-10-07T17:34:46.297Z</time>
      </trkpt>
      <trkpt lat="53.17434" lon="22.09244">
        <ele>113.206126</ele>
        <time>2020-10-07T17:34:49.364Z</time>
      </trkpt>
      <trkpt lat="53.17442" lon="22.0925">
        <ele>113.393264</ele>
        <time>2020-10-07T17:34:52.353Z</time>
      </trkpt>
      <trkpt lat="53.17452" lon="22.09226">
        <ele>113.770972</ele>
        <time>2020-10-07T17:34:58.499Z</time>
      </trkpt>
      <trkpt lat="53.17494" lon="22.09119">
        <ele>115.381587</ele>
        <time>2020-10-07T17:35:22.988Z</time>
      </trkpt>
      <trkpt lat="53.17534" lon="22.08964">
        <ele>116.676253</ele>
        <time>2020-10-07T17:35:48.854Z</time>
      </trkpt>
      <trkpt lat="53.17538" lon="22.0895">
        <ele>116.705428</ele>
        <time>2020-10-07T17:35:50.925Z</time>
      </trkpt>
      <trkpt lat="53.17543" lon="22.08938">
        <ele>116.733008</ele>
        <time>2020-10-07T17:35:52.806Z</time>
      </trkpt>
      <trkpt lat="53.17591" lon="22.08819">
        <ele>117.006875</ele>
        <time>2020-10-07T17:36:11.620Z</time>
      </trkpt>
      <trkpt lat="53.17594" lon="22.08822">
        <ele>117.019105</ele>
        <time>2020-10-07T17:36:12.687Z</time>
      </trkpt>
      <trkpt lat="53.17631" lon="22.08864">
        <ele>117.509682</ele>
        <time>2020-10-07T17:36:26.310Z</time>
      </trkpt>
      <trkpt lat="53.17635" lon="22.08868">
        <ele>117.596478</ele>
        <time>2020-10-07T17:36:27.479Z</time>
      </trkpt>
      <trkpt lat="53.1764" lon="22.0886">
        <ele>117.732825</ele>
        <time>2020-10-07T17:36:29.360Z</time>
      </trkpt>
      <trkpt lat="53.17675" lon="22.08817">
        <ele>118.647449</ele>
        <time>2020-10-07T17:36:40.749Z</time>
      </trkpt>
      <trkpt lat="53.1768" lon="22.08806">
        <ele>118.818412</ele>
        <time>2020-10-07T17:36:43.240Z</time>
      </trkpt>
      <trkpt lat="53.17715" lon="22.08721">
        <ele>120.11523</ele>
        <time>2020-10-07T17:37:02.693Z</time>
      </trkpt>
      <trkpt lat="53.17719" lon="22.08711">
        <ele>120.257157</ele>
        <time>2020-10-07T17:37:05.079Z</time>
      </trkpt>
      <trkpt lat="53.17724" lon="22.08699">
        <ele>120.449638</ele>
        <time>2020-10-07T17:37:08.355Z</time>
      </trkpt>
      <trkpt lat="53.17775" lon="22.08574">
        <ele>124.16292</ele>
        <time>2020-10-07T17:37:45.963Z</time>
      </trkpt>
      <trkpt lat="53.1778" lon="22.08564">
        <ele>124.54374</ele>
        <time>2020-10-07T17:37:49.267Z</time>
      </trkpt>
      <trkpt lat="53.1785" lon="22.08463">
        <ele>128.879222</ele>
        <time>2020-10-07T17:38:29.384Z</time>
      </trkpt>
      <trkpt lat="53.17892" lon="22.08401">
        <ele>130.402261</ele>
        <time>2020-10-07T17:38:51.199Z</time>
      </trkpt>
      <trkpt lat="53.179" lon="22.08385">
        <ele>130.696439</ele>
        <time>2020-10-07T17:38:55.627Z</time>
      </trkpt>
      <trkpt lat="53.17916" lon="22.08339">
        <ele>131.438794</ele>
        <time>2020-10-07T17:39:05.832Z</time>
      </trkpt>
      <trkpt lat="53.17935" lon="22.08285">
        <ele>132.343177</ele>
        <time>2020-10-07T17:39:16.945Z</time>
      </trkpt>
      <trkpt lat="53.17939" lon="22.08274">
        <ele>132.51869</ele>
        <time>2020-10-07T17:39:19.019Z</time>
      </trkpt>
      <trkpt lat="53.17938" lon="22.0827">
        <ele>132.584196</ele>
        <time>2020-10-07T17:39:19.837Z</time>
      </trkpt>
      <trkpt lat="53.17938" lon="22.08263">
        <ele>132.682357</ele>
        <time>2020-10-07T17:39:20.926Z</time>
      </trkpt>
      <trkpt lat="53.17938" lon="22.08255">
        <ele>132.790351</ele>
        <time>2020-10-07T17:39:22.078Z</time>
      </trkpt>
      <trkpt lat="53.17941" lon="22.08253">
        <ele>132.848399</ele>
        <time>2020-10-07T17:39:22.559Z</time>
      </trkpt>
      <trkpt lat="53.17974" lon="22.08165">
        <ele>132.998255</ele>
        <time>2020-10-07T17:39:38.247Z</time>
      </trkpt>
      <trkpt lat="53.17978" lon="22.08158">
        <ele>132.910994</ele>
        <time>2020-10-07T17:39:39.373Z</time>
      </trkpt>
      <trkpt lat="53.17978" lon="22.08158">
        <ele>132.910994</ele>
        <time>2020-10-07T17:39:39.391Z</time>
      </trkpt>
      <trkpt lat="53.17978" lon="22.08158">
        <ele>132.910994</ele>
        <time>2020-10-07T17:39:39.393Z</time>
      </trkpt>
      <trkpt lat="53.17984" lon="22.08146">
        <ele>132.762943</ele>
        <time>2020-10-07T17:39:41.320Z</time>
      </trkpt>
      <trkpt lat="53.17988" lon="22.08137">
        <ele>132.653999</ele>
        <time>2020-10-07T17:39:42.798Z</time>
      </trkpt>
      <trkpt lat="53.18001" lon="22.081">
        <ele>132.247373</ele>
        <time>2020-10-07T17:39:47.810Z</time>
      </trkpt>
      <trkpt lat="53.18011" lon="22.0807">
        <ele>131.918473</ele>
        <time>2020-10-07T17:39:51.628Z</time>
      </trkpt>
      <trkpt lat="53.18017" lon="22.08056">
        <ele>131.758114</ele>
        <time>2020-10-07T17:39:53.405Z</time>
      </trkpt>
      <trkpt lat="53.18031" lon="22.08014">
        <ele>131.299887</ele>
        <time>2020-10-07T17:39:58.397Z</time>
      </trkpt>
      <trkpt lat="53.18043" lon="22.07978">
        <ele>130.902861</ele>
        <time>2020-10-07T17:40:02.761Z</time>
      </trkpt>
      <trkpt lat="53.18056" lon="22.07939">
        <ele>130.290309</ele>
        <time>2020-10-07T17:40:07.316Z</time>
      </trkpt>
      <trkpt lat="53.1807" lon="22.07902">
        <ele>129.443596</ele>
        <time>2020-10-07T17:40:11.868Z</time>
      </trkpt>
      <trkpt lat="53.18077" lon="22.07882">
        <ele>128.99836</ele>
        <time>2020-10-07T17:40:14.322Z</time>
      </trkpt>
      <trkpt lat="53.18078" lon="22.07877">
        <ele>128.891964</ele>
        <time>2020-10-07T17:40:14.895Z</time>
      </trkpt>
      <trkpt lat="53.18079" lon="22.07871">
        <ele>128.775176</ele>
        <time>2020-10-07T17:40:15.549Z</time>
      </trkpt>
      <trkpt lat="53.1808" lon="22.07858">
        <ele>128.529166</ele>
        <time>2020-10-07T17:40:16.831Z</time>
      </trkpt>
      <trkpt lat="53.18088" lon="22.07771">
        <ele>126.845135</ele>
        <time>2020-10-07T17:40:26.030Z</time>
      </trkpt>
      <trkpt lat="53.18088" lon="22.07767">
        <ele>126.755902</ele>
        <time>2020-10-07T17:40:26.507Z</time>
      </trkpt>
      <trkpt lat="53.18092" lon="22.07756">
        <ele>126.512171</ele>
        <time>2020-10-07T17:40:27.805Z</time>
      </trkpt>
      <trkpt lat="53.18095" lon="22.07747">
        <ele>126.329624</ele>
        <time>2020-10-07T17:40:28.750Z</time>
      </trkpt>
      <trkpt lat="53.18099" lon="22.07735">
        <ele>126.051159</ele>
        <time>2020-10-07T17:40:30.175Z</time>
      </trkpt>
      <trkpt lat="53.18103" lon="22.07731">
        <ele>125.90888</ele>
        <time>2020-10-07T17:40:30.904Z</time>
      </trkpt>
      <trkpt lat="53.18106" lon="22.07723">
        <ele>125.723986</ele>
        <time>2020-10-07T17:40:31.871Z</time>
      </trkpt>
      <trkpt lat="53.18115" lon="22.07714">
        <ele>125.40585</ele>
        <time>2020-10-07T17:40:33.532Z</time>
      </trkpt>
      <trkpt lat="53.18119" lon="22.07708">
        <ele>125.217391</ele>
        <time>2020-10-07T17:40:34.500Z</time>
      </trkpt>
      <trkpt lat="53.18133" lon="22.07673">
        <ele>124.216012</ele>
        <time>2020-10-07T17:40:38.687Z</time>
      </trkpt>
      <trkpt lat="53.18139" lon="22.07661">
        <ele>123.794185</ele>
        <time>2020-10-07T17:40:40.220Z</time>
      </trkpt>
      <trkpt lat="53.18159" lon="22.07614">
        <ele>122.243022</ele>
        <time>2020-10-07T17:40:45.881Z</time>
      </trkpt>
      <trkpt lat="53.18179" lon="22.07568">
        <ele>120.736544</ele>
        <time>2020-10-07T17:40:51.365Z</time>
      </trkpt>
      <trkpt lat="53.18182" lon="22.07562">
        <ele>120.526541</ele>
        <time>2020-10-07T17:40:52.124Z</time>
      </trkpt>
      <trkpt lat="53.18187" lon="22.07555">
        <ele>120.248006</ele>
        <time>2020-10-07T17:40:53.142Z</time>
      </trkpt>
      <trkpt lat="53.18191" lon="22.0755">
        <ele>120.003984</ele>
        <time>2020-10-07T17:40:54.023Z</time>
      </trkpt>
      <trkpt lat="53.18203" lon="22.07536">
        <ele>119.358887</ele>
        <time>2020-10-07T17:40:56.315Z</time>
      </trkpt>
      <trkpt lat="53.18261" lon="22.0747">
        <ele>116.18679</ele>
        <time>2020-10-07T17:41:07.554Z</time>
      </trkpt>
      <trkpt lat="53.1833" lon="22.07391">
        <ele>112.372446</ele>
        <time>2020-10-07T17:41:20.892Z</time>
      </trkpt>
      <trkpt lat="53.1834" lon="22.07379">
        <ele>111.815085</ele>
        <time>2020-10-07T17:41:22.853Z</time>
      </trkpt>
      <trkpt lat="53.18395" lon="22.07317">
        <ele>108.796113</ele>
        <time>2020-10-07T17:41:33.518Z</time>
      </trkpt>
      <trkpt lat="53.18407" lon="22.07303">
        <ele>108.262466</ele>
        <time>2020-10-07T17:41:35.984Z</time>
      </trkpt>
      <trkpt lat="53.18413" lon="22.07296">
        <ele>108.010509</ele>
        <time>2020-10-07T17:41:37.216Z</time>
      </trkpt>
      <trkpt lat="53.18441" lon="22.07317">
        <ele>106.991041</ele>
        <time>2020-10-07T17:41:42.321Z</time>
      </trkpt>
      <trkpt lat="53.18481" lon="22.07347">
        <ele>105.54166</ele>
        <time>2020-10-07T17:41:49.710Z</time>
      </trkpt>
      <trkpt lat="53.18488" lon="22.07353">
        <ele>105.283817</ele>
        <time>2020-10-07T17:41:51.017Z</time>
      </trkpt>
      <trkpt lat="53.18495" lon="22.07338">
        <ele>104.904479</ele>
        <time>2020-10-07T17:41:52.883Z</time>
      </trkpt>
      <trkpt lat="53.18492" lon="22.07334">
        <ele>104.7708</ele>
        <time>2020-10-07T17:41:55.684Z</time>
      </trkpt>
      <trkpt lat="53.18505" lon="22.07305">
        <ele>104.029351</ele>
        <time>2020-10-07T17:42:02.164Z</time>
      </trkpt>
      <trkpt lat="53.1852" lon="22.07281">
        <ele>103.34936</ele>
        <time>2020-10-07T17:42:08.273Z</time>
      </trkpt>
      <trkpt lat="53.18587" lon="22.07238">
        <ele>101.807198</ele>
        <time>2020-10-07T17:42:30.223Z</time>
      </trkpt>
      <trkpt lat="53.18645" lon="22.07171">
        <ele>100.669834</ele>
        <time>2020-10-07T17:42:52.461Z</time>
      </trkpt>
      <trkpt lat="53.18647" lon="22.07177">
        <ele>100.605242</ele>
        <time>2020-10-07T17:42:55.227Z</time>
      </trkpt>
      <trkpt lat="53.18651" lon="22.07186">
        <ele>100.497702</ele>
        <time>2020-10-07T17:42:59.801Z</time>
      </trkpt>
      <trkpt lat="53.1881" lon="22.06998">
        <ele>99.336701</ele>
        <time>2020-10-07T17:44:09.782Z</time>
      </trkpt>
      <trkpt lat="53.19764" lon="22.05882">
        <ele>100.820459</ele>
        <time>2020-10-07T17:51:25.268Z</time>
      </trkpt>
      <trkpt lat="53.1979" lon="22.05849">
        <ele>101.363777</ele>
        <time>2020-10-07T17:51:40.131Z</time>
      </trkpt>
      <trkpt lat="53.19785" lon="22.05841">
        <ele>101.468993</ele>
        <time>2020-10-07T17:51:42.980Z</time>
      </trkpt>
      <trkpt lat="53.1979" lon="22.05837">
        <ele>101.557094</ele>
        <time>2020-10-07T17:51:44.615Z</time>
      </trkpt>
      <trkpt lat="53.19808" lon="22.05816">
        <ele>101.928062</ele>
        <time>2020-10-07T17:51:51.726Z</time>
      </trkpt>
      <trkpt lat="53.1984" lon="22.05781">
        <ele>102.561672</ele>
        <time>2020-10-07T17:52:03.940Z</time>
      </trkpt>
      <trkpt lat="53.19853" lon="22.05774">
        <ele>102.795428</ele>
        <time>2020-10-07T17:52:08.466Z</time>
      </trkpt>
      <trkpt lat="53.19877" lon="22.05765">
        <ele>103.276563</ele>
        <time>2020-10-07T17:52:16.402Z</time>
      </trkpt>
      <trkpt lat="53.19932" lon="22.05744">
        <ele>104.501588</ele>
        <time>2020-10-07T17:52:35.059Z</time>
      </trkpt>
      <trkpt lat="53.19966" lon="22.05714">
        <ele>105.340604</ele>
        <time>2020-10-07T17:52:47.656Z</time>
      </trkpt>
      <trkpt lat="53.20064" lon="22.05601">
        <ele>107.38656</ele>
        <time>2020-10-07T17:53:21.486Z</time>
      </trkpt>
      <trkpt lat="53.2009" lon="22.05578">
        <ele>107.701546</ele>
        <time>2020-10-07T17:53:29.167Z</time>
      </trkpt>
      <trkpt lat="53.20165" lon="22.05533">
        <ele>108.544591</ele>
        <time>2020-10-07T17:53:49.570Z</time>
      </trkpt>
      <trkpt lat="53.20254" lon="22.05434">
        <ele>109.334787</ele>
        <time>2020-10-07T17:54:16.716Z</time>
      </trkpt>
      <trkpt lat="53.20304" lon="22.05368">
        <ele>109.751911</ele>
        <time>2020-10-07T17:54:32.546Z</time>
      </trkpt>
      <trkpt lat="53.20377" lon="22.0524">
        <ele>110.049574</ele>
        <time>2020-10-07T17:54:57.549Z</time>
      </trkpt>
      <trkpt lat="53.20477" lon="22.05089">
        <ele>110.131193</ele>
        <time>2020-10-07T17:55:27.653Z</time>
      </trkpt>
      <trkpt lat="53.20497" lon="22.05059">
        <ele>110.081835</ele>
        <time>2020-10-07T17:55:33.502Z</time>
      </trkpt>
      <trkpt lat="53.20513" lon="22.05038">
        <ele>110.044602</ele>
        <time>2020-10-07T17:55:37.838Z</time>
      </trkpt>
      <trkpt lat="53.20597" lon="22.04944">
        <ele>109.85841</ele>
        <time>2020-10-07T17:55:59.466Z</time>
      </trkpt>
      <trkpt lat="53.20666" lon="22.04877">
        <ele>109.567742</ele>
        <time>2020-10-07T17:56:16.197Z</time>
      </trkpt>
      <trkpt lat="53.20738" lon="22.04784">
        <ele>109.235753</ele>
        <time>2020-10-07T17:56:35.056Z</time>
      </trkpt>
      <trkpt lat="53.2085" lon="22.04561">
        <ele>108.753246</ele>
        <time>2020-10-07T17:57:12.217Z</time>
      </trkpt>
      <trkpt lat="53.20877" lon="22.0449">
        <ele>108.61657</ele>
        <time>2020-10-07T17:57:23.214Z</time>
      </trkpt>
      <trkpt lat="53.20884" lon="22.04458">
        <ele>108.560609</ele>
        <time>2020-10-07T17:57:27.671Z</time>
      </trkpt>
      <trkpt lat="53.20912" lon="22.04255">
        <ele>108.219741</ele>
        <time>2020-10-07T17:57:54.353Z</time>
      </trkpt>
      <trkpt lat="53.20934" lon="22.04148">
        <ele>107.822644</ele>
        <time>2020-10-07T17:58:07.967Z</time>
      </trkpt>
      <trkpt lat="53.20948" lon="22.04047">
        <ele>107.458121</ele>
        <time>2020-10-07T17:58:20.525Z</time>
      </trkpt>
      <trkpt lat="53.20963" lon="22.03985">
        <ele>107.218268</ele>
        <time>2020-10-07T17:58:28.759Z</time>
      </trkpt>
      <trkpt lat="53.20968" lon="22.03972">
        <ele>107.16621</ele>
        <time>2020-10-07T17:58:30.381Z</time>
      </trkpt>
      <trkpt lat="53.20973" lon="22.03958">
        <ele>107.114261</ele>
        <time>2020-10-07T17:58:32.555Z</time>
      </trkpt>
      <trkpt lat="53.20991" lon="22.03923">
        <ele>106.975757</ele>
        <time>2020-10-07T17:58:37.975Z</time>
      </trkpt>
      <trkpt lat="53.21044" lon="22.03873">
        <ele>106.663342</ele>
        <time>2020-10-07T17:58:50.766Z</time>
      </trkpt>
      <trkpt lat="53.21069" lon="22.0384">
        <ele>106.500177</ele>
        <time>2020-10-07T17:58:57.435Z</time>
      </trkpt>
      <trkpt lat="53.21291" lon="22.03493">
        <ele>104.565741</ele>
        <time>2020-10-07T17:59:59.918Z</time>
      </trkpt>
      <trkpt lat="53.21426" lon="22.03273">
        <ele>102.515528</ele>
        <time>2020-10-07T18:00:34.732Z</time>
      </trkpt>
      <trkpt lat="53.21447" lon="22.0323">
        <ele>102.144739</ele>
        <time>2020-10-07T18:00:41.226Z</time>
      </trkpt>
      <trkpt lat="53.21452" lon="22.0322">
        <ele>102.058159</ele>
        <time>2020-10-07T18:00:42.577Z</time>
      </trkpt>
      <trkpt lat="53.21463" lon="22.03197">
        <ele>101.868872</ele>
        <time>2020-10-07T18:00:46.278Z</time>
      </trkpt>
      <trkpt lat="53.2149" lon="22.03121">
        <ele>101.398285</ele>
        <time>2020-10-07T18:00:56.707Z</time>
      </trkpt>
      <trkpt lat="53.2159" lon="22.02754">
        <ele>101.095597</ele>
        <time>2020-10-07T18:01:49.181Z</time>
      </trkpt>
      <trkpt lat="53.21621" lon="22.02631">
        <ele>101.270441</ele>
        <time>2020-10-07T18:02:07.484Z</time>
      </trkpt>
      <trkpt lat="53.21688" lon="22.02537">
        <ele>102.336092</ele>
        <time>2020-10-07T18:02:31.262Z</time>
      </trkpt>
      <trkpt lat="53.21878" lon="22.02284">
        <ele>106.2366</ele>
        <time>2020-10-07T18:03:47.521Z</time>
      </trkpt>
      <trkpt lat="53.22059" lon="22.02011">
        <ele>108.232199</ele>
        <time>2020-10-07T18:04:50.444Z</time>
      </trkpt>
      <trkpt lat="53.22096" lon="22.01947">
        <ele>108.312716</ele>
        <time>2020-10-07T18:05:03.000Z</time>
      </trkpt>
      <trkpt lat="53.22136" lon="22.01862">
        <ele>108.410346</ele>
        <time>2020-10-07T18:05:18.018Z</time>
      </trkpt>
      <trkpt lat="53.22136" lon="22.01861">
        <ele>108.411053</ele>
        <time>2020-10-07T18:05:18.252Z</time>
      </trkpt>
      <trkpt lat="53.22214" lon="22.01694">
        <ele>108.637383</ele>
        <time>2020-10-07T18:05:48.413Z</time>
      </trkpt>
      <trkpt lat="53.22251" lon="22.01627">
        <ele>108.743861</ele>
        <time>2020-10-07T18:06:01.638Z</time>
      </trkpt>
      <trkpt lat="53.22299" lon="22.01561">
        <ele>108.804527</ele>
        <time>2020-10-07T18:06:16.552Z</time>
      </trkpt>
      <trkpt lat="53.22327" lon="22.01534">
        <ele>108.711152</ele>
        <time>2020-10-07T18:06:24.043Z</time>
      </trkpt>
      <trkpt lat="53.22357" lon="22.01524">
        <ele>108.620235</ele>
        <time>2020-10-07T18:06:31.246Z</time>
      </trkpt>
      <trkpt lat="53.22385" lon="22.01527">
        <ele>108.540162</ele>
        <time>2020-10-07T18:06:37.479Z</time>
      </trkpt>
      <trkpt lat="53.22536" lon="22.01608">
        <ele>107.275298</ele>
        <time>2020-10-07T18:07:10.944Z</time>
      </trkpt>
      <trkpt lat="53.22562" lon="22.01613">
        <ele>106.950453</ele>
        <time>2020-10-07T18:07:15.864Z</time>
      </trkpt>
      <trkpt lat="53.22601" lon="22.01581">
        <ele>106.39938</ele>
        <time>2020-10-07T18:07:24.079Z</time>
      </trkpt>
      <trkpt lat="53.22643" lon="22.01515">
        <ele>105.547152</ele>
        <time>2020-10-07T18:07:34.881Z</time>
      </trkpt>
      <trkpt lat="53.22674" lon="22.01441">
        <ele>104.639751</ele>
        <time>2020-10-07T18:07:44.858Z</time>
      </trkpt>
      <trkpt lat="53.22831" lon="22.00981">
        <ele>100.518463</ele>
        <time>2020-10-07T18:09:28.704Z</time>
      </trkpt>
      <trkpt lat="53.22954" lon="22.00175">
        <ele>100.576923</ele>
        <time>2020-10-07T18:11:20.661Z</time>
      </trkpt>
      <trkpt lat="53.22986" lon="21.99965">
        <ele>103.478749</ele>
        <time>2020-10-07T18:12:00.659Z</time>
      </trkpt>
      <trkpt lat="53.23013" lon="21.99782">
        <ele>106.571034</ele>
        <time>2020-10-07T18:12:40.542Z</time>
      </trkpt>
      <trkpt lat="53.23033" lon="21.9968">
        <ele>108.614543</ele>
        <time>2020-10-07T18:13:03.586Z</time>
      </trkpt>
      <trkpt lat="53.23062" lon="21.99619">
        <ele>110.079186</ele>
        <time>2020-10-07T18:13:19.879Z</time>
      </trkpt>
      <trkpt lat="53.2312" lon="21.99446">
        <ele>113.052282</ele>
        <time>2020-10-07T18:13:59.699Z</time>
      </trkpt>
      <trkpt lat="53.23132" lon="21.9939">
        <ele>113.908796</ele>
        <time>2020-10-07T18:14:10.384Z</time>
      </trkpt>
      <trkpt lat="53.23134" lon="21.99377">
        <ele>114.117676</ele>
        <time>2020-10-07T18:14:12.945Z</time>
      </trkpt>
      <trkpt lat="53.23137" lon="21.99352">
        <ele>114.484699</ele>
        <time>2020-10-07T18:14:17.403Z</time>
      </trkpt>
      <trkpt lat="53.23145" lon="21.99257">
        <ele>115.21879</ele>
        <time>2020-10-07T18:14:33.863Z</time>
      </trkpt>
      <trkpt lat="53.23211" lon="21.98987">
        <ele>116.747498</ele>
        <time>2020-10-07T18:15:18.571Z</time>
      </trkpt>
      <trkpt lat="53.23293" lon="21.98619">
        <ele>117.013646</ele>
        <time>2020-10-07T18:16:11.978Z</time>
      </trkpt>
      <trkpt lat="53.23318" lon="21.98539">
        <ele>116.925364</ele>
        <time>2020-10-07T18:16:23.385Z</time>
      </trkpt>
      <trkpt lat="53.23413" lon="21.98382">
        <ele>115.941853</ele>
        <time>2020-10-07T18:16:50.283Z</time>
      </trkpt>
      <trkpt lat="53.23471" lon="21.98227">
        <ele>114.815115</ele>
        <time>2020-10-07T18:17:10.959Z</time>
      </trkpt>
      <trkpt lat="53.23483" lon="21.98192">
        <ele>114.499202</ele>
        <time>2020-10-07T18:17:15.447Z</time>
      </trkpt>
      <trkpt lat="53.23497" lon="21.98152">
        <ele>114.138655</ele>
        <time>2020-10-07T18:17:20.516Z</time>
      </trkpt>
      <trkpt lat="53.23513" lon="21.98068">
        <ele>113.436567</ele>
        <time>2020-10-07T18:17:30.474Z</time>
      </trkpt>
      <trkpt lat="53.2352" lon="21.97993">
        <ele>112.854717</ele>
        <time>2020-10-07T18:17:38.838Z</time>
      </trkpt>
      <trkpt lat="53.23529" lon="21.97739">
        <ele>111.222638</ele>
        <time>2020-10-07T18:18:07.911Z</time>
      </trkpt>
      <trkpt lat="53.23533" lon="21.97694">
        <ele>110.960676</ele>
        <time>2020-10-07T18:18:13.374Z</time>
      </trkpt>
      <trkpt lat="53.23543" lon="21.9765">
        <ele>110.820785</ele>
        <time>2020-10-07T18:18:19.102Z</time>
      </trkpt>
      <trkpt lat="53.23551" lon="21.97623">
        <ele>110.734</ele>
        <time>2020-10-07T18:18:22.579Z</time>
      </trkpt>
      <trkpt lat="53.23561" lon="21.97585">
        <ele>110.612014</ele>
        <time>2020-10-07T18:18:27.708Z</time>
      </trkpt>
      <trkpt lat="53.23581" lon="21.97497">
        <ele>110.333725</ele>
        <time>2020-10-07T18:18:39.441Z</time>
      </trkpt>
      <trkpt lat="53.23598" lon="21.97273">
        <ele>109.961172</ele>
        <time>2020-10-07T18:19:08.543Z</time>
      </trkpt>
      <trkpt lat="53.23601" lon="21.97243">
        <ele>109.931686</ele>
        <time>2020-10-07T18:19:12.584Z</time>
      </trkpt>
      <trkpt lat="53.23611" lon="21.97089">
        <ele>109.803697</ele>
        <time>2020-10-07T18:19:32.993Z</time>
      </trkpt>
      <trkpt lat="53.23618" lon="21.96982">
        <ele>109.77076</ele>
        <time>2020-10-07T18:19:47.110Z</time>
      </trkpt>
      <trkpt lat="53.23629" lon="21.96913">
        <ele>109.749177</ele>
        <time>2020-10-07T18:19:56.380Z</time>
      </trkpt>
      <trkpt lat="53.23633" lon="21.96886">
        <ele>109.74065</ele>
        <time>2020-10-07T18:20:00.171Z</time>
      </trkpt>
      <trkpt lat="53.23638" lon="21.96853">
        <ele>109.73016</ele>
        <time>2020-10-07T18:20:04.624Z</time>
      </trkpt>
      <trkpt lat="53.23738" lon="21.96397">
        <ele>109.895201</ele>
        <time>2020-10-07T18:21:10.635Z</time>
      </trkpt>
      <trkpt lat="53.23761" lon="21.96123">
        <ele>109.68115</ele>
        <time>2020-10-07T18:21:47.787Z</time>
      </trkpt>
      <trkpt lat="53.23837" lon="21.95524">
        <ele>107.22718</ele>
        <time>2020-10-07T18:23:01.645Z</time>
      </trkpt>
      <trkpt lat="53.23851" lon="21.953">
        <ele>105.849198</ele>
        <time>2020-10-07T18:23:26.548Z</time>
      </trkpt>
      <trkpt lat="53.2386" lon="21.95261">
        <ele>105.626544</ele>
        <time>2020-10-07T18:23:31.173Z</time>
      </trkpt>
      <trkpt lat="53.23865" lon="21.9523">
        <ele>105.45822</ele>
        <time>2020-10-07T18:23:37.380Z</time>
      </trkpt>
      <trkpt lat="53.23906" lon="21.94212">
        <ele>100.255615</ele>
        <time>2020-10-07T18:27:08.351Z</time>
      </trkpt>
      <trkpt lat="53.23919" lon="21.93937">
        <ele>99.215882</ele>
        <time>2020-10-07T18:28:05.900Z</time>
      </trkpt>
      <trkpt lat="53.2393" lon="21.93676">
        <ele>98.512771</ele>
        <time>2020-10-07T18:29:00.945Z</time>
      </trkpt>
      <trkpt lat="53.23934" lon="21.93588">
        <ele>98.3029</ele>
        <time>2020-10-07T18:29:20.198Z</time>
      </trkpt>
      <trkpt lat="53.2394" lon="21.93407">
        <ele>99.13616</ele>
        <time>2020-10-07T18:30:01.300Z</time>
      </trkpt>
      <trkpt lat="53.23953" lon="21.93145">
        <ele>101.105663</ele>
        <time>2020-10-07T18:31:11.562Z</time>
      </trkpt>
      <trkpt lat="53.23957" lon="21.93081">
        <ele>101.738715</ele>
        <time>2020-10-07T18:31:24.028Z</time>
      </trkpt>
      <trkpt lat="53.23977" lon="21.92754">
        <ele>102.708849</ele>
        <time>2020-10-07T18:32:15.563Z</time>
      </trkpt>
      <trkpt lat="53.23978" lon="21.92742">
        <ele>102.704615</ele>
        <time>2020-10-07T18:32:16.597Z</time>
      </trkpt>
      <trkpt lat="53.2394" lon="21.92421">
        <ele>99.476625</ele>
        <time>2020-10-07T18:32:50.183Z</time>
      </trkpt>
      <trkpt lat="53.23938" lon="21.92356">
        <ele>98.971185</ele>
        <time>2020-10-07T18:32:57.239Z</time>
      </trkpt>
      <trkpt lat="53.23982" lon="21.91509">
        <ele>99.050227</ele>
        <time>2020-10-07T18:34:51.519Z</time>
      </trkpt>
      <trkpt lat="53.24024" lon="21.91085">
        <ele>102.430145</ele>
        <time>2020-10-07T18:36:05.870Z</time>
      </trkpt>
      <trkpt lat="53.24058" lon="21.9093">
        <ele>103.482076</ele>
        <time>2020-10-07T18:36:31.661Z</time>
      </trkpt>
      <trkpt lat="53.24058" lon="21.90904">
        <ele>103.6459</ele>
        <time>2020-10-07T18:36:35.426Z</time>
      </trkpt>
      <trkpt lat="53.24044" lon="21.90863">
        <ele>103.731344</ele>
        <time>2020-10-07T18:36:42.104Z</time>
      </trkpt>
      <trkpt lat="53.23981" lon="21.90728">
        <ele>103.921419</ele>
        <time>2020-10-07T18:37:05.306Z</time>
      </trkpt>
      <trkpt lat="53.23699" lon="21.90078">
        <ele>104.119605</ele>
        <time>2020-10-07T18:38:53.061Z</time>
      </trkpt>
      <trkpt lat="53.23573" lon="21.89669">
        <ele>103.990969</ele>
        <time>2020-10-07T18:39:52.978Z</time>
      </trkpt>
      <trkpt lat="53.23469" lon="21.8936">
        <ele>105.210496</ele>
        <time>2020-10-07T18:40:44.610Z</time>
      </trkpt>
      <trkpt lat="53.23237" lon="21.887">
        <ele>113.25013</ele>
        <time>2020-10-07T18:42:55.622Z</time>
      </trkpt>
      <trkpt lat="53.2323" lon="21.88685">
        <ele>113.535157</ele>
        <time>2020-10-07T18:43:00.076Z</time>
      </trkpt>
      <trkpt lat="53.23214" lon="21.8867">
        <ele>114.020089</ele>
        <time>2020-10-07T18:43:06.963Z</time>
      </trkpt>
      <trkpt lat="53.23105" lon="21.88675">
        <ele>118.25733</ele>
        <time>2020-10-07T18:43:50.119Z</time>
      </trkpt>
      <trkpt lat="53.23087" lon="21.88678">
        <ele>119.118137</ele>
        <time>2020-10-07T18:43:58.675Z</time>
      </trkpt>
      <trkpt lat="53.23063" lon="21.88694">
        <ele>120.296392</ele>
        <time>2020-10-07T18:44:09.547Z</time>
      </trkpt>
      <trkpt lat="53.23027" lon="21.88709">
        <ele>121.99306</ele>
        <time>2020-10-07T18:44:24.998Z</time>
      </trkpt>
      <trkpt lat="53.23013" lon="21.88708">
        <ele>122.649522</ele>
        <time>2020-10-07T18:44:30.820Z</time>
      </trkpt>
      <trkpt lat="53.22963" lon="21.88686">
        <ele>124.130456</ele>
        <time>2020-10-07T18:44:50.722Z</time>
      </trkpt>
      <trkpt lat="53.22937" lon="21.88655">
        <ele>124.881876</ele>
        <time>2020-10-07T18:45:02.514Z</time>
      </trkpt>
      <trkpt lat="53.22918" lon="21.88617">
        <ele>125.592897</ele>
        <time>2020-10-07T18:45:11.662Z</time>
      </trkpt>
      <trkpt lat="53.22864" lon="21.88481">
        <ele>127.427319</ele>
        <time>2020-10-07T18:45:37.632Z</time>
      </trkpt>
      <trkpt lat="53.22829" lon="21.88396">
        <ele>127.325916</ele>
        <time>2020-10-07T18:45:51.270Z</time>
      </trkpt>
      <trkpt lat="53.22816" lon="21.88369">
        <ele>127.292523</ele>
        <time>2020-10-07T18:45:55.578Z</time>
      </trkpt>
      <trkpt lat="53.228" lon="21.88342">
        <ele>127.254879</ele>
        <time>2020-10-07T18:46:00.213Z</time>
      </trkpt>
      <trkpt lat="53.22732" lon="21.88254">
        <ele>127.019546</ele>
        <time>2020-10-07T18:46:17.359Z</time>
      </trkpt>
      <trkpt lat="53.22699" lon="21.88208">
        <ele>126.815711</ele>
        <time>2020-10-07T18:46:25.972Z</time>
      </trkpt>
      <trkpt lat="53.22685" lon="21.88184">
        <ele>126.716094</ele>
        <time>2020-10-07T18:46:30.168Z</time>
      </trkpt>
      <trkpt lat="53.22654" lon="21.88133">
        <ele>126.508215</ele>
        <time>2020-10-07T18:46:39.386Z</time>
      </trkpt>
      <trkpt lat="53.22634" lon="21.88099">
        <ele>126.372871</ele>
        <time>2020-10-07T18:46:45.448Z</time>
      </trkpt>
      <trkpt lat="53.226" lon="21.88044">
        <ele>126.284627</ele>
        <time>2020-10-07T18:46:55.686Z</time>
      </trkpt>
      <trkpt lat="53.22595" lon="21.88031">
        <ele>126.279133</ele>
        <time>2020-10-07T18:46:57.743Z</time>
      </trkpt>
      <trkpt lat="53.22592" lon="21.88016">
        <ele>126.273731</ele>
        <time>2020-10-07T18:46:59.742Z</time>
      </trkpt>
      <trkpt lat="53.22587" lon="21.87985">
        <ele>126.2625</ele>
        <time>2020-10-07T18:47:03.995Z</time>
      </trkpt>
      <trkpt lat="53.22579" lon="21.87922">
        <ele>126.240188</ele>
        <time>2020-10-07T18:47:12.628Z</time>
      </trkpt>
      <trkpt lat="53.22573" lon="21.87891">
        <ele>126.22877</ele>
        <time>2020-10-07T18:47:17.083Z</time>
      </trkpt>
      <trkpt lat="53.22556" lon="21.87842">
        <ele>126.208861</ele>
        <time>2020-10-07T18:47:24.779Z</time>
      </trkpt>
      <trkpt lat="53.22546" lon="21.87827">
        <ele>126.20135</ele>
        <time>2020-10-07T18:47:27.649Z</time>
      </trkpt>
      <trkpt lat="53.22488" lon="21.87784">
        <ele>126.09963</ele>
        <time>2020-10-07T18:47:41.634Z</time>
      </trkpt>
      <trkpt lat="53.2247" lon="21.8777">
        <ele>126.066174</ele>
        <time>2020-10-07T18:47:45.934Z</time>
      </trkpt>
      <trkpt lat="53.22352" lon="21.87684">
        <ele>125.805699</ele>
        <time>2020-10-07T18:48:13.309Z</time>
      </trkpt>
      <trkpt lat="53.22313" lon="21.87657">
        <ele>125.666996</ele>
        <time>2020-10-07T18:48:22.380Z</time>
      </trkpt>
      <trkpt lat="53.22295" lon="21.8764">
        <ele>125.600666</ele>
        <time>2020-10-07T18:48:26.697Z</time>
      </trkpt>
      <trkpt lat="53.22288" lon="21.87634">
        <ele>125.574395</ele>
        <time>2020-10-07T18:48:28.409Z</time>
      </trkpt>
      <trkpt lat="53.22284" lon="21.87629">
        <ele>125.557334</ele>
        <time>2020-10-07T18:48:29.498Z</time>
      </trkpt>
      <trkpt lat="53.22283" lon="21.87624">
        <ele>125.547609</ele>
        <time>2020-10-07T18:48:30.121Z</time>
      </trkpt>
      <trkpt lat="53.22282" lon="21.87619">
        <ele>125.537919</ele>
        <time>2020-10-07T18:48:30.745Z</time>
      </trkpt>
      <trkpt lat="53.22281" lon="21.87615">
        <ele>125.52813</ele>
        <time>2020-10-07T18:48:31.370Z</time>
      </trkpt>
      <trkpt lat="53.22278" lon="21.87612">
        <ele>125.517719</ele>
        <time>2020-10-07T18:48:32.053Z</time>
      </trkpt>
      <trkpt lat="53.22272" lon="21.87608">
        <ele>125.497501</ele>
        <time>2020-10-07T18:48:33.361Z</time>
      </trkpt>
      <trkpt lat="53.22269" lon="21.87608">
        <ele>125.487042</ele>
        <time>2020-10-07T18:48:34.026Z</time>
      </trkpt>
      <trkpt lat="53.22267" lon="21.87609">
        <ele>125.478686</ele>
        <time>2020-10-07T18:48:34.565Z</time>
      </trkpt>
      <trkpt lat="53.22264" lon="21.87611">
        <ele>125.470089</ele>
        <time>2020-10-07T18:48:35.111Z</time>
      </trkpt>
      <trkpt lat="53.22258" lon="21.87612">
        <ele>125.450061</ele>
        <time>2020-10-07T18:48:36.412Z</time>
      </trkpt>
      <trkpt lat="53.2225" lon="21.87609">
        <ele>125.423214</ele>
        <time>2020-10-07T18:48:38.101Z</time>
      </trkpt>
      <trkpt lat="53.22223" lon="21.87597">
        <ele>125.33097</ele>
        <time>2020-10-07T18:48:43.997Z</time>
      </trkpt>
      <trkpt lat="53.22205" lon="21.87585">
        <ele>125.242235</ele>
        <time>2020-10-07T18:48:48.001Z</time>
      </trkpt>
      <trkpt lat="53.22081" lon="21.87502">
        <ele>124.542344</ele>
        <time>2020-10-07T18:49:15.465Z</time>
      </trkpt>
      <trkpt lat="53.22154" lon="21.87143">
        <ele>123.053022</ele>
        <time>2020-10-07T18:50:01.237Z</time>
      </trkpt>
      <trkpt lat="53.22163" lon="21.87092">
        <ele>122.740542</ele>
        <time>2020-10-07T18:50:07.673Z</time>
      </trkpt>
      <trkpt lat="53.22164" lon="21.87066">
        <ele>122.590528</ele>
        <time>2020-10-07T18:50:10.892Z</time>
      </trkpt>
      <trkpt lat="53.22157" lon="21.87036">
        <ele>122.406571</ele>
        <time>2020-10-07T18:50:14.573Z</time>
      </trkpt>
      <trkpt lat="53.22135" lon="21.86969">
        <ele>121.958944</ele>
        <time>2020-10-07T18:50:23.629Z</time>
      </trkpt>
      <trkpt lat="53.22124" lon="21.86938">
        <ele>121.745245</ele>
        <time>2020-10-07T18:50:27.948Z</time>
      </trkpt>
      <trkpt lat="53.22121" lon="21.8693">
        <ele>121.691819</ele>
        <time>2020-10-07T18:50:28.893Z</time>
      </trkpt>
      <trkpt lat="53.22067" lon="21.86783">
        <ele>120.278486</ele>
        <time>2020-10-07T18:50:47.850Z</time>
      </trkpt>
      <trkpt lat="53.2206" lon="21.86765">
        <ele>120.086739</ele>
        <time>2020-10-07T18:50:50.062Z</time>
      </trkpt>
      <trkpt lat="53.22004" lon="21.86612">
        <ele>118.585267</ele>
        <time>2020-10-07T18:51:09.750Z</time>
      </trkpt>
      <trkpt lat="53.2198" lon="21.86548">
        <ele>118.208698</ele>
        <time>2020-10-07T18:51:18.273Z</time>
      </trkpt>
      <trkpt lat="53.21909" lon="21.86316">
        <ele>117.186979</ele>
        <time>2020-10-07T18:51:50.274Z</time>
      </trkpt>
      <trkpt lat="53.21849" lon="21.86105">
        <ele>117.008203</ele>
        <time>2020-10-07T18:52:21.667Z</time>
      </trkpt>
      <trkpt lat="53.21555" lon="21.85083">
        <ele>117.065354</ele>
        <time>2020-10-07T18:54:53.568Z</time>
      </trkpt>
      <trkpt lat="53.21503" lon="21.84903">
        <ele>116.749949</ele>
        <time>2020-10-07T18:55:18.970Z</time>
      </trkpt>
      <trkpt lat="53.21411" lon="21.84576">
        <ele>115.840134</ele>
        <time>2020-10-07T18:56:04.078Z</time>
      </trkpt>
      <trkpt lat="53.21168" lon="21.8374">
        <ele>112.674931</ele>
        <time>2020-10-07T18:57:57.998Z</time>
      </trkpt>
      <trkpt lat="53.21117" lon="21.83609">
        <ele>111.925117</ele>
        <time>2020-10-07T18:58:16.202Z</time>
      </trkpt>
      <trkpt lat="53.21012" lon="21.83362">
        <ele>110.360138</ele>
        <time>2020-10-07T18:58:51.113Z</time>
      </trkpt>
      <trkpt lat="53.20691" lon="21.8261">
        <ele>107.532687</ele>
        <time>2020-10-07T19:00:45.487Z</time>
      </trkpt>
      <trkpt lat="53.20673" lon="21.8259">
        <ele>107.444536</ele>
        <time>2020-10-07T19:00:50.005Z</time>
      </trkpt>
      <trkpt lat="53.20634" lon="21.82567">
        <ele>107.270992</ele>
        <time>2020-10-07T19:00:58.891Z</time>
      </trkpt>
      <trkpt lat="53.20386" lon="21.82421">
        <ele>106.037835</ele>
        <time>2020-10-07T19:01:53.389Z</time>
      </trkpt>
      <trkpt lat="53.20038" lon="21.82209">
        <ele>103.704947</ele>
        <time>2020-10-07T19:03:07.879Z</time>
      </trkpt>
      <trkpt lat="53.2004" lon="21.82194">
        <ele>103.650905</ele>
        <time>2020-10-07T19:03:09.666Z</time>
      </trkpt>
      <trkpt lat="53.20059" lon="21.82105">
        <ele>103.314837</ele>
        <time>2020-10-07T19:03:21.611Z</time>
      </trkpt>
      <trkpt lat="53.20088" lon="21.8199">
        <ele>102.868922</ele>
        <time>2020-10-07T19:03:37.624Z</time>
      </trkpt>
      <trkpt lat="53.20142" lon="21.81819">
        <ele>102.611066</ele>
        <time>2020-10-07T19:04:19.487Z</time>
      </trkpt>
      <trkpt lat="53.20235" lon="21.81528">
        <ele>102.640226</ele>
        <time>2020-10-07T19:05:32.664Z</time>
      </trkpt>
      <trkpt lat="53.20265" lon="21.81423">
        <ele>102.816541</ele>
        <time>2020-10-07T19:05:59.926Z</time>
      </trkpt>
      <trkpt lat="53.20286" lon="21.81325">
        <ele>103.15375</ele>
        <time>2020-10-07T19:06:25.194Z</time>
      </trkpt>
      <trkpt lat="53.20288" lon="21.81249">
        <ele>103.40034</ele>
        <time>2020-10-07T19:06:43.414Z</time>
      </trkpt>
      <trkpt lat="53.20281" lon="21.81196">
        <ele>103.575585</ele>
        <time>2020-10-07T19:06:55.699Z</time>
      </trkpt>
      <trkpt lat="53.2029" lon="21.81151">
        <ele>103.734844</ele>
        <time>2020-10-07T19:07:06.798Z</time>
      </trkpt>
      <trkpt lat="53.20295" lon="21.81126">
        <ele>103.822993</ele>
        <time>2020-10-07T19:07:12.363Z</time>
      </trkpt>
      <trkpt lat="53.20303" lon="21.81062">
        <ele>104.047234</ele>
        <time>2020-10-07T19:07:26.978Z</time>
      </trkpt>
      <trkpt lat="53.20298" lon="21.8102">
        <ele>104.195117</ele>
        <time>2020-10-07T19:07:36.856Z</time>
      </trkpt>
      <trkpt lat="53.20291" lon="21.8098">
        <ele>104.339469</ele>
        <time>2020-10-07T19:07:47.651Z</time>
      </trkpt>
      <trkpt lat="53.20278" lon="21.80955">
        <ele>104.456279</ele>
        <time>2020-10-07T19:07:55.031Z</time>
      </trkpt>
      <trkpt lat="53.20265" lon="21.80931">
        <ele>104.565285</ele>
        <time>2020-10-07T19:08:03.568Z</time>
      </trkpt>
      <trkpt lat="53.20225" lon="21.80864">
        <ele>105.263159</ele>
        <time>2020-10-07T19:08:26.163Z</time>
      </trkpt>
      <trkpt lat="53.20221" lon="21.8084">
        <ele>105.52411</ele>
        <time>2020-10-07T19:08:32.959Z</time>
      </trkpt>
      <trkpt lat="53.20208" lon="21.80855">
        <ele>105.809449</ele>
        <time>2020-10-07T19:08:38.780Z</time>
      </trkpt>
      <trkpt lat="53.20196" lon="21.80838">
        <ele>106.090646</ele>
        <time>2020-10-07T19:08:46.871Z</time>
      </trkpt>
      <trkpt lat="53.20166" lon="21.80747">
        <ele>107.181434</ele>
        <time>2020-10-07T19:09:14.763Z</time>
      </trkpt>
      <trkpt lat="53.20158" lon="21.80682">
        <ele>107.881902</ele>
        <time>2020-10-07T19:09:33.751Z</time>
      </trkpt>
      <trkpt lat="53.2015" lon="21.80656">
        <ele>108.114799</ele>
        <time>2020-10-07T19:09:42.053Z</time>
      </trkpt>
      <trkpt lat="53.2013" lon="21.80604">
        <ele>108.614869</ele>
        <time>2020-10-07T19:09:59.057Z</time>
      </trkpt>
      <trkpt lat="53.20076" lon="21.80502">
        <ele>109.708643</ele>
        <time>2020-10-07T19:10:33.610Z</time>
      </trkpt>
      <trkpt lat="53.19875" lon="21.80207">
        <ele>110.337963</ele>
        <time>2020-10-07T19:12:16.420Z</time>
      </trkpt>
      <trkpt lat="53.19854" lon="21.80144">
        <ele>109.84786</ele>
        <time>2020-10-07T19:12:30.405Z</time>
      </trkpt>
      <trkpt lat="53.19846" lon="21.80099">
        <ele>109.521027</ele>
        <time>2020-10-07T19:12:39.654Z</time>
      </trkpt>
      <trkpt lat="53.19813" lon="21.80048">
        <ele>109.013013</ele>
        <time>2020-10-07T19:12:53.846Z</time>
      </trkpt>
      <trkpt lat="53.19757" lon="21.79979">
        <ele>108.044262</ele>
        <time>2020-10-07T19:13:15.838Z</time>
      </trkpt>
      <trkpt lat="53.19713" lon="21.79971">
        <ele>107.385284</ele>
        <time>2020-10-07T19:13:30.032Z</time>
      </trkpt>
      <trkpt lat="53.19697" lon="21.79977">
        <ele>107.136951</ele>
        <time>2020-10-07T19:13:35.458Z</time>
      </trkpt>
      <trkpt lat="53.1967" lon="21.7996">
        <ele>106.722874</ele>
        <time>2020-10-07T19:13:44.652Z</time>
      </trkpt>
      <trkpt lat="53.19659" lon="21.799">
        <ele>106.162181</ele>
        <time>2020-10-07T19:13:57.484Z</time>
      </trkpt>
      <trkpt lat="53.19639" lon="21.79854">
        <ele>106.113676</ele>
        <time>2020-10-07T19:14:09.727Z</time>
      </trkpt>
      <trkpt lat="53.19535" lon="21.79707">
        <ele>106.055751</ele>
        <time>2020-10-07T19:15:01.207Z</time>
      </trkpt>
      <trkpt lat="53.19492" lon="21.79621">
        <ele>105.902858</ele>
        <time>2020-10-07T19:15:26.792Z</time>
      </trkpt>
      <trkpt lat="53.19466" lon="21.7959">
        <ele>105.818785</ele>
        <time>2020-10-07T19:15:38.463Z</time>
      </trkpt>
      <trkpt lat="53.19435" lon="21.79531">
        <ele>105.694874</ele>
        <time>2020-10-07T19:15:55.104Z</time>
      </trkpt>
      <trkpt lat="53.19435" lon="21.79503">
        <ele>105.651363</ele>
        <time>2020-10-07T19:16:00.769Z</time>
      </trkpt>
      <trkpt lat="53.19429" lon="21.79489">
        <ele>105.623881</ele>
        <time>2020-10-07T19:16:04.411Z</time>
      </trkpt>
      <trkpt lat="53.1937" lon="21.79409">
        <ele>105.070142</ele>
        <time>2020-10-07T19:16:30.348Z</time>
      </trkpt>
      <trkpt lat="53.19338" lon="21.79326">
        <ele>104.548282</ele>
        <time>2020-10-07T19:16:50.153Z</time>
      </trkpt>
      <trkpt lat="53.19274" lon="21.79223">
        <ele>103.914265</ele>
        <time>2020-10-07T19:17:20.677Z</time>
      </trkpt>
      <trkpt lat="53.19231" lon="21.79137">
        <ele>103.740072</ele>
        <time>2020-10-07T19:17:35.284Z</time>
      </trkpt>
      <trkpt lat="53.19203" lon="21.7908">
        <ele>103.626031</ele>
        <time>2020-10-07T19:17:45.461Z</time>
      </trkpt>
      <trkpt lat="53.19176" lon="21.7901">
        <ele>103.533914</ele>
        <time>2020-10-07T19:17:57.295Z</time>
      </trkpt>
      <trkpt lat="53.19113" lon="21.78946">
        <ele>103.767441</ele>
        <time>2020-10-07T19:18:15.258Z</time>
      </trkpt>
      <trkpt lat="53.19062" lon="21.78907">
        <ele>103.946815</ele>
        <time>2020-10-07T19:18:29.283Z</time>
      </trkpt>
      <trkpt lat="53.1902" lon="21.7883">
        <ele>104.161013</ele>
        <time>2020-10-07T19:18:44.747Z</time>
      </trkpt>
      <trkpt lat="53.18933" lon="21.78697">
        <ele>104.640107</ele>
        <time>2020-10-07T19:19:13.311Z</time>
      </trkpt>
      <trkpt lat="53.18842" lon="21.78532">
        <ele>106.40917</ele>
        <time>2020-10-07T19:19:48.126Z</time>
      </trkpt>
      <trkpt lat="53.18837" lon="21.78518">
        <ele>106.589726</ele>
        <time>2020-10-07T19:19:51.519Z</time>
      </trkpt>
      <trkpt lat="53.18817" lon="21.78466">
        <ele>107.235955</ele>
        <time>2020-10-07T19:20:03.528Z</time>
      </trkpt>
      <trkpt lat="53.18811" lon="21.78442">
        <ele>107.506187</ele>
        <time>2020-10-07T19:20:08.335Z</time>
      </trkpt>
      <trkpt lat="53.18762" lon="21.78492">
        <ele>109.062367</ele>
        <time>2020-10-07T19:20:29.280Z</time>
      </trkpt>
      <trkpt lat="53.18623" lon="21.78631">
        <ele>114.610787</ele>
        <time>2020-10-07T19:21:31.590Z</time>
      </trkpt>
      <trkpt lat="53.18406" lon="21.78841">
        <ele>116.23629</ele>
        <time>2020-10-07T19:22:38.625Z</time>
      </trkpt>
      <trkpt lat="53.17997" lon="21.7923">
        <ele>109.532012</ele>
        <time>2020-10-07T19:24:01.968Z</time>
      </trkpt>
      <trkpt lat="53.17911" lon="21.79315">
        <ele>109.2885</ele>
        <time>2020-10-07T19:24:21.768Z</time>
      </trkpt>
      <trkpt lat="53.17581" lon="21.7964">
        <ele>113.020865</ele>
        <time>2020-10-07T19:26:05.875Z</time>
      </trkpt>
      <trkpt lat="53.17395" lon="21.79774">
        <ele>115.349859</ele>
        <time>2020-10-07T19:27:01.711Z</time>
      </trkpt>
      <trkpt lat="53.17345" lon="21.79885">
        <ele>115.539548</ele>
        <time>2020-10-07T19:27:21.639Z</time>
      </trkpt>
      <trkpt lat="53.17167" lon="21.80133">
        <ele>115.2938</ele>
        <time>2020-10-07T19:28:09.917Z</time>
      </trkpt>
      <trkpt lat="53.1706" lon="21.80177">
        <ele>115.623733</ele>
        <time>2020-10-07T19:28:35.061Z</time>
      </trkpt>
      <trkpt lat="53.1691" lon="21.80317">
        <ele>117.558259</ele>
        <time>2020-10-07T19:29:22.065Z</time>
      </trkpt>
      <trkpt lat="53.16857" lon="21.80429">
        <ele>119.049034</ele>
        <time>2020-10-07T19:29:47.767Z</time>
      </trkpt>
      <trkpt lat="53.16742" lon="21.80581">
        <ele>121.407057</ele>
        <time>2020-10-07T19:30:31.262Z</time>
      </trkpt>
      <trkpt lat="53.16387" lon="21.80746">
        <ele>125.593873</ele>
        <time>2020-10-07T19:32:10.767Z</time>
      </trkpt>
      <trkpt lat="53.1623" lon="21.80867">
        <ele>125.266515</ele>
        <time>2020-10-07T19:32:49.837Z</time>
      </trkpt>
      <trkpt lat="53.16104" lon="21.80935">
        <ele>123.358096</ele>
        <time>2020-10-07T19:33:13.272Z</time>
      </trkpt>
      <trkpt lat="53.15991" lon="21.81057">
        <ele>120.144295</ele>
        <time>2020-10-07T19:33:35.732Z</time>
      </trkpt>
      <trkpt lat="53.15251" lon="21.81418">
        <ele>111.068041</ele>
        <time>2020-10-07T19:35:59.757Z</time>
      </trkpt>
      <trkpt lat="53.15389" lon="21.82092">
        <ele>115.593389</ele>
        <time>2020-10-07T19:38:05.613Z</time>
      </trkpt>
      <trkpt lat="53.15276" lon="21.82144">
        <ele>115.63879</ele>
        <time>2020-10-07T19:38:32.148Z</time>
      </trkpt>
      <trkpt lat="53.15161" lon="21.82193">
        <ele>114.526297</ele>
        <time>2020-10-07T19:38:55.454Z</time>
      </trkpt>
      <trkpt lat="53.15155" lon="21.82196">
        <ele>114.455584</ele>
        <time>2020-10-07T19:38:56.711Z</time>
      </trkpt>
      <trkpt lat="53.15148" lon="21.82199">
        <ele>114.370703</ele>
        <time>2020-10-07T19:38:57.912Z</time>
      </trkpt>
      <trkpt lat="53.15154" lon="21.82231">
        <ele>114.105331</ele>
        <time>2020-10-07T19:39:01.659Z</time>
      </trkpt>
      <trkpt lat="53.15175" lon="21.82356">
        <ele>113.094834</ele>
        <time>2020-10-07T19:39:15.711Z</time>
      </trkpt>
      <trkpt lat="53.15167" lon="21.82359">
        <ele>112.985286</ele>
        <time>2020-10-07T19:39:17.258Z</time>
      </trkpt>
      <trkpt lat="53.14919" lon="21.8245">
        <ele>111.149642</ele>
        <time>2020-10-07T19:40:10.012Z</time>
      </trkpt>
      <trkpt lat="53.14882" lon="21.82465">
        <ele>111.525496</ele>
        <time>2020-10-07T19:40:20.119Z</time>
      </trkpt>
      <trkpt lat="53.14836" lon="21.82471">
        <ele>111.971448</ele>
        <time>2020-10-07T19:40:32.887Z</time>
      </trkpt>
      <trkpt lat="53.14724" lon="21.82475">
        <ele>113.047664</ele>
        <time>2020-10-07T19:41:05.750Z</time>
      </trkpt>
      <trkpt lat="53.14705" lon="21.8248">
        <ele>113.225288</ele>
        <time>2020-10-07T19:41:11.188Z</time>
      </trkpt>
      <trkpt lat="53.14699" lon="21.82493">
        <ele>113.315979</ele>
        <time>2020-10-07T19:41:13.880Z</time>
      </trkpt>
      <trkpt lat="53.14495" lon="21.82827">
        <ele>115.590929</ele>
        <time>2020-10-07T19:42:25.485Z</time>
      </trkpt>
      <trkpt lat="53.14293" lon="21.83162">
        <ele>118.303072</ele>
        <time>2020-10-07T19:43:36.667Z</time>
      </trkpt>
      <trkpt lat="53.13901" lon="21.83809">
        <ele>126.661442</ele>
        <time>2020-10-07T19:46:18.620Z</time>
      </trkpt>
      <trkpt lat="53.13596" lon="21.83932">
        <ele>128.27999</ele>
        <time>2020-10-07T19:47:33.004Z</time>
      </trkpt>
      <trkpt lat="53.13463" lon="21.84035">
        <ele>128.443908</ele>
        <time>2020-10-07T19:48:06.198Z</time>
      </trkpt>
      <trkpt lat="53.1315" lon="21.84198">
        <ele>128.068299</ele>
        <time>2020-10-07T19:49:17.573Z</time>
      </trkpt>
      <trkpt lat="53.12921" lon="21.84375">
        <ele>127.706367</ele>
        <time>2020-10-07T19:50:11.380Z</time>
      </trkpt>
      <trkpt lat="53.12865" lon="21.84397">
        <ele>127.75963</ele>
        <time>2020-10-07T19:50:24.660Z</time>
      </trkpt>
      <trkpt lat="53.12804" lon="21.84443">
        <ele>127.831263</ele>
        <time>2020-10-07T19:50:40.731Z</time>
      </trkpt>
      <trkpt lat="53.12661" lon="21.84566">
        <ele>128.312498</ele>
        <time>2020-10-07T19:51:19.257Z</time>
      </trkpt>
      <trkpt lat="53.1247" lon="21.847">
        <ele>127.713214</ele>
        <time>2020-10-07T19:52:03.663Z</time>
      </trkpt>
      <trkpt lat="53.11885" lon="21.85363">
        <ele>119.088506</ele>
        <time>2020-10-07T19:54:16.740Z</time>
      </trkpt>
      <trkpt lat="53.11839" lon="21.85416">
        <ele>118.302437</ele>
        <time>2020-10-07T19:54:26.851Z</time>
      </trkpt>
      <trkpt lat="53.11725" lon="21.85535">
        <ele>116.462248</ele>
        <time>2020-10-07T19:54:51.642Z</time>
      </trkpt>
      <trkpt lat="53.11082" lon="21.86097">
        <ele>110.344023</ele>
        <time>2020-10-07T19:57:14.939Z</time>
      </trkpt>
      <trkpt lat="53.11021" lon="21.86147">
        <ele>109.903975</ele>
        <time>2020-10-07T19:57:28.505Z</time>
      </trkpt>
      <trkpt lat="53.10998" lon="21.86167">
        <ele>109.732651</ele>
        <time>2020-10-07T19:57:33.794Z</time>
      </trkpt>
      <trkpt lat="53.10985" lon="21.86106">
        <ele>109.482591</ele>
        <time>2020-10-07T19:57:41.532Z</time>
      </trkpt>
      <trkpt lat="53.10895" lon="21.85567">
        <ele>109.017871</ele>
        <time>2020-10-07T19:58:51.751Z</time>
      </trkpt>
      <trkpt lat="53.10891" lon="21.85521">
        <ele>109.125187</ele>
        <time>2020-10-07T19:58:59.204Z</time>
      </trkpt>
      <trkpt lat="53.10904" lon="21.85063">
        <ele>115.273266</ele>
        <time>2020-10-07T20:00:32.889Z</time>
      </trkpt>
      <trkpt lat="53.10897" lon="21.84996">
        <ele>116.119264</ele>
        <time>2020-10-07T20:00:46.412Z</time>
      </trkpt>
      <trkpt lat="53.10859" lon="21.84851">
        <ele>117.505</ele>
        <time>2020-10-07T20:01:13.582Z</time>
      </trkpt>
      <trkpt lat="53.10844" lon="21.84823">
        <ele>117.457112</ele>
        <time>2020-10-07T20:01:19.694Z</time>
      </trkpt>
      <trkpt lat="53.1085" lon="21.84807">
        <ele>117.43287</ele>
        <time>2020-10-07T20:01:23.681Z</time>
      </trkpt>
      <trkpt lat="53.10832" lon="21.84338">
        <ele>116.099033</ele>
        <time>2020-10-07T20:03:00.390Z</time>
      </trkpt>
      <trkpt lat="53.10847" lon="21.84152">
        <ele>116.668595</ele>
        <time>2020-10-07T20:03:43.389Z</time>
      </trkpt>
      <trkpt lat="53.10888" lon="21.83783">
        <ele>119.326042</ele>
        <time>2020-10-07T20:05:20.777Z</time>
      </trkpt>
      <trkpt lat="53.10891" lon="21.83665">
        <ele>120.079597</ele>
        <time>2020-10-07T20:05:51.138Z</time>
      </trkpt>
      <trkpt lat="53.10882" lon="21.8352">
        <ele>120.567356</ele>
        <time>2020-10-07T20:06:26.576Z</time>
      </trkpt>
      <trkpt lat="53.10851" lon="21.83334">
        <ele>120.188491</ele>
        <time>2020-10-07T20:07:08.422Z</time>
      </trkpt>
      <trkpt lat="53.10732" lon="21.82897">
        <ele>115.659859</ele>
        <time>2020-10-07T20:08:40.503Z</time>
      </trkpt>
      <trkpt lat="53.10611" lon="21.82416">
        <ele>110.479431</ele>
        <time>2020-10-07T20:10:22.042Z</time>
      </trkpt>
      <trkpt lat="53.10621" lon="21.82387">
        <ele>110.140735</ele>
        <time>2020-10-07T20:10:28.432Z</time>
      </trkpt>
      <trkpt lat="53.10558" lon="21.82352">
        <ele>108.984787</ele>
        <time>2020-10-07T20:10:49.495Z</time>
      </trkpt>
      <trkpt lat="53.10494" lon="21.82295">
        <ele>107.661522</ele>
        <time>2020-10-07T20:11:12.386Z</time>
      </trkpt>
      <trkpt lat="53.10448" lon="21.82244">
        <ele>106.64533</ele>
        <time>2020-10-07T20:11:29.811Z</time>
      </trkpt>
      <trkpt lat="53.10357" lon="21.82103">
        <ele>105.603872</ele>
        <time>2020-10-07T20:12:10.970Z</time>
      </trkpt>
      <trkpt lat="53.10338" lon="21.82069">
        <ele>105.452587</ele>
        <time>2020-10-07T20:12:21.008Z</time>
      </trkpt>
      <trkpt lat="53.10281" lon="21.81976">
        <ele>105.558541</ele>
        <time>2020-10-07T20:12:40.374Z</time>
      </trkpt>
      <trkpt lat="53.10264" lon="21.81937">
        <ele>106.079965</ele>
        <time>2020-10-07T20:12:48.335Z</time>
      </trkpt>
      <trkpt lat="53.10236" lon="21.81852">
        <ele>107.123997</ele>
        <time>2020-10-07T20:13:06.112Z</time>
      </trkpt>
      <trkpt lat="53.10213" lon="21.81808">
        <ele>107.756396</ele>
        <time>2020-10-07T20:13:17.575Z</time>
      </trkpt>
      <trkpt lat="53.10178" lon="21.81766">
        <ele>108.517324</ele>
        <time>2020-10-07T20:13:31.272Z</time>
      </trkpt>
      <trkpt lat="53.10147" lon="21.81745">
        <ele>109.087466</ele>
        <time>2020-10-07T20:13:41.714Z</time>
      </trkpt>
      <trkpt lat="53.1008" lon="21.81728">
        <ele>110.254324</ele>
        <time>2020-10-07T20:14:02.206Z</time>
      </trkpt>
      <trkpt lat="53.09943" lon="21.818">
        <ele>111.89554</ele>
        <time>2020-10-07T20:14:40.425Z</time>
      </trkpt>
      <trkpt lat="53.09902" lon="21.8181">
        <ele>112.138236</ele>
        <time>2020-10-07T20:14:50.377Z</time>
      </trkpt>
      <trkpt lat="53.09882" lon="21.81807">
        <ele>112.253228</ele>
        <time>2020-10-07T20:14:55.084Z</time>
      </trkpt>
      <trkpt lat="53.09853" lon="21.81784">
        <ele>112.44099</ele>
        <time>2020-10-07T20:15:02.744Z</time>
      </trkpt>
      <trkpt lat="53.09682" lon="21.81606">
        <ele>111.965381</ele>
        <time>2020-10-07T20:15:46.540Z</time>
      </trkpt>
      <trkpt lat="53.09671" lon="21.81578">
        <ele>111.64483</ele>
        <time>2020-10-07T20:15:50.380Z</time>
      </trkpt>
      <trkpt lat="53.09376" lon="21.81424">
        <ele>106.805607</ele>
        <time>2020-10-07T20:16:45.103Z</time>
      </trkpt>
      <trkpt lat="53.08687" lon="21.80682">
        <ele>107.197317</ele>
        <time>2020-10-07T20:21:52.766Z</time>
      </trkpt>
      <trkpt lat="53.08525" lon="21.8049">
        <ele>108.312492</ele>
        <time>2020-10-07T20:23:12.575Z</time>
      </trkpt>
      <trkpt lat="53.08498" lon="21.80444">
        <ele>108.564111</ele>
        <time>2020-10-07T20:23:27.693Z</time>
      </trkpt>
      <trkpt lat="53.08433" lon="21.8027">
        <ele>109.225069</ele>
        <time>2020-10-07T20:24:16.015Z</time>
      </trkpt>
      <trkpt lat="53.08413" lon="21.80231">
        <ele>109.366845</ele>
        <time>2020-10-07T20:24:27.741Z</time>
      </trkpt>
      <trkpt lat="53.08398" lon="21.80213">
        <ele>109.45275</ele>
        <time>2020-10-07T20:24:34.752Z</time>
      </trkpt>
      <trkpt lat="53.08202" lon="21.80009">
        <ele>110.925584</ele>
        <time>2020-10-07T20:26:05.669Z</time>
      </trkpt>
      <trkpt lat="53.08177" lon="21.7997">
        <ele>111.441292</ele>
        <time>2020-10-07T20:26:20.403Z</time>
      </trkpt>
      <trkpt lat="53.08008" lon="21.79808">
        <ele>114.093849</ele>
        <time>2020-10-07T20:27:45.984Z</time>
      </trkpt>
      <trkpt lat="53.07809" lon="21.79631">
        <ele>115.588704</ele>
        <time>2020-10-07T20:29:15.874Z</time>
      </trkpt>
      <trkpt lat="53.07755" lon="21.79597">
        <ele>115.725699</ele>
        <time>2020-10-07T20:29:37.261Z</time>
      </trkpt>
      <trkpt lat="53.07653" lon="21.79548">
        <ele>115.105791</ele>
        <time>2020-10-07T20:30:14.311Z</time>
      </trkpt>
      <trkpt lat="53.07558" lon="21.79502">
        <ele>114.262131</ele>
        <time>2020-10-07T20:30:47.603Z</time>
      </trkpt>
      <trkpt lat="53.07517" lon="21.79487">
        <ele>113.677845</ele>
        <time>2020-10-07T20:31:01.628Z</time>
      </trkpt>
      <trkpt lat="53.07253" lon="21.79391">
        <ele>109.896336</ele>
        <time>2020-10-07T20:32:29.852Z</time>
      </trkpt>
      <trkpt lat="53.07217" lon="21.79378">
        <ele>109.391129</ele>
        <time>2020-10-07T20:32:41.490Z</time>
      </trkpt>
      <trkpt lat="53.06836" lon="21.79226">
        <ele>106.360666</ele>
        <time>2020-10-07T20:34:55.783Z</time>
      </trkpt>
      <trkpt lat="53.06491" lon="21.79089">
        <ele>109.364951</ele>
        <time>2020-10-07T20:37:20.942Z</time>
      </trkpt>
      <trkpt lat="53.06486" lon="21.79087">
        <ele>109.424689</ele>
        <time>2020-10-07T20:37:23.317Z</time>
      </trkpt>
      <trkpt lat="53.06245" lon="21.78973">
        <ele>112.160328</ele>
        <time>2020-10-07T20:39:07.984Z</time>
      </trkpt>
      <trkpt lat="53.06215" lon="21.7896">
        <ele>112.467474</ele>
        <time>2020-10-07T20:39:20.517Z</time>
      </trkpt>
      <trkpt lat="53.06196" lon="21.78959">
        <ele>112.65719</ele>
        <time>2020-10-07T20:39:28.210Z</time>
      </trkpt>
      <trkpt lat="53.06157" lon="21.78939">
        <ele>113.050502</ele>
        <time>2020-10-07T20:39:44.647Z</time>
      </trkpt>
      <trkpt lat="53.0611" lon="21.78927">
        <ele>113.197377</ele>
        <time>2020-10-07T20:40:04.049Z</time>
      </trkpt>
      <trkpt lat="53.06016" lon="21.78903">
        <ele>113.485402</ele>
        <time>2020-10-07T20:40:40.700Z</time>
      </trkpt>
      <trkpt lat="53.06004" lon="21.78923">
        <ele>113.536559</ele>
        <time>2020-10-07T20:40:44.235Z</time>
      </trkpt>
      <trkpt lat="53.05966" lon="21.78986">
        <ele>113.392121</ele>
        <time>2020-10-07T20:40:55.363Z</time>
      </trkpt>
      <trkpt lat="53.05919" lon="21.79073">
        <ele>113.003561</ele>
        <time>2020-10-07T20:41:09.436Z</time>
      </trkpt>
      <trkpt lat="53.05917" lon="21.7909">
        <ele>112.944395</ele>
        <time>2020-10-07T20:41:11.456Z</time>
      </trkpt>
      <trkpt lat="53.05858" lon="21.79068">
        <ele>112.608675</ele>
        <time>2020-10-07T20:41:32.300Z</time>
      </trkpt>
      <trkpt lat="53.05267" lon="21.78778">
        <ele>111.024216</ele>
        <time>2020-10-07T20:45:14.668Z</time>
      </trkpt>
      <trkpt lat="53.04885" lon="21.78494">
        <ele>110.763857</ele>
        <time>2020-10-07T20:47:48.938Z</time>
      </trkpt>
      <trkpt lat="53.03953" lon="21.77749">
        <ele>111.907904</ele>
        <time>2020-10-07T20:54:17.552Z</time>
      </trkpt>
      <trkpt lat="53.03928" lon="21.77736">
        <ele>111.941268</ele>
        <time>2020-10-07T20:54:23.535Z</time>
      </trkpt>
      <trkpt lat="53.03917" lon="21.77723">
        <ele>111.957782</ele>
        <time>2020-10-07T20:54:26.657Z</time>
      </trkpt>
      <trkpt lat="53.03865" lon="21.77674">
        <ele>112.038694</ele>
        <time>2020-10-07T20:54:40.311Z</time>
      </trkpt>
      <trkpt lat="53.03843" lon="21.77667">
        <ele>112.086672</ele>
        <time>2020-10-07T20:54:45.397Z</time>
      </trkpt>
      <trkpt lat="53.03745" lon="21.77667">
        <ele>112.302014</ele>
        <time>2020-10-07T20:55:08.175Z</time>
      </trkpt>
      <trkpt lat="53.03654" lon="21.77653">
        <ele>112.46343</ele>
        <time>2020-10-07T20:55:29.312Z</time>
      </trkpt>
      <trkpt lat="53.03617" lon="21.77618">
        <ele>112.515146</ele>
        <time>2020-10-07T20:55:39.281Z</time>
      </trkpt>
      <trkpt lat="53.0358" lon="21.7757">
        <ele>112.571221</ele>
        <time>2020-10-07T20:55:49.904Z</time>
      </trkpt>
      <trkpt lat="53.03562" lon="21.77523">
        <ele>112.611299</ele>
        <time>2020-10-07T20:55:57.415Z</time>
      </trkpt>
      <trkpt lat="53.03557" lon="21.77483">
        <ele>112.61344</ele>
        <time>2020-10-07T20:56:03.035Z</time>
      </trkpt>
      <trkpt lat="53.03547" lon="21.77489">
        <ele>112.575236</ele>
        <time>2020-10-07T20:56:05.241Z</time>
      </trkpt>
      <trkpt lat="53.03529" lon="21.77501">
        <ele>112.502456</ele>
        <time>2020-10-07T20:56:09.513Z</time>
      </trkpt>
      <trkpt lat="53.03507" lon="21.77515">
        <ele>112.414031</ele>
        <time>2020-10-07T20:56:14.665Z</time>
      </trkpt>
      <trkpt lat="53.03016" lon="21.77834">
        <ele>110.401373</ele>
        <time>2020-10-07T20:58:03.895Z</time>
      </trkpt>
      <trkpt lat="53.03006" lon="21.77835">
        <ele>110.383134</ele>
        <time>2020-10-07T20:58:05.845Z</time>
      </trkpt>
      <trkpt lat="53.02986" lon="21.77833">
        <ele>110.343563</ele>
        <time>2020-10-07T20:58:10.367Z</time>
      </trkpt>
      <trkpt lat="53.02778" lon="21.7764">
        <ele>110.26588</ele>
        <time>2020-10-07T20:59:05.965Z</time>
      </trkpt>
      <trkpt lat="53.02727" lon="21.77606">
        <ele>110.311976</ele>
        <time>2020-10-07T20:59:19.315Z</time>
      </trkpt>
      <trkpt lat="53.02662" lon="21.77557">
        <ele>110.350423</ele>
        <time>2020-10-07T20:59:35.614Z</time>
      </trkpt>
      <trkpt lat="53.02633" lon="21.77533">
        <ele>110.368148</ele>
        <time>2020-10-07T20:59:43.076Z</time>
      </trkpt>
      <trkpt lat="53.02605" lon="21.77497">
        <ele>110.387329</ele>
        <time>2020-10-07T20:59:51.017Z</time>
      </trkpt>
      <trkpt lat="53.02492" lon="21.772">
        <ele>110.029934</ele>
        <time>2020-10-07T21:00:36.266Z</time>
      </trkpt>
      <trkpt lat="53.02484" lon="21.77178">
        <ele>110.005704</ele>
        <time>2020-10-07T21:00:39.587Z</time>
      </trkpt>
      <trkpt lat="53.02049" lon="21.76093">
        <ele>108.900439</ele>
        <time>2020-10-07T21:03:29.929Z</time>
      </trkpt>
      <trkpt lat="53.01967" lon="21.75868">
        <ele>109.040125</ele>
        <time>2020-10-07T21:04:05.795Z</time>
      </trkpt>
      <trkpt lat="53.01886" lon="21.7561">
        <ele>109.668805</ele>
        <time>2020-10-07T21:04:47.610Z</time>
      </trkpt>
      <trkpt lat="53.01872" lon="21.75577">
        <ele>109.794724</ele>
        <time>2020-10-07T21:04:53.494Z</time>
      </trkpt>
      <trkpt lat="53.01861" lon="21.75557">
        <ele>109.877961</ele>
        <time>2020-10-07T21:04:57.397Z</time>
      </trkpt>
      <trkpt lat="53.01824" lon="21.75515">
        <ele>110.116785</ele>
        <time>2020-10-07T21:05:08.625Z</time>
      </trkpt>
      <trkpt lat="53.01703" lon="21.75403">
        <ele>110.866266</ele>
        <time>2020-10-07T21:05:42.680Z</time>
      </trkpt>
      <trkpt lat="53.0161" lon="21.75308">
        <ele>111.384343</ele>
        <time>2020-10-07T21:06:09.239Z</time>
      </trkpt>
      <trkpt lat="53.01543" lon="21.75227">
        <ele>111.594883</ele>
        <time>2020-10-07T21:06:28.626Z</time>
      </trkpt>
      <trkpt lat="53.01499" lon="21.75174">
        <ele>111.731825</ele>
        <time>2020-10-07T21:06:40.821Z</time>
      </trkpt>
      <trkpt lat="53.01359" lon="21.75106">
        <ele>111.842761</ele>
        <time>2020-10-07T21:07:13.554Z</time>
      </trkpt>
      <trkpt lat="53.0091" lon="21.74937">
        <ele>112.072305</ele>
        <time>2020-10-07T21:08:58.502Z</time>
      </trkpt>
      <trkpt lat="53.00713" lon="21.74864">
        <ele>111.346912</ele>
        <time>2020-10-07T21:09:38.892Z</time>
      </trkpt>
      <trkpt lat="53.00265" lon="21.74706">
        <ele>110.754378</ele>
        <time>2020-10-07T21:11:18.916Z</time>
      </trkpt>
      <trkpt lat="52.99933" lon="21.74608">
        <ele>113.191453</ele>
        <time>2020-10-07T21:12:45.879Z</time>
      </trkpt>
      <trkpt lat="52.99895" lon="21.74597">
        <ele>113.34516</ele>
        <time>2020-10-07T21:12:54.663Z</time>
      </trkpt>
      <trkpt lat="52.99841" lon="21.74581">
        <ele>113.004476</ele>
        <time>2020-10-07T21:13:06.417Z</time>
      </trkpt>
      <trkpt lat="52.99807" lon="21.74575">
        <ele>112.797468</ele>
        <time>2020-10-07T21:13:13.162Z</time>
      </trkpt>
      <trkpt lat="52.99729" lon="21.74576">
        <ele>112.315441</ele>
        <time>2020-10-07T21:13:28.236Z</time>
      </trkpt>
      <trkpt lat="52.99719" lon="21.74571">
        <ele>112.220984</ele>
        <time>2020-10-07T21:13:30.189Z</time>
      </trkpt>
      <trkpt lat="52.99649" lon="21.74551">
        <ele>111.476359</ele>
        <time>2020-10-07T21:13:43.605Z</time>
      </trkpt>
      <trkpt lat="52.99499" lon="21.7452">
        <ele>110.001872</ele>
        <time>2020-10-07T21:14:12.852Z</time>
      </trkpt>
      <trkpt lat="52.99463" lon="21.74509">
        <ele>109.708012</ele>
        <time>2020-10-07T21:14:20.166Z</time>
      </trkpt>
      <trkpt lat="52.99286" lon="21.74395">
        <ele>108.473244</ele>
        <time>2020-10-07T21:14:58.242Z</time>
      </trkpt>
      <trkpt lat="52.99266" lon="21.74388">
        <ele>108.370613</ele>
        <time>2020-10-07T21:15:02.440Z</time>
      </trkpt>
      <trkpt lat="52.9923" lon="21.74391">
        <ele>108.189481</ele>
        <time>2020-10-07T21:15:09.922Z</time>
      </trkpt>
      <trkpt lat="52.99208" lon="21.74402">
        <ele>108.075734</ele>
        <time>2020-10-07T21:15:14.665Z</time>
      </trkpt>
      <trkpt lat="52.98997" lon="21.74616">
        <ele>108.050973</ele>
        <time>2020-10-07T21:16:09.461Z</time>
      </trkpt>
      <trkpt lat="52.9871" lon="21.74825">
        <ele>108.613124</ele>
        <time>2020-10-07T21:17:23.300Z</time>
      </trkpt>
      <trkpt lat="52.98585" lon="21.74869">
        <ele>107.932703</ele>
        <time>2020-10-07T21:17:49.077Z</time>
      </trkpt>
      <trkpt lat="52.98549" lon="21.74869">
        <ele>107.742109</ele>
        <time>2020-10-07T21:17:56.128Z</time>
      </trkpt>
      <trkpt lat="52.98505" lon="21.7485">
        <ele>107.640726</ele>
        <time>2020-10-07T21:18:05.082Z</time>
      </trkpt>
      <trkpt lat="52.98481" lon="21.7484">
        <ele>107.585393</ele>
        <time>2020-10-07T21:18:10.186Z</time>
      </trkpt>
      <trkpt lat="52.98416" lon="21.74831">
        <ele>107.439904</ele>
        <time>2020-10-07T21:18:24.060Z</time>
      </trkpt>
      <trkpt lat="52.98163" lon="21.74856">
        <ele>108.02817</ele>
        <time>2020-10-07T21:19:25.158Z</time>
      </trkpt>
      <trkpt lat="52.98061" lon="21.74868">
        <ele>108.055566</ele>
        <time>2020-10-07T21:19:47.421Z</time>
      </trkpt>
      <trkpt lat="52.97971" lon="21.74871">
        <ele>108.149782</ele>
        <time>2020-10-07T21:20:06.997Z</time>
      </trkpt>
      <trkpt lat="52.97888" lon="21.74874">
        <ele>108.311674</ele>
        <time>2020-10-07T21:20:25.986Z</time>
      </trkpt>
      <trkpt lat="52.97708" lon="21.74857">
        <ele>108.39821</ele>
        <time>2020-10-07T21:21:09.026Z</time>
      </trkpt>
      <trkpt lat="52.97588" lon="21.74837">
        <ele>107.48412</ele>
        <time>2020-10-07T21:21:32.913Z</time>
      </trkpt>
      <trkpt lat="52.97531" lon="21.74834">
        <ele>106.69481</ele>
        <time>2020-10-07T21:21:43.329Z</time>
      </trkpt>
      <trkpt lat="52.97384" lon="21.74827">
        <ele>104.472855</ele>
        <time>2020-10-07T21:22:09.370Z</time>
      </trkpt>
      <trkpt lat="52.97292" lon="21.74882">
        <ele>103.087265</ele>
        <time>2020-10-07T21:22:27.480Z</time>
      </trkpt>
      <trkpt lat="52.97286" lon="21.74797">
        <ele>103.385359</ele>
        <time>2020-10-07T21:22:37.770Z</time>
      </trkpt>
      <trkpt lat="52.97277" lon="21.74772">
        <ele>103.48454</ele>
        <time>2020-10-07T21:22:41.349Z</time>
      </trkpt>
      <trkpt lat="52.96654" lon="21.7394">
        <ele>108.00795</ele>
        <time>2020-10-07T21:26:03.859Z</time>
      </trkpt>
      <trkpt lat="52.96305" lon="21.73474">
        <ele>105.619104</ele>
        <time>2020-10-07T21:27:35.970Z</time>
      </trkpt>
      <trkpt lat="52.96278" lon="21.73432">
        <ele>105.115265</ele>
        <time>2020-10-07T21:27:42.981Z</time>
      </trkpt>
      <trkpt lat="52.96273" lon="21.73416">
        <ele>104.967678</ele>
        <time>2020-10-07T21:27:45.036Z</time>
      </trkpt>
      <trkpt lat="52.96273" lon="21.73409">
        <ele>104.904949</ele>
        <time>2020-10-07T21:27:45.892Z</time>
      </trkpt>
      <trkpt lat="52.96271" lon="21.73403">
        <ele>104.850663</ele>
        <time>2020-10-07T21:27:46.619Z</time>
      </trkpt>
      <trkpt lat="52.96268" lon="21.73399">
        <ele>104.801264</ele>
        <time>2020-10-07T21:27:47.318Z</time>
      </trkpt>
      <trkpt lat="52.96263" lon="21.73396">
        <ele>104.724038</ele>
        <time>2020-10-07T21:27:48.351Z</time>
      </trkpt>
      <trkpt lat="52.96247" lon="21.73388">
        <ele>104.497813</ele>
        <time>2020-10-07T21:27:51.261Z</time>
      </trkpt>
      <trkpt lat="52.96223" lon="21.73361">
        <ele>104.096821</ele>
        <time>2020-10-07T21:27:56.388Z</time>
      </trkpt>
      <trkpt lat="52.9617" lon="21.73304">
        <ele>103.201409</ele>
        <time>2020-10-07T21:28:07.231Z</time>
      </trkpt>
      <trkpt lat="52.96165" lon="21.73297">
        <ele>103.103967</ele>
        <time>2020-10-07T21:28:08.339Z</time>
      </trkpt>
      <trkpt lat="52.9612" lon="21.73246">
        <ele>102.325347</ele>
        <time>2020-10-07T21:28:18.296Z</time>
      </trkpt>
      <trkpt lat="52.96111" lon="21.73234">
        <ele>102.156457</ele>
        <time>2020-10-07T21:28:20.465Z</time>
      </trkpt>
      <trkpt lat="52.9606" lon="21.73165">
        <ele>101.650709</ele>
        <time>2020-10-07T21:28:33.977Z</time>
      </trkpt>
      <trkpt lat="52.96046" lon="21.73146">
        <ele>101.855277</ele>
        <time>2020-10-07T21:28:37.958Z</time>
      </trkpt>
      <trkpt lat="52.96007" lon="21.73094">
        <ele>102.40062</ele>
        <time>2020-10-07T21:28:50.789Z</time>
      </trkpt>
      <trkpt lat="52.9595" lon="21.73042">
        <ele>103.107812</ele>
        <time>2020-10-07T21:29:09.622Z</time>
      </trkpt>
      <trkpt lat="52.95844" lon="21.7297">
        <ele>104.865239</ele>
        <time>2020-10-07T21:29:45.483Z</time>
      </trkpt>
      <trkpt lat="52.95835" lon="21.72958">
        <ele>105.055729</ele>
        <time>2020-10-07T21:29:49.297Z</time>
      </trkpt>
      <trkpt lat="52.95695" lon="21.72867">
        <ele>106.834043</ele>
        <time>2020-10-07T21:30:30.601Z</time>
      </trkpt>
      <trkpt lat="52.95668" lon="21.72855">
        <ele>106.984561</ele>
        <time>2020-10-07T21:30:37.130Z</time>
      </trkpt>
      <trkpt lat="52.95652" lon="21.72855">
        <ele>107.071003</ele>
        <time>2020-10-07T21:30:40.770Z</time>
      </trkpt>
      <trkpt lat="52.95646" lon="21.72836">
        <ele>107.142374</ele>
        <time>2020-10-07T21:30:43.903Z</time>
      </trkpt>
      <trkpt lat="52.95194" lon="21.72541">
        <ele>109.396582</ele>
        <time>2020-10-07T21:32:39.680Z</time>
      </trkpt>
      <trkpt lat="52.94833" lon="21.72408">
        <ele>112.195894</ele>
        <time>2020-10-07T21:34:14.782Z</time>
      </trkpt>
      <trkpt lat="52.948" lon="21.7239">
        <ele>112.409555</ele>
        <time>2020-10-07T21:34:23.506Z</time>
      </trkpt>
      <trkpt lat="52.94607" lon="21.72231">
        <ele>113.138116</ele>
        <time>2020-10-07T21:35:14.076Z</time>
      </trkpt>
      <trkpt lat="52.9458" lon="21.72202">
        <ele>113.201829</ele>
        <time>2020-10-07T21:35:21.512Z</time>
      </trkpt>
      <trkpt lat="52.94302" lon="21.71972">
        <ele>113.445963</ele>
        <time>2020-10-07T21:36:33.166Z</time>
      </trkpt>
      <trkpt lat="52.94273" lon="21.71943">
        <ele>113.521849</ele>
        <time>2020-10-07T21:36:41.806Z</time>
      </trkpt>
      <trkpt lat="52.94128" lon="21.71707">
        <ele>115.272191</ele>
        <time>2020-10-07T21:37:37.727Z</time>
      </trkpt>
      <trkpt lat="52.94096" lon="21.71655">
        <ele>115.330956</ele>
        <time>2020-10-07T21:37:48.844Z</time>
      </trkpt>
      <trkpt lat="52.94024" lon="21.71535">
        <ele>115.467037</ele>
        <time>2020-10-07T21:38:12.611Z</time>
      </trkpt>
      <trkpt lat="52.94014" lon="21.71513">
        <ele>115.488863</ele>
        <time>2020-10-07T21:38:16.106Z</time>
      </trkpt>
      <trkpt lat="52.93734" lon="21.71361">
        <ele>113.902365</ele>
        <time>2020-10-07T21:39:18.726Z</time>
      </trkpt>
      <trkpt lat="52.93218" lon="21.71087">
        <ele>111.132215</ele>
        <time>2020-10-07T21:41:13.962Z</time>
      </trkpt>
      <trkpt lat="52.9283" lon="21.7088">
        <ele>111.500949</ele>
        <time>2020-10-07T21:42:51.602Z</time>
      </trkpt>
      <trkpt lat="52.927" lon="21.70754">
        <ele>111.561882</ele>
        <time>2020-10-07T21:43:26.039Z</time>
      </trkpt>
      <trkpt lat="52.92693" lon="21.70748">
        <ele>111.563765</ele>
        <time>2020-10-07T21:43:27.723Z</time>
      </trkpt>
      <trkpt lat="52.92662" lon="21.70726">
        <ele>111.572426</ele>
        <time>2020-10-07T21:43:35.727Z</time>
      </trkpt>
      <trkpt lat="52.92436" lon="21.70653">
        <ele>112.33594</ele>
        <time>2020-10-07T21:44:33.006Z</time>
      </trkpt>
      <trkpt lat="52.92303" lon="21.70615">
        <ele>112.693253</ele>
        <time>2020-10-07T21:45:05.413Z</time>
      </trkpt>
      <trkpt lat="52.92154" lon="21.70567">
        <ele>113.028968</ele>
        <time>2020-10-07T21:45:41.464Z</time>
      </trkpt>
      <trkpt lat="52.91951" lon="21.70485">
        <ele>113.543238</ele>
        <time>2020-10-07T21:46:32.477Z</time>
      </trkpt>
      <trkpt lat="52.91728" lon="21.70361">
        <ele>113.685737</ele>
        <time>2020-10-07T21:47:27.385Z</time>
      </trkpt>
      <trkpt lat="52.91549" lon="21.70294">
        <ele>113.86353</ele>
        <time>2020-10-07T21:48:10.068Z</time>
      </trkpt>
      <trkpt lat="52.9149" lon="21.70253">
        <ele>114.03706</ele>
        <time>2020-10-07T21:48:25.669Z</time>
      </trkpt>
      <trkpt lat="52.91437" lon="21.70204">
        <ele>114.210494</ele>
        <time>2020-10-07T21:48:40.904Z</time>
      </trkpt>
      <trkpt lat="52.91386" lon="21.70143">
        <ele>114.645527</ele>
        <time>2020-10-07T21:48:56.993Z</time>
      </trkpt>
      <trkpt lat="52.91063" lon="21.69705">
        <ele>117.587291</ele>
        <time>2020-10-07T21:50:46.178Z</time>
      </trkpt>
      <trkpt lat="52.90725" lon="21.69369">
        <ele>120.335599</ele>
        <time>2020-10-07T21:52:28.668Z</time>
      </trkpt>
      <trkpt lat="52.90493" lon="21.69013">
        <ele>121.656358</ele>
        <time>2020-10-07T21:53:48.630Z</time>
      </trkpt>
      <trkpt lat="52.90416" lon="21.68926">
        <ele>121.671208</ele>
        <time>2020-10-07T21:54:09.333Z</time>
      </trkpt>
      <trkpt lat="52.90377" lon="21.68909">
        <ele>121.495876</ele>
        <time>2020-10-07T21:54:17.666Z</time>
      </trkpt>
      <trkpt lat="52.90243" lon="21.68899">
        <ele>120.929973</ele>
        <time>2020-10-07T21:54:46.673Z</time>
      </trkpt>
      <trkpt lat="52.90205" lon="21.68892">
        <ele>120.826637</ele>
        <time>2020-10-07T21:54:54.866Z</time>
      </trkpt>
      <trkpt lat="52.90176" lon="21.68876">
        <ele>120.742239</ele>
        <time>2020-10-07T21:55:01.614Z</time>
      </trkpt>
      <trkpt lat="52.90118" lon="21.68799">
        <ele>120.537756</ele>
        <time>2020-10-07T21:55:18.371Z</time>
      </trkpt>
      <trkpt lat="52.90087" lon="21.68777">
        <ele>120.478465</ele>
        <time>2020-10-07T21:55:26.265Z</time>
      </trkpt>
      <trkpt lat="52.90038" lon="21.68762">
        <ele>120.436897</ele>
        <time>2020-10-07T21:55:37.439Z</time>
      </trkpt>
      <trkpt lat="52.8985" lon="21.68755">
        <ele>120.404455</ele>
        <time>2020-10-07T21:56:20.672Z</time>
      </trkpt>
      <trkpt lat="52.89807" lon="21.68736">
        <ele>120.440193</ele>
        <time>2020-10-07T21:56:31.506Z</time>
      </trkpt>
      <trkpt lat="52.89661" lon="21.68639">
        <ele>120.047532</ele>
        <time>2020-10-07T21:57:08.413Z</time>
      </trkpt>
      <trkpt lat="52.89466" lon="21.6851">
        <ele>118.274848</ele>
        <time>2020-10-07T21:57:50.728Z</time>
      </trkpt>
      <trkpt lat="52.89327" lon="21.68444">
        <ele>116.711859</ele>
        <time>2020-10-07T21:58:19.037Z</time>
      </trkpt>
      <trkpt lat="52.89263" lon="21.68393">
        <ele>115.959464</ele>
        <time>2020-10-07T21:58:33.220Z</time>
      </trkpt>
      <trkpt lat="52.88963" lon="21.67973">
        <ele>113.687168</ele>
        <time>2020-10-07T21:59:57.355Z</time>
      </trkpt>
      <trkpt lat="52.88925" lon="21.67953">
        <ele>113.43168</ele>
        <time>2020-10-07T22:00:06.199Z</time>
      </trkpt>
      <trkpt lat="52.88828" lon="21.67938">
        <ele>112.82208</ele>
        <time>2020-10-07T22:00:26.478Z</time>
      </trkpt>
      <trkpt lat="52.88745" lon="21.67934">
        <ele>112.325835</ele>
        <time>2020-10-07T22:00:43.756Z</time>
      </trkpt>
      <trkpt lat="52.88693" lon="21.67932">
        <ele>112.026595</ele>
        <time>2020-10-07T22:00:54.484Z</time>
      </trkpt>
      <trkpt lat="52.88506" lon="21.67946">
        <ele>111.618716</ele>
        <time>2020-10-07T22:01:36.139Z</time>
      </trkpt>
      <trkpt lat="52.8832" lon="21.67973">
        <ele>112.239393</ele>
        <time>2020-10-07T22:02:23.186Z</time>
      </trkpt>
      <trkpt lat="52.88179" lon="21.67995">
        <ele>113.070337</ele>
        <time>2020-10-07T22:02:59.218Z</time>
      </trkpt>
      <trkpt lat="52.88044" lon="21.68015">
        <ele>113.742154</ele>
        <time>2020-10-07T22:03:34.427Z</time>
      </trkpt>
      <trkpt lat="52.87992" lon="21.67907">
        <ele>113.863909</ele>
        <time>2020-10-07T22:03:54.721Z</time>
      </trkpt>
      <trkpt lat="52.87957" lon="21.67851">
        <ele>113.936469</ele>
        <time>2020-10-07T22:04:05.164Z</time>
      </trkpt>
      <trkpt lat="52.87887" lon="21.67771">
        <ele>112.617725</ele>
        <time>2020-10-07T22:04:20.865Z</time>
      </trkpt>
      <trkpt lat="52.87875" lon="21.6776">
        <ele>112.383496</ele>
        <time>2020-10-07T22:04:23.284Z</time>
      </trkpt>
      <trkpt lat="52.87792" lon="21.67667">
        <ele>110.698737</ele>
        <time>2020-10-07T22:04:40.615Z</time>
      </trkpt>
      <trkpt lat="52.877" lon="21.67564">
        <ele>108.954112</ele>
        <time>2020-10-07T22:05:00.184Z</time>
      </trkpt>
      <trkpt lat="52.877" lon="21.67564">
        <ele>108.951659</ele>
        <time>2020-10-07T22:05:00.322Z</time>
      </trkpt>
      <trkpt lat="52.87759" lon="21.67437">
        <ele>108.075896</ele>
        <time>2020-10-07T22:05:20.747Z</time>
      </trkpt>
      <trkpt lat="52.87772" lon="21.67404">
        <ele>108.080688</ele>
        <time>2020-10-07T22:05:26.077Z</time>
      </trkpt>
      <trkpt lat="52.87816" lon="21.6721">
        <ele>108.169434</ele>
        <time>2020-10-07T22:05:56.569Z</time>
      </trkpt>
      <trkpt lat="52.87831" lon="21.6719">
        <ele>108.305588</ele>
        <time>2020-10-07T22:06:01.599Z</time>
      </trkpt>
      <trkpt lat="52.87918" lon="21.6714">
        <ele>108.946045</ele>
        <time>2020-10-07T22:06:26.089Z</time>
      </trkpt>
      <trkpt lat="52.87966" lon="21.67103">
        <ele>109.31771</ele>
        <time>2020-10-07T22:06:40.371Z</time>
      </trkpt>
      <trkpt lat="52.87948" lon="21.66811">
        <ele>109.582389</ele>
        <time>2020-10-07T22:07:47.620Z</time>
      </trkpt>
      <trkpt lat="52.87943" lon="21.66776">
        <ele>109.507195</ele>
        <time>2020-10-07T22:07:55.363Z</time>
      </trkpt>
      <trkpt lat="52.87939" lon="21.66767">
        <ele>109.461466</ele>
        <time>2020-10-07T22:07:57.730Z</time>
      </trkpt>
      <trkpt lat="52.87935" lon="21.66757">
        <ele>109.408638</ele>
        <time>2020-10-07T22:08:00.249Z</time>
      </trkpt>
      <trkpt lat="52.87629" lon="21.66375">
        <ele>106.59165</ele>
        <time>2020-10-07T22:10:11.885Z</time>
      </trkpt>
      <trkpt lat="52.87551" lon="21.66278">
        <ele>105.973449</ele>
        <time>2020-10-07T22:10:45.522Z</time>
      </trkpt>
      <trkpt lat="52.87475" lon="21.66445">
        <ele>105.862459</ele>
        <time>2020-10-07T22:11:13.619Z</time>
      </trkpt>
      <trkpt lat="52.8743" lon="21.66546">
        <ele>105.941768</ele>
        <time>2020-10-07T22:11:32.317Z</time>
      </trkpt>
      <trkpt lat="52.87409" lon="21.66579">
        <ele>106.15146</ele>
        <time>2020-10-07T22:11:39.814Z</time>
      </trkpt>
      <trkpt lat="52.87357" lon="21.66638">
        <ele>106.832213</ele>
        <time>2020-10-07T22:11:57.708Z</time>
      </trkpt>
      <trkpt lat="52.87343" lon="21.66675">
        <ele>107.115391</ele>
        <time>2020-10-07T22:12:05.401Z</time>
      </trkpt>
      <trkpt lat="52.87338" lon="21.66715">
        <ele>107.380048</ele>
        <time>2020-10-07T22:12:12.336Z</time>
      </trkpt>
      <trkpt lat="52.87356" lon="21.66833">
        <ele>107.98174</ele>
        <time>2020-10-07T22:12:32.205Z</time>
      </trkpt>
      <trkpt lat="52.87364" lon="21.66914">
        <ele>108.147775</ele>
        <time>2020-10-07T22:12:44.959Z</time>
      </trkpt>
      <trkpt lat="52.87386" lon="21.6726">
        <ele>108.946439</ele>
        <time>2020-10-07T22:13:33.885Z</time>
      </trkpt>
      <trkpt lat="52.8739" lon="21.67369">
        <ele>109.222422</ele>
        <time>2020-10-07T22:13:51.279Z</time>
      </trkpt>
      <trkpt lat="52.87359" lon="21.67359">
        <ele>109.523723</ele>
        <time>2020-10-07T22:14:00.051Z</time>
      </trkpt>
      <trkpt lat="52.872" lon="21.67353">
        <ele>111.318142</ele>
        <time>2020-10-07T22:14:43.915Z</time>
      </trkpt>
      <trkpt lat="52.87165" lon="21.67335">
        <ele>111.237825</ele>
        <time>2020-10-07T22:14:52.622Z</time>
      </trkpt>
      <trkpt lat="52.87152" lon="21.67326">
        <ele>111.207661</ele>
        <time>2020-10-07T22:14:55.793Z</time>
      </trkpt>
      <trkpt lat="52.8713" lon="21.67309">
        <ele>111.154541</ele>
        <time>2020-10-07T22:15:00.900Z</time>
      </trkpt>
      <trkpt lat="52.87077" lon="21.67246">
        <ele>111.009877</ele>
        <time>2020-10-07T22:15:14.333Z</time>
      </trkpt>
      <trkpt lat="52.87026" lon="21.67172">
        <ele>110.739377</ele>
        <time>2020-10-07T22:15:27.223Z</time>
      </trkpt>
      <trkpt lat="52.8687" lon="21.66915">
        <ele>109.762127</ele>
        <time>2020-10-07T22:16:12.367Z</time>
      </trkpt>
      <trkpt lat="52.86769" lon="21.66759">
        <ele>109.967324</ele>
        <time>2020-10-07T22:16:44.154Z</time>
      </trkpt>
      <trkpt lat="52.86643" lon="21.66604">
        <ele>111.401252</ele>
        <time>2020-10-07T22:17:25.325Z</time>
      </trkpt>
      <trkpt lat="52.86343" lon="21.66328">
        <ele>117.090994</ele>
        <time>2020-10-07T22:19:06.326Z</time>
      </trkpt>
      <trkpt lat="52.86304" lon="21.66274">
        <ele>117.429298</ele>
        <time>2020-10-07T22:19:20.038Z</time>
      </trkpt>
      <trkpt lat="52.86232" lon="21.66154">
        <ele>117.838628</ele>
        <time>2020-10-07T22:19:44.373Z</time>
      </trkpt>
      <trkpt lat="52.861" lon="21.66">
        <ele>117.170028</ele>
        <time>2020-10-07T22:20:16.911Z</time>
      </trkpt>
      <trkpt lat="52.85718" lon="21.6559">
        <ele>113.86365</ele>
        <time>2020-10-07T22:21:46.233Z</time>
      </trkpt>
      <trkpt lat="52.85691" lon="21.65578">
        <ele>113.956891</ele>
        <time>2020-10-07T22:21:52.651Z</time>
      </trkpt>
      <trkpt lat="52.85652" lon="21.65578">
        <ele>114.087226</ele>
        <time>2020-10-07T22:22:02.117Z</time>
      </trkpt>
      <trkpt lat="52.85462" lon="21.6562">
        <ele>115.290825</ele>
        <time>2020-10-07T22:22:52.598Z</time>
      </trkpt>
      <trkpt lat="52.85078" lon="21.65728">
        <ele>117.357202</ele>
        <time>2020-10-07T22:24:26.685Z</time>
      </trkpt>
      <trkpt lat="52.85023" lon="21.65717">
        <ele>117.573381</ele>
        <time>2020-10-07T22:24:39.848Z</time>
      </trkpt>
      <trkpt lat="52.84946" lon="21.65678">
        <ele>117.807495</ele>
        <time>2020-10-07T22:24:58.992Z</time>
      </trkpt>
      <trkpt lat="52.84834" lon="21.65604">
        <ele>118.054823</ele>
        <time>2020-10-07T22:25:26.774Z</time>
      </trkpt>
      <trkpt lat="52.84788" lon="21.65581">
        <ele>118.084939</ele>
        <time>2020-10-07T22:25:37.642Z</time>
      </trkpt>
      <trkpt lat="52.84715" lon="21.65546">
        <ele>118.132681</ele>
        <time>2020-10-07T22:25:54.625Z</time>
      </trkpt>
      <trkpt lat="52.84764" lon="21.65326">
        <ele>117.90154</ele>
        <time>2020-10-07T22:26:46.281Z</time>
      </trkpt>
      <trkpt lat="52.84763" lon="21.65295">
        <ele>117.867029</ele>
        <time>2020-10-07T22:26:53.140Z</time>
      </trkpt>
      <trkpt lat="52.8475" lon="21.65233">
        <ele>117.795804</ele>
        <time>2020-10-07T22:27:07.410Z</time>
      </trkpt>
      <trkpt lat="52.84708" lon="21.65108">
        <ele>117.640988</ele>
        <time>2020-10-07T22:27:38.866Z</time>
      </trkpt>
      <trkpt lat="52.84707" lon="21.65083">
        <ele>117.613982</ele>
        <time>2020-10-07T22:27:44.346Z</time>
      </trkpt>
      <trkpt lat="52.84709" lon="21.65049">
        <ele>117.577394</ele>
        <time>2020-10-07T22:27:51.765Z</time>
      </trkpt>
      <trkpt lat="52.84769" lon="21.64737">
        <ele>117.445939</ele>
        <time>2020-10-07T22:29:04.783Z</time>
      </trkpt>
      <trkpt lat="52.84776" lon="21.64691">
        <ele>117.437262</ele>
        <time>2020-10-07T22:29:15.744Z</time>
      </trkpt>
      <trkpt lat="52.8471" lon="21.64659">
        <ele>117.448538</ele>
        <time>2020-10-07T22:29:41.701Z</time>
      </trkpt>
      <trkpt lat="52.84325" lon="21.64436">
        <ele>117.532235</ele>
        <time>2020-10-07T22:32:13.119Z</time>
      </trkpt>
      <trkpt lat="52.83952" lon="21.6422">
        <ele>118.008749</ele>
        <time>2020-10-07T22:34:41.139Z</time>
      </trkpt>
      <trkpt lat="52.83935" lon="21.642">
        <ele>118.051485</ele>
        <time>2020-10-07T22:34:49.026Z</time>
      </trkpt>
      <trkpt lat="52.839" lon="21.64102">
        <ele>118.398207</ele>
        <time>2020-10-07T22:35:16.720Z</time>
      </trkpt>
      <trkpt lat="52.8388" lon="21.64061">
        <ele>118.569727</ele>
        <time>2020-10-07T22:35:29.379Z</time>
      </trkpt>
      <trkpt lat="52.83856" lon="21.64029">
        <ele>118.736667</ele>
        <time>2020-10-07T22:35:41.630Z</time>
      </trkpt>
      <trkpt lat="52.83807" lon="21.63944">
        <ele>119.069101</ele>
        <time>2020-10-07T22:36:09.276Z</time>
      </trkpt>
      <trkpt lat="52.83686" lon="21.63654">
        <ele>119.621619</ele>
        <time>2020-10-07T22:37:29.079Z</time>
      </trkpt>
      <trkpt lat="52.83641" lon="21.63448">
        <ele>120.284723</ele>
        <time>2020-10-07T22:38:22.034Z</time>
      </trkpt>
      <trkpt lat="52.83633" lon="21.63409">
        <ele>120.244422</ele>
        <time>2020-10-07T22:38:32.320Z</time>
      </trkpt>
      <trkpt lat="52.83633" lon="21.63349">
        <ele>120.180829</ele>
        <time>2020-10-07T22:38:46.446Z</time>
      </trkpt>
      <trkpt lat="52.83628" lon="21.6331">
        <ele>120.13902</ele>
        <time>2020-10-07T22:38:55.452Z</time>
      </trkpt>
      <trkpt lat="52.83609" lon="21.63238">
        <ele>120.056532</ele>
        <time>2020-10-07T22:39:13.043Z</time>
      </trkpt>
      <trkpt lat="52.83599" lon="21.63158">
        <ele>119.939397</ele>
        <time>2020-10-07T22:39:29.847Z</time>
      </trkpt>
      <trkpt lat="52.83534" lon="21.63022">
        <ele>118.093199</ele>
        <time>2020-10-07T22:40:02.906Z</time>
      </trkpt>
      <trkpt lat="52.83523" lon="21.63002">
        <ele>117.801877</ele>
        <time>2020-10-07T22:40:07.890Z</time>
      </trkpt>
      <trkpt lat="52.83518" lon="21.62953">
        <ele>117.263649</ele>
        <time>2020-10-07T22:40:17.514Z</time>
      </trkpt>
      <trkpt lat="52.83501" lon="21.62868">
        <ele>116.554324</ele>
        <time>2020-10-07T22:40:34.808Z</time>
      </trkpt>
      <trkpt lat="52.83492" lon="21.62834">
        <ele>116.356302</ele>
        <time>2020-10-07T22:40:42.120Z</time>
      </trkpt>
      <trkpt lat="52.83488" lon="21.62805">
        <ele>116.202043</ele>
        <time>2020-10-07T22:40:48.283Z</time>
      </trkpt>
      <trkpt lat="52.83463" lon="21.62688">
        <ele>115.557523</ele>
        <time>2020-10-07T22:41:14.239Z</time>
      </trkpt>
      <trkpt lat="52.83454" lon="21.62671">
        <ele>115.436898</ele>
        <time>2020-10-07T22:41:19.357Z</time>
      </trkpt>
      <trkpt lat="52.83431" lon="21.62622">
        <ele>115.245267</ele>
        <time>2020-10-07T22:41:33.099Z</time>
      </trkpt>
      <trkpt lat="52.83368" lon="21.62503">
        <ele>115.318279</ele>
        <time>2020-10-07T22:42:09.941Z</time>
      </trkpt>
      <trkpt lat="52.83115" lon="21.62295">
        <ele>115.23188</ele>
        <time>2020-10-07T22:43:54.299Z</time>
      </trkpt>
      <trkpt lat="52.83072" lon="21.6226">
        <ele>115.139305</ele>
        <time>2020-10-07T22:44:11.372Z</time>
      </trkpt>
      <trkpt lat="52.82966" lon="21.622">
        <ele>114.922368</ele>
        <time>2020-10-07T22:44:51.847Z</time>
      </trkpt>
      <trkpt lat="52.82831" lon="21.62091">
        <ele>114.654156</ele>
        <time>2020-10-07T22:45:46.962Z</time>
      </trkpt>
      <trkpt lat="52.82772" lon="21.62036">
        <ele>114.58082</ele>
        <time>2020-10-07T22:46:11.685Z</time>
      </trkpt>
      <trkpt lat="52.82707" lon="21.61958">
        <ele>114.511565</ele>
        <time>2020-10-07T22:46:41.182Z</time>
      </trkpt>
      <trkpt lat="52.82664" lon="21.61906">
        <ele>114.459504</ele>
        <time>2020-10-07T22:47:00.889Z</time>
      </trkpt>
      <trkpt lat="52.82624" lon="21.61856">
        <ele>114.333957</ele>
        <time>2020-10-07T22:47:19.271Z</time>
      </trkpt>
      <trkpt lat="52.8261" lon="21.6184">
        <ele>114.292235</ele>
        <time>2020-10-07T22:47:25.541Z</time>
      </trkpt>
      <trkpt lat="52.82551" lon="21.61775">
        <ele>114.116524</ele>
        <time>2020-10-07T22:47:50.922Z</time>
      </trkpt>
      <trkpt lat="52.82487" lon="21.61705">
        <ele>114.041948</ele>
        <time>2020-10-07T22:48:17.970Z</time>
      </trkpt>
      <trkpt lat="52.82387" lon="21.61585">
        <ele>114.105833</ele>
        <time>2020-10-07T22:49:04.046Z</time>
      </trkpt>
      <trkpt lat="52.82361" lon="21.61557">
        <ele>114.215892</ele>
        <time>2020-10-07T22:49:16.792Z</time>
      </trkpt>
      <trkpt lat="52.82242" lon="21.61436">
        <ele>115.243189</ele>
        <time>2020-10-07T22:50:14.182Z</time>
      </trkpt>
      <trkpt lat="52.82128" lon="21.6127">
        <ele>115.251802</ele>
        <time>2020-10-07T22:51:11.408Z</time>
      </trkpt>
      <trkpt lat="52.82112" lon="21.61258">
        <ele>115.226623</ele>
        <time>2020-10-07T22:51:17.277Z</time>
      </trkpt>
      <trkpt lat="52.82096" lon="21.61246">
        <ele>115.200946</ele>
        <time>2020-10-07T22:51:23.185Z</time>
      </trkpt>
      <trkpt lat="52.82012" lon="21.61131">
        <ele>114.430886</ele>
        <time>2020-10-07T22:52:00.479Z</time>
      </trkpt>
      <trkpt lat="52.81869" lon="21.60963">
        <ele>112.804572</ele>
        <time>2020-10-07T22:53:00.748Z</time>
      </trkpt>
      <trkpt lat="52.8166" lon="21.60815">
        <ele>110.728714</ele>
        <time>2020-10-07T22:54:16.316Z</time>
      </trkpt>
      <trkpt lat="52.81653" lon="21.60811">
        <ele>110.666233</ele>
        <time>2020-10-07T22:54:18.889Z</time>
      </trkpt>
      <trkpt lat="52.81442" lon="21.60691">
        <ele>110.870681</ele>
        <time>2020-10-07T22:55:44.586Z</time>
      </trkpt>
      <trkpt lat="52.81369" lon="21.60661">
        <ele>111.055584</ele>
        <time>2020-10-07T22:56:14.226Z</time>
      </trkpt>
      <trkpt lat="52.81324" lon="21.60651">
        <ele>111.168811</ele>
        <time>2020-10-07T22:56:31.748Z</time>
      </trkpt>
      <trkpt lat="52.81267" lon="21.60658">
        <ele>111.293271</ele>
        <time>2020-10-07T22:56:53.047Z</time>
      </trkpt>
      <trkpt lat="52.81228" lon="21.60665">
        <ele>110.945911</ele>
        <time>2020-10-07T22:57:06.474Z</time>
      </trkpt>
      <trkpt lat="52.81152" lon="21.60679">
        <ele>110.25573</ele>
        <time>2020-10-07T22:57:32.509Z</time>
      </trkpt>
      <trkpt lat="52.81112" lon="21.60682">
        <ele>109.888689</ele>
        <time>2020-10-07T22:57:46.088Z</time>
      </trkpt>
      <trkpt lat="52.81109" lon="21.60676">
        <ele>109.85041</ele>
        <time>2020-10-07T22:57:47.386Z</time>
      </trkpt>
      <trkpt lat="52.81044" lon="21.60558">
        <ele>108.83722</ele>
        <time>2020-10-07T22:58:19.577Z</time>
      </trkpt>
      <trkpt lat="52.81015" lon="21.60507">
        <ele>108.38538</ele>
        <time>2020-10-07T22:58:33.569Z</time>
      </trkpt>
      <trkpt lat="52.80984" lon="21.60449">
        <ele>107.879528</ele>
        <time>2020-10-07T22:58:49.657Z</time>
      </trkpt>
      <trkpt lat="52.80924" lon="21.60349">
        <ele>107.272103</ele>
        <time>2020-10-07T22:59:19.236Z</time>
      </trkpt>
      <trkpt lat="52.80872" lon="21.60233">
        <ele>106.701837</ele>
        <time>2020-10-07T22:59:49.802Z</time>
      </trkpt>
      <trkpt lat="52.80861" lon="21.60217">
        <ele>106.607288</ele>
        <time>2020-10-07T22:59:54.983Z</time>
      </trkpt>
      <trkpt lat="52.8085" lon="21.60206">
        <ele>106.528585</ele>
        <time>2020-10-07T22:59:59.723Z</time>
      </trkpt>
      <trkpt lat="52.80667" lon="21.60139">
        <ele>105.501961</ele>
        <time>2020-10-07T23:01:05.577Z</time>
      </trkpt>
      <trkpt lat="52.80613" lon="21.60107">
        <ele>105.205496</ele>
        <time>2020-10-07T23:01:25.610Z</time>
      </trkpt>
      <trkpt lat="52.80601" lon="21.601">
        <ele>105.139695</ele>
        <time>2020-10-07T23:01:30.073Z</time>
      </trkpt>
      <trkpt lat="52.80487" lon="21.6003">
        <ele>104.559799</ele>
        <time>2020-10-07T23:02:13.081Z</time>
      </trkpt>
      <trkpt lat="52.80466" lon="21.60003">
        <ele>104.472525</ele>
        <time>2020-10-07T23:02:22.450Z</time>
      </trkpt>
      <trkpt lat="52.80343" lon="21.5979">
        <ele>103.975231</ele>
        <time>2020-10-07T23:03:26.936Z</time>
      </trkpt>
      <trkpt lat="52.80252" lon="21.59548">
        <ele>103.944268</ele>
        <time>2020-10-07T23:04:29.900Z</time>
      </trkpt>
      <trkpt lat="52.80197" lon="21.59352">
        <ele>104.409112</ele>
        <time>2020-10-07T23:05:20.785Z</time>
      </trkpt>
      <trkpt lat="52.80194" lon="21.59345">
        <ele>104.435816</ele>
        <time>2020-10-07T23:05:23.001Z</time>
      </trkpt>
      <trkpt lat="52.80182" lon="21.59318">
        <ele>104.634553</ele>
        <time>2020-10-07T23:05:31.075Z</time>
      </trkpt>
      <trkpt lat="52.80156" lon="21.59281">
        <ele>104.985205</ele>
        <time>2020-10-07T23:05:45.308Z</time>
      </trkpt>
      <trkpt lat="52.8013" lon="21.59193">
        <ele>105.583377</ele>
        <time>2020-10-07T23:06:10.350Z</time>
      </trkpt>
      <trkpt lat="52.80107" lon="21.59084">
        <ele>106.255617</ele>
        <time>2020-10-07T23:06:39.462Z</time>
      </trkpt>
      <trkpt lat="52.801" lon="21.58973">
        <ele>106.528279</ele>
        <time>2020-10-07T23:07:06.311Z</time>
      </trkpt>
      <trkpt lat="52.80099" lon="21.58965">
        <ele>106.547453</ele>
        <time>2020-10-07T23:07:08.526Z</time>
      </trkpt>
      <trkpt lat="52.80095" lon="21.58943">
        <ele>106.605419</ele>
        <time>2020-10-07T23:07:14.049Z</time>
      </trkpt>
      <trkpt lat="52.80094" lon="21.58938">
        <ele>106.617573</ele>
        <time>2020-10-07T23:07:15.064Z</time>
      </trkpt>
      <trkpt lat="52.80054" lon="21.58798">
        <ele>106.929316</ele>
        <time>2020-10-07T23:07:50.568Z</time>
      </trkpt>
      <trkpt lat="52.80028" lon="21.5873">
        <ele>106.720053</ele>
        <time>2020-10-07T23:08:08.040Z</time>
      </trkpt>
      <trkpt lat="52.7984" lon="21.58429">
        <ele>105.612289</ele>
        <time>2020-10-07T23:09:39.747Z</time>
      </trkpt>
      <trkpt lat="52.79829" lon="21.58401">
        <ele>105.527474</ele>
        <time>2020-10-07T23:09:47.138Z</time>
      </trkpt>
      <trkpt lat="52.79802" lon="21.58289">
        <ele>105.319822</ele>
        <time>2020-10-07T23:10:14.457Z</time>
      </trkpt>
      <trkpt lat="52.79791" lon="21.58262">
        <ele>105.276321</ele>
        <time>2020-10-07T23:10:21.672Z</time>
      </trkpt>
      <trkpt lat="52.79776" lon="21.58245">
        <ele>105.236112</ele>
        <time>2020-10-07T23:10:28.227Z</time>
      </trkpt>
      <trkpt lat="52.79768" lon="21.58234">
        <ele>105.211269</ele>
        <time>2020-10-07T23:10:32.311Z</time>
      </trkpt>
      <trkpt lat="52.79743" lon="21.58199">
        <ele>105.137577</ele>
        <time>2020-10-07T23:10:44.246Z</time>
      </trkpt>
      <trkpt lat="52.79712" lon="21.58151">
        <ele>105.04294</ele>
        <time>2020-10-07T23:10:59.286Z</time>
      </trkpt>
      <trkpt lat="52.79676" lon="21.58113">
        <ele>104.566826</ele>
        <time>2020-10-07T23:11:14.095Z</time>
      </trkpt>
      <trkpt lat="52.79655" lon="21.58101">
        <ele>104.295506</ele>
        <time>2020-10-07T23:11:18.634Z</time>
      </trkpt>
      <trkpt lat="52.79624" lon="21.58063">
        <ele>103.830413</ele>
        <time>2020-10-07T23:11:31.229Z</time>
      </trkpt>
      <trkpt lat="52.79612" lon="21.58056">
        <ele>103.678747</ele>
        <time>2020-10-07T23:11:35.235Z</time>
      </trkpt>
      <trkpt lat="52.79589" lon="21.58031">
        <ele>103.342546</ele>
        <time>2020-10-07T23:11:44.225Z</time>
      </trkpt>
      <trkpt lat="52.79585" lon="21.58028">
        <ele>103.286669</ele>
        <time>2020-10-07T23:11:45.603Z</time>
      </trkpt>
      <trkpt lat="52.79578" lon="21.58017">
        <ele>103.177424</ele>
        <time>2020-10-07T23:11:48.579Z</time>
      </trkpt>
      <trkpt lat="52.79563" lon="21.57983">
        <ele>102.869071</ele>
        <time>2020-10-07T23:11:56.794Z</time>
      </trkpt>
      <trkpt lat="52.79538" lon="21.57927">
        <ele>102.563845</ele>
        <time>2020-10-07T23:12:10.721Z</time>
      </trkpt>
      <trkpt lat="52.79496" lon="21.57828">
        <ele>102.056552</ele>
        <time>2020-10-07T23:12:35.363Z</time>
      </trkpt>
      <trkpt lat="52.79484" lon="21.57801">
        <ele>101.918748</ele>
        <time>2020-10-07T23:12:42.545Z</time>
      </trkpt>
      <trkpt lat="52.79433" lon="21.57688">
        <ele>101.871159</ele>
        <time>2020-10-07T23:13:15.459Z</time>
      </trkpt>
      <trkpt lat="52.79402" lon="21.57648">
        <ele>102.148418</ele>
        <time>2020-10-07T23:13:31.612Z</time>
      </trkpt>
      <trkpt lat="52.79364" lon="21.57617">
        <ele>102.443289</ele>
        <time>2020-10-07T23:13:49.114Z</time>
      </trkpt>
      <trkpt lat="52.79348" lon="21.57605">
        <ele>102.560103</ele>
        <time>2020-10-07T23:13:56.228Z</time>
      </trkpt>
      <trkpt lat="52.79312" lon="21.57562">
        <ele>102.848273</ele>
        <time>2020-10-07T23:14:14.597Z</time>
      </trkpt>
      <trkpt lat="52.79215" lon="21.5737">
        <ele>102.723202</ele>
        <time>2020-10-07T23:15:10.583Z</time>
      </trkpt>
      <trkpt lat="52.79201" lon="21.5735">
        <ele>102.707241</ele>
        <time>2020-10-07T23:15:17.281Z</time>
      </trkpt>
      <trkpt lat="52.7918" lon="21.57324">
        <ele>102.514181</ele>
        <time>2020-10-07T23:15:25.819Z</time>
      </trkpt>
      <trkpt lat="52.79118" lon="21.57242">
        <ele>101.722358</ele>
        <time>2020-10-07T23:15:52.651Z</time>
      </trkpt>
      <trkpt lat="52.79077" lon="21.572">
        <ele>101.241505</ele>
        <time>2020-10-07T23:16:08.674Z</time>
      </trkpt>
      <trkpt lat="52.79036" lon="21.57142">
        <ele>100.76258</ele>
        <time>2020-10-07T23:16:26.915Z</time>
      </trkpt>
      <trkpt lat="52.78989" lon="21.57099">
        <ele>100.369175</ele>
        <time>2020-10-07T23:16:45.419Z</time>
      </trkpt>
      <trkpt lat="52.78935" lon="21.57037">
        <ele>99.880494</ele>
        <time>2020-10-07T23:17:08.550Z</time>
      </trkpt>
      <trkpt lat="52.78867" lon="21.56986">
        <ele>99.385582</ele>
        <time>2020-10-07T23:17:34.497Z</time>
      </trkpt>
      <trkpt lat="52.7884" lon="21.56966">
        <ele>99.208319</ele>
        <time>2020-10-07T23:17:44.902Z</time>
      </trkpt>
      <trkpt lat="52.78769" lon="21.56904">
        <ele>98.734777</ele>
        <time>2020-10-07T23:18:12.612Z</time>
      </trkpt>
      <trkpt lat="52.78739" lon="21.56879">
        <ele>98.538771</ele>
        <time>2020-10-07T23:18:24.342Z</time>
      </trkpt>
      <trkpt lat="52.78727" lon="21.56872">
        <ele>98.579121</ele>
        <time>2020-10-07T23:18:27.276Z</time>
      </trkpt>
      <trkpt lat="52.78695" lon="21.56858">
        <ele>98.70977</ele>
        <time>2020-10-07T23:18:34.640Z</time>
      </trkpt>
      <trkpt lat="52.7868" lon="21.56858">
        <ele>98.770272</ele>
        <time>2020-10-07T23:18:38.207Z</time>
      </trkpt>
      <trkpt lat="52.7867" lon="21.56858">
        <ele>98.813024</ele>
        <time>2020-10-07T23:18:40.649Z</time>
      </trkpt>
      <trkpt lat="52.78658" lon="21.56859">
        <ele>98.860655</ele>
        <time>2020-10-07T23:18:45.110Z</time>
      </trkpt>
      <trkpt lat="52.7864" lon="21.56865">
        <ele>98.933779</ele>
        <time>2020-10-07T23:18:52.074Z</time>
      </trkpt>
      <trkpt lat="52.78624" lon="21.5683">
        <ele>99.040952</ele>
        <time>2020-10-07T23:19:02.358Z</time>
      </trkpt>
      <trkpt lat="52.78522" lon="21.56604">
        <ele>100.641968</ele>
        <time>2020-10-07T23:20:14.883Z</time>
      </trkpt>
      <trkpt lat="52.78493" lon="21.5656">
        <ele>101.106099</ele>
        <time>2020-10-07T23:20:31.381Z</time>
      </trkpt>
      <trkpt lat="52.78474" lon="21.56516">
        <ele>101.361139</ele>
        <time>2020-10-07T23:20:44.446Z</time>
      </trkpt>
      <trkpt lat="52.78458" lon="21.56457">
        <ele>101.27163</ele>
        <time>2020-10-07T23:21:00.155Z</time>
      </trkpt>
      <trkpt lat="52.78451" lon="21.56415">
        <ele>101.212764</ele>
        <time>2020-10-07T23:21:10.050Z</time>
      </trkpt>
      <trkpt lat="52.78401" lon="21.56192">
        <ele>100.466032</ele>
        <time>2020-10-07T23:21:59.657Z</time>
      </trkpt>
      <trkpt lat="52.78311" lon="21.55868">
        <ele>97.598585</ele>
        <time>2020-10-07T23:23:10.074Z</time>
      </trkpt>
      <trkpt lat="52.78306" lon="21.55818">
        <ele>97.181004</ele>
        <time>2020-10-07T23:23:20.202Z</time>
      </trkpt>
      <trkpt lat="52.78274" lon="21.55718">
        <ele>96.25847</ele>
        <time>2020-10-07T23:23:42.766Z</time>
      </trkpt>
      <trkpt lat="52.78216" lon="21.55565">
        <ele>94.951184</ele>
        <time>2020-10-07T23:24:19.417Z</time>
      </trkpt>
      <trkpt lat="52.78199" lon="21.55506">
        <ele>94.481869</ele>
        <time>2020-10-07T23:24:32.641Z</time>
      </trkpt>
      <trkpt lat="52.78174" lon="21.55454">
        <ele>94.008845</ele>
        <time>2020-10-07T23:24:46.084Z</time>
      </trkpt>
      <trkpt lat="52.78149" lon="21.55328">
        <ele>93.320253</ele>
        <time>2020-10-07T23:25:12.810Z</time>
      </trkpt>
      <trkpt lat="52.78122" lon="21.55312">
        <ele>93.07013</ele>
        <time>2020-10-07T23:25:18.359Z</time>
      </trkpt>
      <trkpt lat="52.78093" lon="21.55287">
        <ele>92.792448</ele>
        <time>2020-10-07T23:25:24.713Z</time>
      </trkpt>
      <trkpt lat="52.77984" lon="21.55223">
        <ele>92.977753</ele>
        <time>2020-10-07T23:25:49.951Z</time>
      </trkpt>
      <trkpt lat="52.77966" lon="21.5521">
        <ele>93.099191</ele>
        <time>2020-10-07T23:25:55.184Z</time>
      </trkpt>
      <trkpt lat="52.77912" lon="21.55176">
        <ele>93.450249</ele>
        <time>2020-10-07T23:26:11.085Z</time>
      </trkpt>
      <trkpt lat="52.77848" lon="21.55135">
        <ele>93.908598</ele>
        <time>2020-10-07T23:26:30.173Z</time>
      </trkpt>
      <trkpt lat="52.77808" lon="21.55113">
        <ele>94.202645</ele>
        <time>2020-10-07T23:26:41.925Z</time>
      </trkpt>
      <trkpt lat="52.77543" lon="21.5497">
        <ele>94.618684</ele>
        <time>2020-10-07T23:27:44.352Z</time>
      </trkpt>
      <trkpt lat="52.77315" lon="21.54845">
        <ele>92.56909</ele>
        <time>2020-10-07T23:28:30.359Z</time>
      </trkpt>
      <trkpt lat="52.77246" lon="21.54805">
        <ele>92.061264</ele>
        <time>2020-10-07T23:28:45.063Z</time>
      </trkpt>
      <trkpt lat="52.77236" lon="21.54796">
        <ele>91.984178</ele>
        <time>2020-10-07T23:28:47.361Z</time>
      </trkpt>
      <trkpt lat="52.77235" lon="21.54792">
        <ele>91.968239</ele>
        <time>2020-10-07T23:28:47.846Z</time>
      </trkpt>
      <trkpt lat="52.77234" lon="21.5479">
        <ele>91.9514</ele>
        <time>2020-10-07T23:28:48.337Z</time>
      </trkpt>
      <trkpt lat="52.77231" lon="21.54788">
        <ele>91.935069</ele>
        <time>2020-10-07T23:28:48.829Z</time>
      </trkpt>
      <trkpt lat="52.77229" lon="21.54788">
        <ele>91.918438</ele>
        <time>2020-10-07T23:28:49.331Z</time>
      </trkpt>
      <trkpt lat="52.77227" lon="21.5479">
        <ele>91.902418</ele>
        <time>2020-10-07T23:28:49.830Z</time>
      </trkpt>
      <trkpt lat="52.77218" lon="21.54789">
        <ele>91.842663</ele>
        <time>2020-10-07T23:28:51.625Z</time>
      </trkpt>
      <trkpt lat="52.77183" lon="21.54772">
        <ele>91.913083</ele>
        <time>2020-10-07T23:28:59.473Z</time>
      </trkpt>
      <trkpt lat="52.77032" lon="21.54688">
        <ele>92.622382</ele>
        <time>2020-10-07T23:29:37.898Z</time>
      </trkpt>
      <trkpt lat="52.76936" lon="21.54643">
        <ele>93.795371</ele>
        <time>2020-10-07T23:30:06.055Z</time>
      </trkpt>
      <trkpt lat="52.76927" lon="21.54631">
        <ele>93.93242</ele>
        <time>2020-10-07T23:30:09.349Z</time>
      </trkpt>
      <trkpt lat="52.76915" lon="21.5464">
        <ele>94.081355</ele>
        <time>2020-10-07T23:30:12.835Z</time>
      </trkpt>
      <trkpt lat="52.76834" lon="21.54611">
        <ele>94.748567</ele>
        <time>2020-10-07T23:30:35.378Z</time>
      </trkpt>
      <trkpt lat="52.76802" lon="21.54609">
        <ele>94.857913</ele>
        <time>2020-10-07T23:30:48.517Z</time>
      </trkpt>
      <trkpt lat="52.76663" lon="21.54608">
        <ele>95.053042</ele>
        <time>2020-10-07T23:31:39.473Z</time>
      </trkpt>
      <trkpt lat="52.76631" lon="21.54604">
        <ele>94.850257</ele>
        <time>2020-10-07T23:31:50.385Z</time>
      </trkpt>
      <trkpt lat="52.76552" lon="21.54604">
        <ele>94.34276</ele>
        <time>2020-10-07T23:32:17.654Z</time>
      </trkpt>
      <trkpt lat="52.76361" lon="21.54651">
        <ele>93.12113</ele>
        <time>2020-10-07T23:33:24.358Z</time>
      </trkpt>
      <trkpt lat="52.76258" lon="21.54678">
        <ele>93.155355</ele>
        <time>2020-10-07T23:34:02.393Z</time>
      </trkpt>
      <trkpt lat="52.76216" lon="21.54688">
        <ele>93.265696</ele>
        <time>2020-10-07T23:34:12.870Z</time>
      </trkpt>
      <trkpt lat="52.76173" lon="21.54699">
        <ele>93.381873</ele>
        <time>2020-10-07T23:34:24.221Z</time>
      </trkpt>
      <trkpt lat="52.7616" lon="21.54702">
        <ele>93.415979</ele>
        <time>2020-10-07T23:34:27.886Z</time>
      </trkpt>
      <trkpt lat="52.76142" lon="21.54713">
        <ele>93.511386</ele>
        <time>2020-10-07T23:34:32.589Z</time>
      </trkpt>
      <trkpt lat="52.76136" lon="21.54726">
        <ele>93.56281</ele>
        <time>2020-10-07T23:34:35.234Z</time>
      </trkpt>
      <trkpt lat="52.76129" lon="21.54737">
        <ele>93.617079</ele>
        <time>2020-10-07T23:34:37.891Z</time>
      </trkpt>
      <trkpt lat="52.76119" lon="21.54744">
        <ele>93.676573</ele>
        <time>2020-10-07T23:34:40.430Z</time>
      </trkpt>
      <trkpt lat="52.76108" lon="21.54749">
        <ele>93.743202</ele>
        <time>2020-10-07T23:34:43.592Z</time>
      </trkpt>
      <trkpt lat="52.761" lon="21.54752">
        <ele>93.788745</ele>
        <time>2020-10-07T23:34:46.004Z</time>
      </trkpt>
      <trkpt lat="52.75849" lon="21.54933">
        <ele>94.751865</ele>
        <time>2020-10-07T23:35:51.057Z</time>
      </trkpt>
      <trkpt lat="52.75794" lon="21.54958">
        <ele>94.54968</ele>
        <time>2020-10-07T23:36:02.843Z</time>
      </trkpt>
      <trkpt lat="52.75543" lon="21.54979">
        <ele>92.988651</ele>
        <time>2020-10-07T23:36:52.206Z</time>
      </trkpt>
      <trkpt lat="52.75509" lon="21.54982">
        <ele>92.793448</ele>
        <time>2020-10-07T23:36:59.235Z</time>
      </trkpt>
      <trkpt lat="52.7522" lon="21.5496">
        <ele>93.039124</ele>
        <time>2020-10-07T23:38:04.471Z</time>
      </trkpt>
      <trkpt lat="52.75079" lon="21.54946">
        <ele>93.883999</ele>
        <time>2020-10-07T23:38:40.596Z</time>
      </trkpt>
      <trkpt lat="52.74855" lon="21.54924">
        <ele>95.854376</ele>
        <time>2020-10-07T23:39:37.914Z</time>
      </trkpt>
      <trkpt lat="52.74695" lon="21.54913">
        <ele>97.892049</ele>
        <time>2020-10-07T23:40:20.897Z</time>
      </trkpt>
      <trkpt lat="52.74533" lon="21.54884">
        <ele>100.55061</ele>
        <time>2020-10-07T23:41:10.598Z</time>
      </trkpt>
      <trkpt lat="52.74488" lon="21.54864">
        <ele>101.155122</ele>
        <time>2020-10-07T23:41:24.170Z</time>
      </trkpt>
      <trkpt lat="52.74475" lon="21.54852">
        <ele>101.350409</ele>
        <time>2020-10-07T23:41:29.024Z</time>
      </trkpt>
      <trkpt lat="52.74467" lon="21.54846">
        <ele>101.466693</ele>
        <time>2020-10-07T23:41:31.360Z</time>
      </trkpt>
      <trkpt lat="52.74301" lon="21.54671">
        <ele>102.075949</ele>
        <time>2020-10-07T23:42:17.349Z</time>
      </trkpt>
      <trkpt lat="52.74258" lon="21.54639">
        <ele>101.972632</ele>
        <time>2020-10-07T23:42:26.202Z</time>
      </trkpt>
      <trkpt lat="52.74226" lon="21.54628">
        <ele>101.683647</ele>
        <time>2020-10-07T23:42:32.148Z</time>
      </trkpt>
      <trkpt lat="52.74221" lon="21.54629">
        <ele>101.625262</ele>
        <time>2020-10-07T23:42:33.192Z</time>
      </trkpt>
      <trkpt lat="52.74201" lon="21.54596">
        <ele>101.34861</ele>
        <time>2020-10-07T23:42:38.296Z</time>
      </trkpt>
      <trkpt lat="52.74096" lon="21.54453">
        <ele>100.140828</ele>
        <time>2020-10-07T23:43:04.718Z</time>
      </trkpt>
      <trkpt lat="52.74047" lon="21.54424">
        <ele>100.088137</ele>
        <time>2020-10-07T23:43:16.725Z</time>
      </trkpt>
      <trkpt lat="52.73926" lon="21.54381">
        <ele>99.976168</ele>
        <time>2020-10-07T23:43:44.653Z</time>
      </trkpt>
      <trkpt lat="52.73954" lon="21.54264">
        <ele>99.977815</ele>
        <time>2020-10-07T23:44:02.371Z</time>
      </trkpt>
      <trkpt lat="52.73977" lon="21.54187">
        <ele>99.978937</ele>
        <time>2020-10-07T23:44:14.078Z</time>
      </trkpt>
      <trkpt lat="52.73979" lon="21.54181">
        <ele>99.979029</ele>
        <time>2020-10-07T23:44:15.041Z</time>
      </trkpt>
      <trkpt lat="52.73995" lon="21.54107">
        <ele>100.114616</ele>
        <time>2020-10-07T23:44:25.734Z</time>
      </trkpt>
      <trkpt lat="52.73982" lon="21.53953">
        <ele>101.078131</ele>
        <time>2020-10-07T23:44:50.280Z</time>
      </trkpt>
      <trkpt lat="52.73964" lon="21.53888">
        <ele>101.516154</ele>
        <time>2020-10-07T23:45:03.204Z</time>
      </trkpt>
      <trkpt lat="52.73935" lon="21.53809">
        <ele>102.242626</ele>
        <time>2020-10-07T23:45:20.485Z</time>
      </trkpt>
      <trkpt lat="52.73911" lon="21.53769">
        <ele>102.796547</ele>
        <time>2020-10-07T23:45:31.190Z</time>
      </trkpt>
      <trkpt lat="52.73808" lon="21.53643">
        <ele>104.72651</ele>
        <time>2020-10-07T23:46:09.045Z</time>
      </trkpt>
      <trkpt lat="52.73783" lon="21.53602">
        <ele>104.805185</ele>
        <time>2020-10-07T23:46:18.628Z</time>
      </trkpt>
      <trkpt lat="52.73703" lon="21.53406">
        <ele>105.079205</ele>
        <time>2020-10-07T23:46:51.151Z</time>
      </trkpt>
      <trkpt lat="52.73696" lon="21.53394">
        <ele>105.048144</ele>
        <time>2020-10-07T23:46:53.002Z</time>
      </trkpt>
      <trkpt lat="52.73592" lon="21.53209">
        <ele>104.564896</ele>
        <time>2020-10-07T23:47:26.804Z</time>
      </trkpt>
      <trkpt lat="52.73574" lon="21.53169">
        <ele>104.467582</ele>
        <time>2020-10-07T23:47:33.728Z</time>
      </trkpt>
      <trkpt lat="52.73563" lon="21.53109">
        <ele>104.344699</ele>
        <time>2020-10-07T23:47:42.221Z</time>
      </trkpt>
      <trkpt lat="52.73561" lon="21.531">
        <ele>104.32497</ele>
        <time>2020-10-07T23:47:43.969Z</time>
      </trkpt>
      <trkpt lat="52.73553" lon="21.53049">
        <ele>104.222453</ele>
        <time>2020-10-07T23:47:50.721Z</time>
      </trkpt>
      <trkpt lat="52.73522" lon="21.52923">
        <ele>103.95331</ele>
        <time>2020-10-07T23:48:08.926Z</time>
      </trkpt>
      <trkpt lat="52.73519" lon="21.52914">
        <ele>103.90507</ele>
        <time>2020-10-07T23:48:10.069Z</time>
      </trkpt>
      <trkpt lat="52.73504" lon="21.52869">
        <ele>103.630247</ele>
        <time>2020-10-07T23:48:16.890Z</time>
      </trkpt>
      <trkpt lat="52.73422" lon="21.52697">
        <ele>102.469695</ele>
        <time>2020-10-07T23:48:43.627Z</time>
      </trkpt>
      <trkpt lat="52.73387" lon="21.52602">
        <ele>101.601996</ele>
        <time>2020-10-07T23:48:57.225Z</time>
      </trkpt>
      <trkpt lat="52.73368" lon="21.52551">
        <ele>101.102613</ele>
        <time>2020-10-07T23:49:04.531Z</time>
      </trkpt>
      <trkpt lat="52.73361" lon="21.52531">
        <ele>100.912224</ele>
        <time>2020-10-07T23:49:07.216Z</time>
      </trkpt>
      <trkpt lat="52.73333" lon="21.52417">
        <ele>99.886843</ele>
        <time>2020-10-07T23:49:21.440Z</time>
      </trkpt>
      <trkpt lat="52.73308" lon="21.52342">
        <ele>98.905258</ele>
        <time>2020-10-07T23:49:30.989Z</time>
      </trkpt>
      <trkpt lat="52.73266" lon="21.52266">
        <ele>97.732154</ele>
        <time>2020-10-07T23:49:42.377Z</time>
      </trkpt>
      <trkpt lat="52.73236" lon="21.52219">
        <ele>96.952541</ele>
        <time>2020-10-07T23:49:49.675Z</time>
      </trkpt>
      <trkpt lat="52.73205" lon="21.52161">
        <ele>96.323284</ele>
        <time>2020-10-07T23:49:58.173Z</time>
      </trkpt>
      <trkpt lat="52.73203" lon="21.52156">
        <ele>96.293327</ele>
        <time>2020-10-07T23:49:58.827Z</time>
      </trkpt>
      <trkpt lat="52.73141" lon="21.52038">
        <ele>95.521723</ele>
        <time>2020-10-07T23:50:17.449Z</time>
      </trkpt>
      <trkpt lat="52.73098" lon="21.51981">
        <ele>95.073639</ele>
        <time>2020-10-07T23:50:29.141Z</time>
      </trkpt>
      <trkpt lat="52.73077" lon="21.51948">
        <ele>94.981939</ele>
        <time>2020-10-07T23:50:35.773Z</time>
      </trkpt>
      <trkpt lat="52.7306" lon="21.51918">
        <ele>94.91949</ele>
        <time>2020-10-07T23:50:41.348Z</time>
      </trkpt>
      <trkpt lat="52.72985" lon="21.51765">
        <ele>94.613816</ele>
        <time>2020-10-07T23:51:07.107Z</time>
      </trkpt>
      <trkpt lat="52.72899" lon="21.51613">
        <ele>93.919548</ele>
        <time>2020-10-07T23:51:31.711Z</time>
      </trkpt>
      <trkpt lat="52.72832" lon="21.51518">
        <ele>93.593482</ele>
        <time>2020-10-07T23:51:50.398Z</time>
      </trkpt>
      <trkpt lat="52.72795" lon="21.5143">
        <ele>93.700461</ele>
        <time>2020-10-07T23:52:05.251Z</time>
      </trkpt>
      <trkpt lat="52.72786" lon="21.51407">
        <ele>93.728413</ele>
        <time>2020-10-07T23:52:09.863Z</time>
      </trkpt>
      <trkpt lat="52.72739" lon="21.51287">
        <ele>93.86917</ele>
        <time>2020-10-07T23:52:29.650Z</time>
      </trkpt>
      <trkpt lat="52.72722" lon="21.51256">
        <ele>93.90654</ele>
        <time>2020-10-07T23:52:36.267Z</time>
      </trkpt>
      <trkpt lat="52.72717" lon="21.51248">
        <ele>93.91603</ele>
        <time>2020-10-07T23:52:37.466Z</time>
      </trkpt>
      <trkpt lat="52.72652" lon="21.51134">
        <ele>94.056188</ele>
        <time>2020-10-07T23:52:59.690Z</time>
      </trkpt>
      <trkpt lat="52.72624" lon="21.51097">
        <ele>94.108922</ele>
        <time>2020-10-07T23:53:07.367Z</time>
      </trkpt>
      <trkpt lat="52.72338" lon="21.50762">
        <ele>93.278771</ele>
        <time>2020-10-07T23:54:21.808Z</time>
      </trkpt>
      <trkpt lat="52.72259" lon="21.50673">
        <ele>93.24513</ele>
        <time>2020-10-07T23:54:43.527Z</time>
      </trkpt>
      <trkpt lat="52.72222" lon="21.50628">
        <ele>93.244258</ele>
        <time>2020-10-07T23:54:53.994Z</time>
      </trkpt>
      <trkpt lat="52.72188" lon="21.50576">
        <ele>93.24339</ele>
        <time>2020-10-07T23:55:04.344Z</time>
      </trkpt>
      <trkpt lat="52.72076" lon="21.50392">
        <ele>93.070484</ele>
        <time>2020-10-07T23:55:38.374Z</time>
      </trkpt>
      <trkpt lat="52.72024" lon="21.50307">
        <ele>93.166115</ele>
        <time>2020-10-07T23:55:54.858Z</time>
      </trkpt>
      <trkpt lat="52.71985" lon="21.50243">
        <ele>93.314434</ele>
        <time>2020-10-07T23:56:07.578Z</time>
      </trkpt>
      <trkpt lat="52.71959" lon="21.50199">
        <ele>93.41558</ele>
        <time>2020-10-07T23:56:16.395Z</time>
      </trkpt>
      <trkpt lat="52.71953" lon="21.50186">
        <ele>93.442253</ele>
        <time>2020-10-07T23:56:18.842Z</time>
      </trkpt>
      <trkpt lat="52.71925" lon="21.50129">
        <ele>93.569681</ele>
        <time>2020-10-07T23:56:29.699Z</time>
      </trkpt>
      <trkpt lat="52.71847" lon="21.49971">
        <ele>93.967183</ele>
        <time>2020-10-07T23:56:59.846Z</time>
      </trkpt>
      <trkpt lat="52.71764" lon="21.49751">
        <ele>93.849237</ele>
        <time>2020-10-07T23:57:34.037Z</time>
      </trkpt>
      <trkpt lat="52.71587" lon="21.49371">
        <ele>93.018484</ele>
        <time>2020-10-07T23:58:34.389Z</time>
      </trkpt>
      <trkpt lat="52.7156" lon="21.4932">
        <ele>93.093259</ele>
        <time>2020-10-07T23:58:43.722Z</time>
      </trkpt>
      <trkpt lat="52.71535" lon="21.49279">
        <ele>93.158014</ele>
        <time>2020-10-07T23:58:52.105Z</time>
      </trkpt>
      <trkpt lat="52.7149" lon="21.49211">
        <ele>93.273918</ele>
        <time>2020-10-07T23:59:06.871Z</time>
      </trkpt>
      <trkpt lat="52.71439" lon="21.49124">
        <ele>93.698791</ele>
        <time>2020-10-07T23:59:25.461Z</time>
      </trkpt>
      <trkpt lat="52.71346" lon="21.48944">
        <ele>94.485241</ele>
        <time>2020-10-08T00:00:00.217Z</time>
      </trkpt>
      <trkpt lat="52.71273" lon="21.48783">
        <ele>95.073825</ele>
        <time>2020-10-08T00:00:29.117Z</time>
      </trkpt>
      <trkpt lat="52.71147" lon="21.48457">
        <ele>97.845636</ele>
        <time>2020-10-08T00:01:30.010Z</time>
      </trkpt>
      <trkpt lat="52.71065" lon="21.48182">
        <ele>102.838282</ele>
        <time>2020-10-08T00:02:34.542Z</time>
      </trkpt>
      <trkpt lat="52.71003" lon="21.4805">
        <ele>105.90671</ele>
        <time>2020-10-08T00:03:11.787Z</time>
      </trkpt>
      <trkpt lat="52.70777" lon="21.47466">
        <ele>114.15049</ele>
        <time>2020-10-08T00:05:16.632Z</time>
      </trkpt>
      <trkpt lat="52.70754" lon="21.47384">
        <ele>114.975214</ele>
        <time>2020-10-08T00:05:31.570Z</time>
      </trkpt>
      <trkpt lat="52.70726" lon="21.47327">
        <ele>115.653461</ele>
        <time>2020-10-08T00:05:43.916Z</time>
      </trkpt>
      <trkpt lat="52.70638" lon="21.47215">
        <ele>117.585319</ele>
        <time>2020-10-08T00:06:15.336Z</time>
      </trkpt>
      <trkpt lat="52.70568" lon="21.47093">
        <ele>119.641604</ele>
        <time>2020-10-08T00:06:47.597Z</time>
      </trkpt>
      <trkpt lat="52.70491" lon="21.46904">
        <ele>121.48342</ele>
        <time>2020-10-08T00:07:29.394Z</time>
      </trkpt>
      <trkpt lat="52.70391" lon="21.46298">
        <ele>121.78167</ele>
        <time>2020-10-08T00:08:52.100Z</time>
      </trkpt>
      <trkpt lat="52.70256" lon="21.4566">
        <ele>120.152456</ele>
        <time>2020-10-08T00:10:17.446Z</time>
      </trkpt>
      <trkpt lat="52.70235" lon="21.45563">
        <ele>119.876977</ele>
        <time>2020-10-08T00:10:30.877Z</time>
      </trkpt>
      <trkpt lat="52.70167" lon="21.45093">
        <ele>118.264485</ele>
        <time>2020-10-08T00:11:30.719Z</time>
      </trkpt>
      <trkpt lat="52.70075" lon="21.4467">
        <ele>116.233109</ele>
        <time>2020-10-08T00:12:22.795Z</time>
      </trkpt>
      <trkpt lat="52.70047" lon="21.44592">
        <ele>116.168974</ele>
        <time>2020-10-08T00:12:35.670Z</time>
      </trkpt>
      <trkpt lat="52.70015" lon="21.44527">
        <ele>116.551449</ele>
        <time>2020-10-08T00:12:49.424Z</time>
      </trkpt>
      <trkpt lat="52.70012" lon="21.4452">
        <ele>116.686508</ele>
        <time>2020-10-08T00:12:50.996Z</time>
      </trkpt>
      <trkpt lat="52.69971" lon="21.44437">
        <ele>118.289265</ele>
        <time>2020-10-08T00:13:11.387Z</time>
      </trkpt>
      <trkpt lat="52.69934" lon="21.44322">
        <ele>120.251243</ele>
        <time>2020-10-08T00:13:39.458Z</time>
      </trkpt>
      <trkpt lat="52.69901" lon="21.44107">
        <ele>122.884772</ele>
        <time>2020-10-08T00:14:24.324Z</time>
      </trkpt>
      <trkpt lat="52.69903" lon="21.43748">
        <ele>123.885596</ele>
        <time>2020-10-08T00:15:14.214Z</time>
      </trkpt>
      <trkpt lat="52.69898" lon="21.43528">
        <ele>122.457877</ele>
        <time>2020-10-08T00:15:39.334Z</time>
      </trkpt>
      <trkpt lat="52.6988" lon="21.43027">
        <ele>117.509208</ele>
        <time>2020-10-08T00:16:34.795Z</time>
      </trkpt>
      <trkpt lat="52.69868" lon="21.42953">
        <ele>116.540557</ele>
        <time>2020-10-08T00:16:42.790Z</time>
      </trkpt>
      <trkpt lat="52.69843" lon="21.42837">
        <ele>114.992299</ele>
        <time>2020-10-08T00:16:55.671Z</time>
      </trkpt>
      <trkpt lat="52.69835" lon="21.42775">
        <ele>114.578675</ele>
        <time>2020-10-08T00:17:02.310Z</time>
      </trkpt>
      <trkpt lat="52.68692" lon="21.42472">
        <ele>103.184415</ele>
        <time>2020-10-08T00:20:46.730Z</time>
      </trkpt>
      <trkpt lat="52.68659" lon="21.42338">
        <ele>102.692658</ele>
        <time>2020-10-08T00:21:05.315Z</time>
      </trkpt>
      <trkpt lat="52.6861" lon="21.4216">
        <ele>102.552505</ele>
        <time>2020-10-08T00:21:31.416Z</time>
      </trkpt>
      <trkpt lat="52.68603" lon="21.42144">
        <ele>102.538183</ele>
        <time>2020-10-08T00:21:34.113Z</time>
      </trkpt>
      <trkpt lat="52.68591" lon="21.42127">
        <ele>102.519373</ele>
        <time>2020-10-08T00:21:37.641Z</time>
      </trkpt>
      <trkpt lat="52.6852" lon="21.42075">
        <ele>102.775344</ele>
        <time>2020-10-08T00:21:54.910Z</time>
      </trkpt>
      <trkpt lat="52.68498" lon="21.42054">
        <ele>102.878583</ele>
        <time>2020-10-08T00:22:00.711Z</time>
      </trkpt>
      <trkpt lat="52.68494" lon="21.41875">
        <ele>103.525577</ele>
        <time>2020-10-08T00:22:28.168Z</time>
      </trkpt>
      <trkpt lat="52.68494" lon="21.41835">
        <ele>103.863596</ele>
        <time>2020-10-08T00:22:34.756Z</time>
      </trkpt>
      <trkpt lat="52.68336" lon="21.41738">
        <ele>106.142653</ele>
        <time>2020-10-08T00:23:22.911Z</time>
      </trkpt>
      <trkpt lat="52.68314" lon="21.41733">
        <ele>106.398309</ele>
        <time>2020-10-08T00:23:29.238Z</time>
      </trkpt>
      <trkpt lat="52.68314" lon="21.41663">
        <ele>106.89335</ele>
        <time>2020-10-08T00:23:41.638Z</time>
      </trkpt>
      <trkpt lat="52.68309" lon="21.41634">
        <ele>107.106334</ele>
        <time>2020-10-08T00:23:46.944Z</time>
      </trkpt>
      <trkpt lat="52.68301" lon="21.41617">
        <ele>107.256766</ele>
        <time>2020-10-08T00:23:50.679Z</time>
      </trkpt>
      <trkpt lat="52.68275" lon="21.41575">
        <ele>107.678145</ele>
        <time>2020-10-08T00:24:00.836Z</time>
      </trkpt>
      <trkpt lat="52.67955" lon="21.4115">
        <ele>111.293425</ele>
        <time>2020-10-08T00:25:57.435Z</time>
      </trkpt>
      <trkpt lat="52.67854" lon="21.41056">
        <ele>111.834881</ele>
        <time>2020-10-08T00:26:28.309Z</time>
      </trkpt>
      <trkpt lat="52.67488" lon="21.40813">
        <ele>112.012496</ele>
        <time>2020-10-08T00:28:06.179Z</time>
      </trkpt>
      <trkpt lat="52.67373" lon="21.40721">
        <ele>111.641761</ele>
        <time>2020-10-08T00:28:36.259Z</time>
      </trkpt>
      <trkpt lat="52.67298" lon="21.40658">
        <ele>111.520437</ele>
        <time>2020-10-08T00:28:55.896Z</time>
      </trkpt>
      <trkpt lat="52.67193" lon="21.40581">
        <ele>111.544198</ele>
        <time>2020-10-08T00:29:24.481Z</time>
      </trkpt>
      <trkpt lat="52.67083" lon="21.4051">
        <ele>112.644178</ele>
        <time>2020-10-08T00:29:56.828Z</time>
      </trkpt>
      <trkpt lat="52.66848" lon="21.40302">
        <ele>116.980092</ele>
        <time>2020-10-08T00:31:21.966Z</time>
      </trkpt>
      <trkpt lat="52.66817" lon="21.40274">
        <ele>117.482916</ele>
        <time>2020-10-08T00:31:34.023Z</time>
      </trkpt>
      <trkpt lat="52.66765" lon="21.40229">
        <ele>118.296577</ele>
        <time>2020-10-08T00:31:53.049Z</time>
      </trkpt>
      <trkpt lat="52.66728" lon="21.40174">
        <ele>118.986663</ele>
        <time>2020-10-08T00:32:08.408Z</time>
      </trkpt>
      <trkpt lat="52.66639" lon="21.39997">
        <ele>118.817904</ele>
        <time>2020-10-08T00:32:42.840Z</time>
      </trkpt>
      <trkpt lat="52.66616" lon="21.39921">
        <ele>118.483946</ele>
        <time>2020-10-08T00:32:53.649Z</time>
      </trkpt>
      <trkpt lat="52.66503" lon="21.39449">
        <ele>113.254287</ele>
        <time>2020-10-08T00:33:55.079Z</time>
      </trkpt>
      <trkpt lat="52.66459" lon="21.393">
        <ele>112.165453</ele>
        <time>2020-10-08T00:34:16.574Z</time>
      </trkpt>
      <trkpt lat="52.66412" lon="21.39172">
        <ele>112.532242</ele>
        <time>2020-10-08T00:34:40.012Z</time>
      </trkpt>
      <trkpt lat="52.66366" lon="21.39065">
        <ele>113.019017</ele>
        <time>2020-10-08T00:35:03.735Z</time>
      </trkpt>
      <trkpt lat="52.66324" lon="21.38964">
        <ele>114.190696</ele>
        <time>2020-10-08T00:35:26.933Z</time>
      </trkpt>
      <trkpt lat="52.66272" lon="21.38861">
        <ele>115.477239</ele>
        <time>2020-10-08T00:35:52.769Z</time>
      </trkpt>
      <trkpt lat="52.66204" lon="21.38769">
        <ele>116.526723</ele>
        <time>2020-10-08T00:36:20.201Z</time>
      </trkpt>
      <trkpt lat="52.66071" lon="21.38582">
        <ele>117.352145</ele>
        <time>2020-10-08T00:37:09.097Z</time>
      </trkpt>
      <trkpt lat="52.65926" lon="21.38399">
        <ele>116.091189</ele>
        <time>2020-10-08T00:37:47.341Z</time>
      </trkpt>
      <trkpt lat="52.659" lon="21.38354">
        <ele>115.721928</ele>
        <time>2020-10-08T00:37:55.167Z</time>
      </trkpt>
      <trkpt lat="52.6585" lon="21.38226">
        <ele>115.322321</ele>
        <time>2020-10-08T00:38:16.604Z</time>
      </trkpt>
      <trkpt lat="52.65818" lon="21.38158">
        <ele>115.842201</ele>
        <time>2020-10-08T00:38:31.127Z</time>
      </trkpt>
      <trkpt lat="52.65661" lon="21.37899">
        <ele>118.492693</ele>
        <time>2020-10-08T00:39:40.505Z</time>
      </trkpt>
      <trkpt lat="52.65595" lon="21.37723">
        <ele>120.212081</ele>
        <time>2020-10-08T00:40:15.952Z</time>
      </trkpt>
      <trkpt lat="52.65576" lon="21.37637">
        <ele>120.968364</ele>
        <time>2020-10-08T00:40:32.289Z</time>
      </trkpt>
      <trkpt lat="52.65556" lon="21.37475">
        <ele>122.564387</ele>
        <time>2020-10-08T00:41:05.008Z</time>
      </trkpt>
      <trkpt lat="52.65531" lon="21.37324">
        <ele>124.38459</ele>
        <time>2020-10-08T00:41:38.022Z</time>
      </trkpt>
      <trkpt lat="52.6551" lon="21.37231">
        <ele>125.207765</ele>
        <time>2020-10-08T00:41:56.533Z</time>
      </trkpt>
      <trkpt lat="52.65448" lon="21.36952">
        <ele>124.943295</ele>
        <time>2020-10-08T00:42:38.987Z</time>
      </trkpt>
      <trkpt lat="52.65431" lon="21.36888">
        <ele>124.538619</ele>
        <time>2020-10-08T00:42:48.012Z</time>
      </trkpt>
      <trkpt lat="52.65396" lon="21.36807">
        <ele>123.971052</ele>
        <time>2020-10-08T00:43:00.816Z</time>
      </trkpt>
      <trkpt lat="52.6538" lon="21.36759">
        <ele>123.654319</ele>
        <time>2020-10-08T00:43:08.062Z</time>
      </trkpt>
      <trkpt lat="52.65355" lon="21.36628">
        <ele>123.213735</ele>
        <time>2020-10-08T00:43:26.681Z</time>
      </trkpt>
      <trkpt lat="52.65347" lon="21.36526">
        <ele>123.013044</ele>
        <time>2020-10-08T00:43:41.072Z</time>
      </trkpt>
      <trkpt lat="52.65334" lon="21.36436">
        <ele>122.830337</ele>
        <time>2020-10-08T00:43:55.395Z</time>
      </trkpt>
      <trkpt lat="52.65316" lon="21.36363">
        <ele>123.120055</ele>
        <time>2020-10-08T00:44:08.172Z</time>
      </trkpt>
      <trkpt lat="52.65297" lon="21.36296">
        <ele>123.436195</ele>
        <time>2020-10-08T00:44:20.516Z</time>
      </trkpt>
      <trkpt lat="52.65229" lon="21.36081">
        <ele>124.063643</ele>
        <time>2020-10-08T00:45:02.192Z</time>
      </trkpt>
      <trkpt lat="52.65202" lon="21.35985">
        <ele>124.02259</ele>
        <time>2020-10-08T00:45:19.131Z</time>
      </trkpt>
      <trkpt lat="52.65126" lon="21.3562">
        <ele>121.19905</ele>
        <time>2020-10-08T00:46:08.601Z</time>
      </trkpt>
      <trkpt lat="52.65082" lon="21.35442">
        <ele>117.12544</ele>
        <time>2020-10-08T00:46:29.698Z</time>
      </trkpt>
      <trkpt lat="52.65023" lon="21.35233">
        <ele>112.685463</ele>
        <time>2020-10-08T00:46:54.412Z</time>
      </trkpt>
      <trkpt lat="52.65002" lon="21.35183">
        <ele>111.67729</ele>
        <time>2020-10-08T00:47:01.173Z</time>
      </trkpt>
      <trkpt lat="52.64724" lon="21.34678">
        <ele>105.879743</ele>
        <time>2020-10-08T00:48:29.832Z</time>
      </trkpt>
      <trkpt lat="52.64665" lon="21.34566">
        <ele>105.365941</ele>
        <time>2020-10-08T00:48:48.107Z</time>
      </trkpt>
      <trkpt lat="52.64436" lon="21.34155">
        <ele>104.539005</ele>
        <time>2020-10-08T00:50:00.051Z</time>
      </trkpt>
      <trkpt lat="52.64183" lon="21.33839">
        <ele>106.587286</ele>
        <time>2020-10-08T00:51:17.837Z</time>
      </trkpt>
      <trkpt lat="52.63923" lon="21.33502">
        <ele>115.145641</ele>
        <time>2020-10-08T00:53:10.100Z</time>
      </trkpt>
      <trkpt lat="52.63887" lon="21.33455">
        <ele>115.74751</ele>
        <time>2020-10-08T00:53:24.210Z</time>
      </trkpt>
      <trkpt lat="52.6351" lon="21.3286">
        <ele>116.014967</ele>
        <time>2020-10-08T00:55:18.957Z</time>
      </trkpt>
      <trkpt lat="52.6318" lon="21.32339">
        <ele>111.505956</ele>
        <time>2020-10-08T00:56:49.192Z</time>
      </trkpt>
      <trkpt lat="52.62907" lon="21.3219">
        <ele>104.337757</ele>
        <time>2020-10-08T00:57:36.529Z</time>
      </trkpt>
      <trkpt lat="52.62884" lon="21.32174">
        <ele>103.980202</ele>
        <time>2020-10-08T00:57:41.155Z</time>
      </trkpt>
      <trkpt lat="52.62877" lon="21.3217">
        <ele>103.876249</ele>
        <time>2020-10-08T00:57:42.495Z</time>
      </trkpt>
      <trkpt lat="52.62807" lon="21.32129">
        <ele>102.807534</ele>
        <time>2020-10-08T00:57:57.136Z</time>
      </trkpt>
      <trkpt lat="52.62509" lon="21.31962">
        <ele>102.376492</ele>
        <time>2020-10-08T00:59:10.942Z</time>
      </trkpt>
      <trkpt lat="52.62403" lon="21.31897">
        <ele>102.375954</ele>
        <time>2020-10-08T00:59:38.655Z</time>
      </trkpt>
      <trkpt lat="52.62508" lon="21.31112">
        <ele>100.053719</ele>
        <time>2020-10-08T01:01:22.698Z</time>
      </trkpt>
      <trkpt lat="52.62559" lon="21.30751">
        <ele>99.80471</ele>
        <time>2020-10-08T01:02:14.389Z</time>
      </trkpt>
      <trkpt lat="52.62561" lon="21.3073">
        <ele>99.828564</ele>
        <time>2020-10-08T01:02:17.528Z</time>
      </trkpt>
      <trkpt lat="52.62559" lon="21.30704">
        <ele>99.856856</ele>
        <time>2020-10-08T01:02:21.168Z</time>
      </trkpt>
      <trkpt lat="52.62548" lon="21.30683">
        <ele>99.886876</ele>
        <time>2020-10-08T01:02:25.055Z</time>
      </trkpt>
      <trkpt lat="52.62205" lon="21.30257">
        <ele>100.944385</ele>
        <time>2020-10-08T01:04:08.256Z</time>
      </trkpt>
      <trkpt lat="52.61726" lon="21.29817">
        <ele>105.382744</ele>
        <time>2020-10-08T01:06:34.505Z</time>
      </trkpt>
      <trkpt lat="52.6161" lon="21.29698">
        <ele>106.271456</ele>
        <time>2020-10-08T01:07:10.649Z</time>
      </trkpt>
      <trkpt lat="52.61054" lon="21.29177">
        <ele>108.289959</ele>
        <time>2020-10-08T01:09:46.627Z</time>
      </trkpt>
      <trkpt lat="52.60785" lon="21.28925">
        <ele>108.223293</ele>
        <time>2020-10-08T01:10:57.562Z</time>
      </trkpt>
      <trkpt lat="52.60724" lon="21.2887">
        <ele>108.347302</ele>
        <time>2020-10-08T01:11:13.652Z</time>
      </trkpt>
      <trkpt lat="52.60691" lon="21.28848">
        <ele>108.468078</ele>
        <time>2020-10-08T01:11:22.291Z</time>
      </trkpt>
      <trkpt lat="52.60597" lon="21.28824">
        <ele>108.786082</ele>
        <time>2020-10-08T01:11:46.182Z</time>
      </trkpt>
      <trkpt lat="52.60433" lon="21.28796">
        <ele>109.783797</ele>
        <time>2020-10-08T01:12:29.470Z</time>
      </trkpt>
      <trkpt lat="52.5972" lon="21.28684">
        <ele>110.556279</ele>
        <time>2020-10-08T01:15:17.586Z</time>
      </trkpt>
      <trkpt lat="52.59674" lon="21.28672">
        <ele>110.628967</ele>
        <time>2020-10-08T01:15:28.780Z</time>
      </trkpt>
      <trkpt lat="52.59645" lon="21.28657">
        <ele>110.69698</ele>
        <time>2020-10-08T01:15:36.124Z</time>
      </trkpt>
      <trkpt lat="52.59231" lon="21.28379">
        <ele>111.502645</ele>
        <time>2020-10-08T01:17:23.932Z</time>
      </trkpt>
      <trkpt lat="52.59056" lon="21.27804">
        <ele>110.687801</ele>
        <time>2020-10-08T01:18:46.639Z</time>
      </trkpt>
      <trkpt lat="52.58905" lon="21.27326">
        <ele>111.590034</ele>
        <time>2020-10-08T01:20:53.344Z</time>
      </trkpt>
      <trkpt lat="52.58826" lon="21.27048">
        <ele>111.425026</ele>
        <time>2020-10-08T01:22:01.439Z</time>
      </trkpt>
      <trkpt lat="52.58798" lon="21.26935">
        <ele>111.305827</ele>
        <time>2020-10-08T01:22:17.146Z</time>
      </trkpt>
      <trkpt lat="52.58599" lon="21.26171">
        <ele>110.615868</ele>
        <time>2020-10-08T01:24:07.702Z</time>
      </trkpt>
      <trkpt lat="52.58437" lon="21.25625">
        <ele>109.100128</ele>
        <time>2020-10-08T01:25:24.329Z</time>
      </trkpt>
      <trkpt lat="52.58425" lon="21.25584">
        <ele>109.073154</ele>
        <time>2020-10-08T01:25:30.537Z</time>
      </trkpt>
      <trkpt lat="52.58402" lon="21.25555">
        <ele>109.044578</ele>
        <time>2020-10-08T01:25:37.105Z</time>
      </trkpt>
      <trkpt lat="52.58022" lon="21.25263">
        <ele>108.824468</ele>
        <time>2020-10-08T01:27:13.589Z</time>
      </trkpt>
      <trkpt lat="52.57921" lon="21.25168">
        <ele>109.076812</ele>
        <time>2020-10-08T01:27:41.688Z</time>
      </trkpt>
      <trkpt lat="52.57844" lon="21.25105">
        <ele>109.382726</ele>
        <time>2020-10-08T01:28:03.253Z</time>
      </trkpt>
      <trkpt lat="52.57826" lon="21.25083">
        <ele>109.461234</ele>
        <time>2020-10-08T01:28:08.813Z</time>
      </trkpt>
      <trkpt lat="52.57779" lon="21.24996">
        <ele>109.668384</ele>
        <time>2020-10-08T01:28:26.230Z</time>
      </trkpt>
      <trkpt lat="52.57691" lon="21.2479">
        <ele>110.082237</ele>
        <time>2020-10-08T01:29:01.733Z</time>
      </trkpt>
      <trkpt lat="52.57493" lon="21.24355">
        <ele>110.766698</ele>
        <time>2020-10-08T01:30:18.117Z</time>
      </trkpt>
      <trkpt lat="52.57199" lon="21.23731">
        <ele>111.372936</ele>
        <time>2020-10-08T01:32:06.762Z</time>
      </trkpt>
      <trkpt lat="52.57186" lon="21.23707">
        <ele>111.415853</ele>
        <time>2020-10-08T01:32:11.386Z</time>
      </trkpt>
      <trkpt lat="52.56942" lon="21.23259">
        <ele>113.015313</ele>
        <time>2020-10-08T01:33:40.329Z</time>
      </trkpt>
      <trkpt lat="52.56354" lon="21.2341">
        <ele>112.930279</ele>
        <time>2020-10-08T01:35:51.842Z</time>
      </trkpt>
      <trkpt lat="52.56142" lon="21.23469">
        <ele>112.692522</ele>
        <time>2020-10-08T01:36:40.097Z</time>
      </trkpt>
      <trkpt lat="52.56064" lon="21.23496">
        <ele>112.361328</ele>
        <time>2020-10-08T01:36:56.328Z</time>
      </trkpt>
      <trkpt lat="52.5574" lon="21.236">
        <ele>109.966254</ele>
        <time>2020-10-08T01:38:00.336Z</time>
      </trkpt>
      <trkpt lat="52.5567" lon="21.23148">
        <ele>110.258071</ele>
        <time>2020-10-08T01:39:07.730Z</time>
      </trkpt>
      <trkpt lat="52.55509" lon="21.22148">
        <ele>110.54328</ele>
        <time>2020-10-08T01:41:28.546Z</time>
      </trkpt>
      <trkpt lat="52.55468" lon="21.21891">
        <ele>110.659232</ele>
        <time>2020-10-08T01:42:05.010Z</time>
      </trkpt>
      <trkpt lat="52.55375" lon="21.21302">
        <ele>110.812306</ele>
        <time>2020-10-08T01:43:28.192Z</time>
      </trkpt>
      <trkpt lat="52.55285" lon="21.20738">
        <ele>110.970298</ele>
        <time>2020-10-08T01:44:47.858Z</time>
      </trkpt>
      <trkpt lat="52.55271" lon="21.20647">
        <ele>110.987581</ele>
        <time>2020-10-08T01:45:00.909Z</time>
      </trkpt>
      <trkpt lat="52.55072" lon="21.19394">
        <ele>108.83928</ele>
        <time>2020-10-08T01:47:48.477Z</time>
      </trkpt>
      <trkpt lat="52.54983" lon="21.18829">
        <ele>108.049217</ele>
        <time>2020-10-08T01:49:04.989Z</time>
      </trkpt>
      <trkpt lat="52.54861" lon="21.18033">
        <ele>106.707504</ele>
        <time>2020-10-08T01:50:51.126Z</time>
      </trkpt>
      <trkpt lat="52.54821" lon="21.17788">
        <ele>106.785561</ele>
        <time>2020-10-08T01:51:25.678Z</time>
      </trkpt>
      <trkpt lat="52.54763" lon="21.1743">
        <ele>106.560311</ele>
        <time>2020-10-08T01:52:19.246Z</time>
      </trkpt>
      <trkpt lat="52.54624" lon="21.16577">
        <ele>96.309194</ele>
        <time>2020-10-08T01:53:53.426Z</time>
      </trkpt>
      <trkpt lat="52.54594" lon="21.16382">
        <ele>93.841984</ele>
        <time>2020-10-08T01:54:14.638Z</time>
      </trkpt>
      <trkpt lat="52.54593" lon="21.16372">
        <ele>93.713192</ele>
        <time>2020-10-08T01:54:15.785Z</time>
      </trkpt>
      <trkpt lat="52.54588" lon="21.16342">
        <ele>93.335862</ele>
        <time>2020-10-08T01:54:19.190Z</time>
      </trkpt>
      <trkpt lat="52.54579" lon="21.1628">
        <ele>92.944484</ele>
        <time>2020-10-08T01:54:26.315Z</time>
      </trkpt>
      <trkpt lat="52.54557" lon="21.16138">
        <ele>92.078394</ele>
        <time>2020-10-08T01:54:43.877Z</time>
      </trkpt>
      <trkpt lat="52.54331" lon="21.14707">
        <ele>87.752714</ele>
        <time>2020-10-08T01:57:49.771Z</time>
      </trkpt>
      <trkpt lat="52.54329" lon="21.14696">
        <ele>87.733837</ele>
        <time>2020-10-08T01:57:51.358Z</time>
      </trkpt>
      <trkpt lat="52.5424" lon="21.14121">
        <ele>87.629393</ele>
        <time>2020-10-08T01:59:14.001Z</time>
      </trkpt>
      <trkpt lat="52.54158" lon="21.136">
        <ele>85.022669</ele>
        <time>2020-10-08T02:00:16.999Z</time>
      </trkpt>
      <trkpt lat="52.54147" lon="21.13527">
        <ele>84.725973</ele>
        <time>2020-10-08T02:00:26.391Z</time>
      </trkpt>
      <trkpt lat="52.54058" lon="21.12954">
        <ele>85.041095</ele>
        <time>2020-10-08T02:01:48.861Z</time>
      </trkpt>
      <trkpt lat="52.54006" lon="21.12621">
        <ele>85.592416</ele>
        <time>2020-10-08T02:02:38.008Z</time>
      </trkpt>
      <trkpt lat="52.53987" lon="21.12497">
        <ele>85.80432</ele>
        <time>2020-10-08T02:02:56.233Z</time>
      </trkpt>
      <trkpt lat="52.53975" lon="21.12422">
        <ele>85.931665</ele>
        <time>2020-10-08T02:03:07.273Z</time>
      </trkpt>
      <trkpt lat="52.53966" lon="21.12364">
        <ele>86.028932</ele>
        <time>2020-10-08T02:03:15.709Z</time>
      </trkpt>
      <trkpt lat="52.53939" lon="21.12182">
        <ele>86.390984</ele>
        <time>2020-10-08T02:03:42.730Z</time>
      </trkpt>
      <trkpt lat="52.53901" lon="21.11941">
        <ele>86.63095</ele>
        <time>2020-10-08T02:04:18.423Z</time>
      </trkpt>
      <trkpt lat="52.53768" lon="21.11084">
        <ele>85.201846</ele>
        <time>2020-10-08T02:06:14.923Z</time>
      </trkpt>
      <trkpt lat="52.53708" lon="21.10699">
        <ele>81.09997</ele>
        <time>2020-10-08T02:06:57.466Z</time>
      </trkpt>
      <trkpt lat="52.53696" lon="21.10625">
        <ele>80.175125</ele>
        <time>2020-10-08T02:07:05.653Z</time>
      </trkpt>
      <trkpt lat="52.53674" lon="21.10482">
        <ele>79.240366</ele>
        <time>2020-10-08T02:07:22.209Z</time>
      </trkpt>
      <trkpt lat="52.53597" lon="21.09993">
        <ele>77.65374</ele>
        <time>2020-10-08T02:08:26.562Z</time>
      </trkpt>
      <trkpt lat="52.53551" lon="21.09696">
        <ele>77.907042</ele>
        <time>2020-10-08T02:09:08.388Z</time>
      </trkpt>
      <trkpt lat="52.53546" lon="21.09666">
        <ele>78.051003</ele>
        <time>2020-10-08T02:09:13.211Z</time>
      </trkpt>
      <trkpt lat="52.53538" lon="21.09613">
        <ele>78.30933</ele>
        <time>2020-10-08T02:09:21.902Z</time>
      </trkpt>
      <trkpt lat="52.53517" lon="21.09478">
        <ele>78.967275</ele>
        <time>2020-10-08T02:09:44.615Z</time>
      </trkpt>
      <trkpt lat="52.5351" lon="21.09432">
        <ele>79.160778</ele>
        <time>2020-10-08T02:09:52.556Z</time>
      </trkpt>
      <trkpt lat="52.53426" lon="21.08898">
        <ele>80.525306</ele>
        <time>2020-10-08T02:11:14.085Z</time>
      </trkpt>
      <trkpt lat="52.53401" lon="21.0874">
        <ele>79.099345</ele>
        <time>2020-10-08T02:11:32.330Z</time>
      </trkpt>
      <trkpt lat="52.53389" lon="21.0866">
        <ele>78.347622</ele>
        <time>2020-10-08T02:11:41.144Z</time>
      </trkpt>
      <trkpt lat="52.53373" lon="21.08549">
        <ele>77.343953</ele>
        <time>2020-10-08T02:11:53.282Z</time>
      </trkpt>
      <trkpt lat="52.5337" lon="21.08531">
        <ele>77.178344</ele>
        <time>2020-10-08T02:11:55.350Z</time>
      </trkpt>
      <trkpt lat="52.53324" lon="21.08239">
        <ele>75.355457</ele>
        <time>2020-10-08T02:12:30.179Z</time>
      </trkpt>
      <trkpt lat="52.53313" lon="21.08164">
        <ele>75.391184</ele>
        <time>2020-10-08T02:12:40.472Z</time>
      </trkpt>
      <trkpt lat="52.5331" lon="21.08146">
        <ele>75.399888</ele>
        <time>2020-10-08T02:12:43.059Z</time>
      </trkpt>
      <trkpt lat="52.53199" lon="21.07445">
        <ele>80.21928</ele>
        <time>2020-10-08T02:14:41.991Z</time>
      </trkpt>
      <trkpt lat="52.53197" lon="21.07434">
        <ele>80.378655</ele>
        <time>2020-10-08T02:14:44.717Z</time>
      </trkpt>
      <trkpt lat="52.53195" lon="21.07417">
        <ele>80.633358</ele>
        <time>2020-10-08T02:14:47.922Z</time>
      </trkpt>
      <trkpt lat="52.53191" lon="21.07395">
        <ele>80.970624</ele>
        <time>2020-10-08T02:14:52.173Z</time>
      </trkpt>
      <trkpt lat="52.53188" lon="21.07376">
        <ele>81.262343</ele>
        <time>2020-10-08T02:14:57.020Z</time>
      </trkpt>
      <trkpt lat="52.53175" lon="21.07287">
        <ele>82.603607</ele>
        <time>2020-10-08T02:15:15.107Z</time>
      </trkpt>
      <trkpt lat="52.53171" lon="21.07264">
        <ele>82.947148</ele>
        <time>2020-10-08T02:15:20.624Z</time>
      </trkpt>
      <trkpt lat="52.53165" lon="21.07222">
        <ele>83.578951</ele>
        <time>2020-10-08T02:15:28.951Z</time>
      </trkpt>
      <trkpt lat="52.53158" lon="21.07177">
        <ele>84.267663</ele>
        <time>2020-10-08T02:15:38.328Z</time>
      </trkpt>
      <trkpt lat="52.53152" lon="21.07151">
        <ele>84.55878</ele>
        <time>2020-10-08T02:15:43.959Z</time>
      </trkpt>
      <trkpt lat="52.53147" lon="21.07135">
        <ele>84.741838</ele>
        <time>2020-10-08T02:15:47.010Z</time>
      </trkpt>
      <trkpt lat="52.53142" lon="21.0712">
        <ele>84.90836</ele>
        <time>2020-10-08T02:15:49.480Z</time>
      </trkpt>
      <trkpt lat="52.53137" lon="21.07105">
        <ele>85.080004</ele>
        <time>2020-10-08T02:15:52.562Z</time>
      </trkpt>
      <trkpt lat="52.53132" lon="21.07092">
        <ele>85.234747</ele>
        <time>2020-10-08T02:15:55.244Z</time>
      </trkpt>
      <trkpt lat="52.53127" lon="21.07081">
        <ele>85.370197</ele>
        <time>2020-10-08T02:15:57.469Z</time>
      </trkpt>
      <trkpt lat="52.53122" lon="21.07068">
        <ele>85.525845</ele>
        <time>2020-10-08T02:15:59.929Z</time>
      </trkpt>
      <trkpt lat="52.53119" lon="21.0706">
        <ele>85.615923</ele>
        <time>2020-10-08T02:16:01.608Z</time>
      </trkpt>
      <trkpt lat="52.53117" lon="21.07054">
        <ele>85.682907</ele>
        <time>2020-10-08T02:16:02.894Z</time>
      </trkpt>
      <trkpt lat="52.53119" lon="21.0705">
        <ele>85.728871</ele>
        <time>2020-10-08T02:16:03.763Z</time>
      </trkpt>
      <trkpt lat="52.5312" lon="21.07046">
        <ele>85.77574</ele>
        <time>2020-10-08T02:16:04.567Z</time>
      </trkpt>
      <trkpt lat="52.53121" lon="21.0704">
        <ele>85.835273</ele>
        <time>2020-10-08T02:16:05.638Z</time>
      </trkpt>
      <trkpt lat="52.53121" lon="21.07034">
        <ele>85.894971</ele>
        <time>2020-10-08T02:16:06.640Z</time>
      </trkpt>
      <trkpt lat="52.5312" lon="21.07028">
        <ele>85.954757</ele>
        <time>2020-10-08T02:16:07.686Z</time>
      </trkpt>
      <trkpt lat="52.53119" lon="21.07022">
        <ele>86.018357</ele>
        <time>2020-10-08T02:16:08.717Z</time>
      </trkpt>
      <trkpt lat="52.5311" lon="21.0701">
        <ele>86.206568</ele>
        <time>2020-10-08T02:16:11.760Z</time>
      </trkpt>
      <trkpt lat="52.53106" lon="21.07009">
        <ele>86.270463</ele>
        <time>2020-10-08T02:16:12.815Z</time>
      </trkpt>
      <trkpt lat="52.53101" lon="21.07009">
        <ele>86.355533</ele>
        <time>2020-10-08T02:16:14.225Z</time>
      </trkpt>
      <trkpt lat="52.53096" lon="21.07012">
        <ele>86.440347</ele>
        <time>2020-10-08T02:16:15.749Z</time>
      </trkpt>
      <trkpt lat="52.53092" lon="21.07017">
        <ele>86.527525</ele>
        <time>2020-10-08T02:16:17.267Z</time>
      </trkpt>
      <trkpt lat="52.53089" lon="21.07024">
        <ele>86.613504</ele>
        <time>2020-10-08T02:16:18.714Z</time>
      </trkpt>
      <trkpt lat="52.53079" lon="21.07028">
        <ele>86.781537</ele>
        <time>2020-10-08T02:16:21.488Z</time>
      </trkpt>
      <trkpt lat="52.53073" lon="21.07028">
        <ele>86.876412</ele>
        <time>2020-10-08T02:16:23.152Z</time>
      </trkpt>
      <trkpt lat="52.53045" lon="21.07028">
        <ele>87.351415</ele>
        <time>2020-10-08T02:16:30.888Z</time>
      </trkpt>
      <trkpt lat="52.53031" lon="21.07027">
        <ele>87.657776</ele>
        <time>2020-10-08T02:16:34.998Z</time>
      </trkpt>
      <trkpt lat="52.52989" lon="21.07025">
        <ele>88.532414</ele>
        <time>2020-10-08T02:16:47.213Z</time>
      </trkpt>
      <trkpt lat="52.52968" lon="21.07023">
        <ele>88.976398</ele>
        <time>2020-10-08T02:16:53.249Z</time>
      </trkpt>
      <trkpt lat="52.52969" lon="21.07016">
        <ele>89.078953</ele>
        <time>2020-10-08T02:16:54.956Z</time>
      </trkpt>
      <trkpt lat="52.52932" lon="21.07013">
        <ele>89.862884</ele>
        <time>2020-10-08T02:17:06.002Z</time>
      </trkpt>
      <trkpt lat="52.52876" lon="21.0701">
        <ele>91.037725</ele>
        <time>2020-10-08T02:17:24.741Z</time>
      </trkpt>
      <trkpt lat="52.5287" lon="21.07002">
        <ele>91.23377</ele>
        <time>2020-10-08T02:17:27.225Z</time>
      </trkpt>
      <trkpt lat="52.52861" lon="21.07002">
        <ele>91.461336</ele>
        <time>2020-10-08T02:17:30.537Z</time>
      </trkpt>
      <trkpt lat="52.52852" lon="21.07002">
        <ele>91.696571</ele>
        <time>2020-10-08T02:17:33.695Z</time>
      </trkpt>
      <trkpt lat="52.52812" lon="21.07004">
        <ele>92.732406</ele>
        <time>2020-10-08T02:17:47.258Z</time>
      </trkpt>
      <trkpt lat="52.52804" lon="21.07004">
        <ele>92.91907</ele>
        <time>2020-10-08T02:17:49.565Z</time>
      </trkpt>
      <trkpt lat="52.52802" lon="21.07007">
        <ele>92.995217</ele>
        <time>2020-10-08T02:17:50.466Z</time>
      </trkpt>
      <trkpt lat="52.52802" lon="21.07015">
        <ele>93.128983</ele>
        <time>2020-10-08T02:17:52.183Z</time>
      </trkpt>
      <trkpt lat="52.52802" lon="21.07024">
        <ele>93.264329</ele>
        <time>2020-10-08T02:17:54.055Z</time>
      </trkpt>
      <trkpt lat="52.52802" lon="21.0703">
        <ele>93.352987</ele>
        <time>2020-10-08T02:17:55.129Z</time>
      </trkpt>
      <trkpt lat="52.52787" lon="21.07029">
        <ele>93.749468</ele>
        <time>2020-10-08T02:18:00.178Z</time>
      </trkpt>
      <trkpt lat="52.52596" lon="21.07018">
        <ele>98.246314</ele>
        <time>2020-10-08T02:19:00.385Z</time>
      </trkpt>
      <trkpt lat="52.52476" lon="21.07011">
        <ele>100.660729</ele>
        <time>2020-10-08T02:19:36.680Z</time>
      </trkpt>
      <trkpt lat="52.5245" lon="21.07023">
        <ele>101.156159</ele>
        <time>2020-10-08T02:19:44.906Z</time>
      </trkpt>
      <trkpt lat="52.52409" lon="21.07014">
        <ele>101.890042</ele>
        <time>2020-10-08T02:19:56.930Z</time>
      </trkpt>
      <trkpt lat="52.52407" lon="21.07014">
        <ele>101.929246</ele>
        <time>2020-10-08T02:19:57.649Z</time>
      </trkpt>
      <trkpt lat="52.52404" lon="21.07014">
        <ele>101.980904</ele>
        <time>2020-10-08T02:19:58.760Z</time>
      </trkpt>
      <trkpt lat="52.52398" lon="21.07007">
        <ele>102.104858</ele>
        <time>2020-10-08T02:20:00.662Z</time>
      </trkpt>
      <trkpt lat="52.52298" lon="21.07001">
        <ele>103.770059</ele>
        <time>2020-10-08T02:20:28.994Z</time>
      </trkpt>
      <trkpt lat="52.52225" lon="21.06996">
        <ele>104.90558</ele>
        <time>2020-10-08T02:20:50.097Z</time>
      </trkpt>
      <trkpt lat="52.52127" lon="21.06993">
        <ele>106.232101</ele>
        <time>2020-10-08T02:21:17.557Z</time>
      </trkpt>
      <trkpt lat="52.52121" lon="21.06998">
        <ele>106.307969</ele>
        <time>2020-10-08T02:21:19.300Z</time>
      </trkpt>
      <trkpt lat="52.52119" lon="21.06998">
        <ele>106.328454</ele>
        <time>2020-10-08T02:21:20.134Z</time>
      </trkpt>
      <trkpt lat="52.52117" lon="21.06998">
        <ele>106.348951</ele>
        <time>2020-10-08T02:21:20.755Z</time>
      </trkpt>
      <trkpt lat="52.52113" lon="21.06993">
        <ele>106.405728</ele>
        <time>2020-10-08T02:21:22.081Z</time>
      </trkpt>
      <trkpt lat="52.51712" lon="21.06978">
        <ele>110.857912</ele>
        <time>2020-10-08T02:23:08.410Z</time>
      </trkpt>
      <trkpt lat="52.51707" lon="21.06978">
        <ele>110.917034</ele>
        <time>2020-10-08T02:23:10.145Z</time>
      </trkpt>
      <trkpt lat="52.51705" lon="21.06978">
        <ele>110.936651</ele>
        <time>2020-10-08T02:23:10.635Z</time>
      </trkpt>
      <trkpt lat="52.51669" lon="21.06978">
        <ele>111.311441</ele>
        <time>2020-10-08T02:23:20.086Z</time>
      </trkpt>
      <trkpt lat="52.51536" lon="21.06979">
        <ele>112.130914</ele>
        <time>2020-10-08T02:23:53.960Z</time>
      </trkpt>
      <trkpt lat="52.51531" lon="21.06974">
        <ele>112.161761</ele>
        <time>2020-10-08T02:23:55.436Z</time>
      </trkpt>
      <trkpt lat="52.51522" lon="21.06974">
        <ele>112.208497</ele>
        <time>2020-10-08T02:23:57.739Z</time>
      </trkpt>
      <trkpt lat="52.51514" lon="21.06974">
        <ele>112.244796</ele>
        <time>2020-10-08T02:23:59.399Z</time>
      </trkpt>
      <trkpt lat="52.51511" lon="21.0697">
        <ele>112.26362</ele>
        <time>2020-10-08T02:24:00.347Z</time>
      </trkpt>
      <trkpt lat="52.5148" lon="21.06969">
        <ele>112.420256</ele>
        <time>2020-10-08T02:24:07.406Z</time>
      </trkpt>
      <trkpt lat="52.51474" lon="21.06958">
        <ele>112.466515</ele>
        <time>2020-10-08T02:24:09.485Z</time>
      </trkpt>
      <trkpt lat="52.51385" lon="21.06954">
        <ele>112.244822</ele>
        <time>2020-10-08T02:24:28.295Z</time>
      </trkpt>
      <trkpt lat="52.51376" lon="21.06953">
        <ele>112.213835</ele>
        <time>2020-10-08T02:24:30.178Z</time>
      </trkpt>
      <trkpt lat="52.5129" lon="21.06949">
        <ele>111.912971</ele>
        <time>2020-10-08T02:24:48.026Z</time>
      </trkpt>
      <trkpt lat="52.51264" lon="21.06947">
        <ele>111.854457</ele>
        <time>2020-10-08T02:24:53.312Z</time>
      </trkpt>
      <trkpt lat="52.51159" lon="21.06943">
        <ele>111.653678</ele>
        <time>2020-10-08T02:25:15.322Z</time>
      </trkpt>
      <trkpt lat="52.51117" lon="21.06939">
        <ele>111.573093</ele>
        <time>2020-10-08T02:25:25.069Z</time>
      </trkpt>
      <trkpt lat="52.51074" lon="21.06931">
        <ele>111.631415</ele>
        <time>2020-10-08T02:25:35.143Z</time>
      </trkpt>
      <trkpt lat="52.51063" lon="21.06926">
        <ele>111.66137</ele>
        <time>2020-10-08T02:25:37.730Z</time>
      </trkpt>
      <trkpt lat="52.51061" lon="21.06924">
        <ele>111.668509</ele>
        <time>2020-10-08T02:25:38.338Z</time>
      </trkpt>
      <trkpt lat="52.51057" lon="21.06923">
        <ele>111.677977</ele>
        <time>2020-10-08T02:25:39.135Z</time>
      </trkpt>
      <trkpt lat="52.51041" lon="21.06913">
        <ele>111.726719</ele>
        <time>2020-10-08T02:25:43.314Z</time>
      </trkpt>
      <trkpt lat="52.51035" lon="21.06908">
        <ele>111.743619</ele>
        <time>2020-10-08T02:25:44.755Z</time>
      </trkpt>
      <trkpt lat="52.51031" lon="21.06904">
        <ele>111.757589</ele>
        <time>2020-10-08T02:25:45.986Z</time>
      </trkpt>
      <trkpt lat="52.51018" lon="21.06891">
        <ele>111.798066</ele>
        <time>2020-10-08T02:25:49.448Z</time>
      </trkpt>
      <trkpt lat="52.51" lon="21.06873">
        <ele>111.855091</ele>
        <time>2020-10-08T02:25:54.368Z</time>
      </trkpt>
      <trkpt lat="52.50881" lon="21.06749">
        <ele>111.803684</ele>
        <time>2020-10-08T02:26:27.665Z</time>
      </trkpt>
      <trkpt lat="52.5084" lon="21.06706">
        <ele>111.647993</ele>
        <time>2020-10-08T02:26:37.800Z</time>
      </trkpt>
      <trkpt lat="52.50805" lon="21.06668">
        <ele>111.513468</ele>
        <time>2020-10-08T02:26:46.108Z</time>
      </trkpt>
      <trkpt lat="52.50805" lon="21.06651">
        <ele>111.480951</ele>
        <time>2020-10-08T02:26:48.684Z</time>
      </trkpt>
      <trkpt lat="52.50798" lon="21.06644">
        <ele>111.423304</ele>
        <time>2020-10-08T02:26:50.792Z</time>
      </trkpt>
      <trkpt lat="52.50757" lon="21.06598">
        <ele>110.560707</ele>
        <time>2020-10-08T02:27:03.528Z</time>
      </trkpt>
      <trkpt lat="52.50745" lon="21.06588">
        <ele>110.336888</ele>
        <time>2020-10-08T02:27:06.646Z</time>
      </trkpt>
      <trkpt lat="52.50719" lon="21.0656">
        <ele>109.8063</ele>
        <time>2020-10-08T02:27:14.254Z</time>
      </trkpt>
      <trkpt lat="52.50712" lon="21.06559">
        <ele>109.685896</ele>
        <time>2020-10-08T02:27:15.934Z</time>
      </trkpt>
      <trkpt lat="52.50624" lon="21.06458">
        <ele>107.953575</ele>
        <time>2020-10-08T02:27:41.630Z</time>
      </trkpt>
      <trkpt lat="52.50599" lon="21.06433">
        <ele>107.545085</ele>
        <time>2020-10-08T02:27:48.917Z</time>
      </trkpt>
      <trkpt lat="52.50447" lon="21.06272">
        <ele>105.382723</ele>
        <time>2020-10-08T02:28:35.873Z</time>
      </trkpt>
      <trkpt lat="52.50389" lon="21.0621">
        <ele>104.820119</ele>
        <time>2020-10-08T02:28:54.426Z</time>
      </trkpt>
      <trkpt lat="52.50304" lon="21.06122">
        <ele>104.135392</ele>
        <time>2020-10-08T02:29:21.875Z</time>
      </trkpt>
      <trkpt lat="52.50145" lon="21.05952">
        <ele>103.398812</ele>
        <time>2020-10-08T02:30:13.888Z</time>
      </trkpt>
      <trkpt lat="52.50119" lon="21.05922">
        <ele>103.380496</ele>
        <time>2020-10-08T02:30:23.354Z</time>
      </trkpt>
      <trkpt lat="52.50091" lon="21.05895">
        <ele>103.362142</ele>
        <time>2020-10-08T02:30:33.170Z</time>
      </trkpt>
      <trkpt lat="52.50078" lon="21.05882">
        <ele>103.353426</ele>
        <time>2020-10-08T02:30:37.723Z</time>
      </trkpt>
      <trkpt lat="52.50023" lon="21.05823">
        <ele>103.37796</ele>
        <time>2020-10-08T02:30:57.557Z</time>
      </trkpt>
      <trkpt lat="52.49995" lon="21.05793">
        <ele>103.438791</ele>
        <time>2020-10-08T02:31:07.852Z</time>
      </trkpt>
      <trkpt lat="52.49971" lon="21.05767">
        <ele>103.488693</ele>
        <time>2020-10-08T02:31:16.444Z</time>
      </trkpt>
      <trkpt lat="52.49824" lon="21.05615">
        <ele>103.625533</ele>
        <time>2020-10-08T02:32:08.016Z</time>
      </trkpt>
      <trkpt lat="52.4967" lon="21.05451">
        <ele>103.961518</ele>
        <time>2020-10-08T02:33:00.801Z</time>
      </trkpt>
      <trkpt lat="52.49608" lon="21.05386">
        <ele>104.276607</ele>
        <time>2020-10-08T02:33:24.453Z</time>
      </trkpt>
      <trkpt lat="52.49489" lon="21.05262">
        <ele>105.96658</ele>
        <time>2020-10-08T02:34:13.731Z</time>
      </trkpt>
      <trkpt lat="52.49423" lon="21.0519">
        <ele>106.783231</ele>
        <time>2020-10-08T02:34:41.473Z</time>
      </trkpt>
      <trkpt lat="52.4942" lon="21.05197">
        <ele>106.793221</ele>
        <time>2020-10-08T02:34:43.449Z</time>
      </trkpt>
      <trkpt lat="52.49416" lon="21.05192">
        <ele>106.802592</ele>
        <time>2020-10-08T02:34:45.409Z</time>
      </trkpt>
      <trkpt lat="52.4941" lon="21.05173">
        <ele>106.826045</ele>
        <time>2020-10-08T02:34:49.633Z</time>
      </trkpt>
      <trkpt lat="52.49411" lon="21.05149">
        <ele>106.852013</ele>
        <time>2020-10-08T02:34:54.269Z</time>
      </trkpt>
      <trkpt lat="52.49409" lon="21.05133">
        <ele>106.869789</ele>
        <time>2020-10-08T02:34:57.836Z</time>
      </trkpt>
      <trkpt lat="52.49408" lon="21.05122">
        <ele>106.881997</ele>
        <time>2020-10-08T02:34:59.349Z</time>
      </trkpt>
      <trkpt lat="52.49406" lon="21.05112">
        <ele>106.893368</ele>
        <time>2020-10-08T02:35:00.908Z</time>
      </trkpt>
      <trkpt lat="52.49401" lon="21.05098">
        <ele>106.911096</ele>
        <time>2020-10-08T02:35:03.127Z</time>
      </trkpt>
      <trkpt lat="52.49377" lon="21.05012">
        <ele>107.014207</ele>
        <time>2020-10-08T02:35:15.668Z</time>
      </trkpt>
      <trkpt lat="52.49372" lon="21.04995">
        <ele>107.033694</ele>
        <time>2020-10-08T02:35:17.641Z</time>
      </trkpt>
      <trkpt lat="52.49344" lon="21.04891">
        <ele>106.418893</ele>
        <time>2020-10-08T02:35:30.785Z</time>
      </trkpt>
      <trkpt lat="52.49333" lon="21.0485">
        <ele>106.059384</ele>
        <time>2020-10-08T02:35:35.726Z</time>
      </trkpt>
      <trkpt lat="52.49323" lon="21.04786">
        <ele>105.530631</ele>
        <time>2020-10-08T02:35:43.076Z</time>
      </trkpt>
      <trkpt lat="52.49323" lon="21.0478">
        <ele>105.474995</ele>
        <time>2020-10-08T02:35:43.742Z</time>
      </trkpt>
      <trkpt lat="52.49322" lon="21.04766">
        <ele>105.365326</ele>
        <time>2020-10-08T02:35:45.235Z</time>
      </trkpt>
      <trkpt lat="52.49326" lon="21.04699">
        <ele>104.823788</ele>
        <time>2020-10-08T02:35:52.875Z</time>
      </trkpt>
      <trkpt lat="52.49335" lon="21.0465">
        <ele>104.691132</ele>
        <time>2020-10-08T02:35:58.745Z</time>
      </trkpt>
      <trkpt lat="52.49347" lon="21.04593">
        <ele>104.686171</ele>
        <time>2020-10-08T02:36:06.010Z</time>
      </trkpt>
      <trkpt lat="52.49171" lon="21.04492">
        <ele>105.319969</ele>
        <time>2020-10-08T02:36:51.294Z</time>
      </trkpt>
      <trkpt lat="52.49123" lon="21.04721">
        <ele>106.813631</ele>
        <time>2020-10-08T02:37:32.086Z</time>
      </trkpt>
      <trkpt lat="52.49118" lon="21.04739">
        <ele>106.932344</ele>
        <time>2020-10-08T02:37:35.332Z</time>
      </trkpt>
      <trkpt lat="52.4911" lon="21.04757">
        <ele>107.07653</ele>
        <time>2020-10-08T02:37:39.408Z</time>
      </trkpt>
      <trkpt lat="52.49101" lon="21.04769">
        <ele>107.191622</ele>
        <time>2020-10-08T02:37:42.105Z</time>
      </trkpt>
      <trkpt lat="52.49091" lon="21.04777">
        <ele>107.300568</ele>
        <time>2020-10-08T02:37:45.145Z</time>
      </trkpt>
      <trkpt lat="52.49082" lon="21.04781">
        <ele>107.392653</ele>
        <time>2020-10-08T02:37:47.872Z</time>
      </trkpt>
      <trkpt lat="52.49066" lon="21.0478">
        <ele>107.558685</ele>
        <time>2020-10-08T02:37:51.908Z</time>
      </trkpt>
      <trkpt lat="52.49046" lon="21.04769">
        <ele>107.770214</ele>
        <time>2020-10-08T02:37:57.939Z</time>
      </trkpt>
      <trkpt lat="52.4902" lon="21.04741">
        <ele>108.084576</ele>
        <time>2020-10-08T02:38:06.235Z</time>
      </trkpt>
      <trkpt lat="52.48994" lon="21.04712">
        <ele>108.219693</ele>
        <time>2020-10-08T02:38:14.038Z</time>
      </trkpt>
      <trkpt lat="52.48986" lon="21.04704">
        <ele>108.13915</ele>
        <time>2020-10-08T02:38:16.612Z</time>
      </trkpt>
      <trkpt lat="52.48941" lon="21.04657">
        <ele>107.68906</ele>
        <time>2020-10-08T02:38:27.156Z</time>
      </trkpt>
      <trkpt lat="52.48889" lon="21.04601">
        <ele>107.159634</ele>
        <time>2020-10-08T02:38:38.783Z</time>
      </trkpt>
      <trkpt lat="52.48856" lon="21.04566">
        <ele>106.826044</ele>
        <time>2020-10-08T02:38:46.019Z</time>
      </trkpt>
      <trkpt lat="52.48837" lon="21.04548">
        <ele>106.508996</ele>
        <time>2020-10-08T02:38:50.080Z</time>
      </trkpt>
      <trkpt lat="52.4883" lon="21.04545">
        <ele>106.40107</ele>
        <time>2020-10-08T02:38:51.240Z</time>
      </trkpt>
      <trkpt lat="52.48756" lon="21.0449">
        <ele>105.064613</ele>
        <time>2020-10-08T02:39:05.870Z</time>
      </trkpt>
      <trkpt lat="52.48744" lon="21.04479">
        <ele>104.842985</ele>
        <time>2020-10-08T02:39:08.228Z</time>
      </trkpt>
      <trkpt lat="52.48731" lon="21.04467">
        <ele>104.591687</ele>
        <time>2020-10-08T02:39:10.892Z</time>
      </trkpt>
      <trkpt lat="52.48688" lon="21.04423">
        <ele>103.798445</ele>
        <time>2020-10-08T02:39:20.040Z</time>
      </trkpt>
      <trkpt lat="52.48675" lon="21.0441">
        <ele>103.662804</ele>
        <time>2020-10-08T02:39:23.128Z</time>
      </trkpt>
      <trkpt lat="52.48667" lon="21.04402">
        <ele>103.584637</ele>
        <time>2020-10-08T02:39:24.795Z</time>
      </trkpt>
      <trkpt lat="52.48577" lon="21.04306">
        <ele>102.630755</ele>
        <time>2020-10-08T02:39:45.953Z</time>
      </trkpt>
      <trkpt lat="52.48569" lon="21.04297">
        <ele>102.548027</ele>
        <time>2020-10-08T02:39:47.745Z</time>
      </trkpt>
      <trkpt lat="52.48559" lon="21.04286">
        <ele>102.444761</ele>
        <time>2020-10-08T02:39:50.199Z</time>
      </trkpt>
      <trkpt lat="52.48537" lon="21.04262">
        <ele>102.239964</ele>
        <time>2020-10-08T02:39:55.755Z</time>
      </trkpt>
      <trkpt lat="52.48524" lon="21.04246">
        <ele>102.237987</ele>
        <time>2020-10-08T02:39:59.090Z</time>
      </trkpt>
      <trkpt lat="52.485" lon="21.04219">
        <ele>102.234308</ele>
        <time>2020-10-08T02:40:05.384Z</time>
      </trkpt>
      <trkpt lat="52.48474" lon="21.04192">
        <ele>102.230343</ele>
        <time>2020-10-08T02:40:12.263Z</time>
      </trkpt>
      <trkpt lat="52.48435" lon="21.0413">
        <ele>102.223547</ele>
        <time>2020-10-08T02:40:24.395Z</time>
      </trkpt>
      <trkpt lat="52.48429" lon="21.04122">
        <ele>102.222619</ele>
        <time>2020-10-08T02:40:26.207Z</time>
      </trkpt>
      <trkpt lat="52.48422" lon="21.0412">
        <ele>102.221712</ele>
        <time>2020-10-08T02:40:27.999Z</time>
      </trkpt>
      <trkpt lat="52.47778" lon="21.03451">
        <ele>104.770489</ele>
        <time>2020-10-08T02:43:28.588Z</time>
      </trkpt>
      <trkpt lat="52.4775" lon="21.03422">
        <ele>104.814406</ele>
        <time>2020-10-08T02:43:36.201Z</time>
      </trkpt>
      <trkpt lat="52.47707" lon="21.03375">
        <ele>104.886398</ele>
        <time>2020-10-08T02:43:48.461Z</time>
      </trkpt>
      <trkpt lat="52.47682" lon="21.0335">
        <ele>104.926376</ele>
        <time>2020-10-08T02:43:55.024Z</time>
      </trkpt>
      <trkpt lat="52.47588" lon="21.03259">
        <ele>104.892397</ele>
        <time>2020-10-08T02:44:18.761Z</time>
      </trkpt>
      <trkpt lat="52.47565" lon="21.03233">
        <ele>104.838189</ele>
        <time>2020-10-08T02:44:24.812Z</time>
      </trkpt>
      <trkpt lat="52.47569" lon="21.03223">
        <ele>104.823659</ele>
        <time>2020-10-08T02:44:26.375Z</time>
      </trkpt>
      <trkpt lat="52.47594" lon="21.02934">
        <ele>104.526182</ele>
        <time>2020-10-08T02:45:06.157Z</time>
      </trkpt>
      <trkpt lat="52.47604" lon="21.02883">
        <ele>104.481388</ele>
        <time>2020-10-08T02:45:13.659Z</time>
      </trkpt>
      <trkpt lat="52.47611" lon="21.02854">
        <ele>104.454776</ele>
        <time>2020-10-08T02:45:18.119Z</time>
      </trkpt>
      <trkpt lat="52.47649" lon="21.02781">
        <ele>104.388</ele>
        <time>2020-10-08T02:45:31.583Z</time>
      </trkpt>
      <trkpt lat="52.47679" lon="21.02698">
        <ele>104.350874</ele>
        <time>2020-10-08T02:45:45.297Z</time>
      </trkpt>
      <trkpt lat="52.47683" lon="21.02664">
        <ele>104.33725</ele>
        <time>2020-10-08T02:45:50.341Z</time>
      </trkpt>
      <trkpt lat="52.47684" lon="21.02629">
        <ele>104.323948</ele>
        <time>2020-10-08T02:45:55.249Z</time>
      </trkpt>
      <trkpt lat="52.47687" lon="21.0255">
        <ele>104.293028</ele>
        <time>2020-10-08T02:46:06.361Z</time>
      </trkpt>
      <trkpt lat="52.47688" lon="21.02531">
        <ele>104.285699</ele>
        <time>2020-10-08T02:46:08.943Z</time>
      </trkpt>
      <trkpt lat="52.47688" lon="21.02511">
        <ele>104.201995</ele>
        <time>2020-10-08T02:46:11.620Z</time>
      </trkpt>
      <trkpt lat="52.47691" lon="21.02448">
        <ele>103.93331</ele>
        <time>2020-10-08T02:46:19.983Z</time>
      </trkpt>
      <trkpt lat="52.47707" lon="21.0235">
        <ele>103.503274</ele>
        <time>2020-10-08T02:46:32.941Z</time>
      </trkpt>
      <trkpt lat="52.47755" lon="21.02113">
        <ele>102.189994</ele>
        <time>2020-10-08T02:47:03.829Z</time>
      </trkpt>
      <trkpt lat="52.47766" lon="21.02052">
        <ele>101.804751</ele>
        <time>2020-10-08T02:47:11.613Z</time>
      </trkpt>
      <trkpt lat="52.47782" lon="21.01991">
        <ele>101.405935</ele>
        <time>2020-10-08T02:47:19.681Z</time>
      </trkpt>
      <trkpt lat="52.47793" lon="21.01949">
        <ele>101.169636</ele>
        <time>2020-10-08T02:47:25.268Z</time>
      </trkpt>
      <trkpt lat="52.47809" lon="21.01886">
        <ele>100.899885</ele>
        <time>2020-10-08T02:47:33.851Z</time>
      </trkpt>
      <trkpt lat="52.4782" lon="21.01843">
        <ele>100.717989</ele>
        <time>2020-10-08T02:47:39.835Z</time>
      </trkpt>
      <trkpt lat="52.47849" lon="21.01717">
        <ele>100.190085</ele>
        <time>2020-10-08T02:47:57.714Z</time>
      </trkpt>
      <trkpt lat="52.47872" lon="21.01621">
        <ele>99.693163</ele>
        <time>2020-10-08T02:48:11.466Z</time>
      </trkpt>
      <trkpt lat="52.47887" lon="21.0155">
        <ele>99.310812</ele>
        <time>2020-10-08T02:48:20.864Z</time>
      </trkpt>
      <trkpt lat="52.47932" lon="21.01337">
        <ele>98.071449</ele>
        <time>2020-10-08T02:48:48.661Z</time>
      </trkpt>
      <trkpt lat="52.47934" lon="21.01328">
        <ele>98.013421</ele>
        <time>2020-10-08T02:48:49.616Z</time>
      </trkpt>
      <trkpt lat="52.47973" lon="21.01147">
        <ele>96.835935</ele>
        <time>2020-10-08T02:49:12.875Z</time>
      </trkpt>
      <trkpt lat="52.47976" lon="21.01125">
        <ele>96.789475</ele>
        <time>2020-10-08T02:49:15.992Z</time>
      </trkpt>
      <trkpt lat="52.47913" lon="21.01202">
        <ele>97.119919</ele>
        <time>2020-10-08T02:49:34.196Z</time>
      </trkpt>
      <trkpt lat="52.47687" lon="21.01497">
        <ele>99.408097</ele>
        <time>2020-10-08T02:50:53.295Z</time>
      </trkpt>
      <trkpt lat="52.47638" lon="21.01561">
        <ele>99.659465</ele>
        <time>2020-10-08T02:51:09.167Z</time>
      </trkpt>
      <trkpt lat="52.47589" lon="21.01628">
        <ele>99.913128</ele>
        <time>2020-10-08T02:51:24.552Z</time>
      </trkpt>
      <trkpt lat="52.47543" lon="21.01682">
        <ele>100.101337</ele>
        <time>2020-10-08T02:51:45.664Z</time>
      </trkpt>
      <trkpt lat="52.47223" lon="21.02063">
        <ele>100.96143</ele>
        <time>2020-10-08T02:54:15.394Z</time>
      </trkpt>
      <trkpt lat="52.47066" lon="21.02234">
        <ele>101.720739</ele>
        <time>2020-10-08T02:55:29.567Z</time>
      </trkpt>
      <trkpt lat="52.47045" lon="21.02267">
        <ele>101.808914</ele>
        <time>2020-10-08T02:55:36.840Z</time>
      </trkpt>
      <trkpt lat="52.46968" lon="21.02623">
        <ele>102.090627</ele>
        <time>2020-10-08T02:56:31.110Z</time>
      </trkpt>
      <trkpt lat="52.46964" lon="21.02632">
        <ele>102.091228</ele>
        <time>2020-10-08T02:56:32.768Z</time>
      </trkpt>
      <trkpt lat="52.46848" lon="21.02711">
        <ele>101.754809</ele>
        <time>2020-10-08T02:57:00.545Z</time>
      </trkpt>
      <trkpt lat="52.4673" lon="21.02807">
        <ele>101.228407</ele>
        <time>2020-10-08T02:57:28.821Z</time>
      </trkpt>
      <trkpt lat="52.46653" lon="21.0288">
        <ele>100.816588</ele>
        <time>2020-10-08T02:57:47.939Z</time>
      </trkpt>
      <trkpt lat="52.46645" lon="21.02886">
        <ele>100.777706</ele>
        <time>2020-10-08T02:57:49.784Z</time>
      </trkpt>
      <trkpt lat="52.46639" lon="21.02882">
        <ele>100.747463</ele>
        <time>2020-10-08T02:57:51.340Z</time>
      </trkpt>
      <trkpt lat="52.46622" lon="21.02862">
        <ele>100.648729</ele>
        <time>2020-10-08T02:57:55.901Z</time>
      </trkpt>
      <trkpt lat="52.46614" lon="21.02849">
        <ele>100.600112</ele>
        <time>2020-10-08T02:57:58.442Z</time>
      </trkpt>
      <trkpt lat="52.46604" lon="21.02832">
        <ele>100.555031</ele>
        <time>2020-10-08T02:58:02.527Z</time>
      </trkpt>
      <trkpt lat="52.46589" lon="21.02799">
        <ele>100.479758</ele>
        <time>2020-10-08T02:58:09.536Z</time>
      </trkpt>
      <trkpt lat="52.46578" lon="21.02755">
        <ele>100.388912</ele>
        <time>2020-10-08T02:58:17.822Z</time>
      </trkpt>
      <trkpt lat="52.46572" lon="21.02731">
        <ele>100.34077</ele>
        <time>2020-10-08T02:58:22.346Z</time>
      </trkpt>
      <trkpt lat="52.46563" lon="21.0266">
        <ele>100.203948</ele>
        <time>2020-10-08T02:58:35.035Z</time>
      </trkpt>
      <trkpt lat="52.46554" lon="21.0248">
        <ele>99.087582</ele>
        <time>2020-10-08T02:59:05.605Z</time>
      </trkpt>
      <trkpt lat="52.46546" lon="21.02412">
        <ele>98.413274</ele>
        <time>2020-10-08T02:59:16.670Z</time>
      </trkpt>
      <trkpt lat="52.46535" lon="21.0236">
        <ele>97.873631</ele>
        <time>2020-10-08T02:59:24.734Z</time>
      </trkpt>
      <trkpt lat="52.46516" lon="21.02303">
        <ele>97.236372</ele>
        <time>2020-10-08T02:59:33.828Z</time>
      </trkpt>
      <trkpt lat="52.46476" lon="21.02226">
        <ele>94.563349</ele>
        <time>2020-10-08T02:59:47.513Z</time>
      </trkpt>
      <trkpt lat="52.46474" lon="21.02224">
        <ele>94.482847</ele>
        <time>2020-10-08T02:59:47.880Z</time>
      </trkpt>
      <trkpt lat="52.46456" lon="21.022">
        <ele>93.425941</ele>
        <time>2020-10-08T02:59:52.777Z</time>
      </trkpt>
      <trkpt lat="52.46433" lon="21.02176">
        <ele>92.188395</ele>
        <time>2020-10-08T02:59:58.497Z</time>
      </trkpt>
      <trkpt lat="52.46291" lon="21.02085">
        <ele>85.598625</ele>
        <time>2020-10-08T03:00:29.808Z</time>
      </trkpt>
      <trkpt lat="52.46022" lon="21.01888">
        <ele>75.949552</ele>
        <time>2020-10-08T03:01:36.235Z</time>
      </trkpt>
      <trkpt lat="52.46016" lon="21.01884">
        <ele>75.885039</ele>
        <time>2020-10-08T03:01:37.920Z</time>
      </trkpt>
      <trkpt lat="52.45999" lon="21.01873">
        <ele>75.710779</ele>
        <time>2020-10-08T03:01:42.497Z</time>
      </trkpt>
      <trkpt lat="52.45924" lon="21.01824">
        <ele>74.923646</ele>
        <time>2020-10-08T03:02:04.091Z</time>
      </trkpt>
      <trkpt lat="52.45884" lon="21.01796">
        <ele>74.510377</ele>
        <time>2020-10-08T03:02:16.388Z</time>
      </trkpt>
      <trkpt lat="52.45602" lon="21.01601">
        <ele>75.789096</ele>
        <time>2020-10-08T03:03:30.627Z</time>
      </trkpt>
      <trkpt lat="52.45545" lon="21.01556">
        <ele>76.147143</ele>
        <time>2020-10-08T03:03:46.467Z</time>
      </trkpt>
      <trkpt lat="52.45522" lon="21.01533">
        <ele>76.273471</ele>
        <time>2020-10-08T03:03:53.259Z</time>
      </trkpt>
      <trkpt lat="52.45497" lon="21.015">
        <ele>76.417127</ele>
        <time>2020-10-08T03:04:01.283Z</time>
      </trkpt>
      <trkpt lat="52.45471" lon="21.01459">
        <ele>76.574661</ele>
        <time>2020-10-08T03:04:10.135Z</time>
      </trkpt>
      <trkpt lat="52.4547" lon="21.01447">
        <ele>76.60764</ele>
        <time>2020-10-08T03:04:12.064Z</time>
      </trkpt>
      <trkpt lat="52.45462" lon="21.01436">
        <ele>76.651393</ele>
        <time>2020-10-08T03:04:14.485Z</time>
      </trkpt>
      <trkpt lat="52.45459" lon="21.01441">
        <ele>76.671545</ele>
        <time>2020-10-08T03:04:15.615Z</time>
      </trkpt>
      <trkpt lat="52.45454" lon="21.01447">
        <ele>76.697504</ele>
        <time>2020-10-08T03:04:17.073Z</time>
      </trkpt>
      <trkpt lat="52.4535" lon="21.01229">
        <ele>76.892416</ele>
        <time>2020-10-08T03:04:55.278Z</time>
      </trkpt>
      <trkpt lat="52.45343" lon="21.01215">
        <ele>76.884529</ele>
        <time>2020-10-08T03:04:57.712Z</time>
      </trkpt>
      <trkpt lat="52.4529" lon="21.01099">
        <ele>76.806705</ele>
        <time>2020-10-08T03:05:16.214Z</time>
      </trkpt>
      <trkpt lat="52.45283" lon="21.01108">
        <ele>76.796098</ele>
        <time>2020-10-08T03:05:21.924Z</time>
      </trkpt>
      <trkpt lat="52.45277" lon="21.01117">
        <ele>76.7852</ele>
        <time>2020-10-08T03:05:27.846Z</time>
      </trkpt>
      <trkpt lat="52.4526" lon="21.01092">
        <ele>76.756847</ele>
        <time>2020-10-08T03:05:33.894Z</time>
      </trkpt>
      <trkpt lat="52.45119" lon="21.00915">
        <ele>76.851577</ele>
        <time>2020-10-08T03:06:26.450Z</time>
      </trkpt>
      <trkpt lat="52.45104" lon="21.00909">
        <ele>76.909346</ele>
        <time>2020-10-08T03:06:31.128Z</time>
      </trkpt>
      <trkpt lat="52.45096" lon="21.00901">
        <ele>76.942447</ele>
        <time>2020-10-08T03:06:33.941Z</time>
      </trkpt>
      <trkpt lat="52.45088" lon="21.00891">
        <ele>76.980856</ele>
        <time>2020-10-08T03:06:37.281Z</time>
      </trkpt>
      <trkpt lat="52.45084" lon="21.00873">
        <ele>77.025751</ele>
        <time>2020-10-08T03:06:40.937Z</time>
      </trkpt>
      <trkpt lat="52.4503" lon="21.00806">
        <ele>77.278469</ele>
        <time>2020-10-08T03:07:02.353Z</time>
      </trkpt>
      <trkpt lat="52.44919" lon="21.00665">
        <ele>77.692361</ele>
        <time>2020-10-08T03:07:46.424Z</time>
      </trkpt>
      <trkpt lat="52.44896" lon="21.00638">
        <ele>77.773246</ele>
        <time>2020-10-08T03:07:54.529Z</time>
      </trkpt>
      <trkpt lat="52.44726" lon="21.0043">
        <ele>76.885253</ele>
        <time>2020-10-08T03:08:52.940Z</time>
      </trkpt>
      <trkpt lat="52.44697" lon="21.00395">
        <ele>76.700404</ele>
        <time>2020-10-08T03:09:02.539Z</time>
      </trkpt>
      <trkpt lat="52.44689" lon="21.00387">
        <ele>76.647007</ele>
        <time>2020-10-08T03:09:06.133Z</time>
      </trkpt>
      <trkpt lat="52.44648" lon="21.00334">
        <ele>76.378623</ele>
        <time>2020-10-08T03:09:24.185Z</time>
      </trkpt>
      <trkpt lat="52.44616" lon="21.00337">
        <ele>76.20774</ele>
        <time>2020-10-08T03:09:35.781Z</time>
      </trkpt>
      <trkpt lat="52.44576" lon="21.00352">
        <ele>76.024376</ele>
        <time>2020-10-08T03:09:50.373Z</time>
      </trkpt>
      <trkpt lat="52.44519" lon="21.00389">
        <ele>75.890479</ele>
        <time>2020-10-08T03:10:12.402Z</time>
      </trkpt>
      <trkpt lat="52.44472" lon="21.00436">
        <ele>75.771009</ele>
        <time>2020-10-08T03:10:32.262Z</time>
      </trkpt>
      <trkpt lat="52.44441" lon="21.00478">
        <ele>75.683031</ele>
        <time>2020-10-08T03:10:47.024Z</time>
      </trkpt>
      <trkpt lat="52.44413" lon="21.00517">
        <ele>75.701498</ele>
        <time>2020-10-08T03:11:00.378Z</time>
      </trkpt>
      <trkpt lat="52.44398" lon="21.00509">
        <ele>75.734355</ele>
        <time>2020-10-08T03:11:06.391Z</time>
      </trkpt>
      <trkpt lat="52.44344" lon="21.00712">
        <ele>76.012819</ele>
        <time>2020-10-08T03:11:37.899Z</time>
      </trkpt>
      <trkpt lat="52.44295" lon="21.00893">
        <ele>76.727175</ele>
        <time>2020-10-08T03:12:07.862Z</time>
      </trkpt>
      <trkpt lat="52.44232" lon="21.01096">
        <ele>77.344769</ele>
        <time>2020-10-08T03:12:42.287Z</time>
      </trkpt>
      <trkpt lat="52.4423" lon="21.01102">
        <ele>77.35837</ele>
        <time>2020-10-08T03:12:43.731Z</time>
      </trkpt>
      <trkpt lat="52.44098" lon="21.01488">
        <ele>77.591516</ele>
        <time>2020-10-08T03:13:43.604Z</time>
      </trkpt>
      <trkpt lat="52.44027" lon="21.01696">
        <ele>77.580873</ele>
        <time>2020-10-08T03:14:15.733Z</time>
      </trkpt>
      <trkpt lat="52.43987" lon="21.01794">
        <ele>77.593529</ele>
        <time>2020-10-08T03:14:31.984Z</time>
      </trkpt>
      <trkpt lat="52.43949" lon="21.01868">
        <ele>77.627829</ele>
        <time>2020-10-08T03:14:45.511Z</time>
      </trkpt>
      <trkpt lat="52.43905" lon="21.01938">
        <ele>77.663344</ele>
        <time>2020-10-08T03:14:59.369Z</time>
      </trkpt>
      <trkpt lat="52.43862" lon="21.01991">
        <ele>77.635342</ele>
        <time>2020-10-08T03:15:11.365Z</time>
      </trkpt>
      <trkpt lat="52.43836" lon="21.01986">
        <ele>77.572762</ele>
        <time>2020-10-08T03:15:17.148Z</time>
      </trkpt>
      <trkpt lat="52.43707" lon="21.02128">
        <ele>77.160734</ele>
        <time>2020-10-08T03:15:49.909Z</time>
      </trkpt>
      <trkpt lat="52.43681" lon="21.02147">
        <ele>77.033809</ele>
        <time>2020-10-08T03:15:55.755Z</time>
      </trkpt>
      <trkpt lat="52.43654" lon="21.02179">
        <ele>76.888282</ele>
        <time>2020-10-08T03:16:02.537Z</time>
      </trkpt>
      <trkpt lat="52.43618" lon="21.02224">
        <ele>76.689167</ele>
        <time>2020-10-08T03:16:11.890Z</time>
      </trkpt>
      <trkpt lat="52.4357" lon="21.02279">
        <ele>76.442733</ele>
        <time>2020-10-08T03:16:24.566Z</time>
      </trkpt>
      <trkpt lat="52.43524" lon="21.02332">
        <ele>76.284245</ele>
        <time>2020-10-08T03:16:36.853Z</time>
      </trkpt>
      <trkpt lat="52.43483" lon="21.02378">
        <ele>76.145521</ele>
        <time>2020-10-08T03:16:47.789Z</time>
      </trkpt>
      <trkpt lat="52.4344" lon="21.02433">
        <ele>75.992896</ele>
        <time>2020-10-08T03:17:00.372Z</time>
      </trkpt>
      <trkpt lat="52.43435" lon="21.02438">
        <ele>75.974409</ele>
        <time>2020-10-08T03:17:01.907Z</time>
      </trkpt>
      <trkpt lat="52.4336" lon="21.0256">
        <ele>75.702266</ele>
        <time>2020-10-08T03:17:25.417Z</time>
      </trkpt>
      <trkpt lat="52.43312" lon="21.02653">
        <ele>75.510846</ele>
        <time>2020-10-08T03:17:41.702Z</time>
      </trkpt>
      <trkpt lat="52.43282" lon="21.02739">
        <ele>75.420308</ele>
        <time>2020-10-08T03:17:55.025Z</time>
      </trkpt>
      <trkpt lat="52.43247" lon="21.02839">
        <ele>75.324401</ele>
        <time>2020-10-08T03:18:10.064Z</time>
      </trkpt>
      <trkpt lat="52.43203" lon="21.02982">
        <ele>75.451062</ele>
        <time>2020-10-08T03:18:32.546Z</time>
      </trkpt>
      <trkpt lat="52.43177" lon="21.0307">
        <ele>75.740421</ele>
        <time>2020-10-08T03:18:47.028Z</time>
      </trkpt>
      <trkpt lat="52.43173" lon="21.0308">
        <ele>75.773684</ele>
        <time>2020-10-08T03:18:48.747Z</time>
      </trkpt>
      <trkpt lat="52.43171" lon="21.03079">
        <ele>75.784878</ele>
        <time>2020-10-08T03:18:49.414Z</time>
      </trkpt>
      <trkpt lat="52.43094" lon="21.03064">
        <ele>76.154746</ele>
        <time>2020-10-08T03:19:08.592Z</time>
      </trkpt>
      <trkpt lat="52.43067" lon="21.03057">
        <ele>76.274615</ele>
        <time>2020-10-08T03:19:15.220Z</time>
      </trkpt>
      <trkpt lat="52.43062" lon="21.03056">
        <ele>76.300334</ele>
        <time>2020-10-08T03:19:16.749Z</time>
      </trkpt>
      <trkpt lat="52.43055" lon="21.03055">
        <ele>76.328269</ele>
        <time>2020-10-08T03:19:18.255Z</time>
      </trkpt>
      <trkpt lat="52.43053" lon="21.03079">
        <ele>76.392923</ele>
        <time>2020-10-08T03:19:22.044Z</time>
      </trkpt>
      <trkpt lat="52.43056" lon="21.03079">
        <ele>76.402636</ele>
        <time>2020-10-08T03:19:23.578Z</time>
      </trkpt>
      <trkpt lat="52.43053" lon="21.03113">
        <ele>76.494078</ele>
        <time>2020-10-08T03:19:28.896Z</time>
      </trkpt>
      <trkpt lat="52.43047" lon="21.03189">
        <ele>76.699592</ele>
        <time>2020-10-08T03:19:40.693Z</time>
      </trkpt>
      <trkpt lat="52.43046" lon="21.032">
        <ele>76.729716</ele>
        <time>2020-10-08T03:19:42.424Z</time>
      </trkpt>
      <trkpt lat="52.43044" lon="21.0323">
        <ele>76.81147</ele>
        <time>2020-10-08T03:19:46.941Z</time>
      </trkpt>
      <trkpt lat="52.43043" lon="21.03289">
        <ele>76.911973</ele>
        <time>2020-10-08T03:19:55.408Z</time>
      </trkpt>
      <trkpt lat="52.43043" lon="21.03305">
        <ele>76.914613</ele>
        <time>2020-10-08T03:19:57.426Z</time>
      </trkpt>
      <trkpt lat="52.4303" lon="21.03462">
        <ele>76.940953</ele>
        <time>2020-10-08T03:20:19.144Z</time>
      </trkpt>
      <trkpt lat="52.43024" lon="21.03469">
        <ele>76.943008</ele>
        <time>2020-10-08T03:20:20.542Z</time>
      </trkpt>
      <trkpt lat="52.42626" lon="21.03641">
        <ele>77.278548</ele>
        <time>2020-10-08T03:21:53.412Z</time>
      </trkpt>
      <trkpt lat="52.42605" lon="21.0365">
        <ele>77.378961</ele>
        <time>2020-10-08T03:21:58.741Z</time>
      </trkpt>
      <trkpt lat="52.42594" lon="21.03655">
        <ele>77.429331</ele>
        <time>2020-10-08T03:22:01.291Z</time>
      </trkpt>
      <trkpt lat="52.42474" lon="21.03713">
        <ele>78.006518</ele>
        <time>2020-10-08T03:22:31.904Z</time>
      </trkpt>
      <trkpt lat="52.42459" lon="21.03711">
        <ele>78.078636</ele>
        <time>2020-10-08T03:22:35.765Z</time>
      </trkpt>
      <trkpt lat="52.42427" lon="21.03679">
        <ele>78.15965</ele>
        <time>2020-10-08T03:22:44.868Z</time>
      </trkpt>
      <trkpt lat="52.4241" lon="21.03678">
        <ele>78.186339</ele>
        <time>2020-10-08T03:22:48.787Z</time>
      </trkpt>
      <trkpt lat="52.42351" lon="21.03714">
        <ele>78.290372</ele>
        <time>2020-10-08T03:23:03.445Z</time>
      </trkpt>
      <trkpt lat="52.42333" lon="21.03761">
        <ele>78.34539</ele>
        <time>2020-10-08T03:23:10.999Z</time>
      </trkpt>
      <trkpt lat="52.42322" lon="21.03768">
        <ele>78.365763</ele>
        <time>2020-10-08T03:23:13.884Z</time>
      </trkpt>
      <trkpt lat="52.42275" lon="21.03791">
        <ele>78.310079</ele>
        <time>2020-10-08T03:23:24.468Z</time>
      </trkpt>
      <trkpt lat="52.42087" lon="21.03869">
        <ele>77.689533</ele>
        <time>2020-10-08T03:24:04.535Z</time>
      </trkpt>
      <trkpt lat="52.42068" lon="21.03864">
        <ele>77.650412</ele>
        <time>2020-10-08T03:24:08.637Z</time>
      </trkpt>
      <trkpt lat="52.42063" lon="21.0383">
        <ele>77.605909</ele>
        <time>2020-10-08T03:24:13.253Z</time>
      </trkpt>
      <trkpt lat="52.42058" lon="21.03831">
        <ele>77.596198</ele>
        <time>2020-10-08T03:24:14.363Z</time>
      </trkpt>
      <trkpt lat="52.4206" lon="21.03857">
        <ele>77.563762</ele>
        <time>2020-10-08T03:24:17.851Z</time>
      </trkpt>
      <trkpt lat="52.4206" lon="21.03866">
        <ele>77.552642</ele>
        <time>2020-10-08T03:24:18.992Z</time>
      </trkpt>
      <trkpt lat="52.42057" lon="21.03866">
        <ele>77.546296</ele>
        <time>2020-10-08T03:24:19.683Z</time>
      </trkpt>
      <trkpt lat="52.42052" lon="21.03865">
        <ele>77.536653</ele>
        <time>2020-10-08T03:24:20.783Z</time>
      </trkpt>
      <trkpt lat="52.42043" lon="21.03871">
        <ele>77.51705</ele>
        <time>2020-10-08T03:24:22.947Z</time>
      </trkpt>
      <trkpt lat="52.42039" lon="21.03889">
        <ele>77.492587</ele>
        <time>2020-10-08T03:24:25.498Z</time>
      </trkpt>
      <trkpt lat="52.42031" lon="21.03897">
        <ele>77.47356</ele>
        <time>2020-10-08T03:24:27.469Z</time>
      </trkpt>
      <trkpt lat="52.41982" lon="21.03912">
        <ele>77.417469</ele>
        <time>2020-10-08T03:24:38.879Z</time>
      </trkpt>
      <trkpt lat="52.41813" lon="21.03933">
        <ele>77.554449</ele>
        <time>2020-10-08T03:25:17.242Z</time>
      </trkpt>
      <trkpt lat="52.41518" lon="21.03938">
        <ele>77.372077</ele>
        <time>2020-10-08T03:26:22.034Z</time>
      </trkpt>
      <trkpt lat="52.41297" lon="21.03961">
        <ele>77.172012</ele>
        <time>2020-10-08T03:27:10.348Z</time>
      </trkpt>
      <trkpt lat="52.41209" lon="21.03979">
        <ele>77.261094</ele>
        <time>2020-10-08T03:27:30.417Z</time>
      </trkpt>
      <trkpt lat="52.4097" lon="21.04085">
        <ele>77.787743</ele>
        <time>2020-10-08T03:28:27.428Z</time>
      </trkpt>
      <trkpt lat="52.40858" lon="21.0413">
        <ele>78.428333</ele>
        <time>2020-10-08T03:28:55.051Z</time>
      </trkpt>
      <trkpt lat="52.40701" lon="21.04201">
        <ele>79.84239</ele>
        <time>2020-10-08T03:29:37.617Z</time>
      </trkpt>
      <trkpt lat="52.40523" lon="21.04245">
        <ele>81.729332</ele>
        <time>2020-10-08T03:30:26.705Z</time>
      </trkpt>
      <trkpt lat="52.40482" lon="21.0425">
        <ele>82.070011</ele>
        <time>2020-10-08T03:30:37.452Z</time>
      </trkpt>
      <trkpt lat="52.40383" lon="21.04263">
        <ele>82.681098</ele>
        <time>2020-10-08T03:31:01.713Z</time>
      </trkpt>
      <trkpt lat="52.40309" lon="21.04267">
        <ele>82.467576</ele>
        <time>2020-10-08T03:31:17.986Z</time>
      </trkpt>
      <trkpt lat="52.40237" lon="21.04271">
        <ele>82.25726</ele>
        <time>2020-10-08T03:31:32.547Z</time>
      </trkpt>
      <trkpt lat="52.40142" lon="21.04263">
        <ele>81.502537</ele>
        <time>2020-10-08T03:31:51.109Z</time>
      </trkpt>
      <trkpt lat="52.40128" lon="21.04262">
        <ele>81.381699</ele>
        <time>2020-10-08T03:31:53.690Z</time>
      </trkpt>
      <trkpt lat="52.40067" lon="21.04249">
        <ele>80.834915</ele>
        <time>2020-10-08T03:32:05.745Z</time>
      </trkpt>
      <trkpt lat="52.39925" lon="21.04218">
        <ele>79.918675</ele>
        <time>2020-10-08T03:32:34.236Z</time>
      </trkpt>
      <trkpt lat="52.3973" lon="21.04149">
        <ele>79.238332</ele>
        <time>2020-10-08T03:33:16.605Z</time>
      </trkpt>
      <trkpt lat="52.39697" lon="21.04132">
        <ele>79.158151</ele>
        <time>2020-10-08T03:33:24.105Z</time>
      </trkpt>
      <trkpt lat="52.39652" lon="21.04112">
        <ele>79.088321</ele>
        <time>2020-10-08T03:33:34.350Z</time>
      </trkpt>
      <trkpt lat="52.39534" lon="21.04047">
        <ele>78.922631</ele>
        <time>2020-10-08T03:34:01.643Z</time>
      </trkpt>
      <trkpt lat="52.39407" lon="21.03963">
        <ele>78.873031</ele>
        <time>2020-10-08T03:34:31.625Z</time>
      </trkpt>
      <trkpt lat="52.39401" lon="21.03958">
        <ele>78.871379</ele>
        <time>2020-10-08T03:34:34.207Z</time>
      </trkpt>
      <trkpt lat="52.39305" lon="21.03886">
        <ele>78.942337</ele>
        <time>2020-10-08T03:35:13.574Z</time>
      </trkpt>
      <trkpt lat="52.39006" lon="21.03723">
        <ele>79.493549</ele>
        <time>2020-10-08T03:37:12.987Z</time>
      </trkpt>
      <trkpt lat="52.38349" lon="21.0359">
        <ele>80.432642</ele>
        <time>2020-10-08T03:41:22.910Z</time>
      </trkpt>
      <trkpt lat="52.38198" lon="21.03563">
        <ele>80.30787</ele>
        <time>2020-10-08T03:42:17.871Z</time>
      </trkpt>
      <trkpt lat="52.37865" lon="21.03504">
        <ele>80.215074</ele>
        <time>2020-10-08T03:44:21.933Z</time>
      </trkpt>
      <trkpt lat="52.37573" lon="21.03438">
        <ele>80.323142</ele>
        <time>2020-10-08T03:46:11.410Z</time>
      </trkpt>
      <trkpt lat="52.37543" lon="21.03429">
        <ele>80.376439</ele>
        <time>2020-10-08T03:46:23.071Z</time>
      </trkpt>
      <trkpt lat="52.36623" lon="21.03261">
        <ele>81.867463</ele>
        <time>2020-10-08T03:52:13.366Z</time>
      </trkpt>
      <trkpt lat="52.36552" lon="21.03258">
        <ele>81.866349</ele>
        <time>2020-10-08T03:52:39.299Z</time>
      </trkpt>
      <trkpt lat="52.35798" lon="21.03318">
        <ele>79.810439</ele>
        <time>2020-10-08T03:57:11.108Z</time>
      </trkpt>
      <trkpt lat="52.3577" lon="21.03323">
        <ele>79.710702</ele>
        <time>2020-10-08T03:57:21.504Z</time>
      </trkpt>
      <trkpt lat="52.3576" lon="21.0329">
        <ele>79.631457</ele>
        <time>2020-10-08T03:57:29.838Z</time>
      </trkpt>
      <trkpt lat="52.35782" lon="21.0326">
        <ele>79.53046</ele>
        <time>2020-10-08T03:57:39.932Z</time>
      </trkpt>
      <trkpt lat="52.35783" lon="21.0325">
        <ele>79.507141</ele>
        <time>2020-10-08T03:57:42.501Z</time>
      </trkpt>
      <trkpt lat="52.3577" lon="21.03266">
        <ele>79.44769</ele>
        <time>2020-10-08T03:57:46.021Z</time>
      </trkpt>
      <trkpt lat="52.35755" lon="21.03276">
        <ele>79.392599</ele>
        <time>2020-10-08T03:57:49.626Z</time>
      </trkpt>
      <trkpt lat="52.35742" lon="21.03282">
        <ele>79.345693</ele>
        <time>2020-10-08T03:57:52.453Z</time>
      </trkpt>
      <trkpt lat="52.35733" lon="21.03285">
        <ele>79.310217</ele>
        <time>2020-10-08T03:57:54.608Z</time>
      </trkpt>
      <trkpt lat="52.35734" lon="21.03306">
        <ele>79.265602</ele>
        <time>2020-10-08T03:57:57.377Z</time>
      </trkpt>
      <trkpt lat="52.35737" lon="21.03409">
        <ele>79.122812</ele>
        <time>2020-10-08T03:58:10.454Z</time>
      </trkpt>
      <trkpt lat="52.35738" lon="21.03423">
        <ele>79.112516</ele>
        <time>2020-10-08T03:58:12.288Z</time>
      </trkpt>
      <trkpt lat="52.35729" lon="21.03424">
        <ele>79.101699</ele>
        <time>2020-10-08T03:58:14.163Z</time>
      </trkpt>
      <trkpt lat="52.35721" lon="21.03424">
        <ele>79.091788</ele>
        <time>2020-10-08T03:58:15.772Z</time>
      </trkpt>
      <trkpt lat="52.35685" lon="21.03424">
        <ele>79.046841</ele>
        <time>2020-10-08T03:58:23.431Z</time>
      </trkpt>
      <trkpt lat="52.35662" lon="21.03424">
        <ele>79.018733</ele>
        <time>2020-10-08T03:58:28.361Z</time>
      </trkpt>
      <trkpt lat="52.35652" lon="21.03425">
        <ele>79.005971</ele>
        <time>2020-10-08T03:58:30.733Z</time>
      </trkpt>
      <trkpt lat="52.35633" lon="21.03426">
        <ele>78.982919</ele>
        <time>2020-10-08T03:58:34.833Z</time>
      </trkpt>
      <trkpt lat="52.3562" lon="21.03427">
        <ele>78.966678</ele>
        <time>2020-10-08T03:58:39.865Z</time>
      </trkpt>
      <trkpt lat="52.35368" lon="21.03446">
        <ele>79.627482</ele>
        <time>2020-10-08T04:00:17.855Z</time>
      </trkpt>
      <trkpt lat="52.35313" lon="21.03445">
        <ele>79.604794</ele>
        <time>2020-10-08T04:00:38.157Z</time>
      </trkpt>
      <trkpt lat="52.35266" lon="21.03443">
        <ele>79.585406</ele>
        <time>2020-10-08T04:00:54.967Z</time>
      </trkpt>
      <trkpt lat="52.35119" lon="21.03446">
        <ele>79.230941</ele>
        <time>2020-10-08T04:01:46.856Z</time>
      </trkpt>
      <trkpt lat="52.34603" lon="21.03401">
        <ele>79.487911</ele>
        <time>2020-10-08T04:05:00.555Z</time>
      </trkpt>
      <trkpt lat="52.34574" lon="21.03398">
        <ele>79.512439</ele>
        <time>2020-10-08T04:05:11.629Z</time>
      </trkpt>
      <trkpt lat="52.34493" lon="21.03389">
        <ele>79.502981</ele>
        <time>2020-10-08T04:05:42.099Z</time>
      </trkpt>
      <trkpt lat="52.34432" lon="21.03384">
        <ele>79.400522</ele>
        <time>2020-10-08T04:06:04.504Z</time>
      </trkpt>
      <trkpt lat="52.3423" lon="21.03364">
        <ele>78.968165</ele>
        <time>2020-10-08T04:07:16.846Z</time>
      </trkpt>
      <trkpt lat="52.34166" lon="21.03359">
        <ele>78.810741</ele>
        <time>2020-10-08T04:07:40.031Z</time>
      </trkpt>
      <trkpt lat="52.34063" lon="21.03362">
        <ele>79.221853</ele>
        <time>2020-10-08T04:08:19.436Z</time>
      </trkpt>
      <trkpt lat="52.34016" lon="21.03367">
        <ele>79.415135</ele>
        <time>2020-10-08T04:08:37.962Z</time>
      </trkpt>
      <trkpt lat="52.33984" lon="21.03374">
        <ele>79.54673</ele>
        <time>2020-10-08T04:08:50.730Z</time>
      </trkpt>
      <trkpt lat="52.33975" lon="21.03342">
        <ele>79.682481</ele>
        <time>2020-10-08T04:08:56.422Z</time>
      </trkpt>
      <trkpt lat="52.33969" lon="21.03328">
        <ele>79.748771</ele>
        <time>2020-10-08T04:08:59.169Z</time>
      </trkpt>
      <trkpt lat="52.33941" lon="21.03322">
        <ele>79.925496</ele>
        <time>2020-10-08T04:09:06.498Z</time>
      </trkpt>
      <trkpt lat="52.33911" lon="21.03322">
        <ele>80.113118</ele>
        <time>2020-10-08T04:09:14.253Z</time>
      </trkpt>
      <trkpt lat="52.33884" lon="21.03323">
        <ele>80.283169</ele>
        <time>2020-10-08T04:09:21.251Z</time>
      </trkpt>
      <trkpt lat="52.33881" lon="21.03323">
        <ele>80.301993</ele>
        <time>2020-10-08T04:09:22.010Z</time>
      </trkpt>
      <trkpt lat="52.33878" lon="21.03323">
        <ele>80.320515</ele>
        <time>2020-10-08T04:09:22.734Z</time>
      </trkpt>
      <trkpt lat="52.33871" lon="21.03326">
        <ele>80.370246</ele>
        <time>2020-10-08T04:09:24.793Z</time>
      </trkpt>
      <trkpt lat="52.3386" lon="21.03338">
        <ele>80.451438</ele>
        <time>2020-10-08T04:09:28.107Z</time>
      </trkpt>
      <trkpt lat="52.33856" lon="21.0336">
        <ele>80.538719</ele>
        <time>2020-10-08T04:09:31.517Z</time>
      </trkpt>
      <trkpt lat="52.33848" lon="21.03418">
        <ele>80.694765</ele>
        <time>2020-10-08T04:09:40.336Z</time>
      </trkpt>
      <trkpt lat="52.3384" lon="21.0344">
        <ele>80.717678</ele>
        <time>2020-10-08T04:09:44.113Z</time>
      </trkpt>
      <trkpt lat="52.33823" lon="21.03453">
        <ele>80.745672</ele>
        <time>2020-10-08T04:09:48.725Z</time>
      </trkpt>
      <trkpt lat="52.33797" lon="21.03458">
        <ele>80.783733</ele>
        <time>2020-10-08T04:09:54.836Z</time>
      </trkpt>
      <trkpt lat="52.33765" lon="21.03459">
        <ele>80.831061</ele>
        <time>2020-10-08T04:10:02.187Z</time>
      </trkpt>
      <trkpt lat="52.33757" lon="21.03459">
        <ele>80.842972</ele>
        <time>2020-10-08T04:10:03.971Z</time>
      </trkpt>
      <trkpt lat="52.33683" lon="21.03455">
        <ele>80.911987</ele>
        <time>2020-10-08T04:10:19.844Z</time>
      </trkpt>
      <trkpt lat="52.33562" lon="21.03441">
        <ele>80.585764</ele>
        <time>2020-10-08T04:10:45.902Z</time>
      </trkpt>
      <trkpt lat="52.33557" lon="21.03439">
        <ele>80.572166</ele>
        <time>2020-10-08T04:10:46.952Z</time>
      </trkpt>
      <trkpt lat="52.3353" lon="21.03411">
        <ele>80.487343</ele>
        <time>2020-10-08T04:10:53.592Z</time>
      </trkpt>
      <trkpt lat="52.33518" lon="21.03385">
        <ele>80.434519</ele>
        <time>2020-10-08T04:10:57.663Z</time>
      </trkpt>
      <trkpt lat="52.33516" lon="21.03338">
        <ele>80.356527</ele>
        <time>2020-10-08T04:11:03.755Z</time>
      </trkpt>
      <trkpt lat="52.33516" lon="21.03313">
        <ele>80.315988</ele>
        <time>2020-10-08T04:11:06.935Z</time>
      </trkpt>
      <trkpt lat="52.33509" lon="21.033">
        <ele>80.287077</ele>
        <time>2020-10-08T04:11:09.216Z</time>
      </trkpt>
      <trkpt lat="52.33459" lon="21.03294">
        <ele>80.15269</ele>
        <time>2020-10-08T04:11:19.789Z</time>
      </trkpt>
      <trkpt lat="52.33372" lon="21.03284">
        <ele>79.958724</ele>
        <time>2020-10-08T04:11:38.479Z</time>
      </trkpt>
      <trkpt lat="52.33353" lon="21.03283">
        <ele>79.947288</ele>
        <time>2020-10-08T04:11:42.547Z</time>
      </trkpt>
      <trkpt lat="52.33225" lon="21.0327">
        <ele>79.870183</ele>
        <time>2020-10-08T04:12:11.020Z</time>
      </trkpt>
      <trkpt lat="52.33168" lon="21.03262">
        <ele>79.924739</ele>
        <time>2020-10-08T04:12:24.112Z</time>
      </trkpt>
      <trkpt lat="52.33162" lon="21.03261">
        <ele>79.932087</ele>
        <time>2020-10-08T04:12:25.463Z</time>
      </trkpt>
      <trkpt lat="52.33065" lon="21.03237">
        <ele>80.068355</ele>
        <time>2020-10-08T04:12:47.885Z</time>
      </trkpt>
      <trkpt lat="52.33049" lon="21.03231">
        <ele>80.091132</ele>
        <time>2020-10-08T04:12:51.807Z</time>
      </trkpt>
      <trkpt lat="52.33037" lon="21.03226">
        <ele>80.107322</ele>
        <time>2020-10-08T04:12:54.426Z</time>
      </trkpt>
      <trkpt lat="52.33009" lon="21.03215">
        <ele>80.06634</ele>
        <time>2020-10-08T04:13:01.001Z</time>
      </trkpt>
      <trkpt lat="52.32923" lon="21.03182">
        <ele>79.91345</ele>
        <time>2020-10-08T04:13:20.497Z</time>
      </trkpt>
      <trkpt lat="52.32919" lon="21.03181">
        <ele>79.906902</ele>
        <time>2020-10-08T04:13:21.337Z</time>
      </trkpt>
      <trkpt lat="52.32893" lon="21.0317">
        <ele>79.8596</ele>
        <time>2020-10-08T04:13:27.109Z</time>
      </trkpt>
      <trkpt lat="52.32853" lon="21.03155">
        <ele>79.780306</ele>
        <time>2020-10-08T04:13:35.280Z</time>
      </trkpt>
      <trkpt lat="52.32829" lon="21.03146">
        <ele>79.698324</ele>
        <time>2020-10-08T04:13:40.458Z</time>
      </trkpt>
      <trkpt lat="52.32814" lon="21.0314">
        <ele>79.646803</ele>
        <time>2020-10-08T04:13:43.574Z</time>
      </trkpt>
      <trkpt lat="52.32798" lon="21.03137">
        <ele>79.594874</ele>
        <time>2020-10-08T04:13:46.835Z</time>
      </trkpt>
      <trkpt lat="52.32781" lon="21.03136">
        <ele>79.53779</ele>
        <time>2020-10-08T04:13:50.385Z</time>
      </trkpt>
      <trkpt lat="52.32769" lon="21.03134">
        <ele>79.496783</ele>
        <time>2020-10-08T04:13:52.980Z</time>
      </trkpt>
      <trkpt lat="52.32754" lon="21.03132">
        <ele>79.447425</ele>
        <time>2020-10-08T04:13:56.215Z</time>
      </trkpt>
      <trkpt lat="52.3275" lon="21.03135">
        <ele>79.432266</ele>
        <time>2020-10-08T04:13:57.097Z</time>
      </trkpt>
      <trkpt lat="52.32704" lon="21.0315">
        <ele>79.278546</ele>
        <time>2020-10-08T04:14:07.281Z</time>
      </trkpt>
      <trkpt lat="52.32654" lon="21.03163">
        <ele>79.241278</ele>
        <time>2020-10-08T04:14:18.467Z</time>
      </trkpt>
      <trkpt lat="52.32642" lon="21.03166">
        <ele>79.254997</ele>
        <time>2020-10-08T04:14:21.091Z</time>
      </trkpt>
      <trkpt lat="52.32623" lon="21.03171">
        <ele>79.275892</ele>
        <time>2020-10-08T04:14:25.291Z</time>
      </trkpt>
      <trkpt lat="52.32607" lon="21.03175">
        <ele>79.294951</ele>
        <time>2020-10-08T04:14:28.984Z</time>
      </trkpt>
      <trkpt lat="52.32591" lon="21.03179">
        <ele>79.312298</ele>
        <time>2020-10-08T04:14:32.592Z</time>
      </trkpt>
      <trkpt lat="52.32472" lon="21.0321">
        <ele>79.445654</ele>
        <time>2020-10-08T04:15:00.784Z</time>
      </trkpt>
      <trkpt lat="52.32416" lon="21.03224">
        <ele>79.505297</ele>
        <time>2020-10-08T04:15:13.761Z</time>
      </trkpt>
      <trkpt lat="52.32344" lon="21.03238">
        <ele>79.582347</ele>
        <time>2020-10-08T04:15:30.118Z</time>
      </trkpt>
      <trkpt lat="52.32267" lon="21.03247">
        <ele>79.590911</ele>
        <time>2020-10-08T04:15:46.937Z</time>
      </trkpt>
      <trkpt lat="52.32239" lon="21.03251">
        <ele>79.586596</ele>
        <time>2020-10-08T04:15:53.114Z</time>
      </trkpt>
      <trkpt lat="52.32144" lon="21.03253">
        <ele>79.578356</ele>
        <time>2020-10-08T04:16:14.010Z</time>
      </trkpt>
      <trkpt lat="52.32056" lon="21.03252">
        <ele>79.743932</ele>
        <time>2020-10-08T04:16:34.378Z</time>
      </trkpt>
      <trkpt lat="52.32009" lon="21.03252">
        <ele>79.83036</ele>
        <time>2020-10-08T04:16:45.087Z</time>
      </trkpt>
      <trkpt lat="52.31929" lon="21.03251">
        <ele>79.962016</ele>
        <time>2020-10-08T04:17:03.812Z</time>
      </trkpt>
      <trkpt lat="52.31857" lon="21.03249">
        <ele>80.062992</ele>
        <time>2020-10-08T04:17:20.642Z</time>
      </trkpt>
      <trkpt lat="52.31848" lon="21.03249">
        <ele>80.074863</ele>
        <time>2020-10-08T04:17:22.558Z</time>
      </trkpt>
      <trkpt lat="52.31832" lon="21.03248">
        <ele>80.097211</ele>
        <time>2020-10-08T04:17:26.136Z</time>
      </trkpt>
      <trkpt lat="52.3182" lon="21.03245">
        <ele>80.115017</ele>
        <time>2020-10-08T04:17:29.009Z</time>
      </trkpt>
      <trkpt lat="52.31811" lon="21.03242">
        <ele>80.126987</ele>
        <time>2020-10-08T04:17:30.895Z</time>
      </trkpt>
      <trkpt lat="52.31804" lon="21.03234">
        <ele>80.138555</ele>
        <time>2020-10-08T04:17:32.772Z</time>
      </trkpt>
      <trkpt lat="52.31798" lon="21.0322">
        <ele>80.153699</ele>
        <time>2020-10-08T04:17:35.110Z</time>
      </trkpt>
      <trkpt lat="52.3178" lon="21.03136">
        <ele>80.086885</ele>
        <time>2020-10-08T04:17:47.165Z</time>
      </trkpt>
      <trkpt lat="52.31769" lon="21.03068">
        <ele>80.024872</ele>
        <time>2020-10-08T04:17:56.623Z</time>
      </trkpt>
      <trkpt lat="52.31764" lon="21.0301">
        <ele>79.973685</ele>
        <time>2020-10-08T04:18:04.461Z</time>
      </trkpt>
      <trkpt lat="52.31762" lon="21.0299">
        <ele>79.955774</ele>
        <time>2020-10-08T04:18:07.152Z</time>
      </trkpt>
      <trkpt lat="52.31757" lon="21.02963">
        <ele>79.931164</ele>
        <time>2020-10-08T04:18:10.848Z</time>
      </trkpt>
      <trkpt lat="52.31744" lon="21.0295">
        <ele>79.909449</ele>
        <time>2020-10-08T04:18:14.002Z</time>
      </trkpt>
      <trkpt lat="52.31726" lon="21.02948">
        <ele>79.880224</ele>
        <time>2020-10-08T04:18:17.921Z</time>
      </trkpt>
      <trkpt lat="52.31707" lon="21.02951">
        <ele>79.850499</ele>
        <time>2020-10-08T04:18:21.716Z</time>
      </trkpt>
      <trkpt lat="52.31702" lon="21.02953">
        <ele>79.840786</ele>
        <time>2020-10-08T04:18:23.003Z</time>
      </trkpt>
      <trkpt lat="52.31681" lon="21.02957">
        <ele>79.80658</ele>
        <time>2020-10-08T04:18:27.344Z</time>
      </trkpt>
      <trkpt lat="52.31674" lon="21.02958">
        <ele>79.79622</ele>
        <time>2020-10-08T04:18:28.739Z</time>
      </trkpt>
      <trkpt lat="52.3164" lon="21.02964">
        <ele>79.73928</ele>
        <time>2020-10-08T04:18:36.304Z</time>
      </trkpt>
      <trkpt lat="52.31636" lon="21.02965">
        <ele>79.732726</ele>
        <time>2020-10-08T04:18:37.220Z</time>
      </trkpt>
      <trkpt lat="52.31625" lon="21.02967">
        <ele>79.715349</ele>
        <time>2020-10-08T04:18:39.632Z</time>
      </trkpt>
      <trkpt lat="52.31612" lon="21.02969">
        <ele>79.693386</ele>
        <time>2020-10-08T04:18:42.525Z</time>
      </trkpt>
      <trkpt lat="52.31574" lon="21.02975">
        <ele>79.631434</ele>
        <time>2020-10-08T04:18:50.896Z</time>
      </trkpt>
      <trkpt lat="52.3157" lon="21.02975">
        <ele>79.624221</ele>
        <time>2020-10-08T04:18:51.882Z</time>
      </trkpt>
      <trkpt lat="52.31531" lon="21.02982">
        <ele>79.622779</ele>
        <time>2020-10-08T04:19:00.447Z</time>
      </trkpt>
      <trkpt lat="52.31492" lon="21.02988">
        <ele>79.643639</ele>
        <time>2020-10-08T04:19:08.998Z</time>
      </trkpt>
      <trkpt lat="52.31473" lon="21.02989">
        <ele>79.65368</ele>
        <time>2020-10-08T04:19:13.245Z</time>
      </trkpt>
      <trkpt lat="52.31451" lon="21.0299">
        <ele>79.665547</ele>
        <time>2020-10-08T04:19:18.127Z</time>
      </trkpt>
      <trkpt lat="52.31436" lon="21.02991">
        <ele>79.673864</ele>
        <time>2020-10-08T04:19:21.736Z</time>
      </trkpt>
      <trkpt lat="52.31401" lon="21.02991">
        <ele>79.692323</ele>
        <time>2020-10-08T04:19:29.762Z</time>
      </trkpt>
      <trkpt lat="52.31375" lon="21.02992">
        <ele>79.698958</ele>
        <time>2020-10-08T04:19:35.695Z</time>
      </trkpt>
      <trkpt lat="52.31321" lon="21.02994">
        <ele>79.642512</ele>
        <time>2020-10-08T04:19:48.004Z</time>
      </trkpt>
      <trkpt lat="52.31308" lon="21.02995">
        <ele>79.629056</ele>
        <time>2020-10-08T04:19:50.805Z</time>
      </trkpt>
      <trkpt lat="52.31282" lon="21.02995">
        <ele>79.601622</ele>
        <time>2020-10-08T04:19:56.604Z</time>
      </trkpt>
      <trkpt lat="52.31267" lon="21.02995">
        <ele>79.586184</ele>
        <time>2020-10-08T04:19:59.752Z</time>
      </trkpt>
      <trkpt lat="52.3125" lon="21.02995">
        <ele>79.568449</ele>
        <time>2020-10-08T04:20:03.465Z</time>
      </trkpt>
      <trkpt lat="52.31225" lon="21.02996">
        <ele>79.542369</ele>
        <time>2020-10-08T04:20:08.768Z</time>
      </trkpt>
      <trkpt lat="52.31162" lon="21.02996">
        <ele>79.39568</ele>
        <time>2020-10-08T04:20:22.023Z</time>
      </trkpt>
      <trkpt lat="52.31109" lon="21.02996">
        <ele>79.227839</ele>
        <time>2020-10-08T04:20:33.120Z</time>
      </trkpt>
      <trkpt lat="52.3109" lon="21.02996">
        <ele>79.167327</ele>
        <time>2020-10-08T04:20:37.214Z</time>
      </trkpt>
      <trkpt lat="52.3108" lon="21.02996">
        <ele>79.133568</ele>
        <time>2020-10-08T04:20:39.410Z</time>
      </trkpt>
      <trkpt lat="52.31062" lon="21.02996">
        <ele>79.076558</ele>
        <time>2020-10-08T04:20:43.186Z</time>
      </trkpt>
      <trkpt lat="52.31039" lon="21.02996">
        <ele>79.003941</ele>
        <time>2020-10-08T04:20:47.921Z</time>
      </trkpt>
      <trkpt lat="52.31033" lon="21.02996">
        <ele>78.984195</ele>
        <time>2020-10-08T04:20:49.220Z</time>
      </trkpt>
      <trkpt lat="52.30984" lon="21.02995">
        <ele>78.900635</ele>
        <time>2020-10-08T04:20:59.496Z</time>
      </trkpt>
      <trkpt lat="52.30945" lon="21.02995">
        <ele>78.855275</ele>
        <time>2020-10-08T04:21:07.658Z</time>
      </trkpt>
      <trkpt lat="52.30935" lon="21.02995">
        <ele>78.843641</ele>
        <time>2020-10-08T04:21:09.767Z</time>
      </trkpt>
      <trkpt lat="52.30911" lon="21.02995">
        <ele>78.81485</ele>
        <time>2020-10-08T04:21:15.182Z</time>
      </trkpt>
      <trkpt lat="52.30905" lon="21.02995">
        <ele>78.807916</ele>
        <time>2020-10-08T04:21:16.478Z</time>
      </trkpt>
      <trkpt lat="52.30871" lon="21.02994">
        <ele>78.768195</ele>
        <time>2020-10-08T04:21:24.273Z</time>
      </trkpt>
      <trkpt lat="52.30858" lon="21.02994">
        <ele>78.752448</ele>
        <time>2020-10-08T04:21:27.406Z</time>
      </trkpt>
      <trkpt lat="52.30843" lon="21.02994">
        <ele>78.735053</ele>
        <time>2020-10-08T04:21:30.835Z</time>
      </trkpt>
      <trkpt lat="52.30838" lon="21.02994">
        <ele>78.734204</ele>
        <time>2020-10-08T04:21:31.819Z</time>
      </trkpt>
      <trkpt lat="52.30802" lon="21.02993">
        <ele>78.779521</ele>
        <time>2020-10-08T04:21:39.937Z</time>
      </trkpt>
      <trkpt lat="52.30751" lon="21.02993">
        <ele>78.843384</ele>
        <time>2020-10-08T04:21:51.472Z</time>
      </trkpt>
      <trkpt lat="52.30701" lon="21.02991">
        <ele>78.905883</ele>
        <time>2020-10-08T04:22:03.183Z</time>
      </trkpt>
      <trkpt lat="52.30691" lon="21.02991">
        <ele>78.918083</ele>
        <time>2020-10-08T04:22:05.434Z</time>
      </trkpt>
      <trkpt lat="52.30656" lon="21.0299">
        <ele>78.962124</ele>
        <time>2020-10-08T04:22:13.494Z</time>
      </trkpt>
      <trkpt lat="52.30559" lon="21.0299">
        <ele>79.095363</ele>
        <time>2020-10-08T04:22:35.110Z</time>
      </trkpt>
      <trkpt lat="52.3051" lon="21.02989">
        <ele>79.162398</ele>
        <time>2020-10-08T04:22:46.025Z</time>
      </trkpt>
      <trkpt lat="52.30477" lon="21.02988">
        <ele>79.216263</ele>
        <time>2020-10-08T04:22:53.852Z</time>
      </trkpt>
      <trkpt lat="52.30438" lon="21.02988">
        <ele>79.359845</ele>
        <time>2020-10-08T04:23:03.071Z</time>
      </trkpt>
      <trkpt lat="52.30415" lon="21.02988">
        <ele>79.448379</ele>
        <time>2020-10-08T04:23:08.826Z</time>
      </trkpt>
      <trkpt lat="52.30377" lon="21.02987">
        <ele>79.587503</ele>
        <time>2020-10-08T04:23:17.749Z</time>
      </trkpt>
      <trkpt lat="52.30369" lon="21.02987">
        <ele>79.616892</ele>
        <time>2020-10-08T04:23:19.580Z</time>
      </trkpt>
      <trkpt lat="52.30346" lon="21.02987">
        <ele>79.703933</ele>
        <time>2020-10-08T04:23:25.196Z</time>
      </trkpt>
      <trkpt lat="52.30317" lon="21.02987">
        <ele>79.81255</ele>
        <time>2020-10-08T04:23:32.188Z</time>
      </trkpt>
      <trkpt lat="52.30296" lon="21.02986">
        <ele>79.872839</ele>
        <time>2020-10-08T04:23:37.239Z</time>
      </trkpt>
      <trkpt lat="52.30277" lon="21.02986">
        <ele>79.873878</ele>
        <time>2020-10-08T04:23:41.692Z</time>
      </trkpt>
      <trkpt lat="52.30256" lon="21.02985">
        <ele>79.875116</ele>
        <time>2020-10-08T04:23:46.757Z</time>
      </trkpt>
      <trkpt lat="52.3024" lon="21.02983">
        <ele>79.875993</ele>
        <time>2020-10-08T04:23:50.381Z</time>
      </trkpt>
      <trkpt lat="52.30225" lon="21.0298">
        <ele>79.876852</ele>
        <time>2020-10-08T04:23:53.813Z</time>
      </trkpt>
      <trkpt lat="52.30217" lon="21.02978">
        <ele>79.877336</ele>
        <time>2020-10-08T04:23:55.634Z</time>
      </trkpt>
      <trkpt lat="52.30162" lon="21.02954">
        <ele>79.880532</ele>
        <time>2020-10-08T04:24:07.944Z</time>
      </trkpt>
      <trkpt lat="52.30124" lon="21.02927">
        <ele>79.877773</ele>
        <time>2020-10-08T04:24:16.640Z</time>
      </trkpt>
      <trkpt lat="52.30119" lon="21.02923">
        <ele>79.862659</ele>
        <time>2020-10-08T04:24:17.882Z</time>
      </trkpt>
      <trkpt lat="52.30069" lon="21.02885">
        <ele>79.7303</ele>
        <time>2020-10-08T04:24:29.271Z</time>
      </trkpt>
      <trkpt lat="52.30038" lon="21.02862">
        <ele>79.648784</ele>
        <time>2020-10-08T04:24:36.398Z</time>
      </trkpt>
      <trkpt lat="52.30026" lon="21.02853">
        <ele>79.615321</ele>
        <time>2020-10-08T04:24:39.395Z</time>
      </trkpt>
      <trkpt lat="52.30022" lon="21.02866">
        <ele>79.593806</ele>
        <time>2020-10-08T04:24:41.246Z</time>
      </trkpt>
      <trkpt lat="52.3002" lon="21.02871">
        <ele>79.586504</ele>
        <time>2020-10-08T04:24:41.869Z</time>
      </trkpt>
      <trkpt lat="52.30021" lon="21.02892">
        <ele>79.554659</ele>
        <time>2020-10-08T04:24:44.797Z</time>
      </trkpt>
      <trkpt lat="52.30045" lon="21.02986">
        <ele>79.498774</ele>
        <time>2020-10-08T04:24:58.335Z</time>
      </trkpt>
      <trkpt lat="52.30067" lon="21.03071">
        <ele>79.660953</ele>
        <time>2020-10-08T04:25:11.328Z</time>
      </trkpt>
      <trkpt lat="52.3007" lon="21.03084">
        <ele>79.686697</ele>
        <time>2020-10-08T04:25:13.500Z</time>
      </trkpt>
      <trkpt lat="52.30074" lon="21.031">
        <ele>79.717264</ele>
        <time>2020-10-08T04:25:15.973Z</time>
      </trkpt>
      <trkpt lat="52.30073" lon="21.03115">
        <ele>79.7437</ele>
        <time>2020-10-08T04:25:18.112Z</time>
      </trkpt>
      <trkpt lat="52.30065" lon="21.03134">
        <ele>79.78302</ele>
        <time>2020-10-08T04:25:21.517Z</time>
      </trkpt>
      <trkpt lat="52.30054" lon="21.03145">
        <ele>79.822601</ele>
        <time>2020-10-08T04:25:24.864Z</time>
      </trkpt>
      <trkpt lat="52.30001" lon="21.03166">
        <ele>79.982196</ele>
        <time>2020-10-08T04:25:37.983Z</time>
      </trkpt>
      <trkpt lat="52.29996" lon="21.03168">
        <ele>80.005888</ele>
        <time>2020-10-08T04:25:39.461Z</time>
      </trkpt>
      <trkpt lat="52.29991" lon="21.03169">
        <ele>80.023927</ele>
        <time>2020-10-08T04:25:40.565Z</time>
      </trkpt>
      <trkpt lat="52.2999" lon="21.03157">
        <ele>80.054694</ele>
        <time>2020-10-08T04:25:42.324Z</time>
      </trkpt>
      <trkpt lat="52.29987" lon="21.03153">
        <ele>80.069461</ele>
        <time>2020-10-08T04:25:43.187Z</time>
      </trkpt>
      <trkpt lat="52.29983" lon="21.03149">
        <ele>80.087911</ele>
        <time>2020-10-08T04:25:44.210Z</time>
      </trkpt>
      <trkpt lat="52.29975" lon="21.03155">
        <ele>80.125468</ele>
        <time>2020-10-08T04:25:46.528Z</time>
      </trkpt>
      <trkpt lat="52.2992" lon="21.03189">
        <ele>80.365832</ele>
        <time>2020-10-08T04:26:00.842Z</time>
      </trkpt>
      <trkpt lat="52.29915" lon="21.03193">
        <ele>80.385875</ele>
        <time>2020-10-08T04:26:01.987Z</time>
      </trkpt>
      <trkpt lat="52.29907" lon="21.03197">
        <ele>80.420039</ele>
        <time>2020-10-08T04:26:04.056Z</time>
      </trkpt>
      <trkpt lat="52.29905" lon="21.03199">
        <ele>80.430862</ele>
        <time>2020-10-08T04:26:04.756Z</time>
      </trkpt>
      <trkpt lat="52.29903" lon="21.03199">
        <ele>80.438215</ele>
        <time>2020-10-08T04:26:05.221Z</time>
      </trkpt>
      <trkpt lat="52.29901" lon="21.03197">
        <ele>80.446541</ele>
        <time>2020-10-08T04:26:05.698Z</time>
      </trkpt>
      <trkpt lat="52.299" lon="21.03194">
        <ele>80.456321</ele>
        <time>2020-10-08T04:26:06.578Z</time>
      </trkpt>
      <trkpt lat="52.2989" lon="21.03152">
        <ele>80.568172</ele>
        <time>2020-10-08T04:26:13.221Z</time>
      </trkpt>
      <trkpt lat="52.29865" lon="21.03052">
        <ele>80.87427</ele>
        <time>2020-10-08T04:26:29.842Z</time>
      </trkpt>
      <trkpt lat="52.29853" lon="21.03006">
        <ele>81.032384</ele>
        <time>2020-10-08T04:26:37.536Z</time>
      </trkpt>
      <trkpt lat="52.2985" lon="21.02986">
        <ele>81.097542</ele>
        <time>2020-10-08T04:26:40.539Z</time>
      </trkpt>
      <trkpt lat="52.29851" lon="21.02986">
        <ele>81.102711</ele>
        <time>2020-10-08T04:26:40.784Z</time>
      </trkpt>
      <trkpt lat="52.29854" lon="21.02983">
        <ele>81.122313</ele>
        <time>2020-10-08T04:26:41.651Z</time>
      </trkpt>
      <trkpt lat="52.29857" lon="21.02981">
        <ele>81.139114</ele>
        <time>2020-10-08T04:26:42.806Z</time>
      </trkpt>
      <trkpt lat="52.29833" lon="21.02875">
        <ele>81.497207</ele>
        <time>2020-10-08T04:26:59.867Z</time>
      </trkpt>
      <trkpt lat="52.29761" lon="21.02644">
        <ele>82.397012</ele>
        <time>2020-10-08T04:27:41.431Z</time>
      </trkpt>
      <trkpt lat="52.29757" lon="21.02643">
        <ele>82.419908</ele>
        <time>2020-10-08T04:27:42.296Z</time>
      </trkpt>
      <trkpt lat="52.29749" lon="21.0264">
        <ele>82.463376</ele>
        <time>2020-10-08T04:27:44.232Z</time>
      </trkpt>
      <trkpt lat="52.29738" lon="21.02635">
        <ele>82.529424</ele>
        <time>2020-10-08T04:27:47.192Z</time>
      </trkpt>
      <trkpt lat="52.29685" lon="21.02537">
        <ele>82.642071</ele>
        <time>2020-10-08T04:28:06.499Z</time>
      </trkpt>
      <trkpt lat="52.29673" lon="21.02533">
        <ele>82.637528</ele>
        <time>2020-10-08T04:28:09.234Z</time>
      </trkpt>
      <trkpt lat="52.29649" lon="21.02538">
        <ele>82.628217</ele>
        <time>2020-10-08T04:28:14.893Z</time>
      </trkpt>
      <trkpt lat="52.29647" lon="21.02536">
        <ele>82.627402</ele>
        <time>2020-10-08T04:28:15.412Z</time>
      </trkpt>
      <trkpt lat="52.29646" lon="21.02534">
        <ele>82.62669</ele>
        <time>2020-10-08T04:28:15.839Z</time>
      </trkpt>
      <trkpt lat="52.29643" lon="21.02527">
        <ele>82.624828</ele>
        <time>2020-10-08T04:28:16.881Z</time>
      </trkpt>
      <trkpt lat="52.29627" lon="21.02468">
        <ele>82.610017</ele>
        <time>2020-10-08T04:28:25.715Z</time>
      </trkpt>
      <trkpt lat="52.29628" lon="21.02465">
        <ele>82.609341</ele>
        <time>2020-10-08T04:28:26.065Z</time>
      </trkpt>
      <trkpt lat="52.2963" lon="21.02461">
        <ele>82.608035</ele>
        <time>2020-10-08T04:28:26.796Z</time>
      </trkpt>
      <trkpt lat="52.29643" lon="21.02437">
        <ele>82.60078</ele>
        <time>2020-10-08T04:28:31.282Z</time>
      </trkpt>
      <trkpt lat="52.29644" lon="21.02418">
        <ele>82.596273</ele>
        <time>2020-10-08T04:28:33.913Z</time>
      </trkpt>
      <trkpt lat="52.29644" lon="21.02412">
        <ele>82.592573</ele>
        <time>2020-10-08T04:28:34.662Z</time>
      </trkpt>
      <trkpt lat="52.29628" lon="21.02243">
        <ele>82.424979</ele>
        <time>2020-10-08T04:28:58.019Z</time>
      </trkpt>
      <trkpt lat="52.29627" lon="21.02234">
        <ele>82.416776</ele>
        <time>2020-10-08T04:28:59.115Z</time>
      </trkpt>
      <trkpt lat="52.29621" lon="21.02201">
        <ele>82.382545</ele>
        <time>2020-10-08T04:29:03.916Z</time>
      </trkpt>
      <trkpt lat="52.29484" lon="21.0177">
        <ele>82.73275</ele>
        <time>2020-10-08T04:30:14.785Z</time>
      </trkpt>
      <trkpt lat="52.29473" lon="21.01761">
        <ele>82.757916</ele>
        <time>2020-10-08T04:30:17.888Z</time>
      </trkpt>
      <trkpt lat="52.29465" lon="21.01753">
        <ele>82.776043</ele>
        <time>2020-10-08T04:30:20.220Z</time>
      </trkpt>
      <trkpt lat="52.29455" lon="21.01739">
        <ele>82.804604</ele>
        <time>2020-10-08T04:30:23.503Z</time>
      </trkpt>
      <trkpt lat="52.29445" lon="21.01733">
        <ele>82.826365</ele>
        <time>2020-10-08T04:30:26.208Z</time>
      </trkpt>
      <trkpt lat="52.29434" lon="21.01721">
        <ele>82.853865</ele>
        <time>2020-10-08T04:30:29.303Z</time>
      </trkpt>
      <trkpt lat="52.2942" lon="21.01717">
        <ele>82.881724</ele>
        <time>2020-10-08T04:30:32.472Z</time>
      </trkpt>
      <trkpt lat="52.29408" lon="21.01714">
        <ele>82.907687</ele>
        <time>2020-10-08T04:30:35.652Z</time>
      </trkpt>
      <trkpt lat="52.29408" lon="21.01707">
        <ele>82.916291</ele>
        <time>2020-10-08T04:30:36.499Z</time>
      </trkpt>
      <trkpt lat="52.29448" lon="21.0171">
        <ele>82.916893</ele>
        <time>2020-10-08T04:30:46.141Z</time>
      </trkpt>
      <trkpt lat="52.29451" lon="21.01694">
        <ele>82.896044</ele>
        <time>2020-10-08T04:30:48.494Z</time>
      </trkpt>
      <trkpt lat="52.29452" lon="21.01687">
        <ele>82.887012</ele>
        <time>2020-10-08T04:30:49.467Z</time>
      </trkpt>
      <trkpt lat="52.29449" lon="21.0168">
        <ele>82.876442</ele>
        <time>2020-10-08T04:30:50.742Z</time>
      </trkpt>
      <trkpt lat="52.29443" lon="21.01664">
        <ele>82.852378</ele>
        <time>2020-10-08T04:30:53.201Z</time>
      </trkpt>
      <trkpt lat="52.29436" lon="21.01668">
        <ele>82.837333</ele>
        <time>2020-10-08T04:30:54.977Z</time>
      </trkpt>
      <trkpt lat="52.29434" lon="21.01677">
        <ele>82.825706</ele>
        <time>2020-10-08T04:30:56.288Z</time>
      </trkpt>
      <trkpt lat="52.29448" lon="21.01692">
        <ele>82.790386</ele>
        <time>2020-10-08T04:31:00.134Z</time>
      </trkpt>
      <trkpt lat="52.29451" lon="21.01691">
        <ele>82.78388</ele>
        <time>2020-10-08T04:31:00.775Z</time>
      </trkpt>
      <trkpt lat="52.29454" lon="21.01689">
        <ele>82.778524</ele>
        <time>2020-10-08T04:31:01.237Z</time>
      </trkpt>
      <trkpt lat="52.29457" lon="21.01675">
        <ele>82.759873</ele>
        <time>2020-10-08T04:31:03.338Z</time>
      </trkpt>
      <trkpt lat="52.29415" lon="21.01544">
        <ele>82.569274</ele>
        <time>2020-10-08T04:31:23.321Z</time>
      </trkpt>
      <trkpt lat="52.29412" lon="21.01538">
        <ele>82.556745</ele>
        <time>2020-10-08T04:31:24.262Z</time>
      </trkpt>
      <trkpt lat="52.29409" lon="21.0153">
        <ele>82.541916</ele>
        <time>2020-10-08T04:31:25.429Z</time>
      </trkpt>
      <trkpt lat="52.294" lon="21.01519">
        <ele>82.512747</ele>
        <time>2020-10-08T04:31:28.012Z</time>
      </trkpt>
      <trkpt lat="52.29374" lon="21.01519">
        <ele>82.445481</ele>
        <time>2020-10-08T04:31:33.546Z</time>
      </trkpt>
      <trkpt lat="52.29359" lon="21.01489">
        <ele>82.3824</ele>
        <time>2020-10-08T04:31:39.085Z</time>
      </trkpt>
      <trkpt lat="52.29356" lon="21.0148">
        <ele>82.366128</ele>
        <time>2020-10-08T04:31:40.357Z</time>
      </trkpt>
      <trkpt lat="52.29355" lon="21.01458">
        <ele>82.331605</ele>
        <time>2020-10-08T04:31:43.454Z</time>
      </trkpt>
      <trkpt lat="52.29356" lon="21.01451">
        <ele>82.319574</ele>
        <time>2020-10-08T04:31:44.489Z</time>
      </trkpt>
      <trkpt lat="52.29361" lon="21.01441">
        <ele>82.298474</ele>
        <time>2020-10-08T04:31:46.297Z</time>
      </trkpt>
      <trkpt lat="52.29371" lon="21.01436">
        <ele>82.27255</ele>
        <time>2020-10-08T04:31:48.341Z</time>
      </trkpt>
      <trkpt lat="52.29376" lon="21.01438">
        <ele>82.259745</ele>
        <time>2020-10-08T04:31:49.542Z</time>
      </trkpt>
      <trkpt lat="52.29383" lon="21.01448">
        <ele>82.234606</ele>
        <time>2020-10-08T04:31:51.503Z</time>
      </trkpt>
      <trkpt lat="52.29383" lon="21.01464">
        <ele>82.209549</ele>
        <time>2020-10-08T04:31:53.542Z</time>
      </trkpt>
      <trkpt lat="52.29357" lon="21.01484">
        <ele>82.134481</ele>
        <time>2020-10-08T04:31:59.597Z</time>
      </trkpt>
      <trkpt lat="52.29349" lon="21.01484">
        <ele>82.115135</ele>
        <time>2020-10-08T04:32:01.341Z</time>
      </trkpt>
      <trkpt lat="52.29346" lon="21.01471">
        <ele>82.101522</ele>
        <time>2020-10-08T04:32:03.309Z</time>
      </trkpt>
      <trkpt lat="52.29353" lon="21.01441">
        <ele>82.069477</ele>
        <time>2020-10-08T04:32:07.474Z</time>
      </trkpt>
      <trkpt lat="52.29343" lon="21.01392">
        <ele>82.019616</ele>
        <time>2020-10-08T04:32:14.304Z</time>
      </trkpt>
      <trkpt lat="52.29334" lon="21.01351">
        <ele>81.976527</ele>
        <time>2020-10-08T04:32:20.232Z</time>
      </trkpt>
      <trkpt lat="52.2933" lon="21.01328">
        <ele>81.952519</ele>
        <time>2020-10-08T04:32:23.209Z</time>
      </trkpt>
      <trkpt lat="52.29309" lon="21.01216">
        <ele>81.838004</ele>
        <time>2020-10-08T04:32:38.673Z</time>
      </trkpt>
      <trkpt lat="52.29231" lon="21.00958">
        <ele>82.26345</ele>
        <time>2020-10-08T04:33:19.905Z</time>
      </trkpt>
      <trkpt lat="52.29098" lon="21.00562">
        <ele>83.018715</ele>
        <time>2020-10-08T04:34:27.053Z</time>
      </trkpt>
      <trkpt lat="52.29045" lon="21.00443">
        <ele>82.876889</ele>
        <time>2020-10-08T04:34:44.949Z</time>
      </trkpt>
      <trkpt lat="52.2901" lon="21.00402">
        <ele>82.459323</ele>
        <time>2020-10-08T04:34:53.292Z</time>
      </trkpt>
      <trkpt lat="52.29" lon="21.00398">
        <ele>82.353653</ele>
        <time>2020-10-08T04:34:55.193Z</time>
      </trkpt>
      <trkpt lat="52.28996" lon="21.00396">
        <ele>82.307703</ele>
        <time>2020-10-08T04:34:56.069Z</time>
      </trkpt>
      <trkpt lat="52.28986" lon="21.00399">
        <ele>82.198167</ele>
        <time>2020-10-08T04:34:58.141Z</time>
      </trkpt>
      <trkpt lat="52.28986" lon="21.00405">
        <ele>82.162201</ele>
        <time>2020-10-08T04:34:58.793Z</time>
      </trkpt>
      <trkpt lat="52.28986" lon="21.00409">
        <ele>82.139485</ele>
        <time>2020-10-08T04:34:59.250Z</time>
      </trkpt>
      <trkpt lat="52.2898" lon="21.00408">
        <ele>82.081685</ele>
        <time>2020-10-08T04:35:00.323Z</time>
      </trkpt>
      <trkpt lat="52.28965" lon="21.00412">
        <ele>81.925195</ele>
        <time>2020-10-08T04:35:03.312Z</time>
      </trkpt>
      <trkpt lat="52.28954" lon="21.0042">
        <ele>81.803289</ele>
        <time>2020-10-08T04:35:05.717Z</time>
      </trkpt>
      <trkpt lat="52.28918" lon="21.00459">
        <ele>81.355368</ele>
        <time>2020-10-08T04:35:14.400Z</time>
      </trkpt>
      <trkpt lat="52.28901" lon="21.00465">
        <ele>81.178845</ele>
        <time>2020-10-08T04:35:17.723Z</time>
      </trkpt>
      <trkpt lat="52.28821" lon="21.00548">
        <ele>80.618836</ele>
        <time>2020-10-08T04:35:37.272Z</time>
      </trkpt>
      <trkpt lat="52.288" lon="21.0057">
        <ele>80.494276</ele>
        <time>2020-10-08T04:35:42.724Z</time>
      </trkpt>
      <trkpt lat="52.28795" lon="21.00574">
        <ele>80.469701</ele>
        <time>2020-10-08T04:35:43.803Z</time>
      </trkpt>
      <trkpt lat="52.28782" lon="21.00588">
        <ele>80.39198</ele>
        <time>2020-10-08T04:35:47.143Z</time>
      </trkpt>
      <trkpt lat="52.28745" lon="21.00627">
        <ele>80.169112</ele>
        <time>2020-10-08T04:35:57.580Z</time>
      </trkpt>
      <trkpt lat="52.28701" lon="21.00683">
        <ele>80.202829</ele>
        <time>2020-10-08T04:36:10.484Z</time>
      </trkpt>
      <trkpt lat="52.28672" lon="21.00711">
        <ele>80.265739</ele>
        <time>2020-10-08T04:36:18.479Z</time>
      </trkpt>
      <trkpt lat="52.28658" lon="21.00715">
        <ele>80.291626</ele>
        <time>2020-10-08T04:36:21.644Z</time>
      </trkpt>
      <trkpt lat="52.28652" lon="21.00717">
        <ele>80.302364</ele>
        <time>2020-10-08T04:36:23.320Z</time>
      </trkpt>
      <trkpt lat="52.28593" lon="21.00766">
        <ele>80.427237</ele>
        <time>2020-10-08T04:36:39.535Z</time>
      </trkpt>
      <trkpt lat="52.28516" lon="21.00821">
        <ele>80.485083</ele>
        <time>2020-10-08T04:37:00.109Z</time>
      </trkpt>
      <trkpt lat="52.28455" lon="21.00859">
        <ele>80.514294</ele>
        <time>2020-10-08T04:37:15.260Z</time>
      </trkpt>
      <trkpt lat="52.28226" lon="21.00998">
        <ele>80.002001</ele>
        <time>2020-10-08T04:38:09.187Z</time>
      </trkpt>
      <trkpt lat="52.28215" lon="21.01005">
        <ele>79.997974</ele>
        <time>2020-10-08T04:38:11.914Z</time>
      </trkpt>
      <trkpt lat="52.28194" lon="21.01016">
        <ele>79.990474</ele>
        <time>2020-10-08T04:38:16.838Z</time>
      </trkpt>
      <trkpt lat="52.28085" lon="21.01089">
        <ele>79.950133</ele>
        <time>2020-10-08T04:38:44.193Z</time>
      </trkpt>
      <trkpt lat="52.2808" lon="21.01093">
        <ele>79.948246</ele>
        <time>2020-10-08T04:38:45.658Z</time>
      </trkpt>
      <trkpt lat="52.28074" lon="21.01097">
        <ele>79.954874</ele>
        <time>2020-10-08T04:38:47.158Z</time>
      </trkpt>
      <trkpt lat="52.28063" lon="21.01098">
        <ele>79.983633</ele>
        <time>2020-10-08T04:38:49.843Z</time>
      </trkpt>
      <trkpt lat="52.27874" lon="21.01212">
        <ele>80.470042</ele>
        <time>2020-10-08T04:39:38.978Z</time>
      </trkpt>
      <trkpt lat="52.27861" lon="21.0122">
        <ele>80.495488</ele>
        <time>2020-10-08T04:39:42.275Z</time>
      </trkpt>
      <trkpt lat="52.27843" lon="21.0124">
        <ele>80.538312</ele>
        <time>2020-10-08T04:39:47.416Z</time>
      </trkpt>
      <trkpt lat="52.27806" lon="21.01263">
        <ele>80.61585</ele>
        <time>2020-10-08T04:39:57.184Z</time>
      </trkpt>
      <trkpt lat="52.278" lon="21.01266">
        <ele>80.626907</ele>
        <time>2020-10-08T04:39:58.669Z</time>
      </trkpt>
      <trkpt lat="52.27791" lon="21.01272">
        <ele>80.646901</ele>
        <time>2020-10-08T04:40:01.112Z</time>
      </trkpt>
      <trkpt lat="52.27779" lon="21.01274">
        <ele>80.670307</ele>
        <time>2020-10-08T04:40:03.860Z</time>
      </trkpt>
      <trkpt lat="52.27766" lon="21.01278">
        <ele>80.696629</ele>
        <time>2020-10-08T04:40:07.131Z</time>
      </trkpt>
      <trkpt lat="52.27705" lon="21.01321">
        <ele>80.765207</ele>
        <time>2020-10-08T04:40:21.931Z</time>
      </trkpt>
      <trkpt lat="52.27701" lon="21.01324">
        <ele>80.767078</ele>
        <time>2020-10-08T04:40:23.116Z</time>
      </trkpt>
      <trkpt lat="52.27693" lon="21.01329">
        <ele>80.770136</ele>
        <time>2020-10-08T04:40:24.955Z</time>
      </trkpt>
      <trkpt lat="52.27685" lon="21.01336">
        <ele>80.773902</ele>
        <time>2020-10-08T04:40:27.170Z</time>
      </trkpt>
      <trkpt lat="52.27682" lon="21.01343">
        <ele>80.77601</ele>
        <time>2020-10-08T04:40:28.369Z</time>
      </trkpt>
      <trkpt lat="52.27678" lon="21.01343">
        <ele>80.777619</ele>
        <time>2020-10-08T04:40:29.465Z</time>
      </trkpt>
      <trkpt lat="52.27616" lon="21.01382">
        <ele>80.803703</ele>
        <time>2020-10-08T04:40:49.705Z</time>
      </trkpt>
      <trkpt lat="52.27613" lon="21.01385">
        <ele>80.80495</ele>
        <time>2020-10-08T04:40:50.504Z</time>
      </trkpt>
      <trkpt lat="52.276" lon="21.01393">
        <ele>80.810358</ele>
        <time>2020-10-08T04:40:53.884Z</time>
      </trkpt>
      <trkpt lat="52.27475" lon="21.01469">
        <ele>80.879229</ele>
        <time>2020-10-08T04:41:22.937Z</time>
      </trkpt>
      <trkpt lat="52.27471" lon="21.01472">
        <ele>80.881817</ele>
        <time>2020-10-08T04:41:24.091Z</time>
      </trkpt>
      <trkpt lat="52.27463" lon="21.01469">
        <ele>80.886485</ele>
        <time>2020-10-08T04:41:26.269Z</time>
      </trkpt>
      <trkpt lat="52.27433" lon="21.01487">
        <ele>80.904056</ele>
        <time>2020-10-08T04:41:34.119Z</time>
      </trkpt>
      <trkpt lat="52.27425" lon="21.01491">
        <ele>80.908676</ele>
        <time>2020-10-08T04:41:36.191Z</time>
      </trkpt>
      <trkpt lat="52.27411" lon="21.015">
        <ele>80.916635</ele>
        <time>2020-10-08T04:41:39.586Z</time>
      </trkpt>
      <trkpt lat="52.27404" lon="21.01504">
        <ele>80.923207</ele>
        <time>2020-10-08T04:41:41.387Z</time>
      </trkpt>
      <trkpt lat="52.27379" lon="21.01517">
        <ele>80.962073</ele>
        <time>2020-10-08T04:41:47.682Z</time>
      </trkpt>
      <trkpt lat="52.27377" lon="21.01522">
        <ele>80.968003</ele>
        <time>2020-10-08T04:41:48.507Z</time>
      </trkpt>
      <trkpt lat="52.27362" lon="21.01529">
        <ele>80.990591</ele>
        <time>2020-10-08T04:41:52.097Z</time>
      </trkpt>
      <trkpt lat="52.27243" lon="21.01601">
        <ele>81.180342</ele>
        <time>2020-10-08T04:42:20.736Z</time>
      </trkpt>
      <trkpt lat="52.272" lon="21.01628">
        <ele>81.329206</ele>
        <time>2020-10-08T04:42:31.694Z</time>
      </trkpt>
      <trkpt lat="52.27171" lon="21.01646">
        <ele>81.435503</ele>
        <time>2020-10-08T04:42:39.244Z</time>
      </trkpt>
      <trkpt lat="52.27159" lon="21.01663">
        <ele>81.489872</ele>
        <time>2020-10-08T04:42:43.042Z</time>
      </trkpt>
      <trkpt lat="52.2715" lon="21.01671">
        <ele>81.524774</ele>
        <time>2020-10-08T04:42:45.460Z</time>
      </trkpt>
      <trkpt lat="52.27143" lon="21.01675">
        <ele>81.54935</ele>
        <time>2020-10-08T04:42:47.196Z</time>
      </trkpt>
      <trkpt lat="52.27136" lon="21.01681">
        <ele>81.575028</ele>
        <time>2020-10-08T04:42:48.951Z</time>
      </trkpt>
      <trkpt lat="52.27128" lon="21.0168">
        <ele>81.603124</ele>
        <time>2020-10-08T04:42:50.855Z</time>
      </trkpt>
      <trkpt lat="52.27119" lon="21.01689">
        <ele>81.640329</ele>
        <time>2020-10-08T04:42:53.374Z</time>
      </trkpt>
      <trkpt lat="52.27085" lon="21.01726">
        <ele>81.780511</ele>
        <time>2020-10-08T04:43:02.894Z</time>
      </trkpt>
      <trkpt lat="52.27073" lon="21.01741">
        <ele>81.833424</ele>
        <time>2020-10-08T04:43:06.356Z</time>
      </trkpt>
      <trkpt lat="52.27044" lon="21.01775">
        <ele>81.968058</ele>
        <time>2020-10-08T04:43:14.877Z</time>
      </trkpt>
      <trkpt lat="52.26983" lon="21.01848">
        <ele>82.257331</ele>
        <time>2020-10-08T04:43:33.258Z</time>
      </trkpt>
      <trkpt lat="52.26945" lon="21.01894">
        <ele>82.438789</ele>
        <time>2020-10-08T04:43:44.621Z</time>
      </trkpt>
      <trkpt lat="52.26928" lon="21.01911">
        <ele>82.483179</ele>
        <time>2020-10-08T04:43:50.499Z</time>
      </trkpt>
      <trkpt lat="52.26923" lon="21.01916">
        <ele>82.479566</ele>
        <time>2020-10-08T04:43:52.233Z</time>
      </trkpt>
      <trkpt lat="52.26906" lon="21.01944">
        <ele>82.463939</ele>
        <time>2020-10-08T04:43:59.536Z</time>
      </trkpt>
      <trkpt lat="52.26903" lon="21.01951">
        <ele>82.460866</ele>
        <time>2020-10-08T04:44:01.030Z</time>
      </trkpt>
      <trkpt lat="52.269" lon="21.01977">
        <ele>82.450606</ele>
        <time>2020-10-08T04:44:05.938Z</time>
      </trkpt>
      <trkpt lat="52.26896" lon="21.01984">
        <ele>82.44702</ele>
        <time>2020-10-08T04:44:07.623Z</time>
      </trkpt>
      <trkpt lat="52.26889" lon="21.01988">
        <ele>82.442138</ele>
        <time>2020-10-08T04:44:09.922Z</time>
      </trkpt>
      <trkpt lat="52.26869" lon="21.01984">
        <ele>82.429182</ele>
        <time>2020-10-08T04:44:16.088Z</time>
      </trkpt>
      <trkpt lat="52.26864" lon="21.01982">
        <ele>82.426052</ele>
        <time>2020-10-08T04:44:17.201Z</time>
      </trkpt>
      <trkpt lat="52.26859" lon="21.01981">
        <ele>82.422922</ele>
        <time>2020-10-08T04:44:18.330Z</time>
      </trkpt>
      <trkpt lat="52.26849" lon="21.01989">
        <ele>82.41597</ele>
        <time>2020-10-08T04:44:20.921Z</time>
      </trkpt>
      <trkpt lat="52.26837" lon="21.01999">
        <ele>82.407365</ele>
        <time>2020-10-08T04:44:23.989Z</time>
      </trkpt>
      <trkpt lat="52.26765" lon="21.02046">
        <ele>82.292865</ele>
        <time>2020-10-08T04:44:39.892Z</time>
      </trkpt>
      <trkpt lat="52.26759" lon="21.02049">
        <ele>82.274332</ele>
        <time>2020-10-08T04:44:40.994Z</time>
      </trkpt>
      <trkpt lat="52.26749" lon="21.02054">
        <ele>82.240045</ele>
        <time>2020-10-08T04:44:43.091Z</time>
      </trkpt>
      <trkpt lat="52.26736" lon="21.02061">
        <ele>82.193887</ele>
        <time>2020-10-08T04:44:45.921Z</time>
      </trkpt>
      <trkpt lat="52.26694" lon="21.02078">
        <ele>82.054543</ele>
        <time>2020-10-08T04:44:54.810Z</time>
      </trkpt>
      <trkpt lat="52.26683" lon="21.02082">
        <ele>82.017372</ele>
        <time>2020-10-08T04:44:57.209Z</time>
      </trkpt>
      <trkpt lat="52.26668" lon="21.02086">
        <ele>81.968879</ele>
        <time>2020-10-08T04:45:00.401Z</time>
      </trkpt>
      <trkpt lat="52.26662" lon="21.02088">
        <ele>81.947777</ele>
        <time>2020-10-08T04:45:01.984Z</time>
      </trkpt>
      <trkpt lat="52.26659" lon="21.02089">
        <ele>81.939179</ele>
        <time>2020-10-08T04:45:02.599Z</time>
      </trkpt>
      <trkpt lat="52.26648" lon="21.02091">
        <ele>81.903934</ele>
        <time>2020-10-08T04:45:04.879Z</time>
      </trkpt>
      <trkpt lat="52.26594" lon="21.02106">
        <ele>81.837105</ele>
        <time>2020-10-08T04:45:16.878Z</time>
      </trkpt>
      <trkpt lat="52.2658" lon="21.02109">
        <ele>81.872205</ele>
        <time>2020-10-08T04:45:20.236Z</time>
      </trkpt>
      <trkpt lat="52.26545" lon="21.0212">
        <ele>81.95781</ele>
        <time>2020-10-08T04:45:28.460Z</time>
      </trkpt>
      <trkpt lat="52.2653" lon="21.02131">
        <ele>81.996385</ele>
        <time>2020-10-08T04:45:31.986Z</time>
      </trkpt>
      <trkpt lat="52.26527" lon="21.02135">
        <ele>82.005739</ele>
        <time>2020-10-08T04:45:33.123Z</time>
      </trkpt>
      <trkpt lat="52.2652" lon="21.02138">
        <ele>82.021849</ele>
        <time>2020-10-08T04:45:34.785Z</time>
      </trkpt>
      <trkpt lat="52.26469" lon="21.0213">
        <ele>82.145245</ele>
        <time>2020-10-08T04:45:47.632Z</time>
      </trkpt>
      <trkpt lat="52.26454" lon="21.02138">
        <ele>82.182534</ele>
        <time>2020-10-08T04:45:51.582Z</time>
      </trkpt>
      <trkpt lat="52.26434" lon="21.02147">
        <ele>82.223289</ele>
        <time>2020-10-08T04:45:56.676Z</time>
      </trkpt>
      <trkpt lat="52.26434" lon="21.02143">
        <ele>82.224913</ele>
        <time>2020-10-08T04:45:57.275Z</time>
      </trkpt>
      <trkpt lat="52.26433" lon="21.02136">
        <ele>82.227866</ele>
        <time>2020-10-08T04:45:58.374Z</time>
      </trkpt>
      <trkpt lat="52.2643" lon="21.0212">
        <ele>82.23422</ele>
        <time>2020-10-08T04:46:01.025Z</time>
      </trkpt>
      <trkpt lat="52.26427" lon="21.02101">
        <ele>82.241758</ele>
        <time>2020-10-08T04:46:03.760Z</time>
      </trkpt>
      <trkpt lat="52.26427" lon="21.02096">
        <ele>82.243712</ele>
        <time>2020-10-08T04:46:04.445Z</time>
      </trkpt>
      <trkpt lat="52.26426" lon="21.02092">
        <ele>82.245494</ele>
        <time>2020-10-08T04:46:05.135Z</time>
      </trkpt>
      <trkpt lat="52.26423" lon="21.02079">
        <ele>82.250787</ele>
        <time>2020-10-08T04:46:07.097Z</time>
      </trkpt>
      <trkpt lat="52.26421" lon="21.02074">
        <ele>82.253319</ele>
        <time>2020-10-08T04:46:08.184Z</time>
      </trkpt>
      <trkpt lat="52.26406" lon="21.02054">
        <ele>82.265363</ele>
        <time>2020-10-08T04:46:12.660Z</time>
      </trkpt>
      <trkpt lat="52.26377" lon="21.02026">
        <ele>82.286773</ele>
        <time>2020-10-08T04:46:20.371Z</time>
      </trkpt>
      <trkpt lat="52.26373" lon="21.02027">
        <ele>82.289583</ele>
        <time>2020-10-08T04:46:21.358Z</time>
      </trkpt>
      <trkpt lat="52.26369" lon="21.02029">
        <ele>82.292083</ele>
        <time>2020-10-08T04:46:22.294Z</time>
      </trkpt>
      <trkpt lat="52.26355" lon="21.02035">
        <ele>82.301484</ele>
        <time>2020-10-08T04:46:25.687Z</time>
      </trkpt>
      <trkpt lat="52.26351" lon="21.02037">
        <ele>82.304056</ele>
        <time>2020-10-08T04:46:26.614Z</time>
      </trkpt>
      <trkpt lat="52.26337" lon="21.02044">
        <ele>82.313486</ele>
        <time>2020-10-08T04:46:29.957Z</time>
      </trkpt>
      <trkpt lat="52.26333" lon="21.02046">
        <ele>82.316129</ele>
        <time>2020-10-08T04:46:30.946Z</time>
      </trkpt>
      <trkpt lat="52.26328" lon="21.02048">
        <ele>82.319017</ele>
        <time>2020-10-08T04:46:31.987Z</time>
      </trkpt>
      <trkpt lat="52.26327" lon="21.02042">
        <ele>82.321213</ele>
        <time>2020-10-08T04:46:32.999Z</time>
      </trkpt>
      <trkpt lat="52.26318" lon="21.01988">
        <ele>82.348813</ele>
        <time>2020-10-08T04:46:42.948Z</time>
      </trkpt>
      <trkpt lat="52.26289" lon="21.01802">
        <ele>82.471467</ele>
        <time>2020-10-08T04:47:17.266Z</time>
      </trkpt>
      <trkpt lat="52.26272" lon="21.01754">
        <ele>82.506355</ele>
        <time>2020-10-08T04:47:27.845Z</time>
      </trkpt>
      <trkpt lat="52.26257" lon="21.01738">
        <ele>82.52689</ele>
        <time>2020-10-08T04:47:33.424Z</time>
      </trkpt>
      <trkpt lat="52.26247" lon="21.01729">
        <ele>82.549041</ele>
        <time>2020-10-08T04:47:37.168Z</time>
      </trkpt>
      <trkpt lat="52.26237" lon="21.01722">
        <ele>82.570807</ele>
        <time>2020-10-08T04:47:39.738Z</time>
      </trkpt>
      <trkpt lat="52.26232" lon="21.01717">
        <ele>82.58227</ele>
        <time>2020-10-08T04:47:40.957Z</time>
      </trkpt>
      <trkpt lat="52.26229" lon="21.01711">
        <ele>82.591317</ele>
        <time>2020-10-08T04:47:42.095Z</time>
      </trkpt>
      <trkpt lat="52.26222" lon="21.01697">
        <ele>82.612774</ele>
        <time>2020-10-08T04:47:45.035Z</time>
      </trkpt>
      <trkpt lat="52.26215" lon="21.01679">
        <ele>82.638093</ele>
        <time>2020-10-08T04:47:47.944Z</time>
      </trkpt>
      <trkpt lat="52.26179" lon="21.01558">
        <ele>82.799611</ele>
        <time>2020-10-08T04:48:06.600Z</time>
      </trkpt>
      <trkpt lat="52.26177" lon="21.01551">
        <ele>82.808587</ele>
        <time>2020-10-08T04:48:07.819Z</time>
      </trkpt>
      <trkpt lat="52.26162" lon="21.01543">
        <ele>82.840369</ele>
        <time>2020-10-08T04:48:11.644Z</time>
      </trkpt>
      <trkpt lat="52.26157" lon="21.01547">
        <ele>82.851962</ele>
        <time>2020-10-08T04:48:12.957Z</time>
      </trkpt>
      <trkpt lat="52.26153" lon="21.0155">
        <ele>82.859918</ele>
        <time>2020-10-08T04:48:13.748Z</time>
      </trkpt>
      <trkpt lat="52.26147" lon="21.01548">
        <ele>82.871126</ele>
        <time>2020-10-08T04:48:15.068Z</time>
      </trkpt>
      <trkpt lat="52.26118" lon="21.01574">
        <ele>82.750979</ele>
        <time>2020-10-08T04:48:22.830Z</time>
      </trkpt>
      <trkpt lat="52.2611" lon="21.01578">
        <ele>82.71616</ele>
        <time>2020-10-08T04:48:24.981Z</time>
      </trkpt>
      <trkpt lat="52.26101" lon="21.01585">
        <ele>82.679308</ele>
        <time>2020-10-08T04:48:27.113Z</time>
      </trkpt>
      <trkpt lat="52.26037" lon="21.01644">
        <ele>82.396368</ele>
        <time>2020-10-08T04:48:42.565Z</time>
      </trkpt>
      <trkpt lat="52.25996" lon="21.01681">
        <ele>82.21939</ele>
        <time>2020-10-08T04:48:51.549Z</time>
      </trkpt>
      <trkpt lat="52.25954" lon="21.01719">
        <ele>82.242394</ele>
        <time>2020-10-08T04:49:01.319Z</time>
      </trkpt>
      <trkpt lat="52.25917" lon="21.01752">
        <ele>82.303048</ele>
        <time>2020-10-08T04:49:10.118Z</time>
      </trkpt>
      <trkpt lat="52.25888" lon="21.01779">
        <ele>82.352532</ele>
        <time>2020-10-08T04:49:18.015Z</time>
      </trkpt>
      <trkpt lat="52.25856" lon="21.01808">
        <ele>82.405668</ele>
        <time>2020-10-08T04:49:27.661Z</time>
      </trkpt>
      <trkpt lat="52.25835" lon="21.01826">
        <ele>82.439307</ele>
        <time>2020-10-08T04:49:33.932Z</time>
      </trkpt>
      <trkpt lat="52.25775" lon="21.01881">
        <ele>82.991672</ele>
        <time>2020-10-08T04:49:51.378Z</time>
      </trkpt>
      <trkpt lat="52.25735" lon="21.01916">
        <ele>83.369421</ele>
        <time>2020-10-08T04:50:02.054Z</time>
      </trkpt>
      <trkpt lat="52.25691" lon="21.01957">
        <ele>83.799379</ele>
        <time>2020-10-08T04:50:15.529Z</time>
      </trkpt>
      <trkpt lat="52.25646" lon="21.01998">
        <ele>84.191534</ele>
        <time>2020-10-08T04:50:29.477Z</time>
      </trkpt>
      <trkpt lat="52.25613" lon="21.02028">
        <ele>84.46551</ele>
        <time>2020-10-08T04:50:40.305Z</time>
      </trkpt>
      <trkpt lat="52.25586" lon="21.02053">
        <ele>84.684605</ele>
        <time>2020-10-08T04:50:48.032Z</time>
      </trkpt>
      <trkpt lat="52.25553" lon="21.02082">
        <ele>84.947939</ele>
        <time>2020-10-08T04:50:56.481Z</time>
      </trkpt>
      <trkpt lat="52.25527" lon="21.02106">
        <ele>85.161417</ele>
        <time>2020-10-08T04:51:03.084Z</time>
      </trkpt>
      <trkpt lat="52.25506" lon="21.02125">
        <ele>85.27685</ele>
        <time>2020-10-08T04:51:08.844Z</time>
      </trkpt>
      <trkpt lat="52.25486" lon="21.02143">
        <ele>85.329644</ele>
        <time>2020-10-08T04:51:14.081Z</time>
      </trkpt>
      <trkpt lat="52.2544" lon="21.02186">
        <ele>85.454517</ele>
        <time>2020-10-08T04:51:27.733Z</time>
      </trkpt>
      <trkpt lat="52.2538" lon="21.0224">
        <ele>85.615086</ele>
        <time>2020-10-08T04:51:43.529Z</time>
      </trkpt>
      <trkpt lat="52.25373" lon="21.02246">
        <ele>85.631911</ele>
        <time>2020-10-08T04:51:45.105Z</time>
      </trkpt>
      <trkpt lat="52.25366" lon="21.02253">
        <ele>85.651361</ele>
        <time>2020-10-08T04:51:46.910Z</time>
      </trkpt>
      <trkpt lat="52.2536" lon="21.02259">
        <ele>85.668386</ele>
        <time>2020-10-08T04:51:49.474Z</time>
      </trkpt>
      <trkpt lat="52.25353" lon="21.02263">
        <ele>85.64542</ele>
        <time>2020-10-08T04:51:52.305Z</time>
      </trkpt>
      <trkpt lat="52.25216" lon="21.02391">
        <ele>85.116642</ele>
        <time>2020-10-08T04:52:48.810Z</time>
      </trkpt>
      <trkpt lat="52.25181" lon="21.02422">
        <ele>84.838773</ele>
        <time>2020-10-08T04:53:02.771Z</time>
      </trkpt>
      <trkpt lat="52.25121" lon="21.02471">
        <ele>84.224148</ele>
        <time>2020-10-08T04:53:26.117Z</time>
      </trkpt>
      <trkpt lat="52.25114" lon="21.02476">
        <ele>84.154175</ele>
        <time>2020-10-08T04:53:28.739Z</time>
      </trkpt>
      <trkpt lat="52.2511" lon="21.02478">
        <ele>84.117998</ele>
        <time>2020-10-08T04:53:30.119Z</time>
      </trkpt>
      <trkpt lat="52.251" lon="21.02483">
        <ele>84.019308</ele>
        <time>2020-10-08T04:53:33.705Z</time>
      </trkpt>
      <trkpt lat="52.25092" lon="21.02487">
        <ele>83.942916</ele>
        <time>2020-10-08T04:53:36.663Z</time>
      </trkpt>
      <trkpt lat="52.25086" lon="21.02483">
        <ele>83.883325</ele>
        <time>2020-10-08T04:53:38.777Z</time>
      </trkpt>
      <trkpt lat="52.25075" lon="21.02474">
        <ele>83.771109</ele>
        <time>2020-10-08T04:53:42.942Z</time>
      </trkpt>
      <trkpt lat="52.2507" lon="21.02479">
        <ele>83.712341</ele>
        <time>2020-10-08T04:53:44.931Z</time>
      </trkpt>
      <trkpt lat="52.25045" lon="21.02507">
        <ele>83.431736</ele>
        <time>2020-10-08T04:53:55.035Z</time>
      </trkpt>
      <trkpt lat="52.25031" lon="21.02522">
        <ele>83.215058</ele>
        <time>2020-10-08T04:54:00.370Z</time>
      </trkpt>
      <trkpt lat="52.25005" lon="21.02556">
        <ele>82.769898</ele>
        <time>2020-10-08T04:54:10.950Z</time>
      </trkpt>
      <trkpt lat="52.24961" lon="21.026">
        <ele>82.070345</ele>
        <time>2020-10-08T04:54:27.647Z</time>
      </trkpt>
      <trkpt lat="52.24909" lon="21.0266">
        <ele>81.211754</ele>
        <time>2020-10-08T04:54:49.143Z</time>
      </trkpt>
      <trkpt lat="52.24897" lon="21.02677">
        <ele>80.999249</ele>
        <time>2020-10-08T04:54:54.600Z</time>
      </trkpt>
      <trkpt lat="52.2488" lon="21.02704">
        <ele>80.880603</ele>
        <time>2020-10-08T04:55:02.561Z</time>
      </trkpt>
      <trkpt lat="52.24866" lon="21.02734">
        <ele>80.767615</ele>
        <time>2020-10-08T04:55:10.435Z</time>
      </trkpt>
      <trkpt lat="52.24863" lon="21.02731">
        <ele>80.751266</ele>
        <time>2020-10-08T04:55:12.802Z</time>
      </trkpt>
      <trkpt lat="52.2486" lon="21.02728">
        <ele>80.732506</ele>
        <time>2020-10-08T04:55:15.473Z</time>
      </trkpt>
      <trkpt lat="52.24857" lon="21.02725">
        <ele>80.71781</ele>
        <time>2020-10-08T04:55:17.605Z</time>
      </trkpt>
      <trkpt lat="52.24855" lon="21.02722">
        <ele>80.704248</ele>
        <time>2020-10-08T04:55:18.370Z</time>
      </trkpt>
      <trkpt lat="52.24848" lon="21.02731">
        <ele>80.662002</ele>
        <time>2020-10-08T04:55:20.119Z</time>
      </trkpt>
      <trkpt lat="52.24832" lon="21.02754">
        <ele>80.556465</ele>
        <time>2020-10-08T04:55:24.475Z</time>
      </trkpt>
      <trkpt lat="52.24826" lon="21.02768">
        <ele>80.506746</ele>
        <time>2020-10-08T04:55:26.718Z</time>
      </trkpt>
      <trkpt lat="52.24812" lon="21.02829">
        <ele>80.31421</ele>
        <time>2020-10-08T04:55:35.655Z</time>
      </trkpt>
      <trkpt lat="52.24807" lon="21.02856">
        <ele>80.230318</ele>
        <time>2020-10-08T04:55:39.641Z</time>
      </trkpt>
      <trkpt lat="52.24802" lon="21.02887">
        <ele>80.135161</ele>
        <time>2020-10-08T04:55:44.569Z</time>
      </trkpt>
      <trkpt lat="52.24794" lon="21.02913">
        <ele>80.139488</ele>
        <time>2020-10-08T04:55:48.847Z</time>
      </trkpt>
      <trkpt lat="52.24775" lon="21.02977">
        <ele>80.198437</ele>
        <time>2020-10-08T04:55:59.570Z</time>
      </trkpt>
      <trkpt lat="52.24772" lon="21.02985">
        <ele>80.206208</ele>
        <time>2020-10-08T04:56:00.924Z</time>
      </trkpt>
      <trkpt lat="52.2477" lon="21.02988">
        <ele>80.209107</ele>
        <time>2020-10-08T04:56:01.575Z</time>
      </trkpt>
      <trkpt lat="52.24729" lon="21.03059">
        <ele>80.290794</ele>
        <time>2020-10-08T04:56:15.611Z</time>
      </trkpt>
      <trkpt lat="52.24703" lon="21.03101">
        <ele>80.339583</ele>
        <time>2020-10-08T04:56:24.038Z</time>
      </trkpt>
      <trkpt lat="52.24687" lon="21.03124">
        <ele>80.365709</ele>
        <time>2020-10-08T04:56:29.251Z</time>
      </trkpt>
      <trkpt lat="52.24532" lon="21.03379">
        <ele>80.548096</ele>
        <time>2020-10-08T04:57:20.756Z</time>
      </trkpt>
      <trkpt lat="52.24464" lon="21.03493">
        <ele>80.689753</ele>
        <time>2020-10-08T04:57:43.756Z</time>
      </trkpt>
      <trkpt lat="52.24452" lon="21.03516">
        <ele>80.717051</ele>
        <time>2020-10-08T04:57:48.220Z</time>
      </trkpt>
      <trkpt lat="52.24444" lon="21.03535">
        <ele>80.737625</ele>
        <time>2020-10-08T04:57:51.791Z</time>
      </trkpt>
      <trkpt lat="52.24402" lon="21.03692">
        <ele>81.246754</ele>
        <time>2020-10-08T04:58:17.946Z</time>
      </trkpt>
      <trkpt lat="52.244" lon="21.03694">
        <ele>81.258149</ele>
        <time>2020-10-08T04:58:18.587Z</time>
      </trkpt>
      <trkpt lat="52.24399" lon="21.03698">
        <ele>81.27084</ele>
        <time>2020-10-08T04:58:19.193Z</time>
      </trkpt>
      <trkpt lat="52.24398" lon="21.03714">
        <ele>81.321441</ele>
        <time>2020-10-08T04:58:21.527Z</time>
      </trkpt>
      <trkpt lat="52.24398" lon="21.0372">
        <ele>81.338679</ele>
        <time>2020-10-08T04:58:22.327Z</time>
      </trkpt>
      <trkpt lat="52.24395" lon="21.03729">
        <ele>81.370841</ele>
        <time>2020-10-08T04:58:23.913Z</time>
      </trkpt>
      <trkpt lat="52.24373" lon="21.03781">
        <ele>81.565782</ele>
        <time>2020-10-08T04:58:33.688Z</time>
      </trkpt>
      <trkpt lat="52.24369" lon="21.03786">
        <ele>81.588616</ele>
        <time>2020-10-08T04:58:34.917Z</time>
      </trkpt>
      <trkpt lat="52.24366" lon="21.0379">
        <ele>81.607561</ele>
        <time>2020-10-08T04:58:35.804Z</time>
      </trkpt>
      <trkpt lat="52.24362" lon="21.03786">
        <ele>81.631773</ele>
        <time>2020-10-08T04:58:37.018Z</time>
      </trkpt>
      <trkpt lat="52.24354" lon="21.03794">
        <ele>81.698502</ele>
        <time>2020-10-08T04:58:39.244Z</time>
      </trkpt>
      <trkpt lat="52.24342" lon="21.03804">
        <ele>81.813649</ele>
        <time>2020-10-08T04:58:42.651Z</time>
      </trkpt>
      <trkpt lat="52.24335" lon="21.0381">
        <ele>81.883546</ele>
        <time>2020-10-08T04:58:44.788Z</time>
      </trkpt>
      <trkpt lat="52.24339" lon="21.03822">
        <ele>81.95139</ele>
        <time>2020-10-08T04:58:46.771Z</time>
      </trkpt>
      <trkpt lat="52.24336" lon="21.03832">
        <ele>82.005985</ele>
        <time>2020-10-08T04:58:48.319Z</time>
      </trkpt>
      <trkpt lat="52.24333" lon="21.03835">
        <ele>82.041228</ele>
        <time>2020-10-08T04:58:49.499Z</time>
      </trkpt>
      <trkpt lat="52.24329" lon="21.03836">
        <ele>82.073524</ele>
        <time>2020-10-08T04:58:50.526Z</time>
      </trkpt>
      <trkpt lat="52.24315" lon="21.03847">
        <ele>82.212162</ele>
        <time>2020-10-08T04:58:54.789Z</time>
      </trkpt>
      <trkpt lat="52.2428" lon="21.03862">
        <ele>82.521107</ele>
        <time>2020-10-08T04:59:04.164Z</time>
      </trkpt>
      <trkpt lat="52.24267" lon="21.03865">
        <ele>82.630237</ele>
        <time>2020-10-08T04:59:07.289Z</time>
      </trkpt>
      <trkpt lat="52.24266" lon="21.03866">
        <ele>82.638579</ele>
        <time>2020-10-08T04:59:07.536Z</time>
      </trkpt>
      <trkpt lat="52.24266" lon="21.03866">
        <ele>82.643153</ele>
        <time>2020-10-08T04:59:07.801Z</time>
      </trkpt>
      <trkpt lat="52.24225" lon="21.03879">
        <ele>83.000642</ele>
        <time>2020-10-08T04:59:18.514Z</time>
      </trkpt>
      <trkpt lat="52.24199" lon="21.03893">
        <ele>83.220772</ele>
        <time>2020-10-08T04:59:25.282Z</time>
      </trkpt>
      <trkpt lat="52.24189" lon="21.03901">
        <ele>83.285968</ele>
        <time>2020-10-08T04:59:28.515Z</time>
      </trkpt>
      <trkpt lat="52.24146" lon="21.03951">
        <ele>83.581988</ele>
        <time>2020-10-08T04:59:42.152Z</time>
      </trkpt>
      <trkpt lat="52.24095" lon="21.04025">
        <ele>83.964626</ele>
        <time>2020-10-08T04:59:58.983Z</time>
      </trkpt>
      <trkpt lat="52.24071" lon="21.04035">
        <ele>84.101773</ele>
        <time>2020-10-08T05:00:04.774Z</time>
      </trkpt>
      <trkpt lat="52.24045" lon="21.04075">
        <ele>84.198177</ele>
        <time>2020-10-08T05:00:12.491Z</time>
      </trkpt>
      <trkpt lat="52.24027" lon="21.0409">
        <ele>84.188484</ele>
        <time>2020-10-08T05:00:17.250Z</time>
      </trkpt>
      <trkpt lat="52.24024" lon="21.04093">
        <ele>84.186838</ele>
        <time>2020-10-08T05:00:18.007Z</time>
      </trkpt>
      <trkpt lat="52.24017" lon="21.04099">
        <ele>84.183342</ele>
        <time>2020-10-08T05:00:19.463Z</time>
      </trkpt>
      <trkpt lat="52.2398" lon="21.04126">
        <ele>84.16426</ele>
        <time>2020-10-08T05:00:28.516Z</time>
      </trkpt>
      <trkpt lat="52.23947" lon="21.04171">
        <ele>84.143892</ele>
        <time>2020-10-08T05:00:38.237Z</time>
      </trkpt>
      <trkpt lat="52.23926" lon="21.04191">
        <ele>84.132838</ele>
        <time>2020-10-08T05:00:43.183Z</time>
      </trkpt>
      <trkpt lat="52.23869" lon="21.04245">
        <ele>84.092723</ele>
        <time>2020-10-08T05:00:57.443Z</time>
      </trkpt>
      <trkpt lat="52.23821" lon="21.04291">
        <ele>84.054916</ele>
        <time>2020-10-08T05:01:10.022Z</time>
      </trkpt>
      <trkpt lat="52.23817" lon="21.04294">
        <ele>84.051626</ele>
        <time>2020-10-08T05:01:11.115Z</time>
      </trkpt>
      <trkpt lat="52.23783" lon="21.04327">
        <ele>84.024944</ele>
        <time>2020-10-08T05:01:19.945Z</time>
      </trkpt>
      <trkpt lat="52.23781" lon="21.04328">
        <ele>84.023621</ele>
        <time>2020-10-08T05:01:20.382Z</time>
      </trkpt>
      <trkpt lat="52.23771" lon="21.04338">
        <ele>84.015406</ele>
        <time>2020-10-08T05:01:23.055Z</time>
      </trkpt>
      <trkpt lat="52.23738" lon="21.04369">
        <ele>83.938933</ele>
        <time>2020-10-08T05:01:31.265Z</time>
      </trkpt>
      <trkpt lat="52.23721" lon="21.04384">
        <ele>83.86071</ele>
        <time>2020-10-08T05:01:35.311Z</time>
      </trkpt>
      <trkpt lat="52.23719" lon="21.04387">
        <ele>83.847331</ele>
        <time>2020-10-08T05:01:35.941Z</time>
      </trkpt>
      <trkpt lat="52.23676" lon="21.04428">
        <ele>83.6416</ele>
        <time>2020-10-08T05:01:46.132Z</time>
      </trkpt>
      <trkpt lat="52.23652" lon="21.04453">
        <ele>83.524399</ele>
        <time>2020-10-08T05:01:51.961Z</time>
      </trkpt>
      <trkpt lat="52.23636" lon="21.04468">
        <ele>83.448141</ele>
        <time>2020-10-08T05:01:55.822Z</time>
      </trkpt>
      <trkpt lat="52.23627" lon="21.04477">
        <ele>83.40216</ele>
        <time>2020-10-08T05:01:58.185Z</time>
      </trkpt>
      <trkpt lat="52.2361" lon="21.04493">
        <ele>83.322766</ele>
        <time>2020-10-08T05:02:04.897Z</time>
      </trkpt>
      <trkpt lat="52.23595" lon="21.04508">
        <ele>83.245865</ele>
        <time>2020-10-08T05:02:11.331Z</time>
      </trkpt>
      <trkpt lat="52.23575" lon="21.04527">
        <ele>83.118436</ele>
        <time>2020-10-08T05:02:19.252Z</time>
      </trkpt>
      <trkpt lat="52.23557" lon="21.0455">
        <ele>82.989728</ele>
        <time>2020-10-08T05:02:27.310Z</time>
      </trkpt>
      <trkpt lat="52.23515" lon="21.04608">
        <ele>82.685932</ele>
        <time>2020-10-08T05:02:46.221Z</time>
      </trkpt>
      <trkpt lat="52.23506" lon="21.04618">
        <ele>82.626044</ele>
        <time>2020-10-08T05:02:50.051Z</time>
      </trkpt>
      <trkpt lat="52.23481" lon="21.04644">
        <ele>82.459354</ele>
        <time>2020-10-08T05:03:00.580Z</time>
      </trkpt>
      <trkpt lat="52.23325" lon="21.04772">
        <ele>81.918503</ele>
        <time>2020-10-08T05:04:02.809Z</time>
      </trkpt>
      <trkpt lat="52.23081" lon="21.04983">
        <ele>82.462655</ele>
        <time>2020-10-08T05:05:47.226Z</time>
      </trkpt>
      <trkpt lat="52.23065" lon="21.05005">
        <ele>82.593778</ele>
        <time>2020-10-08T05:05:55.903Z</time>
      </trkpt>
      <trkpt lat="52.23032" lon="21.05034">
        <ele>82.826473</ele>
        <time>2020-10-08T05:06:11.161Z</time>
      </trkpt>
      <trkpt lat="52.23029" lon="21.05037">
        <ele>82.849706</ele>
        <time>2020-10-08T05:06:12.637Z</time>
      </trkpt>
      <trkpt lat="52.23032" lon="21.05045">
        <ele>82.886628</ele>
        <time>2020-10-08T05:06:14.189Z</time>
      </trkpt>
      <trkpt lat="52.23038" lon="21.05064">
        <ele>82.96863</ele>
        <time>2020-10-08T05:06:17.703Z</time>
      </trkpt>
      <trkpt lat="52.23042" lon="21.05075">
        <ele>83.015318</ele>
        <time>2020-10-08T05:06:19.798Z</time>
      </trkpt>
      <trkpt lat="52.23042" lon="21.05078">
        <ele>83.02686</ele>
        <time>2020-10-08T05:06:20.241Z</time>
      </trkpt>
      <trkpt lat="52.23042" lon="21.05082">
        <ele>83.042916</ele>
        <time>2020-10-08T05:06:20.933Z</time>
      </trkpt>
      <trkpt lat="52.23041" lon="21.05085">
        <ele>83.05526</ele>
        <time>2020-10-08T05:06:21.509Z</time>
      </trkpt>
      <trkpt lat="52.23036" lon="21.05091">
        <ele>83.095178</ele>
        <time>2020-10-08T05:06:23.042Z</time>
      </trkpt>
      <trkpt lat="52.23027" lon="21.05099">
        <ele>83.153818</ele>
        <time>2020-10-08T05:06:25.392Z</time>
      </trkpt>
      <trkpt lat="52.23019" lon="21.05106">
        <ele>83.214442</ele>
        <time>2020-10-08T05:06:27.951Z</time>
      </trkpt>
      <trkpt lat="52.23014" lon="21.05105">
        <ele>83.240201</ele>
        <time>2020-10-08T05:06:29.409Z</time>
      </trkpt>
      <trkpt lat="52.22965" lon="21.05146">
        <ele>83.65969</ele>
        <time>2020-10-08T05:06:47.161Z</time>
      </trkpt>
      <trkpt lat="52.22912" lon="21.05191">
        <ele>84.108939</ele>
        <time>2020-10-08T05:07:06.495Z</time>
      </trkpt>
      <trkpt lat="52.22895" lon="21.05204">
        <ele>84.25392</ele>
        <time>2020-10-08T05:07:12.836Z</time>
      </trkpt>
      <trkpt lat="52.22889" lon="21.05206">
        <ele>84.294655</ele>
        <time>2020-10-08T05:07:14.589Z</time>
      </trkpt>
      <trkpt lat="52.2282" lon="21.05275">
        <ele>84.820489</ele>
        <time>2020-10-08T05:07:40.496Z</time>
      </trkpt>
      <trkpt lat="52.22789" lon="21.05316">
        <ele>85.040263</ele>
        <time>2020-10-08T05:07:53.826Z</time>
      </trkpt>
      <trkpt lat="52.22785" lon="21.05325">
        <ele>85.073572</ele>
        <time>2020-10-08T05:07:55.919Z</time>
      </trkpt>
      <trkpt lat="52.22783" lon="21.05333">
        <ele>85.103652</ele>
        <time>2020-10-08T05:07:57.964Z</time>
      </trkpt>
      <trkpt lat="52.22771" lon="21.05407">
        <ele>85.357202</ele>
        <time>2020-10-08T05:08:12.478Z</time>
      </trkpt>
      <trkpt lat="52.22755" lon="21.05508">
        <ele>85.499538</ele>
        <time>2020-10-08T05:08:31.601Z</time>
      </trkpt>
      <trkpt lat="52.22748" lon="21.05546">
        <ele>85.411462</ele>
        <time>2020-10-08T05:08:38.548Z</time>
      </trkpt>
      <trkpt lat="52.22732" lon="21.05646">
        <ele>85.185698</ele>
        <time>2020-10-08T05:08:56.411Z</time>
      </trkpt>
      <trkpt lat="52.2273" lon="21.05658">
        <ele>85.158846</ele>
        <time>2020-10-08T05:08:58.535Z</time>
      </trkpt>
      <trkpt lat="52.22731" lon="21.05693">
        <ele>85.080587</ele>
        <time>2020-10-08T05:09:03.135Z</time>
      </trkpt>
      <trkpt lat="52.22725" lon="21.05716">
        <ele>85.026241</ele>
        <time>2020-10-08T05:09:06.382Z</time>
      </trkpt>
      <trkpt lat="52.22695" lon="21.0574">
        <ele>84.88964</ele>
        <time>2020-10-08T05:09:13.221Z</time>
      </trkpt>
      <trkpt lat="52.22696" lon="21.05745">
        <ele>84.868923</ele>
        <time>2020-10-08T05:09:13.938Z</time>
      </trkpt>
      <trkpt lat="52.22698" lon="21.05754">
        <ele>84.837451</ele>
        <time>2020-10-08T05:09:15.768Z</time>
      </trkpt>
      <trkpt lat="52.22675" lon="21.05769">
        <ele>84.693099</ele>
        <time>2020-10-08T05:09:20.670Z</time>
      </trkpt>
      <trkpt lat="52.22639" lon="21.05793">
        <ele>84.473263</ele>
        <time>2020-10-08T05:09:28.371Z</time>
      </trkpt>
      <trkpt lat="52.2259" lon="21.05845">
        <ele>84.137153</ele>
        <time>2020-10-08T05:09:40.712Z</time>
      </trkpt>
      <trkpt lat="52.22571" lon="21.05874">
        <ele>83.989267</ele>
        <time>2020-10-08T05:09:46.049Z</time>
      </trkpt>
      <trkpt lat="52.22562" lon="21.05902">
        <ele>83.883679</ele>
        <time>2020-10-08T05:09:50.104Z</time>
      </trkpt>
      <trkpt lat="52.22559" lon="21.05923">
        <ele>83.818978</ele>
        <time>2020-10-08T05:09:52.749Z</time>
      </trkpt>
      <trkpt lat="52.22557" lon="21.05938">
        <ele>83.771968</ele>
        <time>2020-10-08T05:09:54.731Z</time>
      </trkpt>
      <trkpt lat="52.22557" lon="21.05951">
        <ele>83.734111</ele>
        <time>2020-10-08T05:09:56.377Z</time>
      </trkpt>
      <trkpt lat="52.22557" lon="21.05968">
        <ele>83.681293</ele>
        <time>2020-10-08T05:09:58.603Z</time>
      </trkpt>
      <trkpt lat="52.2253" lon="21.05974">
        <ele>83.54947</ele>
        <time>2020-10-08T05:10:04.202Z</time>
      </trkpt>
      <trkpt lat="52.22471" lon="21.05983">
        <ele>83.25918</ele>
        <time>2020-10-08T05:10:16.234Z</time>
      </trkpt>
      <trkpt lat="52.2243" lon="21.05986">
        <ele>83.056636</ele>
        <time>2020-10-08T05:10:24.730Z</time>
      </trkpt>
      <trkpt lat="52.22423" lon="21.05987">
        <ele>83.025425</ele>
        <time>2020-10-08T05:10:26.208Z</time>
      </trkpt>
      <trkpt lat="52.22411" lon="21.05987">
        <ele>83.015067</ele>
        <time>2020-10-08T05:10:28.746Z</time>
      </trkpt>
      <trkpt lat="52.22404" lon="21.05987">
        <ele>83.009247</ele>
        <time>2020-10-08T05:10:30.151Z</time>
      </trkpt>
      <trkpt lat="52.22377" lon="21.05985">
        <ele>82.986013</ele>
        <time>2020-10-08T05:10:35.912Z</time>
      </trkpt>
      <trkpt lat="52.22371" lon="21.05984">
        <ele>82.981296</ele>
        <time>2020-10-08T05:10:37.095Z</time>
      </trkpt>
      <trkpt lat="52.22349" lon="21.05986">
        <ele>82.962192</ele>
        <time>2020-10-08T05:10:41.911Z</time>
      </trkpt>
      <trkpt lat="52.22346" lon="21.05985">
        <ele>82.959446</ele>
        <time>2020-10-08T05:10:42.601Z</time>
      </trkpt>
      <trkpt lat="52.22346" lon="21.05998">
        <ele>82.952941</ele>
        <time>2020-10-08T05:10:44.403Z</time>
      </trkpt>
      <trkpt lat="52.22346" lon="21.06005">
        <ele>82.948957</ele>
        <time>2020-10-08T05:10:45.478Z</time>
      </trkpt>
      <trkpt lat="52.22337" lon="21.06009">
        <ele>82.9403</ele>
        <time>2020-10-08T05:10:47.814Z</time>
      </trkpt>
      <trkpt lat="52.22296" lon="21.0612">
        <ele>82.872849</ele>
        <time>2020-10-08T05:11:06.669Z</time>
      </trkpt>
      <trkpt lat="52.22293" lon="21.06152">
        <ele>82.869045</ele>
        <time>2020-10-08T05:11:11.317Z</time>
      </trkpt>
      <trkpt lat="52.22289" lon="21.06176">
        <ele>82.866475</ele>
        <time>2020-10-08T05:11:14.812Z</time>
      </trkpt>
      <trkpt lat="52.22248" lon="21.06351">
        <ele>82.847239</ele>
        <time>2020-10-08T05:11:41.469Z</time>
      </trkpt>
      <trkpt lat="52.22246" lon="21.06365">
        <ele>82.845676</ele>
        <time>2020-10-08T05:11:43.545Z</time>
      </trkpt>
      <trkpt lat="52.22242" lon="21.06406">
        <ele>82.839271</ele>
        <time>2020-10-08T05:11:49.299Z</time>
      </trkpt>
      <trkpt lat="52.22227" lon="21.06469">
        <ele>82.8066</ele>
        <time>2020-10-08T05:11:58.608Z</time>
      </trkpt>
      <trkpt lat="52.22223" lon="21.06489">
        <ele>82.796263</ele>
        <time>2020-10-08T05:12:01.412Z</time>
      </trkpt>
      <trkpt lat="52.22219" lon="21.06497">
        <ele>82.791421</ele>
        <time>2020-10-08T05:12:02.796Z</time>
      </trkpt>
      <trkpt lat="52.22218" lon="21.06502">
        <ele>82.788642</ele>
        <time>2020-10-08T05:12:03.614Z</time>
      </trkpt>
      <trkpt lat="52.22216" lon="21.0651">
        <ele>82.784756</ele>
        <time>2020-10-08T05:12:04.770Z</time>
      </trkpt>
      <trkpt lat="52.22215" lon="21.06515">
        <ele>82.782072</ele>
        <time>2020-10-08T05:12:05.580Z</time>
      </trkpt>
      <trkpt lat="52.22216" lon="21.06523">
        <ele>82.778585</ele>
        <time>2020-10-08T05:12:06.610Z</time>
      </trkpt>
      <trkpt lat="52.22213" lon="21.06549">
        <ele>82.765831</ele>
        <time>2020-10-08T05:12:10.091Z</time>
      </trkpt>
      <trkpt lat="52.22192" lon="21.06734">
        <ele>82.709293</ele>
        <time>2020-10-08T05:12:36.969Z</time>
      </trkpt>
      <trkpt lat="52.22184" lon="21.06886">
        <ele>82.736412</ele>
        <time>2020-10-08T05:12:59.016Z</time>
      </trkpt>
      <trkpt lat="52.22183" lon="21.06958">
        <ele>82.749153</ele>
        <time>2020-10-08T05:13:09.351Z</time>
      </trkpt>
      <trkpt lat="52.22185" lon="21.06992">
        <ele>82.744433</ele>
        <time>2020-10-08T05:13:14.131Z</time>
      </trkpt>
      <trkpt lat="52.2218" lon="21.07067">
        <ele>82.711296</ele>
        <time>2020-10-08T05:13:24.942Z</time>
      </trkpt>
      <trkpt lat="52.2218" lon="21.07082">
        <ele>82.70475</ele>
        <time>2020-10-08T05:13:26.993Z</time>
      </trkpt>
      <trkpt lat="52.22179" lon="21.07097">
        <ele>82.698131</ele>
        <time>2020-10-08T05:13:29.117Z</time>
      </trkpt>
      <trkpt lat="52.22179" lon="21.07111">
        <ele>82.691902</ele>
        <time>2020-10-08T05:13:31.117Z</time>
      </trkpt>
      <trkpt lat="52.22179" lon="21.07135">
        <ele>82.681368</ele>
        <time>2020-10-08T05:13:34.558Z</time>
      </trkpt>
      <trkpt lat="52.22179" lon="21.07148">
        <ele>82.675752</ele>
        <time>2020-10-08T05:13:36.305Z</time>
      </trkpt>
      <trkpt lat="52.22179" lon="21.07161">
        <ele>82.669872</ele>
        <time>2020-10-08T05:13:38.189Z</time>
      </trkpt>
      <trkpt lat="52.22177" lon="21.07294">
        <ele>82.608279</ele>
        <time>2020-10-08T05:13:56.481Z</time>
      </trkpt>
      <trkpt lat="52.22167" lon="21.07856">
        <ele>82.320711</ele>
        <time>2020-10-08T05:15:15.336Z</time>
      </trkpt>
      <trkpt lat="52.22171" lon="21.07994">
        <ele>82.409552</ele>
        <time>2020-10-08T05:15:35.110Z</time>
      </trkpt>
      <trkpt lat="52.22161" lon="21.08076">
        <ele>82.46295</ele>
        <time>2020-10-08T05:15:47.444Z</time>
      </trkpt>
      <trkpt lat="52.2216" lon="21.08083">
        <ele>82.467587</ele>
        <time>2020-10-08T05:15:48.472Z</time>
      </trkpt>
      <trkpt lat="52.22156" lon="21.08108">
        <ele>82.484417</ele>
        <time>2020-10-08T05:15:52.349Z</time>
      </trkpt>
      <trkpt lat="52.22156" lon="21.08111">
        <ele>82.486739</ele>
        <time>2020-10-08T05:15:52.848Z</time>
      </trkpt>
      <trkpt lat="52.22156" lon="21.08116">
        <ele>82.489695</ele>
        <time>2020-10-08T05:15:53.542Z</time>
      </trkpt>
      <trkpt lat="52.22155" lon="21.08122">
        <ele>82.493498</ele>
        <time>2020-10-08T05:15:54.427Z</time>
      </trkpt>
      <trkpt lat="52.22155" lon="21.08128">
        <ele>82.497294</ele>
        <time>2020-10-08T05:15:55.351Z</time>
      </trkpt>
      <trkpt lat="52.22155" lon="21.08133">
        <ele>82.500457</ele>
        <time>2020-10-08T05:15:56.128Z</time>
      </trkpt>
      <trkpt lat="52.22154" lon="21.08138">
        <ele>82.504029</ele>
        <time>2020-10-08T05:15:56.935Z</time>
      </trkpt>
      <trkpt lat="52.22149" lon="21.08171">
        <ele>82.547684</ele>
        <time>2020-10-08T05:16:01.912Z</time>
      </trkpt>
      <trkpt lat="52.22144" lon="21.08197">
        <ele>82.587954</ele>
        <time>2020-10-08T05:16:06.085Z</time>
      </trkpt>
      <trkpt lat="52.22097" lon="21.08503">
        <ele>82.750303</ele>
        <time>2020-10-08T05:16:52.971Z</time>
      </trkpt>
      <trkpt lat="52.22092" lon="21.08568">
        <ele>82.584629</ele>
        <time>2020-10-08T05:17:01.695Z</time>
      </trkpt>
      <trkpt lat="52.22056" lon="21.08757">
        <ele>81.972084</ele>
        <time>2020-10-08T05:17:26.970Z</time>
      </trkpt>
      <trkpt lat="52.22056" lon="21.08762">
        <ele>81.945232</ele>
        <time>2020-10-08T05:17:27.564Z</time>
      </trkpt>
      <trkpt lat="52.22057" lon="21.08779">
        <ele>81.858748</ele>
        <time>2020-10-08T05:17:29.682Z</time>
      </trkpt>
      <trkpt lat="52.22031" lon="21.08888">
        <ele>81.267059</ele>
        <time>2020-10-08T05:17:44.442Z</time>
      </trkpt>
      <trkpt lat="52.22029" lon="21.08891">
        <ele>81.244853</ele>
        <time>2020-10-08T05:17:44.894Z</time>
      </trkpt>
      <trkpt lat="52.22028" lon="21.08893">
        <ele>81.226694</ele>
        <time>2020-10-08T05:17:45.395Z</time>
      </trkpt>
      <trkpt lat="52.22026" lon="21.08891">
        <ele>81.209912</ele>
        <time>2020-10-08T05:17:45.962Z</time>
      </trkpt>
      <trkpt lat="52.22023" lon="21.08885">
        <ele>81.170977</ele>
        <time>2020-10-08T05:17:47.311Z</time>
      </trkpt>
      <trkpt lat="52.22015" lon="21.0888">
        <ele>81.093955</ele>
        <time>2020-10-08T05:17:49.945Z</time>
      </trkpt>
      <trkpt lat="52.22001" lon="21.08872">
        <ele>80.977342</ele>
        <time>2020-10-08T05:17:53.512Z</time>
      </trkpt>
      <trkpt lat="52.21995" lon="21.08869">
        <ele>80.924501</ele>
        <time>2020-10-08T05:17:55.080Z</time>
      </trkpt>
      <trkpt lat="52.21991" lon="21.08884">
        <ele>80.838394</ele>
        <time>2020-10-08T05:17:58.009Z</time>
      </trkpt>
      <trkpt lat="52.21969" lon="21.08942">
        <ele>80.653987</ele>
        <time>2020-10-08T05:18:09.044Z</time>
      </trkpt>
      <trkpt lat="52.21945" lon="21.09053">
        <ele>80.484983</ele>
        <time>2020-10-08T05:18:29.418Z</time>
      </trkpt>
      <trkpt lat="52.21923" lon="21.09148">
        <ele>80.338008</ele>
        <time>2020-10-08T05:18:47.842Z</time>
      </trkpt>
      <trkpt lat="52.21917" lon="21.09174">
        <ele>80.298405</ele>
        <time>2020-10-08T05:18:53.007Z</time>
      </trkpt>
      <trkpt lat="52.21866" lon="21.0935">
        <ele>80.34745</ele>
        <time>2020-10-08T05:19:28.718Z</time>
      </trkpt>
      <trkpt lat="52.21837" lon="21.09433">
        <ele>80.3736</ele>
        <time>2020-10-08T05:19:45.930Z</time>
      </trkpt>
      <trkpt lat="52.2183" lon="21.09456">
        <ele>80.305212</ele>
        <time>2020-10-08T05:19:50.342Z</time>
      </trkpt>
      <trkpt lat="52.21778" lon="21.09526">
        <ele>79.908454</ele>
        <time>2020-10-08T05:20:08.942Z</time>
      </trkpt>
      <trkpt lat="52.21765" lon="21.09549">
        <ele>79.797329</ele>
        <time>2020-10-08T05:20:14.414Z</time>
      </trkpt>
      <trkpt lat="52.21762" lon="21.09563">
        <ele>79.745925</ele>
        <time>2020-10-08T05:20:16.510Z</time>
      </trkpt>
      <trkpt lat="52.21753" lon="21.09599">
        <ele>79.605008</ele>
        <time>2020-10-08T05:20:23.322Z</time>
      </trkpt>
      <trkpt lat="52.21751" lon="21.09604">
        <ele>79.582048</ele>
        <time>2020-10-08T05:20:24.356Z</time>
      </trkpt>
      <trkpt lat="52.21749" lon="21.09608">
        <ele>79.565261</ele>
        <time>2020-10-08T05:20:25.059Z</time>
      </trkpt>
      <trkpt lat="52.21746" lon="21.09611">
        <ele>79.544063</ele>
        <time>2020-10-08T05:20:25.650Z</time>
      </trkpt>
      <trkpt lat="52.21719" lon="21.09622">
        <ele>79.382442</ele>
        <time>2020-10-08T05:20:31.287Z</time>
      </trkpt>
      <trkpt lat="52.21713" lon="21.09621">
        <ele>79.346296</ele>
        <time>2020-10-08T05:20:32.355Z</time>
      </trkpt>
      <trkpt lat="52.21711" lon="21.0962">
        <ele>79.33381</ele>
        <time>2020-10-08T05:20:32.705Z</time>
      </trkpt>
      <trkpt lat="52.21682" lon="21.09591">
        <ele>79.32123</ele>
        <time>2020-10-08T05:20:39.467Z</time>
      </trkpt>
      <trkpt lat="52.21579" lon="21.09438">
        <ele>79.32123</ele>
        <time>2020-10-08T05:21:08.260Z</time>
      </trkpt>
    </trkseg>
  </trk>
</gpx>